<?xml version='1.0' encoding='UTF-8'?><gpx version="1.1" creator="JPX - https://github.com/jenetics/jpx" xmlns="http://www.topografix.com/GPX/1/1"><trk><trkseg><trkpt lat="43.78462825846305" lon="11.366765742809251"><ele>75.0</ele><time>2026-03-22T09:08:18.845Z</time></trkpt><trkpt lat="43.784783089639554" lon="11.366606849698279"><ele>75.0</ele><time>2026-03-22T09:11:52.182Z</time></trkpt><trkpt lat="43.78463396861928" lon="11.36676155938846"><ele>75.0</ele><time>2026-03-22T09:11:53.001Z</time></trkpt><trkpt lat="43.7846701983815" lon="11.366684270845647"><ele>75.0</ele><time>2026-03-22T09:14:59Z</time></trkpt><trkpt lat="43.78464921507272" lon="11.366571383565299"><ele>75.0</ele><time>2026-03-22T09:15:03Z</time></trkpt><trkpt lat="43.7846482562137" lon="11.366465594492759"><ele>75.0</ele><time>2026-03-22T09:15:05Z</time></trkpt><trkpt lat="43.7845643376058" lon="11.36644220785003"><ele>75.0</ele><time>2026-03-22T09:15:09Z</time></trkpt><trkpt lat="43.78449806773454" lon="11.366425239077673"><ele>75.0</ele><time>2026-03-22T09:15:10Z</time></trkpt><trkpt lat="43.78440297055666" lon="11.36638710725268"><ele>75.0</ele><time>2026-03-22T09:15:12Z</time></trkpt><trkpt lat="43.78435307666237" lon="11.366332133185482"><ele>75.0</ele><time>2026-03-22T09:15:14Z</time></trkpt><trkpt lat="43.784358206933696" lon="11.366245109783936"><ele>74.6</ele><time>2026-03-22T09:15:16Z</time></trkpt><trkpt lat="43.784381392135394" lon="11.366088578300005"><ele>74.2</ele><time>2026-03-22T09:15:18Z</time></trkpt><trkpt lat="43.78440903197739" lon="11.36590799149578"><ele>73.8</ele><time>2026-03-22T09:15:21Z</time></trkpt><trkpt lat="43.784386579661515" lon="11.365798930408488"><ele>73.4</ele><time>2026-03-22T09:15:23Z</time></trkpt><trkpt lat="43.78434905225239" lon="11.36568622983143"><ele>73.0</ele><time>2026-03-22T09:15:25Z</time></trkpt><trkpt lat="43.784317118441535" lon="11.365586979153301"><ele>73.0</ele><time>2026-03-22T09:15:28Z</time></trkpt><trkpt lat="43.7843378950235" lon="11.365422191452618"><ele>73.0</ele><time>2026-03-22T09:15:30Z</time></trkpt><trkpt lat="43.78435949217984" lon="11.365295590608403"><ele>73.0</ele><time>2026-03-22T09:15:31Z</time></trkpt><trkpt lat="43.7843847416775" lon="11.36516348362079"><ele>73.0</ele><time>2026-03-22T09:15:32Z</time></trkpt><trkpt lat="43.78441138567188" lon="11.36503066174005"><ele>73.0</ele><time>2026-03-22T09:15:33Z</time></trkpt><trkpt lat="43.78444593690033" lon="11.364903501244171"><ele>73.0</ele><time>2026-03-22T09:15:34Z</time></trkpt><trkpt lat="43.784459598116236" lon="11.364755968551611"><ele>73.0</ele><time>2026-03-22T09:15:35Z</time></trkpt><trkpt lat="43.78450328857264" lon="11.36461526300742"><ele>73.0</ele><time>2026-03-22T09:15:36Z</time></trkpt><trkpt lat="43.78453358593908" lon="11.364449581645468"><ele>73.0</ele><time>2026-03-22T09:15:37Z</time></trkpt><trkpt lat="43.78457023013869" lon="11.364293543587804"><ele>72.66666666666666</ele><time>2026-03-22T09:15:38Z</time></trkpt><trkpt lat="43.78460897137855" lon="11.364084165783423"><ele>72.33333333333333</ele><time>2026-03-22T09:15:39Z</time></trkpt><trkpt lat="43.784645588171315" lon="11.363871127816498"><ele>72.0</ele><time>2026-03-22T09:15:40Z</time></trkpt><trkpt lat="43.78465661707792" lon="11.363632163028592"><ele>72.0</ele><time>2026-03-22T09:15:41Z</time></trkpt><trkpt lat="43.784659093245985" lon="11.363428242787581"><ele>72.0</ele><time>2026-03-22T09:15:42Z</time></trkpt><trkpt lat="43.78466033264827" lon="11.363253124050345"><ele>72.0</ele><time>2026-03-22T09:15:43Z</time></trkpt><trkpt lat="43.78466581715378" lon="11.363087197942427"><ele>72.0</ele><time>2026-03-22T09:15:44Z</time></trkpt><trkpt lat="43.78466914283791" lon="11.362930979423929"><ele>72.25</ele><time>2026-03-22T09:15:45Z</time></trkpt><trkpt lat="43.78467818105771" lon="11.362770171347472"><ele>72.5</ele><time>2026-03-22T09:15:46Z</time></trkpt><trkpt lat="43.78468863432768" lon="11.362591861694535"><ele>72.75</ele><time>2026-03-22T09:15:47Z</time></trkpt><trkpt lat="43.78470186186137" lon="11.36240166935992"><ele>73.0</ele><time>2026-03-22T09:15:48Z</time></trkpt><trkpt lat="43.7846891011574" lon="11.362190316424023"><ele>73.5</ele><time>2026-03-22T09:15:49Z</time></trkpt><trkpt lat="43.78469457829656" lon="11.361993621907573"><ele>74.0</ele><time>2026-03-22T09:15:50Z</time></trkpt><trkpt lat="43.78468500037832" lon="11.361833695218063"><ele>74.5</ele><time>2026-03-22T09:15:51Z</time></trkpt><trkpt lat="43.784658373630535" lon="11.361686358537813"><ele>75.0</ele><time>2026-03-22T09:15:52Z</time></trkpt><trkpt lat="43.784627896801034" lon="11.361559945131717"><ele>75.0</ele><time>2026-03-22T09:15:53Z</time></trkpt><trkpt lat="43.78458853691106" lon="11.361460924310444"><ele>75.0</ele><time>2026-03-22T09:15:54Z</time></trkpt><trkpt lat="43.78455203365831" lon="11.361376146210036"><ele>75.0</ele><time>2026-03-22T09:15:55Z</time></trkpt><trkpt lat="43.78452125142809" lon="11.361260287122555"><ele>75.0</ele><time>2026-03-22T09:15:57Z</time></trkpt><trkpt lat="43.78447024238133" lon="11.361205740316537"><ele>75.0</ele><time>2026-03-22T09:16:21.999Z</time></trkpt><trkpt lat="43.78450741612484" lon="11.361088477309362"><ele>75.0</ele><time>2026-03-22T09:16:24.999Z</time></trkpt><trkpt lat="43.784502342101256" lon="11.360976257672167"><ele>74.85714285714285</ele><time>2026-03-22T09:16:28.999Z</time></trkpt><trkpt lat="43.78445081027261" lon="11.361034654333205"><ele>74.71428571428571</ele><time>2026-03-22T09:17:26.999Z</time></trkpt><trkpt lat="43.784396125864525" lon="11.361099703556446"><ele>74.57142857142857</ele><time>2026-03-22T09:20:48.997Z</time></trkpt><trkpt lat="43.78444780586462" lon="11.36119422016503"><ele>74.42857142857142</ele><time>2026-03-22T09:21:45.996Z</time></trkpt><trkpt lat="43.78448380137605" lon="11.361106310266605"><ele>74.28571428571428</ele><time>2026-03-22T09:22:01.996Z</time></trkpt><trkpt lat="43.78449340058045" lon="11.361015012482847"><ele>74.14285714285714</ele><time>2026-03-22T09:22:06.996Z</time></trkpt><trkpt lat="43.78447061325054" lon="11.360927130563015"><ele>74.0</ele><time>2026-03-22T09:22:14.996Z</time></trkpt><trkpt lat="43.784452120680044" lon="11.360831893722315"><ele>74.0</ele><time>2026-03-22T09:24:42.994Z</time></trkpt><trkpt lat="43.784465145289175" lon="11.360741433942737"><ele>74.0</ele><time>2026-03-22T09:24:44.994Z</time></trkpt><trkpt lat="43.78448667387689" lon="11.360602294051683"><ele>74.0</ele><time>2026-03-22T09:24:46.994Z</time></trkpt><trkpt lat="43.784519748681866" lon="11.360513553860628"><ele>74.0</ele><time>2026-03-22T09:24:47.994Z</time></trkpt><trkpt lat="43.784549219032556" lon="11.36040239644751"><ele>74.0</ele><time>2026-03-22T09:24:48.994Z</time></trkpt><trkpt lat="43.78461976400746" lon="11.360292645297626"><ele>74.0</ele><time>2026-03-22T09:24:49.994Z</time></trkpt><trkpt lat="43.784744256857564" lon="11.360237639971919"><ele>73.4</ele><time>2026-03-22T09:24:50.994Z</time></trkpt><trkpt lat="43.78481858286821" lon="11.36014941781827"><ele>72.80000000000001</ele><time>2026-03-22T09:24:51.994Z</time></trkpt><trkpt lat="43.78491009426795" lon="11.360071770354196"><ele>72.19999999999999</ele><time>2026-03-22T09:24:52.994Z</time></trkpt><trkpt lat="43.785018312237455" lon="11.36001519767628"><ele>71.6</ele><time>2026-03-22T09:24:53.994Z</time></trkpt><trkpt lat="43.785118244101795" lon="11.359969921444577"><ele>71.0</ele><time>2026-03-22T09:24:54.994Z</time></trkpt><trkpt lat="43.78524336922876" lon="11.359963903263365"><ele>72.75</ele><time>2026-03-22T09:24:55.994Z</time></trkpt><trkpt lat="43.78536972813534" lon="11.359936990100431"><ele>74.5</ele><time>2026-03-22T09:24:56.994Z</time></trkpt><trkpt lat="43.785478445285186" lon="11.359915449414677"><ele>76.25</ele><time>2026-03-22T09:24:57.994Z</time></trkpt><trkpt lat="43.78559732269333" lon="11.35989385089344"><ele>78.0</ele><time>2026-03-22T09:24:58.994Z</time></trkpt><trkpt lat="43.78571408662911" lon="11.35985394129746"><ele>78.0</ele><time>2026-03-22T09:24:59.994Z</time></trkpt><trkpt lat="43.785828366300805" lon="11.359830450478482"><ele>78.0</ele><time>2026-03-22T09:25:00.994Z</time></trkpt><trkpt lat="43.78593550971618" lon="11.359813361586552"><ele>78.0</ele><time>2026-03-22T09:25:01.994Z</time></trkpt><trkpt lat="43.786032165660735" lon="11.359733732750623"><ele>78.0</ele><time>2026-03-22T09:25:02.994Z</time></trkpt><trkpt lat="43.786127638523745" lon="11.359633926136604"><ele>78.5</ele><time>2026-03-22T09:25:03.994Z</time></trkpt><trkpt lat="43.78618768239271" lon="11.359506207580838"><ele>79.0</ele><time>2026-03-22T09:25:04.994Z</time></trkpt><trkpt lat="43.78623621152314" lon="11.359374575766534"><ele>79.5</ele><time>2026-03-22T09:25:05.994Z</time></trkpt><trkpt lat="43.78628355151912" lon="11.359218449971333"><ele>80.0</ele><time>2026-03-22T09:25:06.994Z</time></trkpt><trkpt lat="43.78632106128932" lon="11.359061967586575"><ele>80.0</ele><time>2026-03-22T09:25:07.994Z</time></trkpt><trkpt lat="43.786378179218445" lon="11.358906879891974"><ele>80.0</ele><time>2026-03-22T09:25:08.994Z</time></trkpt><trkpt lat="43.786450651356596" lon="11.358764031724373"><ele>80.0</ele><time>2026-03-22T09:25:09.994Z</time></trkpt><trkpt lat="43.7865235922763" lon="11.35864691485067"><ele>80.0</ele><time>2026-03-22T09:25:10.994Z</time></trkpt><trkpt lat="43.786605952042265" lon="11.358539861428007"><ele>80.2</ele><time>2026-03-22T09:25:11.994Z</time></trkpt><trkpt lat="43.78668151185893" lon="11.358462094281444"><ele>80.4</ele><time>2026-03-22T09:25:12.994Z</time></trkpt><trkpt lat="43.786768989291545" lon="11.358407988871802"><ele>80.6</ele><time>2026-03-22T09:25:13.994Z</time></trkpt><trkpt lat="43.78686922071276" lon="11.358375492252863"><ele>80.8</ele><time>2026-03-22T09:25:14.994Z</time></trkpt><trkpt lat="43.786974358655094" lon="11.358353926710082"><ele>81.0</ele><time>2026-03-22T09:25:15.994Z</time></trkpt><trkpt lat="43.787085186018224" lon="11.358319608462168"><ele>81.6</ele><time>2026-03-22T09:25:16.994Z</time></trkpt><trkpt lat="43.78716927382198" lon="11.358256477479342"><ele>82.19999999999999</ele><time>2026-03-22T09:25:17.994Z</time></trkpt><trkpt lat="43.78723663946823" lon="11.358160630941411"><ele>82.80000000000001</ele><time>2026-03-22T09:25:18.994Z</time></trkpt><trkpt lat="43.78731412771963" lon="11.35804217471615"><ele>83.4</ele><time>2026-03-22T09:25:19.994Z</time></trkpt><trkpt lat="43.78740722543317" lon="11.357915715152837"><ele>84.0</ele><time>2026-03-22T09:25:20.994Z</time></trkpt><trkpt lat="43.7875032065233" lon="11.357793671461566"><ele>84.0</ele><time>2026-03-22T09:25:21.994Z</time></trkpt><trkpt lat="43.78760470138178" lon="11.357655505911898"><ele>84.0</ele><time>2026-03-22T09:25:22.994Z</time></trkpt><trkpt lat="43.78772942230675" lon="11.357506650439658"><ele>84.0</ele><time>2026-03-22T09:25:23.994Z</time></trkpt><trkpt lat="43.78785710670018" lon="11.357338102256259"><ele>86.0</ele><time>2026-03-22T09:25:24.994Z</time></trkpt><trkpt lat="43.7879750927236" lon="11.357161346749736"><ele>88.0</ele><time>2026-03-22T09:25:25.994Z</time></trkpt><trkpt lat="43.78808135866208" lon="11.356977312467608"><ele>90.0</ele><time>2026-03-22T09:25:26.994Z</time></trkpt><trkpt lat="43.78817239580701" lon="11.356820299739322"><ele>90.0</ele><time>2026-03-22T09:25:27.994Z</time></trkpt><trkpt lat="43.78822438648503" lon="11.356693784900632"><ele>90.0</ele><time>2026-03-22T09:25:28.994Z</time></trkpt><trkpt lat="43.78827312961963" lon="11.356562313846661"><ele>90.0</ele><time>2026-03-22T09:25:29.994Z</time></trkpt><trkpt lat="43.78832070101827" lon="11.356427015836514"><ele>90.0</ele><time>2026-03-22T09:25:30.994Z</time></trkpt><trkpt lat="43.788378645516076" lon="11.356288447362534"><ele>90.0</ele><time>2026-03-22T09:25:31.994Z</time></trkpt><trkpt lat="43.78844143999376" lon="11.356154865381331"><ele>90.75</ele><time>2026-03-22T09:25:32.994Z</time></trkpt><trkpt lat="43.78853205422585" lon="11.356023336176033"><ele>91.5</ele><time>2026-03-22T09:25:33.994Z</time></trkpt><trkpt lat="43.78860336151413" lon="11.355874013655388"><ele>92.25</ele><time>2026-03-22T09:25:34.994Z</time></trkpt><trkpt lat="43.78866823626317" lon="11.355692963897175"><ele>93.0</ele><time>2026-03-22T09:25:35.994Z</time></trkpt><trkpt lat="43.78871244784714" lon="11.355537754772858"><ele>93.80000000000001</ele><time>2026-03-22T09:25:36.994Z</time></trkpt><trkpt lat="43.78876320503097" lon="11.355424281793558"><ele>94.6</ele><time>2026-03-22T09:25:37.994Z</time></trkpt><trkpt lat="43.78882830256077" lon="11.355342529577001"><ele>95.4</ele><time>2026-03-22T09:25:38.994Z</time></trkpt><trkpt lat="43.788897965806605" lon="11.35529327955407"><ele>96.19999999999999</ele><time>2026-03-22T09:25:39.994Z</time></trkpt><trkpt lat="43.788971907889916" lon="11.355226139812054"><ele>97.0</ele><time>2026-03-22T09:25:41.994Z</time></trkpt><trkpt lat="43.789077323163056" lon="11.355039289349875"><ele>97.0</ele><time>2026-03-22T09:27:11.993Z</time></trkpt><trkpt lat="43.78912810521923" lon="11.354979500484529"><ele>97.0</ele><time>2026-03-22T09:27:12.993Z</time></trkpt><trkpt lat="43.78917649460204" lon="11.354914357162217"><ele>97.0</ele><time>2026-03-22T09:27:13.993Z</time></trkpt><trkpt lat="43.78926987103585" lon="11.35486556570502"><ele>97.0</ele><time>2026-03-22T09:27:14.993Z</time></trkpt><trkpt lat="43.789354982893585" lon="11.35476866492334"><ele>97.0</ele><time>2026-03-22T09:27:15.993Z</time></trkpt><trkpt lat="43.789448122335315" lon="11.354657627173937"><ele>98.75</ele><time>2026-03-22T09:27:16.993Z</time></trkpt><trkpt lat="43.789520831076004" lon="11.35452948020463"><ele>100.5</ele><time>2026-03-22T09:27:17.993Z</time></trkpt><trkpt lat="43.789600114189916" lon="11.354416253121077"><ele>102.25</ele><time>2026-03-22T09:27:18.992Z</time></trkpt><trkpt lat="43.789682148958846" lon="11.354297496707757"><ele>104.0</ele><time>2026-03-22T09:27:19.992Z</time></trkpt><trkpt lat="43.789756533566425" lon="11.35416473154611"><ele>104.0</ele><time>2026-03-22T09:27:20.992Z</time></trkpt><trkpt lat="43.789851778096924" lon="11.354032821895249"><ele>104.0</ele><time>2026-03-22T09:27:21.992Z</time></trkpt><trkpt lat="43.78991288298678" lon="11.353912866195632"><ele>104.0</ele><time>2026-03-22T09:27:22.992Z</time></trkpt><trkpt lat="43.789954010911764" lon="11.353796962829914"><ele>104.0</ele><time>2026-03-22T09:27:23.992Z</time></trkpt><trkpt lat="43.78996160367783" lon="11.35368390239614"><ele>104.0</ele><time>2026-03-22T09:27:24.992Z</time></trkpt><trkpt lat="43.789947792084845" lon="11.353576849930736"><ele>106.33333333333333</ele><time>2026-03-22T09:27:25.992Z</time></trkpt><trkpt lat="43.789897966171566" lon="11.353479725237449"><ele>108.66666666666666</ele><time>2026-03-22T09:27:26.992Z</time></trkpt><trkpt lat="43.78982622154693" lon="11.353414553555577"><ele>111.0</ele><time>2026-03-22T09:27:27.992Z</time></trkpt><trkpt lat="43.7897444269395" lon="11.35338136765169"><ele>113.33333333333334</ele><time>2026-03-22T09:27:28.992Z</time></trkpt><trkpt lat="43.789656677918565" lon="11.353378057824642"><ele>115.66666666666667</ele><time>2026-03-22T09:27:29.992Z</time></trkpt><trkpt lat="43.78957079739162" lon="11.353433431355993"><ele>118.0</ele><time>2026-03-22T09:27:30.992Z</time></trkpt><trkpt lat="43.789512312394095" lon="11.353524204746984"><ele>118.0</ele><time>2026-03-22T09:27:31.992Z</time></trkpt><trkpt lat="43.789465037164554" lon="11.353675270038815"><ele>118.00000000000001</ele><time>2026-03-22T09:27:32.992Z</time></trkpt><trkpt lat="43.789402065718974" lon="11.353816468340703"><ele>118.00000000000001</ele><time>2026-03-22T09:27:33.992Z</time></trkpt><trkpt lat="43.789331042234025" lon="11.353897827934482"><ele>118.0</ele><time>2026-03-22T09:27:34.992Z</time></trkpt><trkpt lat="43.78925842783289" lon="11.353925887043431"><ele>118.0</ele><time>2026-03-22T09:27:35.992Z</time></trkpt><trkpt lat="43.7891712914147" lon="11.353912646857253"><ele>119.80000000000001</ele><time>2026-03-22T09:27:36.992Z</time></trkpt><trkpt lat="43.78909281159338" lon="11.353866289228018"><ele>121.60000000000001</ele><time>2026-03-22T09:27:37.992Z</time></trkpt><trkpt lat="43.7890566479621" lon="11.353748980072911"><ele>123.39999999999999</ele><time>2026-03-22T09:27:38.992Z</time></trkpt><trkpt lat="43.78903780150887" lon="11.35362347737072"><ele>125.19999999999999</ele><time>2026-03-22T09:27:39.992Z</time></trkpt><trkpt lat="43.78903027394426" lon="11.353487233692963"><ele>127.0</ele><time>2026-03-22T09:27:40.992Z</time></trkpt><trkpt lat="43.789051780081756" lon="11.353318676791021"><ele>127.0</ele><time>2026-03-22T09:27:41.992Z</time></trkpt><trkpt lat="43.78904639925822" lon="11.353141936742391"><ele>127.0</ele><time>2026-03-22T09:27:42.992Z</time></trkpt><trkpt lat="43.78903314675413" lon="11.352948118860768"><ele>127.0</ele><time>2026-03-22T09:27:43.992Z</time></trkpt><trkpt lat="43.788983598504984" lon="11.352744281216617"><ele>127.0</ele><time>2026-03-22T09:27:44.992Z</time></trkpt><trkpt lat="43.788934357535" lon="11.352550786520522"><ele>128.5</ele><time>2026-03-22T09:27:45.992Z</time></trkpt><trkpt lat="43.78889409627693" lon="11.352356865758995"><ele>130.0</ele><time>2026-03-22T09:27:46.992Z</time></trkpt><trkpt lat="43.78887411008187" lon="11.352155706325663"><ele>131.5</ele><time>2026-03-22T09:27:47.992Z</time></trkpt><trkpt lat="43.78887333726021" lon="11.351942134391924"><ele>133.0</ele><time>2026-03-22T09:27:48.992Z</time></trkpt><trkpt lat="43.78891987505786" lon="11.351730377867941"><ele>135.33333333333334</ele><time>2026-03-22T09:27:49.992Z</time></trkpt><trkpt lat="43.78898352591563" lon="11.351503073383567"><ele>137.66666666666666</ele><time>2026-03-22T09:27:50.992Z</time></trkpt><trkpt lat="43.78903522209658" lon="11.351271637697106"><ele>140.0</ele><time>2026-03-22T09:27:51.992Z</time></trkpt><trkpt lat="43.78910840233079" lon="11.35106491127814"><ele>141.25</ele><time>2026-03-22T09:27:52.992Z</time></trkpt><trkpt lat="43.78915478301309" lon="11.350887249897779"><ele>142.5</ele><time>2026-03-22T09:27:53.992Z</time></trkpt><trkpt lat="43.789193640365966" lon="11.350713038357219"><ele>143.75</ele><time>2026-03-22T09:27:54.992Z</time></trkpt><trkpt lat="43.78920876155392" lon="11.350520445567474"><ele>145.0</ele><time>2026-03-22T09:27:55.992Z</time></trkpt><trkpt lat="43.789206358108345" lon="11.35031354070047"><ele>146.33333333333334</ele><time>2026-03-22T09:27:56.992Z</time></trkpt><trkpt lat="43.78918929017775" lon="11.350088052194993"><ele>147.66666666666666</ele><time>2026-03-22T09:27:57.992Z</time></trkpt><trkpt lat="43.78917183712562" lon="11.349857607474087"><ele>149.0</ele><time>2026-03-22T09:27:58.992Z</time></trkpt><trkpt lat="43.789162408103785" lon="11.349627505305353"><ele>149.33333333333331</ele><time>2026-03-22T09:27:59.992Z</time></trkpt><trkpt lat="43.78916981630164" lon="11.349403884031405"><ele>149.66666666666666</ele><time>2026-03-22T09:28:00.992Z</time></trkpt><trkpt lat="43.789213316100245" lon="11.349204254579886"><ele>150.0</ele><time>2026-03-22T09:28:01.992Z</time></trkpt><trkpt lat="43.789253477988204" lon="11.34900237162076"><ele>149.33333333333334</ele><time>2026-03-22T09:28:02.992Z</time></trkpt><trkpt lat="43.78928806233736" lon="11.348782215002952"><ele>148.66666666666669</ele><time>2026-03-22T09:28:03.992Z</time></trkpt><trkpt lat="43.78934112707331" lon="11.348572845370644"><ele>148.0</ele><time>2026-03-22T09:28:04.992Z</time></trkpt><trkpt lat="43.78939727420002" lon="11.348364224926828"><ele>148.0</ele><time>2026-03-22T09:28:05.992Z</time></trkpt><trkpt lat="43.78943624185044" lon="11.348154604289238"><ele>148.0</ele><time>2026-03-22T09:28:06.992Z</time></trkpt><trkpt lat="43.789474719995546" lon="11.347947646038921"><ele>148.0</ele><time>2026-03-22T09:28:07.992Z</time></trkpt><trkpt lat="43.789498775276265" lon="11.347739784074362"><ele>150.33333333333334</ele><time>2026-03-22T09:28:08.992Z</time></trkpt><trkpt lat="43.789509439627224" lon="11.347516326949195"><ele>152.66666666666666</ele><time>2026-03-22T09:28:09.992Z</time></trkpt><trkpt lat="43.78950521586653" lon="11.347286704063482"><ele>155.0</ele><time>2026-03-22T09:28:10.992Z</time></trkpt><trkpt lat="43.78948487560717" lon="11.347058372059358"><ele>158.25</ele><time>2026-03-22T09:28:11.992Z</time></trkpt><trkpt lat="43.7894493711851" lon="11.346834028297422"><ele>161.5</ele><time>2026-03-22T09:28:12.992Z</time></trkpt><trkpt lat="43.78945136163667" lon="11.346645002587975"><ele>164.75</ele><time>2026-03-22T09:28:13.992Z</time></trkpt><trkpt lat="43.7894688979357" lon="11.346489808995232"><ele>168.0</ele><time>2026-03-22T09:28:14.992Z</time></trkpt><trkpt lat="43.78951631923593" lon="11.346363678244863"><ele>171.2</ele><time>2026-03-22T09:28:15.992Z</time></trkpt><trkpt lat="43.789600372323186" lon="11.346310394414937"><ele>174.4</ele><time>2026-03-22T09:28:16.992Z</time></trkpt><trkpt lat="43.78971751691642" lon="11.34629387821018"><ele>177.6</ele><time>2026-03-22T09:28:17.992Z</time></trkpt><trkpt lat="43.789823892231894" lon="11.346297330517404"><ele>180.79999999999998</ele><time>2026-03-22T09:28:18.992Z</time></trkpt><trkpt lat="43.7899401233558" lon="11.346299362320858"><ele>184.0</ele><time>2026-03-22T09:28:19.992Z</time></trkpt><trkpt lat="43.79006879499695" lon="11.346285848352082"><ele>181.5</ele><time>2026-03-22T09:28:20.992Z</time></trkpt><trkpt lat="43.790191508106275" lon="11.346251761462234"><ele>179.0</ele><time>2026-03-22T09:28:21.992Z</time></trkpt><trkpt lat="43.790304077505674" lon="11.34615837722432"><ele>176.5</ele><time>2026-03-22T09:28:22.992Z</time></trkpt><trkpt lat="43.79042708401536" lon="11.34608152026753"><ele>174.0</ele><time>2026-03-22T09:28:23.992Z</time></trkpt><trkpt lat="43.790503494375244" lon="11.345947968460777"><ele>174.0</ele><time>2026-03-22T09:28:24.992Z</time></trkpt><trkpt lat="43.790570182942425" lon="11.345842100301388"><ele>174.0</ele><time>2026-03-22T09:28:25.992Z</time></trkpt><trkpt lat="43.790598882175296" lon="11.345718100965628"><ele>174.0</ele><time>2026-03-22T09:28:26.992Z</time></trkpt><trkpt lat="43.790597149875055" lon="11.34557303592743"><ele>174.0</ele><time>2026-03-22T09:28:27.992Z</time></trkpt><trkpt lat="43.790597614385916" lon="11.345428594232589"><ele>174.0</ele><time>2026-03-22T09:28:28.992Z</time></trkpt><trkpt lat="43.79056582891716" lon="11.345275152766627"><ele>176.5</ele><time>2026-03-22T09:28:29.992Z</time></trkpt><trkpt lat="43.79051369390237" lon="11.345111614998412"><ele>179.0</ele><time>2026-03-22T09:28:30.992Z</time></trkpt><trkpt lat="43.79045502206751" lon="11.344949903251134"><ele>181.5</ele><time>2026-03-22T09:28:31.992Z</time></trkpt><trkpt lat="43.79037441577047" lon="11.344764010861361"><ele>184.0</ele><time>2026-03-22T09:28:32.992Z</time></trkpt><trkpt lat="43.790303783009186" lon="11.344557664406182"><ele>186.66666666666669</ele><time>2026-03-22T09:28:33.992Z</time></trkpt><trkpt lat="43.79025038586734" lon="11.34435332305446"><ele>189.33333333333334</ele><time>2026-03-22T09:28:34.992Z</time></trkpt><trkpt lat="43.79022129022825" lon="11.34412691639557"><ele>192.0</ele><time>2026-03-22T09:28:35.992Z</time></trkpt><trkpt lat="43.79022303404342" lon="11.343849647264491"><ele>196.66666666666669</ele><time>2026-03-22T09:28:36.992Z</time></trkpt><trkpt lat="43.79024566766491" lon="11.343578021329808"><ele>201.33333333333334</ele><time>2026-03-22T09:28:37.992Z</time></trkpt><trkpt lat="43.79025879559385" lon="11.343354859787297"><ele>206.0</ele><time>2026-03-22T09:28:38.992Z</time></trkpt><trkpt lat="43.79027211944408" lon="11.343165914761848"><ele>209.0</ele><time>2026-03-22T09:28:39.992Z</time></trkpt><trkpt lat="43.790301844899055" lon="11.343023541747538"><ele>212.0</ele><time>2026-03-22T09:28:40.992Z</time></trkpt><trkpt lat="43.79034988050834" lon="11.34290644837454"><ele>215.00000000000003</ele><time>2026-03-22T09:28:41.992Z</time></trkpt><trkpt lat="43.790428729249676" lon="11.342824141967812"><ele>218.0</ele><time>2026-03-22T09:28:42.992Z</time></trkpt><trkpt lat="43.79052518002381" lon="11.342772805809435"><ele>221.0</ele><time>2026-03-22T09:28:43.992Z</time></trkpt><trkpt lat="43.790628362217255" lon="11.34274047464939"><ele>221.0</ele><time>2026-03-22T09:28:44.992Z</time></trkpt><trkpt lat="43.79073531657786" lon="11.342785123681312"><ele>221.0</ele><time>2026-03-22T09:28:45.992Z</time></trkpt><trkpt lat="43.79086527567547" lon="11.342806997301684"><ele>221.0</ele><time>2026-03-22T09:28:46.992Z</time></trkpt><trkpt lat="43.79104715796794" lon="11.342766723877059"><ele>221.0</ele><time>2026-03-22T09:28:47.992Z</time></trkpt><trkpt lat="43.79123361632171" lon="11.342730107564666"><ele>220.75</ele><time>2026-03-22T09:28:48.992Z</time></trkpt><trkpt lat="43.79140395023591" lon="11.342681423164839"><ele>220.5</ele><time>2026-03-22T09:28:49.992Z</time></trkpt><trkpt lat="43.79152023425288" lon="11.342623526761365"><ele>220.25</ele><time>2026-03-22T09:28:50.992Z</time></trkpt><trkpt lat="43.791608658203316" lon="11.342544989349483"><ele>220.0</ele><time>2026-03-22T09:28:51.992Z</time></trkpt><trkpt lat="43.79165469058349" lon="11.342440588363404"><ele>220.0</ele><time>2026-03-22T09:28:52.992Z</time></trkpt><trkpt lat="43.79166960536477" lon="11.34231415050508"><ele>220.0</ele><time>2026-03-22T09:28:53.992Z</time></trkpt><trkpt lat="43.7916566997094" lon="11.342183214538316"><ele>220.0</ele><time>2026-03-22T09:28:54.991Z</time></trkpt><trkpt lat="43.79161430618909" lon="11.342071534791474"><ele>220.0</ele><time>2026-03-22T09:28:55.991Z</time></trkpt><trkpt lat="43.79156250544593" lon="11.341958353446504"><ele>220.0</ele><time>2026-03-22T09:28:56.991Z</time></trkpt><trkpt lat="43.79147621748696" lon="11.3418889473122"><ele>222.8</ele><time>2026-03-22T09:28:57.991Z</time></trkpt><trkpt lat="43.79137140767964" lon="11.341868253334601"><ele>225.6</ele><time>2026-03-22T09:28:58.991Z</time></trkpt><trkpt lat="43.79126010230442" lon="11.341898154524445"><ele>228.39999999999998</ele><time>2026-03-22T09:28:59.991Z</time></trkpt><trkpt lat="43.791159861446246" lon="11.3419234356624"><ele>231.2</ele><time>2026-03-22T09:29:00.991Z</time></trkpt><trkpt lat="43.7910647766771" lon="11.341908021346356"><ele>234.0</ele><time>2026-03-22T09:29:01.991Z</time></trkpt><trkpt lat="43.790983477277265" lon="11.341846293912463"><ele>234.2</ele><time>2026-03-22T09:29:02.991Z</time></trkpt><trkpt lat="43.79093344114581" lon="11.341743695471335"><ele>234.39999999999998</ele><time>2026-03-22T09:29:03.991Z</time></trkpt><trkpt lat="43.79092027431396" lon="11.34162222897946"><ele>234.6</ele><time>2026-03-22T09:29:04.991Z</time></trkpt><trkpt lat="43.79093775779702" lon="11.341490148854403"><ele>234.8</ele><time>2026-03-22T09:29:05.991Z</time></trkpt><trkpt lat="43.790996330589955" lon="11.341382641460415"><ele>235.0</ele><time>2026-03-22T09:29:06.991Z</time></trkpt><trkpt lat="43.7910876695167" lon="11.341319077128244"><ele>237.0</ele><time>2026-03-22T09:29:07.991Z</time></trkpt><trkpt lat="43.79120208638398" lon="11.341301381640449"><ele>239.0</ele><time>2026-03-22T09:29:08.991Z</time></trkpt><trkpt lat="43.79130892198246" lon="11.34127650130115"><ele>241.0</ele><time>2026-03-22T09:29:09.991Z</time></trkpt><trkpt lat="43.79138995625684" lon="11.34122710833076"><ele>243.0</ele><time>2026-03-22T09:29:10.991Z</time></trkpt><trkpt lat="43.79147544653105" lon="11.341147743487992"><ele>245.0</ele><time>2026-03-22T09:29:11.991Z</time></trkpt><trkpt lat="43.79153260743265" lon="11.341022596101006"><ele>245.0</ele><time>2026-03-22T09:29:12.991Z</time></trkpt><trkpt lat="43.79154953439921" lon="11.340872227057485"><ele>245.0</ele><time>2026-03-22T09:29:13.991Z</time></trkpt><trkpt lat="43.79154453685017" lon="11.340703413083029"><ele>245.0</ele><time>2026-03-22T09:29:14.991Z</time></trkpt><trkpt lat="43.7915104122891" lon="11.340532604959092"><ele>245.0</ele><time>2026-03-22T09:29:15.991Z</time></trkpt><trkpt lat="43.79146629708165" lon="11.340325308562527"><ele>247.0</ele><time>2026-03-22T09:29:16.991Z</time></trkpt><trkpt lat="43.79142700109264" lon="11.340133734958574"><ele>249.0</ele><time>2026-03-22T09:29:17.991Z</time></trkpt><trkpt lat="43.79137344717282" lon="11.339945607931389"><ele>251.0</ele><time>2026-03-22T09:29:18.991Z</time></trkpt><trkpt lat="43.79129864028457" lon="11.339771742047754"><ele>253.0</ele><time>2026-03-22T09:29:19.991Z</time></trkpt><trkpt lat="43.791187384510685" lon="11.339634070064651"><ele>254.60000000000002</ele><time>2026-03-22T09:29:20.991Z</time></trkpt><trkpt lat="43.7910989445111" lon="11.339496799561894"><ele>256.20000000000005</ele><time>2026-03-22T09:29:21.991Z</time></trkpt><trkpt lat="43.79104999104403" lon="11.339374500010166"><ele>257.8</ele><time>2026-03-22T09:29:22.991Z</time></trkpt><trkpt lat="43.79104469485909" lon="11.339252714036798"><ele>259.40000000000003</ele><time>2026-03-22T09:29:23.991Z</time></trkpt><trkpt lat="43.79106980606184" lon="11.339103792367432"><ele>261.0</ele><time>2026-03-22T09:29:24.991Z</time></trkpt><trkpt lat="43.79113464799782" lon="11.338949632953865"><ele>263.0</ele><time>2026-03-22T09:29:25.991Z</time></trkpt><trkpt lat="43.791221734559144" lon="11.338807538827737"><ele>265.0</ele><time>2026-03-22T09:29:26.991Z</time></trkpt><trkpt lat="43.79129871744589" lon="11.338644272890273"><ele>267.0</ele><time>2026-03-22T09:29:27.991Z</time></trkpt><trkpt lat="43.79136555663735" lon="11.3384492812319"><ele>269.0</ele><time>2026-03-22T09:29:28.991Z</time></trkpt><trkpt lat="43.791413728168436" lon="11.338234739619725"><ele>271.25</ele><time>2026-03-22T09:29:29.991Z</time></trkpt><trkpt lat="43.7914294874272" lon="11.338044852471377"><ele>273.5</ele><time>2026-03-22T09:29:30.991Z</time></trkpt><trkpt lat="43.79138090379091" lon="11.337884754195375"><ele>275.75</ele><time>2026-03-22T09:29:31.991Z</time></trkpt><trkpt lat="43.79133126155617" lon="11.337715681617512"><ele>278.0</ele><time>2026-03-22T09:29:32.991Z</time></trkpt><trkpt lat="43.791229702019116" lon="11.337536925026248"><ele>278.0</ele><time>2026-03-22T09:29:33.991Z</time></trkpt><trkpt lat="43.79112665331791" lon="11.337341244928377"><ele>278.0</ele><time>2026-03-22T09:29:34.991Z</time></trkpt><trkpt lat="43.79102020934478" lon="11.337126552774526"><ele>278.0</ele><time>2026-03-22T09:29:35.991Z</time></trkpt><trkpt lat="43.79091716774204" lon="11.336887139329315"><ele>281.0</ele><time>2026-03-22T09:29:36.991Z</time></trkpt><trkpt lat="43.79082491339516" lon="11.336629286331704"><ele>284.0</ele><time>2026-03-22T09:29:37.991Z</time></trkpt><trkpt lat="43.79074605102116" lon="11.336367989295248"><ele>287.0</ele><time>2026-03-22T09:29:38.991Z</time></trkpt><trkpt lat="43.790672969765225" lon="11.336103031187271"><ele>290.0</ele><time>2026-03-22T09:29:39.991Z</time></trkpt><trkpt lat="43.790598726612274" lon="11.335848477682058"><ele>293.0</ele><time>2026-03-22T09:29:40.991Z</time></trkpt><trkpt lat="43.79055158882933" lon="11.335631701723354"><ele>296.0</ele><time>2026-03-22T09:29:41.991Z</time></trkpt><trkpt lat="43.790518542467154" lon="11.335447939324293"><ele>298.2</ele><time>2026-03-22T09:29:42.991Z</time></trkpt><trkpt lat="43.7905232696314" lon="11.335286287177832"><ele>300.40000000000003</ele><time>2026-03-22T09:29:43.991Z</time></trkpt><trkpt lat="43.790573207897616" lon="11.335158914214954"><ele>302.6</ele><time>2026-03-22T09:29:44.991Z</time></trkpt><trkpt lat="43.79064987417809" lon="11.335061251807728"><ele>304.8</ele><time>2026-03-22T09:29:45.991Z</time></trkpt><trkpt lat="43.79072499110586" lon="11.334937867094615"><ele>307.0</ele><time>2026-03-22T09:29:46.991Z</time></trkpt><trkpt lat="43.79076409228191" lon="11.334790360699298"><ele>309.5</ele><time>2026-03-22T09:29:47.991Z</time></trkpt><trkpt lat="43.790783985332446" lon="11.334615320067527"><ele>312.0</ele><time>2026-03-22T09:29:48.991Z</time></trkpt><trkpt lat="43.79077386381635" lon="11.33442587699847"><ele>314.5</ele><time>2026-03-22T09:29:49.991Z</time></trkpt><trkpt lat="43.790742959620374" lon="11.334229004674548"><ele>317.0</ele><time>2026-03-22T09:29:50.991Z</time></trkpt><trkpt lat="43.79071688982361" lon="11.33403515135372"><ele>317.2</ele><time>2026-03-22T09:29:51.991Z</time></trkpt><trkpt lat="43.79069524712188" lon="11.33384241428393"><ele>317.4</ele><time>2026-03-22T09:29:52.991Z</time></trkpt><trkpt lat="43.79066367335409" lon="11.33369099200003"><ele>317.6</ele><time>2026-03-22T09:29:53.991Z</time></trkpt><trkpt lat="43.79064762896832" lon="11.333559722788152"><ele>317.8</ele><time>2026-03-22T09:29:54.991Z</time></trkpt><trkpt lat="43.79064963622913" lon="11.333450890036662"><ele>318.0</ele><time>2026-03-22T09:29:55.991Z</time></trkpt><trkpt lat="43.79063879768444" lon="11.33336289558295"><ele>318.0</ele><time>2026-03-22T09:29:56.991Z</time></trkpt><trkpt lat="43.79067584817172" lon="11.333265279735539"><ele>318.0</ele><time>2026-03-22T09:29:57.991Z</time></trkpt><trkpt lat="43.79068776812647" lon="11.3331375569284"><ele>318.0</ele><time>2026-03-22T09:29:58.991Z</time></trkpt><trkpt lat="43.790710425762974" lon="11.333026597360123"><ele>318.0</ele><time>2026-03-22T09:29:59.991Z</time></trkpt><trkpt lat="43.790733599637974" lon="11.332914471097864"><ele>318.0</ele><time>2026-03-22T09:30:01.991Z</time></trkpt><trkpt lat="43.790701721950505" lon="11.332830683711729"><ele>318.0</ele><time>2026-03-22T09:30:06.991Z</time></trkpt><trkpt lat="43.790633351002185" lon="11.332813892187776"><ele>317.8</ele><time>2026-03-22T09:30:08.991Z</time></trkpt><trkpt lat="43.79054015832041" lon="11.332800225164146"><ele>317.6</ele><time>2026-03-22T09:30:10.991Z</time></trkpt><trkpt lat="43.79047692978114" lon="11.33276949945811"><ele>317.4</ele><time>2026-03-22T09:30:11.991Z</time></trkpt><trkpt lat="43.790427164318665" lon="11.332705359062203"><ele>317.2</ele><time>2026-03-22T09:30:12.991Z</time></trkpt><trkpt lat="43.79035517910673" lon="11.332548029108185"><ele>317.0</ele><time>2026-03-22T09:30:14.991Z</time></trkpt><trkpt lat="43.7903175691563" lon="11.332429718063846"><ele>317.0</ele><time>2026-03-22T09:30:15.991Z</time></trkpt><trkpt lat="43.79028505245077" lon="11.332292530710541"><ele>317.0</ele><time>2026-03-22T09:30:16.991Z</time></trkpt><trkpt lat="43.79025782925152" lon="11.332150659128676"><ele>317.0</ele><time>2026-03-22T09:30:17.991Z</time></trkpt><trkpt lat="43.79024000368676" lon="11.332013076134237"><ele>317.0</ele><time>2026-03-22T09:30:18.991Z</time></trkpt><trkpt lat="43.79022030019227" lon="11.331870493001237"><ele>317.0</ele><time>2026-03-22T09:30:19.991Z</time></trkpt><trkpt lat="43.79021849522249" lon="11.331719055788092"><ele>317.2</ele><time>2026-03-22T09:30:20.991Z</time></trkpt><trkpt lat="43.79022670302194" lon="11.331593096998406"><ele>317.4</ele><time>2026-03-22T09:30:21.991Z</time></trkpt><trkpt lat="43.79024887604543" lon="11.331460279443098"><ele>317.6</ele><time>2026-03-22T09:30:22.991Z</time></trkpt><trkpt lat="43.7902943042232" lon="11.331344870182196"><ele>317.8</ele><time>2026-03-22T09:30:23.991Z</time></trkpt><trkpt lat="43.79033835872771" lon="11.331215447957849"><ele>318.0</ele><time>2026-03-22T09:30:24.991Z</time></trkpt><trkpt lat="43.79040871096679" lon="11.331099526298877"><ele>315.6</ele><time>2026-03-22T09:30:25.991Z</time></trkpt><trkpt lat="43.79048683392305" lon="11.330994998021719"><ele>313.20000000000005</ele><time>2026-03-22T09:30:26.991Z</time></trkpt><trkpt lat="43.790564558440494" lon="11.330905489926788"><ele>310.8</ele><time>2026-03-22T09:30:27.991Z</time></trkpt><trkpt lat="43.79063768348927" lon="11.3307910880202"><ele>308.40000000000003</ele><time>2026-03-22T09:30:28.991Z</time></trkpt><trkpt lat="43.79070640865597" lon="11.330650881338638"><ele>306.0</ele><time>2026-03-22T09:30:29.991Z</time></trkpt><trkpt lat="43.790787273085044" lon="11.330555693034084"><ele>301.6</ele><time>2026-03-22T09:30:30.99Z</time></trkpt><trkpt lat="43.79085993524225" lon="11.330351217412517"><ele>297.20000000000005</ele><time>2026-03-22T09:30:32.99Z</time></trkpt><trkpt lat="43.79086502654602" lon="11.330257403584975"><ele>292.79999999999995</ele><time>2026-03-22T09:30:35.99Z</time></trkpt><trkpt lat="43.790814068654726" lon="11.330204246709219"><ele>288.4</ele><time>2026-03-22T09:30:57.99Z</time></trkpt><trkpt lat="43.790764676032374" lon="11.330286113756058"><ele>284.0</ele><time>2026-03-22T09:30:59.99Z</time></trkpt><trkpt lat="43.79068021197222" lon="11.330385019360548"><ele>284.0</ele><time>2026-03-22T09:31:01.99Z</time></trkpt><trkpt lat="43.79061796388763" lon="11.330408833399133"><ele>284.0</ele><time>2026-03-22T09:31:02.99Z</time></trkpt><trkpt lat="43.79054920565663" lon="11.330422883133904"><ele>284.0</ele><time>2026-03-22T09:31:03.99Z</time></trkpt><trkpt lat="43.79046641255889" lon="11.330453332339756"><ele>284.0</ele><time>2026-03-22T09:31:04.99Z</time></trkpt><trkpt lat="43.79037989826718" lon="11.330497866658066"><ele>284.0</ele><time>2026-03-22T09:31:05.99Z</time></trkpt><trkpt lat="43.790298242382654" lon="11.330547235521216"><ele>284.0</ele><time>2026-03-22T09:31:06.99Z</time></trkpt><trkpt lat="43.79022018901948" lon="11.330603399854898"><ele>284.2</ele><time>2026-03-22T09:31:07.99Z</time></trkpt><trkpt lat="43.79014280737373" lon="11.330633123165086"><ele>284.4</ele><time>2026-03-22T09:31:08.99Z</time></trkpt><trkpt lat="43.79004948874815" lon="11.33063138603225"><ele>284.6</ele><time>2026-03-22T09:31:09.99Z</time></trkpt><trkpt lat="43.7899555255677" lon="11.330592787213234"><ele>284.8</ele><time>2026-03-22T09:31:10.99Z</time></trkpt><trkpt lat="43.78986922111454" lon="11.330545733986195"><ele>285.0</ele><time>2026-03-22T09:31:11.99Z</time></trkpt><trkpt lat="43.78979169802743" lon="11.330483546740346"><ele>281.6</ele><time>2026-03-22T09:31:12.99Z</time></trkpt><trkpt lat="43.78970832300806" lon="11.33043221597644"><ele>278.2</ele><time>2026-03-22T09:31:13.99Z</time></trkpt><trkpt lat="43.789605792504325" lon="11.330364184181729"><ele>274.8</ele><time>2026-03-22T09:31:14.99Z</time></trkpt><trkpt lat="43.7894999447797" lon="11.330294525312272"><ele>271.4</ele><time>2026-03-22T09:31:15.99Z</time></trkpt><trkpt lat="43.789391192245915" lon="11.330221681732368"><ele>268.0</ele><time>2026-03-22T09:31:16.99Z</time></trkpt><trkpt lat="43.78928621587412" lon="11.330146428099487"><ele>266.5</ele><time>2026-03-22T09:31:17.99Z</time></trkpt><trkpt lat="43.78917901400494" lon="11.330067199605105"><ele>265.0</ele><time>2026-03-22T09:31:18.99Z</time></trkpt><trkpt lat="43.78907394795975" lon="11.329976144868446"><ele>263.5</ele><time>2026-03-22T09:31:19.99Z</time></trkpt><trkpt lat="43.788968741214305" lon="11.329895576686829"><ele>262.0</ele><time>2026-03-22T09:31:20.99Z</time></trkpt><trkpt lat="43.788862370240125" lon="11.329822905335977"><ele>262.0</ele><time>2026-03-22T09:31:21.99Z</time></trkpt><trkpt lat="43.78875844653352" lon="11.329769603716818"><ele>262.0</ele><time>2026-03-22T09:31:22.99Z</time></trkpt><trkpt lat="43.78865376595819" lon="11.32973557087765"><ele>262.0</ele><time>2026-03-22T09:31:23.99Z</time></trkpt><trkpt lat="43.78855948293253" lon="11.329700366037056"><ele>262.0</ele><time>2026-03-22T09:31:24.99Z</time></trkpt><trkpt lat="43.78847917508775" lon="11.329626782488717"><ele>262.0</ele><time>2026-03-22T09:31:25.99Z</time></trkpt><trkpt lat="43.78844802957751" lon="11.329511520310884"><ele>260.16666666666663</ele><time>2026-03-22T09:31:26.99Z</time></trkpt><trkpt lat="43.78844948998208" lon="11.32939620946901"><ele>258.3333333333333</ele><time>2026-03-22T09:31:27.99Z</time></trkpt><trkpt lat="43.78843733576203" lon="11.329276475224928"><ele>256.5</ele><time>2026-03-22T09:31:28.99Z</time></trkpt><trkpt lat="43.788411031027536" lon="11.329151015114267"><ele>254.66666666666669</ele><time>2026-03-22T09:31:29.99Z</time></trkpt><trkpt lat="43.788403437414615" lon="11.329028869548884"><ele>252.83333333333334</ele><time>2026-03-22T09:31:30.99Z</time></trkpt><trkpt lat="43.78838245384939" lon="11.328923013245824"><ele>251.0</ele><time>2026-03-22T09:31:31.99Z</time></trkpt><trkpt lat="43.78833896423045" lon="11.328829138793264"><ele>249.60000000000002</ele><time>2026-03-22T09:31:32.99Z</time></trkpt><trkpt lat="43.78827731950706" lon="11.328755372417756"><ele>248.20000000000002</ele><time>2026-03-22T09:31:33.99Z</time></trkpt><trkpt lat="43.788210934543564" lon="11.328680869385982"><ele>246.79999999999998</ele><time>2026-03-22T09:31:34.99Z</time></trkpt><trkpt lat="43.78815470001983" lon="11.328588092132613"><ele>245.39999999999998</ele><time>2026-03-22T09:31:35.99Z</time></trkpt><trkpt lat="43.788072690038796" lon="11.32850456061905"><ele>244.0</ele><time>2026-03-22T09:31:36.99Z</time></trkpt><trkpt lat="43.7879936146602" lon="11.328398368485333"><ele>244.0</ele><time>2026-03-22T09:31:37.99Z</time></trkpt><trkpt lat="43.78790402180242" lon="11.328315305756357"><ele>244.0</ele><time>2026-03-22T09:31:38.99Z</time></trkpt><trkpt lat="43.787807867808596" lon="11.328236224377047"><ele>244.0</ele><time>2026-03-22T09:31:39.99Z</time></trkpt><trkpt lat="43.7877023221169" lon="11.328160313062394"><ele>244.0</ele><time>2026-03-22T09:31:40.99Z</time></trkpt><trkpt lat="43.787603292010026" lon="11.328088961454023"><ele>243.49999999999997</ele><time>2026-03-22T09:31:41.99Z</time></trkpt><trkpt lat="43.7875101424802" lon="11.32801765005533"><ele>243.0</ele><time>2026-03-22T09:31:42.99Z</time></trkpt><trkpt lat="43.78744077726557" lon="11.327953606978694"><ele>242.5</ele><time>2026-03-22T09:31:43.99Z</time></trkpt><trkpt lat="43.78737923829338" lon="11.327884402884768"><ele>242.0</ele><time>2026-03-22T09:31:44.99Z</time></trkpt><trkpt lat="43.78732042118253" lon="11.327823884669384"><ele>241.49999999999997</ele><time>2026-03-22T09:31:45.99Z</time></trkpt><trkpt lat="43.78726861712969" lon="11.327764239159485"><ele>241.0</ele><time>2026-03-22T09:31:46.99Z</time></trkpt><trkpt lat="43.7871950306596" lon="11.327668690239415"><ele>240.99999999999997</ele><time>2026-03-22T09:31:48.99Z</time></trkpt><trkpt lat="43.78709258446271" lon="11.327575553847561"><ele>241.0</ele><time>2026-03-22T09:31:50.99Z</time></trkpt><trkpt lat="43.78702760972778" lon="11.327513131902785"><ele>241.0</ele><time>2026-03-22T09:31:51.99Z</time></trkpt><trkpt lat="43.786953955863495" lon="11.327448953902865"><ele>241.0</ele><time>2026-03-22T09:31:52.99Z</time></trkpt><trkpt lat="43.786887524743925" lon="11.327383595992849"><ele>240.99999999999997</ele><time>2026-03-22T09:31:53.99Z</time></trkpt><trkpt lat="43.78681954868094" lon="11.327349671696128"><ele>241.0</ele><time>2026-03-22T09:31:54.99Z</time></trkpt><trkpt lat="43.78675734646088" lon="11.32730556958468"><ele>240.20000000000002</ele><time>2026-03-22T09:31:55.99Z</time></trkpt><trkpt lat="43.78663157676665" lon="11.327314538626123"><ele>239.40000000000003</ele><time>2026-03-22T09:31:57.99Z</time></trkpt><trkpt lat="43.78654762962189" lon="11.327339121432392"><ele>238.6</ele><time>2026-03-22T09:31:58.99Z</time></trkpt><trkpt lat="43.786464448214566" lon="11.32734369406242"><ele>237.8</ele><time>2026-03-22T09:31:59.99Z</time></trkpt><trkpt lat="43.78637304491505" lon="11.327324976131791"><ele>237.0</ele><time>2026-03-22T09:32:00.99Z</time></trkpt><trkpt lat="43.78628694136904" lon="11.32727121250924"><ele>235.2</ele><time>2026-03-22T09:32:01.99Z</time></trkpt><trkpt lat="43.78621358571107" lon="11.32720914325585"><ele>233.39999999999998</ele><time>2026-03-22T09:32:02.99Z</time></trkpt><trkpt lat="43.7861390026054" lon="11.327129203350378"><ele>231.60000000000002</ele><time>2026-03-22T09:32:03.99Z</time></trkpt><trkpt lat="43.78606384266512" lon="11.327062268034252"><ele>229.8</ele><time>2026-03-22T09:32:04.99Z</time></trkpt><trkpt lat="43.78599441839387" lon="11.326975898828442"><ele>228.0</ele><time>2026-03-22T09:32:05.989Z</time></trkpt><trkpt lat="43.785921359512415" lon="11.32689141221084"><ele>227.0</ele><time>2026-03-22T09:32:06.989Z</time></trkpt><trkpt lat="43.78585585257317" lon="11.326802644507303"><ele>226.0</ele><time>2026-03-22T09:32:07.989Z</time></trkpt><trkpt lat="43.78579682365535" lon="11.326713787945145"><ele>225.0</ele><time>2026-03-22T09:32:08.989Z</time></trkpt><trkpt lat="43.785730513953204" lon="11.32660756860653"><ele>224.0</ele><time>2026-03-22T09:32:09.989Z</time></trkpt><trkpt lat="43.785654844047" lon="11.3265023050887"><ele>223.0</ele><time>2026-03-22T09:32:10.989Z</time></trkpt><trkpt lat="43.78557591555048" lon="11.326395043579382"><ele>221.2</ele><time>2026-03-22T09:32:11.989Z</time></trkpt><trkpt lat="43.78550657985791" lon="11.326298867200697"><ele>219.4</ele><time>2026-03-22T09:32:12.989Z</time></trkpt><trkpt lat="43.785443427625765" lon="11.326208770246916"><ele>217.59999999999997</ele><time>2026-03-22T09:32:13.989Z</time></trkpt><trkpt lat="43.785396932773494" lon="11.326109945554103"><ele>215.79999999999998</ele><time>2026-03-22T09:32:14.989Z</time></trkpt><trkpt lat="43.78537651048257" lon="11.32597184491528"><ele>214.0</ele><time>2026-03-22T09:32:15.989Z</time></trkpt><trkpt lat="43.78530753649473" lon="11.325905244418582"><ele>214.0</ele><time>2026-03-22T09:32:16.989Z</time></trkpt><trkpt lat="43.785238892306516" lon="11.325835350899752"><ele>213.99999999999997</ele><time>2026-03-22T09:32:17.989Z</time></trkpt><trkpt lat="43.78516075392267" lon="11.325786366931021"><ele>213.99999999999997</ele><time>2026-03-22T09:32:18.989Z</time></trkpt><trkpt lat="43.78506884251487" lon="11.325717609031553"><ele>214.0</ele><time>2026-03-22T09:32:19.989Z</time></trkpt><trkpt lat="43.78497816141564" lon="11.325629183279458"><ele>214.0</ele><time>2026-03-22T09:32:20.989Z</time></trkpt><trkpt lat="43.78491174979506" lon="11.3255101158386"><ele>210.5</ele><time>2026-03-22T09:32:21.989Z</time></trkpt><trkpt lat="43.78483967833463" lon="11.325401274442184"><ele>207.0</ele><time>2026-03-22T09:32:22.989Z</time></trkpt><trkpt lat="43.78476049348687" lon="11.325286253879579"><ele>203.5</ele><time>2026-03-22T09:32:23.989Z</time></trkpt><trkpt lat="43.78468345591642" lon="11.325169251225356"><ele>200.0</ele><time>2026-03-22T09:32:24.989Z</time></trkpt><trkpt lat="43.78460048124084" lon="11.325050940937171"><ele>200.0</ele><time>2026-03-22T09:32:25.989Z</time></trkpt><trkpt lat="43.78451977186745" lon="11.32495466006084"><ele>200.0</ele><time>2026-03-22T09:32:26.989Z</time></trkpt><trkpt lat="43.78444859349815" lon="11.324869094794325"><ele>200.0</ele><time>2026-03-22T09:32:27.989Z</time></trkpt><trkpt lat="43.78436465695923" lon="11.324763405359047"><ele>200.0</ele><time>2026-03-22T09:32:28.989Z</time></trkpt><trkpt lat="43.7842936836674" lon="11.32465418932035"><ele>200.0</ele><time>2026-03-22T09:32:29.989Z</time></trkpt><trkpt lat="43.784226138277646" lon="11.324543565454732"><ele>197.8</ele><time>2026-03-22T09:32:30.989Z</time></trkpt><trkpt lat="43.78416274172411" lon="11.324437846480102"><ele>195.6</ele><time>2026-03-22T09:32:31.989Z</time></trkpt><trkpt lat="43.7840995366232" lon="11.324343327453668"><ele>193.39999999999998</ele><time>2026-03-22T09:32:32.989Z</time></trkpt><trkpt lat="43.78403771396375" lon="11.32426972395547"><ele>191.2</ele><time>2026-03-22T09:32:33.989Z</time></trkpt><trkpt lat="43.78397081467025" lon="11.324181871935146"><ele>189.0</ele><time>2026-03-22T09:32:34.989Z</time></trkpt><trkpt lat="43.78390557166264" lon="11.324102839967267"><ele>189.0</ele><time>2026-03-22T09:32:35.989Z</time></trkpt><trkpt lat="43.78384936987656" lon="11.32401715866875"><ele>189.0</ele><time>2026-03-22T09:32:36.989Z</time></trkpt><trkpt lat="43.783805684910455" lon="11.323928793198831"><ele>189.0</ele><time>2026-03-22T09:32:37.989Z</time></trkpt><trkpt lat="43.783756800188854" lon="11.323838621031069"><ele>189.0</ele><time>2026-03-22T09:32:38.989Z</time></trkpt><trkpt lat="43.783712019166714" lon="11.323757539742259"><ele>189.0</ele><time>2026-03-22T09:32:39.989Z</time></trkpt><trkpt lat="43.783670599661114" lon="11.323668004310957"><ele>189.0</ele><time>2026-03-22T09:32:40.989Z</time></trkpt><trkpt lat="43.78362998067358" lon="11.323581366495604"><ele>188.16666666666666</ele><time>2026-03-22T09:32:41.989Z</time></trkpt><trkpt lat="43.783593282759554" lon="11.3235032110674"><ele>187.33333333333334</ele><time>2026-03-22T09:32:42.989Z</time></trkpt><trkpt lat="43.78355214953174" lon="11.323429380407509"><ele>186.5</ele><time>2026-03-22T09:32:43.989Z</time></trkpt><trkpt lat="43.78352455130867" lon="11.323335799318372"><ele>185.66666666666669</ele><time>2026-03-22T09:32:44.989Z</time></trkpt><trkpt lat="43.78350933284099" lon="11.323249573387939"><ele>184.83333333333334</ele><time>2026-03-22T09:32:45.989Z</time></trkpt><trkpt lat="43.783492280768925" lon="11.323101336710788"><ele>184.0</ele><time>2026-03-22T09:32:47.989Z</time></trkpt><trkpt lat="43.78346348197438" lon="11.323004145707065"><ele>182.79999999999998</ele><time>2026-03-22T09:32:48.989Z</time></trkpt><trkpt lat="43.78344080245411" lon="11.32284147759825"><ele>181.6</ele><time>2026-03-22T09:32:50.989Z</time></trkpt><trkpt lat="43.783406952568534" lon="11.322717523271551"><ele>180.4</ele><time>2026-03-22T09:32:52.989Z</time></trkpt><trkpt lat="43.783390046343996" lon="11.322581953050737"><ele>179.2</ele><time>2026-03-22T09:32:54.989Z</time></trkpt><trkpt lat="43.78336612074163" lon="11.32246035510174"><ele>178.0</ele><time>2026-03-22T09:32:56.989Z</time></trkpt><trkpt lat="43.783302212218246" lon="11.322335112906199"><ele>177.5</ele><time>2026-03-22T09:32:58.989Z</time></trkpt><trkpt lat="43.783246485069746" lon="11.322174196301239"><ele>177.0</ele><time>2026-03-22T09:33:00.989Z</time></trkpt><trkpt lat="43.783207727197954" lon="11.322075739430588"><ele>176.5</ele><time>2026-03-22T09:33:01.989Z</time></trkpt><trkpt lat="43.783162366754404" lon="11.321988013358789"><ele>176.0</ele><time>2026-03-22T09:33:02.989Z</time></trkpt><trkpt lat="43.78312042489819" lon="11.321901314183823"><ele>175.5</ele><time>2026-03-22T09:33:03.989Z</time></trkpt><trkpt lat="43.78308747819737" lon="11.32180073277678"><ele>175.0</ele><time>2026-03-22T09:33:04.989Z</time></trkpt><trkpt lat="43.78306992378057" lon="11.321677513168549"><ele>175.0</ele><time>2026-03-22T09:33:06.989Z</time></trkpt><trkpt lat="43.783048893290065" lon="11.321594770597141"><ele>175.0</ele><time>2026-03-22T09:33:07.989Z</time></trkpt><trkpt lat="43.783024107325" lon="11.321473322923776"><ele>175.0</ele><time>2026-03-22T09:33:09.989Z</time></trkpt><trkpt lat="43.783000423975295" lon="11.32134075903152"><ele>175.0</ele><time>2026-03-22T09:33:11.989Z</time></trkpt><trkpt lat="43.78298194006655" lon="11.321250682897164"><ele>175.0</ele><time>2026-03-22T09:33:12.989Z</time></trkpt><trkpt lat="43.78293815426381" lon="11.321102316178157"><ele>175.0</ele><time>2026-03-22T09:33:14.989Z</time></trkpt><trkpt lat="43.78289706787684" lon="11.32098538628455"><ele>173.83333333333334</ele><time>2026-03-22T09:33:16.989Z</time></trkpt><trkpt lat="43.78286044865825" lon="11.320877946181506"><ele>172.66666666666669</ele><time>2026-03-22T09:33:19.989Z</time></trkpt><trkpt lat="43.78285342678479" lon="11.320788403980707"><ele>171.5</ele><time>2026-03-22T09:33:22.989Z</time></trkpt><trkpt lat="43.782861125231584" lon="11.320692179266748"><ele>170.33333333333334</ele><time>2026-03-22T09:33:26.989Z</time></trkpt><trkpt lat="43.782898398115535" lon="11.320565699351105"><ele>169.16666666666666</ele><time>2026-03-22T09:33:29.989Z</time></trkpt><trkpt lat="43.7829617211102" lon="11.32047386150722"><ele>168.0</ele><time>2026-03-22T09:33:31.989Z</time></trkpt><trkpt lat="43.78299852919513" lon="11.320323636039566"><ele>167.0</ele><time>2026-03-22T09:33:33.989Z</time></trkpt><trkpt lat="43.783053849243096" lon="11.320193014977002"><ele>166.0</ele><time>2026-03-22T09:33:35.989Z</time></trkpt><trkpt lat="43.78306212786788" lon="11.32002831778196"><ele>165.0</ele><time>2026-03-22T09:33:37.989Z</time></trkpt><trkpt lat="43.78309160362862" lon="11.31987029911357"><ele>164.0</ele><time>2026-03-22T09:33:39.989Z</time></trkpt><trkpt lat="43.78311501915972" lon="11.31978282893603"><ele>163.0</ele><time>2026-03-22T09:33:40.989Z</time></trkpt><trkpt lat="43.783130317740365" lon="11.31968464954275"><ele>162.0</ele><time>2026-03-22T09:33:41.988Z</time></trkpt><trkpt lat="43.78314896147344" lon="11.319524858035996"><ele>161.0</ele><time>2026-03-22T09:33:43.988Z</time></trkpt><trkpt lat="43.7831532278175" lon="11.319437115238841"><ele>160.0</ele><time>2026-03-22T09:33:44.988Z</time></trkpt><trkpt lat="43.78317002469956" lon="11.319272906325104"><ele>159.0</ele><time>2026-03-22T09:33:46.988Z</time></trkpt><trkpt lat="43.78314223335676" lon="11.31912379819934"><ele>158.0</ele><time>2026-03-22T09:33:48.988Z</time></trkpt><trkpt lat="43.78307992102048" lon="11.319079749922103"><ele>158.0</ele><time>2026-03-22T09:33:50.988Z</time></trkpt><trkpt lat="43.78301522668552" lon="11.319084104238609"><ele>158.0</ele><time>2026-03-22T09:33:52.988Z</time></trkpt><trkpt lat="43.78297267588218" lon="11.31917765653117"><ele>158.0</ele><time>2026-03-22T09:34:12.988Z</time></trkpt><trkpt lat="43.78300385130895" lon="11.319281423578794"><ele>158.0</ele><time>2026-03-22T09:34:14.988Z</time></trkpt><trkpt lat="43.783069523972664" lon="11.319373366151106"><ele>158.0</ele><time>2026-03-22T09:34:16.988Z</time></trkpt><trkpt lat="43.78312257015666" lon="11.31950948527092"><ele>158.0</ele><time>2026-03-22T09:34:19.007Z</time></trkpt><trkpt lat="43.78309846220694" lon="11.319667529036268"><ele>159.0</ele><time>2026-03-22T09:34:21.007Z</time></trkpt><trkpt lat="43.78307464492826" lon="11.319778996432547"><ele>160.0</ele><time>2026-03-22T09:34:22.007Z</time></trkpt><trkpt lat="43.78304362423969" lon="11.319901074073279"><ele>161.0</ele><time>2026-03-22T09:34:23.007Z</time></trkpt><trkpt lat="43.78302852261054" lon="11.320018692804787"><ele>162.0</ele><time>2026-03-22T09:34:24.007Z</time></trkpt><trkpt lat="43.783012542375154" lon="11.32013585037925"><ele>163.0</ele><time>2026-03-22T09:34:25.007Z</time></trkpt><trkpt lat="43.78294918177717" lon="11.32031470889323"><ele>163.0</ele><time>2026-03-22T09:34:27.007Z</time></trkpt><trkpt lat="43.782917927086515" lon="11.320445729091967"><ele>163.0</ele><time>2026-03-22T09:34:28.007Z</time></trkpt><trkpt lat="43.78287775378691" lon="11.320556136609381"><ele>163.0</ele><time>2026-03-22T09:34:29.007Z</time></trkpt><trkpt lat="43.782823089117585" lon="11.32066663012951"><ele>163.0</ele><time>2026-03-22T09:34:31.007Z</time></trkpt><trkpt lat="43.78275154705281" lon="11.320645703841329"><ele>163.0</ele><time>2026-03-22T09:34:34.007Z</time></trkpt><trkpt lat="43.78266123045246" lon="11.32060690470339"><ele>164.0</ele><time>2026-03-22T09:34:36.007Z</time></trkpt><trkpt lat="43.782532021817985" lon="11.32052674949594"><ele>165.0</ele><time>2026-03-22T09:34:38.007Z</time></trkpt><trkpt lat="43.78244501312275" lon="11.32048725633448"><ele>166.0</ele><time>2026-03-22T09:34:39.007Z</time></trkpt><trkpt lat="43.78236448210643" lon="11.320441905407172"><ele>167.0</ele><time>2026-03-22T09:34:40.007Z</time></trkpt><trkpt lat="43.78227816251958" lon="11.320399312868252"><ele>168.0</ele><time>2026-03-22T09:34:41.007Z</time></trkpt><trkpt lat="43.78219081874602" lon="11.320352533020788"><ele>168.0</ele><time>2026-03-22T09:34:42.007Z</time></trkpt><trkpt lat="43.782088895739044" lon="11.320297236703913"><ele>168.0</ele><time>2026-03-22T09:34:43.007Z</time></trkpt><trkpt lat="43.78197638134781" lon="11.32024427227251"><ele>168.0</ele><time>2026-03-22T09:34:44.007Z</time></trkpt><trkpt lat="43.78185904964634" lon="11.320191807923093"><ele>168.0</ele><time>2026-03-22T09:34:45.007Z</time></trkpt><trkpt lat="43.78173502014982" lon="11.320129913579581"><ele>166.25</ele><time>2026-03-22T09:34:46.007Z</time></trkpt><trkpt lat="43.781611235281424" lon="11.320077508451241"><ele>164.5</ele><time>2026-03-22T09:34:47.007Z</time></trkpt><trkpt lat="43.78149009609819" lon="11.320022457920485"><ele>162.75</ele><time>2026-03-22T09:34:48.007Z</time></trkpt><trkpt lat="43.781374973407864" lon="11.319956411766205"><ele>161.0</ele><time>2026-03-22T09:34:49.007Z</time></trkpt><trkpt lat="43.781273142456335" lon="11.319905649061585"><ele>161.0</ele><time>2026-03-22T09:34:50.007Z</time></trkpt><trkpt lat="43.7811678957915" lon="11.319831871789743"><ele>161.0</ele><time>2026-03-22T09:34:51.007Z</time></trkpt><trkpt lat="43.781064954357795" lon="11.319773077991599"><ele>161.0</ele><time>2026-03-22T09:34:52.007Z</time></trkpt><trkpt lat="43.7809573536252" lon="11.31971957079832"><ele>161.0</ele><time>2026-03-22T09:34:53.007Z</time></trkpt><trkpt lat="43.780855538706454" lon="11.319677578707273"><ele>158.25</ele><time>2026-03-22T09:34:54.007Z</time></trkpt><trkpt lat="43.7807489004892" lon="11.31964638189576"><ele>155.5</ele><time>2026-03-22T09:34:55.007Z</time></trkpt><trkpt lat="43.78064011723176" lon="11.319611236818043"><ele>152.75</ele><time>2026-03-22T09:34:56.007Z</time></trkpt><trkpt lat="43.78051962115172" lon="11.319585342720488"><ele>150.0</ele><time>2026-03-22T09:34:57.007Z</time></trkpt><trkpt lat="43.780392193075" lon="11.31955052299314"><ele>150.0</ele><time>2026-03-22T09:34:58.007Z</time></trkpt><trkpt lat="43.78026725625243" lon="11.319461463899957"><ele>150.0</ele><time>2026-03-22T09:34:59.007Z</time></trkpt><trkpt lat="43.780152380989094" lon="11.319359605385243"><ele>150.0</ele><time>2026-03-22T09:35:00.007Z</time></trkpt><trkpt lat="43.78004921552572" lon="11.319251720162743"><ele>150.0</ele><time>2026-03-22T09:35:01.007Z</time></trkpt><trkpt lat="43.7799537748278" lon="11.319142274955984"><ele>150.0</ele><time>2026-03-22T09:35:02.009Z</time></trkpt><trkpt lat="43.77991272399173" lon="11.31902178483376"><ele>150.0</ele><time>2026-03-22T09:35:03.009Z</time></trkpt><trkpt lat="43.77989836049542" lon="11.318902662167348"><ele>150.0</ele><time>2026-03-22T09:35:04.009Z</time></trkpt><trkpt lat="43.77991538082734" lon="11.318759307634043"><ele>150.0</ele><time>2026-03-22T09:35:05.009Z</time></trkpt><trkpt lat="43.779957670158694" lon="11.31864520445287"><ele>150.0</ele><time>2026-03-22T09:35:06.009Z</time></trkpt><trkpt lat="43.78001664255218" lon="11.318526825607012"><ele>148.75</ele><time>2026-03-22T09:35:07.009Z</time></trkpt><trkpt lat="43.78010598848297" lon="11.318433595186521"><ele>147.5</ele><time>2026-03-22T09:35:08.009Z</time></trkpt><trkpt lat="43.780191228715616" lon="11.318310996402552"><ele>146.25</ele><time>2026-03-22T09:35:09.009Z</time></trkpt><trkpt lat="43.7802840483146" lon="11.31819202292016"><ele>145.0</ele><time>2026-03-22T09:35:10.009Z</time></trkpt><trkpt lat="43.78037535125599" lon="11.31805378851843"><ele>143.0</ele><time>2026-03-22T09:35:11.01Z</time></trkpt><trkpt lat="43.780466132387836" lon="11.317920004781119"><ele>141.0</ele><time>2026-03-22T09:35:12.009Z</time></trkpt><trkpt lat="43.78054993445101" lon="11.317792212746747"><ele>139.0</ele><time>2026-03-22T09:35:13.009Z</time></trkpt><trkpt lat="43.780632225176205" lon="11.317669624503248"><ele>137.0</ele><time>2026-03-22T09:35:14.009Z</time></trkpt><trkpt lat="43.780715603791066" lon="11.317560927714506"><ele>137.0</ele><time>2026-03-22T09:35:15.01Z</time></trkpt><trkpt lat="43.780794372353924" lon="11.317451612403975"><ele>137.0</ele><time>2026-03-22T09:35:16.01Z</time></trkpt><trkpt lat="43.78087016333984" lon="11.317334111905932"><ele>137.0</ele><time>2026-03-22T09:35:17.01Z</time></trkpt><trkpt lat="43.78094591778808" lon="11.317205105045433"><ele>137.0</ele><time>2026-03-22T09:35:18.01Z</time></trkpt><trkpt lat="43.7810266115493" lon="11.31707073423099"><ele>135.0</ele><time>2026-03-22T09:35:19.01Z</time></trkpt><trkpt lat="43.78111101571193" lon="11.316925418272678"><ele>133.0</ele><time>2026-03-22T09:35:20.01Z</time></trkpt><trkpt lat="43.781183507486574" lon="11.316756335233087"><ele>131.0</ele><time>2026-03-22T09:35:21.01Z</time></trkpt><trkpt lat="43.78124246864881" lon="11.3165804345595"><ele>129.0</ele><time>2026-03-22T09:35:22.01Z</time></trkpt><trkpt lat="43.78128850726431" lon="11.316385208722851"><ele>128.0</ele><time>2026-03-22T09:35:23.01Z</time></trkpt><trkpt lat="43.781322061350885" lon="11.316178161471996"><ele>127.0</ele><time>2026-03-22T09:35:24.01Z</time></trkpt><trkpt lat="43.781340784666355" lon="11.315978037874503"><ele>126.0</ele><time>2026-03-22T09:35:25.01Z</time></trkpt><trkpt lat="43.781367435165706" lon="11.315798479120497"><ele>125.0</ele><time>2026-03-22T09:35:26.01Z</time></trkpt><trkpt lat="43.78139614078478" lon="11.315621698104879"><ele>124.25</ele><time>2026-03-22T09:35:27.01Z</time></trkpt><trkpt lat="43.78140767970852" lon="11.31544629971097"><ele>123.5</ele><time>2026-03-22T09:35:28.01Z</time></trkpt><trkpt lat="43.781416824051014" lon="11.31527122391517"><ele>122.75</ele><time>2026-03-22T09:35:29.01Z</time></trkpt><trkpt lat="43.78141842866665" lon="11.315100420564047"><ele>122.0</ele><time>2026-03-22T09:35:30.01Z</time></trkpt><trkpt lat="43.781425159045696" lon="11.314927308443298"><ele>122.0</ele><time>2026-03-22T09:35:31.01Z</time></trkpt><trkpt lat="43.78141113690237" lon="11.314778930063357"><ele>121.99999999999999</ele><time>2026-03-22T09:35:32.01Z</time></trkpt><trkpt lat="43.78140000705422" lon="11.314635395149883"><ele>121.99999999999999</ele><time>2026-03-22T09:35:33.009Z</time></trkpt><trkpt lat="43.7813620887656" lon="11.314507482454738"><ele>122.0</ele><time>2026-03-22T09:35:34.009Z</time></trkpt><trkpt lat="43.78132253739085" lon="11.314409711319021"><ele>122.0</ele><time>2026-03-22T09:35:35.009Z</time></trkpt><trkpt lat="43.781233289543366" lon="11.314346396818765"><ele>121.0</ele><time>2026-03-22T09:35:36.009Z</time></trkpt><trkpt lat="43.78111268163587" lon="11.314300055315597"><ele>120.0</ele><time>2026-03-22T09:35:37.009Z</time></trkpt><trkpt lat="43.78098358914788" lon="11.31428747081893"><ele>119.0</ele><time>2026-03-22T09:35:38.009Z</time></trkpt><trkpt lat="43.780849874224266" lon="11.31423873777159"><ele>118.0</ele><time>2026-03-22T09:35:39.009Z</time></trkpt><trkpt lat="43.78072074749976" lon="11.314219283917122"><ele>118.0</ele><time>2026-03-22T09:35:40.009Z</time></trkpt><trkpt lat="43.780593160129825" lon="11.314197088107354"><ele>118.0</ele><time>2026-03-22T09:35:41.009Z</time></trkpt><trkpt lat="43.780462206629736" lon="11.314171360514518"><ele>118.0</ele><time>2026-03-22T09:35:42.009Z</time></trkpt><trkpt lat="43.780344668271574" lon="11.314148513080008"><ele>118.0</ele><time>2026-03-22T09:35:43.009Z</time></trkpt><trkpt lat="43.780221532673046" lon="11.314126229264467"><ele>116.60000000000001</ele><time>2026-03-22T09:35:44.009Z</time></trkpt><trkpt lat="43.78011574434826" lon="11.314098083335917"><ele>115.20000000000002</ele><time>2026-03-22T09:35:45.009Z</time></trkpt><trkpt lat="43.7800178079258" lon="11.3140504992775"><ele>113.8</ele><time>2026-03-22T09:35:46.009Z</time></trkpt><trkpt lat="43.77994433343358" lon="11.313987754813361"><ele>112.4</ele><time>2026-03-22T09:35:47.009Z</time></trkpt><trkpt lat="43.77989612057471" lon="11.313882547089964"><ele>111.0</ele><time>2026-03-22T09:35:48.009Z</time></trkpt><trkpt lat="43.77986847200152" lon="11.313740685140889"><ele>109.19999999999999</ele><time>2026-03-22T09:35:49.009Z</time></trkpt><trkpt lat="43.77985643069035" lon="11.313608572483897"><ele>107.39999999999999</ele><time>2026-03-22T09:35:50.009Z</time></trkpt><trkpt lat="43.77985012297379" lon="11.313473932010826"><ele>105.6</ele><time>2026-03-22T09:35:51.009Z</time></trkpt><trkpt lat="43.77982451550852" lon="11.313315653090463"><ele>103.8</ele><time>2026-03-22T09:35:52.009Z</time></trkpt><trkpt lat="43.77980056582858" lon="11.313157058266366"><ele>102.0</ele><time>2026-03-22T09:35:53.009Z</time></trkpt><trkpt lat="43.779774907486924" lon="11.312980822513072"><ele>100.5</ele><time>2026-03-22T09:35:54.009Z</time></trkpt><trkpt lat="43.779746448407444" lon="11.312803459113022"><ele>99.0</ele><time>2026-03-22T09:35:55.009Z</time></trkpt><trkpt lat="43.77971624175069" lon="11.312629230614528"><ele>97.5</ele><time>2026-03-22T09:35:56.009Z</time></trkpt><trkpt lat="43.779694104026554" lon="11.312463597891496"><ele>96.0</ele><time>2026-03-22T09:35:57.009Z</time></trkpt><trkpt lat="43.77969888510056" lon="11.312299995914866"><ele>94.5</ele><time>2026-03-22T09:35:58.009Z</time></trkpt><trkpt lat="43.77973178779745" lon="11.312154261502625"><ele>93.0</ele><time>2026-03-22T09:35:59.009Z</time></trkpt><trkpt lat="43.77980621017158" lon="11.312038320815264"><ele>91.5</ele><time>2026-03-22T09:36:00.009Z</time></trkpt><trkpt lat="43.77987151000248" lon="11.311912326098465"><ele>90.0</ele><time>2026-03-22T09:36:01.009Z</time></trkpt><trkpt lat="43.779967645842945" lon="11.311803169714853"><ele>90.0</ele><time>2026-03-22T09:36:02.009Z</time></trkpt><trkpt lat="43.78006123024383" lon="11.311673714551421"><ele>90.0</ele><time>2026-03-22T09:36:03.009Z</time></trkpt><trkpt lat="43.780163896428085" lon="11.311546159036272"><ele>90.0</ele><time>2026-03-22T09:36:04.009Z</time></trkpt><trkpt lat="43.780273965779934" lon="11.311421057662832"><ele>90.0</ele><time>2026-03-22T09:36:05.009Z</time></trkpt><trkpt lat="43.7803835926859" lon="11.311309473351693"><ele>88.5</ele><time>2026-03-22T09:36:06.009Z</time></trkpt><trkpt lat="43.780501902780195" lon="11.311225811916136"><ele>87.0</ele><time>2026-03-22T09:36:07.009Z</time></trkpt><trkpt lat="43.78062493085557" lon="11.31116002292893"><ele>85.5</ele><time>2026-03-22T09:36:08.009Z</time></trkpt><trkpt lat="43.78075032916742" lon="11.31111323650744"><ele>84.0</ele><time>2026-03-22T09:36:09.009Z</time></trkpt><trkpt lat="43.78087393233734" lon="11.311059870277711"><ele>84.0</ele><time>2026-03-22T09:36:10.009Z</time></trkpt><trkpt lat="43.78100464456543" lon="11.310988271096685"><ele>84.0</ele><time>2026-03-22T09:36:11.009Z</time></trkpt><trkpt lat="43.78113427723973" lon="11.310905334792192"><ele>84.0</ele><time>2026-03-22T09:36:12.009Z</time></trkpt><trkpt lat="43.78126354363068" lon="11.310804186832764"><ele>84.0</ele><time>2026-03-22T09:36:13.009Z</time></trkpt><trkpt lat="43.78138788320666" lon="11.310713989095712"><ele>83.5</ele><time>2026-03-22T09:36:14.009Z</time></trkpt><trkpt lat="43.78149864610795" lon="11.310604337279806"><ele>83.0</ele><time>2026-03-22T09:36:15.009Z</time></trkpt><trkpt lat="43.7816000010944" lon="11.310481262203123"><ele>82.5</ele><time>2026-03-22T09:36:16.009Z</time></trkpt><trkpt lat="43.78169240164109" lon="11.31035213959213"><ele>82.0</ele><time>2026-03-22T09:36:17.009Z</time></trkpt><trkpt lat="43.78175172538658" lon="11.310172270765463"><ele>80.5</ele><time>2026-03-22T09:36:18.009Z</time></trkpt><trkpt lat="43.781784389412714" lon="11.309990289600487"><ele>79.0</ele><time>2026-03-22T09:36:19.009Z</time></trkpt><trkpt lat="43.78180910309307" lon="11.30981093883736"><ele>77.5</ele><time>2026-03-22T09:36:20.009Z</time></trkpt><trkpt lat="43.78182651343125" lon="11.309645596975907"><ele>76.0</ele><time>2026-03-22T09:36:21.009Z</time></trkpt><trkpt lat="43.781844543664434" lon="11.309493181512337"><ele>76.0</ele><time>2026-03-22T09:36:22.009Z</time></trkpt><trkpt lat="43.78185771422862" lon="11.309347873761709"><ele>76.0</ele><time>2026-03-22T09:36:23.009Z</time></trkpt><trkpt lat="43.78184736510856" lon="11.30919859395583"><ele>76.0</ele><time>2026-03-22T09:36:24.009Z</time></trkpt><trkpt lat="43.78181131564003" lon="11.309048759339726"><ele>76.0</ele><time>2026-03-22T09:36:25.009Z</time></trkpt><trkpt lat="43.78177313195004" lon="11.308927233306303"><ele>76.0</ele><time>2026-03-22T09:36:26.009Z</time></trkpt><trkpt lat="43.781749448868034" lon="11.308824236908741"><ele>75.2</ele><time>2026-03-22T09:36:27.009Z</time></trkpt><trkpt lat="43.78170393219798" lon="11.308739587463224"><ele>74.39999999999999</ele><time>2026-03-22T09:36:28.009Z</time></trkpt><trkpt lat="43.78166882959173" lon="11.308619503018159"><ele>73.6</ele><time>2026-03-22T09:36:29.009Z</time></trkpt><trkpt lat="43.78162466722147" lon="11.308473722632229"><ele>72.8</ele><time>2026-03-22T09:36:30.009Z</time></trkpt><trkpt lat="43.78158449142005" lon="11.308347378724482"><ele>72.0</ele><time>2026-03-22T09:36:31.009Z</time></trkpt><trkpt lat="43.78154790358118" lon="11.308214393139625"><ele>73.0</ele><time>2026-03-22T09:36:32.009Z</time></trkpt><trkpt lat="43.781507867818966" lon="11.308072500824226"><ele>74.0</ele><time>2026-03-22T09:36:33.009Z</time></trkpt><trkpt lat="43.781465303696486" lon="11.307926330627158"><ele>75.0</ele><time>2026-03-22T09:36:34.009Z</time></trkpt><trkpt lat="43.78141938868599" lon="11.307772725298864"><ele>76.0</ele><time>2026-03-22T09:36:35.009Z</time></trkpt><trkpt lat="43.78137236804889" lon="11.307607835623715"><ele>76.0</ele><time>2026-03-22T09:36:36.009Z</time></trkpt><trkpt lat="43.781320823281604" lon="11.307446177107623"><ele>76.0</ele><time>2026-03-22T09:36:37.009Z</time></trkpt><trkpt lat="43.78126694830926" lon="11.307268702196362"><ele>76.0</ele><time>2026-03-22T09:36:38.009Z</time></trkpt><trkpt lat="43.78120848278698" lon="11.307105104245393"><ele>76.0</ele><time>2026-03-22T09:36:39.009Z</time></trkpt><trkpt lat="43.78114772641217" lon="11.306970351867543"><ele>75.2</ele><time>2026-03-22T09:36:40.009Z</time></trkpt><trkpt lat="43.78108514710366" lon="11.306842711902453"><ele>74.39999999999999</ele><time>2026-03-22T09:36:41.009Z</time></trkpt><trkpt lat="43.78102281211082" lon="11.306731985539928"><ele>73.6</ele><time>2026-03-22T09:36:42.009Z</time></trkpt><trkpt lat="43.7809715161706" lon="11.306623282245777"><ele>72.8</ele><time>2026-03-22T09:36:43.009Z</time></trkpt><trkpt lat="43.780927571207904" lon="11.306497221816885"><ele>72.0</ele><time>2026-03-22T09:36:44.009Z</time></trkpt><trkpt lat="43.78088530025741" lon="11.306348494111448"><ele>72.0</ele><time>2026-03-22T09:36:45.009Z</time></trkpt><trkpt lat="43.78085190397932" lon="11.306167791317401"><ele>72.0</ele><time>2026-03-22T09:36:46.009Z</time></trkpt><trkpt lat="43.78085606700842" lon="11.305965123460062"><ele>72.0</ele><time>2026-03-22T09:36:47.009Z</time></trkpt><trkpt lat="43.78086076958153" lon="11.305784879353045"><ele>72.0</ele><time>2026-03-22T09:36:48.009Z</time></trkpt><trkpt lat="43.78086137925221" lon="11.30561327114897"><ele>71.4</ele><time>2026-03-22T09:36:49.009Z</time></trkpt><trkpt lat="43.78086009088738" lon="11.30545095638771"><ele>70.80000000000001</ele><time>2026-03-22T09:36:50.009Z</time></trkpt><trkpt lat="43.780883183286406" lon="11.305313705552983"><ele>70.2</ele><time>2026-03-22T09:36:51.009Z</time></trkpt><trkpt lat="43.78091698843891" lon="11.305169102378928"><ele>69.60000000000001</ele><time>2026-03-22T09:36:52.009Z</time></trkpt><trkpt lat="43.78095667788653" lon="11.305023592068009"><ele>69.0</ele><time>2026-03-22T09:36:53.009Z</time></trkpt><trkpt lat="43.780989284785065" lon="11.30486381932949"><ele>68.75</ele><time>2026-03-22T09:36:54.009Z</time></trkpt><trkpt lat="43.78101352681336" lon="11.304685019963406"><ele>68.5</ele><time>2026-03-22T09:36:55.009Z</time></trkpt><trkpt lat="43.781029130381484" lon="11.30450291001108"><ele>68.25</ele><time>2026-03-22T09:36:56.009Z</time></trkpt><trkpt lat="43.78102692017059" lon="11.304311957559944"><ele>68.0</ele><time>2026-03-22T09:36:57.009Z</time></trkpt><trkpt lat="43.78102820213935" lon="11.304139977467324"><ele>68.0</ele><time>2026-03-22T09:36:58.009Z</time></trkpt><trkpt lat="43.78100446247895" lon="11.303986811222963"><ele>68.0</ele><time>2026-03-22T09:36:59.009Z</time></trkpt><trkpt lat="43.78100015965006" lon="11.30382417161632"><ele>68.0</ele><time>2026-03-22T09:37:00.009Z</time></trkpt><trkpt lat="43.780983748675965" lon="11.303679920302512"><ele>68.0</ele><time>2026-03-22T09:37:01.009Z</time></trkpt><trkpt lat="43.78097579350686" lon="11.303534372707718"><ele>68.0</ele><time>2026-03-22T09:37:02.009Z</time></trkpt><trkpt lat="43.78097371929859" lon="11.3033776540245"><ele>67.75</ele><time>2026-03-22T09:37:03.009Z</time></trkpt><trkpt lat="43.78096790682231" lon="11.303202108916942"><ele>67.5</ele><time>2026-03-22T09:37:04.009Z</time></trkpt><trkpt lat="43.78097814468588" lon="11.30302032765892"><ele>67.25</ele><time>2026-03-22T09:37:05.009Z</time></trkpt><trkpt lat="43.780982870283665" lon="11.302836887001385"><ele>67.0</ele><time>2026-03-22T09:37:06.009Z</time></trkpt><trkpt lat="43.78099198439551" lon="11.302651307183007"><ele>67.0</ele><time>2026-03-22T09:37:07.009Z</time></trkpt><trkpt lat="43.78099900807776" lon="11.302483102226454"><ele>67.0</ele><time>2026-03-22T09:37:08.01Z</time></trkpt><trkpt lat="43.78100898723783" lon="11.302330952095915"><ele>67.0</ele><time>2026-03-22T09:37:09.01Z</time></trkpt><trkpt lat="43.78102937203454" lon="11.302197769234231"><ele>67.0</ele><time>2026-03-22T09:37:10.01Z</time></trkpt><trkpt lat="43.781059066836725" lon="11.302073351261361"><ele>67.0</ele><time>2026-03-22T09:37:11.01Z</time></trkpt><trkpt lat="43.7810911981354" lon="11.301956494683234"><ele>67.6</ele><time>2026-03-22T09:37:12.009Z</time></trkpt><trkpt lat="43.781124153834085" lon="11.301843324805992"><ele>68.2</ele><time>2026-03-22T09:37:13.009Z</time></trkpt><trkpt lat="43.781153599309064" lon="11.301720745115398"><ele>68.8</ele><time>2026-03-22T09:37:14.01Z</time></trkpt><trkpt lat="43.78117651724225" lon="11.301596256404197"><ele>69.4</ele><time>2026-03-22T09:37:15.01Z</time></trkpt><trkpt lat="43.78119333161251" lon="11.301454523761056"><ele>70.0</ele><time>2026-03-22T09:37:16.01Z</time></trkpt><trkpt lat="43.7812028808523" lon="11.30130436357163"><ele>70.0</ele><time>2026-03-22T09:37:17.01Z</time></trkpt><trkpt lat="43.781195703010276" lon="11.301137410330231"><ele>70.0</ele><time>2026-03-22T09:37:18.01Z</time></trkpt><trkpt lat="43.78118572470834" lon="11.300970108580334"><ele>70.0</ele><time>2026-03-22T09:37:19.01Z</time></trkpt><trkpt lat="43.78119769421284" lon="11.30081026724395"><ele>70.0</ele><time>2026-03-22T09:37:20.01Z</time></trkpt><trkpt lat="43.78119902681043" lon="11.300659106357298"><ele>70.6</ele><time>2026-03-22T09:37:21.01Z</time></trkpt><trkpt lat="43.78120559161026" lon="11.300521437617974"><ele>71.2</ele><time>2026-03-22T09:37:22.01Z</time></trkpt><trkpt lat="43.781207958928235" lon="11.300402777498345"><ele>71.8</ele><time>2026-03-22T09:37:23.01Z</time></trkpt><trkpt lat="43.78120525176603" lon="11.300257703324739"><ele>72.4</ele><time>2026-03-22T09:37:24.01Z</time></trkpt><trkpt lat="43.781210268084955" lon="11.300112743105938"><ele>73.0</ele><time>2026-03-22T09:37:25.01Z</time></trkpt><trkpt lat="43.781209316265986" lon="11.299978638502855"><ele>73.0</ele><time>2026-03-22T09:37:26.01Z</time></trkpt><trkpt lat="43.781210625868326" lon="11.299863429765018"><ele>73.0</ele><time>2026-03-22T09:37:27.01Z</time></trkpt><trkpt lat="43.781220755885926" lon="11.299703334776144"><ele>73.0</ele><time>2026-03-22T09:37:29.01Z</time></trkpt><trkpt lat="43.7811974305613" lon="11.29961211955496"><ele>73.0</ele><time>2026-03-22T09:37:31.01Z</time></trkpt><trkpt lat="43.78131961402285" lon="11.299558190863927"><ele>73.0</ele><time>2026-03-22T09:37:32.01Z</time></trkpt><trkpt lat="43.78136190935945" lon="11.299491188113798"><ele>72.4</ele><time>2026-03-22T09:37:33.01Z</time></trkpt><trkpt lat="43.781414407250004" lon="11.299393495562168"><ele>71.8</ele><time>2026-03-22T09:37:34.01Z</time></trkpt><trkpt lat="43.78148226304215" lon="11.299309902599878"><ele>71.2</ele><time>2026-03-22T09:37:35.01Z</time></trkpt><trkpt lat="43.78155002853139" lon="11.299214642821225"><ele>70.6</ele><time>2026-03-22T09:37:36.01Z</time></trkpt><trkpt lat="43.781618364354664" lon="11.299102331543239"><ele>70.0</ele><time>2026-03-22T09:37:37.01Z</time></trkpt><trkpt lat="43.781673771884975" lon="11.298950706972729"><ele>69.5</ele><time>2026-03-22T09:37:38.01Z</time></trkpt><trkpt lat="43.781755035930324" lon="11.29880185109044"><ele>69.0</ele><time>2026-03-22T09:37:39.01Z</time></trkpt><trkpt lat="43.78184254515684" lon="11.298640525818955"><ele>68.5</ele><time>2026-03-22T09:37:40.01Z</time></trkpt><trkpt lat="43.78192595879135" lon="11.298495447450549"><ele>68.0</ele><time>2026-03-22T09:37:41.01Z</time></trkpt><trkpt lat="43.781994170515844" lon="11.29835348481531"><ele>69.8</ele><time>2026-03-22T09:37:42.01Z</time></trkpt><trkpt lat="43.78206451047499" lon="11.298236183264654"><ele>71.6</ele><time>2026-03-22T09:37:43.01Z</time></trkpt><trkpt lat="43.782137209561945" lon="11.29812828990942"><ele>73.4</ele><time>2026-03-22T09:37:44.01Z</time></trkpt><trkpt lat="43.78221258562574" lon="11.29801747009467"><ele>75.2</ele><time>2026-03-22T09:37:45.01Z</time></trkpt><trkpt lat="43.78227126565335" lon="11.29787919400716"><ele>77.0</ele><time>2026-03-22T09:37:46.01Z</time></trkpt><trkpt lat="43.78233566478614" lon="11.29774822142148"><ele>77.0</ele><time>2026-03-22T09:37:47.01Z</time></trkpt><trkpt lat="43.78239324870415" lon="11.29765249195291"><ele>77.0</ele><time>2026-03-22T09:37:48.01Z</time></trkpt><trkpt lat="43.782437249699555" lon="11.297576488292078"><ele>77.0</ele><time>2026-03-22T09:37:49.01Z</time></trkpt><trkpt lat="43.782485627961606" lon="11.297481296042074"><ele>77.0</ele><time>2026-03-22T09:37:50.01Z</time></trkpt><trkpt lat="43.782530949279746" lon="11.297377533206703"><ele>77.0</ele><time>2026-03-22T09:37:51.01Z</time></trkpt><trkpt lat="43.78258267678284" lon="11.297279712448974"><ele>77.0</ele><time>2026-03-22T09:37:52.01Z</time></trkpt><trkpt lat="43.78269199296459" lon="11.297199868964954"><ele>76.75</ele><time>2026-03-22T09:37:53.01Z</time></trkpt><trkpt lat="43.78276868959239" lon="11.297060686316692"><ele>76.5</ele><time>2026-03-22T09:37:54.01Z</time></trkpt><trkpt lat="43.78283819277702" lon="11.296905357068162"><ele>76.25</ele><time>2026-03-22T09:37:55.01Z</time></trkpt><trkpt lat="43.782898651845954" lon="11.296762600631014"><ele>76.0</ele><time>2026-03-22T09:37:56.01Z</time></trkpt><trkpt lat="43.78295181239743" lon="11.296626062301696"><ele>76.0</ele><time>2026-03-22T09:37:57.01Z</time></trkpt><trkpt lat="43.7829961151527" lon="11.296499564361485"><ele>76.0</ele><time>2026-03-22T09:37:58.01Z</time></trkpt><trkpt lat="43.783022996887766" lon="11.29637354603345"><ele>76.0</ele><time>2026-03-22T09:37:59.01Z</time></trkpt><trkpt lat="43.78303265868306" lon="11.296255735933936"><ele>76.0</ele><time>2026-03-22T09:38:00.01Z</time></trkpt><trkpt lat="43.7830119965589" lon="11.2961329149694"><ele>76.0</ele><time>2026-03-22T09:38:01.01Z</time></trkpt><trkpt lat="43.78296315698112" lon="11.296022618447203"><ele>74.39999999999999</ele><time>2026-03-22T09:38:02.01Z</time></trkpt><trkpt lat="43.78291441763795" lon="11.29592371280739"><ele>72.8</ele><time>2026-03-22T09:38:03.009Z</time></trkpt><trkpt lat="43.782861712036365" lon="11.29582681479184"><ele>71.19999999999999</ele><time>2026-03-22T09:38:04.009Z</time></trkpt><trkpt lat="43.7828067716137" lon="11.295707750180672"><ele>69.6</ele><time>2026-03-22T09:38:05.009Z</time></trkpt><trkpt lat="43.78273765050151" lon="11.295607623917087"><ele>68.0</ele><time>2026-03-22T09:38:06.009Z</time></trkpt><trkpt lat="43.782666420560176" lon="11.295521250937561"><ele>67.16666666666667</ele><time>2026-03-22T09:38:07.009Z</time></trkpt><trkpt lat="43.78261496927679" lon="11.295456866764987"><ele>66.33333333333334</ele><time>2026-03-22T09:38:08.009Z</time></trkpt><trkpt lat="43.78257050727096" lon="11.295393210235396"><ele>65.5</ele><time>2026-03-22T09:38:09.009Z</time></trkpt><trkpt lat="43.782482184926906" lon="11.29526838508366"><ele>64.66666666666667</ele><time>2026-03-22T09:38:12.009Z</time></trkpt><trkpt lat="43.78241479803881" lon="11.295212275810224"><ele>63.833333333333336</ele><time>2026-03-22T09:38:13.009Z</time></trkpt><trkpt lat="43.782341990873654" lon="11.295165977712434"><ele>63.0</ele><time>2026-03-22T09:38:14.009Z</time></trkpt><trkpt lat="43.782267243631686" lon="11.295115501345064"><ele>63.0</ele><time>2026-03-22T09:38:15.009Z</time></trkpt><trkpt lat="43.782183566784475" lon="11.295063941758848"><ele>63.0</ele><time>2026-03-22T09:38:16.009Z</time></trkpt><trkpt lat="43.78211078240429" lon="11.295004555600578"><ele>63.0</ele><time>2026-03-22T09:38:17.009Z</time></trkpt><trkpt lat="43.782036114422006" lon="11.294943295394212"><ele>63.0</ele><time>2026-03-22T09:38:18.009Z</time></trkpt><trkpt lat="43.781946643022444" lon="11.294868801520195"><ele>63.0</ele><time>2026-03-22T09:38:19.009Z</time></trkpt><trkpt lat="43.7818516333759" lon="11.29480364450013"><ele>63.0</ele><time>2026-03-22T09:38:20.009Z</time></trkpt><trkpt lat="43.78176410610124" lon="11.294731061214936"><ele>63.0</ele><time>2026-03-22T09:38:21.009Z</time></trkpt><trkpt lat="43.78168563037901" lon="11.294680346825224"><ele>63.0</ele><time>2026-03-22T09:38:22.009Z</time></trkpt><trkpt lat="43.78162868170522" lon="11.294638141051987"><ele>63.0</ele><time>2026-03-22T09:38:23.009Z</time></trkpt><trkpt lat="43.78155435614326" lon="11.294561161041049"><ele>63.0</ele><time>2026-03-22T09:38:25.009Z</time></trkpt><trkpt lat="43.78155563023509" lon="11.294446274199979"><ele>63.0</ele><time>2026-03-22T09:38:28.009Z</time></trkpt><trkpt lat="43.78160784986406" lon="11.294286267315233"><ele>63.0</ele><time>2026-03-22T09:38:30.009Z</time></trkpt><trkpt lat="43.781649411759005" lon="11.294199439229747"><ele>63.0</ele><time>2026-03-22T09:38:31.009Z</time></trkpt><trkpt lat="43.78168136668769" lon="11.294112176812254"><ele>63.0</ele><time>2026-03-22T09:38:32.009Z</time></trkpt><trkpt lat="43.78171062982702" lon="11.294003957226387"><ele>63.0</ele><time>2026-03-22T09:38:33.009Z</time></trkpt><trkpt lat="43.781745364194734" lon="11.293902094005421"><ele>63.0</ele><time>2026-03-22T09:38:34.009Z</time></trkpt><trkpt lat="43.7818031100104" lon="11.293787471517266"><ele>63.0</ele><time>2026-03-22T09:38:35.009Z</time></trkpt><trkpt lat="43.78183377158541" lon="11.29369748659233"><ele>63.2</ele><time>2026-03-22T09:38:36.009Z</time></trkpt><trkpt lat="43.781874810727174" lon="11.293576383834257"><ele>63.4</ele><time>2026-03-22T09:38:38.009Z</time></trkpt><trkpt lat="43.78191740012039" lon="11.293507250329455"><ele>63.60000000000001</ele><time>2026-03-22T09:38:51.009Z</time></trkpt><trkpt lat="43.78200359740299" lon="11.293462618378731"><ele>63.800000000000004</ele><time>2026-03-22T09:39:16.011Z</time></trkpt><trkpt lat="43.782136527606646" lon="11.293559118605721"><ele>64.0</ele><time>2026-03-22T09:39:18.01Z</time></trkpt><trkpt lat="43.78222014955472" lon="11.29362094891239"><ele>64.0</ele><time>2026-03-22T09:39:19.01Z</time></trkpt><trkpt lat="43.782313373832835" lon="11.293678896953415"><ele>64.0</ele><time>2026-03-22T09:39:20.011Z</time></trkpt><trkpt lat="43.78240504429195" lon="11.2937253478715"><ele>64.0</ele><time>2026-03-22T09:39:21.01Z</time></trkpt><trkpt lat="43.78251515828578" lon="11.293791815425053"><ele>64.0</ele><time>2026-03-22T09:39:22.01Z</time></trkpt><trkpt lat="43.782651414311886" lon="11.293863996494297"><ele>64.0</ele><time>2026-03-22T09:39:23.01Z</time></trkpt><trkpt lat="43.782777517046036" lon="11.293922882885646"><ele>64.0</ele><time>2026-03-22T09:39:24.01Z</time></trkpt><trkpt lat="43.78289780598703" lon="11.293976326482339"><ele>64.0</ele><time>2026-03-22T09:39:25.01Z</time></trkpt><trkpt lat="43.78302318243799" lon="11.29402687527094"><ele>64.0</ele><time>2026-03-22T09:39:26.011Z</time></trkpt><trkpt lat="43.78315158586197" lon="11.294073005507745"><ele>64.0</ele><time>2026-03-22T09:39:27.011Z</time></trkpt><trkpt lat="43.78329061095289" lon="11.294125840982968"><ele>64.0</ele><time>2026-03-22T09:39:28.011Z</time></trkpt><trkpt lat="43.78344494662427" lon="11.294151543058616"><ele>64.0</ele><time>2026-03-22T09:39:29.011Z</time></trkpt><trkpt lat="43.7835800691389" lon="11.29417830704182"><ele>64.0</ele><time>2026-03-22T09:39:30.011Z</time></trkpt><trkpt lat="43.78370884427294" lon="11.294202544138324"><ele>64.25</ele><time>2026-03-22T09:39:31.01Z</time></trkpt><trkpt lat="43.783832235317355" lon="11.294237013232236"><ele>64.5</ele><time>2026-03-22T09:39:32.01Z</time></trkpt><trkpt lat="43.783943714961" lon="11.294267596558416"><ele>64.75</ele><time>2026-03-22T09:39:33.01Z</time></trkpt><trkpt lat="43.78405307724979" lon="11.294282785571955"><ele>65.0</ele><time>2026-03-22T09:39:34.01Z</time></trkpt><trkpt lat="43.78415425433681" lon="11.29429944615373"><ele>65.0</ele><time>2026-03-22T09:39:35.01Z</time></trkpt><trkpt lat="43.78425903146257" lon="11.294308250111719"><ele>65.0</ele><time>2026-03-22T09:39:36.01Z</time></trkpt><trkpt lat="43.78438443424089" lon="11.294309044845077"><ele>65.0</ele><time>2026-03-22T09:39:37.01Z</time></trkpt><trkpt lat="43.78450464137675" lon="11.294319634407533"><ele>65.0</ele><time>2026-03-22T09:39:38.01Z</time></trkpt><trkpt lat="43.7846070499501" lon="11.294333566180002"><ele>65.33333333333334</ele><time>2026-03-22T09:39:39.01Z</time></trkpt><trkpt lat="43.78470123526967" lon="11.294326633307447"><ele>65.66666666666667</ele><time>2026-03-22T09:39:40.01Z</time></trkpt><trkpt lat="43.78478799784238" lon="11.294319972139663"><ele>66.0</ele><time>2026-03-22T09:39:41.01Z</time></trkpt><trkpt lat="43.78486712114596" lon="11.294303581514384"><ele>66.33333333333333</ele><time>2026-03-22T09:39:42.01Z</time></trkpt><trkpt lat="43.78493165492088" lon="11.294296775409547"><ele>66.66666666666666</ele><time>2026-03-22T09:39:43.01Z</time></trkpt><trkpt lat="43.78504717974408" lon="11.294310156580577"><ele>67.0</ele><time>2026-03-22T09:39:45.01Z</time></trkpt><trkpt lat="43.7851125869462" lon="11.294361951808916"><ele>67.5</ele><time>2026-03-22T09:39:46.01Z</time></trkpt><trkpt lat="43.785188244926864" lon="11.294387809968633"><ele>68.0</ele><time>2026-03-22T09:39:48.01Z</time></trkpt><trkpt lat="43.78528875010117" lon="11.294102204730827"><ele>68.5</ele><time>2026-03-22T09:39:50.01Z</time></trkpt><trkpt lat="43.78529364223734" lon="11.294003406726885"><ele>69.0</ele><time>2026-03-22T09:39:51.01Z</time></trkpt><trkpt lat="43.78529751235293" lon="11.293892487809611"><ele>69.2</ele><time>2026-03-22T09:39:52.01Z</time></trkpt><trkpt lat="43.78528098316145" lon="11.293750608398442"><ele>69.4</ele><time>2026-03-22T09:39:53.01Z</time></trkpt><trkpt lat="43.785287098347574" lon="11.293594091629457"><ele>69.6</ele><time>2026-03-22T09:39:54.01Z</time></trkpt><trkpt lat="43.785269570275645" lon="11.29343887311324"><ele>69.8</ele><time>2026-03-22T09:39:55.01Z</time></trkpt><trkpt lat="43.785256060397046" lon="11.293290230149225"><ele>70.0</ele><time>2026-03-22T09:39:56.01Z</time></trkpt><trkpt lat="43.78526060279315" lon="11.293182275459616"><ele>69.8</ele><time>2026-03-22T09:39:57.01Z</time></trkpt><trkpt lat="43.78523596876457" lon="11.293052149603305"><ele>69.6</ele><time>2026-03-22T09:39:58.01Z</time></trkpt><trkpt lat="43.785216171459865" lon="11.292915538190698"><ele>69.4</ele><time>2026-03-22T09:39:59.01Z</time></trkpt><trkpt lat="43.785199384744274" lon="11.292765004284247"><ele>69.2</ele><time>2026-03-22T09:40:00.01Z</time></trkpt><trkpt lat="43.78516895237436" lon="11.292606795052341"><ele>69.0</ele><time>2026-03-22T09:40:01.01Z</time></trkpt><trkpt lat="43.78514376745365" lon="11.29245175580676"><ele>69.0</ele><time>2026-03-22T09:40:02.01Z</time></trkpt><trkpt lat="43.78511567652938" lon="11.29230700652265"><ele>69.0</ele><time>2026-03-22T09:40:03.01Z</time></trkpt><trkpt lat="43.78507239388008" lon="11.292149339080717"><ele>69.0</ele><time>2026-03-22T09:40:04.01Z</time></trkpt><trkpt lat="43.78504985787225" lon="11.291998516593106"><ele>69.0</ele><time>2026-03-22T09:40:05.01Z</time></trkpt><trkpt lat="43.78503629775854" lon="11.291843159563483"><ele>68.8</ele><time>2026-03-22T09:40:06.01Z</time></trkpt><trkpt lat="43.78501885044084" lon="11.291690654815303"><ele>68.60000000000001</ele><time>2026-03-22T09:40:07.01Z</time></trkpt><trkpt lat="43.785006377469394" lon="11.29153107350978"><ele>68.4</ele><time>2026-03-22T09:40:08.01Z</time></trkpt><trkpt lat="43.785006582465634" lon="11.291381150908704"><ele>68.2</ele><time>2026-03-22T09:40:09.01Z</time></trkpt><trkpt lat="43.78500045003143" lon="11.291237583798615"><ele>68.0</ele><time>2026-03-22T09:40:10.01Z</time></trkpt><trkpt lat="43.78501710223476" lon="11.291114882973382"><ele>67.8</ele><time>2026-03-22T09:40:11.01Z</time></trkpt><trkpt lat="43.78502383366256" lon="11.290993684319853"><ele>67.6</ele><time>2026-03-22T09:40:12.01Z</time></trkpt><trkpt lat="43.78505034574788" lon="11.290862415914424"><ele>67.4</ele><time>2026-03-22T09:40:13.01Z</time></trkpt><trkpt lat="43.78507288627838" lon="11.290716170074104"><ele>67.2</ele><time>2026-03-22T09:40:14.01Z</time></trkpt><trkpt lat="43.78510453384415" lon="11.290554913862001"><ele>67.0</ele><time>2026-03-22T09:40:15.01Z</time></trkpt><trkpt lat="43.785128684291905" lon="11.290390627001766"><ele>67.0</ele><time>2026-03-22T09:40:16.01Z</time></trkpt><trkpt lat="43.785148937430435" lon="11.290204823954744"><ele>67.0</ele><time>2026-03-22T09:40:17.01Z</time></trkpt><trkpt lat="43.7851849633298" lon="11.290028923635035"><ele>67.0</ele><time>2026-03-22T09:40:18.01Z</time></trkpt><trkpt lat="43.78521823363558" lon="11.28986892008983"><ele>67.0</ele><time>2026-03-22T09:40:19.01Z</time></trkpt><trkpt lat="43.78525399247213" lon="11.289724357239463"><ele>68.4</ele><time>2026-03-22T09:40:20.01Z</time></trkpt><trkpt lat="43.785296848718524" lon="11.289597058157364"><ele>69.80000000000001</ele><time>2026-03-22T09:40:21.01Z</time></trkpt><trkpt lat="43.78533584607642" lon="11.28945206430122"><ele>71.2</ele><time>2026-03-22T09:40:22.01Z</time></trkpt><trkpt lat="43.78538396278635" lon="11.28928732136745"><ele>72.60000000000001</ele><time>2026-03-22T09:40:23.01Z</time></trkpt><trkpt lat="43.78543008252548" lon="11.289152464778374"><ele>74.0</ele><time>2026-03-22T09:40:24.01Z</time></trkpt><trkpt lat="43.78547135484036" lon="11.289037444064693"><ele>73.4</ele><time>2026-03-22T09:40:25.01Z</time></trkpt><trkpt lat="43.785493472896604" lon="11.288922131675355"><ele>72.80000000000001</ele><time>2026-03-22T09:40:26.01Z</time></trkpt><trkpt lat="43.78552239737463" lon="11.288814447142927"><ele>72.19999999999999</ele><time>2026-03-22T09:40:27.01Z</time></trkpt><trkpt lat="43.78555851613033" lon="11.288691608660216"><ele>71.6</ele><time>2026-03-22T09:40:28.01Z</time></trkpt><trkpt lat="43.78560305163051" lon="11.28856361540621"><ele>71.0</ele><time>2026-03-22T09:40:29.01Z</time></trkpt><trkpt lat="43.78566723137898" lon="11.28843186645338"><ele>71.0</ele><time>2026-03-22T09:40:30.01Z</time></trkpt><trkpt lat="43.78571774905294" lon="11.288295909413778"><ele>71.0</ele><time>2026-03-22T09:40:31.01Z</time></trkpt><trkpt lat="43.78578257585891" lon="11.288143800417648"><ele>71.0</ele><time>2026-03-22T09:40:32.01Z</time></trkpt><trkpt lat="43.78584390317639" lon="11.287999230797523"><ele>71.0</ele><time>2026-03-22T09:40:33.01Z</time></trkpt><trkpt lat="43.78590158488658" lon="11.287864208955025"><ele>70.25</ele><time>2026-03-22T09:40:34.01Z</time></trkpt><trkpt lat="43.7859668168773" lon="11.287710994544984"><ele>69.5</ele><time>2026-03-22T09:40:35.01Z</time></trkpt><trkpt lat="43.78603817239772" lon="11.287564027223212"><ele>68.75</ele><time>2026-03-22T09:40:36.01Z</time></trkpt><trkpt lat="43.786111545885454" lon="11.287425100975353"><ele>68.0</ele><time>2026-03-22T09:40:37.01Z</time></trkpt><trkpt lat="43.786187854225126" lon="11.287286877615772"><ele>67.75</ele><time>2026-03-22T09:40:38.01Z</time></trkpt><trkpt lat="43.78626993578579" lon="11.287143201496221"><ele>67.5</ele><time>2026-03-22T09:40:39.01Z</time></trkpt><trkpt lat="43.786347230099395" lon="11.287010182831287"><ele>67.25</ele><time>2026-03-22T09:40:40.01Z</time></trkpt><trkpt lat="43.78642010094251" lon="11.286884334778648"><ele>67.0</ele><time>2026-03-22T09:40:41.01Z</time></trkpt><trkpt lat="43.78648290395032" lon="11.286760510437722"><ele>67.0</ele><time>2026-03-22T09:40:42.01Z</time></trkpt><trkpt lat="43.78653768994025" lon="11.286657839350045"><ele>67.0</ele><time>2026-03-22T09:40:43.01Z</time></trkpt><trkpt lat="43.78658989084848" lon="11.286558784838682"><ele>67.0</ele><time>2026-03-22T09:40:44.01Z</time></trkpt><trkpt lat="43.78663295388684" lon="11.286456505805448"><ele>67.0</ele><time>2026-03-22T09:40:45.01Z</time></trkpt><trkpt lat="43.786676758350914" lon="11.286354606610631"><ele>67.0</ele><time>2026-03-22T09:40:46.01Z</time></trkpt><trkpt lat="43.78671452154805" lon="11.286269583312794"><ele>67.0</ele><time>2026-03-22T09:40:47.01Z</time></trkpt><trkpt lat="43.786754475415215" lon="11.286166450798316"><ele>66.75</ele><time>2026-03-22T09:40:48.01Z</time></trkpt><trkpt lat="43.786802425790775" lon="11.286041027487586"><ele>66.5</ele><time>2026-03-22T09:40:49.01Z</time></trkpt><trkpt lat="43.78686046011187" lon="11.285893821402494"><ele>66.25</ele><time>2026-03-22T09:40:50.01Z</time></trkpt><trkpt lat="43.78691444003105" lon="11.285748567006365"><ele>66.0</ele><time>2026-03-22T09:40:51.01Z</time></trkpt><trkpt lat="43.78696246876862" lon="11.285588519159193"><ele>67.75</ele><time>2026-03-22T09:40:52.01Z</time></trkpt><trkpt lat="43.7870158238601" lon="11.285418760234682"><ele>69.5</ele><time>2026-03-22T09:40:53.01Z</time></trkpt><trkpt lat="43.787082622247425" lon="11.285225124332468"><ele>71.25</ele><time>2026-03-22T09:40:54.01Z</time></trkpt><trkpt lat="43.7871259692404" lon="11.285039263112415"><ele>73.0</ele><time>2026-03-22T09:40:55.01Z</time></trkpt><trkpt lat="43.78716137846313" lon="11.28489058291816"><ele>73.0</ele><time>2026-03-22T09:40:56.01Z</time></trkpt><trkpt lat="43.7871839728925" lon="11.284779884040473"><ele>73.0</ele><time>2026-03-22T09:40:57.01Z</time></trkpt><trkpt lat="43.78720620581298" lon="11.28469341005839"><ele>73.0</ele><time>2026-03-22T09:40:58.01Z</time></trkpt><trkpt lat="43.78725546468709" lon="11.28457812073155"><ele>73.0</ele><time>2026-03-22T09:41:00.01Z</time></trkpt><trkpt lat="43.787302792195966" lon="11.284470365985086"><ele>73.0</ele><time>2026-03-22T09:41:02.01Z</time></trkpt><trkpt lat="43.7872922944339" lon="11.284314699781268"><ele>73.0</ele><time>2026-03-22T09:41:04.01Z</time></trkpt><trkpt lat="43.787271289132406" lon="11.284182305715944"><ele>73.0</ele><time>2026-03-22T09:41:06.009Z</time></trkpt><trkpt lat="43.787248692213325" lon="11.284098447249995"><ele>73.0</ele><time>2026-03-22T09:41:07.009Z</time></trkpt><trkpt lat="43.78719934304853" lon="11.283927479812506"><ele>73.0</ele><time>2026-03-22T09:41:09.009Z</time></trkpt><trkpt lat="43.78716022264232" lon="11.283819493269439"><ele>73.0</ele><time>2026-03-22T09:41:10.009Z</time></trkpt><trkpt lat="43.78712547589405" lon="11.28370308115717"><ele>73.8</ele><time>2026-03-22T09:41:11.009Z</time></trkpt><trkpt lat="43.78708756775243" lon="11.283610916063353"><ele>74.6</ele><time>2026-03-22T09:41:12.009Z</time></trkpt><trkpt lat="43.7870603378836" lon="11.283511798079125"><ele>75.4</ele><time>2026-03-22T09:41:13.009Z</time></trkpt><trkpt lat="43.7870354998282" lon="11.283368424232881"><ele>76.2</ele><time>2026-03-22T09:41:15.009Z</time></trkpt><trkpt lat="43.78700820730784" lon="11.283200193676063"><ele>77.0</ele><time>2026-03-22T09:41:17.009Z</time></trkpt><trkpt lat="43.78696535971604" lon="11.283110254480581"><ele>77.4</ele><time>2026-03-22T09:41:18.009Z</time></trkpt><trkpt lat="43.78691529705839" lon="11.282994052000348"><ele>77.80000000000001</ele><time>2026-03-22T09:41:19.009Z</time></trkpt><trkpt lat="43.78686729798499" lon="11.282860201866077"><ele>78.2</ele><time>2026-03-22T09:41:20.011Z</time></trkpt><trkpt lat="43.78681800891743" lon="11.282717424775935"><ele>78.60000000000001</ele><time>2026-03-22T09:41:21.01Z</time></trkpt><trkpt lat="43.78676233862541" lon="11.28256533926581"><ele>79.0</ele><time>2026-03-22T09:41:22.01Z</time></trkpt><trkpt lat="43.786708618076936" lon="11.282425935099987"><ele>77.0</ele><time>2026-03-22T09:41:23.011Z</time></trkpt><trkpt lat="43.78664849668271" lon="11.282280322301743"><ele>75.0</ele><time>2026-03-22T09:41:24.011Z</time></trkpt><trkpt lat="43.786591902406904" lon="11.28212306574309"><ele>73.0</ele><time>2026-03-22T09:41:25.011Z</time></trkpt><trkpt lat="43.78653774301435" lon="11.281960658523667"><ele>71.0</ele><time>2026-03-22T09:41:26.011Z</time></trkpt><trkpt lat="43.78645928851426" lon="11.281801347878014"><ele>71.0</ele><time>2026-03-22T09:41:27.011Z</time></trkpt><trkpt lat="43.786392832840534" lon="11.281632214461203"><ele>71.0</ele><time>2026-03-22T09:41:28.011Z</time></trkpt><trkpt lat="43.78631343078672" lon="11.281454115551078"><ele>71.0</ele><time>2026-03-22T09:41:29.01Z</time></trkpt><trkpt lat="43.7862296846567" lon="11.281282548186258"><ele>71.0</ele><time>2026-03-22T09:41:30.011Z</time></trkpt><trkpt lat="43.7861628001133" lon="11.281116864367938"><ele>72.0</ele><time>2026-03-22T09:41:31.011Z</time></trkpt><trkpt lat="43.78608346157506" lon="11.28095612333089"><ele>73.0</ele><time>2026-03-22T09:41:32.011Z</time></trkpt><trkpt lat="43.7859983337556" lon="11.280787975822632"><ele>74.0</ele><time>2026-03-22T09:41:33.01Z</time></trkpt><trkpt lat="43.785927416497465" lon="11.280634219281742"><ele>75.0</ele><time>2026-03-22T09:41:34.01Z</time></trkpt><trkpt lat="43.78586405276751" lon="11.280483354214144"><ele>73.0</ele><time>2026-03-22T09:41:35.01Z</time></trkpt><trkpt lat="43.78579451584945" lon="11.280335772442898"><ele>71.0</ele><time>2026-03-22T09:41:36.01Z</time></trkpt><trkpt lat="43.78573213721047" lon="11.280201525139537"><ele>69.0</ele><time>2026-03-22T09:41:37.01Z</time></trkpt><trkpt lat="43.78566842823119" lon="11.28004848315145"><ele>67.0</ele><time>2026-03-22T09:41:38.01Z</time></trkpt><trkpt lat="43.78559707509477" lon="11.279878980680106"><ele>67.25</ele><time>2026-03-22T09:41:39.01Z</time></trkpt><trkpt lat="43.78553053100581" lon="11.279709203728075"><ele>67.5</ele><time>2026-03-22T09:41:40.01Z</time></trkpt><trkpt lat="43.785447828666676" lon="11.279539716202441"><ele>67.75</ele><time>2026-03-22T09:41:41.01Z</time></trkpt><trkpt lat="43.78537448886603" lon="11.279362773512256"><ele>68.0</ele><time>2026-03-22T09:41:42.01Z</time></trkpt><trkpt lat="43.7852872209022" lon="11.279184340584857"><ele>68.0</ele><time>2026-03-22T09:41:43.01Z</time></trkpt><trkpt lat="43.78519717599967" lon="11.279005888713453"><ele>68.0</ele><time>2026-03-22T09:41:44.01Z</time></trkpt><trkpt lat="43.78511363808793" lon="11.278814542088346"><ele>68.0</ele><time>2026-03-22T09:41:45.01Z</time></trkpt><trkpt lat="43.785035377866464" lon="11.278621408550991"><ele>67.66666666666667</ele><time>2026-03-22T09:41:46.01Z</time></trkpt><trkpt lat="43.784963492124696" lon="11.278433297734415"><ele>67.33333333333333</ele><time>2026-03-22T09:41:47.01Z</time></trkpt><trkpt lat="43.7848800812542" lon="11.278238956880136"><ele>67.0</ele><time>2026-03-22T09:41:48.01Z</time></trkpt><trkpt lat="43.784804268147234" lon="11.278072191283371"><ele>67.0</ele><time>2026-03-22T09:41:49.01Z</time></trkpt><trkpt lat="43.78475769533899" lon="11.277888753598814"><ele>67.0</ele><time>2026-03-22T09:41:50.01Z</time></trkpt><trkpt lat="43.78470554423213" lon="11.277728079307192"><ele>67.0</ele><time>2026-03-22T09:41:51.01Z</time></trkpt><trkpt lat="43.7846607825514" lon="11.277570331264673"><ele>67.0</ele><time>2026-03-22T09:41:52.01Z</time></trkpt><trkpt lat="43.78461856569325" lon="11.277411790886585"><ele>68.5</ele><time>2026-03-22T09:41:53.01Z</time></trkpt><trkpt lat="43.78456990158808" lon="11.277232641767116"><ele>70.0</ele><time>2026-03-22T09:41:54.01Z</time></trkpt><trkpt lat="43.78454726390992" lon="11.277055900509453"><ele>71.5</ele><time>2026-03-22T09:41:55.01Z</time></trkpt><trkpt lat="43.78451091264061" lon="11.276877647494729"><ele>73.0</ele><time>2026-03-22T09:41:56.01Z</time></trkpt><trkpt lat="43.78448183758958" lon="11.276661850016275"><ele>73.0</ele><time>2026-03-22T09:41:57.01Z</time></trkpt><trkpt lat="43.78445527177256" lon="11.276456074817148"><ele>73.0</ele><time>2026-03-22T09:41:58.01Z</time></trkpt><trkpt lat="43.78445095661882" lon="11.27624512219065"><ele>73.0</ele><time>2026-03-22T09:41:59.01Z</time></trkpt><trkpt lat="43.78445549784352" lon="11.276023086313346"><ele>73.0</ele><time>2026-03-22T09:42:00.01Z</time></trkpt><trkpt lat="43.78446804031365" lon="11.27581693764782"><ele>73.0</ele><time>2026-03-22T09:42:01.01Z</time></trkpt><trkpt lat="43.78448339980617" lon="11.275630773720632"><ele>73.0</ele><time>2026-03-22T09:42:02.01Z</time></trkpt><trkpt lat="43.78448791411307" lon="11.275453789964946"><ele>73.0</ele><time>2026-03-22T09:42:03.01Z</time></trkpt><trkpt lat="43.78449808861229" lon="11.275297960683131"><ele>73.0</ele><time>2026-03-22T09:42:04.01Z</time></trkpt><trkpt lat="43.78452491780535" lon="11.275163117623977"><ele>73.0</ele><time>2026-03-22T09:42:05.01Z</time></trkpt><trkpt lat="43.78454619258859" lon="11.2750389554499"><ele>73.0</ele><time>2026-03-22T09:42:06.01Z</time></trkpt><trkpt lat="43.78455871547806" lon="11.27490150051769"><ele>73.0</ele><time>2026-03-22T09:42:07.01Z</time></trkpt><trkpt lat="43.784600864898145" lon="11.2747648182376"><ele>73.0</ele><time>2026-03-22T09:42:09.01Z</time></trkpt><trkpt lat="43.78463212666079" lon="11.274618178361312"><ele>72.14285714285714</ele><time>2026-03-22T09:42:11.01Z</time></trkpt><trkpt lat="43.78465026943994" lon="11.274519737977753"><ele>71.28571428571429</ele><time>2026-03-22T09:42:12.01Z</time></trkpt><trkpt lat="43.784680257135285" lon="11.274420175857571"><ele>70.42857142857143</ele><time>2026-03-22T09:42:13.01Z</time></trkpt><trkpt lat="43.78470861603997" lon="11.274339016806499"><ele>69.57142857142857</ele><time>2026-03-22T09:42:14.01Z</time></trkpt><trkpt lat="43.7847499594511" lon="11.274254695400494"><ele>68.71428571428571</ele><time>2026-03-22T09:42:15.01Z</time></trkpt><trkpt lat="43.78477686236744" lon="11.27416830143151"><ele>67.85714285714286</ele><time>2026-03-22T09:42:16.01Z</time></trkpt><trkpt lat="43.78480842659967" lon="11.274072119957422"><ele>67.0</ele><time>2026-03-22T09:42:17.01Z</time></trkpt><trkpt lat="43.78484239520928" lon="11.273972334484203"><ele>66.16666666666666</ele><time>2026-03-22T09:42:18.01Z</time></trkpt><trkpt lat="43.78487073737025" lon="11.27389263065109"><ele>65.33333333333333</ele><time>2026-03-22T09:42:19.01Z</time></trkpt><trkpt lat="43.784943828479975" lon="11.273755197988525"><ele>64.5</ele><time>2026-03-22T09:42:21.01Z</time></trkpt><trkpt lat="43.78498426800339" lon="11.273679057650845"><ele>63.66666666666667</ele><time>2026-03-22T09:42:22.01Z</time></trkpt><trkpt lat="43.785018280062644" lon="11.273577759580299"><ele>62.833333333333336</ele><time>2026-03-22T09:42:23.01Z</time></trkpt><trkpt lat="43.78505717416889" lon="11.273474961488763"><ele>62.0</ele><time>2026-03-22T09:42:24.01Z</time></trkpt><trkpt lat="43.78511355282517" lon="11.27337444699534"><ele>62.0</ele><time>2026-03-22T09:42:25.01Z</time></trkpt><trkpt lat="43.785162700400704" lon="11.273278100610824"><ele>62.0</ele><time>2026-03-22T09:42:26.01Z</time></trkpt><trkpt lat="43.785209665905185" lon="11.273143063620306"><ele>62.0</ele><time>2026-03-22T09:42:27.01Z</time></trkpt><trkpt lat="43.7852466419313" lon="11.273009185397289"><ele>62.0</ele><time>2026-03-22T09:42:28.01Z</time></trkpt><trkpt lat="43.78529944018179" lon="11.272894652320126"><ele>62.0</ele><time>2026-03-22T09:42:29.01Z</time></trkpt><trkpt lat="43.785356707319195" lon="11.272779937483525"><ele>62.333333333333336</ele><time>2026-03-22T09:42:30.01Z</time></trkpt><trkpt lat="43.785396759443984" lon="11.272643714698171"><ele>62.66666666666667</ele><time>2026-03-22T09:42:31.01Z</time></trkpt><trkpt lat="43.7854674634496" lon="11.272537217589596"><ele>63.0</ele><time>2026-03-22T09:42:32.01Z</time></trkpt><trkpt lat="43.7855076403639" lon="11.27241882460498"><ele>63.33333333333333</ele><time>2026-03-22T09:42:33.01Z</time></trkpt><trkpt lat="43.785539776639084" lon="11.272330961748484"><ele>63.666666666666664</ele><time>2026-03-22T09:42:34.01Z</time></trkpt><trkpt lat="43.7855594376101" lon="11.27223475540005"><ele>64.0</ele><time>2026-03-22T09:42:35.009Z</time></trkpt><trkpt lat="43.78559439057578" lon="11.2721494310288"><ele>63.99999999999999</ele><time>2026-03-22T09:42:36.009Z</time></trkpt><trkpt lat="43.785631879917815" lon="11.272052694102628"><ele>64.0</ele><time>2026-03-22T09:42:37.009Z</time></trkpt><trkpt lat="43.78567633931905" lon="11.271944399069914"><ele>64.0</ele><time>2026-03-22T09:42:38.009Z</time></trkpt><trkpt lat="43.78572277140596" lon="11.271824410379434"><ele>64.0</ele><time>2026-03-22T09:42:39.009Z</time></trkpt><trkpt lat="43.78577267312108" lon="11.271725888968826"><ele>63.99999999999999</ele><time>2026-03-22T09:42:40.009Z</time></trkpt><trkpt lat="43.78582506541834" lon="11.271628069589394"><ele>64.0</ele><time>2026-03-22T09:42:41.009Z</time></trkpt><trkpt lat="43.78586575295988" lon="11.271524717069324"><ele>63.99999999999999</ele><time>2026-03-22T09:42:42.009Z</time></trkpt><trkpt lat="43.785901943413336" lon="11.271404788316003"><ele>64.0</ele><time>2026-03-22T09:42:43.009Z</time></trkpt><trkpt lat="43.78593899987183" lon="11.271296250892453"><ele>64.0</ele><time>2026-03-22T09:42:44.009Z</time></trkpt><trkpt lat="43.78599020750464" lon="11.271185781874324"><ele>64.0</ele><time>2026-03-22T09:42:45.009Z</time></trkpt><trkpt lat="43.786028791212665" lon="11.27110778061922"><ele>63.99999999999999</ele><time>2026-03-22T09:42:46.009Z</time></trkpt><trkpt lat="43.78605313625811" lon="11.271013690403764"><ele>64.0</ele><time>2026-03-22T09:42:47.009Z</time></trkpt><trkpt lat="43.786091115229866" lon="11.270940031943613"><ele>64.0</ele><time>2026-03-22T09:42:48.009Z</time></trkpt><trkpt lat="43.78615533858377" lon="11.270822536625749"><ele>64.0</ele><time>2026-03-22T09:42:50.009Z</time></trkpt><trkpt lat="43.78619820623509" lon="11.270721384630578"><ele>64.0</ele><time>2026-03-22T09:42:52.009Z</time></trkpt><trkpt lat="43.78625797641048" lon="11.270591077101177"><ele>64.0</ele><time>2026-03-22T09:42:54.009Z</time></trkpt><trkpt lat="43.786278820921986" lon="11.270475112427576"><ele>64.0</ele><time>2026-03-22T09:42:55.009Z</time></trkpt><trkpt lat="43.786324816824525" lon="11.270364869651647"><ele>63.800000000000004</ele><time>2026-03-22T09:42:56.009Z</time></trkpt><trkpt lat="43.78637972285285" lon="11.270248503061291"><ele>63.60000000000001</ele><time>2026-03-22T09:42:57.009Z</time></trkpt><trkpt lat="43.78642074877521" lon="11.270140524204674"><ele>63.4</ele><time>2026-03-22T09:42:58.009Z</time></trkpt><trkpt lat="43.786469617164315" lon="11.270031729359104"><ele>63.2</ele><time>2026-03-22T09:42:59.009Z</time></trkpt><trkpt lat="43.786513877391165" lon="11.269897958819769"><ele>63.0</ele><time>2026-03-22T09:43:00.009Z</time></trkpt><trkpt lat="43.786561686164404" lon="11.269776610638933"><ele>62.833333333333336</ele><time>2026-03-22T09:43:01.009Z</time></trkpt><trkpt lat="43.78662046809317" lon="11.269664676029688"><ele>62.66666666666667</ele><time>2026-03-22T09:43:02.009Z</time></trkpt><trkpt lat="43.78667780185332" lon="11.269572173032513"><ele>62.5</ele><time>2026-03-22T09:43:03.009Z</time></trkpt><trkpt lat="43.786736476887214" lon="11.26949580779007"><ele>62.333333333333336</ele><time>2026-03-22T09:43:04.009Z</time></trkpt><trkpt lat="43.78678855001237" lon="11.269430138830513"><ele>62.16666666666667</ele><time>2026-03-22T09:43:05.009Z</time></trkpt><trkpt lat="43.78685694197326" lon="11.269405008448043"><ele>62.0</ele><time>2026-03-22T09:43:06.009Z</time></trkpt><trkpt lat="43.78692052752647" lon="11.26942067779693"><ele>62.0</ele><time>2026-03-22T09:43:07.009Z</time></trkpt><trkpt lat="43.78701625191486" lon="11.269443812239961"><ele>62.0</ele><time>2026-03-22T09:43:09.009Z</time></trkpt><trkpt lat="43.78708858266564" lon="11.269337662178538"><ele>62.0</ele><time>2026-03-22T09:43:11.009Z</time></trkpt><trkpt lat="43.787054527844184" lon="11.269187795709291"><ele>62.0</ele><time>2026-03-22T09:43:13.009Z</time></trkpt><trkpt lat="43.78694005333274" lon="11.269123992735313"><ele>62.0</ele><time>2026-03-22T09:43:15.009Z</time></trkpt><trkpt lat="43.78687329421066" lon="11.269062086525055"><ele>62.0</ele><time>2026-03-22T09:43:16.009Z</time></trkpt><trkpt lat="43.78681417227321" lon="11.26896934729188"><ele>62.0</ele><time>2026-03-22T09:43:17.009Z</time></trkpt><trkpt lat="43.78675296569626" lon="11.268859739557966"><ele>62.0</ele><time>2026-03-22T09:43:18.009Z</time></trkpt><trkpt lat="43.786691757384794" lon="11.268742634873432"><ele>62.0</ele><time>2026-03-22T09:43:19.009Z</time></trkpt><trkpt lat="43.78661835307681" lon="11.268630897872393"><ele>62.0</ele><time>2026-03-22T09:43:20.009Z</time></trkpt><trkpt lat="43.78653508496363" lon="11.268552730063218"><ele>61.6</ele><time>2026-03-22T09:43:21.009Z</time></trkpt><trkpt lat="43.78645127101771" lon="11.26849692664743"><ele>61.2</ele><time>2026-03-22T09:43:22.009Z</time></trkpt><trkpt lat="43.786363705014296" lon="11.268478067705262"><ele>60.8</ele><time>2026-03-22T09:43:23.009Z</time></trkpt><trkpt lat="43.786282939367275" lon="11.26850425390615"><ele>60.4</ele><time>2026-03-22T09:43:24.009Z</time></trkpt><trkpt lat="43.78620107098473" lon="11.26856375927309"><ele>60.0</ele><time>2026-03-22T09:43:25.009Z</time></trkpt><trkpt lat="43.786105459398094" lon="11.268621318734374"><ele>60.0</ele><time>2026-03-22T09:43:26.01Z</time></trkpt><trkpt lat="43.78599282640717" lon="11.268710729605354"><ele>60.0</ele><time>2026-03-22T09:43:27.011Z</time></trkpt><trkpt lat="43.78587446249082" lon="11.268819738853091"><ele>60.0</ele><time>2026-03-22T09:43:28.011Z</time></trkpt><trkpt lat="43.78576655004867" lon="11.268925347842494"><ele>60.0</ele><time>2026-03-22T09:43:29.011Z</time></trkpt><trkpt lat="43.785674129685695" lon="11.26900857511405"><ele>60.0</ele><time>2026-03-22T09:43:30.011Z</time></trkpt><trkpt lat="43.785595629784446" lon="11.269067219341053"><ele>60.0</ele><time>2026-03-22T09:43:31.011Z</time></trkpt><trkpt lat="43.78552452245569" lon="11.269089890587997"><ele>60.0</ele><time>2026-03-22T09:43:32.011Z</time></trkpt><trkpt lat="43.78546328990023" lon="11.269057748413918"><ele>60.0</ele><time>2026-03-22T09:43:33.011Z</time></trkpt><trkpt lat="43.78542725213108" lon="11.268970778846578"><ele>60.0</ele><time>2026-03-22T09:43:34.011Z</time></trkpt><trkpt lat="43.78543245581163" lon="11.268798591105254"><ele>60.0</ele><time>2026-03-22T09:43:36.011Z</time></trkpt><trkpt lat="43.78552350211056" lon="11.268699902536362"><ele>59.5</ele><time>2026-03-22T09:43:37.011Z</time></trkpt><trkpt lat="43.78561454034701" lon="11.268628571953087"><ele>59.0</ele><time>2026-03-22T09:43:38.011Z</time></trkpt><trkpt lat="43.78571982479871" lon="11.268546030718785"><ele>58.5</ele><time>2026-03-22T09:43:39.011Z</time></trkpt><trkpt lat="43.785823652522076" lon="11.268462254552347"><ele>58.0</ele><time>2026-03-22T09:43:40.011Z</time></trkpt><trkpt lat="43.785943307668944" lon="11.26835002208967"><ele>58.0</ele><time>2026-03-22T09:43:41.011Z</time></trkpt><trkpt lat="43.7860594374468" lon="11.268236763592341"><ele>58.0</ele><time>2026-03-22T09:43:42.011Z</time></trkpt><trkpt lat="43.786160686138544" lon="11.26813436393057"><ele>58.0</ele><time>2026-03-22T09:43:43.011Z</time></trkpt><trkpt lat="43.78623549631012" lon="11.268054517858724"><ele>58.0</ele><time>2026-03-22T09:43:44.011Z</time></trkpt><trkpt lat="43.78630686254563" lon="11.267973166649023"><ele>58.0</ele><time>2026-03-22T09:43:45.011Z</time></trkpt><trkpt lat="43.786380513586494" lon="11.267895146593897"><ele>58.0</ele><time>2026-03-22T09:43:46.011Z</time></trkpt><trkpt lat="43.786448429157225" lon="11.267818057897461"><ele>58.0</ele><time>2026-03-22T09:43:47.011Z</time></trkpt><trkpt lat="43.786516527637055" lon="11.267739334572308"><ele>58.0</ele><time>2026-03-22T09:43:48.011Z</time></trkpt><trkpt lat="43.78659840989366" lon="11.267643568034048"><ele>58.0</ele><time>2026-03-22T09:43:49.011Z</time></trkpt><trkpt lat="43.78667830181788" lon="11.267534353942768"><ele>58.0</ele><time>2026-03-22T09:43:50.011Z</time></trkpt><trkpt lat="43.7867568153232" lon="11.267422582676595"><ele>58.0</ele><time>2026-03-22T09:43:51.011Z</time></trkpt><trkpt lat="43.78684342943488" lon="11.267323106755596"><ele>58.0</ele><time>2026-03-22T09:43:52.011Z</time></trkpt><trkpt lat="43.78691580374118" lon="11.267220261595462"><ele>58.0</ele><time>2026-03-22T09:43:53.011Z</time></trkpt><trkpt lat="43.786971412965194" lon="11.267126793311423"><ele>58.0</ele><time>2026-03-22T09:43:54.011Z</time></trkpt><trkpt lat="43.78703482800992" lon="11.267048048527425"><ele>58.42857142857144</ele><time>2026-03-22T09:43:55.011Z</time></trkpt><trkpt lat="43.78708174276528" lon="11.266973824230591"><ele>58.85714285714286</ele><time>2026-03-22T09:43:56.011Z</time></trkpt><trkpt lat="43.78713571303507" lon="11.266897421673553"><ele>59.285714285714285</ele><time>2026-03-22T09:43:58.011Z</time></trkpt><trkpt lat="43.78715408532324" lon="11.2668009940062"><ele>59.714285714285715</ele><time>2026-03-22T09:44:02.011Z</time></trkpt><trkpt lat="43.78713815087311" lon="11.266676802818628"><ele>60.14285714285714</ele><time>2026-03-22T09:44:06.011Z</time></trkpt><trkpt lat="43.787129776510916" lon="11.266580575712853"><ele>60.57142857142856</ele><time>2026-03-22T09:44:08.011Z</time></trkpt><trkpt lat="43.787110028003006" lon="11.266495970435876"><ele>60.99999999999999</ele><time>2026-03-22T09:44:10.011Z</time></trkpt><trkpt lat="43.78709133322133" lon="11.2663963979651"><ele>60.99999999999999</ele><time>2026-03-22T09:44:12.011Z</time></trkpt><trkpt lat="43.78706303065753" lon="11.266292563082516"><ele>61.0</ele><time>2026-03-22T09:44:14.011Z</time></trkpt><trkpt lat="43.78705587268311" lon="11.26620096879887"><ele>61.0</ele><time>2026-03-22T09:44:16.011Z</time></trkpt><trkpt lat="43.787030946813516" lon="11.266092361570376"><ele>61.0</ele><time>2026-03-22T09:44:18.011Z</time></trkpt><trkpt lat="43.7870053077937" lon="11.265981145877507"><ele>60.99999999999999</ele><time>2026-03-22T09:44:20.011Z</time></trkpt><trkpt lat="43.78696800068394" lon="11.26584195454837"><ele>61.0</ele><time>2026-03-22T09:44:22.011Z</time></trkpt><trkpt lat="43.78697411823289" lon="11.265699215825675"><ele>60.83333333333333</ele><time>2026-03-22T09:44:24.011Z</time></trkpt><trkpt lat="43.78693155342986" lon="11.26558662336204"><ele>60.666666666666664</ele><time>2026-03-22T09:44:26.011Z</time></trkpt><trkpt lat="43.78688018311473" lon="11.265497638367483"><ele>60.5</ele><time>2026-03-22T09:44:29.011Z</time></trkpt><trkpt lat="43.78684486395544" lon="11.26538686167256"><ele>60.33333333333333</ele><time>2026-03-22T09:44:33.01Z</time></trkpt><trkpt lat="43.78680548316434" lon="11.265272712086583"><ele>60.166666666666664</ele><time>2026-03-22T09:44:35.01Z</time></trkpt><trkpt lat="43.786766666553454" lon="11.265185915080801"><ele>60.0</ele><time>2026-03-22T09:44:37.01Z</time></trkpt><trkpt lat="43.78673302966374" lon="11.265082643345613"><ele>59.5</ele><time>2026-03-22T09:44:39.01Z</time></trkpt><trkpt lat="43.78670042894047" lon="11.26494217943856"><ele>59.0</ele><time>2026-03-22T09:44:41.01Z</time></trkpt><trkpt lat="43.78667535210927" lon="11.26484568461286"><ele>58.5</ele><time>2026-03-22T09:44:42.01Z</time></trkpt><trkpt lat="43.786645889495055" lon="11.26474632654043"><ele>58.0</ele><time>2026-03-22T09:44:43.01Z</time></trkpt><trkpt lat="43.786611605771505" lon="11.26463589515224"><ele>57.5</ele><time>2026-03-22T09:44:44.01Z</time></trkpt><trkpt lat="43.78656966378058" lon="11.264503130186243"><ele>57.0</ele><time>2026-03-22T09:44:45.01Z</time></trkpt><trkpt lat="43.786531420494825" lon="11.26438748548818"><ele>57.0</ele><time>2026-03-22T09:44:46.01Z</time></trkpt><trkpt lat="43.78649214444526" lon="11.264259755998275"><ele>57.0</ele><time>2026-03-22T09:44:47.01Z</time></trkpt><trkpt lat="43.7864471006732" lon="11.264112418945656"><ele>57.0</ele><time>2026-03-22T09:44:48.01Z</time></trkpt><trkpt lat="43.78640852026512" lon="11.263954560277062"><ele>57.0</ele><time>2026-03-22T09:44:49.01Z</time></trkpt><trkpt lat="43.7863652944352" lon="11.263782043727382"><ele>57.2</ele><time>2026-03-22T09:44:50.01Z</time></trkpt><trkpt lat="43.7863234094194" lon="11.263618711464193"><ele>57.400000000000006</ele><time>2026-03-22T09:44:51.01Z</time></trkpt><trkpt lat="43.786295549554474" lon="11.263477570633116"><ele>57.599999999999994</ele><time>2026-03-22T09:44:52.01Z</time></trkpt><trkpt lat="43.78626088770469" lon="11.263337097343355"><ele>57.8</ele><time>2026-03-22T09:44:53.01Z</time></trkpt><trkpt lat="43.78622680002919" lon="11.263202517396696"><ele>58.0</ele><time>2026-03-22T09:44:54.01Z</time></trkpt><trkpt lat="43.78619190131834" lon="11.263059742378934"><ele>58.2</ele><time>2026-03-22T09:44:55.01Z</time></trkpt><trkpt lat="43.78613884737617" lon="11.262925669344062"><ele>58.4</ele><time>2026-03-22T09:44:56.01Z</time></trkpt><trkpt lat="43.78610272268863" lon="11.262792394179202"><ele>58.60000000000001</ele><time>2026-03-22T09:44:57.01Z</time></trkpt><trkpt lat="43.78606666756523" lon="11.262663226308616"><ele>58.800000000000004</ele><time>2026-03-22T09:44:58.01Z</time></trkpt><trkpt lat="43.78603760007123" lon="11.262525728173202"><ele>59.0</ele><time>2026-03-22T09:44:59.01Z</time></trkpt><trkpt lat="43.78601335445061" lon="11.262385787085046"><ele>59.2</ele><time>2026-03-22T09:45:00.01Z</time></trkpt><trkpt lat="43.78598858271994" lon="11.262264258777217"><ele>59.400000000000006</ele><time>2026-03-22T09:45:01.01Z</time></trkpt><trkpt lat="43.78596090497644" lon="11.262132042270002"><ele>59.6</ele><time>2026-03-22T09:45:02.01Z</time></trkpt><trkpt lat="43.78594263887333" lon="11.261992275287968"><ele>59.8</ele><time>2026-03-22T09:45:03.01Z</time></trkpt><trkpt lat="43.78591078224943" lon="11.261839570959324"><ele>60.0</ele><time>2026-03-22T09:45:04.01Z</time></trkpt><trkpt lat="43.78587885911813" lon="11.261687748641531"><ele>60.0</ele><time>2026-03-22T09:45:05.01Z</time></trkpt><trkpt lat="43.785839615081265" lon="11.261548631957332"><ele>60.0</ele><time>2026-03-22T09:45:06.01Z</time></trkpt><trkpt lat="43.78580162184835" lon="11.261405001414913"><ele>60.0</ele><time>2026-03-22T09:45:07.01Z</time></trkpt><trkpt lat="43.785752489281585" lon="11.261236096052032"><ele>60.0</ele><time>2026-03-22T09:45:08.01Z</time></trkpt><trkpt lat="43.78571305444603" lon="11.261072430443717"><ele>59.5</ele><time>2026-03-22T09:45:09.01Z</time></trkpt><trkpt lat="43.78568449179217" lon="11.260938352397213"><ele>59.0</ele><time>2026-03-22T09:45:10.01Z</time></trkpt><trkpt lat="43.78565126374936" lon="11.260794216058429"><ele>58.5</ele><time>2026-03-22T09:45:11.01Z</time></trkpt><trkpt lat="43.785606917389735" lon="11.260624418786438"><ele>58.0</ele><time>2026-03-22T09:45:12.01Z</time></trkpt><trkpt lat="43.78555382960117" lon="11.260451659618273"><ele>58.0</ele><time>2026-03-22T09:45:13.01Z</time></trkpt><trkpt lat="43.78550895372718" lon="11.26025635915091"><ele>58.0</ele><time>2026-03-22T09:45:14.01Z</time></trkpt><trkpt lat="43.78546471497701" lon="11.260082559804909"><ele>58.0</ele><time>2026-03-22T09:45:15.01Z</time></trkpt><trkpt lat="43.78542344901689" lon="11.259922368891399"><ele>58.0</ele><time>2026-03-22T09:45:16.01Z</time></trkpt><trkpt lat="43.7853824725224" lon="11.25976525488658"><ele>58.0</ele><time>2026-03-22T09:45:17.01Z</time></trkpt><trkpt lat="43.78534012574067" lon="11.259615646762285"><ele>58.0</ele><time>2026-03-22T09:45:18.01Z</time></trkpt><trkpt lat="43.785305000959355" lon="11.259475885245374"><ele>58.0</ele><time>2026-03-22T09:45:19.01Z</time></trkpt><trkpt lat="43.78526958803921" lon="11.259322700009177"><ele>58.0</ele><time>2026-03-22T09:45:20.01Z</time></trkpt><trkpt lat="43.78523698611638" lon="11.25916464201196"><ele>58.0</ele><time>2026-03-22T09:45:21.01Z</time></trkpt><trkpt lat="43.78519476912714" lon="11.258987948677774"><ele>58.0</ele><time>2026-03-22T09:45:22.01Z</time></trkpt><trkpt lat="43.78514672583137" lon="11.258836437982296"><ele>58.0</ele><time>2026-03-22T09:45:23.01Z</time></trkpt><trkpt lat="43.785104585926184" lon="11.258657168899212"><ele>58.0</ele><time>2026-03-22T09:45:24.01Z</time></trkpt><trkpt lat="43.78506287513131" lon="11.25849492336787"><ele>57.8</ele><time>2026-03-22T09:45:25.01Z</time></trkpt><trkpt lat="43.7850204240744" lon="11.258339657880981"><ele>57.599999999999994</ele><time>2026-03-22T09:45:26.01Z</time></trkpt><trkpt lat="43.78499018752762" lon="11.258208193757758"><ele>57.400000000000006</ele><time>2026-03-22T09:45:27.01Z</time></trkpt><trkpt lat="43.78495024294222" lon="11.258078524774334"><ele>57.2</ele><time>2026-03-22T09:45:28.01Z</time></trkpt><trkpt lat="43.78492124142396" lon="11.257965021272366"><ele>57.0</ele><time>2026-03-22T09:45:29.01Z</time></trkpt><trkpt lat="43.78489087061057" lon="11.257855614664587"><ele>57.0</ele><time>2026-03-22T09:45:30.01Z</time></trkpt><trkpt lat="43.78486011656968" lon="11.257754422387547"><ele>57.0</ele><time>2026-03-22T09:45:31.01Z</time></trkpt><trkpt lat="43.78484242435455" lon="11.257656830753696"><ele>57.0</ele><time>2026-03-22T09:45:32.01Z</time></trkpt><trkpt lat="43.78480510198662" lon="11.257470411462581"><ele>57.0</ele><time>2026-03-22T09:45:34.011Z</time></trkpt><trkpt lat="43.78477620674358" lon="11.257368111565752"><ele>57.0</ele><time>2026-03-22T09:45:35.011Z</time></trkpt><trkpt lat="43.78472840471271" lon="11.2572084465821"><ele>57.166666666666664</ele><time>2026-03-22T09:45:37.01Z</time></trkpt><trkpt lat="43.784705250755295" lon="11.25708740340344"><ele>57.33333333333333</ele><time>2026-03-22T09:45:39.011Z</time></trkpt><trkpt lat="43.7846710819755" lon="11.256945673607575"><ele>57.5</ele><time>2026-03-22T09:45:43.01Z</time></trkpt><trkpt lat="43.784669385195926" lon="11.256843786924483"><ele>57.666666666666664</ele><time>2026-03-22T09:45:46.01Z</time></trkpt><trkpt lat="43.78464697961425" lon="11.256756348351242"><ele>57.83333333333333</ele><time>2026-03-22T09:45:48.01Z</time></trkpt><trkpt lat="43.78463091614394" lon="11.25665509876384"><ele>58.0</ele><time>2026-03-22T09:45:51.01Z</time></trkpt><trkpt lat="43.78462469941217" lon="11.25656605856533"><ele>57.99999999999999</ele><time>2026-03-22T09:46:00.01Z</time></trkpt><trkpt lat="43.78463870287453" lon="11.256472429996832"><ele>58.0</ele><time>2026-03-22T09:46:15.01Z</time></trkpt><trkpt lat="43.78458164528836" lon="11.25632328673222"><ele>58.0</ele><time>2026-03-22T09:46:17.01Z</time></trkpt><trkpt lat="43.78455883136683" lon="11.256230261537848"><ele>58.0</ele><time>2026-03-22T09:46:18.01Z</time></trkpt><trkpt lat="43.78454961622683" lon="11.256125621635626"><ele>57.99999999999999</ele><time>2026-03-22T09:46:19.01Z</time></trkpt><trkpt lat="43.784452320503924" lon="11.256051187351396"><ele>58.0</ele><time>2026-03-22T09:46:20.01Z</time></trkpt><trkpt lat="43.784426394452076" lon="11.25594869701906"><ele>58.0</ele><time>2026-03-22T09:46:21.01Z</time></trkpt><trkpt lat="43.78439717790769" lon="11.255833198604426"><ele>58.0</ele><time>2026-03-22T09:46:22.01Z</time></trkpt><trkpt lat="43.784396703403864" lon="11.255701937025435"><ele>58.0</ele><time>2026-03-22T09:46:23.01Z</time></trkpt><trkpt lat="43.78437202444973" lon="11.255579642772219"><ele>58.0</ele><time>2026-03-22T09:46:24.01Z</time></trkpt><trkpt lat="43.78433647333547" lon="11.255442378325275"><ele>58.0</ele><time>2026-03-22T09:46:25.01Z</time></trkpt><trkpt lat="43.78431841830674" lon="11.25532502447881"><ele>58.0</ele><time>2026-03-22T09:46:26.01Z</time></trkpt><trkpt lat="43.7842949116897" lon="11.255219570498157"><ele>58.0</ele><time>2026-03-22T09:46:27.01Z</time></trkpt><trkpt lat="43.78426827406926" lon="11.255106172522291"><ele>58.0</ele><time>2026-03-22T09:46:29.01Z</time></trkpt><trkpt lat="43.78422298041719" lon="11.254931165751072"><ele>58.0</ele><time>2026-03-22T09:46:31.01Z</time></trkpt><trkpt lat="43.784181569638044" lon="11.254784587526416"><ele>58.0</ele><time>2026-03-22T09:46:33.01Z</time></trkpt><trkpt lat="43.784145336122265" lon="11.254647943063338"><ele>57.99999999999999</ele><time>2026-03-22T09:46:35.01Z</time></trkpt><trkpt lat="43.78410803213769" lon="11.254565604198573"><ele>58.0</ele><time>2026-03-22T09:46:36.01Z</time></trkpt><trkpt lat="43.78408680057046" lon="11.254475048277575"><ele>58.0</ele><time>2026-03-22T09:46:37.009Z</time></trkpt><trkpt lat="43.784050591801716" lon="11.254347393838193"><ele>58.0</ele><time>2026-03-22T09:46:38.009Z</time></trkpt><trkpt lat="43.78402881251706" lon="11.254230675481153"><ele>57.99999999999999</ele><time>2026-03-22T09:46:39.009Z</time></trkpt><trkpt lat="43.78400253389163" lon="11.254110163906654"><ele>58.0</ele><time>2026-03-22T09:46:40.009Z</time></trkpt><trkpt lat="43.7839882802853" lon="11.253978547673626"><ele>58.2</ele><time>2026-03-22T09:46:41.009Z</time></trkpt><trkpt lat="43.78395888971158" lon="11.253845281953463"><ele>58.4</ele><time>2026-03-22T09:46:42.009Z</time></trkpt><trkpt lat="43.783922903882925" lon="11.253705739855969"><ele>58.60000000000001</ele><time>2026-03-22T09:46:43.009Z</time></trkpt><trkpt lat="43.78388817557954" lon="11.253565997285795"><ele>58.800000000000004</ele><time>2026-03-22T09:46:44.009Z</time></trkpt><trkpt lat="43.78384773183243" lon="11.253421137985656"><ele>59.0</ele><time>2026-03-22T09:46:45.009Z</time></trkpt><trkpt lat="43.78380989608707" lon="11.25327624079562"><ele>58.75</ele><time>2026-03-22T09:46:46.009Z</time></trkpt><trkpt lat="43.78376553112882" lon="11.253110217236662"><ele>58.5</ele><time>2026-03-22T09:46:47.009Z</time></trkpt><trkpt lat="43.78372936867402" lon="11.25297058888724"><ele>58.25</ele><time>2026-03-22T09:46:48.009Z</time></trkpt><trkpt lat="43.783695271981145" lon="11.25283081649951"><ele>58.0</ele><time>2026-03-22T09:46:49.009Z</time></trkpt><trkpt lat="43.78366846216152" lon="11.252677513530793"><ele>58.0</ele><time>2026-03-22T09:46:50.009Z</time></trkpt><trkpt lat="43.783651421181" lon="11.25251323695529"><ele>58.0</ele><time>2026-03-22T09:46:51.009Z</time></trkpt><trkpt lat="43.7836233934128" lon="11.252348771331821"><ele>58.0</ele><time>2026-03-22T09:46:52.009Z</time></trkpt><trkpt lat="43.78359742218444" lon="11.252183592575713"><ele>58.0</ele><time>2026-03-22T09:46:53.009Z</time></trkpt><trkpt lat="43.78356887116014" lon="11.251994764179434"><ele>56.75</ele><time>2026-03-22T09:46:54.009Z</time></trkpt><trkpt lat="43.783550629804296" lon="11.251807896562479"><ele>55.5</ele><time>2026-03-22T09:46:55.009Z</time></trkpt><trkpt lat="43.78353451727447" lon="11.251629303059715"><ele>54.25</ele><time>2026-03-22T09:46:56.009Z</time></trkpt><trkpt lat="43.78357383330167" lon="11.251392588479346"><ele>53.0</ele><time>2026-03-22T09:46:57.009Z</time></trkpt><trkpt lat="43.78367261102279" lon="11.250934352991852"><ele>53.0</ele><time>2026-03-22T09:46:58.009Z</time></trkpt><trkpt lat="43.78365154858065" lon="11.250639205552407"><ele>53.0</ele><time>2026-03-22T09:46:59.009Z</time></trkpt><trkpt lat="43.7836549882141" lon="11.250407338953602"><ele>53.0</ele><time>2026-03-22T09:47:00.009Z</time></trkpt><trkpt lat="43.78365808135554" lon="11.250198829529369"><ele>53.25</ele><time>2026-03-22T09:47:01.009Z</time></trkpt><trkpt lat="43.783660060912354" lon="11.250004896869976"><ele>53.5</ele><time>2026-03-22T09:47:02.009Z</time></trkpt><trkpt lat="43.783673535992506" lon="11.249826793524262"><ele>53.75</ele><time>2026-03-22T09:47:03.009Z</time></trkpt><trkpt lat="43.783648066831226" lon="11.24964114404977"><ele>54.0</ele><time>2026-03-22T09:47:04.009Z</time></trkpt><trkpt lat="43.783649901341406" lon="11.24946463121027"><ele>54.0</ele><time>2026-03-22T09:47:05.009Z</time></trkpt><trkpt lat="43.783641004227356" lon="11.249277664494999"><ele>54.0</ele><time>2026-03-22T09:47:06.009Z</time></trkpt><trkpt lat="43.78364304182665" lon="11.249072338934734"><ele>54.0</ele><time>2026-03-22T09:47:07.009Z</time></trkpt><trkpt lat="43.783639448121185" lon="11.248869678191948"><ele>54.0</ele><time>2026-03-22T09:47:08.009Z</time></trkpt><trkpt lat="43.78364249007231" lon="11.248660364905595"><ele>53.5</ele><time>2026-03-22T09:47:09.009Z</time></trkpt><trkpt lat="43.78364422399233" lon="11.248451282558372"><ele>53.0</ele><time>2026-03-22T09:47:10.009Z</time></trkpt><trkpt lat="43.783645550173944" lon="11.248240971647688"><ele>52.5</ele><time>2026-03-22T09:47:11.009Z</time></trkpt><trkpt lat="43.783645113817855" lon="11.248039446827033"><ele>52.0</ele><time>2026-03-22T09:47:12.009Z</time></trkpt><trkpt lat="43.78364581181288" lon="11.247832841911718"><ele>52.0</ele><time>2026-03-22T09:47:13.009Z</time></trkpt><trkpt lat="43.78363678522154" lon="11.24763541477697"><ele>52.0</ele><time>2026-03-22T09:47:14.009Z</time></trkpt><trkpt lat="43.78362611099672" lon="11.247412729659443"><ele>52.0</ele><time>2026-03-22T09:47:15.009Z</time></trkpt><trkpt lat="43.78360745585564" lon="11.247193591079096"><ele>53.33333333333333</ele><time>2026-03-22T09:47:16.009Z</time></trkpt><trkpt lat="43.783581420544046" lon="11.246967592658335"><ele>54.66666666666667</ele><time>2026-03-22T09:47:17.009Z</time></trkpt><trkpt lat="43.7835483720875" lon="11.246757020216046"><ele>56.0</ele><time>2026-03-22T09:47:18.009Z</time></trkpt><trkpt lat="43.78352180758979" lon="11.246560581442017"><ele>53.5</ele><time>2026-03-22T09:47:19.009Z</time></trkpt><trkpt lat="43.78349186548662" lon="11.246377663329026"><ele>51.0</ele><time>2026-03-22T09:47:20.009Z</time></trkpt><trkpt lat="43.78345014095897" lon="11.246194987321912"><ele>48.5</ele><time>2026-03-22T09:47:21.009Z</time></trkpt><trkpt lat="43.7834089915389" lon="11.24601759172735"><ele>46.0</ele><time>2026-03-22T09:47:22.009Z</time></trkpt><trkpt lat="43.783353596171516" lon="11.245844049835542"><ele>46.0</ele><time>2026-03-22T09:47:23.009Z</time></trkpt><trkpt lat="43.783313591146765" lon="11.2456686449367"><ele>46.0</ele><time>2026-03-22T09:47:24.009Z</time></trkpt><trkpt lat="43.78325533137093" lon="11.245481954095787"><ele>46.0</ele><time>2026-03-22T09:47:25.009Z</time></trkpt><trkpt lat="43.78319928210577" lon="11.245280643596002"><ele>46.0</ele><time>2026-03-22T09:47:26.009Z</time></trkpt><trkpt lat="43.7831415030372" lon="11.245074219791023"><ele>47.0</ele><time>2026-03-22T09:47:27.009Z</time></trkpt><trkpt lat="43.783083875077686" lon="11.244869517066924"><ele>48.0</ele><time>2026-03-22T09:47:28.009Z</time></trkpt><trkpt lat="43.78302641580204" lon="11.2446605331097"><ele>49.0</ele><time>2026-03-22T09:47:29.009Z</time></trkpt><trkpt lat="43.782982995565725" lon="11.244479095075224"><ele>49.0</ele><time>2026-03-22T09:47:30.009Z</time></trkpt><trkpt lat="43.78293520981717" lon="11.244292072926397"><ele>49.0</ele><time>2026-03-22T09:47:31.009Z</time></trkpt><trkpt lat="43.782856267143295" lon="11.244151360344027"><ele>49.0</ele><time>2026-03-22T09:47:32.009Z</time></trkpt><trkpt lat="43.782791068023634" lon="11.244160340348772"><ele>49.0</ele><time>2026-03-22T09:47:36.009Z</time></trkpt><trkpt lat="43.782696496594184" lon="11.244085592402072"><ele>49.0</ele><time>2026-03-22T09:48:08.01Z</time></trkpt><trkpt lat="43.782627595901985" lon="11.243976493427965"><ele>48.83333333333333</ele><time>2026-03-22T09:48:10.01Z</time></trkpt><trkpt lat="43.78258580559066" lon="11.243906581343657"><ele>48.666666666666664</ele><time>2026-03-22T09:48:11.01Z</time></trkpt><trkpt lat="43.78252714584641" lon="11.243820212922266"><ele>48.5</ele><time>2026-03-22T09:48:12.01Z</time></trkpt><trkpt lat="43.782460147654774" lon="11.24370449459012"><ele>48.33333333333333</ele><time>2026-03-22T09:48:13.01Z</time></trkpt><trkpt lat="43.782392439290156" lon="11.243611508049566"><ele>48.166666666666664</ele><time>2026-03-22T09:48:14.01Z</time></trkpt><trkpt lat="43.78233514470844" lon="11.243520844245097"><ele>48.0</ele><time>2026-03-22T09:48:15.01Z</time></trkpt><trkpt lat="43.782277884524106" lon="11.243426230233412"><ele>48.0</ele><time>2026-03-22T09:48:16.01Z</time></trkpt><trkpt lat="43.78220808181393" lon="11.243333764748776"><ele>48.0</ele><time>2026-03-22T09:48:17.01Z</time></trkpt><trkpt lat="43.7821376754848" lon="11.243256936196346"><ele>48.0</ele><time>2026-03-22T09:48:18.01Z</time></trkpt><trkpt lat="43.782061722170006" lon="11.243180684569774"><ele>48.0</ele><time>2026-03-22T09:48:19.01Z</time></trkpt><trkpt lat="43.78199075967987" lon="11.243121242954258"><ele>48.0</ele><time>2026-03-22T09:48:20.01Z</time></trkpt><trkpt lat="43.7819270678155" lon="11.243059852716174"><ele>48.0</ele><time>2026-03-22T09:48:21.01Z</time></trkpt><trkpt lat="43.78186032256807" lon="11.242986369972932"><ele>47.599999999999994</ele><time>2026-03-22T09:48:23.01Z</time></trkpt><trkpt lat="43.781798059367006" lon="11.242961599425653"><ele>47.199999999999996</ele><time>2026-03-22T09:48:28.01Z</time></trkpt><trkpt lat="43.781685019611906" lon="11.242845327433121"><ele>46.8</ele><time>2026-03-22T09:48:30.01Z</time></trkpt><trkpt lat="43.78161138937186" lon="11.242769380589039"><ele>46.4</ele><time>2026-03-22T09:48:31.01Z</time></trkpt><trkpt lat="43.78152687282669" lon="11.242679125004894"><ele>46.0</ele><time>2026-03-22T09:48:32.01Z</time></trkpt><trkpt lat="43.781462930182286" lon="11.242573835253811"><ele>46.0</ele><time>2026-03-22T09:48:33.01Z</time></trkpt><trkpt lat="43.781373553348885" lon="11.242458021296587"><ele>46.0</ele><time>2026-03-22T09:48:34.01Z</time></trkpt><trkpt lat="43.78127686033296" lon="11.242363847531301"><ele>46.0</ele><time>2026-03-22T09:48:35.01Z</time></trkpt><trkpt lat="43.78115552860297" lon="11.242253034186282"><ele>46.0</ele><time>2026-03-22T09:48:36.01Z</time></trkpt><trkpt lat="43.78103512395087" lon="11.242147506102897"><ele>46.0</ele><time>2026-03-22T09:48:37.01Z</time></trkpt><trkpt lat="43.780908339472845" lon="11.242066718604493"><ele>46.0</ele><time>2026-03-22T09:48:38.01Z</time></trkpt><trkpt lat="43.78077669015167" lon="11.241964929908628"><ele>46.0</ele><time>2026-03-22T09:48:39.009Z</time></trkpt><trkpt lat="43.78062899992723" lon="11.241881213155208"><ele>46.0</ele><time>2026-03-22T09:48:40.009Z</time></trkpt><trkpt lat="43.78048291152635" lon="11.241791496195745"><ele>46.0</ele><time>2026-03-22T09:48:41.009Z</time></trkpt><trkpt lat="43.78034092251909" lon="11.241709349893858"><ele>46.0</ele><time>2026-03-22T09:48:42.009Z</time></trkpt><trkpt lat="43.78020446069363" lon="11.241627084951821"><ele>46.25</ele><time>2026-03-22T09:48:43.009Z</time></trkpt><trkpt lat="43.780068019281465" lon="11.241541487495263"><ele>46.5</ele><time>2026-03-22T09:48:44.009Z</time></trkpt><trkpt lat="43.779952571314695" lon="11.241464696935692"><ele>46.75</ele><time>2026-03-22T09:48:45.009Z</time></trkpt><trkpt lat="43.77984014930132" lon="11.241402397849388"><ele>47.0</ele><time>2026-03-22T09:48:46.009Z</time></trkpt><trkpt lat="43.77973659087184" lon="11.241345317697595"><ele>47.0</ele><time>2026-03-22T09:48:47.009Z</time></trkpt><trkpt lat="43.779658607066324" lon="11.241305459753908"><ele>47.0</ele><time>2026-03-22T09:48:48.009Z</time></trkpt><trkpt lat="43.779579557186054" lon="11.24125916009104"><ele>47.0</ele><time>2026-03-22T09:48:49.009Z</time></trkpt><trkpt lat="43.77949998174267" lon="11.241210790859252"><ele>47.0</ele><time>2026-03-22T09:48:50.009Z</time></trkpt><trkpt lat="43.77943171994207" lon="11.241172819215404"><ele>47.0</ele><time>2026-03-22T09:48:51.009Z</time></trkpt><trkpt lat="43.779371496288476" lon="11.24113665436122"><ele>47.0</ele><time>2026-03-22T09:48:52.009Z</time></trkpt><trkpt lat="43.77928104922222" lon="11.241077654703727"><ele>47.0</ele><time>2026-03-22T09:48:54.009Z</time></trkpt><trkpt lat="43.77923031099058" lon="11.241024185209543"><ele>47.0</ele><time>2026-03-22T09:48:58.009Z</time></trkpt><trkpt lat="43.77913734019395" lon="11.240943411173367"><ele>47.0</ele><time>2026-03-22T09:49:02.009Z</time></trkpt><trkpt lat="43.77902791859914" lon="11.24084955976084"><ele>47.0</ele><time>2026-03-22T09:49:04.009Z</time></trkpt><trkpt lat="43.77894426272882" lon="11.240806175769166"><ele>47.0</ele><time>2026-03-22T09:49:05.009Z</time></trkpt><trkpt lat="43.77887041378697" lon="11.240753157669749"><ele>47.0</ele><time>2026-03-22T09:49:06.009Z</time></trkpt><trkpt lat="43.778791154913776" lon="11.24070898062025"><ele>47.0</ele><time>2026-03-22T09:49:07.009Z</time></trkpt><trkpt lat="43.77871789486978" lon="11.24065093578645"><ele>47.0</ele><time>2026-03-22T09:49:08.009Z</time></trkpt><trkpt lat="43.77864091389462" lon="11.240611093479806"><ele>47.0</ele><time>2026-03-22T09:49:09.009Z</time></trkpt><trkpt lat="43.77856285373457" lon="11.240543821153576"><ele>47.0</ele><time>2026-03-22T09:49:10.009Z</time></trkpt><trkpt lat="43.778492421090526" lon="11.240488534704932"><ele>47.0</ele><time>2026-03-22T09:49:11.009Z</time></trkpt><trkpt lat="43.778401022991424" lon="11.240399417428465"><ele>47.2</ele><time>2026-03-22T09:49:13.009Z</time></trkpt><trkpt lat="43.778335648788925" lon="11.24032157241512"><ele>47.400000000000006</ele><time>2026-03-22T09:49:15.009Z</time></trkpt><trkpt lat="43.77828384098254" lon="11.240249784399326"><ele>47.599999999999994</ele><time>2026-03-22T09:49:27.009Z</time></trkpt><trkpt lat="43.7781985695273" lon="11.240105667265734"><ele>47.8</ele><time>2026-03-22T09:49:29.009Z</time></trkpt><trkpt lat="43.77815263585805" lon="11.240000626843337"><ele>48.0</ele><time>2026-03-22T09:49:30.009Z</time></trkpt><trkpt lat="43.77810745728412" lon="11.239876483400897"><ele>48.0</ele><time>2026-03-22T09:49:31.009Z</time></trkpt><trkpt lat="43.77805951352024" lon="11.239748155322767"><ele>48.0</ele><time>2026-03-22T09:49:32.009Z</time></trkpt><trkpt lat="43.77801164001763" lon="11.239646589246158"><ele>48.0</ele><time>2026-03-22T09:49:33.009Z</time></trkpt><trkpt lat="43.77796714484554" lon="11.23955142550257"><ele>48.0</ele><time>2026-03-22T09:49:34.009Z</time></trkpt><trkpt lat="43.77792558251401" lon="11.239433823191433"><ele>48.0</ele><time>2026-03-22T09:49:35.009Z</time></trkpt><trkpt lat="43.77787532548617" lon="11.239314880411035"><ele>48.0</ele><time>2026-03-22T09:49:36.009Z</time></trkpt><trkpt lat="43.77782326637086" lon="11.239179424541033"><ele>48.0</ele><time>2026-03-22T09:49:37.009Z</time></trkpt><trkpt lat="43.77779259745099" lon="11.239044585269093"><ele>48.0</ele><time>2026-03-22T09:49:38.009Z</time></trkpt><trkpt lat="43.7777548355275" lon="11.238924152891235"><ele>48.0</ele><time>2026-03-22T09:49:39.009Z</time></trkpt><trkpt lat="43.77771692057023" lon="11.23879889083039"><ele>48.0</ele><time>2026-03-22T09:49:40.009Z</time></trkpt><trkpt lat="43.77768470263165" lon="11.238686600222495"><ele>47.599999999999994</ele><time>2026-03-22T09:49:41.009Z</time></trkpt><trkpt lat="43.77763969948588" lon="11.238556161297478"><ele>47.199999999999996</ele><time>2026-03-22T09:49:42.009Z</time></trkpt><trkpt lat="43.77759854932737" lon="11.238448478425706"><ele>46.8</ele><time>2026-03-22T09:49:43.01Z</time></trkpt><trkpt lat="43.777555462984665" lon="11.238346738426138"><ele>46.4</ele><time>2026-03-22T09:49:44.01Z</time></trkpt><trkpt lat="43.77749871090235" lon="11.238232225848028"><ele>46.0</ele><time>2026-03-22T09:49:45.01Z</time></trkpt><trkpt lat="43.77744479038657" lon="11.238117155462312"><ele>46.0</ele><time>2026-03-22T09:49:46.01Z</time></trkpt><trkpt lat="43.77738471052308" lon="11.237983073711106"><ele>46.0</ele><time>2026-03-22T09:49:47.011Z</time></trkpt><trkpt lat="43.77732353914342" lon="11.23785535601542"><ele>46.0</ele><time>2026-03-22T09:49:48.011Z</time></trkpt><trkpt lat="43.77726574463948" lon="11.237718382854053"><ele>46.0</ele><time>2026-03-22T09:49:49.011Z</time></trkpt><trkpt lat="43.777199986682305" lon="11.237573834165842"><ele>46.0</ele><time>2026-03-22T09:49:50.011Z</time></trkpt><trkpt lat="43.77713976316592" lon="11.237434801253025"><ele>46.0</ele><time>2026-03-22T09:49:51.011Z</time></trkpt><trkpt lat="43.7770820560778" lon="11.237312654831257"><ele>46.0</ele><time>2026-03-22T09:49:52.011Z</time></trkpt><trkpt lat="43.777024028918" lon="11.237202238969946"><ele>46.0</ele><time>2026-03-22T09:49:53.011Z</time></trkpt><trkpt lat="43.77696401407173" lon="11.237097885755603"><ele>46.0</ele><time>2026-03-22T09:49:54.011Z</time></trkpt><trkpt lat="43.77689232673488" lon="11.23698819367661"><ele>46.0</ele><time>2026-03-22T09:49:55.011Z</time></trkpt><trkpt lat="43.77680427395621" lon="11.236885817233656"><ele>46.0</ele><time>2026-03-22T09:49:56.011Z</time></trkpt><trkpt lat="43.77669774126752" lon="11.236785778737385"><ele>46.0</ele><time>2026-03-22T09:49:57.011Z</time></trkpt><trkpt lat="43.776579158509094" lon="11.236687522231517"><ele>46.0</ele><time>2026-03-22T09:49:58.011Z</time></trkpt><trkpt lat="43.77643485283234" lon="11.236577689525628"><ele>46.0</ele><time>2026-03-22T09:49:59.011Z</time></trkpt><trkpt lat="43.776281177825815" lon="11.236460318688373"><ele>46.0</ele><time>2026-03-22T09:50:00.011Z</time></trkpt><trkpt lat="43.77613063341113" lon="11.236336665393223"><ele>46.0</ele><time>2026-03-22T09:50:01.011Z</time></trkpt><trkpt lat="43.77601871355601" lon="11.23620376257969"><ele>46.0</ele><time>2026-03-22T09:50:02.011Z</time></trkpt><trkpt lat="43.77591311147275" lon="11.236082255071121"><ele>46.0</ele><time>2026-03-22T09:50:03.011Z</time></trkpt><trkpt lat="43.775810462489304" lon="11.235964269168225"><ele>46.0</ele><time>2026-03-22T09:50:04.011Z</time></trkpt><trkpt lat="43.77573229464502" lon="11.235828196635245"><ele>46.0</ele><time>2026-03-22T09:50:05.011Z</time></trkpt><trkpt lat="43.77572354174996" lon="11.235591134391187"><ele>45.66666666666667</ele><time>2026-03-22T09:50:06.011Z</time></trkpt><trkpt lat="43.77569527622209" lon="11.235355675321731"><ele>45.333333333333336</ele><time>2026-03-22T09:50:07.011Z</time></trkpt><trkpt lat="43.77564334943513" lon="11.235163304430712"><ele>45.0</ele><time>2026-03-22T09:50:08.011Z</time></trkpt><trkpt lat="43.77558483817527" lon="11.235001847144643"><ele>45.0</ele><time>2026-03-22T09:50:09.011Z</time></trkpt><trkpt lat="43.77553309978782" lon="11.234876430307057"><ele>45.0</ele><time>2026-03-22T09:50:10.011Z</time></trkpt><trkpt lat="43.7754687810894" lon="11.234795060666249"><ele>45.0</ele><time>2026-03-22T09:50:11.011Z</time></trkpt><trkpt lat="43.775393545186134" lon="11.234731923939993"><ele>45.0</ele><time>2026-03-22T09:50:12.011Z</time></trkpt><trkpt lat="43.77530397514439" lon="11.234690398957719"><ele>45.0</ele><time>2026-03-22T09:50:13.011Z</time></trkpt><trkpt lat="43.77520387666848" lon="11.234651490102523"><ele>44.0</ele><time>2026-03-22T09:50:14.011Z</time></trkpt><trkpt lat="43.77511532595032" lon="11.234610445158022"><ele>43.0</ele><time>2026-03-22T09:50:15.011Z</time></trkpt><trkpt lat="43.775041082869585" lon="11.234568663819779"><ele>42.0</ele><time>2026-03-22T09:50:16.011Z</time></trkpt><trkpt lat="43.774973595010955" lon="11.2345319483792"><ele>41.0</ele><time>2026-03-22T09:50:17.011Z</time></trkpt><trkpt lat="43.77490915708236" lon="11.234504235677361"><ele>40.0</ele><time>2026-03-22T09:50:18.011Z</time></trkpt><trkpt lat="43.774839422619145" lon="11.23446659851624"><ele>39.0</ele><time>2026-03-22T09:50:19.011Z</time></trkpt><trkpt lat="43.774762533633066" lon="11.234426005925727"><ele>39.0</ele><time>2026-03-22T09:50:20.011Z</time></trkpt><trkpt lat="43.774684740259815" lon="11.234387150375765"><ele>39.0</ele><time>2026-03-22T09:50:21.011Z</time></trkpt><trkpt lat="43.774620211641995" lon="11.234354036705424"><ele>39.0</ele><time>2026-03-22T09:50:22.011Z</time></trkpt><trkpt lat="43.77455929191594" lon="11.234325371238691"><ele>39.0</ele><time>2026-03-22T09:50:23.011Z</time></trkpt><trkpt lat="43.7744452658123" lon="11.234263886375398"><ele>39.0</ele><time>2026-03-22T09:50:25.011Z</time></trkpt><trkpt lat="43.77438923472458" lon="11.234222788460363"><ele>39.0</ele><time>2026-03-22T09:50:26.011Z</time></trkpt><trkpt lat="43.77434307189195" lon="11.234161974981676"><ele>39.8</ele><time>2026-03-22T09:50:27.011Z</time></trkpt><trkpt lat="43.77426231615179" lon="11.234048103555663"><ele>40.599999999999994</ele><time>2026-03-22T09:50:29.011Z</time></trkpt><trkpt lat="43.77420695241949" lon="11.233974421310252"><ele>41.4</ele><time>2026-03-22T09:50:31.011Z</time></trkpt><trkpt lat="43.77416114715147" lon="11.233863516999799"><ele>42.199999999999996</ele><time>2026-03-22T09:50:34.011Z</time></trkpt><trkpt lat="43.77407719278295" lon="11.233733960097508"><ele>43.0</ele><time>2026-03-22T09:50:36.011Z</time></trkpt><trkpt lat="43.773992786264884" lon="11.233622052885863"><ele>43.2</ele><time>2026-03-22T09:50:38.011Z</time></trkpt><trkpt lat="43.77395472362953" lon="11.233533315150083"><ele>43.4</ele><time>2026-03-22T09:50:39.011Z</time></trkpt><trkpt lat="43.77392787008552" lon="11.233420212516792"><ele>43.6</ele><time>2026-03-22T09:50:40.011Z</time></trkpt><trkpt lat="43.77392003661058" lon="11.233279018177416"><ele>43.800000000000004</ele><time>2026-03-22T09:50:41.01Z</time></trkpt><trkpt lat="43.77394260049765" lon="11.233113455836476"><ele>44.0</ele><time>2026-03-22T09:50:42.01Z</time></trkpt><trkpt lat="43.77400220255164" lon="11.23300157370563"><ele>44.166666666666664</ele><time>2026-03-22T09:50:43.01Z</time></trkpt><trkpt lat="43.7740406198414" lon="11.232891289111336"><ele>44.33333333333333</ele><time>2026-03-22T09:50:45.01Z</time></trkpt><trkpt lat="43.77406942555745" lon="11.232808178966096"><ele>44.5</ele><time>2026-03-22T09:50:47.01Z</time></trkpt><trkpt lat="43.77413241900581" lon="11.232702331810183"><ele>44.666666666666664</ele><time>2026-03-22T09:50:49.01Z</time></trkpt><trkpt lat="43.77416569899117" lon="11.2325356047356"><ele>44.833333333333336</ele><time>2026-03-22T09:50:51.01Z</time></trkpt><trkpt lat="43.77419735138477" lon="11.232448693834723"><ele>45.0</ele><time>2026-03-22T09:50:52.01Z</time></trkpt><trkpt lat="43.77422364369767" lon="11.232334285304953"><ele>45.0</ele><time>2026-03-22T09:50:53.01Z</time></trkpt><trkpt lat="43.77425333139843" lon="11.23222446794583"><ele>45.0</ele><time>2026-03-22T09:50:54.01Z</time></trkpt><trkpt lat="43.77428610217741" lon="11.232108134191547"><ele>45.0</ele><time>2026-03-22T09:50:55.01Z</time></trkpt><trkpt lat="43.774311469115325" lon="11.231997328697704"><ele>45.0</ele><time>2026-03-22T09:50:56.01Z</time></trkpt><trkpt lat="43.774330163003846" lon="11.231865622449277"><ele>45.0</ele><time>2026-03-22T09:50:57.01Z</time></trkpt><trkpt lat="43.77435519622781" lon="11.2317401599433"><ele>45.0</ele><time>2026-03-22T09:50:58.01Z</time></trkpt><trkpt lat="43.77437384252899" lon="11.231609979000824"><ele>45.0</ele><time>2026-03-22T09:50:59.01Z</time></trkpt><trkpt lat="43.77441058231848" lon="11.23148698349329"><ele>45.0</ele><time>2026-03-22T09:51:00.01Z</time></trkpt><trkpt lat="43.774445550138864" lon="11.23135762613446"><ele>45.0</ele><time>2026-03-22T09:51:01.01Z</time></trkpt><trkpt lat="43.77447376625368" lon="11.231219789915926"><ele>45.0</ele><time>2026-03-22T09:51:02.01Z</time></trkpt><trkpt lat="43.77450585912547" lon="11.231121646378268"><ele>45.0</ele><time>2026-03-22T09:51:03.01Z</time></trkpt><trkpt lat="43.774523769502814" lon="11.23100020479271"><ele>45.0</ele><time>2026-03-22T09:51:04.01Z</time></trkpt><trkpt lat="43.774553020441346" lon="11.230908917960528"><ele>45.0</ele><time>2026-03-22T09:51:05.01Z</time></trkpt><trkpt lat="43.77457329432172" lon="11.230796661963156"><ele>45.0</ele><time>2026-03-22T09:51:06.01Z</time></trkpt><trkpt lat="43.774601091668906" lon="11.230686548179186"><ele>45.0</ele><time>2026-03-22T09:51:07.01Z</time></trkpt><trkpt lat="43.77463176056239" lon="11.230550539249073"><ele>45.0</ele><time>2026-03-22T09:51:08.01Z</time></trkpt><trkpt lat="43.774660008572965" lon="11.230415273980736"><ele>45.2</ele><time>2026-03-22T09:51:09.01Z</time></trkpt><trkpt lat="43.774693904555996" lon="11.230271378944837"><ele>45.4</ele><time>2026-03-22T09:51:10.01Z</time></trkpt><trkpt lat="43.77471462752619" lon="11.230130392883323"><ele>45.599999999999994</ele><time>2026-03-22T09:51:11.01Z</time></trkpt><trkpt lat="43.7747309010555" lon="11.230005371113416"><ele>45.8</ele><time>2026-03-22T09:51:12.01Z</time></trkpt><trkpt lat="43.77476109644565" lon="11.229895570019872"><ele>46.0</ele><time>2026-03-22T09:51:13.01Z</time></trkpt><trkpt lat="43.774797819226485" lon="11.229789956785751"><ele>45.599999999999994</ele><time>2026-03-22T09:51:14.01Z</time></trkpt><trkpt lat="43.774836037908706" lon="11.229675129995293"><ele>45.2</ele><time>2026-03-22T09:51:15.01Z</time></trkpt><trkpt lat="43.77486055583054" lon="11.229578096310252"><ele>44.8</ele><time>2026-03-22T09:51:16.01Z</time></trkpt><trkpt lat="43.77489764811626" lon="11.22941871207209"><ele>44.400000000000006</ele><time>2026-03-22T09:51:18.01Z</time></trkpt><trkpt lat="43.77492460973064" lon="11.229305314922058"><ele>44.0</ele><time>2026-03-22T09:51:20.01Z</time></trkpt><trkpt lat="43.774961643073745" lon="11.229207617352335"><ele>44.0</ele><time>2026-03-22T09:51:23.01Z</time></trkpt><trkpt lat="43.77495541402975" lon="11.229088932701858"><ele>44.0</ele><time>2026-03-22T09:51:25.01Z</time></trkpt><trkpt lat="43.7749672734991" lon="11.228988556695512"><ele>44.0</ele><time>2026-03-22T09:51:26.01Z</time></trkpt><trkpt lat="43.7749802067526" lon="11.228865895397455"><ele>44.0</ele><time>2026-03-22T09:51:27.01Z</time></trkpt><trkpt lat="43.774978577700985" lon="11.228734349102167"><ele>44.0</ele><time>2026-03-22T09:51:28.01Z</time></trkpt><trkpt lat="43.77496507851717" lon="11.228620530249449"><ele>44.0</ele><time>2026-03-22T09:51:29.01Z</time></trkpt><trkpt lat="43.77495006941031" lon="11.22850361413561"><ele>44.0</ele><time>2026-03-22T09:51:30.01Z</time></trkpt><trkpt lat="43.774939803891684" lon="11.228381326835175"><ele>44.0</ele><time>2026-03-22T09:51:31.01Z</time></trkpt><trkpt lat="43.774919922397025" lon="11.228218753513051"><ele>44.0</ele><time>2026-03-22T09:51:32.01Z</time></trkpt><trkpt lat="43.774895243692455" lon="11.228016074100818"><ele>44.0</ele><time>2026-03-22T09:51:33.01Z</time></trkpt><trkpt lat="43.774873302475044" lon="11.227817398915956"><ele>44.0</ele><time>2026-03-22T09:51:34.01Z</time></trkpt><trkpt lat="43.774856043492996" lon="11.227639214496193"><ele>44.0</ele><time>2026-03-22T09:51:35.01Z</time></trkpt><trkpt lat="43.774847183049935" lon="11.227448932297566"><ele>44.0</ele><time>2026-03-22T09:51:36.01Z</time></trkpt><trkpt lat="43.7748227777333" lon="11.227242492252113"><ele>44.0</ele><time>2026-03-22T09:51:37.01Z</time></trkpt><trkpt lat="43.77479660172963" lon="11.227028691482262"><ele>43.666666666666664</ele><time>2026-03-22T09:51:38.01Z</time></trkpt><trkpt lat="43.77477365470062" lon="11.226800437640366"><ele>43.333333333333336</ele><time>2026-03-22T09:51:39.01Z</time></trkpt><trkpt lat="43.77474918047567" lon="11.226560146440468"><ele>43.0</ele><time>2026-03-22T09:51:40.01Z</time></trkpt><trkpt lat="43.77472306436246" lon="11.226334373914288"><ele>43.0</ele><time>2026-03-22T09:51:41.01Z</time></trkpt><trkpt lat="43.774693462686294" lon="11.226123669730658"><ele>43.0</ele><time>2026-03-22T09:51:42.01Z</time></trkpt><trkpt lat="43.774664326931024" lon="11.22591651859903"><ele>43.0</ele><time>2026-03-22T09:51:43.01Z</time></trkpt><trkpt lat="43.77464253926598" lon="11.225736508190755"><ele>43.0</ele><time>2026-03-22T09:51:44.01Z</time></trkpt><trkpt lat="43.77461205985129" lon="11.225548861461947"><ele>43.0</ele><time>2026-03-22T09:51:45.01Z</time></trkpt><trkpt lat="43.774597355214496" lon="11.225399476045924"><ele>43.0</ele><time>2026-03-22T09:51:46.01Z</time></trkpt><trkpt lat="43.774573487655275" lon="11.225245532842614"><ele>43.0</ele><time>2026-03-22T09:51:47.01Z</time></trkpt><trkpt lat="43.77455822842965" lon="11.22510883996139"><ele>43.0</ele><time>2026-03-22T09:51:48.01Z</time></trkpt><trkpt lat="43.774549219061385" lon="11.224989012387613"><ele>43.0</ele><time>2026-03-22T09:51:49.011Z</time></trkpt><trkpt lat="43.77453346166958" lon="11.224871260694636"><ele>43.0</ele><time>2026-03-22T09:51:50.01Z</time></trkpt><trkpt lat="43.77451420874281" lon="11.224761917696489"><ele>43.0</ele><time>2026-03-22T09:51:51.01Z</time></trkpt><trkpt lat="43.77450365338779" lon="11.224658788204051"><ele>43.0</ele><time>2026-03-22T09:51:52.011Z</time></trkpt><trkpt lat="43.774496343666996" lon="11.224564869462018"><ele>43.0</ele><time>2026-03-22T09:51:53.01Z</time></trkpt><trkpt lat="43.77449210223366" lon="11.224422824703154"><ele>43.0</ele><time>2026-03-22T09:51:55.011Z</time></trkpt><trkpt lat="43.774479082987305" lon="11.224323798747896"><ele>43.0</ele><time>2026-03-22T09:51:57.011Z</time></trkpt><trkpt lat="43.77441824785597" lon="11.22424779632542"><ele>43.0</ele><time>2026-03-22T09:51:59.01Z</time></trkpt><trkpt lat="43.77430725608787" lon="11.224204024105832"><ele>43.0</ele><time>2026-03-22T09:52:01.011Z</time></trkpt><trkpt lat="43.77424414209605" lon="11.224175320614675"><ele>43.0</ele><time>2026-03-22T09:52:02.01Z</time></trkpt><trkpt lat="43.77411932237352" lon="11.224154869536385"><ele>43.0</ele><time>2026-03-22T09:52:04.01Z</time></trkpt><trkpt lat="43.77405489875021" lon="11.224144414839426"><ele>43.0</ele><time>2026-03-22T09:52:05.01Z</time></trkpt><trkpt lat="43.77398918744981" lon="11.224139730092299"><ele>43.0</ele><time>2026-03-22T09:52:06.01Z</time></trkpt><trkpt lat="43.773863652805225" lon="11.224140698715322"><ele>43.0</ele><time>2026-03-22T09:52:08.01Z</time></trkpt><trkpt lat="43.77378687958266" lon="11.224121754507825"><ele>43.0</ele><time>2026-03-22T09:52:09.01Z</time></trkpt><trkpt lat="43.77370609980602" lon="11.224131952627198"><ele>43.0</ele><time>2026-03-22T09:52:10.01Z</time></trkpt><trkpt lat="43.77362545899381" lon="11.224107961370843"><ele>43.0</ele><time>2026-03-22T09:52:11.01Z</time></trkpt><trkpt lat="43.773546877014454" lon="11.224099886172855"><ele>43.0</ele><time>2026-03-22T09:52:12.01Z</time></trkpt><trkpt lat="43.77347802125019" lon="11.224090501816855"><ele>43.0</ele><time>2026-03-22T09:52:13.01Z</time></trkpt><trkpt lat="43.773415557301675" lon="11.224076048166038"><ele>43.8</ele><time>2026-03-22T09:52:14.01Z</time></trkpt><trkpt lat="43.77330332333378" lon="11.224073420064135"><ele>44.599999999999994</ele><time>2026-03-22T09:52:16.01Z</time></trkpt><trkpt lat="43.773203472459905" lon="11.224067470445302"><ele>45.400000000000006</ele><time>2026-03-22T09:52:18.01Z</time></trkpt><trkpt lat="43.77309193831942" lon="11.224081828923515"><ele>46.2</ele><time>2026-03-22T09:52:20.01Z</time></trkpt><trkpt lat="43.77299447887807" lon="11.224037534308838"><ele>47.0</ele><time>2026-03-22T09:52:22.01Z</time></trkpt><trkpt lat="43.77289134994056" lon="11.224029551946648"><ele>47.0</ele><time>2026-03-22T09:52:24.01Z</time></trkpt><trkpt lat="43.77281723317513" lon="11.224021390663621"><ele>47.0</ele><time>2026-03-22T09:52:25.01Z</time></trkpt><trkpt lat="43.77270685496422" lon="11.223913184813076"><ele>47.0</ele><time>2026-03-22T09:52:27.01Z</time></trkpt><trkpt lat="43.772672298300186" lon="11.223829193357535"><ele>47.0</ele><time>2026-03-22T09:52:28.01Z</time></trkpt><trkpt lat="43.7726327733723" lon="11.223715166584777"><ele>47.0</ele><time>2026-03-22T09:52:29.01Z</time></trkpt><trkpt lat="43.77260832844052" lon="11.223598956413722"><ele>46.5</ele><time>2026-03-22T09:52:30.009Z</time></trkpt><trkpt lat="43.77259107099992" lon="11.223479388805575"><ele>46.0</ele><time>2026-03-22T09:52:31.009Z</time></trkpt><trkpt lat="43.77256032466562" lon="11.223373626327067"><ele>45.5</ele><time>2026-03-22T09:52:32.009Z</time></trkpt><trkpt lat="43.77252587777186" lon="11.223279769574223"><ele>45.0</ele><time>2026-03-22T09:52:33.009Z</time></trkpt><trkpt lat="43.77251119816673" lon="11.22319307035667"><ele>44.5</ele><time>2026-03-22T09:52:34.009Z</time></trkpt><trkpt lat="43.7725054638558" lon="11.223100092668883"><ele>44.0</ele><time>2026-03-22T09:52:35.009Z</time></trkpt><trkpt lat="43.7724872875909" lon="11.222935720931197"><ele>44.0</ele><time>2026-03-22T09:52:37.008Z</time></trkpt><trkpt lat="43.77247362713841" lon="11.222816081042476"><ele>44.0</ele><time>2026-03-22T09:52:38.008Z</time></trkpt><trkpt lat="43.77243964898205" lon="11.22268774497307"><ele>44.0</ele><time>2026-03-22T09:52:39.008Z</time></trkpt><trkpt lat="43.77240985799489" lon="11.222551082118494"><ele>44.0</ele><time>2026-03-22T09:52:40.008Z</time></trkpt><trkpt lat="43.77238983224812" lon="11.222389545622269"><ele>44.0</ele><time>2026-03-22T09:52:41.008Z</time></trkpt><trkpt lat="43.77235024988389" lon="11.22222913101005"><ele>44.0</ele><time>2026-03-22T09:52:42.008Z</time></trkpt><trkpt lat="43.77233029325145" lon="11.222074057438713"><ele>44.0</ele><time>2026-03-22T09:52:43.008Z</time></trkpt><trkpt lat="43.77231017590832" lon="11.22193310067695"><ele>44.0</ele><time>2026-03-22T09:52:44.008Z</time></trkpt><trkpt lat="43.77229105247071" lon="11.221807728496449"><ele>44.0</ele><time>2026-03-22T09:52:45.007Z</time></trkpt><trkpt lat="43.77225980956013" lon="11.221694714781254"><ele>44.0</ele><time>2026-03-22T09:52:46.007Z</time></trkpt><trkpt lat="43.772226417661244" lon="11.221569543622204"><ele>43.800000000000004</ele><time>2026-03-22T09:52:47.007Z</time></trkpt><trkpt lat="43.77219654177142" lon="11.221428527218189"><ele>43.6</ele><time>2026-03-22T09:52:48.007Z</time></trkpt><trkpt lat="43.77216858410512" lon="11.221276282780886"><ele>43.4</ele><time>2026-03-22T09:52:49.007Z</time></trkpt><trkpt lat="43.77213167235851" lon="11.221132602114809"><ele>43.2</ele><time>2026-03-22T09:52:50.007Z</time></trkpt><trkpt lat="43.7721073406163" lon="11.220979856721367"><ele>43.0</ele><time>2026-03-22T09:52:51.007Z</time></trkpt><trkpt lat="43.77207803107633" lon="11.220896791940715"><ele>43.0</ele><time>2026-03-22T09:52:52.007Z</time></trkpt><trkpt lat="43.77200268921121" lon="11.220859799185888"><ele>43.0</ele><time>2026-03-22T09:52:53.007Z</time></trkpt><trkpt lat="43.7719216933678" lon="11.220860459370574"><ele>43.0</ele><time>2026-03-22T09:52:54.007Z</time></trkpt><trkpt lat="43.77184080717965" lon="11.220880353166516"><ele>43.0</ele><time>2026-03-22T09:52:55.007Z</time></trkpt><trkpt lat="43.771766472491926" lon="11.220912175609625"><ele>43.0</ele><time>2026-03-22T09:52:56.007Z</time></trkpt><trkpt lat="43.7716750760033" lon="11.220940958925109"><ele>43.0</ele><time>2026-03-22T09:52:57.007Z</time></trkpt><trkpt lat="43.77152920660606" lon="11.220961458847022"><ele>43.25</ele><time>2026-03-22T09:52:58.007Z</time></trkpt><trkpt lat="43.771379840354115" lon="11.221014615190374"><ele>43.5</ele><time>2026-03-22T09:52:59.007Z</time></trkpt><trkpt lat="43.77126237632914" lon="11.221036174786267"><ele>43.75</ele><time>2026-03-22T09:53:00.007Z</time></trkpt><trkpt lat="43.77115614906609" lon="11.221076165725695"><ele>44.0</ele><time>2026-03-22T09:53:01.007Z</time></trkpt><trkpt lat="43.77105380577825" lon="11.22109869858333"><ele>44.0</ele><time>2026-03-22T09:53:02.006Z</time></trkpt><trkpt lat="43.77098836666792" lon="11.221140628342837"><ele>44.0</ele><time>2026-03-22T09:53:03.006Z</time></trkpt><trkpt lat="43.77086616484047" lon="11.221190927939663"><ele>44.0</ele><time>2026-03-22T09:53:05.006Z</time></trkpt><trkpt lat="43.770803785440826" lon="11.221239539268884"><ele>44.0</ele><time>2026-03-22T09:53:06.006Z</time></trkpt><trkpt lat="43.77072311797268" lon="11.221291464513461"><ele>44.0</ele><time>2026-03-22T09:53:07.006Z</time></trkpt><trkpt lat="43.77064321419535" lon="11.221341327311853"><ele>44.0</ele><time>2026-03-22T09:53:08.006Z</time></trkpt><trkpt lat="43.7705713612022" lon="11.221366188809075"><ele>44.0</ele><time>2026-03-22T09:53:09.006Z</time></trkpt><trkpt lat="43.77051197885824" lon="11.221403760704268"><ele>44.0</ele><time>2026-03-22T09:53:10.006Z</time></trkpt><trkpt lat="43.770400680870516" lon="11.221478793397438"><ele>44.0</ele><time>2026-03-22T09:53:12.006Z</time></trkpt><trkpt lat="43.77032728646796" lon="11.221522753264013"><ele>44.0</ele><time>2026-03-22T09:53:13.006Z</time></trkpt><trkpt lat="43.770231413504575" lon="11.221515723014502"><ele>44.0</ele><time>2026-03-22T09:53:14.006Z</time></trkpt><trkpt lat="43.77014692664538" lon="11.221507562746197"><ele>44.400000000000006</ele><time>2026-03-22T09:53:15.006Z</time></trkpt><trkpt lat="43.77004909731746" lon="11.221458724768786"><ele>44.8</ele><time>2026-03-22T09:53:16.006Z</time></trkpt><trkpt lat="43.76996065696154" lon="11.22141853897417"><ele>45.2</ele><time>2026-03-22T09:53:17.006Z</time></trkpt><trkpt lat="43.769895968281915" lon="11.221319505147164"><ele>45.599999999999994</ele><time>2026-03-22T09:53:18.006Z</time></trkpt><trkpt lat="43.76979803366606" lon="11.221211814204308"><ele>46.0</ele><time>2026-03-22T09:53:19.006Z</time></trkpt><trkpt lat="43.769697359640624" lon="11.221112880617664"><ele>46.0</ele><time>2026-03-22T09:53:20.006Z</time></trkpt><trkpt lat="43.769621051420614" lon="11.221029375144433"><ele>46.0</ele><time>2026-03-22T09:53:21.006Z</time></trkpt><trkpt lat="43.76955065350876" lon="11.220923332785437"><ele>46.0</ele><time>2026-03-22T09:53:22.006Z</time></trkpt><trkpt lat="43.76945389243257" lon="11.220834745620598"><ele>46.0</ele><time>2026-03-22T09:53:23.006Z</time></trkpt><trkpt lat="43.76934408414239" lon="11.220732361813477"><ele>46.75</ele><time>2026-03-22T09:53:24.006Z</time></trkpt><trkpt lat="43.76924521292564" lon="11.220644399469498"><ele>47.5</ele><time>2026-03-22T09:53:25.006Z</time></trkpt><trkpt lat="43.769142194042274" lon="11.220538781159263"><ele>48.25</ele><time>2026-03-22T09:53:26.006Z</time></trkpt><trkpt lat="43.7690415411723" lon="11.220430688539592"><ele>49.0</ele><time>2026-03-22T09:53:27.006Z</time></trkpt><trkpt lat="43.7689571769663" lon="11.220350047839375"><ele>49.0</ele><time>2026-03-22T09:53:28.006Z</time></trkpt><trkpt lat="43.76887874582779" lon="11.220278210829358"><ele>49.0</ele><time>2026-03-22T09:53:29.006Z</time></trkpt><trkpt lat="43.7688026470576" lon="11.22018236806135"><ele>49.0</ele><time>2026-03-22T09:53:30.006Z</time></trkpt><trkpt lat="43.76874443398133" lon="11.220127357242315"><ele>49.0</ele><time>2026-03-22T09:53:31.006Z</time></trkpt><trkpt lat="43.768666674156044" lon="11.220050496527357"><ele>49.0</ele><time>2026-03-22T09:53:32.006Z</time></trkpt><trkpt lat="43.76859755442886" lon="11.219966038979967"><ele>48.6</ele><time>2026-03-22T09:53:33.006Z</time></trkpt><trkpt lat="43.7685108648405" lon="11.219890815405455"><ele>48.2</ele><time>2026-03-22T09:53:34.006Z</time></trkpt><trkpt lat="43.768459410609914" lon="11.219815033856408"><ele>47.800000000000004</ele><time>2026-03-22T09:53:35.006Z</time></trkpt><trkpt lat="43.76838868107232" lon="11.219740621528853"><ele>47.400000000000006</ele><time>2026-03-22T09:53:36.006Z</time></trkpt><trkpt lat="43.76829549078012" lon="11.219638744647984"><ele>47.0</ele><time>2026-03-22T09:53:38.006Z</time></trkpt><trkpt lat="43.76830325504682" lon="11.21936618514867"><ele>47.0</ele><time>2026-03-22T09:53:40.006Z</time></trkpt><trkpt lat="43.768317733776875" lon="11.21926264439578"><ele>47.0</ele><time>2026-03-22T09:53:41.006Z</time></trkpt><trkpt lat="43.76834895511747" lon="11.21913631031568"><ele>47.0</ele><time>2026-03-22T09:53:42.006Z</time></trkpt><trkpt lat="43.76837027906621" lon="11.2190068766016"><ele>47.0</ele><time>2026-03-22T09:53:43.006Z</time></trkpt><trkpt lat="43.76840108718309" lon="11.21887058377412"><ele>47.0</ele><time>2026-03-22T09:53:44.006Z</time></trkpt><trkpt lat="43.768433850891824" lon="11.218720013384798"><ele>47.0</ele><time>2026-03-22T09:53:45.006Z</time></trkpt><trkpt lat="43.76846647636342" lon="11.21854781909254"><ele>47.0</ele><time>2026-03-22T09:53:46.006Z</time></trkpt><trkpt lat="43.7685027561733" lon="11.218389140944765"><ele>47.0</ele><time>2026-03-22T09:53:47.006Z</time></trkpt><trkpt lat="43.76854130650406" lon="11.218234042151112"><ele>47.0</ele><time>2026-03-22T09:53:48.006Z</time></trkpt><trkpt lat="43.768565881446534" lon="11.218092546298392"><ele>46.8</ele><time>2026-03-22T09:53:49.006Z</time></trkpt><trkpt lat="43.76858799131372" lon="11.217954809540263"><ele>46.6</ele><time>2026-03-22T09:53:50.006Z</time></trkpt><trkpt lat="43.768617011650164" lon="11.217819706158426"><ele>46.4</ele><time>2026-03-22T09:53:51.006Z</time></trkpt><trkpt lat="43.768643128012826" lon="11.21769628836789"><ele>46.199999999999996</ele><time>2026-03-22T09:53:52.006Z</time></trkpt><trkpt lat="43.76865930354821" lon="11.217574103789717"><ele>46.0</ele><time>2026-03-22T09:53:53.005Z</time></trkpt><trkpt lat="43.76866414983845" lon="11.217474044411288"><ele>46.0</ele><time>2026-03-22T09:53:54.005Z</time></trkpt><trkpt lat="43.76864105796128" lon="11.217371346004546"><ele>46.0</ele><time>2026-03-22T09:53:55.008Z</time></trkpt><trkpt lat="43.76861246970619" lon="11.217285665192145"><ele>46.0</ele><time>2026-03-22T09:53:56.007Z</time></trkpt><trkpt lat="43.768530649647936" lon="11.217223903888941"><ele>46.0</ele><time>2026-03-22T09:53:57.007Z</time></trkpt><trkpt lat="43.76846977057793" lon="11.217150211950411"><ele>46.0</ele><time>2026-03-22T09:53:58.007Z</time></trkpt><trkpt lat="43.76839519928114" lon="11.21706648088208"><ele>46.0</ele><time>2026-03-22T09:53:59.008Z</time></trkpt><trkpt lat="43.76830967811876" lon="11.216978494961614"><ele>45.5</ele><time>2026-03-22T09:54:00.008Z</time></trkpt><trkpt lat="43.768213962538134" lon="11.216879160283776"><ele>45.0</ele><time>2026-03-22T09:54:01.008Z</time></trkpt><trkpt lat="43.768131992369916" lon="11.216755883519426"><ele>44.5</ele><time>2026-03-22T09:54:02.008Z</time></trkpt><trkpt lat="43.76803305175886" lon="11.216636297330767"><ele>44.0</ele><time>2026-03-22T09:54:03.008Z</time></trkpt><trkpt lat="43.767926386388964" lon="11.21652801806641"><ele>44.0</ele><time>2026-03-22T09:54:04.008Z</time></trkpt><trkpt lat="43.76781925632657" lon="11.216432812388238"><ele>44.0</ele><time>2026-03-22T09:54:05.008Z</time></trkpt><trkpt lat="43.7677113740683" lon="11.216334915134915"><ele>44.0</ele><time>2026-03-22T09:54:06.008Z</time></trkpt><trkpt lat="43.767602627228065" lon="11.216228462380624"><ele>44.0</ele><time>2026-03-22T09:54:07.008Z</time></trkpt><trkpt lat="43.767513440527445" lon="11.216148117653"><ele>44.0</ele><time>2026-03-22T09:54:08.008Z</time></trkpt><trkpt lat="43.76743655681474" lon="11.216082004210584"><ele>44.0</ele><time>2026-03-22T09:54:09.008Z</time></trkpt><trkpt lat="43.76735600797708" lon="11.215997431061677"><ele>44.0</ele><time>2026-03-22T09:54:10.008Z</time></trkpt><trkpt lat="43.76729374537691" lon="11.215911183923096"><ele>44.0</ele><time>2026-03-22T09:54:11.008Z</time></trkpt><trkpt lat="43.7672329817247" lon="11.215843868508369"><ele>44.0</ele><time>2026-03-22T09:54:12.008Z</time></trkpt><trkpt lat="43.76716677533299" lon="11.21577519755074"><ele>44.0</ele><time>2026-03-22T09:54:13.008Z</time></trkpt><trkpt lat="43.767092634599145" lon="11.215702326614307"><ele>44.2</ele><time>2026-03-22T09:54:14.008Z</time></trkpt><trkpt lat="43.76702529010029" lon="11.215617354283001"><ele>44.400000000000006</ele><time>2026-03-22T09:54:15.008Z</time></trkpt><trkpt lat="43.76696541881587" lon="11.215521443990047"><ele>44.6</ele><time>2026-03-22T09:54:16.008Z</time></trkpt><trkpt lat="43.76690919575374" lon="11.215414995078746"><ele>44.8</ele><time>2026-03-22T09:54:17.008Z</time></trkpt><trkpt lat="43.766859183649565" lon="11.215305546941858"><ele>45.0</ele><time>2026-03-22T09:54:18.008Z</time></trkpt><trkpt lat="43.76681024297385" lon="11.21518420838606"><ele>45.2</ele><time>2026-03-22T09:54:19.008Z</time></trkpt><trkpt lat="43.76675948368844" lon="11.215056023653624"><ele>45.4</ele><time>2026-03-22T09:54:20.008Z</time></trkpt><trkpt lat="43.76671007799128" lon="11.214926582322914"><ele>45.599999999999994</ele><time>2026-03-22T09:54:21.008Z</time></trkpt><trkpt lat="43.76667071551285" lon="11.214809551470111"><ele>45.8</ele><time>2026-03-22T09:54:22.008Z</time></trkpt><trkpt lat="43.76664388411588" lon="11.214699954492078"><ele>46.0</ele><time>2026-03-22T09:54:23.008Z</time></trkpt><trkpt lat="43.766617641912966" lon="11.214593511153307"><ele>45.66666666666667</ele><time>2026-03-22T09:54:24.008Z</time></trkpt><trkpt lat="43.766589197623944" lon="11.214495298467298"><ele>45.333333333333336</ele><time>2026-03-22T09:54:25.008Z</time></trkpt><trkpt lat="43.76656255849971" lon="11.214395788271595"><ele>45.0</ele><time>2026-03-22T09:54:26.008Z</time></trkpt><trkpt lat="43.76653496216544" lon="11.21429725482253"><ele>44.666666666666664</ele><time>2026-03-22T09:54:27.008Z</time></trkpt><trkpt lat="43.76650795754962" lon="11.214176018646985"><ele>44.33333333333333</ele><time>2026-03-22T09:54:28.008Z</time></trkpt><trkpt lat="43.76649293729403" lon="11.214038928439027"><ele>44.0</ele><time>2026-03-22T09:54:29.008Z</time></trkpt><trkpt lat="43.766471219129954" lon="11.213894809089446"><ele>44.0</ele><time>2026-03-22T09:54:30.008Z</time></trkpt><trkpt lat="43.7664507995677" lon="11.21375869845004"><ele>44.0</ele><time>2026-03-22T09:54:31.008Z</time></trkpt><trkpt lat="43.76642102819217" lon="11.213602135284447"><ele>44.0</ele><time>2026-03-22T09:54:32.008Z</time></trkpt><trkpt lat="43.76638000774876" lon="11.213421849608885"><ele>44.0</ele><time>2026-03-22T09:54:33.008Z</time></trkpt><trkpt lat="43.76632163446813" lon="11.213251904726107"><ele>44.0</ele><time>2026-03-22T09:54:34.008Z</time></trkpt><trkpt lat="43.76625871511113" lon="11.213081530198533"><ele>44.0</ele><time>2026-03-22T09:54:35.008Z</time></trkpt><trkpt lat="43.76620497915401" lon="11.212934456343566"><ele>44.0</ele><time>2026-03-22T09:54:36.008Z</time></trkpt><trkpt lat="43.76615318464432" lon="11.21281961679662"><ele>44.0</ele><time>2026-03-22T09:54:37.008Z</time></trkpt><trkpt lat="43.76610215431508" lon="11.212707901793928"><ele>44.0</ele><time>2026-03-22T09:54:38.008Z</time></trkpt><trkpt lat="43.766056019445564" lon="11.21258559618872"><ele>44.0</ele><time>2026-03-22T09:54:39.008Z</time></trkpt><trkpt lat="43.765995524073716" lon="11.212450996130977"><ele>44.0</ele><time>2026-03-22T09:54:40.008Z</time></trkpt><trkpt lat="43.7659466973509" lon="11.21230559269924"><ele>44.0</ele><time>2026-03-22T09:54:41.008Z</time></trkpt><trkpt lat="43.76591700782349" lon="11.212130875847345"><ele>44.0</ele><time>2026-03-22T09:54:42.007Z</time></trkpt><trkpt lat="43.76588169134316" lon="11.211964379914837"><ele>44.0</ele><time>2026-03-22T09:54:43.007Z</time></trkpt><trkpt lat="43.76583941811722" lon="11.2118029798946"><ele>44.0</ele><time>2026-03-22T09:54:44.007Z</time></trkpt><trkpt lat="43.765795943859814" lon="11.211647446480647"><ele>44.0</ele><time>2026-03-22T09:54:45.007Z</time></trkpt><trkpt lat="43.76572988275294" lon="11.211487644861288"><ele>43.6</ele><time>2026-03-22T09:54:46.007Z</time></trkpt><trkpt lat="43.76566589319105" lon="11.21135611419945"><ele>43.2</ele><time>2026-03-22T09:54:47.007Z</time></trkpt><trkpt lat="43.76559818288412" lon="11.211240476852314"><ele>42.800000000000004</ele><time>2026-03-22T09:54:48.007Z</time></trkpt><trkpt lat="43.76553709171698" lon="11.211148910949877"><ele>42.400000000000006</ele><time>2026-03-22T09:54:49.007Z</time></trkpt><trkpt lat="43.76546713097575" lon="11.21104336628578"><ele>42.0</ele><time>2026-03-22T09:54:50.007Z</time></trkpt><trkpt lat="43.765400892648294" lon="11.210960668148402"><ele>42.0</ele><time>2026-03-22T09:54:51.007Z</time></trkpt><trkpt lat="43.76533328413594" lon="11.210877590209735"><ele>42.0</ele><time>2026-03-22T09:54:52.007Z</time></trkpt><trkpt lat="43.76526814879207" lon="11.21079620005303"><ele>42.0</ele><time>2026-03-22T09:54:53.007Z</time></trkpt><trkpt lat="43.76520520596205" lon="11.210713567832125"><ele>42.0</ele><time>2026-03-22T09:54:54.007Z</time></trkpt><trkpt lat="43.7651450036419" lon="11.210630836753436"><ele>42.0</ele><time>2026-03-22T09:54:55.007Z</time></trkpt><trkpt lat="43.765083169462144" lon="11.21054358515696"><ele>42.0</ele><time>2026-03-22T09:54:56.007Z</time></trkpt><trkpt lat="43.7650162418277" lon="11.210465814376844"><ele>42.2</ele><time>2026-03-22T09:54:57.007Z</time></trkpt><trkpt lat="43.764947450912" lon="11.210383905294487"><ele>42.400000000000006</ele><time>2026-03-22T09:54:58.007Z</time></trkpt><trkpt lat="43.76489487518992" lon="11.210316725948026"><ele>42.599999999999994</ele><time>2026-03-22T09:54:59.007Z</time></trkpt><trkpt lat="43.76480681786027" lon="11.210190895008711"><ele>42.8</ele><time>2026-03-22T09:55:01.007Z</time></trkpt><trkpt lat="43.764747629208394" lon="11.210108003144338"><ele>43.0</ele><time>2026-03-22T09:55:02.007Z</time></trkpt><trkpt lat="43.764673240580855" lon="11.210023085077179"><ele>43.0</ele><time>2026-03-22T09:55:03.007Z</time></trkpt><trkpt lat="43.764610712230976" lon="11.209925688172358"><ele>43.0</ele><time>2026-03-22T09:55:04.007Z</time></trkpt><trkpt lat="43.76453824064367" lon="11.209829526836014"><ele>43.0</ele><time>2026-03-22T09:55:05.007Z</time></trkpt><trkpt lat="43.76446964330758" lon="11.209702741895956"><ele>43.0</ele><time>2026-03-22T09:55:06.007Z</time></trkpt><trkpt lat="43.76439342142348" lon="11.209574558668887"><ele>43.0</ele><time>2026-03-22T09:55:07.007Z</time></trkpt><trkpt lat="43.76433575298289" lon="11.209419670185618"><ele>42.75</ele><time>2026-03-22T09:55:08.007Z</time></trkpt><trkpt lat="43.764259675511916" lon="11.209249515531003"><ele>42.5</ele><time>2026-03-22T09:55:09.007Z</time></trkpt><trkpt lat="43.76418641382701" lon="11.209116030418741"><ele>42.25</ele><time>2026-03-22T09:55:10.007Z</time></trkpt><trkpt lat="43.76408323364714" lon="11.208971694096808"><ele>42.0</ele><time>2026-03-22T09:55:11.007Z</time></trkpt><trkpt lat="43.76399454162078" lon="11.208845295463577"><ele>41.6</ele><time>2026-03-22T09:55:12.007Z</time></trkpt><trkpt lat="43.76391786237474" lon="11.208740830166128"><ele>41.2</ele><time>2026-03-22T09:55:13.007Z</time></trkpt><trkpt lat="43.76384436884211" lon="11.208637612382732"><ele>40.8</ele><time>2026-03-22T09:55:14.007Z</time></trkpt><trkpt lat="43.76377883289565" lon="11.208543547425483"><ele>40.4</ele><time>2026-03-22T09:55:15.007Z</time></trkpt><trkpt lat="43.763715320886526" lon="11.208463253976975"><ele>40.0</ele><time>2026-03-22T09:55:16.007Z</time></trkpt><trkpt lat="43.76365459925023" lon="11.208391831639267"><ele>40.0</ele><time>2026-03-22T09:55:17.007Z</time></trkpt><trkpt lat="43.76359733752064" lon="11.208315688351885"><ele>40.0</ele><time>2026-03-22T09:55:18.007Z</time></trkpt><trkpt lat="43.763534613994416" lon="11.208233234189542"><ele>40.0</ele><time>2026-03-22T09:55:19.007Z</time></trkpt><trkpt lat="43.76345610053556" lon="11.208142519816974"><ele>40.0</ele><time>2026-03-22T09:55:20.007Z</time></trkpt><trkpt lat="43.763375291722234" lon="11.208052345284774"><ele>40.0</ele><time>2026-03-22T09:55:21.007Z</time></trkpt><trkpt lat="43.76328640914596" lon="11.207953447653427"><ele>40.75</ele><time>2026-03-22T09:55:22.007Z</time></trkpt><trkpt lat="43.76318378644508" lon="11.207852433866904"><ele>41.5</ele><time>2026-03-22T09:55:23.007Z</time></trkpt><trkpt lat="43.763073889979864" lon="11.20774502707508"><ele>42.25</ele><time>2026-03-22T09:55:24.007Z</time></trkpt><trkpt lat="43.76295289276698" lon="11.20764416435668"><ele>43.0</ele><time>2026-03-22T09:55:25.007Z</time></trkpt><trkpt lat="43.76283268856145" lon="11.207539929994526"><ele>43.0</ele><time>2026-03-22T09:55:26.007Z</time></trkpt><trkpt lat="43.76272479023376" lon="11.20745216366531"><ele>43.0</ele><time>2026-03-22T09:55:27.007Z</time></trkpt><trkpt lat="43.762635361192324" lon="11.20738273388168"><ele>43.0</ele><time>2026-03-22T09:55:28.007Z</time></trkpt><trkpt lat="43.762568139579" lon="11.207318857370591"><ele>43.0</ele><time>2026-03-22T09:55:29.007Z</time></trkpt><trkpt lat="43.76250625826947" lon="11.207263359510735"><ele>43.0</ele><time>2026-03-22T09:55:30.007Z</time></trkpt><trkpt lat="43.76244813930574" lon="11.207221242921511"><ele>43.0</ele><time>2026-03-22T09:55:31.007Z</time></trkpt><trkpt lat="43.76234710195612" lon="11.207141887676638"><ele>42.8</ele><time>2026-03-22T09:55:33.007Z</time></trkpt><trkpt lat="43.76224696724783" lon="11.207053467785089"><ele>42.599999999999994</ele><time>2026-03-22T09:55:35.007Z</time></trkpt><trkpt lat="43.762184518589564" lon="11.207015404667537"><ele>42.400000000000006</ele><time>2026-03-22T09:55:36.007Z</time></trkpt><trkpt lat="43.762113532108465" lon="11.206967893255134"><ele>42.2</ele><time>2026-03-22T09:55:37.007Z</time></trkpt><trkpt lat="43.762028119874095" lon="11.206916788537345"><ele>42.0</ele><time>2026-03-22T09:55:38.007Z</time></trkpt><trkpt lat="43.76193317363373" lon="11.206859564553001"><ele>42.0</ele><time>2026-03-22T09:55:39.007Z</time></trkpt><trkpt lat="43.76181627792426" lon="11.206788632293284"><ele>42.0</ele><time>2026-03-22T09:55:40.007Z</time></trkpt><trkpt lat="43.76170050385265" lon="11.206717967611262"><ele>42.0</ele><time>2026-03-22T09:55:41.007Z</time></trkpt><trkpt lat="43.761593763488804" lon="11.206638278229265"><ele>42.0</ele><time>2026-03-22T09:55:42.007Z</time></trkpt><trkpt lat="43.76149018665345" lon="11.206566521833775"><ele>42.0</ele><time>2026-03-22T09:55:43.007Z</time></trkpt><trkpt lat="43.76138612704041" lon="11.20650216013796"><ele>42.0</ele><time>2026-03-22T09:55:44.007Z</time></trkpt><trkpt lat="43.76128644769643" lon="11.206412003650492"><ele>42.0</ele><time>2026-03-22T09:55:45.007Z</time></trkpt><trkpt lat="43.761200221557296" lon="11.206335379398993"><ele>42.0</ele><time>2026-03-22T09:55:46.007Z</time></trkpt><trkpt lat="43.76113208679185" lon="11.20624351083948"><ele>42.0</ele><time>2026-03-22T09:55:47.007Z</time></trkpt><trkpt lat="43.76107688014673" lon="11.206143549444661"><ele>42.0</ele><time>2026-03-22T09:55:48.007Z</time></trkpt><trkpt lat="43.761000373960314" lon="11.206027973356214"><ele>42.0</ele><time>2026-03-22T09:55:49.007Z</time></trkpt><trkpt lat="43.76090890656255" lon="11.205914874275994"><ele>42.0</ele><time>2026-03-22T09:55:50.007Z</time></trkpt><trkpt lat="43.76080992640774" lon="11.205773958955414"><ele>42.0</ele><time>2026-03-22T09:55:51.007Z</time></trkpt><trkpt lat="43.76070251075805" lon="11.205629802345877"><ele>42.0</ele><time>2026-03-22T09:55:52.007Z</time></trkpt><trkpt lat="43.76059848927046" lon="11.205492500033255"><ele>42.0</ele><time>2026-03-22T09:55:53.007Z</time></trkpt><trkpt lat="43.76050008739491" lon="11.20537066694852"><ele>42.0</ele><time>2026-03-22T09:55:54.007Z</time></trkpt><trkpt lat="43.76040692981471" lon="11.20526290793057"><ele>42.0</ele><time>2026-03-22T09:55:55.007Z</time></trkpt><trkpt lat="43.76032196049593" lon="11.205171244632394"><ele>42.0</ele><time>2026-03-22T09:55:56.007Z</time></trkpt><trkpt lat="43.76025137571003" lon="11.20507792103647"><ele>42.0</ele><time>2026-03-22T09:55:57.007Z</time></trkpt><trkpt lat="43.760196837756695" lon="11.205001796032278"><ele>42.0</ele><time>2026-03-22T09:55:58.007Z</time></trkpt><trkpt lat="43.76014053083838" lon="11.204908322221703"><ele>42.0</ele><time>2026-03-22T09:56:00.007Z</time></trkpt><trkpt lat="43.76012935586367" lon="11.20501509323541"><ele>42.0</ele><time>2026-03-22T09:56:07.008Z</time></trkpt><trkpt lat="43.760249412934286" lon="11.205123885727897"><ele>42.0</ele><time>2026-03-22T09:56:09.008Z</time></trkpt><trkpt lat="43.76027228225372" lon="11.205398593466633"><ele>42.0</ele><time>2026-03-22T09:56:10.008Z</time></trkpt><trkpt lat="43.76037940170971" lon="11.20528750236535"><ele>42.0</ele><time>2026-03-22T09:56:11.008Z</time></trkpt><trkpt lat="43.760440145068245" lon="11.205393663553965"><ele>42.0</ele><time>2026-03-22T09:56:12.008Z</time></trkpt><trkpt lat="43.76051587572015" lon="11.205488051637936"><ele>42.0</ele><time>2026-03-22T09:56:14.008Z</time></trkpt><trkpt lat="43.76057492062754" lon="11.20542627440095"><ele>42.0</ele><time>2026-03-22T09:56:15.008Z</time></trkpt><trkpt lat="43.7606111258586" lon="11.205320755184959"><ele>42.0</ele><time>2026-03-22T09:56:17.008Z</time></trkpt><trkpt lat="43.76058302598513" lon="11.205217840819524"><ele>42.0</ele><time>2026-03-22T09:56:19.008Z</time></trkpt><trkpt lat="43.76055310337502" lon="11.205112241661382"><ele>42.0</ele><time>2026-03-22T09:56:21.008Z</time></trkpt><trkpt lat="43.7604981216911" lon="11.20502687047896"><ele>42.0</ele><time>2026-03-22T10:00:16.01Z</time></trkpt><trkpt lat="43.76039471116819" lon="11.205062113091643"><ele>42.0</ele><time>2026-03-22T10:00:18.01Z</time></trkpt><trkpt lat="43.76033453308097" lon="11.205088253400275"><ele>42.0</ele><time>2026-03-22T10:00:20.009Z</time></trkpt><trkpt lat="43.76012293491963" lon="11.204897313527235"><ele>42.0</ele><time>2026-03-22T10:00:28.01Z</time></trkpt><trkpt lat="43.76004243822575" lon="11.204791517193174"><ele>42.0</ele><time>2026-03-22T10:00:29.01Z</time></trkpt><trkpt lat="43.75995875124747" lon="11.204696109109738"><ele>42.400000000000006</ele><time>2026-03-22T10:00:30.01Z</time></trkpt><trkpt lat="43.75989301302842" lon="11.204565377319684"><ele>42.800000000000004</ele><time>2026-03-22T10:00:31.01Z</time></trkpt><trkpt lat="43.75982879580192" lon="11.204444405650142"><ele>43.2</ele><time>2026-03-22T10:00:32.01Z</time></trkpt><trkpt lat="43.759767993352646" lon="11.20433958997561"><ele>43.6</ele><time>2026-03-22T10:00:33.01Z</time></trkpt><trkpt lat="43.75971178701145" lon="11.204253586333703"><ele>44.0</ele><time>2026-03-22T10:00:34.01Z</time></trkpt><trkpt lat="43.75966036685632" lon="11.204167052747744"><ele>44.0</ele><time>2026-03-22T10:00:35.01Z</time></trkpt><trkpt lat="43.75960258164505" lon="11.204077100820856"><ele>44.0</ele><time>2026-03-22T10:00:36.01Z</time></trkpt><trkpt lat="43.75954353780143" lon="11.203979851862016"><ele>44.0</ele><time>2026-03-22T10:00:37.01Z</time></trkpt><trkpt lat="43.75949736357227" lon="11.203881113920467"><ele>44.0</ele><time>2026-03-22T10:00:38.01Z</time></trkpt><trkpt lat="43.75944876792032" lon="11.203804778433451"><ele>44.0</ele><time>2026-03-22T10:00:39.01Z</time></trkpt><trkpt lat="43.759419497950375" lon="11.203726254278997"><ele>44.0</ele><time>2026-03-22T10:00:40.01Z</time></trkpt><trkpt lat="43.759381226070786" lon="11.203656206147766"><ele>44.6</ele><time>2026-03-22T10:00:41.01Z</time></trkpt><trkpt lat="43.75931946209142" lon="11.20353598254798"><ele>45.2</ele><time>2026-03-22T10:00:43.01Z</time></trkpt><trkpt lat="43.75924238187709" lon="11.2034129852863"><ele>45.800000000000004</ele><time>2026-03-22T10:00:45.01Z</time></trkpt><trkpt lat="43.75919519062412" lon="11.20327783114015"><ele>46.400000000000006</ele><time>2026-03-22T10:00:47.01Z</time></trkpt><trkpt lat="43.759182156683764" lon="11.20318361235979"><ele>47.0</ele><time>2026-03-22T10:00:48.01Z</time></trkpt><trkpt lat="43.75917087175898" lon="11.20309277757922"><ele>47.0</ele><time>2026-03-22T10:00:49.009Z</time></trkpt><trkpt lat="43.75913489042303" lon="11.20293017449322"><ele>47.0</ele><time>2026-03-22T10:00:51.009Z</time></trkpt><trkpt lat="43.759103622597436" lon="11.202844232851874"><ele>47.0</ele><time>2026-03-22T10:00:52.009Z</time></trkpt><trkpt lat="43.75907862374292" lon="11.20274658302844"><ele>47.0</ele><time>2026-03-22T10:00:53.009Z</time></trkpt><trkpt lat="43.75903882281988" lon="11.202651155790278"><ele>47.0</ele><time>2026-03-22T10:00:54.009Z</time></trkpt><trkpt lat="43.758999977066594" lon="11.202545972805252"><ele>47.0</ele><time>2026-03-22T10:00:55.009Z</time></trkpt><trkpt lat="43.758971516397494" lon="11.202440012374955"><ele>47.0</ele><time>2026-03-22T10:00:56.009Z</time></trkpt><trkpt lat="43.758948739709425" lon="11.202335754327674"><ele>47.0</ele><time>2026-03-22T10:00:57.009Z</time></trkpt><trkpt lat="43.75890407351071" lon="11.202213525137353"><ele>47.0</ele><time>2026-03-22T10:00:58.009Z</time></trkpt><trkpt lat="43.75886460989853" lon="11.202086222949108"><ele>47.0</ele><time>2026-03-22T10:00:59.009Z</time></trkpt><trkpt lat="43.75882013617308" lon="11.201932226805333"><ele>47.0</ele><time>2026-03-22T10:01:00.009Z</time></trkpt><trkpt lat="43.75877230156598" lon="11.201780112219067"><ele>47.25</ele><time>2026-03-22T10:01:01.009Z</time></trkpt><trkpt lat="43.75872230420767" lon="11.20162527256847"><ele>47.5</ele><time>2026-03-22T10:01:02.009Z</time></trkpt><trkpt lat="43.758667363776524" lon="11.20147467671746"><ele>47.75</ele><time>2026-03-22T10:01:03.009Z</time></trkpt><trkpt lat="43.758597347346296" lon="11.201318180435573"><ele>48.0</ele><time>2026-03-22T10:01:04.009Z</time></trkpt><trkpt lat="43.75852464250346" lon="11.201196019227686"><ele>48.0</ele><time>2026-03-22T10:01:05.009Z</time></trkpt><trkpt lat="43.75845503111093" lon="11.201093909294713"><ele>48.0</ele><time>2026-03-22T10:01:06.009Z</time></trkpt><trkpt lat="43.758378820952686" lon="11.200994005515001"><ele>48.0</ele><time>2026-03-22T10:01:07.009Z</time></trkpt><trkpt lat="43.758306123717176" lon="11.2009161197024"><ele>48.0</ele><time>2026-03-22T10:01:08.009Z</time></trkpt><trkpt lat="43.75822617300961" lon="11.200837640171734"><ele>48.0</ele><time>2026-03-22T10:01:09.009Z</time></trkpt><trkpt lat="43.75814190210683" lon="11.200745314383294"><ele>47.599999999999994</ele><time>2026-03-22T10:01:10.009Z</time></trkpt><trkpt lat="43.758067124699785" lon="11.200661543590128"><ele>47.199999999999996</ele><time>2026-03-22T10:01:11.009Z</time></trkpt><trkpt lat="43.75799126913348" lon="11.20059597098638"><ele>46.8</ele><time>2026-03-22T10:01:12.009Z</time></trkpt><trkpt lat="43.757934559363505" lon="11.200531402215773"><ele>46.4</ele><time>2026-03-22T10:01:13.009Z</time></trkpt><trkpt lat="43.757882201760665" lon="11.200463465266994"><ele>46.0</ele><time>2026-03-22T10:01:14.009Z</time></trkpt><trkpt lat="43.757786617932055" lon="11.20034003336284"><ele>46.0</ele><time>2026-03-22T10:01:16.009Z</time></trkpt><trkpt lat="43.75772165948982" lon="11.200216292266402"><ele>46.0</ele><time>2026-03-22T10:01:18.009Z</time></trkpt><trkpt lat="43.75766433784111" lon="11.200106968411234"><ele>46.0</ele><time>2026-03-22T10:01:20.009Z</time></trkpt><trkpt lat="43.7576245843479" lon="11.200006245252528"><ele>46.0</ele><time>2026-03-22T10:01:22.009Z</time></trkpt><trkpt lat="43.7575615663486" lon="11.199897684328771"><ele>46.0</ele><time>2026-03-22T10:01:24.009Z</time></trkpt><trkpt lat="43.757495437521705" lon="11.19977047678702"><ele>46.199999999999996</ele><time>2026-03-22T10:01:26.009Z</time></trkpt><trkpt lat="43.75744940177157" lon="11.199644414293225"><ele>46.4</ele><time>2026-03-22T10:01:28.009Z</time></trkpt><trkpt lat="43.75738453323614" lon="11.199542741609665"><ele>46.6</ele><time>2026-03-22T10:01:30.009Z</time></trkpt><trkpt lat="43.75730530469253" lon="11.19941161115366"><ele>46.8</ele><time>2026-03-22T10:01:32.009Z</time></trkpt><trkpt lat="43.75727007751275" lon="11.199338858492013"><ele>47.0</ele><time>2026-03-22T10:01:33.009Z</time></trkpt><trkpt lat="43.75724946566784" lon="11.199254445365089"><ele>47.0</ele><time>2026-03-22T10:01:34.009Z</time></trkpt><trkpt lat="43.75719010647888" lon="11.199099231072765"><ele>47.0</ele><time>2026-03-22T10:01:36.009Z</time></trkpt><trkpt lat="43.75715099762529" lon="11.199018885994139"><ele>47.0</ele><time>2026-03-22T10:01:37.009Z</time></trkpt><trkpt lat="43.75711820134469" lon="11.198938292828757"><ele>47.0</ele><time>2026-03-22T10:01:38.009Z</time></trkpt><trkpt lat="43.75706956552258" lon="11.198810307729584"><ele>47.0</ele><time>2026-03-22T10:01:40.009Z</time></trkpt><trkpt lat="43.757055012019244" lon="11.198699094906498"><ele>47.2</ele><time>2026-03-22T10:01:48.009Z</time></trkpt><trkpt lat="43.756998860058246" lon="11.198579580905044"><ele>47.400000000000006</ele><time>2026-03-22T10:01:50.009Z</time></trkpt><trkpt lat="43.75693777653534" lon="11.198450659070426"><ele>47.599999999999994</ele><time>2026-03-22T10:01:52.009Z</time></trkpt><trkpt lat="43.75686040387606" lon="11.1983391451981"><ele>47.8</ele><time>2026-03-22T10:01:54.009Z</time></trkpt><trkpt lat="43.75678777533072" lon="11.19822005602689"><ele>48.0</ele><time>2026-03-22T10:01:56.009Z</time></trkpt><trkpt lat="43.756735359300194" lon="11.19814441028904"><ele>48.2</ele><time>2026-03-22T10:01:58.009Z</time></trkpt><trkpt lat="43.7566688348331" lon="11.198007769723086"><ele>48.4</ele><time>2026-03-22T10:02:00.009Z</time></trkpt><trkpt lat="43.75661554421196" lon="11.197929145162924"><ele>48.6</ele><time>2026-03-22T10:02:01.009Z</time></trkpt><trkpt lat="43.75657238243224" lon="11.197846837433346"><ele>48.800000000000004</ele><time>2026-03-22T10:02:02.009Z</time></trkpt><trkpt lat="43.75653127598017" lon="11.197775022528113"><ele>49.0</ele><time>2026-03-22T10:02:03.009Z</time></trkpt><trkpt lat="43.75645360832129" lon="11.197651760041062"><ele>49.0</ele><time>2026-03-22T10:02:05.009Z</time></trkpt><trkpt lat="43.7563837997654" lon="11.197530620696291"><ele>49.0</ele><time>2026-03-22T10:02:07.009Z</time></trkpt><trkpt lat="43.75632714189741" lon="11.197364605904061"><ele>49.0</ele><time>2026-03-22T10:02:09.008Z</time></trkpt><trkpt lat="43.75628611782278" lon="11.19727074645911"><ele>49.0</ele><time>2026-03-22T10:02:10.008Z</time></trkpt><trkpt lat="43.75623958534745" lon="11.197174424026088"><ele>49.0</ele><time>2026-03-22T10:02:11.008Z</time></trkpt><trkpt lat="43.756204570573075" lon="11.197060260934549"><ele>48.0</ele><time>2026-03-22T10:02:12.008Z</time></trkpt><trkpt lat="43.75615413412986" lon="11.196930134877574"><ele>47.0</ele><time>2026-03-22T10:02:13.008Z</time></trkpt><trkpt lat="43.75610324904605" lon="11.196785303136068"><ele>46.0</ele><time>2026-03-22T10:02:14.008Z</time></trkpt><trkpt lat="43.756043066965475" lon="11.196613370321739"><ele>45.0</ele><time>2026-03-22T10:02:15.008Z</time></trkpt><trkpt lat="43.755982332592254" lon="11.196447108450375"><ele>45.0</ele><time>2026-03-22T10:02:16.008Z</time></trkpt><trkpt lat="43.75592394170249" lon="11.196297437101896"><ele>45.0</ele><time>2026-03-22T10:02:17.01Z</time></trkpt><trkpt lat="43.75585538123467" lon="11.196160655048859"><ele>45.0</ele><time>2026-03-22T10:02:18.01Z</time></trkpt><trkpt lat="43.75579514656194" lon="11.196011676821998"><ele>45.0</ele><time>2026-03-22T10:02:19.01Z</time></trkpt><trkpt lat="43.75574429964885" lon="11.19585769610994"><ele>45.0</ele><time>2026-03-22T10:02:20.011Z</time></trkpt><trkpt lat="43.75570088309549" lon="11.195701917647154"><ele>45.0</ele><time>2026-03-22T10:02:21.01Z</time></trkpt><trkpt lat="43.75564603846527" lon="11.195542801948502"><ele>45.0</ele><time>2026-03-22T10:02:22.01Z</time></trkpt><trkpt lat="43.75560333672015" lon="11.195391811518"><ele>45.0</ele><time>2026-03-22T10:02:23.011Z</time></trkpt><trkpt lat="43.75555760658673" lon="11.19526092415418"><ele>45.0</ele><time>2026-03-22T10:02:24.011Z</time></trkpt><trkpt lat="43.75551747931437" lon="11.195167907920736"><ele>45.0</ele><time>2026-03-22T10:02:25.011Z</time></trkpt><trkpt lat="43.75547617977443" lon="11.195077666444773"><ele>45.0</ele><time>2026-03-22T10:02:26.011Z</time></trkpt><trkpt lat="43.75542098933603" lon="11.194984946395259"><ele>45.0</ele><time>2026-03-22T10:02:27.01Z</time></trkpt><trkpt lat="43.75536201543594" lon="11.1948704582568"><ele>45.0</ele><time>2026-03-22T10:02:28.01Z</time></trkpt><trkpt lat="43.75530416511544" lon="11.1947415223101"><ele>45.0</ele><time>2026-03-22T10:02:29.011Z</time></trkpt><trkpt lat="43.75524606842076" lon="11.194641202202392"><ele>45.0</ele><time>2026-03-22T10:02:30.01Z</time></trkpt><trkpt lat="43.755236550315814" lon="11.194522554232167"><ele>45.0</ele><time>2026-03-22T10:02:31.01Z</time></trkpt><trkpt lat="43.75519355756218" lon="11.194440754451424"><ele>45.0</ele><time>2026-03-22T10:02:32.01Z</time></trkpt><trkpt lat="43.755142607886874" lon="11.19430511874861"><ele>45.0</ele><time>2026-03-22T10:02:34.01Z</time></trkpt><trkpt lat="43.75506337033168" lon="11.19419433183346"><ele>45.0</ele><time>2026-03-22T10:02:36.01Z</time></trkpt><trkpt lat="43.755003967455885" lon="11.194090904892592"><ele>45.0</ele><time>2026-03-22T10:02:38.01Z</time></trkpt><trkpt lat="43.75495990567564" lon="11.194011146106824"><ele>45.0</ele><time>2026-03-22T10:02:39.01Z</time></trkpt><trkpt lat="43.75491286171523" lon="11.193929167648278"><ele>45.0</ele><time>2026-03-22T10:02:40.01Z</time></trkpt><trkpt lat="43.75487966197905" lon="11.193840798935756"><ele>45.0</ele><time>2026-03-22T10:02:41.01Z</time></trkpt><trkpt lat="43.754844051142314" lon="11.193760907855044"><ele>45.0</ele><time>2026-03-22T10:02:42.01Z</time></trkpt><trkpt lat="43.75480599682605" lon="11.193681001530972"><ele>44.8</ele><time>2026-03-22T10:02:43.01Z</time></trkpt><trkpt lat="43.7547592259779" lon="11.193583635675093"><ele>44.6</ele><time>2026-03-22T10:02:44.01Z</time></trkpt><trkpt lat="43.75470921519783" lon="11.1934807164127"><ele>44.400000000000006</ele><time>2026-03-22T10:02:45.01Z</time></trkpt><trkpt lat="43.754654056800575" lon="11.193369085144859"><ele>44.2</ele><time>2026-03-22T10:02:46.01Z</time></trkpt><trkpt lat="43.75460102203237" lon="11.193252941217242"><ele>44.0</ele><time>2026-03-22T10:02:47.01Z</time></trkpt><trkpt lat="43.75455408115789" lon="11.19315037909589"><ele>44.33333333333333</ele><time>2026-03-22T10:02:48.01Z</time></trkpt><trkpt lat="43.7545080025775" lon="11.193070205934035"><ele>44.666666666666664</ele><time>2026-03-22T10:02:49.01Z</time></trkpt><trkpt lat="43.754462670901106" lon="11.192990980090483"><ele>45.0</ele><time>2026-03-22T10:02:50.01Z</time></trkpt><trkpt lat="43.754422652993114" lon="11.192905320863453"><ele>45.333333333333336</ele><time>2026-03-22T10:02:51.01Z</time></trkpt><trkpt lat="43.75438683712292" lon="11.192817477970813"><ele>45.66666666666667</ele><time>2026-03-22T10:02:52.01Z</time></trkpt><trkpt lat="43.7543392133789" lon="11.192716250949399"><ele>46.0</ele><time>2026-03-22T10:02:53.01Z</time></trkpt><trkpt lat="43.75431200433625" lon="11.192627623740936"><ele>46.199999999999996</ele><time>2026-03-22T10:02:54.01Z</time></trkpt><trkpt lat="43.754276509650786" lon="11.192510128429971"><ele>46.4</ele><time>2026-03-22T10:02:56.01Z</time></trkpt><trkpt lat="43.754223808299926" lon="11.192382327817642"><ele>46.6</ele><time>2026-03-22T10:02:59.009Z</time></trkpt><trkpt lat="43.75417955996696" lon="11.192219905536943"><ele>46.8</ele><time>2026-03-22T10:03:01.009Z</time></trkpt><trkpt lat="43.75416346012499" lon="11.192105726969048"><ele>47.0</ele><time>2026-03-22T10:03:02.009Z</time></trkpt><trkpt lat="43.75413573671125" lon="11.191973728167548"><ele>47.0</ele><time>2026-03-22T10:03:03.009Z</time></trkpt><trkpt lat="43.754101938597216" lon="11.191859046423998"><ele>47.0</ele><time>2026-03-22T10:03:04.009Z</time></trkpt><trkpt lat="43.75407830058425" lon="11.191746310572801"><ele>47.0</ele><time>2026-03-22T10:03:05.009Z</time></trkpt><trkpt lat="43.754051232651804" lon="11.191635571535155"><ele>47.0</ele><time>2026-03-22T10:03:06.009Z</time></trkpt><trkpt lat="43.75402892639851" lon="11.191546829334877"><ele>47.0</ele><time>2026-03-22T10:03:07.009Z</time></trkpt><trkpt lat="43.75400271663191" lon="11.191457491444508"><ele>47.0</ele><time>2026-03-22T10:03:08.009Z</time></trkpt><trkpt lat="43.75397831690909" lon="11.191358898800713"><ele>47.2</ele><time>2026-03-22T10:03:09.009Z</time></trkpt><trkpt lat="43.75394206418599" lon="11.191216162178987"><ele>47.400000000000006</ele><time>2026-03-22T10:03:11.009Z</time></trkpt><trkpt lat="43.75392585222067" lon="11.19109239760031"><ele>47.599999999999994</ele><time>2026-03-22T10:03:13.009Z</time></trkpt><trkpt lat="43.75386977098748" lon="11.190998307167192"><ele>47.8</ele><time>2026-03-22T10:03:15.009Z</time></trkpt><trkpt lat="43.75381195094861" lon="11.19089684853816"><ele>48.0</ele><time>2026-03-22T10:03:17.009Z</time></trkpt><trkpt lat="43.75377888997012" lon="11.190759115168369"><ele>47.8</ele><time>2026-03-22T10:03:21.009Z</time></trkpt><trkpt lat="43.753721043855414" lon="11.190606054949603"><ele>47.599999999999994</ele><time>2026-03-22T10:03:23.009Z</time></trkpt><trkpt lat="43.75367239430539" lon="11.19050131850238"><ele>47.400000000000006</ele><time>2026-03-22T10:03:24.009Z</time></trkpt><trkpt lat="43.7536174776326" lon="11.190399830018345"><ele>47.2</ele><time>2026-03-22T10:03:25.009Z</time></trkpt><trkpt lat="43.753553883455595" lon="11.190300446656943"><ele>47.0</ele><time>2026-03-22T10:03:26.009Z</time></trkpt><trkpt lat="43.753492335936784" lon="11.190174805015504"><ele>47.400000000000006</ele><time>2026-03-22T10:03:27.009Z</time></trkpt><trkpt lat="43.75342255643158" lon="11.190046106284838"><ele>47.800000000000004</ele><time>2026-03-22T10:03:28.009Z</time></trkpt><trkpt lat="43.75336535788775" lon="11.18991837824803"><ele>48.2</ele><time>2026-03-22T10:03:29.009Z</time></trkpt><trkpt lat="43.75329511568013" lon="11.189797074519566"><ele>48.6</ele><time>2026-03-22T10:03:30.009Z</time></trkpt><trkpt lat="43.75322771496033" lon="11.189681612504556"><ele>49.0</ele><time>2026-03-22T10:03:31.009Z</time></trkpt><trkpt lat="43.75316693522436" lon="11.18954939513666"><ele>49.0</ele><time>2026-03-22T10:03:32.009Z</time></trkpt><trkpt lat="43.7531063749065" lon="11.189419003278688"><ele>49.0</ele><time>2026-03-22T10:03:33.009Z</time></trkpt><trkpt lat="43.753040068488495" lon="11.189292990305493"><ele>49.0</ele><time>2026-03-22T10:03:34.009Z</time></trkpt><trkpt lat="43.75297029535078" lon="11.18915849507775"><ele>49.0</ele><time>2026-03-22T10:03:35.009Z</time></trkpt><trkpt lat="43.75290150639769" lon="11.189009819938715"><ele>48.75</ele><time>2026-03-22T10:03:36.009Z</time></trkpt><trkpt lat="43.752834261093106" lon="11.188860896160316"><ele>48.5</ele><time>2026-03-22T10:03:37.009Z</time></trkpt><trkpt lat="43.75276172829534" lon="11.188725088294142"><ele>48.25</ele><time>2026-03-22T10:03:38.009Z</time></trkpt><trkpt lat="43.75269020803027" lon="11.188582406053692"><ele>48.0</ele><time>2026-03-22T10:03:39.009Z</time></trkpt><trkpt lat="43.75261638756933" lon="11.188445158094167"><ele>48.0</ele><time>2026-03-22T10:03:40.009Z</time></trkpt><trkpt lat="43.75254690068964" lon="11.1882922816674"><ele>48.0</ele><time>2026-03-22T10:03:41.009Z</time></trkpt><trkpt lat="43.75246294895288" lon="11.188136615727895"><ele>48.0</ele><time>2026-03-22T10:03:42.009Z</time></trkpt><trkpt lat="43.75238737376896" lon="11.187990575669158"><ele>48.0</ele><time>2026-03-22T10:03:43.009Z</time></trkpt><trkpt lat="43.75233250035914" lon="11.187831884602708"><ele>47.8</ele><time>2026-03-22T10:03:44.009Z</time></trkpt><trkpt lat="43.75224846935414" lon="11.187710345978562"><ele>47.599999999999994</ele><time>2026-03-22T10:03:45.009Z</time></trkpt><trkpt lat="43.75215963591432" lon="11.187598069247006"><ele>47.400000000000006</ele><time>2026-03-22T10:03:46.009Z</time></trkpt><trkpt lat="43.75208870352914" lon="11.187508125555153"><ele>47.2</ele><time>2026-03-22T10:03:47.009Z</time></trkpt><trkpt lat="43.752006230607634" lon="11.187415730955742"><ele>47.0</ele><time>2026-03-22T10:03:48.009Z</time></trkpt><trkpt lat="43.7519357687153" lon="11.187353001752554"><ele>47.0</ele><time>2026-03-22T10:03:49.009Z</time></trkpt><trkpt lat="43.75188163573819" lon="11.187300477243483"><ele>47.0</ele><time>2026-03-22T10:03:50.009Z</time></trkpt><trkpt lat="43.751828773045965" lon="11.1872521421976"><ele>47.0</ele><time>2026-03-22T10:03:51.009Z</time></trkpt><trkpt lat="43.751733027822105" lon="11.187144504352629"><ele>47.0</ele><time>2026-03-22T10:03:53.009Z</time></trkpt><trkpt lat="43.751677989345126" lon="11.187077220375889"><ele>47.0</ele><time>2026-03-22T10:03:54.009Z</time></trkpt><trkpt lat="43.751615503186336" lon="11.186996053878444"><ele>47.0</ele><time>2026-03-22T10:03:55.009Z</time></trkpt><trkpt lat="43.75154385749931" lon="11.186881503632906"><ele>47.0</ele><time>2026-03-22T10:03:56.009Z</time></trkpt><trkpt lat="43.751450260225596" lon="11.186760152124544"><ele>47.0</ele><time>2026-03-22T10:03:57.009Z</time></trkpt><trkpt lat="43.75136837686982" lon="11.186629402425721"><ele>47.0</ele><time>2026-03-22T10:03:58.009Z</time></trkpt><trkpt lat="43.75129231975913" lon="11.186519185312735"><ele>47.0</ele><time>2026-03-22T10:03:59.009Z</time></trkpt><trkpt lat="43.75121325852773" lon="11.18641316339763"><ele>47.0</ele><time>2026-03-22T10:04:00.009Z</time></trkpt><trkpt lat="43.751144558169656" lon="11.186327112924769"><ele>47.0</ele><time>2026-03-22T10:04:01.009Z</time></trkpt><trkpt lat="43.751078764158734" lon="11.186241705737098"><ele>47.0</ele><time>2026-03-22T10:04:02.009Z</time></trkpt><trkpt lat="43.751022207253165" lon="11.18615696290086"><ele>47.0</ele><time>2026-03-22T10:04:03.009Z</time></trkpt><trkpt lat="43.75096987063525" lon="11.186093754002187"><ele>47.0</ele><time>2026-03-22T10:04:04.009Z</time></trkpt><trkpt lat="43.75090539365284" lon="11.186025662790586"><ele>47.0</ele><time>2026-03-22T10:04:05.009Z</time></trkpt><trkpt lat="43.75084849725444" lon="11.185949973461806"><ele>47.0</ele><time>2026-03-22T10:04:06.009Z</time></trkpt><trkpt lat="43.75077853060342" lon="11.185861207636407"><ele>47.0</ele><time>2026-03-22T10:04:07.009Z</time></trkpt><trkpt lat="43.75070031772388" lon="11.185765591226305"><ele>47.0</ele><time>2026-03-22T10:04:08.009Z</time></trkpt><trkpt lat="43.75062089830192" lon="11.185668717797327"><ele>47.0</ele><time>2026-03-22T10:04:09.009Z</time></trkpt><trkpt lat="43.75045791161681" lon="11.185444142443256"><ele>47.0</ele><time>2026-03-22T10:04:11.009Z</time></trkpt><trkpt lat="43.750380334439676" lon="11.185309151594547"><ele>47.0</ele><time>2026-03-22T10:04:12.009Z</time></trkpt><trkpt lat="43.75029921333277" lon="11.185172747911903"><ele>47.0</ele><time>2026-03-22T10:04:13.009Z</time></trkpt><trkpt lat="43.75022973941884" lon="11.185016318195562"><ele>47.0</ele><time>2026-03-22T10:04:14.009Z</time></trkpt><trkpt lat="43.75014434073696" lon="11.184870132896226"><ele>47.5</ele><time>2026-03-22T10:04:15.009Z</time></trkpt><trkpt lat="43.75005906455008" lon="11.184695405882064"><ele>48.0</ele><time>2026-03-22T10:04:16.009Z</time></trkpt><trkpt lat="43.749966817997134" lon="11.184561838380773"><ele>48.5</ele><time>2026-03-22T10:04:17.008Z</time></trkpt><trkpt lat="43.749879972402624" lon="11.184429588817979"><ele>49.0</ele><time>2026-03-22T10:04:18.008Z</time></trkpt><trkpt lat="43.74979091103026" lon="11.184315082864217"><ele>49.0</ele><time>2026-03-22T10:04:19.008Z</time></trkpt><trkpt lat="43.74971280017161" lon="11.184200451979999"><ele>49.0</ele><time>2026-03-22T10:04:20.008Z</time></trkpt><trkpt lat="43.74964474587995" lon="11.184102991902881"><ele>49.0</ele><time>2026-03-22T10:04:21.008Z</time></trkpt><trkpt lat="43.74957289369652" lon="11.184007752554887"><ele>49.0</ele><time>2026-03-22T10:04:22.008Z</time></trkpt><trkpt lat="43.74949711560699" lon="11.183901325758494"><ele>49.0</ele><time>2026-03-22T10:04:23.01Z</time></trkpt><trkpt lat="43.749422170921406" lon="11.183787757471272"><ele>49.0</ele><time>2026-03-22T10:04:24.011Z</time></trkpt><trkpt lat="43.74933242482098" lon="11.183668302802246"><ele>49.0</ele><time>2026-03-22T10:04:25.011Z</time></trkpt><trkpt lat="43.74924269966301" lon="11.183538089125935"><ele>49.0</ele><time>2026-03-22T10:04:26.01Z</time></trkpt><trkpt lat="43.749150235892856" lon="11.183408876690223"><ele>49.0</ele><time>2026-03-22T10:04:27.011Z</time></trkpt><trkpt lat="43.749066633293694" lon="11.183281093592607"><ele>49.2</ele><time>2026-03-22T10:04:28.011Z</time></trkpt><trkpt lat="43.74898921107125" lon="11.18317224871562"><ele>49.400000000000006</ele><time>2026-03-22T10:04:29.011Z</time></trkpt><trkpt lat="43.74891706001731" lon="11.183081806879894"><ele>49.6</ele><time>2026-03-22T10:04:30.011Z</time></trkpt><trkpt lat="43.748837511062085" lon="11.18299721333499"><ele>49.8</ele><time>2026-03-22T10:04:31.011Z</time></trkpt><trkpt lat="43.748743556173764" lon="11.182916857932275"><ele>50.0</ele><time>2026-03-22T10:04:32.011Z</time></trkpt><trkpt lat="43.748653569692266" lon="11.18282351172292"><ele>50.0</ele><time>2026-03-22T10:04:33.011Z</time></trkpt><trkpt lat="43.748551461797426" lon="11.182743184969544"><ele>50.0</ele><time>2026-03-22T10:04:34.011Z</time></trkpt><trkpt lat="43.748442729288485" lon="11.182665796553353"><ele>50.0</ele><time>2026-03-22T10:04:35.011Z</time></trkpt><trkpt lat="43.74832797279863" lon="11.18258313017514"><ele>50.0</ele><time>2026-03-22T10:04:36.01Z</time></trkpt><trkpt lat="43.748211168501314" lon="11.182493245534165"><ele>50.0</ele><time>2026-03-22T10:04:37.01Z</time></trkpt><trkpt lat="43.74809403957089" lon="11.182398174664725"><ele>50.0</ele><time>2026-03-22T10:04:38.01Z</time></trkpt><trkpt lat="43.74798084153515" lon="11.182308054698408"><ele>50.0</ele><time>2026-03-22T10:04:39.01Z</time></trkpt><trkpt lat="43.74786678943247" lon="11.18221828166809"><ele>50.0</ele><time>2026-03-22T10:04:40.01Z</time></trkpt><trkpt lat="43.74775295273139" lon="11.182126212440656"><ele>50.0</ele><time>2026-03-22T10:04:41.01Z</time></trkpt><trkpt lat="43.747638603035206" lon="11.18202182380057"><ele>50.0</ele><time>2026-03-22T10:04:42.01Z</time></trkpt><trkpt lat="43.74752472185783" lon="11.181919855026566"><ele>50.0</ele><time>2026-03-22T10:04:43.01Z</time></trkpt><trkpt lat="43.74741644142707" lon="11.181804425418735"><ele>50.0</ele><time>2026-03-22T10:04:44.01Z</time></trkpt><trkpt lat="43.74730741410543" lon="11.181670308054306"><ele>50.333333333333336</ele><time>2026-03-22T10:04:45.01Z</time></trkpt><trkpt lat="43.74720692596824" lon="11.181514564324528"><ele>50.66666666666667</ele><time>2026-03-22T10:04:46.01Z</time></trkpt><trkpt lat="43.74710234493181" lon="11.181367221947758"><ele>51.0</ele><time>2026-03-22T10:04:47.01Z</time></trkpt><trkpt lat="43.746993339717285" lon="11.181222012860424"><ele>51.0</ele><time>2026-03-22T10:04:48.01Z</time></trkpt><trkpt lat="43.746881153989925" lon="11.181069868253768"><ele>51.0</ele><time>2026-03-22T10:04:49.01Z</time></trkpt><trkpt lat="43.74677607862334" lon="11.180908522528336"><ele>51.0</ele><time>2026-03-22T10:04:50.01Z</time></trkpt><trkpt lat="43.74667016082874" lon="11.180743269414593"><ele>51.0</ele><time>2026-03-22T10:04:51.01Z</time></trkpt><trkpt lat="43.746565315575246" lon="11.180572715580844"><ele>51.0</ele><time>2026-03-22T10:04:52.01Z</time></trkpt><trkpt lat="43.74646353134772" lon="11.180394354584214"><ele>51.0</ele><time>2026-03-22T10:04:53.01Z</time></trkpt><trkpt lat="43.74636608047354" lon="11.180223101714141"><ele>51.0</ele><time>2026-03-22T10:04:54.01Z</time></trkpt><trkpt lat="43.74627357492798" lon="11.18006698586444"><ele>51.0</ele><time>2026-03-22T10:04:55.01Z</time></trkpt><trkpt lat="43.74619436960339" lon="11.179931793690255"><ele>51.0</ele><time>2026-03-22T10:04:56.01Z</time></trkpt><trkpt lat="43.74612167811292" lon="11.179800110141763"><ele>51.0</ele><time>2026-03-22T10:04:57.01Z</time></trkpt><trkpt lat="43.746045086869266" lon="11.179671381888854"><ele>51.25</ele><time>2026-03-22T10:04:58.01Z</time></trkpt><trkpt lat="43.745962625388984" lon="11.179543974334251"><ele>51.5</ele><time>2026-03-22T10:04:59.01Z</time></trkpt><trkpt lat="43.7458694632517" lon="11.179416934434137"><ele>51.75</ele><time>2026-03-22T10:05:00.01Z</time></trkpt><trkpt lat="43.74576242004081" lon="11.17929116218642"><ele>52.0</ele><time>2026-03-22T10:05:01.01Z</time></trkpt><trkpt lat="43.74564495733402" lon="11.179171286666769"><ele>52.0</ele><time>2026-03-22T10:05:02.01Z</time></trkpt><trkpt lat="43.74551477588224" lon="11.179049171630075"><ele>52.0</ele><time>2026-03-22T10:05:03.01Z</time></trkpt><trkpt lat="43.74537482523888" lon="11.178925282610843"><ele>52.0</ele><time>2026-03-22T10:05:04.01Z</time></trkpt><trkpt lat="43.74522642678734" lon="11.178796248896393"><ele>53.0</ele><time>2026-03-22T10:05:05.01Z</time></trkpt><trkpt lat="43.74508302800553" lon="11.178652954855087"><ele>54.0</ele><time>2026-03-22T10:05:06.01Z</time></trkpt><trkpt lat="43.744929086835455" lon="11.178495111233387"><ele>55.0</ele><time>2026-03-22T10:05:07.01Z</time></trkpt><trkpt lat="43.744792621706985" lon="11.178323042202441"><ele>56.0</ele><time>2026-03-22T10:05:08.01Z</time></trkpt><trkpt lat="43.7446751616398" lon="11.178129133906392"><ele>57.0</ele><time>2026-03-22T10:05:09.01Z</time></trkpt><trkpt lat="43.74456700265971" lon="11.177917989036132"><ele>58.0</ele><time>2026-03-22T10:05:10.01Z</time></trkpt><trkpt lat="43.74445842735728" lon="11.17769361586816"><ele>59.0</ele><time>2026-03-22T10:05:11.01Z</time></trkpt><trkpt lat="43.74435213546439" lon="11.177471067151613"><ele>60.0</ele><time>2026-03-22T10:05:12.01Z</time></trkpt><trkpt lat="43.74424323074472" lon="11.177250106097958"><ele>61.0</ele><time>2026-03-22T10:05:13.01Z</time></trkpt><trkpt lat="43.74413971418209" lon="11.177039320336569"><ele>61.0</ele><time>2026-03-22T10:05:14.01Z</time></trkpt><trkpt lat="43.74404375593967" lon="11.176843190525217"><ele>61.0</ele><time>2026-03-22T10:05:15.01Z</time></trkpt><trkpt lat="43.74394143724158" lon="11.176654331405246"><ele>61.0</ele><time>2026-03-22T10:05:16.01Z</time></trkpt><trkpt lat="43.74382328041614" lon="11.176484456367945"><ele>60.33333333333333</ele><time>2026-03-22T10:05:17.01Z</time></trkpt><trkpt lat="43.74369693346193" lon="11.176334993805195"><ele>59.66666666666667</ele><time>2026-03-22T10:05:18.01Z</time></trkpt><trkpt lat="43.74355812340914" lon="11.176213584524353"><ele>59.0</ele><time>2026-03-22T10:05:19.01Z</time></trkpt><trkpt lat="43.74341440977662" lon="11.176119744033958"><ele>60.5</ele><time>2026-03-22T10:05:20.01Z</time></trkpt><trkpt lat="43.743263562936995" lon="11.176064456789856"><ele>62.0</ele><time>2026-03-22T10:05:21.01Z</time></trkpt><trkpt lat="43.74314177821808" lon="11.176017544689442"><ele>63.5</ele><time>2026-03-22T10:05:22.01Z</time></trkpt><trkpt lat="43.743018214394716" lon="11.175971739193702"><ele>65.0</ele><time>2026-03-22T10:05:23.01Z</time></trkpt><trkpt lat="43.74290332603961" lon="11.17592141915384"><ele>65.0</ele><time>2026-03-22T10:05:24.01Z</time></trkpt><trkpt lat="43.74277925783918" lon="11.175871945875672"><ele>65.0</ele><time>2026-03-22T10:05:25.01Z</time></trkpt><trkpt lat="43.74264768155768" lon="11.175821440844778"><ele>65.0</ele><time>2026-03-22T10:05:26.01Z</time></trkpt><trkpt lat="43.742501627465366" lon="11.175760529841186"><ele>65.0</ele><time>2026-03-22T10:05:27.01Z</time></trkpt><trkpt lat="43.74236789047686" lon="11.175692802094112"><ele>65.0</ele><time>2026-03-22T10:05:28.01Z</time></trkpt><trkpt lat="43.74222272199267" lon="11.175622779801307"><ele>65.0</ele><time>2026-03-22T10:05:29.01Z</time></trkpt><trkpt lat="43.74207549220152" lon="11.175546385337602"><ele>65.0</ele><time>2026-03-22T10:05:30.01Z</time></trkpt><trkpt lat="43.741941605077805" lon="11.17544548755559"><ele>66.66666666666667</ele><time>2026-03-22T10:05:31.01Z</time></trkpt><trkpt lat="43.74179385249992" lon="11.175347361188301"><ele>68.33333333333333</ele><time>2026-03-22T10:05:32.01Z</time></trkpt><trkpt lat="43.74164334470051" lon="11.175234027244842"><ele>70.0</ele><time>2026-03-22T10:05:33.01Z</time></trkpt><trkpt lat="43.741485924657916" lon="11.175099575427998"><ele>70.0</ele><time>2026-03-22T10:05:34.01Z</time></trkpt><trkpt lat="43.741314765687854" lon="11.174949300505105"><ele>70.0</ele><time>2026-03-22T10:05:35.01Z</time></trkpt><trkpt lat="43.74113958640599" lon="11.174797287277492"><ele>70.0</ele><time>2026-03-22T10:05:36.01Z</time></trkpt><trkpt lat="43.74097574318235" lon="11.174678974546291"><ele>70.33333333333333</ele><time>2026-03-22T10:05:37.01Z</time></trkpt><trkpt lat="43.74083751663443" lon="11.17454371063458"><ele>70.66666666666667</ele><time>2026-03-22T10:05:38.01Z</time></trkpt><trkpt lat="43.740710494780146" lon="11.174426627288792"><ele>71.0</ele><time>2026-03-22T10:05:39.01Z</time></trkpt><trkpt lat="43.74059025148557" lon="11.174333861622891"><ele>71.0</ele><time>2026-03-22T10:05:40.01Z</time></trkpt><trkpt lat="43.740470171205374" lon="11.174251286062276"><ele>71.0</ele><time>2026-03-22T10:05:41.01Z</time></trkpt><trkpt lat="43.74034328265494" lon="11.174188270476337"><ele>71.0</ele><time>2026-03-22T10:05:42.01Z</time></trkpt><trkpt lat="43.74020649250793" lon="11.174125549475953"><ele>71.0</ele><time>2026-03-22T10:05:43.01Z</time></trkpt><trkpt lat="43.74008025846635" lon="11.174025681776127"><ele>70.33333333333334</ele><time>2026-03-22T10:05:44.01Z</time></trkpt><trkpt lat="43.73994513267338" lon="11.173937096924455"><ele>69.66666666666667</ele><time>2026-03-22T10:05:45.01Z</time></trkpt><trkpt lat="43.739803829551626" lon="11.173835733232519"><ele>69.0</ele><time>2026-03-22T10:05:46.01Z</time></trkpt><trkpt lat="43.73965496036204" lon="11.17372796012305"><ele>69.0</ele><time>2026-03-22T10:05:47.01Z</time></trkpt><trkpt lat="43.73951264564422" lon="11.173625891272296"><ele>69.0</ele><time>2026-03-22T10:05:48.01Z</time></trkpt><trkpt lat="43.73938508023425" lon="11.173524551655854"><ele>69.0</ele><time>2026-03-22T10:05:49.009Z</time></trkpt><trkpt lat="43.739285781073846" lon="11.173436881992671"><ele>69.0</ele><time>2026-03-22T10:05:50.009Z</time></trkpt><trkpt lat="43.73920659871443" lon="11.17338170686121"><ele>69.33333333333333</ele><time>2026-03-22T10:05:51.009Z</time></trkpt><trkpt lat="43.73914500345362" lon="11.173338310069216"><ele>69.66666666666667</ele><time>2026-03-22T10:05:52.009Z</time></trkpt><trkpt lat="43.73908374844524" lon="11.173305149800377"><ele>70.0</ele><time>2026-03-22T10:05:53.009Z</time></trkpt><trkpt lat="43.73901475439464" lon="11.173277606891608"><ele>70.33333333333334</ele><time>2026-03-22T10:05:54.009Z</time></trkpt><trkpt lat="43.73893333865672" lon="11.173256071092757"><ele>70.66666666666667</ele><time>2026-03-22T10:05:55.009Z</time></trkpt><trkpt lat="43.7388302348717" lon="11.173242976431727"><ele>71.0</ele><time>2026-03-22T10:05:56.009Z</time></trkpt><trkpt lat="43.738707668984894" lon="11.173209203341784"><ele>71.0</ele><time>2026-03-22T10:05:57.009Z</time></trkpt><trkpt lat="43.73857160111918" lon="11.173163644422054"><ele>71.0</ele><time>2026-03-22T10:05:58.009Z</time></trkpt><trkpt lat="43.7384243590955" lon="11.173117550523784"><ele>71.0</ele><time>2026-03-22T10:05:59.009Z</time></trkpt><trkpt lat="43.73827116059345" lon="11.173065098412623"><ele>71.0</ele><time>2026-03-22T10:06:00.009Z</time></trkpt><trkpt lat="43.73810613503617" lon="11.17302528283186"><ele>72.33333333333334</ele><time>2026-03-22T10:06:01.009Z</time></trkpt><trkpt lat="43.73792570972983" lon="11.172989946746158"><ele>73.66666666666667</ele><time>2026-03-22T10:06:02.009Z</time></trkpt><trkpt lat="43.737746360050316" lon="11.17295702464503"><ele>75.0</ele><time>2026-03-22T10:06:03.009Z</time></trkpt><trkpt lat="43.737575305609994" lon="11.172919762555104"><ele>75.66666666666667</ele><time>2026-03-22T10:06:04.009Z</time></trkpt><trkpt lat="43.73741657875317" lon="11.172858681415088"><ele>76.33333333333334</ele><time>2026-03-22T10:06:05.009Z</time></trkpt><trkpt lat="43.73726890653132" lon="11.172776123880261"><ele>77.0</ele><time>2026-03-22T10:06:06.009Z</time></trkpt><trkpt lat="43.73711735023117" lon="11.172702396757744"><ele>77.0</ele><time>2026-03-22T10:06:07.009Z</time></trkpt><trkpt lat="43.73696201470158" lon="11.172668647570882"><ele>77.0</ele><time>2026-03-22T10:06:08.009Z</time></trkpt><trkpt lat="43.73680015135601" lon="11.17267757301473"><ele>77.0</ele><time>2026-03-22T10:06:09.009Z</time></trkpt><trkpt lat="43.73665046424594" lon="11.172688998010544"><ele>78.25</ele><time>2026-03-22T10:06:10.009Z</time></trkpt><trkpt lat="43.73649525778482" lon="11.172665601036307"><ele>79.5</ele><time>2026-03-22T10:06:11.009Z</time></trkpt><trkpt lat="43.73635532496551" lon="11.172634989483353"><ele>80.75</ele><time>2026-03-22T10:06:12.009Z</time></trkpt><trkpt lat="43.73621795721369" lon="11.172596936975665"><ele>82.0</ele><time>2026-03-22T10:06:13.009Z</time></trkpt><trkpt lat="43.73607699958301" lon="11.172530144357317"><ele>83.25</ele><time>2026-03-22T10:06:14.009Z</time></trkpt><trkpt lat="43.73593110838761" lon="11.172474950999963"><ele>84.5</ele><time>2026-03-22T10:06:15.009Z</time></trkpt><trkpt lat="43.735793747140924" lon="11.172380244083625"><ele>85.75</ele><time>2026-03-22T10:06:16.009Z</time></trkpt><trkpt lat="43.735671245260356" lon="11.172275161917359"><ele>87.0</ele><time>2026-03-22T10:06:17.009Z</time></trkpt><trkpt lat="43.73555974238797" lon="11.17214924853167"><ele>87.0</ele><time>2026-03-22T10:06:18.009Z</time></trkpt><trkpt lat="43.73544002402808" lon="11.172022138103163"><ele>87.0</ele><time>2026-03-22T10:06:19.009Z</time></trkpt><trkpt lat="43.735310472950225" lon="11.171923018868558"><ele>87.0</ele><time>2026-03-22T10:06:20.009Z</time></trkpt><trkpt lat="43.73517199233054" lon="11.171855105454357"><ele>87.0</ele><time>2026-03-22T10:06:21.009Z</time></trkpt><trkpt lat="43.73502818799015" lon="11.171833071819114"><ele>89.0</ele><time>2026-03-22T10:06:22.009Z</time></trkpt><trkpt lat="43.73487174518722" lon="11.171806191707681"><ele>91.0</ele><time>2026-03-22T10:06:23.009Z</time></trkpt><trkpt lat="43.73472256886265" lon="11.171771602732184"><ele>93.0</ele><time>2026-03-22T10:06:24.009Z</time></trkpt><trkpt lat="43.73458877322902" lon="11.17173750687343"><ele>95.0</ele><time>2026-03-22T10:06:25.009Z</time></trkpt><trkpt lat="43.73448606006233" lon="11.171712411316086"><ele>95.0</ele><time>2026-03-22T10:06:26.009Z</time></trkpt><trkpt lat="43.73439858805522" lon="11.171684162106077"><ele>95.0</ele><time>2026-03-22T10:06:27.009Z</time></trkpt><trkpt lat="43.734313890264616" lon="11.17163168239647"><ele>95.0</ele><time>2026-03-22T10:06:28.009Z</time></trkpt><trkpt lat="43.734226604691735" lon="11.171552680286414"><ele>95.0</ele><time>2026-03-22T10:06:29.011Z</time></trkpt><trkpt lat="43.73412864416117" lon="11.171461831726905"><ele>95.0</ele><time>2026-03-22T10:06:30.011Z</time></trkpt><trkpt lat="43.7340109531295" lon="11.171372176484166"><ele>96.0</ele><time>2026-03-22T10:06:31.011Z</time></trkpt><trkpt lat="43.73389264324797" lon="11.171274892490404"><ele>97.0</ele><time>2026-03-22T10:06:32.011Z</time></trkpt><trkpt lat="43.73377198504196" lon="11.171170775463322"><ele>98.0</ele><time>2026-03-22T10:06:33.011Z</time></trkpt><trkpt lat="43.73364142451069" lon="11.171049265957269"><ele>99.0</ele><time>2026-03-22T10:06:34.011Z</time></trkpt><trkpt lat="43.733507646256534" lon="11.170949637957383"><ele>101.75</ele><time>2026-03-22T10:06:35.011Z</time></trkpt><trkpt lat="43.73338967986517" lon="11.170867142305346"><ele>104.5</ele><time>2026-03-22T10:06:36.011Z</time></trkpt><trkpt lat="43.733283601284214" lon="11.170783224632501"><ele>107.25</ele><time>2026-03-22T10:06:37.011Z</time></trkpt><trkpt lat="43.733194513530584" lon="11.17068454710327"><ele>110.0</ele><time>2026-03-22T10:06:38.011Z</time></trkpt><trkpt lat="43.73310893093501" lon="11.170545976264965"><ele>110.0</ele><time>2026-03-22T10:06:39.011Z</time></trkpt><trkpt lat="43.73302254820024" lon="11.170383280688782"><ele>110.0</ele><time>2026-03-22T10:06:40.011Z</time></trkpt><trkpt lat="43.73294176136367" lon="11.170192357416534"><ele>110.0</ele><time>2026-03-22T10:06:41.011Z</time></trkpt><trkpt lat="43.73283887127969" lon="11.169987068548679"><ele>110.33333333333333</ele><time>2026-03-22T10:06:42.011Z</time></trkpt><trkpt lat="43.7327393578742" lon="11.169781803913763"><ele>110.66666666666666</ele><time>2026-03-22T10:06:43.011Z</time></trkpt><trkpt lat="43.73263380544781" lon="11.16958127699385"><ele>111.0</ele><time>2026-03-22T10:06:44.011Z</time></trkpt><trkpt lat="43.73251756161603" lon="11.169382136920321"><ele>113.8</ele><time>2026-03-22T10:06:45.011Z</time></trkpt><trkpt lat="43.73241777547295" lon="11.16921486079873"><ele>116.6</ele><time>2026-03-22T10:06:46.011Z</time></trkpt><trkpt lat="43.732343567413885" lon="11.169088246798829"><ele>119.4</ele><time>2026-03-22T10:06:47.011Z</time></trkpt><trkpt lat="43.73229671569018" lon="11.169001101661772"><ele>122.2</ele><time>2026-03-22T10:06:48.011Z</time></trkpt><trkpt lat="43.732255107899725" lon="11.1689340650775"><ele>125.0</ele><time>2026-03-22T10:06:49.011Z</time></trkpt><trkpt lat="43.732211271738954" lon="11.168854308504699"><ele>125.6</ele><time>2026-03-22T10:06:51.011Z</time></trkpt><trkpt lat="43.73213826855675" lon="11.168756329912728"><ele>126.2</ele><time>2026-03-22T10:06:53.011Z</time></trkpt><trkpt lat="43.732092345083636" lon="11.168688948215673"><ele>126.80000000000001</ele><time>2026-03-22T10:06:54.011Z</time></trkpt><trkpt lat="43.73203246501277" lon="11.168602214328365"><ele>127.4</ele><time>2026-03-22T10:06:55.011Z</time></trkpt><trkpt lat="43.73195444931556" lon="11.168485637801409"><ele>128.0</ele><time>2026-03-22T10:06:56.011Z</time></trkpt><trkpt lat="43.731861552625354" lon="11.168344660802216"><ele>132.5</ele><time>2026-03-22T10:06:57.011Z</time></trkpt><trkpt lat="43.731757142521204" lon="11.168186339460487"><ele>137.0</ele><time>2026-03-22T10:06:58.011Z</time></trkpt><trkpt lat="43.731653482617915" lon="11.168065444024958"><ele>141.5</ele><time>2026-03-22T10:06:59.011Z</time></trkpt><trkpt lat="43.731542053971445" lon="11.167965372773988"><ele>146.0</ele><time>2026-03-22T10:07:00.011Z</time></trkpt><trkpt lat="43.731435251294045" lon="11.167871032192645"><ele>146.0</ele><time>2026-03-22T10:07:01.011Z</time></trkpt><trkpt lat="43.731354352990735" lon="11.167787137286902"><ele>146.0</ele><time>2026-03-22T10:07:02.011Z</time></trkpt><trkpt lat="43.731310308636516" lon="11.167721220705898"><ele>146.0</ele><time>2026-03-22T10:07:03.011Z</time></trkpt><trkpt lat="43.7312766981823" lon="11.167640304630572"><ele>146.0</ele><time>2026-03-22T10:07:04.011Z</time></trkpt><trkpt lat="43.731247664314004" lon="11.167549054297437"><ele>146.0</ele><time>2026-03-22T10:07:05.011Z</time></trkpt><trkpt lat="43.73120195206706" lon="11.16740758678452"><ele>146.0</ele><time>2026-03-22T10:07:07.011Z</time></trkpt><trkpt lat="43.73114870776082" lon="11.167324850859229"><ele>145.5</ele><time>2026-03-22T10:07:08.011Z</time></trkpt><trkpt lat="43.73107697823548" lon="11.167218486863518"><ele>145.0</ele><time>2026-03-22T10:07:09.011Z</time></trkpt><trkpt lat="43.73100024713457" lon="11.167105278962675"><ele>144.5</ele><time>2026-03-22T10:07:10.011Z</time></trkpt><trkpt lat="43.730913398701155" lon="11.166987276191891"><ele>144.0</ele><time>2026-03-22T10:07:11.011Z</time></trkpt><trkpt lat="43.73082387314289" lon="11.166857307862433"><ele>146.5</ele><time>2026-03-22T10:07:12.011Z</time></trkpt><trkpt lat="43.73072412410473" lon="11.166729884365482"><ele>149.0</ele><time>2026-03-22T10:07:13.011Z</time></trkpt><trkpt lat="43.73063058993883" lon="11.166595264357492"><ele>151.5</ele><time>2026-03-22T10:07:14.011Z</time></trkpt><trkpt lat="43.73054591285721" lon="11.166472580541903"><ele>154.0</ele><time>2026-03-22T10:07:15.011Z</time></trkpt><trkpt lat="43.73046653299061" lon="11.166365019386582"><ele>154.0</ele><time>2026-03-22T10:07:16.011Z</time></trkpt><trkpt lat="43.730386765773375" lon="11.16626347405084"><ele>154.0</ele><time>2026-03-22T10:07:17.011Z</time></trkpt><trkpt lat="43.73030817945366" lon="11.166155363853898"><ele>154.0</ele><time>2026-03-22T10:07:18.011Z</time></trkpt><trkpt lat="43.73021975075937" lon="11.166049580759786"><ele>154.0</ele><time>2026-03-22T10:07:19.011Z</time></trkpt><trkpt lat="43.73012346248902" lon="11.165957923670973"><ele>157.25</ele><time>2026-03-22T10:07:20.011Z</time></trkpt><trkpt lat="43.73001593484082" lon="11.16587764367711"><ele>160.5</ele><time>2026-03-22T10:07:21.011Z</time></trkpt><trkpt lat="43.72990362797757" lon="11.165801130782882"><ele>163.75</ele><time>2026-03-22T10:07:22.011Z</time></trkpt><trkpt lat="43.72978300411088" lon="11.165722645543616"><ele>167.0</ele><time>2026-03-22T10:07:23.011Z</time></trkpt><trkpt lat="43.72967087970288" lon="11.165641815031012"><ele>167.0</ele><time>2026-03-22T10:07:24.011Z</time></trkpt><trkpt lat="43.72955835974182" lon="11.16554553763973"><ele>167.0</ele><time>2026-03-22T10:07:25.011Z</time></trkpt><trkpt lat="43.72945868931082" lon="11.165462435150584"><ele>167.0</ele><time>2026-03-22T10:07:26.011Z</time></trkpt><trkpt lat="43.72935862131199" lon="11.165413338754375"><ele>167.0</ele><time>2026-03-22T10:07:27.011Z</time></trkpt><trkpt lat="43.72924908357369" lon="11.165407676319017"><ele>170.6</ele><time>2026-03-22T10:07:28.011Z</time></trkpt><trkpt lat="43.72913618922876" lon="11.165435043777897"><ele>174.2</ele><time>2026-03-22T10:07:29.011Z</time></trkpt><trkpt lat="43.729028390233715" lon="11.165451395234271"><ele>177.8</ele><time>2026-03-22T10:07:30.011Z</time></trkpt><trkpt lat="43.728923468344355" lon="11.16546649184832"><ele>181.4</ele><time>2026-03-22T10:07:31.011Z</time></trkpt><trkpt lat="43.72882277509242" lon="11.16545135732841"><ele>185.0</ele><time>2026-03-22T10:07:32.011Z</time></trkpt><trkpt lat="43.728707419051965" lon="11.165424691808663"><ele>185.0</ele><time>2026-03-22T10:07:33.011Z</time></trkpt><trkpt lat="43.7285931854023" lon="11.165398171847874"><ele>185.0</ele><time>2026-03-22T10:07:34.011Z</time></trkpt><trkpt lat="43.72847162247743" lon="11.165386424912644"><ele>185.0</ele><time>2026-03-22T10:07:35.011Z</time></trkpt><trkpt lat="43.728354629299446" lon="11.165335819665453"><ele>185.0</ele><time>2026-03-22T10:07:36.011Z</time></trkpt><trkpt lat="43.72824999991551" lon="11.165268531168286"><ele>187.0</ele><time>2026-03-22T10:07:37.011Z</time></trkpt><trkpt lat="43.72816963896658" lon="11.16519133341197"><ele>189.0</ele><time>2026-03-22T10:07:38.011Z</time></trkpt><trkpt lat="43.72809304376215" lon="11.165101130943775"><ele>191.0</ele><time>2026-03-22T10:07:39.011Z</time></trkpt><trkpt lat="43.728007885819764" lon="11.164986475472903"><ele>193.0</ele><time>2026-03-22T10:07:40.01Z</time></trkpt><trkpt lat="43.72791770745435" lon="11.164886025663755"><ele>195.0</ele><time>2026-03-22T10:07:41.01Z</time></trkpt><trkpt lat="43.7278292856623" lon="11.164812776149132"><ele>198.2</ele><time>2026-03-22T10:07:42.01Z</time></trkpt><trkpt lat="43.72771851561888" lon="11.164764894848776"><ele>201.4</ele><time>2026-03-22T10:07:43.01Z</time></trkpt><trkpt lat="43.72761459674513" lon="11.164717873563603"><ele>204.60000000000002</ele><time>2026-03-22T10:07:44.01Z</time></trkpt><trkpt lat="43.72752314368077" lon="11.164684735455117"><ele>207.8</ele><time>2026-03-22T10:07:45.01Z</time></trkpt><trkpt lat="43.7274565599995" lon="11.164654452049296"><ele>211.0</ele><time>2026-03-22T10:07:46.01Z</time></trkpt><trkpt lat="43.72739005639475" lon="11.164536944461876"><ele>210.99999999999997</ele><time>2026-03-22T10:07:48.01Z</time></trkpt><trkpt lat="43.7274118238646" lon="11.16444665534519"><ele>211.0</ele><time>2026-03-22T10:07:49.01Z</time></trkpt><trkpt lat="43.72752005817132" lon="11.164423068944638"><ele>211.0</ele><time>2026-03-22T10:07:50.01Z</time></trkpt><trkpt lat="43.727591014137104" lon="11.164401247149083"><ele>211.0</ele><time>2026-03-22T10:07:51.01Z</time></trkpt><trkpt lat="43.72767240676834" lon="11.164367664218023"><ele>210.99999999999997</ele><time>2026-03-22T10:07:52.01Z</time></trkpt><trkpt lat="43.72773393260626" lon="11.164289550701659"><ele>211.0</ele><time>2026-03-22T10:07:53.01Z</time></trkpt><trkpt lat="43.7277829933895" lon="11.164232893682897"><ele>210.4</ele><time>2026-03-22T10:07:54.01Z</time></trkpt><trkpt lat="43.72782124283811" lon="11.164130938851217"><ele>209.8</ele><time>2026-03-22T10:07:55.01Z</time></trkpt><trkpt lat="43.727865816599696" lon="11.164019750184078"><ele>209.20000000000002</ele><time>2026-03-22T10:07:56.01Z</time></trkpt><trkpt lat="43.72789118537796" lon="11.163930523369936"><ele>208.60000000000002</ele><time>2026-03-22T10:07:57.01Z</time></trkpt><trkpt lat="43.72789970618955" lon="11.163753234450688"><ele>208.0</ele><time>2026-03-22T10:07:59.01Z</time></trkpt><trkpt lat="43.727866562216605" lon="11.163649699668003"><ele>207.99999999999997</ele><time>2026-03-22T10:08:00.01Z</time></trkpt><trkpt lat="43.727810310316215" lon="11.163550144483766"><ele>208.0</ele><time>2026-03-22T10:08:01.01Z</time></trkpt><trkpt lat="43.72776392131883" lon="11.163452041552034"><ele>208.0</ele><time>2026-03-22T10:08:02.01Z</time></trkpt><trkpt lat="43.7277213989401" lon="11.163341381470914"><ele>208.0</ele><time>2026-03-22T10:08:03.01Z</time></trkpt><trkpt lat="43.72767272879014" lon="11.163225984418265"><ele>207.99999999999997</ele><time>2026-03-22T10:08:04.01Z</time></trkpt><trkpt lat="43.727650404574064" lon="11.163127956144347"><ele>208.0</ele><time>2026-03-22T10:08:05.01Z</time></trkpt><trkpt lat="43.7276110777576" lon="11.162990117042332"><ele>213.60000000000002</ele><time>2026-03-22T10:08:07.01Z</time></trkpt><trkpt lat="43.727597006409425" lon="11.162832865607376"><ele>219.20000000000002</ele><time>2026-03-22T10:08:09.01Z</time></trkpt><trkpt lat="43.727576443465644" lon="11.162718744547616"><ele>224.8</ele><time>2026-03-22T10:08:10.01Z</time></trkpt><trkpt lat="43.727563894645606" lon="11.162587264753661"><ele>230.4</ele><time>2026-03-22T10:08:11.01Z</time></trkpt><trkpt lat="43.72754164024167" lon="11.162458093848603"><ele>236.0</ele><time>2026-03-22T10:08:12.01Z</time></trkpt><trkpt lat="43.72752470020552" lon="11.162316019392916"><ele>236.4</ele><time>2026-03-22T10:08:13.01Z</time></trkpt><trkpt lat="43.72751972838148" lon="11.162191490804515"><ele>236.8</ele><time>2026-03-22T10:08:14.01Z</time></trkpt><trkpt lat="43.72753094688797" lon="11.162061312050726"><ele>237.20000000000002</ele><time>2026-03-22T10:08:16.01Z</time></trkpt><trkpt lat="43.7275916067652" lon="11.161935348838647"><ele>237.60000000000002</ele><time>2026-03-22T10:08:18.01Z</time></trkpt><trkpt lat="43.72753426848037" lon="11.161832729928243"><ele>238.0</ele><time>2026-03-22T10:08:20.01Z</time></trkpt><trkpt lat="43.727474753875796" lon="11.161795284245676"><ele>237.99999999999997</ele><time>2026-03-22T10:08:21.01Z</time></trkpt><trkpt lat="43.72740752206505" lon="11.161780582983344"><ele>238.0</ele><time>2026-03-22T10:08:22.01Z</time></trkpt><trkpt lat="43.72733785841448" lon="11.161794873587086"><ele>238.0</ele><time>2026-03-22T10:08:23.01Z</time></trkpt><trkpt lat="43.727280637130924" lon="11.161871606841858"><ele>238.0</ele><time>2026-03-22T10:08:24.01Z</time></trkpt><trkpt lat="43.72723555685106" lon="11.161972766159959"><ele>237.99999999999997</ele><time>2026-03-22T10:08:25.01Z</time></trkpt><trkpt lat="43.727199001853805" lon="11.162084584725541"><ele>238.0</ele><time>2026-03-22T10:08:26.01Z</time></trkpt><trkpt lat="43.72715952968302" lon="11.162192559534038"><ele>238.0</ele><time>2026-03-22T10:08:27.01Z</time></trkpt><trkpt lat="43.72711192307044" lon="11.16232135462109"><ele>238.0</ele><time>2026-03-22T10:08:28.01Z</time></trkpt><trkpt lat="43.72706638539327" lon="11.162421914486677"><ele>238.0</ele><time>2026-03-22T10:08:29.01Z</time></trkpt><trkpt lat="43.727013787774126" lon="11.16249508897247"><ele>238.0</ele><time>2026-03-22T10:08:30.01Z</time></trkpt><trkpt lat="43.72691338491531" lon="11.16250491793543"><ele>238.0</ele><time>2026-03-22T10:08:32.01Z</time></trkpt><trkpt lat="43.726831732854905" lon="11.162464818964981"><ele>239.66666666666666</ele><time>2026-03-22T10:08:33.01Z</time></trkpt><trkpt lat="43.72678374437606" lon="11.16238238080648"><ele>241.33333333333331</ele><time>2026-03-22T10:08:34.01Z</time></trkpt><trkpt lat="43.72675163251627" lon="11.16228291581971"><ele>243.0</ele><time>2026-03-22T10:08:35.012Z</time></trkpt><trkpt lat="43.72670505433881" lon="11.162180703465605"><ele>244.66666666666669</ele><time>2026-03-22T10:08:36.011Z</time></trkpt><trkpt lat="43.72666171354335" lon="11.162078995800016"><ele>246.33333333333334</ele><time>2026-03-22T10:08:37.011Z</time></trkpt><trkpt lat="43.726619957483656" lon="11.16196791256412"><ele>248.0</ele><time>2026-03-22T10:08:38.011Z</time></trkpt><trkpt lat="43.72657096879636" lon="11.161839076521488"><ele>249.75</ele><time>2026-03-22T10:08:39.011Z</time></trkpt><trkpt lat="43.72651077205994" lon="11.16168990673179"><ele>251.5</ele><time>2026-03-22T10:08:40.011Z</time></trkpt><trkpt lat="43.72645487696584" lon="11.16152707486016"><ele>253.25</ele><time>2026-03-22T10:08:41.012Z</time></trkpt><trkpt lat="43.726358535289506" lon="11.161337921906256"><ele>255.0</ele><time>2026-03-22T10:08:42.011Z</time></trkpt><trkpt lat="43.72625920793584" lon="11.161146089867701"><ele>255.0</ele><time>2026-03-22T10:08:43.011Z</time></trkpt><trkpt lat="43.726170964177335" lon="11.160986914647347"><ele>255.0</ele><time>2026-03-22T10:08:44.011Z</time></trkpt><trkpt lat="43.7260837376475" lon="11.16082794673122"><ele>255.0</ele><time>2026-03-22T10:08:45.011Z</time></trkpt><trkpt lat="43.72599762664788" lon="11.160647116380115"><ele>255.0</ele><time>2026-03-22T10:08:46.011Z</time></trkpt><trkpt lat="43.72590687304143" lon="11.160492607011456"><ele>262.3333333333333</ele><time>2026-03-22T10:08:47.012Z</time></trkpt><trkpt lat="43.725805589896524" lon="11.16031808055332"><ele>269.66666666666663</ele><time>2026-03-22T10:08:48.012Z</time></trkpt><trkpt lat="43.72571983279953" lon="11.160148993491685"><ele>277.0</ele><time>2026-03-22T10:08:49.012Z</time></trkpt><trkpt lat="43.72562876271143" lon="11.159994434381902"><ele>275.0</ele><time>2026-03-22T10:08:50.012Z</time></trkpt><trkpt lat="43.725525979591595" lon="11.159823489627504"><ele>273.0</ele><time>2026-03-22T10:08:51.012Z</time></trkpt><trkpt lat="43.72542889318072" lon="11.159670989430662"><ele>271.0</ele><time>2026-03-22T10:08:52.012Z</time></trkpt><trkpt lat="43.725332935240516" lon="11.159520158843698"><ele>271.0</ele><time>2026-03-22T10:08:53.012Z</time></trkpt><trkpt lat="43.72523648537855" lon="11.159363080169502"><ele>271.0</ele><time>2026-03-22T10:08:54.012Z</time></trkpt><trkpt lat="43.72515923045858" lon="11.159198533331352"><ele>271.0</ele><time>2026-03-22T10:08:55.012Z</time></trkpt><trkpt lat="43.7250696866758" lon="11.159018484682457"><ele>271.0</ele><time>2026-03-22T10:08:56.012Z</time></trkpt><trkpt lat="43.72497747961806" lon="11.158813391531114"><ele>273.0</ele><time>2026-03-22T10:08:57.011Z</time></trkpt><trkpt lat="43.724879440747415" lon="11.15860167027942"><ele>275.0</ele><time>2026-03-22T10:08:58.011Z</time></trkpt><trkpt lat="43.72479294124901" lon="11.158392635066889"><ele>277.0</ele><time>2026-03-22T10:08:59.011Z</time></trkpt><trkpt lat="43.72471238996669" lon="11.158204950372024"><ele>276.25</ele><time>2026-03-22T10:09:00.011Z</time></trkpt><trkpt lat="43.724647217410634" lon="11.158039776735043"><ele>275.5</ele><time>2026-03-22T10:09:01.011Z</time></trkpt><trkpt lat="43.72457516170725" lon="11.157873480853551"><ele>274.75</ele><time>2026-03-22T10:09:02.011Z</time></trkpt><trkpt lat="43.72449795223155" lon="11.157721294951438"><ele>274.0</ele><time>2026-03-22T10:09:03.011Z</time></trkpt><trkpt lat="43.72440581463469" lon="11.157573503614197"><ele>277.25</ele><time>2026-03-22T10:09:04.011Z</time></trkpt><trkpt lat="43.724294303122214" lon="11.157421783048095"><ele>280.5</ele><time>2026-03-22T10:09:05.011Z</time></trkpt><trkpt lat="43.72417870435068" lon="11.157280806761742"><ele>283.75</ele><time>2026-03-22T10:09:06.011Z</time></trkpt><trkpt lat="43.72408445279129" lon="11.157160746667182"><ele>287.0</ele><time>2026-03-22T10:09:07.011Z</time></trkpt><trkpt lat="43.724003036154706" lon="11.157023740319191"><ele>287.0</ele><time>2026-03-22T10:09:08.011Z</time></trkpt><trkpt lat="43.72393588288968" lon="11.156874612026549"><ele>287.0</ele><time>2026-03-22T10:09:09.011Z</time></trkpt><trkpt lat="43.72389184172214" lon="11.15673212381223"><ele>287.0</ele><time>2026-03-22T10:09:10.011Z</time></trkpt><trkpt lat="43.72387261808978" lon="11.156594921074959"><ele>287.0</ele><time>2026-03-22T10:09:11.011Z</time></trkpt><trkpt lat="43.723880559574546" lon="11.156471437193934"><ele>287.0</ele><time>2026-03-22T10:09:12.011Z</time></trkpt><trkpt lat="43.7238825406744" lon="11.15634364670141"><ele>287.8</ele><time>2026-03-22T10:09:13.011Z</time></trkpt><trkpt lat="43.723878144512284" lon="11.156222989330983"><ele>288.6</ele><time>2026-03-22T10:09:14.011Z</time></trkpt><trkpt lat="43.72386593354503" lon="11.156089289851543"><ele>289.40000000000003</ele><time>2026-03-22T10:09:15.011Z</time></trkpt><trkpt lat="43.72383404876699" lon="11.155956976878365"><ele>290.2</ele><time>2026-03-22T10:09:16.011Z</time></trkpt><trkpt lat="43.72377518395597" lon="11.15580804621572"><ele>291.0</ele><time>2026-03-22T10:09:17.011Z</time></trkpt><trkpt lat="43.723724451980225" lon="11.155669437045654"><ele>292.0</ele><time>2026-03-22T10:09:18.011Z</time></trkpt><trkpt lat="43.72367636616389" lon="11.155531281959417"><ele>293.0</ele><time>2026-03-22T10:09:19.011Z</time></trkpt><trkpt lat="43.723653795360846" lon="11.155368018974954"><ele>294.0</ele><time>2026-03-22T10:09:20.011Z</time></trkpt><trkpt lat="43.72364980332588" lon="11.155209173362488"><ele>295.0</ele><time>2026-03-22T10:09:21.011Z</time></trkpt><trkpt lat="43.723663703783835" lon="11.155037937501657"><ele>297.0</ele><time>2026-03-22T10:09:22.011Z</time></trkpt><trkpt lat="43.723678612280075" lon="11.154843720427479"><ele>299.0</ele><time>2026-03-22T10:09:23.011Z</time></trkpt><trkpt lat="43.7236897785993" lon="11.154645753895304"><ele>301.0</ele><time>2026-03-22T10:09:24.011Z</time></trkpt><trkpt lat="43.72368662469723" lon="11.154438479931057"><ele>303.0</ele><time>2026-03-22T10:09:25.011Z</time></trkpt><trkpt lat="43.72368059890235" lon="11.154242625229584"><ele>303.0</ele><time>2026-03-22T10:09:26.011Z</time></trkpt><trkpt lat="43.72366801451475" lon="11.154055663414654"><ele>303.0</ele><time>2026-03-22T10:09:27.011Z</time></trkpt><trkpt lat="43.723653657120465" lon="11.153852287193768"><ele>303.0</ele><time>2026-03-22T10:09:28.011Z</time></trkpt><trkpt lat="43.723630779339274" lon="11.153656321759234"><ele>303.0</ele><time>2026-03-22T10:09:29.011Z</time></trkpt><trkpt lat="43.72360247960915" lon="11.153455313445463"><ele>305.0</ele><time>2026-03-22T10:09:30.011Z</time></trkpt><trkpt lat="43.723581535292396" lon="11.153258029425588"><ele>307.0</ele><time>2026-03-22T10:09:31.011Z</time></trkpt><trkpt lat="43.72357454818199" lon="11.153079447074852"><ele>309.0</ele><time>2026-03-22T10:09:32.011Z</time></trkpt><trkpt lat="43.72356955015597" lon="11.152897714663917"><ele>311.0</ele><time>2026-03-22T10:09:33.011Z</time></trkpt><trkpt lat="43.72356720636665" lon="11.152758072782264"><ele>313.0</ele><time>2026-03-22T10:09:34.011Z</time></trkpt><trkpt lat="43.723573575320664" lon="11.152625920769328"><ele>315.0</ele><time>2026-03-22T10:09:35.011Z</time></trkpt><trkpt lat="43.72357842834859" lon="11.152494842581802"><ele>317.0</ele><time>2026-03-22T10:09:36.011Z</time></trkpt><trkpt lat="43.723562746793974" lon="11.152376812491763"><ele>319.0</ele><time>2026-03-22T10:09:37.011Z</time></trkpt><trkpt lat="43.72353794494604" lon="11.152259960712499"><ele>321.0</ele><time>2026-03-22T10:09:38.011Z</time></trkpt><trkpt lat="43.72349847217704" lon="11.152134057465474"><ele>321.20000000000005</ele><time>2026-03-22T10:09:39.011Z</time></trkpt><trkpt lat="43.723467971530425" lon="11.151990903477627"><ele>321.40000000000003</ele><time>2026-03-22T10:09:40.011Z</time></trkpt><trkpt lat="43.72345272326451" lon="11.151851164297964"><ele>321.6</ele><time>2026-03-22T10:09:41.011Z</time></trkpt><trkpt lat="43.72344067929181" lon="11.151708886417483"><ele>321.8</ele><time>2026-03-22T10:09:42.011Z</time></trkpt><trkpt lat="43.723429445444786" lon="11.151571020339677"><ele>322.0</ele><time>2026-03-22T10:09:43.011Z</time></trkpt><trkpt lat="43.72342335897891" lon="11.15144560242626"><ele>321.8</ele><time>2026-03-22T10:09:44.011Z</time></trkpt><trkpt lat="43.72343500188863" lon="11.151339265526897"><ele>321.6</ele><time>2026-03-22T10:09:45.011Z</time></trkpt><trkpt lat="43.72347252325656" lon="11.151254058138251"><ele>321.40000000000003</ele><time>2026-03-22T10:09:46.011Z</time></trkpt><trkpt lat="43.72353587443106" lon="11.151162215217033"><ele>321.20000000000005</ele><time>2026-03-22T10:09:47.011Z</time></trkpt><trkpt lat="43.72361057588453" lon="11.15107003671973"><ele>321.0</ele><time>2026-03-22T10:09:48.011Z</time></trkpt><trkpt lat="43.723682383945906" lon="11.15093586907197"><ele>321.0</ele><time>2026-03-22T10:09:49.011Z</time></trkpt><trkpt lat="43.72375091565919" lon="11.150778493973997"><ele>321.0</ele><time>2026-03-22T10:09:50.011Z</time></trkpt><trkpt lat="43.72383129865231" lon="11.15060545745802"><ele>321.0</ele><time>2026-03-22T10:09:51.011Z</time></trkpt><trkpt lat="43.72391627710683" lon="11.150429767433005"><ele>321.0</ele><time>2026-03-22T10:09:52.011Z</time></trkpt><trkpt lat="43.723995882002505" lon="11.150248131615925"><ele>320.25</ele><time>2026-03-22T10:09:53.011Z</time></trkpt><trkpt lat="43.724067082064614" lon="11.150062435165871"><ele>319.5</ele><time>2026-03-22T10:09:54.011Z</time></trkpt><trkpt lat="43.72410338186058" lon="11.149887032647712"><ele>318.75</ele><time>2026-03-22T10:09:55.011Z</time></trkpt><trkpt lat="43.72411643857779" lon="11.14972217263"><ele>318.0</ele><time>2026-03-22T10:09:56.011Z</time></trkpt><trkpt lat="43.724117754061204" lon="11.149551904561244"><ele>317.75</ele><time>2026-03-22T10:09:57.011Z</time></trkpt><trkpt lat="43.72409437607437" lon="11.1493744312137"><ele>317.5</ele><time>2026-03-22T10:09:58.011Z</time></trkpt><trkpt lat="43.72405142922982" lon="11.14918615791018"><ele>317.25</ele><time>2026-03-22T10:09:59.011Z</time></trkpt><trkpt lat="43.72401898789658" lon="11.14899301149133"><ele>317.0</ele><time>2026-03-22T10:10:00.011Z</time></trkpt><trkpt lat="43.724018005310874" lon="11.148825183715743"><ele>316.0</ele><time>2026-03-22T10:10:01.011Z</time></trkpt><trkpt lat="43.724035326948695" lon="11.148669024945434"><ele>315.0</ele><time>2026-03-22T10:10:02.011Z</time></trkpt><trkpt lat="43.7240410426052" lon="11.148510883388035"><ele>314.0</ele><time>2026-03-22T10:10:03.011Z</time></trkpt><trkpt lat="43.7240169388268" lon="11.148360222503628"><ele>313.0</ele><time>2026-03-22T10:10:04.011Z</time></trkpt><trkpt lat="43.723979417232094" lon="11.148191986263928"><ele>311.25</ele><time>2026-03-22T10:10:05.011Z</time></trkpt><trkpt lat="43.723938343915854" lon="11.148019335770751"><ele>309.5</ele><time>2026-03-22T10:10:06.011Z</time></trkpt><trkpt lat="43.72391610025762" lon="11.1478343922607"><ele>307.75</ele><time>2026-03-22T10:10:07.011Z</time></trkpt><trkpt lat="43.72390526803394" lon="11.147658823120935"><ele>306.0</ele><time>2026-03-22T10:10:08.011Z</time></trkpt><trkpt lat="43.72387568858224" lon="11.147491854635506"><ele>303.5</ele><time>2026-03-22T10:10:09.011Z</time></trkpt><trkpt lat="43.72383019934138" lon="11.14735240370795"><ele>301.0</ele><time>2026-03-22T10:10:10.011Z</time></trkpt><trkpt lat="43.72375723570848" lon="11.14721234767208"><ele>298.5</ele><time>2026-03-22T10:10:11.011Z</time></trkpt><trkpt lat="43.72368804663824" lon="11.147071556939316"><ele>296.0</ele><time>2026-03-22T10:10:12.011Z</time></trkpt><trkpt lat="43.72362212047667" lon="11.146944024552544"><ele>296.0</ele><time>2026-03-22T10:10:13.011Z</time></trkpt><trkpt lat="43.72357941147045" lon="11.146818344673754"><ele>296.0</ele><time>2026-03-22T10:10:14.011Z</time></trkpt><trkpt lat="43.723551766820584" lon="11.146690099244548"><ele>296.0</ele><time>2026-03-22T10:10:15.011Z</time></trkpt><trkpt lat="43.72352394926821" lon="11.146583319710842"><ele>296.0</ele><time>2026-03-22T10:10:16.01Z</time></trkpt><trkpt lat="43.723478454394574" lon="11.146478750296072"><ele>296.0</ele><time>2026-03-22T10:10:17.01Z</time></trkpt><trkpt lat="43.72342842223733" lon="11.146379037310465"><ele>296.40000000000003</ele><time>2026-03-22T10:10:18.01Z</time></trkpt><trkpt lat="43.72338165371337" lon="11.146283717825924"><ele>296.8</ele><time>2026-03-22T10:10:19.01Z</time></trkpt><trkpt lat="43.72333549605445" lon="11.146195220754402"><ele>297.20000000000005</ele><time>2026-03-22T10:10:20.01Z</time></trkpt><trkpt lat="43.7233005758729" lon="11.146109237915018"><ele>297.6</ele><time>2026-03-22T10:10:21.01Z</time></trkpt><trkpt lat="43.723277527725934" lon="11.145973229477951"><ele>298.0</ele><time>2026-03-22T10:10:23.01Z</time></trkpt><trkpt lat="43.723241370149616" lon="11.145815246430345"><ele>298.0</ele><time>2026-03-22T10:10:26.01Z</time></trkpt><trkpt lat="43.72320155511893" lon="11.145719791223682"><ele>298.0</ele><time>2026-03-22T10:10:27.01Z</time></trkpt><trkpt lat="43.72316285911694" lon="11.145607894169078"><ele>298.0</ele><time>2026-03-22T10:10:28.01Z</time></trkpt><trkpt lat="43.72313254782088" lon="11.14548966197314"><ele>298.0</ele><time>2026-03-22T10:10:29.01Z</time></trkpt><trkpt lat="43.72310944375075" lon="11.145353227482643"><ele>298.0</ele><time>2026-03-22T10:10:30.01Z</time></trkpt><trkpt lat="43.723118669060135" lon="11.145208891786245"><ele>300.0</ele><time>2026-03-22T10:10:31.01Z</time></trkpt><trkpt lat="43.72313609158755" lon="11.145076589773469"><ele>302.0</ele><time>2026-03-22T10:10:32.01Z</time></trkpt><trkpt lat="43.72317633323228" lon="11.144930240904982"><ele>304.0</ele><time>2026-03-22T10:10:33.01Z</time></trkpt><trkpt lat="43.723217645396986" lon="11.144759279051263"><ele>306.0</ele><time>2026-03-22T10:10:34.01Z</time></trkpt><trkpt lat="43.723261483827606" lon="11.14457268659531"><ele>308.25</ele><time>2026-03-22T10:10:35.01Z</time></trkpt><trkpt lat="43.72330309567766" lon="11.144382153418825"><ele>310.5</ele><time>2026-03-22T10:10:36.01Z</time></trkpt><trkpt lat="43.723338654585376" lon="11.144214955392739"><ele>312.75</ele><time>2026-03-22T10:10:37.01Z</time></trkpt><trkpt lat="43.72338269808315" lon="11.144047520271146"><ele>315.0</ele><time>2026-03-22T10:10:38.01Z</time></trkpt><trkpt lat="43.72341055065103" lon="11.143884235592447"><ele>316.2</ele><time>2026-03-22T10:10:39.01Z</time></trkpt><trkpt lat="43.72343299087234" lon="11.14373231532406"><ele>317.4</ele><time>2026-03-22T10:10:40.012Z</time></trkpt><trkpt lat="43.72342734003377" lon="11.143588512771933"><ele>318.6</ele><time>2026-03-22T10:10:41.012Z</time></trkpt><trkpt lat="43.723395198940636" lon="11.143483188574201"><ele>319.8</ele><time>2026-03-22T10:10:42.012Z</time></trkpt><trkpt lat="43.723332382224534" lon="11.1434019502803"><ele>321.0</ele><time>2026-03-22T10:10:43.012Z</time></trkpt><trkpt lat="43.723262125891424" lon="11.143321180223463"><ele>321.0</ele><time>2026-03-22T10:10:44.012Z</time></trkpt><trkpt lat="43.7231871198315" lon="11.143239377345878"><ele>321.0</ele><time>2026-03-22T10:10:45.012Z</time></trkpt><trkpt lat="43.723114267189665" lon="11.143136459921838"><ele>321.0</ele><time>2026-03-22T10:10:46.012Z</time></trkpt><trkpt lat="43.72302539357724" lon="11.143022936738415"><ele>321.0</ele><time>2026-03-22T10:10:47.012Z</time></trkpt><trkpt lat="43.722925788771136" lon="11.142890227101345"><ele>321.0</ele><time>2026-03-22T10:10:48.012Z</time></trkpt><trkpt lat="43.72283745702953" lon="11.14275807361509"><ele>321.0</ele><time>2026-03-22T10:10:49.012Z</time></trkpt><trkpt lat="43.722763197769225" lon="11.142628198447593"><ele>321.0</ele><time>2026-03-22T10:10:50.012Z</time></trkpt><trkpt lat="43.72270803217755" lon="11.142485226319568"><ele>321.0</ele><time>2026-03-22T10:10:51.012Z</time></trkpt><trkpt lat="43.72267676554033" lon="11.142322281983143"><ele>323.75</ele><time>2026-03-22T10:10:52.013Z</time></trkpt><trkpt lat="43.722613357339945" lon="11.142170813880062"><ele>326.5</ele><time>2026-03-22T10:10:53.012Z</time></trkpt><trkpt lat="43.72265443032776" lon="11.141947183744815"><ele>329.25</ele><time>2026-03-22T10:10:54.012Z</time></trkpt><trkpt lat="43.722676212181035" lon="11.141757421060504"><ele>332.0</ele><time>2026-03-22T10:10:55.012Z</time></trkpt><trkpt lat="43.72269687488015" lon="11.141552297724498"><ele>326.0</ele><time>2026-03-22T10:10:56.012Z</time></trkpt><trkpt lat="43.722739816907946" lon="11.141342647011212"><ele>320.0</ele><time>2026-03-22T10:10:57.012Z</time></trkpt><trkpt lat="43.72277187859619" lon="11.141122695197435"><ele>314.0</ele><time>2026-03-22T10:10:58.012Z</time></trkpt><trkpt lat="43.722804765059806" lon="11.140890978797968"><ele>313.5</ele><time>2026-03-22T10:10:59.012Z</time></trkpt><trkpt lat="43.72284629349148" lon="11.140682989716677"><ele>313.0</ele><time>2026-03-22T10:11:00.012Z</time></trkpt><trkpt lat="43.72289097267616" lon="11.14049669922483"><ele>312.5</ele><time>2026-03-22T10:11:01.012Z</time></trkpt><trkpt lat="43.72291517124783" lon="11.14033346816649"><ele>312.0</ele><time>2026-03-22T10:11:02.012Z</time></trkpt><trkpt lat="43.72292104935469" lon="11.14020481559012"><ele>312.0</ele><time>2026-03-22T10:11:03.012Z</time></trkpt><trkpt lat="43.722888536056274" lon="11.14010924868859"><ele>312.0</ele><time>2026-03-22T10:11:04.012Z</time></trkpt><trkpt lat="43.72282934103977" lon="11.140025140129488"><ele>312.0</ele><time>2026-03-22T10:11:05.012Z</time></trkpt><trkpt lat="43.722765924243745" lon="11.139940946455033"><ele>312.0</ele><time>2026-03-22T10:11:06.012Z</time></trkpt><trkpt lat="43.72267228534857" lon="11.139879499850625"><ele>312.0</ele><time>2026-03-22T10:11:07.012Z</time></trkpt><trkpt lat="43.722597390940514" lon="11.139782067980159"><ele>313.0</ele><time>2026-03-22T10:11:08.012Z</time></trkpt><trkpt lat="43.722552484124954" lon="11.13968045611571"><ele>314.0</ele><time>2026-03-22T10:11:09.012Z</time></trkpt><trkpt lat="43.72257054346927" lon="11.139561317361625"><ele>315.0</ele><time>2026-03-22T10:11:10.012Z</time></trkpt><trkpt lat="43.72260245557301" lon="11.13941564480958"><ele>316.0</ele><time>2026-03-22T10:11:11.012Z</time></trkpt><trkpt lat="43.722691696204265" lon="11.139335563828377"><ele>317.0</ele><time>2026-03-22T10:11:12.012Z</time></trkpt><trkpt lat="43.72277434985299" lon="11.139180400388927"><ele>319.6666666666667</ele><time>2026-03-22T10:11:13.012Z</time></trkpt><trkpt lat="43.722849823555364" lon="11.13902260867276"><ele>322.3333333333333</ele><time>2026-03-22T10:11:14.012Z</time></trkpt><trkpt lat="43.72290331293176" lon="11.138810191003266"><ele>325.0</ele><time>2026-03-22T10:11:15.012Z</time></trkpt><trkpt lat="43.72295210132766" lon="11.138611972084034"><ele>325.0</ele><time>2026-03-22T10:11:16.012Z</time></trkpt><trkpt lat="43.72298212292279" lon="11.138438892565848"><ele>325.0</ele><time>2026-03-22T10:11:17.012Z</time></trkpt><trkpt lat="43.72299348460474" lon="11.138272402569829"><ele>325.0</ele><time>2026-03-22T10:11:18.012Z</time></trkpt><trkpt lat="43.72298072305097" lon="11.138124826146782"><ele>325.0</ele><time>2026-03-22T10:11:19.012Z</time></trkpt><trkpt lat="43.72293700684368" lon="11.13799818705306"><ele>326.5</ele><time>2026-03-22T10:11:20.012Z</time></trkpt><trkpt lat="43.72287240423044" lon="11.137863545144741"><ele>328.0</ele><time>2026-03-22T10:11:21.012Z</time></trkpt><trkpt lat="43.722785624324075" lon="11.137733371449938"><ele>329.5</ele><time>2026-03-22T10:11:22.012Z</time></trkpt><trkpt lat="43.72272364861343" lon="11.137570401444544"><ele>331.0</ele><time>2026-03-22T10:11:23.012Z</time></trkpt><trkpt lat="43.72263725502488" lon="11.137416442069842"><ele>334.8</ele><time>2026-03-22T10:11:24.012Z</time></trkpt><trkpt lat="43.722564801377096" lon="11.137279217344789"><ele>338.6</ele><time>2026-03-22T10:11:25.012Z</time></trkpt><trkpt lat="43.722486873572045" lon="11.137173422183425"><ele>342.4</ele><time>2026-03-22T10:11:26.012Z</time></trkpt><trkpt lat="43.722399985546794" lon="11.13708893666816"><ele>346.2</ele><time>2026-03-22T10:11:27.012Z</time></trkpt><trkpt lat="43.72230113354319" lon="11.137020447200948"><ele>350.0</ele><time>2026-03-22T10:11:28.012Z</time></trkpt><trkpt lat="43.72219176846928" lon="11.136942364246776"><ele>350.0</ele><time>2026-03-22T10:11:29.012Z</time></trkpt><trkpt lat="43.72208465517513" lon="11.136855788823887"><ele>350.0</ele><time>2026-03-22T10:11:30.012Z</time></trkpt><trkpt lat="43.7219877180411" lon="11.136766422856633"><ele>350.0</ele><time>2026-03-22T10:11:31.012Z</time></trkpt><trkpt lat="43.72190300401124" lon="11.136674524229626"><ele>350.0</ele><time>2026-03-22T10:11:32.012Z</time></trkpt><trkpt lat="43.72183872838329" lon="11.136580955312024"><ele>350.0</ele><time>2026-03-22T10:11:33.012Z</time></trkpt><trkpt lat="43.721799312055815" lon="11.13648286906841"><ele>346.4</ele><time>2026-03-22T10:11:34.012Z</time></trkpt><trkpt lat="43.72177834634745" lon="11.136382018186518"><ele>342.8</ele><time>2026-03-22T10:11:35.012Z</time></trkpt><trkpt lat="43.7217937846914" lon="11.136257994880896"><ele>339.20000000000005</ele><time>2026-03-22T10:11:36.012Z</time></trkpt><trkpt lat="43.721790098249514" lon="11.136090852707765"><ele>335.6</ele><time>2026-03-22T10:11:37.012Z</time></trkpt><trkpt lat="43.72177374868026" lon="11.13590885396051"><ele>332.0</ele><time>2026-03-22T10:11:38.012Z</time></trkpt><trkpt lat="43.72173597049185" lon="11.135721692464992"><ele>333.33333333333337</ele><time>2026-03-22T10:11:39.011Z</time></trkpt><trkpt lat="43.721713726479685" lon="11.13552036504883"><ele>334.6666666666667</ele><time>2026-03-22T10:11:40.011Z</time></trkpt><trkpt lat="43.72168591412993" lon="11.135302084683868"><ele>336.0</ele><time>2026-03-22T10:11:41.011Z</time></trkpt><trkpt lat="43.721667043834714" lon="11.135088907501837"><ele>336.0</ele><time>2026-03-22T10:11:42.011Z</time></trkpt><trkpt lat="43.721677449048684" lon="11.134894207686438"><ele>336.0</ele><time>2026-03-22T10:11:43.011Z</time></trkpt><trkpt lat="43.72169881949355" lon="11.134711553224072"><ele>336.0</ele><time>2026-03-22T10:11:44.011Z</time></trkpt><trkpt lat="43.721717403266375" lon="11.134527701185446"><ele>336.0</ele><time>2026-03-22T10:11:45.011Z</time></trkpt><trkpt lat="43.72172284194929" lon="11.134330021227974"><ele>334.0</ele><time>2026-03-22T10:11:46.011Z</time></trkpt><trkpt lat="43.721762777711334" lon="11.134133900719139"><ele>332.0</ele><time>2026-03-22T10:11:47.011Z</time></trkpt><trkpt lat="43.72180826391007" lon="11.133922122156283"><ele>330.0</ele><time>2026-03-22T10:11:48.011Z</time></trkpt><trkpt lat="43.721854716141344" lon="11.133716629688097"><ele>327.75</ele><time>2026-03-22T10:11:49.011Z</time></trkpt><trkpt lat="43.72185719914149" lon="11.133532651531098"><ele>325.5</ele><time>2026-03-22T10:11:50.011Z</time></trkpt><trkpt lat="43.72185356246169" lon="11.133353031131223"><ele>323.25</ele><time>2026-03-22T10:11:51.011Z</time></trkpt><trkpt lat="43.72183946428989" lon="11.133169187893463"><ele>321.0</ele><time>2026-03-22T10:11:52.011Z</time></trkpt><trkpt lat="43.721845001179645" lon="11.1329845458822"><ele>319.5</ele><time>2026-03-22T10:11:53.011Z</time></trkpt><trkpt lat="43.72188552275921" lon="11.132819808741452"><ele>318.0</ele><time>2026-03-22T10:11:54.011Z</time></trkpt><trkpt lat="43.72193041860347" lon="11.132656245544553"><ele>316.5</ele><time>2026-03-22T10:11:55.011Z</time></trkpt><trkpt lat="43.72199136234022" lon="11.132507588423913"><ele>315.0</ele><time>2026-03-22T10:11:56.011Z</time></trkpt><trkpt lat="43.722056398749466" lon="11.132329313304302"><ele>315.0</ele><time>2026-03-22T10:11:57.011Z</time></trkpt><trkpt lat="43.72214082850288" lon="11.13217558517031"><ele>315.0</ele><time>2026-03-22T10:11:58.011Z</time></trkpt><trkpt lat="43.722261534927085" lon="11.132023189517922"><ele>315.0</ele><time>2026-03-22T10:11:59.011Z</time></trkpt><trkpt lat="43.72236493982009" lon="11.131880499436447"><ele>315.0</ele><time>2026-03-22T10:12:00.011Z</time></trkpt><trkpt lat="43.72246172157971" lon="11.131759899860098"><ele>315.0</ele><time>2026-03-22T10:12:01.011Z</time></trkpt><trkpt lat="43.722567355881466" lon="11.131657653960474"><ele>315.0</ele><time>2026-03-22T10:12:02.011Z</time></trkpt><trkpt lat="43.72267131639212" lon="11.131561875979044"><ele>315.0</ele><time>2026-03-22T10:12:03.011Z</time></trkpt><trkpt lat="43.72275171821035" lon="11.131462332803565"><ele>315.0</ele><time>2026-03-22T10:12:04.011Z</time></trkpt><trkpt lat="43.72279659305823" lon="11.131379663727191"><ele>315.0</ele><time>2026-03-22T10:12:05.011Z</time></trkpt><trkpt lat="43.72278118368031" lon="11.131293190463953"><ele>312.2</ele><time>2026-03-22T10:12:06.011Z</time></trkpt><trkpt lat="43.722696215616" lon="11.131175353075193"><ele>309.4</ele><time>2026-03-22T10:12:08.011Z</time></trkpt><trkpt lat="43.7225911568269" lon="11.131174761219933"><ele>306.6</ele><time>2026-03-22T10:12:09.011Z</time></trkpt><trkpt lat="43.72250320863373" lon="11.1311989414799"><ele>303.8</ele><time>2026-03-22T10:12:10.011Z</time></trkpt><trkpt lat="43.72239883989931" lon="11.13124085807146"><ele>301.0</ele><time>2026-03-22T10:12:11.011Z</time></trkpt><trkpt lat="43.72228622813298" lon="11.131284599025998"><ele>301.0</ele><time>2026-03-22T10:12:12.011Z</time></trkpt><trkpt lat="43.72217191976679" lon="11.131330702465595"><ele>301.0</ele><time>2026-03-22T10:12:13.011Z</time></trkpt><trkpt lat="43.7220437903353" lon="11.131393471668607"><ele>301.0</ele><time>2026-03-22T10:12:14.011Z</time></trkpt><trkpt lat="43.72191206862692" lon="11.131437513018538"><ele>301.0</ele><time>2026-03-22T10:12:15.011Z</time></trkpt><trkpt lat="43.72180470918943" lon="11.131477300695643"><ele>301.0</ele><time>2026-03-22T10:12:16.011Z</time></trkpt><trkpt lat="43.72169813503515" lon="11.13149315900536"><ele>301.0</ele><time>2026-03-22T10:12:17.011Z</time></trkpt><trkpt lat="43.7216066742303" lon="11.131545616298693"><ele>301.0</ele><time>2026-03-22T10:12:18.011Z</time></trkpt><trkpt lat="43.72152403685597" lon="11.13163458402035"><ele>301.0</ele><time>2026-03-22T10:12:19.011Z</time></trkpt><trkpt lat="43.721433485338665" lon="11.13170854571796"><ele>301.0</ele><time>2026-03-22T10:12:20.011Z</time></trkpt><trkpt lat="43.721355227203176" lon="11.131810369985082"><ele>301.0</ele><time>2026-03-22T10:12:21.011Z</time></trkpt><trkpt lat="43.72128583837922" lon="11.13193427655977"><ele>301.0</ele><time>2026-03-22T10:12:22.011Z</time></trkpt><trkpt lat="43.72120602700561" lon="11.13200814612139"><ele>301.0</ele><time>2026-03-22T10:12:23.011Z</time></trkpt><trkpt lat="43.72112279973669" lon="11.132102992227543"><ele>301.0</ele><time>2026-03-22T10:12:25.011Z</time></trkpt><trkpt lat="43.72102077972833" lon="11.132062305114735"><ele>301.0</ele><time>2026-03-22T10:12:27.011Z</time></trkpt><trkpt lat="43.72108638001937" lon="11.131882701286981"><ele>301.0</ele><time>2026-03-22T10:12:28.011Z</time></trkpt><trkpt lat="43.72112727026756" lon="11.131787548169203"><ele>301.0</ele><time>2026-03-22T10:12:29.011Z</time></trkpt><trkpt lat="43.72115494221798" lon="11.131677536244311"><ele>301.0</ele><time>2026-03-22T10:12:30.011Z</time></trkpt><trkpt lat="43.72117923678308" lon="11.131533325281074"><ele>301.0</ele><time>2026-03-22T10:12:31.011Z</time></trkpt><trkpt lat="43.72120205423541" lon="11.13138232540035"><ele>301.0</ele><time>2026-03-22T10:12:32.011Z</time></trkpt><trkpt lat="43.7212068050438" lon="11.131240626543597"><ele>299.25</ele><time>2026-03-22T10:12:33.011Z</time></trkpt><trkpt lat="43.72120550777082" lon="11.13105604703829"><ele>297.5</ele><time>2026-03-22T10:12:34.011Z</time></trkpt><trkpt lat="43.72121548892911" lon="11.130871741151681"><ele>295.75</ele><time>2026-03-22T10:12:35.011Z</time></trkpt><trkpt lat="43.721236562074154" lon="11.130713767359005"><ele>294.0</ele><time>2026-03-22T10:12:36.011Z</time></trkpt><trkpt lat="43.721261080314186" lon="11.130568206679362"><ele>292.0</ele><time>2026-03-22T10:12:37.011Z</time></trkpt><trkpt lat="43.72130942301139" lon="11.130437399570523"><ele>290.0</ele><time>2026-03-22T10:12:38.011Z</time></trkpt><trkpt lat="43.72139945425403" lon="11.130346432738735"><ele>288.0</ele><time>2026-03-22T10:12:39.011Z</time></trkpt><trkpt lat="43.721493434949856" lon="11.130250438327728"><ele>286.0</ele><time>2026-03-22T10:12:40.011Z</time></trkpt><trkpt lat="43.721588844535496" lon="11.130158172297204"><ele>286.0</ele><time>2026-03-22T10:12:41.011Z</time></trkpt><trkpt lat="43.72168217781077" lon="11.130039750158904"><ele>286.0</ele><time>2026-03-22T10:12:42.011Z</time></trkpt><trkpt lat="43.72176763872811" lon="11.129917185422341"><ele>286.0</ele><time>2026-03-22T10:12:43.011Z</time></trkpt><trkpt lat="43.72183926920983" lon="11.129779283394095"><ele>286.0</ele><time>2026-03-22T10:12:44.011Z</time></trkpt><trkpt lat="43.72188420761715" lon="11.12963269660868"><ele>285.0</ele><time>2026-03-22T10:12:45.011Z</time></trkpt><trkpt lat="43.72190400273413" lon="11.129492535829778"><ele>284.0</ele><time>2026-03-22T10:12:46.013Z</time></trkpt><trkpt lat="43.72189798261318" lon="11.129354570996139"><ele>283.0</ele><time>2026-03-22T10:12:47.013Z</time></trkpt><trkpt lat="43.72187389234035" lon="11.129214856543838"><ele>282.0</ele><time>2026-03-22T10:12:48.013Z</time></trkpt><trkpt lat="43.721829375056" lon="11.129065237708282"><ele>281.0</ele><time>2026-03-22T10:12:49.013Z</time></trkpt><trkpt lat="43.72175540364653" lon="11.128909418154546"><ele>279.33333333333337</ele><time>2026-03-22T10:12:50.013Z</time></trkpt><trkpt lat="43.72166996847486" lon="11.128727787532446"><ele>277.6666666666667</ele><time>2026-03-22T10:12:51.013Z</time></trkpt><trkpt lat="43.72157989774563" lon="11.128534463595443"><ele>276.0</ele><time>2026-03-22T10:12:52.013Z</time></trkpt><trkpt lat="43.721515066860306" lon="11.128345316815755"><ele>273.0</ele><time>2026-03-22T10:12:53.013Z</time></trkpt><trkpt lat="43.72145118265921" lon="11.128173768039062"><ele>270.0</ele><time>2026-03-22T10:12:54.012Z</time></trkpt><trkpt lat="43.7213708883869" lon="11.128026889652677"><ele>267.0</ele><time>2026-03-22T10:12:55.012Z</time></trkpt><trkpt lat="43.72125122013552" lon="11.127903229614777"><ele>264.0</ele><time>2026-03-22T10:12:56.013Z</time></trkpt><trkpt lat="43.72112716466917" lon="11.127794011317128"><ele>264.5</ele><time>2026-03-22T10:12:57.013Z</time></trkpt><trkpt lat="43.721007457390236" lon="11.127687333323438"><ele>265.0</ele><time>2026-03-22T10:12:58.013Z</time></trkpt><trkpt lat="43.720887790165975" lon="11.127570753662306"><ele>265.5</ele><time>2026-03-22T10:12:59.013Z</time></trkpt><trkpt lat="43.72076945871881" lon="11.127450135201942"><ele>266.0</ele><time>2026-03-22T10:13:00.013Z</time></trkpt><trkpt lat="43.720655212322484" lon="11.127338041046439"><ele>264.5</ele><time>2026-03-22T10:13:01.013Z</time></trkpt><trkpt lat="43.720551503380044" lon="11.127238513484047"><ele>263.0</ele><time>2026-03-22T10:13:02.013Z</time></trkpt><trkpt lat="43.720441377489266" lon="11.127131609121479"><ele>261.5</ele><time>2026-03-22T10:13:03.013Z</time></trkpt><trkpt lat="43.72034386390568" lon="11.127002320783529"><ele>260.0</ele><time>2026-03-22T10:13:04.013Z</time></trkpt><trkpt lat="43.720266398317555" lon="11.126849758779292"><ele>259.75</ele><time>2026-03-22T10:13:05.013Z</time></trkpt><trkpt lat="43.72019746969316" lon="11.126684570771001"><ele>259.5</ele><time>2026-03-22T10:13:06.013Z</time></trkpt><trkpt lat="43.720132559117815" lon="11.126526571282726"><ele>259.25</ele><time>2026-03-22T10:13:07.013Z</time></trkpt><trkpt lat="43.720061633761794" lon="11.12637117456355"><ele>259.0</ele><time>2026-03-22T10:13:08.013Z</time></trkpt><trkpt lat="43.71998832118501" lon="11.126220849388726"><ele>257.5</ele><time>2026-03-22T10:13:09.013Z</time></trkpt><trkpt lat="43.71990965052097" lon="11.126066917246407"><ele>256.0</ele><time>2026-03-22T10:13:10.013Z</time></trkpt><trkpt lat="43.71983663840997" lon="11.12591062420607"><ele>254.5</ele><time>2026-03-22T10:13:11.013Z</time></trkpt><trkpt lat="43.719782915413546" lon="11.125758356250236"><ele>253.0</ele><time>2026-03-22T10:13:12.013Z</time></trkpt><trkpt lat="43.719734682346505" lon="11.12560545556137"><ele>252.8</ele><time>2026-03-22T10:13:13.013Z</time></trkpt><trkpt lat="43.71969058555728" lon="11.125469082674533"><ele>252.60000000000002</ele><time>2026-03-22T10:13:14.013Z</time></trkpt><trkpt lat="43.719648812098114" lon="11.125350236774144"><ele>252.39999999999998</ele><time>2026-03-22T10:13:15.013Z</time></trkpt><trkpt lat="43.719608818163344" lon="11.125235234789514"><ele>252.2</ele><time>2026-03-22T10:13:16.013Z</time></trkpt><trkpt lat="43.719569668669486" lon="11.125132757181003"><ele>252.0</ele><time>2026-03-22T10:13:17.013Z</time></trkpt><trkpt lat="43.71952650741365" lon="11.125024009524557"><ele>252.0</ele><time>2026-03-22T10:13:18.013Z</time></trkpt><trkpt lat="43.719458991780265" lon="11.124938743237319"><ele>252.0</ele><time>2026-03-22T10:13:19.013Z</time></trkpt><trkpt lat="43.71937378784662" lon="11.124897275075204"><ele>252.0</ele><time>2026-03-22T10:13:20.013Z</time></trkpt><trkpt lat="43.719281619899114" lon="11.124878703769228"><ele>252.0</ele><time>2026-03-22T10:13:21.013Z</time></trkpt><trkpt lat="43.71917591303895" lon="11.12484043429692"><ele>252.0</ele><time>2026-03-22T10:13:22.013Z</time></trkpt><trkpt lat="43.719072240558795" lon="11.124783265134568"><ele>247.75</ele><time>2026-03-22T10:13:23.013Z</time></trkpt><trkpt lat="43.71897126041937" lon="11.124677549381333"><ele>243.5</ele><time>2026-03-22T10:13:24.013Z</time></trkpt><trkpt lat="43.71886675653955" lon="11.12454763322312"><ele>239.25</ele><time>2026-03-22T10:13:25.013Z</time></trkpt><trkpt lat="43.71876112038114" lon="11.124398697460142"><ele>235.0</ele><time>2026-03-22T10:13:26.013Z</time></trkpt><trkpt lat="43.71866300783199" lon="11.124276566177357"><ele>231.0</ele><time>2026-03-22T10:13:27.013Z</time></trkpt><trkpt lat="43.71855720172588" lon="11.124165107897642"><ele>227.0</ele><time>2026-03-22T10:13:28.013Z</time></trkpt><trkpt lat="43.718450992734184" lon="11.12406167264085"><ele>223.0</ele><time>2026-03-22T10:13:29.013Z</time></trkpt><trkpt lat="43.71834568730051" lon="11.123987981494404"><ele>219.0</ele><time>2026-03-22T10:13:30.013Z</time></trkpt><trkpt lat="43.718237833989555" lon="11.12392792139878"><ele>218.16666666666666</ele><time>2026-03-22T10:13:31.013Z</time></trkpt><trkpt lat="43.718145700772716" lon="11.123868668076213"><ele>217.33333333333331</ele><time>2026-03-22T10:13:32.013Z</time></trkpt><trkpt lat="43.71806904205336" lon="11.123822295126617"><ele>216.5</ele><time>2026-03-22T10:13:33.013Z</time></trkpt><trkpt lat="43.71799352284272" lon="11.12375554204487"><ele>215.66666666666666</ele><time>2026-03-22T10:13:34.013Z</time></trkpt><trkpt lat="43.7179455421932" lon="11.123663481097838"><ele>214.83333333333331</ele><time>2026-03-22T10:13:35.013Z</time></trkpt><trkpt lat="43.71793994221539" lon="11.123537242376349"><ele>214.0</ele><time>2026-03-22T10:13:36.013Z</time></trkpt><trkpt lat="43.71795674730026" lon="11.12340408501481"><ele>213.99999999999997</ele><time>2026-03-22T10:13:37.013Z</time></trkpt><trkpt lat="43.717978376820625" lon="11.1232985637721"><ele>214.0</ele><time>2026-03-22T10:13:38.013Z</time></trkpt><trkpt lat="43.717955489227236" lon="11.123197345401325"><ele>214.0</ele><time>2026-03-22T10:13:39.013Z</time></trkpt><trkpt lat="43.71789589958046" lon="11.123117936572779"><ele>214.0</ele><time>2026-03-22T10:13:40.013Z</time></trkpt><trkpt lat="43.71782788722491" lon="11.123048601350227"><ele>213.99999999999997</ele><time>2026-03-22T10:13:41.013Z</time></trkpt><trkpt lat="43.717723947331294" lon="11.123102237851453"><ele>214.0</ele><time>2026-03-22T10:13:42.013Z</time></trkpt><trkpt lat="43.71764964245565" lon="11.12317303265376"><ele>211.6</ele><time>2026-03-22T10:13:43.013Z</time></trkpt><trkpt lat="43.717557383693894" lon="11.123233462102853"><ele>209.2</ele><time>2026-03-22T10:13:44.013Z</time></trkpt><trkpt lat="43.7174658598534" lon="11.123259857770368"><ele>206.79999999999998</ele><time>2026-03-22T10:13:45.013Z</time></trkpt><trkpt lat="43.71737229580213" lon="11.123243567154688"><ele>204.39999999999998</ele><time>2026-03-22T10:13:46.013Z</time></trkpt><trkpt lat="43.71729338755224" lon="11.123182664755742"><ele>202.0</ele><time>2026-03-22T10:13:47.012Z</time></trkpt><trkpt lat="43.717215205441356" lon="11.123100186201736"><ele>201.0</ele><time>2026-03-22T10:13:48.012Z</time></trkpt><trkpt lat="43.71711350437584" lon="11.122995855168085"><ele>200.0</ele><time>2026-03-22T10:13:49.012Z</time></trkpt><trkpt lat="43.71701473991362" lon="11.122878647380935"><ele>199.0</ele><time>2026-03-22T10:13:50.012Z</time></trkpt><trkpt lat="43.716908807242724" lon="11.122762784103438"><ele>198.0</ele><time>2026-03-22T10:13:51.012Z</time></trkpt><trkpt lat="43.71680577053376" lon="11.122649292735293"><ele>196.5</ele><time>2026-03-22T10:13:52.012Z</time></trkpt><trkpt lat="43.716701850907356" lon="11.122551199514433"><ele>195.0</ele><time>2026-03-22T10:13:53.012Z</time></trkpt><trkpt lat="43.71659959660913" lon="11.122453291827338"><ele>193.5</ele><time>2026-03-22T10:13:54.012Z</time></trkpt><trkpt lat="43.71650150731671" lon="11.122358814385892"><ele>192.0</ele><time>2026-03-22T10:13:55.012Z</time></trkpt><trkpt lat="43.71641531612948" lon="11.122263762212663"><ele>190.39999999999998</ele><time>2026-03-22T10:13:56.012Z</time></trkpt><trkpt lat="43.716340991745795" lon="11.122148655037256"><ele>188.79999999999998</ele><time>2026-03-22T10:13:57.012Z</time></trkpt><trkpt lat="43.71627739696534" lon="11.12204051801325"><ele>187.2</ele><time>2026-03-22T10:13:58.012Z</time></trkpt><trkpt lat="43.716206134205585" lon="11.121914855102075"><ele>185.6</ele><time>2026-03-22T10:13:59.012Z</time></trkpt><trkpt lat="43.71615227341014" lon="11.12178315591479"><ele>184.0</ele><time>2026-03-22T10:14:00.012Z</time></trkpt><trkpt lat="43.71609102539274" lon="11.121650431050815"><ele>183.25</ele><time>2026-03-22T10:14:01.012Z</time></trkpt><trkpt lat="43.71601466142326" lon="11.121530172020472"><ele>182.5</ele><time>2026-03-22T10:14:02.012Z</time></trkpt><trkpt lat="43.715929605086636" lon="11.121406288552315"><ele>181.75</ele><time>2026-03-22T10:14:03.012Z</time></trkpt><trkpt lat="43.71584060063952" lon="11.121259738956619"><ele>181.0</ele><time>2026-03-22T10:14:04.012Z</time></trkpt><trkpt lat="43.71576435386214" lon="11.121112477586065"><ele>181.0</ele><time>2026-03-22T10:14:05.012Z</time></trkpt><trkpt lat="43.71566316408804" lon="11.120968350223423"><ele>181.0</ele><time>2026-03-22T10:14:06.012Z</time></trkpt><trkpt lat="43.715573876679024" lon="11.120795936896371"><ele>181.0</ele><time>2026-03-22T10:14:07.012Z</time></trkpt><trkpt lat="43.71551764344434" lon="11.120623383643306"><ele>181.0</ele><time>2026-03-22T10:14:08.012Z</time></trkpt><trkpt lat="43.71544296331757" lon="11.120485668201885"><ele>178.75</ele><time>2026-03-22T10:14:09.012Z</time></trkpt><trkpt lat="43.7153963317539" lon="11.120326478394777"><ele>176.5</ele><time>2026-03-22T10:14:10.012Z</time></trkpt><trkpt lat="43.715348629447945" lon="11.120157046386666"><ele>174.25</ele><time>2026-03-22T10:14:11.012Z</time></trkpt><trkpt lat="43.71530292466141" lon="11.11998562187359"><ele>172.0</ele><time>2026-03-22T10:14:12.012Z</time></trkpt><trkpt lat="43.7152611901476" lon="11.119817706180877"><ele>171.6</ele><time>2026-03-22T10:14:13.012Z</time></trkpt><trkpt lat="43.7152403898239" lon="11.119663802115992"><ele>171.2</ele><time>2026-03-22T10:14:14.012Z</time></trkpt><trkpt lat="43.715206438440816" lon="11.119514471992781"><ele>170.8</ele><time>2026-03-22T10:14:15.012Z</time></trkpt><trkpt lat="43.71516179443201" lon="11.11938338661931"><ele>170.4</ele><time>2026-03-22T10:14:16.012Z</time></trkpt><trkpt lat="43.715104731431246" lon="11.119264986215773"><ele>170.0</ele><time>2026-03-22T10:14:17.012Z</time></trkpt><trkpt lat="43.71502032451141" lon="11.119156544487593"><ele>166.75</ele><time>2026-03-22T10:14:18.012Z</time></trkpt><trkpt lat="43.71491768030838" lon="11.11906348422161"><ele>163.5</ele><time>2026-03-22T10:14:19.012Z</time></trkpt><trkpt lat="43.71480545709969" lon="11.118973134616947"><ele>160.25</ele><time>2026-03-22T10:14:20.012Z</time></trkpt><trkpt lat="43.714686642957105" lon="11.118882433709715"><ele>157.0</ele><time>2026-03-22T10:14:21.012Z</time></trkpt><trkpt lat="43.714566326512724" lon="11.118783087713906"><ele>157.0</ele><time>2026-03-22T10:14:22.012Z</time></trkpt><trkpt lat="43.714460162361" lon="11.118666943187186"><ele>157.0</ele><time>2026-03-22T10:14:23.012Z</time></trkpt><trkpt lat="43.7143729779412" lon="11.118537467837188"><ele>157.0</ele><time>2026-03-22T10:14:24.012Z</time></trkpt><trkpt lat="43.71429562724918" lon="11.118398014431488"><ele>157.0</ele><time>2026-03-22T10:14:25.012Z</time></trkpt><trkpt lat="43.71423593144651" lon="11.11825663253419"><ele>156.5</ele><time>2026-03-22T10:14:26.012Z</time></trkpt><trkpt lat="43.71418564213322" lon="11.11812350341005"><ele>156.0</ele><time>2026-03-22T10:14:27.012Z</time></trkpt><trkpt lat="43.714154691756846" lon="11.117973059008568"><ele>155.5</ele><time>2026-03-22T10:14:28.012Z</time></trkpt><trkpt lat="43.71412775635787" lon="11.117825264754106"><ele>155.0</ele><time>2026-03-22T10:14:29.012Z</time></trkpt><trkpt lat="43.71409171850847" lon="11.117667794365177"><ele>155.0</ele><time>2026-03-22T10:14:30.012Z</time></trkpt><trkpt lat="43.714041161953844" lon="11.117507172731946"><ele>155.0</ele><time>2026-03-22T10:14:31.012Z</time></trkpt><trkpt lat="43.71399476785853" lon="11.117333011501369"><ele>155.0</ele><time>2026-03-22T10:14:32.012Z</time></trkpt><trkpt lat="43.713954427311855" lon="11.117159962633751"><ele>155.0</ele><time>2026-03-22T10:14:33.012Z</time></trkpt><trkpt lat="43.713928067080644" lon="11.11699194333432"><ele>153.0</ele><time>2026-03-22T10:14:34.012Z</time></trkpt><trkpt lat="43.71390379535504" lon="11.116817369182746"><ele>151.0</ele><time>2026-03-22T10:14:35.012Z</time></trkpt><trkpt lat="43.71389107984696" lon="11.116654766961448"><ele>149.0</ele><time>2026-03-22T10:14:36.012Z</time></trkpt><trkpt lat="43.71388052501002" lon="11.116489936077645"><ele>147.0</ele><time>2026-03-22T10:14:37.012Z</time></trkpt><trkpt lat="43.71387761681923" lon="11.116317766134683"><ele>146.25</ele><time>2026-03-22T10:14:38.012Z</time></trkpt><trkpt lat="43.71388513703999" lon="11.116145964994459"><ele>145.5</ele><time>2026-03-22T10:14:39.012Z</time></trkpt><trkpt lat="43.71389804654353" lon="11.115987229025162"><ele>144.75</ele><time>2026-03-22T10:14:40.012Z</time></trkpt><trkpt lat="43.71393341434451" lon="11.115829579101806"><ele>144.0</ele><time>2026-03-22T10:14:41.012Z</time></trkpt><trkpt lat="43.71397980864874" lon="11.115672995227055"><ele>143.75</ele><time>2026-03-22T10:14:42.012Z</time></trkpt><trkpt lat="43.71403135744793" lon="11.115520363236229"><ele>143.5</ele><time>2026-03-22T10:14:43.012Z</time></trkpt><trkpt lat="43.71408366617217" lon="11.115364154932248"><ele>143.25</ele><time>2026-03-22T10:14:44.012Z</time></trkpt><trkpt lat="43.71414043976661" lon="11.115224312450612"><ele>143.0</ele><time>2026-03-22T10:14:45.012Z</time></trkpt><trkpt lat="43.7141688426819" lon="11.115085863436612"><ele>143.0</ele><time>2026-03-22T10:14:46.012Z</time></trkpt><trkpt lat="43.71418455250001" lon="11.114940122478153"><ele>143.0</ele><time>2026-03-22T10:14:47.012Z</time></trkpt><trkpt lat="43.71417844637799" lon="11.114787282784972"><ele>143.0</ele><time>2026-03-22T10:14:48.012Z</time></trkpt><trkpt lat="43.714141230601484" lon="11.1146499696811"><ele>143.0</ele><time>2026-03-22T10:14:49.012Z</time></trkpt><trkpt lat="43.71406984457521" lon="11.114535447060959"><ele>143.0</ele><time>2026-03-22T10:14:50.012Z</time></trkpt><trkpt lat="43.7139836564363" lon="11.114439226619158"><ele>141.25</ele><time>2026-03-22T10:14:51.013Z</time></trkpt><trkpt lat="43.71389085200677" lon="11.114354269910363"><ele>139.5</ele><time>2026-03-22T10:14:52.013Z</time></trkpt><trkpt lat="43.713793239763746" lon="11.114291660547313"><ele>137.75</ele><time>2026-03-22T10:14:53.013Z</time></trkpt><trkpt lat="43.71368826032558" lon="11.114210255183345"><ele>136.0</ele><time>2026-03-22T10:14:54.013Z</time></trkpt><trkpt lat="43.713586417257574" lon="11.114121027957337"><ele>134.25</ele><time>2026-03-22T10:14:55.013Z</time></trkpt><trkpt lat="43.71349709549238" lon="11.114022986864903"><ele>132.5</ele><time>2026-03-22T10:14:56.013Z</time></trkpt><trkpt lat="43.713426530203144" lon="11.113908397812102"><ele>130.75</ele><time>2026-03-22T10:14:57.013Z</time></trkpt><trkpt lat="43.71336413303531" lon="11.113775021332254"><ele>129.0</ele><time>2026-03-22T10:14:58.013Z</time></trkpt><trkpt lat="43.713318158752855" lon="11.113619416147648"><ele>129.0</ele><time>2026-03-22T10:14:59.013Z</time></trkpt><trkpt lat="43.71328119936897" lon="11.11346521897426"><ele>129.0</ele><time>2026-03-22T10:15:00.014Z</time></trkpt><trkpt lat="43.71325810181489" lon="11.113333992125723"><ele>129.0</ele><time>2026-03-22T10:15:01.013Z</time></trkpt><trkpt lat="43.7132384900466" lon="11.113207457023792"><ele>129.0</ele><time>2026-03-22T10:15:02.013Z</time></trkpt><trkpt lat="43.713226820377734" lon="11.113088993912928"><ele>129.0</ele><time>2026-03-22T10:15:03.013Z</time></trkpt><trkpt lat="43.71321963011435" lon="11.112985605253392"><ele>129.0</ele><time>2026-03-22T10:15:04.013Z</time></trkpt><trkpt lat="43.7132144866885" lon="11.11286108798538"><ele>129.0</ele><time>2026-03-22T10:15:06.013Z</time></trkpt><trkpt lat="43.71320690236528" lon="11.112969756154827"><ele>129.0</ele><time>2026-03-22T10:15:16.013Z</time></trkpt><trkpt lat="43.71321796810705" lon="11.113055902095143"><ele>129.0</ele><time>2026-03-22T10:15:17.013Z</time></trkpt><trkpt lat="43.713245603410925" lon="11.113140829635672"><ele>129.0</ele><time>2026-03-22T10:15:18.013Z</time></trkpt><trkpt lat="43.71319931001027" lon="11.113246482085643"><ele>129.0</ele><time>2026-03-22T10:15:19.013Z</time></trkpt><trkpt lat="43.71321650292224" lon="11.11334015825942"><ele>129.0</ele><time>2026-03-22T10:15:20.013Z</time></trkpt><trkpt lat="43.713246305161476" lon="11.113472901188967"><ele>129.0</ele><time>2026-03-22T10:15:21.013Z</time></trkpt><trkpt lat="43.713280561091544" lon="11.113608038619976"><ele>129.0</ele><time>2026-03-22T10:15:22.013Z</time></trkpt><trkpt lat="43.71333755741843" lon="11.11371965529022"><ele>129.0</ele><time>2026-03-22T10:15:23.013Z</time></trkpt><trkpt lat="43.71338067868182" lon="11.113847177118172"><ele>129.0</ele><time>2026-03-22T10:15:24.013Z</time></trkpt><trkpt lat="43.71343719234963" lon="11.113978253264017"><ele>130.25</ele><time>2026-03-22T10:15:25.013Z</time></trkpt><trkpt lat="43.71352291659965" lon="11.114090620694915"><ele>131.5</ele><time>2026-03-22T10:15:26.013Z</time></trkpt><trkpt lat="43.713613825845364" lon="11.114185457796209"><ele>132.75</ele><time>2026-03-22T10:15:27.013Z</time></trkpt><trkpt lat="43.713726739399064" lon="11.114262555979023"><ele>134.0</ele><time>2026-03-22T10:15:28.013Z</time></trkpt><trkpt lat="43.713832568873684" lon="11.114327284577188"><ele>134.33333333333331</ele><time>2026-03-22T10:15:29.013Z</time></trkpt><trkpt lat="43.7139128671723" lon="11.114386054047852"><ele>134.66666666666666</ele><time>2026-03-22T10:15:30.013Z</time></trkpt><trkpt lat="43.71397980856633" lon="11.114445720646685"><ele>135.0</ele><time>2026-03-22T10:15:31.013Z</time></trkpt><trkpt lat="43.71403665996578" lon="11.114567098916579"><ele>135.33333333333334</ele><time>2026-03-22T10:15:33.013Z</time></trkpt><trkpt lat="43.714078648824355" lon="11.114642194473687"><ele>135.66666666666669</ele><time>2026-03-22T10:15:35.013Z</time></trkpt><trkpt lat="43.71414393697107" lon="11.11459755333351"><ele>136.0</ele><time>2026-03-22T10:15:56.012Z</time></trkpt><trkpt lat="43.714101890183734" lon="11.114524475618389"><ele>136.0</ele><time>2026-03-22T10:16:01.012Z</time></trkpt><trkpt lat="43.71402647088167" lon="11.114465843688087"><ele>136.0</ele><time>2026-03-22T10:16:03.012Z</time></trkpt><trkpt lat="43.71396124478536" lon="11.114418030296173"><ele>136.0</ele><time>2026-03-22T10:16:04.012Z</time></trkpt><trkpt lat="43.71388324546017" lon="11.114352516283745"><ele>136.0</ele><time>2026-03-22T10:16:05.012Z</time></trkpt><trkpt lat="43.71380250265337" lon="11.114289689207418"><ele>136.0</ele><time>2026-03-22T10:16:06.012Z</time></trkpt><trkpt lat="43.713700688937045" lon="11.11421647771413"><ele>136.0</ele><time>2026-03-22T10:16:07.012Z</time></trkpt><trkpt lat="43.71361173997136" lon="11.114137646717126"><ele>136.0</ele><time>2026-03-22T10:16:08.012Z</time></trkpt><trkpt lat="43.71353489797535" lon="11.114053036545332"><ele>136.0</ele><time>2026-03-22T10:16:09.012Z</time></trkpt><trkpt lat="43.71346260138337" lon="11.113952595275945"><ele>136.0</ele><time>2026-03-22T10:16:10.012Z</time></trkpt><trkpt lat="43.7133964858147" lon="11.113837614051064"><ele>136.0</ele><time>2026-03-22T10:16:11.012Z</time></trkpt><trkpt lat="43.71335713877412" lon="11.113705329689827"><ele>134.25</ele><time>2026-03-22T10:16:12.012Z</time></trkpt><trkpt lat="43.71331484764891" lon="11.113550383434267"><ele>132.5</ele><time>2026-03-22T10:16:13.012Z</time></trkpt><trkpt lat="43.71328189382993" lon="11.113395471583852"><ele>130.75</ele><time>2026-03-22T10:16:14.012Z</time></trkpt><trkpt lat="43.713251854454576" lon="11.113215197859093"><ele>129.0</ele><time>2026-03-22T10:16:15.012Z</time></trkpt><trkpt lat="43.713227332970334" lon="11.113032154758903"><ele>128.0</ele><time>2026-03-22T10:16:16.012Z</time></trkpt><trkpt lat="43.71321643362967" lon="11.112867298238355"><ele>127.0</ele><time>2026-03-22T10:16:17.012Z</time></trkpt><trkpt lat="43.71320039686846" lon="11.112712957488906"><ele>126.0</ele><time>2026-03-22T10:16:18.012Z</time></trkpt><trkpt lat="43.713190192469085" lon="11.11255846706304"><ele>125.0</ele><time>2026-03-22T10:16:19.012Z</time></trkpt><trkpt lat="43.71317466396879" lon="11.112409054546296"><ele>124.4</ele><time>2026-03-22T10:16:20.012Z</time></trkpt><trkpt lat="43.713139421350725" lon="11.112263168677543"><ele>123.8</ele><time>2026-03-22T10:16:21.012Z</time></trkpt><trkpt lat="43.713097959148236" lon="11.112131559047139"><ele>123.19999999999999</ele><time>2026-03-22T10:16:22.012Z</time></trkpt><trkpt lat="43.71302824042555" lon="11.112010305214046"><ele>122.6</ele><time>2026-03-22T10:16:23.012Z</time></trkpt><trkpt lat="43.71296651810891" lon="11.11189373945149"><ele>122.0</ele><time>2026-03-22T10:16:24.012Z</time></trkpt><trkpt lat="43.71288699567897" lon="11.111782080092501"><ele>122.0</ele><time>2026-03-22T10:16:25.012Z</time></trkpt><trkpt lat="43.71280635334342" lon="11.111666654420727"><ele>122.0</ele><time>2026-03-22T10:16:26.012Z</time></trkpt><trkpt lat="43.71271138953358" lon="11.111534499092063"><ele>122.0</ele><time>2026-03-22T10:16:27.012Z</time></trkpt><trkpt lat="43.712615629981464" lon="11.11139477501058"><ele>122.0</ele><time>2026-03-22T10:16:28.012Z</time></trkpt><trkpt lat="43.7125240271431" lon="11.111254265712718"><ele>125.5</ele><time>2026-03-22T10:16:29.012Z</time></trkpt><trkpt lat="43.71242725127108" lon="11.111116542429226"><ele>129.0</ele><time>2026-03-22T10:16:30.012Z</time></trkpt><trkpt lat="43.71232686471096" lon="11.11097817038371"><ele>132.5</ele><time>2026-03-22T10:16:31.012Z</time></trkpt><trkpt lat="43.71223041414279" lon="11.1108498334956"><ele>136.0</ele><time>2026-03-22T10:16:32.012Z</time></trkpt><trkpt lat="43.7121568683056" lon="11.110751195304926"><ele>135.8</ele><time>2026-03-22T10:16:33.012Z</time></trkpt><trkpt lat="43.71209826418519" lon="11.11065456247517"><ele>135.6</ele><time>2026-03-22T10:16:34.012Z</time></trkpt><trkpt lat="43.712038739197794" lon="11.110571085880375"><ele>135.4</ele><time>2026-03-22T10:16:35.012Z</time></trkpt><trkpt lat="43.71204522596826" lon="11.110435722582217"><ele>135.2</ele><time>2026-03-22T10:16:36.012Z</time></trkpt><trkpt lat="43.71202392538587" lon="11.110332030712287"><ele>135.0</ele><time>2026-03-22T10:16:37.012Z</time></trkpt><trkpt lat="43.71199165034714" lon="11.110200446164335"><ele>135.0</ele><time>2026-03-22T10:16:38.012Z</time></trkpt><trkpt lat="43.71194132479694" lon="11.11004306916333"><ele>135.0</ele><time>2026-03-22T10:16:39.012Z</time></trkpt><trkpt lat="43.71188640886679" lon="11.109874451612464"><ele>135.0</ele><time>2026-03-22T10:16:40.012Z</time></trkpt><trkpt lat="43.711827582440584" lon="11.109687261124684"><ele>135.0</ele><time>2026-03-22T10:16:41.012Z</time></trkpt><trkpt lat="43.7117703705963" lon="11.109510807101374"><ele>135.4</ele><time>2026-03-22T10:16:42.012Z</time></trkpt><trkpt lat="43.711728365053695" lon="11.109360242278111"><ele>135.8</ele><time>2026-03-22T10:16:43.012Z</time></trkpt><trkpt lat="43.71170024697662" lon="11.10922077127886"><ele>136.2</ele><time>2026-03-22T10:16:44.012Z</time></trkpt><trkpt lat="43.711697583919225" lon="11.109083055980895"><ele>136.6</ele><time>2026-03-22T10:16:45.012Z</time></trkpt><trkpt lat="43.711721322696086" lon="11.108935042317924"><ele>137.0</ele><time>2026-03-22T10:16:46.012Z</time></trkpt><trkpt lat="43.71177387342855" lon="11.108793231012463"><ele>137.0</ele><time>2026-03-22T10:16:47.012Z</time></trkpt><trkpt lat="43.711822611451986" lon="11.108663593564252"><ele>137.0</ele><time>2026-03-22T10:16:48.012Z</time></trkpt><trkpt lat="43.71186019694408" lon="11.108524043965076"><ele>137.0</ele><time>2026-03-22T10:16:49.012Z</time></trkpt><trkpt lat="43.711873788529026" lon="11.108382091927163"><ele>137.0</ele><time>2026-03-22T10:16:50.012Z</time></trkpt><trkpt lat="43.71188705369985" lon="11.108219346769083"><ele>137.0</ele><time>2026-03-22T10:16:51.012Z</time></trkpt><trkpt lat="43.711889439486704" lon="11.108061847139991"><ele>136.75</ele><time>2026-03-22T10:16:52.012Z</time></trkpt><trkpt lat="43.711889790464625" lon="11.10788151456826"><ele>136.5</ele><time>2026-03-22T10:16:53.012Z</time></trkpt><trkpt lat="43.71190214531108" lon="11.107695501727774"><ele>136.25</ele><time>2026-03-22T10:16:54.012Z</time></trkpt><trkpt lat="43.71190309376936" lon="11.107494598619"><ele>136.0</ele><time>2026-03-22T10:16:55.012Z</time></trkpt><trkpt lat="43.71190486817726" lon="11.107285012710438"><ele>135.75</ele><time>2026-03-22T10:16:56.012Z</time></trkpt><trkpt lat="43.71190363881645" lon="11.10709152749752"><ele>135.5</ele><time>2026-03-22T10:16:57.014Z</time></trkpt><trkpt lat="43.71189455854874" lon="11.106892104397401"><ele>135.25</ele><time>2026-03-22T10:16:58.014Z</time></trkpt><trkpt lat="43.711880059347386" lon="11.106704475443546"><ele>135.0</ele><time>2026-03-22T10:16:59.014Z</time></trkpt><trkpt lat="43.71186430992673" lon="11.106505942303915"><ele>135.66666666666666</ele><time>2026-03-22T10:17:00.014Z</time></trkpt><trkpt lat="43.71183373413058" lon="11.10630418644083"><ele>136.33333333333331</ele><time>2026-03-22T10:17:01.014Z</time></trkpt><trkpt lat="43.71179733523185" lon="11.106096534575048"><ele>137.0</ele><time>2026-03-22T10:17:02.014Z</time></trkpt><trkpt lat="43.711752765413465" lon="11.105902942843267"><ele>137.2</ele><time>2026-03-22T10:17:03.014Z</time></trkpt><trkpt lat="43.71171916620665" lon="11.10574123461258"><ele>137.39999999999998</ele><time>2026-03-22T10:17:04.014Z</time></trkpt><trkpt lat="43.711683693634434" lon="11.10560803395966"><ele>137.60000000000002</ele><time>2026-03-22T10:17:05.014Z</time></trkpt><trkpt lat="43.71162935652997" lon="11.105500281461737"><ele>137.8</ele><time>2026-03-22T10:17:06.014Z</time></trkpt><trkpt lat="43.71156770387029" lon="11.105399539808918"><ele>138.0</ele><time>2026-03-22T10:17:07.014Z</time></trkpt><trkpt lat="43.71150167159784" lon="11.105296938336982"><ele>138.0</ele><time>2026-03-22T10:17:08.014Z</time></trkpt><trkpt lat="43.711431929358845" lon="11.105181036317918"><ele>138.0</ele><time>2026-03-22T10:17:09.014Z</time></trkpt><trkpt lat="43.711355803297565" lon="11.105055751567601"><ele>138.0</ele><time>2026-03-22T10:17:10.014Z</time></trkpt><trkpt lat="43.711277132217724" lon="11.104923197179835"><ele>138.0</ele><time>2026-03-22T10:17:11.014Z</time></trkpt><trkpt lat="43.711198668880584" lon="11.104787228945684"><ele>136.0</ele><time>2026-03-22T10:17:12.014Z</time></trkpt><trkpt lat="43.71111687105226" lon="11.104662420238872"><ele>134.0</ele><time>2026-03-22T10:17:13.014Z</time></trkpt><trkpt lat="43.71102882526437" lon="11.104562344177083"><ele>132.0</ele><time>2026-03-22T10:17:14.014Z</time></trkpt><trkpt lat="43.71092852726482" lon="11.104482760752179"><ele>130.0</ele><time>2026-03-22T10:17:15.014Z</time></trkpt><trkpt lat="43.71081618173147" lon="11.104423906255555"><ele>130.0</ele><time>2026-03-22T10:17:16.014Z</time></trkpt><trkpt lat="43.710695956974746" lon="11.104361847827324"><ele>130.0</ele><time>2026-03-22T10:17:17.014Z</time></trkpt><trkpt lat="43.710581447564174" lon="11.10429497903677"><ele>130.0</ele><time>2026-03-22T10:17:18.014Z</time></trkpt><trkpt lat="43.710462476313516" lon="11.104211436355177"><ele>130.0</ele><time>2026-03-22T10:17:19.014Z</time></trkpt><trkpt lat="43.71035346456994" lon="11.104126250428317"><ele>128.5</ele><time>2026-03-22T10:17:20.014Z</time></trkpt><trkpt lat="43.71024081802857" lon="11.10403099080548"><ele>127.0</ele><time>2026-03-22T10:17:21.014Z</time></trkpt><trkpt lat="43.71012980776217" lon="11.103946209382164"><ele>125.5</ele><time>2026-03-22T10:17:22.014Z</time></trkpt><trkpt lat="43.71001719609544" lon="11.10386714265824"><ele>124.0</ele><time>2026-03-22T10:17:23.014Z</time></trkpt><trkpt lat="43.709906352922665" lon="11.103786498338414"><ele>124.0</ele><time>2026-03-22T10:17:24.014Z</time></trkpt><trkpt lat="43.709795359966634" lon="11.103706501958348"><ele>124.0</ele><time>2026-03-22T10:17:25.014Z</time></trkpt><trkpt lat="43.709692263339306" lon="11.10362395369721"><ele>124.0</ele><time>2026-03-22T10:17:26.014Z</time></trkpt><trkpt lat="43.709595037459486" lon="11.10355295204289"><ele>124.0</ele><time>2026-03-22T10:17:27.014Z</time></trkpt><trkpt lat="43.709493276063014" lon="11.10349191282771"><ele>123.5</ele><time>2026-03-22T10:17:28.014Z</time></trkpt><trkpt lat="43.70939107619201" lon="11.103421545727514"><ele>123.0</ele><time>2026-03-22T10:17:29.014Z</time></trkpt><trkpt lat="43.70930033606521" lon="11.103341812791971"><ele>122.5</ele><time>2026-03-22T10:17:30.014Z</time></trkpt><trkpt lat="43.70920093528505" lon="11.103230979909927"><ele>122.0</ele><time>2026-03-22T10:17:31.014Z</time></trkpt><trkpt lat="43.70910308553037" lon="11.10308805412011"><ele>120.75</ele><time>2026-03-22T10:17:32.014Z</time></trkpt><trkpt lat="43.709015117573394" lon="11.102939901065815"><ele>119.5</ele><time>2026-03-22T10:17:33.014Z</time></trkpt><trkpt lat="43.70891431954542" lon="11.102783438229034"><ele>118.25</ele><time>2026-03-22T10:17:34.014Z</time></trkpt><trkpt lat="43.708817210923584" lon="11.10262834919366"><ele>117.0</ele><time>2026-03-22T10:17:35.014Z</time></trkpt><trkpt lat="43.70872347792316" lon="11.102465841154975"><ele>117.75</ele><time>2026-03-22T10:17:36.014Z</time></trkpt><trkpt lat="43.70863517410534" lon="11.102321722198868"><ele>118.5</ele><time>2026-03-22T10:17:37.014Z</time></trkpt><trkpt lat="43.7085506854118" lon="11.102193357259502"><ele>119.25</ele><time>2026-03-22T10:17:38.014Z</time></trkpt><trkpt lat="43.70847040544993" lon="11.10205595712538"><ele>120.0</ele><time>2026-03-22T10:17:39.014Z</time></trkpt><trkpt lat="43.70839822895061" lon="11.10191029861691"><ele>120.0</ele><time>2026-03-22T10:17:40.014Z</time></trkpt><trkpt lat="43.70833073921221" lon="11.101756981431325"><ele>120.0</ele><time>2026-03-22T10:17:41.014Z</time></trkpt><trkpt lat="43.70825191917693" lon="11.101594932105522"><ele>120.0</ele><time>2026-03-22T10:17:42.014Z</time></trkpt><trkpt lat="43.7081757894094" lon="11.101426844551641"><ele>120.0</ele><time>2026-03-22T10:17:43.014Z</time></trkpt><trkpt lat="43.708100286822216" lon="11.101253786501776"><ele>119.0</ele><time>2026-03-22T10:17:44.014Z</time></trkpt><trkpt lat="43.70801166559365" lon="11.101072701247716"><ele>118.0</ele><time>2026-03-22T10:17:45.014Z</time></trkpt><trkpt lat="43.707932958759706" lon="11.100910981007369"><ele>117.0</ele><time>2026-03-22T10:17:46.014Z</time></trkpt><trkpt lat="43.70785718902002" lon="11.10077360560096"><ele>116.0</ele><time>2026-03-22T10:17:47.014Z</time></trkpt><trkpt lat="43.70776582490744" lon="11.10064515183452"><ele>115.5</ele><time>2026-03-22T10:17:48.014Z</time></trkpt><trkpt lat="43.70767051866547" lon="11.100506249429667"><ele>115.0</ele><time>2026-03-22T10:17:49.014Z</time></trkpt><trkpt lat="43.70756933234286" lon="11.100383883548908"><ele>114.5</ele><time>2026-03-22T10:17:50.014Z</time></trkpt><trkpt lat="43.70746795867249" lon="11.10025476363705"><ele>114.0</ele><time>2026-03-22T10:17:51.013Z</time></trkpt><trkpt lat="43.70736197990243" lon="11.100128240701737"><ele>114.0</ele><time>2026-03-22T10:17:52.013Z</time></trkpt><trkpt lat="43.70727458966955" lon="11.10000742662262"><ele>114.0</ele><time>2026-03-22T10:17:53.013Z</time></trkpt><trkpt lat="43.707193377092985" lon="11.099892482156832"><ele>114.0</ele><time>2026-03-22T10:17:54.013Z</time></trkpt><trkpt lat="43.70711120738377" lon="11.099786377139434"><ele>114.0</ele><time>2026-03-22T10:17:55.013Z</time></trkpt><trkpt lat="43.70704451212837" lon="11.099692671626123"><ele>114.0</ele><time>2026-03-22T10:17:56.013Z</time></trkpt><trkpt lat="43.70696630132267" lon="11.099603669886609"><ele>114.6</ele><time>2026-03-22T10:17:57.013Z</time></trkpt><trkpt lat="43.70687571920361" lon="11.099536830533058"><ele>115.2</ele><time>2026-03-22T10:17:58.013Z</time></trkpt><trkpt lat="43.70680818823846" lon="11.099439032151727"><ele>115.79999999999998</ele><time>2026-03-22T10:17:59.013Z</time></trkpt><trkpt lat="43.70672728994941" lon="11.0993367819828"><ele>116.39999999999999</ele><time>2026-03-22T10:18:00.013Z</time></trkpt><trkpt lat="43.70662471859916" lon="11.09923557346365"><ele>117.0</ele><time>2026-03-22T10:18:01.013Z</time></trkpt><trkpt lat="43.706536419093176" lon="11.099104241717308"><ele>116.0</ele><time>2026-03-22T10:18:02.013Z</time></trkpt><trkpt lat="43.70643869535696" lon="11.098984945008777"><ele>115.0</ele><time>2026-03-22T10:18:03.013Z</time></trkpt><trkpt lat="43.70631974901828" lon="11.098872847184214"><ele>114.0</ele><time>2026-03-22T10:18:04.013Z</time></trkpt><trkpt lat="43.706184088469435" lon="11.098761080675258"><ele>113.0</ele><time>2026-03-22T10:18:05.013Z</time></trkpt><trkpt lat="43.706047349198" lon="11.098649364426844"><ele>112.25</ele><time>2026-03-22T10:18:06.013Z</time></trkpt><trkpt lat="43.705913056570964" lon="11.098549828956816"><ele>111.5</ele><time>2026-03-22T10:18:07.013Z</time></trkpt><trkpt lat="43.7058007093993" lon="11.098438579095742"><ele>110.75</ele><time>2026-03-22T10:18:08.013Z</time></trkpt><trkpt lat="43.705695084175204" lon="11.09837250106887"><ele>110.0</ele><time>2026-03-22T10:18:09.013Z</time></trkpt><trkpt lat="43.70559692378214" lon="11.098305009616482"><ele>109.4</ele><time>2026-03-22T10:18:10.013Z</time></trkpt><trkpt lat="43.70551396446002" lon="11.098233620029339"><ele>108.8</ele><time>2026-03-22T10:18:11.013Z</time></trkpt><trkpt lat="43.70542746110736" lon="11.098158304960378"><ele>108.19999999999999</ele><time>2026-03-22T10:18:12.013Z</time></trkpt><trkpt lat="43.705342280829974" lon="11.098080553366296"><ele>107.6</ele><time>2026-03-22T10:18:13.013Z</time></trkpt><trkpt lat="43.70524203671704" lon="11.098001891712434"><ele>107.0</ele><time>2026-03-22T10:18:14.013Z</time></trkpt><trkpt lat="43.705134873837586" lon="11.097909015918594"><ele>107.0</ele><time>2026-03-22T10:18:15.013Z</time></trkpt><trkpt lat="43.70503314024408" lon="11.09781767292221"><ele>107.0</ele><time>2026-03-22T10:18:16.013Z</time></trkpt><trkpt lat="43.70491613556567" lon="11.09771157273641"><ele>107.0</ele><time>2026-03-22T10:18:17.013Z</time></trkpt><trkpt lat="43.70480755873193" lon="11.09758240948059"><ele>107.0</ele><time>2026-03-22T10:18:18.013Z</time></trkpt><trkpt lat="43.70468765425843" lon="11.097464990663573"><ele>106.5</ele><time>2026-03-22T10:18:19.013Z</time></trkpt><trkpt lat="43.70458878694397" lon="11.097352442691573"><ele>106.0</ele><time>2026-03-22T10:18:20.013Z</time></trkpt><trkpt lat="43.704493835681276" lon="11.097239606150977"><ele>105.5</ele><time>2026-03-22T10:18:21.013Z</time></trkpt><trkpt lat="43.704406557067905" lon="11.09713802870975"><ele>105.0</ele><time>2026-03-22T10:18:22.013Z</time></trkpt><trkpt lat="43.7043209325471" lon="11.097048744333888"><ele>105.0</ele><time>2026-03-22T10:18:23.013Z</time></trkpt><trkpt lat="43.70425111865116" lon="11.096955802513564"><ele>105.0</ele><time>2026-03-22T10:18:24.013Z</time></trkpt><trkpt lat="43.70417697954612" lon="11.096876044015325"><ele>105.0</ele><time>2026-03-22T10:18:25.013Z</time></trkpt><trkpt lat="43.704117399267304" lon="11.096783722882428"><ele>105.0</ele><time>2026-03-22T10:18:26.013Z</time></trkpt><trkpt lat="43.704042950276815" lon="11.096701161592923"><ele>105.0</ele><time>2026-03-22T10:18:27.013Z</time></trkpt><trkpt lat="43.70398518325327" lon="11.096625428997614"><ele>103.4</ele><time>2026-03-22T10:18:28.013Z</time></trkpt><trkpt lat="43.70391528750694" lon="11.096561961134878"><ele>101.8</ele><time>2026-03-22T10:18:29.013Z</time></trkpt><trkpt lat="43.703829475066" lon="11.096503956580692"><ele>100.19999999999999</ele><time>2026-03-22T10:18:30.013Z</time></trkpt><trkpt lat="43.70373755379078" lon="11.096434973453874"><ele>98.6</ele><time>2026-03-22T10:18:31.013Z</time></trkpt><trkpt lat="43.70362432633134" lon="11.096356155853897"><ele>97.0</ele><time>2026-03-22T10:18:32.013Z</time></trkpt><trkpt lat="43.70351307208312" lon="11.096290779034437"><ele>97.0</ele><time>2026-03-22T10:18:33.013Z</time></trkpt><trkpt lat="43.70340717584792" lon="11.096218932009341"><ele>97.0</ele><time>2026-03-22T10:18:34.013Z</time></trkpt><trkpt lat="43.70329763889923" lon="11.096145077865009"><ele>97.0</ele><time>2026-03-22T10:18:35.013Z</time></trkpt><trkpt lat="43.7031869258995" lon="11.096077141909413"><ele>97.0</ele><time>2026-03-22T10:18:36.013Z</time></trkpt><trkpt lat="43.70307855747658" lon="11.096007511879634"><ele>97.0</ele><time>2026-03-22T10:18:37.013Z</time></trkpt><trkpt lat="43.70298844111157" lon="11.095916172073174"><ele>97.0</ele><time>2026-03-22T10:18:38.013Z</time></trkpt><trkpt lat="43.702888896468245" lon="11.095843792069662"><ele>97.0</ele><time>2026-03-22T10:18:39.013Z</time></trkpt><trkpt lat="43.70279452328348" lon="11.095767978578612"><ele>97.0</ele><time>2026-03-22T10:18:40.013Z</time></trkpt><trkpt lat="43.70270131525928" lon="11.09570365107862"><ele>97.0</ele><time>2026-03-22T10:18:41.013Z</time></trkpt><trkpt lat="43.70260289720687" lon="11.095626514884383"><ele>94.25</ele><time>2026-03-22T10:18:42.013Z</time></trkpt><trkpt lat="43.702507903410364" lon="11.095554800528907"><ele>91.5</ele><time>2026-03-22T10:18:43.013Z</time></trkpt><trkpt lat="43.70241264098141" lon="11.095470965776896"><ele>88.75</ele><time>2026-03-22T10:18:44.013Z</time></trkpt><trkpt lat="43.70231382015446" lon="11.09539426123742"><ele>86.0</ele><time>2026-03-22T10:18:45.013Z</time></trkpt><trkpt lat="43.70221443371268" lon="11.09531366929794"><ele>86.0</ele><time>2026-03-22T10:18:46.013Z</time></trkpt><trkpt lat="43.702131279406075" lon="11.095232143366184"><ele>86.0</ele><time>2026-03-22T10:18:47.013Z</time></trkpt><trkpt lat="43.70205425348378" lon="11.095147411546662"><ele>86.0</ele><time>2026-03-22T10:18:48.013Z</time></trkpt><trkpt lat="43.701987748007724" lon="11.095094710506418"><ele>86.0</ele><time>2026-03-22T10:18:49.013Z</time></trkpt><trkpt lat="43.7019154886959" lon="11.095051526435284"><ele>86.0</ele><time>2026-03-22T10:18:50.013Z</time></trkpt><trkpt lat="43.70183670941557" lon="11.09500830830648"><ele>86.0</ele><time>2026-03-22T10:18:51.013Z</time></trkpt><trkpt lat="43.70175524589074" lon="11.094953522996558"><ele>82.66666666666667</ele><time>2026-03-22T10:18:52.013Z</time></trkpt><trkpt lat="43.701666442298105" lon="11.094886488410616"><ele>79.33333333333334</ele><time>2026-03-22T10:18:53.013Z</time></trkpt><trkpt lat="43.701579749512824" lon="11.09480500478605"><ele>76.0</ele><time>2026-03-22T10:18:54.013Z</time></trkpt><trkpt lat="43.70150163019667" lon="11.094734120826862"><ele>72.66666666666667</ele><time>2026-03-22T10:18:55.013Z</time></trkpt><trkpt lat="43.70142950481214" lon="11.094680862632762"><ele>69.33333333333333</ele><time>2026-03-22T10:18:56.013Z</time></trkpt><trkpt lat="43.70136269581981" lon="11.0946701725347"><ele>66.0</ele><time>2026-03-22T10:18:57.013Z</time></trkpt><trkpt lat="43.70124024918173" lon="11.09471752697668"><ele>66.0</ele><time>2026-03-22T10:18:59.013Z</time></trkpt><trkpt lat="43.70117414331838" lon="11.094726076439075"><ele>66.0</ele><time>2026-03-22T10:19:00.013Z</time></trkpt><trkpt lat="43.70107307601558" lon="11.094731668609281"><ele>66.0</ele><time>2026-03-22T10:19:02.013Z</time></trkpt><trkpt lat="43.700990825707656" lon="11.094823937670927"><ele>66.0</ele><time>2026-03-22T10:19:04.014Z</time></trkpt><trkpt lat="43.70093223656985" lon="11.094881083895478"><ele>66.0</ele><time>2026-03-22T10:19:08.015Z</time></trkpt><trkpt lat="43.70094109641273" lon="11.09476010904471"><ele>66.0</ele><time>2026-03-22T10:19:17.015Z</time></trkpt><trkpt lat="43.70101325874919" lon="11.094609389163143"><ele>66.0</ele><time>2026-03-22T10:19:19.015Z</time></trkpt><trkpt lat="43.70107575739436" lon="11.094510427907206"><ele>66.0</ele><time>2026-03-22T10:19:20.015Z</time></trkpt><trkpt lat="43.70114853253294" lon="11.094395842672288"><ele>66.0</ele><time>2026-03-22T10:19:21.015Z</time></trkpt><trkpt lat="43.701248759747884" lon="11.094274920959508"><ele>66.0</ele><time>2026-03-22T10:19:22.015Z</time></trkpt><trkpt lat="43.70134999449495" lon="11.094157801206727"><ele>64.25</ele><time>2026-03-22T10:19:23.015Z</time></trkpt><trkpt lat="43.70144289875226" lon="11.094040395698435"><ele>62.5</ele><time>2026-03-22T10:19:24.015Z</time></trkpt><trkpt lat="43.70153329030204" lon="11.093903058485848"><ele>60.75</ele><time>2026-03-22T10:19:25.015Z</time></trkpt><trkpt lat="43.701624437036365" lon="11.093770347519941"><ele>59.0</ele><time>2026-03-22T10:19:26.015Z</time></trkpt><trkpt lat="43.701716827197124" lon="11.093655160026243"><ele>59.0</ele><time>2026-03-22T10:19:27.015Z</time></trkpt><trkpt lat="43.70180370794432" lon="11.093530654537176"><ele>59.0</ele><time>2026-03-22T10:19:28.015Z</time></trkpt><trkpt lat="43.70188665949058" lon="11.093410243332526"><ele>59.0</ele><time>2026-03-22T10:19:29.015Z</time></trkpt><trkpt lat="43.70197427898036" lon="11.093281900424605"><ele>59.0</ele><time>2026-03-22T10:19:30.015Z</time></trkpt><trkpt lat="43.70206839339468" lon="11.09315647221957"><ele>59.5</ele><time>2026-03-22T10:19:31.015Z</time></trkpt><trkpt lat="43.70214833077819" lon="11.09301009528339"><ele>60.0</ele><time>2026-03-22T10:19:32.015Z</time></trkpt><trkpt lat="43.702237263810694" lon="11.09287303138157"><ele>60.5</ele><time>2026-03-22T10:19:33.015Z</time></trkpt><trkpt lat="43.70233769365253" lon="11.092725848273412"><ele>61.0</ele><time>2026-03-22T10:19:34.015Z</time></trkpt><trkpt lat="43.70242151863772" lon="11.092573111698016"><ele>60.33333333333333</ele><time>2026-03-22T10:19:35.015Z</time></trkpt><trkpt lat="43.70251283912455" lon="11.092410890531761"><ele>59.66666666666667</ele><time>2026-03-22T10:19:36.015Z</time></trkpt><trkpt lat="43.70257383742982" lon="11.092211891788937"><ele>59.0</ele><time>2026-03-22T10:19:37.015Z</time></trkpt><trkpt lat="43.702634370123185" lon="11.092013042066105"><ele>59.0</ele><time>2026-03-22T10:19:38.015Z</time></trkpt><trkpt lat="43.7026900744567" lon="11.091806739294817"><ele>59.0</ele><time>2026-03-22T10:19:39.015Z</time></trkpt><trkpt lat="43.702749122197254" lon="11.091610215220596"><ele>59.0</ele><time>2026-03-22T10:19:40.015Z</time></trkpt><trkpt lat="43.70281210295226" lon="11.091408790777322"><ele>62.0</ele><time>2026-03-22T10:19:41.015Z</time></trkpt><trkpt lat="43.702866838650934" lon="11.09123466918492"><ele>65.0</ele><time>2026-03-22T10:19:42.015Z</time></trkpt><trkpt lat="43.70292326159052" lon="11.091084417331706"><ele>68.0</ele><time>2026-03-22T10:19:43.015Z</time></trkpt><trkpt lat="43.702983999791776" lon="11.09094346279071"><ele>71.0</ele><time>2026-03-22T10:19:44.015Z</time></trkpt><trkpt lat="43.70303268377801" lon="11.090787065430236"><ele>69.0</ele><time>2026-03-22T10:19:45.015Z</time></trkpt><trkpt lat="43.7030929351961" lon="11.090650783221854"><ele>67.0</ele><time>2026-03-22T10:19:46.015Z</time></trkpt><trkpt lat="43.703170218303775" lon="11.09052278916651"><ele>65.0</ele><time>2026-03-22T10:19:47.015Z</time></trkpt><trkpt lat="43.70324731951358" lon="11.090386009222565"><ele>63.0</ele><time>2026-03-22T10:19:48.015Z</time></trkpt><trkpt lat="43.70334202553052" lon="11.090255592623649"><ele>63.0</ele><time>2026-03-22T10:19:49.015Z</time></trkpt><trkpt lat="43.70343401566913" lon="11.090132871547565"><ele>63.0</ele><time>2026-03-22T10:19:50.015Z</time></trkpt><trkpt lat="43.7035247277691" lon="11.090003434360664"><ele>63.0</ele><time>2026-03-22T10:19:51.015Z</time></trkpt><trkpt lat="43.703634405818875" lon="11.08988569963837"><ele>63.0</ele><time>2026-03-22T10:19:52.015Z</time></trkpt><trkpt lat="43.70373072650967" lon="11.089760244549618"><ele>64.0</ele><time>2026-03-22T10:19:53.015Z</time></trkpt><trkpt lat="43.70383952399654" lon="11.089623977277911"><ele>65.0</ele><time>2026-03-22T10:19:54.015Z</time></trkpt><trkpt lat="43.70395004650628" lon="11.089490155807558"><ele>66.0</ele><time>2026-03-22T10:19:55.015Z</time></trkpt><trkpt lat="43.70405948483321" lon="11.089349837943503"><ele>67.0</ele><time>2026-03-22T10:19:56.015Z</time></trkpt><trkpt lat="43.70416876709687" lon="11.08919906553495"><ele>63.666666666666664</ele><time>2026-03-22T10:19:57.015Z</time></trkpt><trkpt lat="43.70427891847957" lon="11.089047582970348"><ele>60.33333333333333</ele><time>2026-03-22T10:19:58.015Z</time></trkpt><trkpt lat="43.70438677060743" lon="11.088895500024458"><ele>57.0</ele><time>2026-03-22T10:19:59.015Z</time></trkpt><trkpt lat="43.70448518207485" lon="11.08874928240108"><ele>58.75</ele><time>2026-03-22T10:20:00.015Z</time></trkpt><trkpt lat="43.70457200671312" lon="11.088604625912742"><ele>60.5</ele><time>2026-03-22T10:20:01.015Z</time></trkpt><trkpt lat="43.70464096533054" lon="11.088477360306593"><ele>62.25</ele><time>2026-03-22T10:20:02.015Z</time></trkpt><trkpt lat="43.704694307583985" lon="11.088334773189825"><ele>64.0</ele><time>2026-03-22T10:20:03.015Z</time></trkpt><trkpt lat="43.70472000363558" lon="11.088196716922557"><ele>63.99999999999999</ele><time>2026-03-22T10:20:04.015Z</time></trkpt><trkpt lat="43.70472506243597" lon="11.088048994252278"><ele>64.0</ele><time>2026-03-22T10:20:05.015Z</time></trkpt><trkpt lat="43.70476554516611" lon="11.087938153436623"><ele>64.0</ele><time>2026-03-22T10:20:06.015Z</time></trkpt><trkpt lat="43.704793197448616" lon="11.087842485687485"><ele>64.0</ele><time>2026-03-22T10:20:07.015Z</time></trkpt><trkpt lat="43.70480423563312" lon="11.087736856654047"><ele>63.99999999999999</ele><time>2026-03-22T10:20:08.015Z</time></trkpt><trkpt lat="43.70486259850714" lon="11.087660491921493"><ele>64.0</ele><time>2026-03-22T10:20:09.015Z</time></trkpt><trkpt lat="43.70490469139096" lon="11.087591795439828"><ele>64.0</ele><time>2026-03-22T10:20:10.015Z</time></trkpt><trkpt lat="43.704924223081335" lon="11.087469659372426"><ele>64.0</ele><time>2026-03-22T10:20:12.014Z</time></trkpt><trkpt lat="43.70505308796735" lon="11.087433081594162"><ele>64.0</ele><time>2026-03-22T10:20:14.014Z</time></trkpt><trkpt lat="43.70512004405985" lon="11.087409871743725"><ele>64.0</ele><time>2026-03-22T10:20:15.014Z</time></trkpt><trkpt lat="43.7052129470842" lon="11.087396377166497"><ele>64.0</ele><time>2026-03-22T10:20:16.014Z</time></trkpt><trkpt lat="43.70529817520029" lon="11.087346785201191"><ele>62.25</ele><time>2026-03-22T10:20:17.014Z</time></trkpt><trkpt lat="43.70539001380055" lon="11.08726402340053"><ele>60.5</ele><time>2026-03-22T10:20:18.014Z</time></trkpt><trkpt lat="43.70547232517227" lon="11.087158737141548"><ele>58.75</ele><time>2026-03-22T10:20:19.014Z</time></trkpt><trkpt lat="43.70556017190744" lon="11.087051870728677"><ele>57.0</ele><time>2026-03-22T10:20:20.014Z</time></trkpt><trkpt lat="43.70566414544933" lon="11.0869492112509"><ele>57.0</ele><time>2026-03-22T10:20:21.014Z</time></trkpt><trkpt lat="43.705751589708115" lon="11.086812719352505"><ele>57.0</ele><time>2026-03-22T10:20:22.014Z</time></trkpt><trkpt lat="43.70581735748767" lon="11.086624985206551"><ele>57.0</ele><time>2026-03-22T10:20:23.014Z</time></trkpt><trkpt lat="43.70586447998278" lon="11.086444023857382"><ele>57.0</ele><time>2026-03-22T10:20:24.014Z</time></trkpt><trkpt lat="43.70589350307433" lon="11.086283990680153"><ele>56.6</ele><time>2026-03-22T10:20:25.014Z</time></trkpt><trkpt lat="43.70589832443555" lon="11.086133299403171"><ele>56.2</ele><time>2026-03-22T10:20:26.014Z</time></trkpt><trkpt lat="43.70591652467485" lon="11.08601237336582"><ele>55.8</ele><time>2026-03-22T10:20:27.014Z</time></trkpt><trkpt lat="43.70593674262729" lon="11.085900274435014"><ele>55.4</ele><time>2026-03-22T10:20:28.014Z</time></trkpt><trkpt lat="43.70595343742243" lon="11.085782464787453"><ele>55.0</ele><time>2026-03-22T10:20:29.014Z</time></trkpt><trkpt lat="43.70597201717881" lon="11.08567052811463"><ele>55.0</ele><time>2026-03-22T10:20:30.014Z</time></trkpt><trkpt lat="43.70600161762723" lon="11.085549983851058"><ele>55.0</ele><time>2026-03-22T10:20:31.014Z</time></trkpt><trkpt lat="43.70602587530622" lon="11.08541873526616"><ele>55.0</ele><time>2026-03-22T10:20:32.014Z</time></trkpt><trkpt lat="43.706022954325654" lon="11.085262508634965"><ele>55.0</ele><time>2026-03-22T10:20:33.014Z</time></trkpt><trkpt lat="43.706045494943126" lon="11.085091912583946"><ele>55.0</ele><time>2026-03-22T10:20:34.014Z</time></trkpt><trkpt lat="43.706083839608176" lon="11.084928730804599"><ele>57.25</ele><time>2026-03-22T10:20:35.014Z</time></trkpt><trkpt lat="43.70610831216989" lon="11.084743474250953"><ele>59.5</ele><time>2026-03-22T10:20:36.014Z</time></trkpt><trkpt lat="43.70612357109377" lon="11.084553407845414"><ele>61.75</ele><time>2026-03-22T10:20:37.014Z</time></trkpt><trkpt lat="43.70614974439924" lon="11.084348487859403"><ele>64.0</ele><time>2026-03-22T10:20:38.014Z</time></trkpt><trkpt lat="43.70617480587201" lon="11.084134498204227"><ele>64.25</ele><time>2026-03-22T10:20:39.014Z</time></trkpt><trkpt lat="43.70619315693837" lon="11.083930070876615"><ele>64.5</ele><time>2026-03-22T10:20:40.014Z</time></trkpt><trkpt lat="43.7061969983031" lon="11.083746619921095"><ele>64.75</ele><time>2026-03-22T10:20:41.014Z</time></trkpt><trkpt lat="43.7061959142384" lon="11.083575016921246"><ele>65.0</ele><time>2026-03-22T10:20:42.014Z</time></trkpt><trkpt lat="43.706180663783385" lon="11.083377767230987"><ele>65.25</ele><time>2026-03-22T10:20:43.014Z</time></trkpt><trkpt lat="43.706139310338614" lon="11.083190644076273"><ele>65.5</ele><time>2026-03-22T10:20:44.014Z</time></trkpt><trkpt lat="43.706116156830156" lon="11.08300085480025"><ele>65.75</ele><time>2026-03-22T10:20:45.014Z</time></trkpt><trkpt lat="43.70611040076646" lon="11.082822398352281"><ele>66.0</ele><time>2026-03-22T10:20:46.014Z</time></trkpt><trkpt lat="43.70612058053666" lon="11.082651362841748"><ele>66.0</ele><time>2026-03-22T10:20:47.014Z</time></trkpt><trkpt lat="43.706156331995736" lon="11.082475638722622"><ele>66.0</ele><time>2026-03-22T10:20:48.014Z</time></trkpt><trkpt lat="43.70619706944569" lon="11.08229306970611"><ele>66.0</ele><time>2026-03-22T10:20:49.014Z</time></trkpt><trkpt lat="43.70623457582583" lon="11.08210271573144"><ele>66.0</ele><time>2026-03-22T10:20:50.014Z</time></trkpt><trkpt lat="43.70626844592486" lon="11.08191860091471"><ele>65.75</ele><time>2026-03-22T10:20:51.014Z</time></trkpt><trkpt lat="43.70629565473131" lon="11.081751400524832"><ele>65.5</ele><time>2026-03-22T10:20:52.014Z</time></trkpt><trkpt lat="43.70632101976551" lon="11.081593652011776"><ele>65.25</ele><time>2026-03-22T10:20:53.014Z</time></trkpt><trkpt lat="43.706336283462626" lon="11.081446368756266"><ele>65.0</ele><time>2026-03-22T10:20:54.014Z</time></trkpt><trkpt lat="43.706360456477874" lon="11.081308558608887"><ele>64.4</ele><time>2026-03-22T10:20:55.014Z</time></trkpt><trkpt lat="43.70638315028174" lon="11.081183564645523"><ele>63.8</ele><time>2026-03-22T10:20:56.014Z</time></trkpt><trkpt lat="43.706407507926784" lon="11.081060624037617"><ele>63.2</ele><time>2026-03-22T10:20:57.014Z</time></trkpt><trkpt lat="43.7064207617637" lon="11.080945882004555"><ele>62.6</ele><time>2026-03-22T10:20:58.014Z</time></trkpt><trkpt lat="43.706448190199836" lon="11.080797338508471"><ele>62.0</ele><time>2026-03-22T10:20:59.014Z</time></trkpt><trkpt lat="43.70647453304668" lon="11.08064834750235"><ele>60.75</ele><time>2026-03-22T10:21:00.014Z</time></trkpt><trkpt lat="43.706492756863526" lon="11.08048152122651"><ele>59.5</ele><time>2026-03-22T10:21:01.014Z</time></trkpt><trkpt lat="43.70652781224343" lon="11.080328183451963"><ele>58.25</ele><time>2026-03-22T10:21:02.014Z</time></trkpt><trkpt lat="43.70656146389861" lon="11.080169092184008"><ele>57.0</ele><time>2026-03-22T10:21:03.014Z</time></trkpt><trkpt lat="43.706626690552824" lon="11.08001217782809"><ele>56.8</ele><time>2026-03-22T10:21:04.014Z</time></trkpt><trkpt lat="43.70670900248734" lon="11.079876936785912"><ele>56.6</ele><time>2026-03-22T10:21:05.014Z</time></trkpt><trkpt lat="43.70679142481852" lon="11.079761037201083"><ele>56.39999999999999</ele><time>2026-03-22T10:21:06.014Z</time></trkpt><trkpt lat="43.7068805485196" lon="11.079692623169402"><ele>56.199999999999996</ele><time>2026-03-22T10:21:07.014Z</time></trkpt><trkpt lat="43.70696220406733" lon="11.079621093601975"><ele>56.0</ele><time>2026-03-22T10:21:08.014Z</time></trkpt><trkpt lat="43.707028122676036" lon="11.079547288081113"><ele>57.0</ele><time>2026-03-22T10:21:09.015Z</time></trkpt><trkpt lat="43.70706302862287" lon="11.079415269132127"><ele>58.0</ele><time>2026-03-22T10:21:10.015Z</time></trkpt><trkpt lat="43.70710527036755" lon="11.07927916261882"><ele>59.0</ele><time>2026-03-22T10:21:11.015Z</time></trkpt><trkpt lat="43.70714391164085" lon="11.079128300062619"><ele>60.0</ele><time>2026-03-22T10:21:12.015Z</time></trkpt><trkpt lat="43.707191798490264" lon="11.0789681339125"><ele>60.0</ele><time>2026-03-22T10:21:13.015Z</time></trkpt><trkpt lat="43.7072375748665" lon="11.07877701577923"><ele>60.0</ele><time>2026-03-22T10:21:14.015Z</time></trkpt><trkpt lat="43.70726876227213" lon="11.078575530237574"><ele>60.0</ele><time>2026-03-22T10:21:15.015Z</time></trkpt><trkpt lat="43.70731837798127" lon="11.078358696675702"><ele>59.0</ele><time>2026-03-22T10:21:16.015Z</time></trkpt><trkpt lat="43.70738061156894" lon="11.078143256832504"><ele>58.0</ele><time>2026-03-22T10:21:17.015Z</time></trkpt><trkpt lat="43.707448701809966" lon="11.07792316027129"><ele>57.0</ele><time>2026-03-22T10:21:18.015Z</time></trkpt><trkpt lat="43.707516020197076" lon="11.07769649302714"><ele>57.0</ele><time>2026-03-22T10:21:19.015Z</time></trkpt><trkpt lat="43.70758930525856" lon="11.077464394254516"><ele>57.0</ele><time>2026-03-22T10:21:20.015Z</time></trkpt><trkpt lat="43.7076555313923" lon="11.077257538347778"><ele>57.0</ele><time>2026-03-22T10:21:21.015Z</time></trkpt><trkpt lat="43.70771920615451" lon="11.077073755151451"><ele>58.25</ele><time>2026-03-22T10:21:22.015Z</time></trkpt><trkpt lat="43.707780968590754" lon="11.076909444013985"><ele>59.5</ele><time>2026-03-22T10:21:23.015Z</time></trkpt><trkpt lat="43.70784417928429" lon="11.076768828268088"><ele>60.75</ele><time>2026-03-22T10:21:24.015Z</time></trkpt><trkpt lat="43.70788921004977" lon="11.076627862826864"><ele>62.0</ele><time>2026-03-22T10:21:25.015Z</time></trkpt><trkpt lat="43.70793735851073" lon="11.076505072253221"><ele>62.0</ele><time>2026-03-22T10:21:26.015Z</time></trkpt><trkpt lat="43.70797179330231" lon="11.076374332595513"><ele>62.0</ele><time>2026-03-22T10:21:27.015Z</time></trkpt><trkpt lat="43.70800621711619" lon="11.076254437282175"><ele>62.0</ele><time>2026-03-22T10:21:28.015Z</time></trkpt><trkpt lat="43.70803244595902" lon="11.076135215657649"><ele>62.0</ele><time>2026-03-22T10:21:29.015Z</time></trkpt><trkpt lat="43.708054624303685" lon="11.076009202883846"><ele>62.0</ele><time>2026-03-22T10:21:30.015Z</time></trkpt><trkpt lat="43.70808384045255" lon="11.075888490305816"><ele>61.25</ele><time>2026-03-22T10:21:31.015Z</time></trkpt><trkpt lat="43.708110114204985" lon="11.075739802427332"><ele>60.5</ele><time>2026-03-22T10:21:32.015Z</time></trkpt><trkpt lat="43.70813725156515" lon="11.075582835082807"><ele>59.75</ele><time>2026-03-22T10:21:33.015Z</time></trkpt><trkpt lat="43.70816735365" lon="11.075418769842532"><ele>59.0</ele><time>2026-03-22T10:21:34.015Z</time></trkpt><trkpt lat="43.70819000254835" lon="11.075257867012112"><ele>59.0</ele><time>2026-03-22T10:21:35.015Z</time></trkpt><trkpt lat="43.70821490426534" lon="11.075091457130164"><ele>59.0</ele><time>2026-03-22T10:21:36.015Z</time></trkpt><trkpt lat="43.708229798591745" lon="11.074908564116308"><ele>59.0</ele><time>2026-03-22T10:21:37.015Z</time></trkpt><trkpt lat="43.70825977539218" lon="11.074740961094946"><ele>59.0</ele><time>2026-03-22T10:21:38.015Z</time></trkpt><trkpt lat="43.70827222438304" lon="11.074599577178526"><ele>58.66666666666667</ele><time>2026-03-22T10:21:39.015Z</time></trkpt><trkpt lat="43.7083030220152" lon="11.074483452784651"><ele>58.333333333333336</ele><time>2026-03-22T10:21:40.015Z</time></trkpt><trkpt lat="43.70832824386984" lon="11.074378384989124"><ele>58.0</ele><time>2026-03-22T10:21:41.015Z</time></trkpt><trkpt lat="43.708368096068114" lon="11.074223755698402"><ele>57.66666666666667</ele><time>2026-03-22T10:21:43.015Z</time></trkpt><trkpt lat="43.708390832230705" lon="11.074128997194718"><ele>57.333333333333336</ele><time>2026-03-22T10:21:44.015Z</time></trkpt><trkpt lat="43.708408675389315" lon="11.074044016626683"><ele>57.0</ele><time>2026-03-22T10:21:45.015Z</time></trkpt><trkpt lat="43.708454725916624" lon="11.073955789282566"><ele>56.2</ele><time>2026-03-22T10:21:46.015Z</time></trkpt><trkpt lat="43.70848392583675" lon="11.073857707637588"><ele>55.400000000000006</ele><time>2026-03-22T10:21:47.015Z</time></trkpt><trkpt lat="43.7085180337177" lon="11.073764124764494"><ele>54.599999999999994</ele><time>2026-03-22T10:21:48.015Z</time></trkpt><trkpt lat="43.708546719828526" lon="11.07364352165938"><ele>53.8</ele><time>2026-03-22T10:21:49.015Z</time></trkpt><trkpt lat="43.70858906808668" lon="11.073507205566433"><ele>53.0</ele><time>2026-03-22T10:21:50.015Z</time></trkpt><trkpt lat="43.70862893377957" lon="11.073378999041676"><ele>54.4</ele><time>2026-03-22T10:21:51.015Z</time></trkpt><trkpt lat="43.7086780704922" lon="11.073237061365425"><ele>55.8</ele><time>2026-03-22T10:21:52.015Z</time></trkpt><trkpt lat="43.708727172852065" lon="11.07309247711159"><ele>57.2</ele><time>2026-03-22T10:21:53.015Z</time></trkpt><trkpt lat="43.708770218225716" lon="11.07296764211011"><ele>58.6</ele><time>2026-03-22T10:21:54.015Z</time></trkpt><trkpt lat="43.70880280246695" lon="11.072852298486575"><ele>60.0</ele><time>2026-03-22T10:21:55.015Z</time></trkpt><trkpt lat="43.70883260707661" lon="11.072747276131045"><ele>60.0</ele><time>2026-03-22T10:21:56.015Z</time></trkpt><trkpt lat="43.708854300693446" lon="11.072645196037405"><ele>60.0</ele><time>2026-03-22T10:21:57.015Z</time></trkpt><trkpt lat="43.70887180209795" lon="11.072559588652448"><ele>60.0</ele><time>2026-03-22T10:21:58.015Z</time></trkpt><trkpt lat="43.708921948246186" lon="11.072419033809997"><ele>60.0</ele><time>2026-03-22T10:22:00.015Z</time></trkpt><trkpt lat="43.708886928794996" lon="11.072323157663668"><ele>60.0</ele><time>2026-03-22T10:22:02.015Z</time></trkpt><trkpt lat="43.70877444686562" lon="11.07226688128827"><ele>59.166666666666664</ele><time>2026-03-22T10:22:04.015Z</time></trkpt><trkpt lat="43.70868311462972" lon="11.072194476165798"><ele>58.33333333333333</ele><time>2026-03-22T10:22:06.015Z</time></trkpt><trkpt lat="43.70857491614562" lon="11.07211425256432"><ele>57.5</ele><time>2026-03-22T10:22:08.015Z</time></trkpt><trkpt lat="43.708515939197355" lon="11.072062464607457"><ele>56.666666666666664</ele><time>2026-03-22T10:22:09.015Z</time></trkpt><trkpt lat="43.70845254615214" lon="11.07200374114751"><ele>55.83333333333333</ele><time>2026-03-22T10:22:10.015Z</time></trkpt><trkpt lat="43.708389038498" lon="11.071952058683474"><ele>55.0</ele><time>2026-03-22T10:22:11.015Z</time></trkpt><trkpt lat="43.708313141007686" lon="11.071913359215285"><ele>54.666666666666664</ele><time>2026-03-22T10:22:12.015Z</time></trkpt><trkpt lat="43.70823561100938" lon="11.07186456958604"><ele>54.33333333333333</ele><time>2026-03-22T10:22:13.015Z</time></trkpt><trkpt lat="43.70816277444154" lon="11.071818548571247"><ele>54.0</ele><time>2026-03-22T10:22:14.015Z</time></trkpt><trkpt lat="43.70808266192946" lon="11.071770233092645"><ele>53.66666666666667</ele><time>2026-03-22T10:22:15.015Z</time></trkpt><trkpt lat="43.70801861484968" lon="11.071722839945545"><ele>53.333333333333336</ele><time>2026-03-22T10:22:16.015Z</time></trkpt><trkpt lat="43.70791703482796" lon="11.071647267967482"><ele>53.0</ele><time>2026-03-22T10:22:18.015Z</time></trkpt><trkpt lat="43.70785009844175" lon="11.071570934636554"><ele>52.66666666666667</ele><time>2026-03-22T10:22:20.015Z</time></trkpt><trkpt lat="43.70780703370566" lon="11.071468588203082"><ele>52.333333333333336</ele><time>2026-03-22T10:22:22.014Z</time></trkpt><trkpt lat="43.707779155926794" lon="11.071310156544232"><ele>52.0</ele><time>2026-03-22T10:22:24.014Z</time></trkpt><trkpt lat="43.70773583090419" lon="11.07121144989778"><ele>51.66666666666667</ele><time>2026-03-22T10:22:25.014Z</time></trkpt><trkpt lat="43.707684718082895" lon="11.071145331824217"><ele>51.333333333333336</ele><time>2026-03-22T10:22:26.014Z</time></trkpt><trkpt lat="43.70762089347207" lon="11.07111081227936"><ele>51.0</ele><time>2026-03-22T10:22:27.014Z</time></trkpt><trkpt lat="43.707548703598405" lon="11.071092845095844"><ele>50.8</ele><time>2026-03-22T10:22:28.014Z</time></trkpt><trkpt lat="43.70746484498909" lon="11.071085584192744"><ele>50.599999999999994</ele><time>2026-03-22T10:22:29.014Z</time></trkpt><trkpt lat="43.70737716863064" lon="11.071072395467286"><ele>50.4</ele><time>2026-03-22T10:22:30.014Z</time></trkpt><trkpt lat="43.70729181720959" lon="11.071032075012944"><ele>50.2</ele><time>2026-03-22T10:22:31.014Z</time></trkpt><trkpt lat="43.70722317349944" lon="11.07095385657355"><ele>50.0</ele><time>2026-03-22T10:22:32.014Z</time></trkpt><trkpt lat="43.70715161797458" lon="11.070838740436727"><ele>50.2</ele><time>2026-03-22T10:22:33.014Z</time></trkpt><trkpt lat="43.70708955792666" lon="11.070735466774314"><ele>50.4</ele><time>2026-03-22T10:22:34.014Z</time></trkpt><trkpt lat="43.70702097245965" lon="11.070628841136488"><ele>50.599999999999994</ele><time>2026-03-22T10:22:35.014Z</time></trkpt><trkpt lat="43.70696079091804" lon="11.070528127724211"><ele>50.8</ele><time>2026-03-22T10:22:36.014Z</time></trkpt><trkpt lat="43.70689347901128" lon="11.070436491676345"><ele>51.0</ele><time>2026-03-22T10:22:37.014Z</time></trkpt><trkpt lat="43.70682965360006" lon="11.070339215627165"><ele>51.0</ele><time>2026-03-22T10:22:38.014Z</time></trkpt><trkpt lat="43.706756887127256" lon="11.070235352969195"><ele>51.0</ele><time>2026-03-22T10:22:39.014Z</time></trkpt><trkpt lat="43.706680486757975" lon="11.070135957485956"><ele>51.0</ele><time>2026-03-22T10:22:40.014Z</time></trkpt><trkpt lat="43.706589882631235" lon="11.070055538351411"><ele>51.0</ele><time>2026-03-22T10:22:41.014Z</time></trkpt><trkpt lat="43.70649837986578" lon="11.06995854257465"><ele>51.0</ele><time>2026-03-22T10:22:42.014Z</time></trkpt><trkpt lat="43.70638521795175" lon="11.06986671235473"><ele>50.75</ele><time>2026-03-22T10:22:43.014Z</time></trkpt><trkpt lat="43.70626233956141" lon="11.06976624853024"><ele>50.5</ele><time>2026-03-22T10:22:44.014Z</time></trkpt><trkpt lat="43.706126929775806" lon="11.06966895196793"><ele>50.25</ele><time>2026-03-22T10:22:45.014Z</time></trkpt><trkpt lat="43.7060039792541" lon="11.069586221914227"><ele>50.0</ele><time>2026-03-22T10:22:46.014Z</time></trkpt><trkpt lat="43.70589844913402" lon="11.069506814527449"><ele>49.8</ele><time>2026-03-22T10:22:47.014Z</time></trkpt><trkpt lat="43.705799523129386" lon="11.069433136447708"><ele>49.6</ele><time>2026-03-22T10:22:48.014Z</time></trkpt><trkpt lat="43.705713460433685" lon="11.06936363862904"><ele>49.400000000000006</ele><time>2026-03-22T10:22:49.014Z</time></trkpt><trkpt lat="43.70562774369698" lon="11.069291248627652"><ele>49.2</ele><time>2026-03-22T10:22:50.014Z</time></trkpt><trkpt lat="43.70553066281763" lon="11.069213296126094"><ele>49.0</ele><time>2026-03-22T10:22:51.014Z</time></trkpt><trkpt lat="43.70543726154408" lon="11.06913882253522"><ele>49.2</ele><time>2026-03-22T10:22:52.014Z</time></trkpt><trkpt lat="43.70534427862949" lon="11.069086690095823"><ele>49.400000000000006</ele><time>2026-03-22T10:22:53.014Z</time></trkpt><trkpt lat="43.70527960204501" lon="11.069014298202024"><ele>49.6</ele><time>2026-03-22T10:22:54.014Z</time></trkpt><trkpt lat="43.70520474528295" lon="11.068956131922837"><ele>49.8</ele><time>2026-03-22T10:22:56.014Z</time></trkpt><trkpt lat="43.705082056310445" lon="11.069101782781216"><ele>50.0</ele><time>2026-03-22T10:22:57.014Z</time></trkpt><trkpt lat="43.70503658173354" lon="11.06919052633015"><ele>50.4</ele><time>2026-03-22T10:22:58.014Z</time></trkpt><trkpt lat="43.704994463988136" lon="11.06927271721887"><ele>50.8</ele><time>2026-03-22T10:22:59.014Z</time></trkpt><trkpt lat="43.70494304237299" lon="11.06937386654384"><ele>51.2</ele><time>2026-03-22T10:23:00.014Z</time></trkpt><trkpt lat="43.704937760754376" lon="11.069535440966492"><ele>51.6</ele><time>2026-03-22T10:23:01.014Z</time></trkpt><trkpt lat="43.70487613478846" lon="11.069638141328191"><ele>52.0</ele><time>2026-03-22T10:23:02.014Z</time></trkpt><trkpt lat="43.704802494305575" lon="11.069751775687443"><ele>52.0</ele><time>2026-03-22T10:23:03.014Z</time></trkpt><trkpt lat="43.70472276856637" lon="11.069877844951797"><ele>52.0</ele><time>2026-03-22T10:23:04.014Z</time></trkpt><trkpt lat="43.704635027562986" lon="11.069999488644948"><ele>52.0</ele><time>2026-03-22T10:23:05.014Z</time></trkpt><trkpt lat="43.7045253523084" lon="11.070119512362117"><ele>52.0</ele><time>2026-03-22T10:23:06.014Z</time></trkpt><trkpt lat="43.70440172026807" lon="11.070243903908752"><ele>56.25</ele><time>2026-03-22T10:23:07.014Z</time></trkpt><trkpt lat="43.704286767378115" lon="11.070342436726838"><ele>60.5</ele><time>2026-03-22T10:23:08.014Z</time></trkpt><trkpt lat="43.70418125438287" lon="11.070446646688712"><ele>64.75</ele><time>2026-03-22T10:23:09.014Z</time></trkpt><trkpt lat="43.70403704515221" lon="11.070499381366378"><ele>69.0</ele><time>2026-03-22T10:23:10.014Z</time></trkpt><trkpt lat="43.70392239085018" lon="11.070621319285396"><ele>69.0</ele><time>2026-03-22T10:23:11.014Z</time></trkpt><trkpt lat="43.703809570247564" lon="11.070760622416204"><ele>69.0</ele><time>2026-03-22T10:23:12.014Z</time></trkpt><trkpt lat="43.70370375670466" lon="11.070914993914371"><ele>69.0</ele><time>2026-03-22T10:23:13.014Z</time></trkpt><trkpt lat="43.703616266487096" lon="11.071059757294261"><ele>69.0</ele><time>2026-03-22T10:23:14.015Z</time></trkpt><trkpt lat="43.70355379943966" lon="11.071159732803281"><ele>71.0</ele><time>2026-03-22T10:23:15.015Z</time></trkpt><trkpt lat="43.70349355387135" lon="11.071226314272103"><ele>73.0</ele><time>2026-03-22T10:23:16.015Z</time></trkpt><trkpt lat="43.703402172800644" lon="11.07123934185287"><ele>75.0</ele><time>2026-03-22T10:23:18.015Z</time></trkpt><trkpt lat="43.70342026067924" lon="11.07106938610016"><ele>77.0</ele><time>2026-03-22T10:23:20.015Z</time></trkpt><trkpt lat="43.7034815772612" lon="11.070954206247155"><ele>79.0</ele><time>2026-03-22T10:23:21.016Z</time></trkpt><trkpt lat="43.70354632915044" lon="11.070844776186949"><ele>76.5</ele><time>2026-03-22T10:23:22.016Z</time></trkpt><trkpt lat="43.70359598410898" lon="11.07069918793951"><ele>74.0</ele><time>2026-03-22T10:23:23.015Z</time></trkpt><trkpt lat="43.703657996858524" lon="11.070554037493505"><ele>71.5</ele><time>2026-03-22T10:23:24.015Z</time></trkpt><trkpt lat="43.70374765253216" lon="11.070405686574023"><ele>69.0</ele><time>2026-03-22T10:23:25.015Z</time></trkpt><trkpt lat="43.70382282566245" lon="11.070237618390726"><ele>69.0</ele><time>2026-03-22T10:23:26.015Z</time></trkpt><trkpt lat="43.70388206357579" lon="11.070084448612368"><ele>69.0</ele><time>2026-03-22T10:23:27.015Z</time></trkpt><trkpt lat="43.703942486907074" lon="11.069946334221507"><ele>69.0</ele><time>2026-03-22T10:23:28.015Z</time></trkpt><trkpt lat="43.70400343541994" lon="11.069802826473614"><ele>69.0</ele><time>2026-03-22T10:23:29.015Z</time></trkpt><trkpt lat="43.70403372831359" lon="11.069660747871023"><ele>68.66666666666667</ele><time>2026-03-22T10:23:30.015Z</time></trkpt><trkpt lat="43.70404255355161" lon="11.06957397959658"><ele>68.33333333333333</ele><time>2026-03-22T10:23:31.015Z</time></trkpt><trkpt lat="43.704023118938764" lon="11.069489417141124"><ele>68.0</ele><time>2026-03-22T10:23:32.015Z</time></trkpt><trkpt lat="43.703963909560684" lon="11.06940842729567"><ele>67.66666666666666</ele><time>2026-03-22T10:23:33.015Z</time></trkpt><trkpt lat="43.70388625728729" lon="11.069345387162812"><ele>67.33333333333333</ele><time>2026-03-22T10:23:34.015Z</time></trkpt><trkpt lat="43.70379240714521" lon="11.069316107203992"><ele>67.0</ele><time>2026-03-22T10:23:35.015Z</time></trkpt><trkpt lat="43.70370469402935" lon="11.069295640399247"><ele>67.0</ele><time>2026-03-22T10:23:36.015Z</time></trkpt><trkpt lat="43.703632932050525" lon="11.069316183120364"><ele>67.0</ele><time>2026-03-22T10:23:37.015Z</time></trkpt><trkpt lat="43.703574479245056" lon="11.069384004157557"><ele>67.0</ele><time>2026-03-22T10:23:38.015Z</time></trkpt><trkpt lat="43.7035160450861" lon="11.069512145207879"><ele>67.0</ele><time>2026-03-22T10:23:39.015Z</time></trkpt><trkpt lat="43.70348739835364" lon="11.069629989109636"><ele>67.0</ele><time>2026-03-22T10:23:40.015Z</time></trkpt><trkpt lat="43.703439236625044" lon="11.069752440681219"><ele>70.5</ele><time>2026-03-22T10:23:41.015Z</time></trkpt><trkpt lat="43.70337589678769" lon="11.069875802786186"><ele>74.0</ele><time>2026-03-22T10:23:42.015Z</time></trkpt><trkpt lat="43.70329668714596" lon="11.070007669003958"><ele>77.5</ele><time>2026-03-22T10:23:43.015Z</time></trkpt><trkpt lat="43.70321184394686" lon="11.070120847495629"><ele>81.0</ele><time>2026-03-22T10:23:44.015Z</time></trkpt><trkpt lat="43.70310071698255" lon="11.070197273647175"><ele>82.5</ele><time>2026-03-22T10:23:45.015Z</time></trkpt><trkpt lat="43.702975728652355" lon="11.070235620031072"><ele>84.0</ele><time>2026-03-22T10:23:46.015Z</time></trkpt><trkpt lat="43.702852252321385" lon="11.070242014459101"><ele>85.5</ele><time>2026-03-22T10:23:47.015Z</time></trkpt><trkpt lat="43.70271662212845" lon="11.07026662813848"><ele>87.0</ele><time>2026-03-22T10:23:48.015Z</time></trkpt><trkpt lat="43.70258195083053" lon="11.070266684390194"><ele>88.66666666666667</ele><time>2026-03-22T10:23:49.015Z</time></trkpt><trkpt lat="43.70242467429047" lon="11.070315315700707"><ele>90.33333333333334</ele><time>2026-03-22T10:23:50.015Z</time></trkpt><trkpt lat="43.702264156914225" lon="11.070361324481189"><ele>92.0</ele><time>2026-03-22T10:23:51.014Z</time></trkpt><trkpt lat="43.70210800974236" lon="11.070396341792454"><ele>92.0</ele><time>2026-03-22T10:23:52.013Z</time></trkpt><trkpt lat="43.70196353302404" lon="11.07042255475171"><ele>92.0</ele><time>2026-03-22T10:23:53.013Z</time></trkpt><trkpt lat="43.7018127943237" lon="11.070448139658858"><ele>92.0</ele><time>2026-03-22T10:23:54.012Z</time></trkpt><trkpt lat="43.70166463990571" lon="11.070473285963637"><ele>92.0</ele><time>2026-03-22T10:23:55.011Z</time></trkpt><trkpt lat="43.70151608267699" lon="11.07050047078626"><ele>93.33333333333334</ele><time>2026-03-22T10:23:56.01Z</time></trkpt><trkpt lat="43.701363289707366" lon="11.070533444657473"><ele>94.66666666666667</ele><time>2026-03-22T10:23:57.01Z</time></trkpt><trkpt lat="43.70120939131891" lon="11.07057968573561"><ele>96.0</ele><time>2026-03-22T10:23:58.009Z</time></trkpt><trkpt lat="43.70107183543744" lon="11.070639895704236"><ele>96.0</ele><time>2026-03-22T10:23:59.009Z</time></trkpt><trkpt lat="43.70093193507455" lon="11.070745239580985"><ele>96.0</ele><time>2026-03-22T10:24:00.008Z</time></trkpt><trkpt lat="43.70077642544423" lon="11.070817747045066"><ele>96.0</ele><time>2026-03-22T10:24:01.007Z</time></trkpt><trkpt lat="43.700644630203385" lon="11.070856073804858"><ele>101.0</ele><time>2026-03-22T10:24:02.007Z</time></trkpt><trkpt lat="43.70050243304515" lon="11.070888737909543"><ele>106.0</ele><time>2026-03-22T10:24:03.007Z</time></trkpt><trkpt lat="43.70037489327189" lon="11.070903410720758"><ele>111.0</ele><time>2026-03-22T10:24:04.006Z</time></trkpt><trkpt lat="43.70029081750232" lon="11.07094636016474"><ele>116.0</ele><time>2026-03-22T10:24:05.006Z</time></trkpt><trkpt lat="43.70022393805352" lon="11.071081130367615"><ele>116.0</ele><time>2026-03-22T10:24:07.005Z</time></trkpt><trkpt lat="43.70023774961599" lon="11.071187535740844"><ele>116.0</ele><time>2026-03-22T10:24:08.005Z</time></trkpt><trkpt lat="43.70030550927157" lon="11.071296238227998"><ele>116.0</ele><time>2026-03-22T10:24:09.004Z</time></trkpt><trkpt lat="43.70044225446518" lon="11.071294965652024"><ele>116.0</ele><time>2026-03-22T10:24:10.004Z</time></trkpt><trkpt lat="43.70055191631798" lon="11.071298950474999"><ele>116.0</ele><time>2026-03-22T10:24:11.004Z</time></trkpt><trkpt lat="43.700644653977896" lon="11.071294346063707"><ele>115.99999999999999</ele><time>2026-03-22T10:24:12.004Z</time></trkpt><trkpt lat="43.7007327325837" lon="11.071291200832288"><ele>116.0</ele><time>2026-03-22T10:24:13.003Z</time></trkpt><trkpt lat="43.70082909932596" lon="11.071273998027404"><ele>116.0</ele><time>2026-03-22T10:24:14.003Z</time></trkpt><trkpt lat="43.700909560380694" lon="11.071320856308576"><ele>116.0</ele><time>2026-03-22T10:24:15.003Z</time></trkpt><trkpt lat="43.70093831291751" lon="11.071434092610566"><ele>115.99999999999999</ele><time>2026-03-22T10:24:16.003Z</time></trkpt><trkpt lat="43.70091904857274" lon="11.071553413329195"><ele>116.0</ele><time>2026-03-22T10:24:17.003Z</time></trkpt><trkpt lat="43.7008732998763" lon="11.071633154518674"><ele>117.6</ele><time>2026-03-22T10:24:18.002Z</time></trkpt><trkpt lat="43.700807904939374" lon="11.071702397729952"><ele>119.19999999999999</ele><time>2026-03-22T10:24:19.002Z</time></trkpt><trkpt lat="43.70071155723211" lon="11.071742848962264"><ele>120.80000000000001</ele><time>2026-03-22T10:24:20.002Z</time></trkpt><trkpt lat="43.70060826468638" lon="11.07173869797953"><ele>122.4</ele><time>2026-03-22T10:24:21.002Z</time></trkpt><trkpt lat="43.7005011818784" lon="11.071698140170477"><ele>124.0</ele><time>2026-03-22T10:24:22.002Z</time></trkpt><trkpt lat="43.700391571016006" lon="11.071654551728296"><ele>124.0</ele><time>2026-03-22T10:24:23.002Z</time></trkpt><trkpt lat="43.70028118240903" lon="11.071615409357676"><ele>124.0</ele><time>2026-03-22T10:24:24.001Z</time></trkpt><trkpt lat="43.70016160297081" lon="11.071590519374121"><ele>124.0</ele><time>2026-03-22T10:24:25.001Z</time></trkpt><trkpt lat="43.70005023530077" lon="11.07156883697678"><ele>124.0</ele><time>2026-03-22T10:24:26.001Z</time></trkpt><trkpt lat="43.69995161086191" lon="11.071562744448302"><ele>124.0</ele><time>2026-03-22T10:24:27.001Z</time></trkpt><trkpt lat="43.69985038169304" lon="11.071556779188693"><ele>122.80000000000001</ele><time>2026-03-22T10:24:28.001Z</time></trkpt><trkpt lat="43.699745429816815" lon="11.071579054649497"><ele>121.60000000000001</ele><time>2026-03-22T10:24:29.001Z</time></trkpt><trkpt lat="43.69963518515862" lon="11.071597923239523"><ele>120.4</ele><time>2026-03-22T10:24:30.001Z</time></trkpt><trkpt lat="43.69955682952393" lon="11.071720532345626"><ele>119.2</ele><time>2026-03-22T10:24:31.001Z</time></trkpt><trkpt lat="43.69949554134139" lon="11.07184291782952"><ele>118.0</ele><time>2026-03-22T10:24:32.001Z</time></trkpt><trkpt lat="43.69943136220172" lon="11.071976787669477"><ele>121.25</ele><time>2026-03-22T10:24:33.001Z</time></trkpt><trkpt lat="43.69934481685864" lon="11.07213429794564"><ele>124.5</ele><time>2026-03-22T10:24:34.001Z</time></trkpt><trkpt lat="43.6992589080933" lon="11.072267065745681"><ele>127.75</ele><time>2026-03-22T10:24:35Z</time></trkpt><trkpt lat="43.699147757586765" lon="11.07241220998276"><ele>131.0</ele><time>2026-03-22T10:24:36Z</time></trkpt><trkpt lat="43.699033713933" lon="11.072536643580552"><ele>134.0</ele><time>2026-03-22T10:24:37Z</time></trkpt><trkpt lat="43.6989380632431" lon="11.072631468930197"><ele>137.0</ele><time>2026-03-22T10:24:38Z</time></trkpt><trkpt lat="43.69884322237344" lon="11.07271016063685"><ele>140.0</ele><time>2026-03-22T10:24:39Z</time></trkpt><trkpt lat="43.69873337717834" lon="11.072772491479464"><ele>143.0</ele><time>2026-03-22T10:24:40Z</time></trkpt><trkpt lat="43.69861749666491" lon="11.072818582458899"><ele>141.4</ele><time>2026-03-22T10:24:41Z</time></trkpt><trkpt lat="43.698505810236455" lon="11.072885190432698"><ele>139.8</ele><time>2026-03-22T10:24:42Z</time></trkpt><trkpt lat="43.69839789961396" lon="11.072910050557184"><ele>138.2</ele><time>2026-03-22T10:24:43Z</time></trkpt><trkpt lat="43.698293624548" lon="11.072983529308393"><ele>136.6</ele><time>2026-03-22T10:24:44Z</time></trkpt><trkpt lat="43.698218989252176" lon="11.073073873744432"><ele>135.0</ele><time>2026-03-22T10:24:45Z</time></trkpt><trkpt lat="43.698146683464856" lon="11.073200503730753"><ele>136.5</ele><time>2026-03-22T10:24:46Z</time></trkpt><trkpt lat="43.698054161053726" lon="11.073323860581395"><ele>138.0</ele><time>2026-03-22T10:24:47Z</time></trkpt><trkpt lat="43.697956118974304" lon="11.07341901549044"><ele>139.5</ele><time>2026-03-22T10:24:48Z</time></trkpt><trkpt lat="43.69783900847067" lon="11.073511444305842"><ele>141.0</ele><time>2026-03-22T10:24:49Z</time></trkpt><trkpt lat="43.69770901456134" lon="11.073612093124414"><ele>141.0</ele><time>2026-03-22T10:24:50Z</time></trkpt><trkpt lat="43.69756964232728" lon="11.073720004845017"><ele>141.0</ele><time>2026-03-22T10:24:51Z</time></trkpt><trkpt lat="43.69744690961287" lon="11.073839650650141"><ele>141.0</ele><time>2026-03-22T10:24:52Z</time></trkpt><trkpt lat="43.69732310006427" lon="11.07391239666153"><ele>141.0</ele><time>2026-03-22T10:24:53Z</time></trkpt><trkpt lat="43.69719649995763" lon="11.074016674738273"><ele>141.5</ele><time>2026-03-22T10:24:54Z</time></trkpt><trkpt lat="43.69705940082149" lon="11.074125547061277"><ele>142.0</ele><time>2026-03-22T10:24:55Z</time></trkpt><trkpt lat="43.69693457141523" lon="11.074216480731023"><ele>142.5</ele><time>2026-03-22T10:24:55.999Z</time></trkpt><trkpt lat="43.696822817281245" lon="11.074310440816886"><ele>143.0</ele><time>2026-03-22T10:24:56.999Z</time></trkpt><trkpt lat="43.696707087323915" lon="11.07439581480968"><ele>144.8</ele><time>2026-03-22T10:24:57.999Z</time></trkpt><trkpt lat="43.69660650491938" lon="11.074454238635127"><ele>146.60000000000002</ele><time>2026-03-22T10:24:58.999Z</time></trkpt><trkpt lat="43.69651158148465" lon="11.074529087320474"><ele>148.39999999999998</ele><time>2026-03-22T10:24:59.999Z</time></trkpt><trkpt lat="43.6964237644757" lon="11.07457608272326"><ele>150.2</ele><time>2026-03-22T10:25:00.999Z</time></trkpt><trkpt lat="43.696360260371456" lon="11.074628941676671"><ele>152.0</ele><time>2026-03-22T10:25:01.999Z</time></trkpt><trkpt lat="43.696299554968846" lon="11.074692224616959"><ele>152.0</ele><time>2026-03-22T10:25:02.999Z</time></trkpt><trkpt lat="43.69622702630657" lon="11.074745600990804"><ele>152.0</ele><time>2026-03-22T10:25:03.999Z</time></trkpt><trkpt lat="43.69614897882674" lon="11.074816987553017"><ele>152.0</ele><time>2026-03-22T10:25:04.999Z</time></trkpt><trkpt lat="43.69608120199446" lon="11.074868293831518"><ele>152.0</ele><time>2026-03-22T10:25:05.999Z</time></trkpt><trkpt lat="43.69601829280961" lon="11.074903615867"><ele>152.0</ele><time>2026-03-22T10:25:06.999Z</time></trkpt><trkpt lat="43.69595350636593" lon="11.074922545340089"><ele>152.0</ele><time>2026-03-22T10:25:07.999Z</time></trkpt><trkpt lat="43.69588986530131" lon="11.074933769380435"><ele>150.79999999999998</ele><time>2026-03-22T10:25:08.999Z</time></trkpt><trkpt lat="43.69580043495366" lon="11.07492659913696"><ele>149.6</ele><time>2026-03-22T10:25:09.999Z</time></trkpt><trkpt lat="43.69571374608415" lon="11.074935090495961"><ele>148.39999999999998</ele><time>2026-03-22T10:25:10.999Z</time></trkpt><trkpt lat="43.695621664266866" lon="11.074930402782186"><ele>147.2</ele><time>2026-03-22T10:25:11.999Z</time></trkpt><trkpt lat="43.69552851391226" lon="11.07492303335749"><ele>146.0</ele><time>2026-03-22T10:25:12.999Z</time></trkpt><trkpt lat="43.69538641848034" lon="11.074932697111421"><ele>146.0</ele><time>2026-03-22T10:25:14.999Z</time></trkpt><trkpt lat="43.695289010964906" lon="11.074919932905994"><ele>146.0</ele><time>2026-03-22T10:25:15.999Z</time></trkpt><trkpt lat="43.695193287083896" lon="11.074923013689077"><ele>146.0</ele><time>2026-03-22T10:25:16.999Z</time></trkpt><trkpt lat="43.69510663141387" lon="11.07493916752961"><ele>146.0</ele><time>2026-03-22T10:25:17.999Z</time></trkpt><trkpt lat="43.69502744204011" lon="11.07494235027367"><ele>146.0</ele><time>2026-03-22T10:25:18.999Z</time></trkpt><trkpt lat="43.694947730234766" lon="11.074961603227152"><ele>146.0</ele><time>2026-03-22T10:25:20.001Z</time></trkpt><trkpt lat="43.69485620957744" lon="11.074979911391727"><ele>146.0</ele><time>2026-03-22T10:25:21.001Z</time></trkpt><trkpt lat="43.694777937406144" lon="11.074978362278753"><ele>146.0</ele><time>2026-03-22T10:25:22.001Z</time></trkpt><trkpt lat="43.69469081003763" lon="11.0749825773405"><ele>146.0</ele><time>2026-03-22T10:25:23.001Z</time></trkpt><trkpt lat="43.69458083987912" lon="11.074980808749645"><ele>146.0</ele><time>2026-03-22T10:25:24.001Z</time></trkpt><trkpt lat="43.69445329470724" lon="11.074986062711464"><ele>146.0</ele><time>2026-03-22T10:25:25Z</time></trkpt><trkpt lat="43.694327791279434" lon="11.074988708507727"><ele>146.0</ele><time>2026-03-22T10:25:26.001Z</time></trkpt><trkpt lat="43.69421014601846" lon="11.074991077297485"><ele>146.0</ele><time>2026-03-22T10:25:27.001Z</time></trkpt><trkpt lat="43.69410604890222" lon="11.07499056675338"><ele>146.0</ele><time>2026-03-22T10:25:28.001Z</time></trkpt><trkpt lat="43.694014005348194" lon="11.074991715337406"><ele>146.0</ele><time>2026-03-22T10:25:29.001Z</time></trkpt><trkpt lat="43.69393103342344" lon="11.074988507911419"><ele>146.0</ele><time>2026-03-22T10:25:30.001Z</time></trkpt><trkpt lat="43.693852129806736" lon="11.07499661087393"><ele>146.0</ele><time>2026-03-22T10:25:31.001Z</time></trkpt><trkpt lat="43.693757028328" lon="11.074960178203673"><ele>146.0</ele><time>2026-03-22T10:25:32Z</time></trkpt><trkpt lat="43.693674982163685" lon="11.07497132749052"><ele>146.0</ele><time>2026-03-22T10:25:33.001Z</time></trkpt><trkpt lat="43.693590991626024" lon="11.074995790483895"><ele>146.0</ele><time>2026-03-22T10:25:34.001Z</time></trkpt><trkpt lat="43.69350518456677" lon="11.075027882747394"><ele>146.0</ele><time>2026-03-22T10:25:35.001Z</time></trkpt><trkpt lat="43.693418205911534" lon="11.07506795474699"><ele>146.0</ele><time>2026-03-22T10:25:36.001Z</time></trkpt><trkpt lat="43.693330831561624" lon="11.075115224329753"><ele>147.0</ele><time>2026-03-22T10:25:37.001Z</time></trkpt><trkpt lat="43.69323417410046" lon="11.075189668021869"><ele>148.0</ele><time>2026-03-22T10:25:38.001Z</time></trkpt><trkpt lat="43.6931386680405" lon="11.075277859846674"><ele>149.0</ele><time>2026-03-22T10:25:39.001Z</time></trkpt><trkpt lat="43.693047504029984" lon="11.075355013563943"><ele>150.0</ele><time>2026-03-22T10:25:40.001Z</time></trkpt><trkpt lat="43.69294864665718" lon="11.075431436654096"><ele>151.0</ele><time>2026-03-22T10:25:41.001Z</time></trkpt><trkpt lat="43.692843509618626" lon="11.07551160115686"><ele>151.75</ele><time>2026-03-22T10:25:42.001Z</time></trkpt><trkpt lat="43.69272285667263" lon="11.075594708676395"><ele>152.5</ele><time>2026-03-22T10:25:43.001Z</time></trkpt><trkpt lat="43.69259166159594" lon="11.075670831711506"><ele>153.25</ele><time>2026-03-22T10:25:44.001Z</time></trkpt><trkpt lat="43.692462099229076" lon="11.075752813551382"><ele>154.0</ele><time>2026-03-22T10:25:45.001Z</time></trkpt><trkpt lat="43.69234967702521" lon="11.075823367155946"><ele>154.0</ele><time>2026-03-22T10:25:46.001Z</time></trkpt><trkpt lat="43.69226617332553" lon="11.075891972655011"><ele>154.0</ele><time>2026-03-22T10:25:47.001Z</time></trkpt><trkpt lat="43.69217523363791" lon="11.075935698652385"><ele>154.0</ele><time>2026-03-22T10:25:48.001Z</time></trkpt><trkpt lat="43.69210611798822" lon="11.07598530804047"><ele>154.0</ele><time>2026-03-22T10:25:49.001Z</time></trkpt><trkpt lat="43.69203028372276" lon="11.076024612636976"><ele>154.0</ele><time>2026-03-22T10:25:50.001Z</time></trkpt><trkpt lat="43.69194679018953" lon="11.076074117758708"><ele>154.0</ele><time>2026-03-22T10:25:51.001Z</time></trkpt><trkpt lat="43.6918578303267" lon="11.07613078079878"><ele>154.2</ele><time>2026-03-22T10:25:52.001Z</time></trkpt><trkpt lat="43.691774022864976" lon="11.076196595115038"><ele>154.4</ele><time>2026-03-22T10:25:53.001Z</time></trkpt><trkpt lat="43.69170960950569" lon="11.076271049945381"><ele>154.6</ele><time>2026-03-22T10:25:54.001Z</time></trkpt><trkpt lat="43.69166139882404" lon="11.076347247351732"><ele>154.8</ele><time>2026-03-22T10:25:55.001Z</time></trkpt><trkpt lat="43.69156962587331" lon="11.07648583851389"><ele>155.0</ele><time>2026-03-22T10:25:57.001Z</time></trkpt><trkpt lat="43.69149692311804" lon="11.076554331079942"><ele>155.0</ele><time>2026-03-22T10:25:58.001Z</time></trkpt><trkpt lat="43.691414349758816" lon="11.076598468964505"><ele>155.0</ele><time>2026-03-22T10:25:59.001Z</time></trkpt><trkpt lat="43.69134472397225" lon="11.076745831950884"><ele>155.0</ele><time>2026-03-22T10:26:00.001Z</time></trkpt><trkpt lat="43.69124652964886" lon="11.076764010631761"><ele>155.0</ele><time>2026-03-22T10:26:01.001Z</time></trkpt><trkpt lat="43.691150170798394" lon="11.076780799888205"><ele>155.0</ele><time>2026-03-22T10:26:02.001Z</time></trkpt><trkpt lat="43.69105806770801" lon="11.076784490725588"><ele>155.8</ele><time>2026-03-22T10:26:03.001Z</time></trkpt><trkpt lat="43.69098714195627" lon="11.076784117853611"><ele>156.6</ele><time>2026-03-22T10:26:04.001Z</time></trkpt><trkpt lat="43.690883336938015" lon="11.076788096549736"><ele>157.4</ele><time>2026-03-22T10:26:06.001Z</time></trkpt><trkpt lat="43.69069772448726" lon="11.076803436545939"><ele>158.2</ele><time>2026-03-22T10:26:44Z</time></trkpt><trkpt lat="43.690615887021366" lon="11.076814415566977"><ele>159.0</ele><time>2026-03-22T10:26:45Z</time></trkpt><trkpt lat="43.69053632229328" lon="11.076835025866032"><ele>159.0</ele><time>2026-03-22T10:26:46Z</time></trkpt><trkpt lat="43.690429576104144" lon="11.076861206420144"><ele>159.0</ele><time>2026-03-22T10:26:47Z</time></trkpt><trkpt lat="43.69030387713383" lon="11.076902025923284"><ele>159.0</ele><time>2026-03-22T10:26:48Z</time></trkpt><trkpt lat="43.69018411982469" lon="11.076956767489998"><ele>159.0</ele><time>2026-03-22T10:26:49Z</time></trkpt><trkpt lat="43.69007402896726" lon="11.077002891980504"><ele>157.4</ele><time>2026-03-22T10:26:50Z</time></trkpt><trkpt lat="43.6899721512817" lon="11.077043944770406"><ele>155.8</ele><time>2026-03-22T10:26:51Z</time></trkpt><trkpt lat="43.68987615203602" lon="11.077087026019186"><ele>154.2</ele><time>2026-03-22T10:26:52Z</time></trkpt><trkpt lat="43.68979141884144" lon="11.077127208777217"><ele>152.6</ele><time>2026-03-22T10:26:53Z</time></trkpt><trkpt lat="43.68970910927476" lon="11.077171793225052"><ele>151.0</ele><time>2026-03-22T10:26:54Z</time></trkpt><trkpt lat="43.68962634339256" lon="11.077195403275473"><ele>151.0</ele><time>2026-03-22T10:26:55Z</time></trkpt><trkpt lat="43.6895401251027" lon="11.077231026492276"><ele>151.0</ele><time>2026-03-22T10:26:56Z</time></trkpt><trkpt lat="43.68944029267218" lon="11.077273121509895"><ele>151.0</ele><time>2026-03-22T10:26:57Z</time></trkpt><trkpt lat="43.689350932434536" lon="11.077314818793887"><ele>151.0</ele><time>2026-03-22T10:26:58Z</time></trkpt><trkpt lat="43.68927267277024" lon="11.077354498731522"><ele>151.0</ele><time>2026-03-22T10:26:59Z</time></trkpt><trkpt lat="43.68919231322929" lon="11.07740109141857"><ele>151.16666666666669</ele><time>2026-03-22T10:27:00Z</time></trkpt><trkpt lat="43.68910887100155" lon="11.077452498796214"><ele>151.33333333333334</ele><time>2026-03-22T10:27:01Z</time></trkpt><trkpt lat="43.689019883075055" lon="11.077497476264957"><ele>151.5</ele><time>2026-03-22T10:27:02Z</time></trkpt><trkpt lat="43.688928958915014" lon="11.077537019354859"><ele>151.66666666666666</ele><time>2026-03-22T10:27:03Z</time></trkpt><trkpt lat="43.688840108954906" lon="11.07757005104825"><ele>151.83333333333331</ele><time>2026-03-22T10:27:04Z</time></trkpt><trkpt lat="43.68877148575047" lon="11.07758622186849"><ele>152.0</ele><time>2026-03-22T10:27:05Z</time></trkpt><trkpt lat="43.68864619872494" lon="11.077561136221213"><ele>152.2</ele><time>2026-03-22T10:27:07Z</time></trkpt><trkpt lat="43.68857274896448" lon="11.07752179173797"><ele>152.39999999999998</ele><time>2026-03-22T10:27:08Z</time></trkpt><trkpt lat="43.68849641605305" lon="11.077446171762334"><ele>152.60000000000002</ele><time>2026-03-22T10:27:09Z</time></trkpt><trkpt lat="43.688416319194765" lon="11.077375133990754"><ele>152.8</ele><time>2026-03-22T10:27:10Z</time></trkpt><trkpt lat="43.68833560802183" lon="11.077301091674213"><ele>153.0</ele><time>2026-03-22T10:27:11Z</time></trkpt><trkpt lat="43.688252784313164" lon="11.077231453441755"><ele>152.0</ele><time>2026-03-22T10:27:12Z</time></trkpt><trkpt lat="43.68817301296317" lon="11.07716799969696"><ele>151.0</ele><time>2026-03-22T10:27:13Z</time></trkpt><trkpt lat="43.68809646776639" lon="11.077118775924221"><ele>150.0</ele><time>2026-03-22T10:27:14Z</time></trkpt><trkpt lat="43.68800680069069" lon="11.077067883437726"><ele>149.0</ele><time>2026-03-22T10:27:15Z</time></trkpt><trkpt lat="43.68791208625312" lon="11.07700734677714"><ele>148.0</ele><time>2026-03-22T10:27:15.999Z</time></trkpt><trkpt lat="43.687810339177744" lon="11.076955689216728"><ele>149.0</ele><time>2026-03-22T10:27:16.999Z</time></trkpt><trkpt lat="43.68770636384261" lon="11.07691304115454"><ele>150.0</ele><time>2026-03-22T10:27:17.999Z</time></trkpt><trkpt lat="43.687586061228316" lon="11.076860764197583"><ele>151.0</ele><time>2026-03-22T10:27:18.999Z</time></trkpt><trkpt lat="43.68746495226461" lon="11.076812701068288"><ele>152.0</ele><time>2026-03-22T10:27:19.999Z</time></trkpt><trkpt lat="43.68735372723019" lon="11.07675672193468"><ele>152.0</ele><time>2026-03-22T10:27:20.999Z</time></trkpt><trkpt lat="43.687248485131214" lon="11.07670239027131"><ele>152.0</ele><time>2026-03-22T10:27:21.999Z</time></trkpt><trkpt lat="43.68716184503304" lon="11.076665554679815"><ele>152.0</ele><time>2026-03-22T10:27:22.999Z</time></trkpt><trkpt lat="43.687083481637515" lon="11.076644124458678"><ele>152.0</ele><time>2026-03-22T10:27:23.999Z</time></trkpt><trkpt lat="43.68701142168959" lon="11.07664434564895"><ele>152.0</ele><time>2026-03-22T10:27:25Z</time></trkpt><trkpt lat="43.68691855844859" lon="11.07666800282101"><ele>152.0</ele><time>2026-03-22T10:27:27Z</time></trkpt><trkpt lat="43.68684770559675" lon="11.076720868040963"><ele>153.0</ele><time>2026-03-22T10:27:30.001Z</time></trkpt><trkpt lat="43.68677397503704" lon="11.076771990097743"><ele>154.0</ele><time>2026-03-22T10:27:32Z</time></trkpt><trkpt lat="43.686664238940374" lon="11.076871107658015"><ele>155.0</ele><time>2026-03-22T10:27:34.001Z</time></trkpt><trkpt lat="43.68659110318084" lon="11.076921519329876"><ele>156.0</ele><time>2026-03-22T10:27:35Z</time></trkpt><trkpt lat="43.68650435195899" lon="11.076983560608726"><ele>157.0</ele><time>2026-03-22T10:27:36Z</time></trkpt><trkpt lat="43.686433224772095" lon="11.077042340760757"><ele>157.0</ele><time>2026-03-22T10:27:37.001Z</time></trkpt><trkpt lat="43.68635154601074" lon="11.07710057730965"><ele>157.0</ele><time>2026-03-22T10:27:38.001Z</time></trkpt><trkpt lat="43.68628096220785" lon="11.077148243170884"><ele>157.0</ele><time>2026-03-22T10:27:39.001Z</time></trkpt><trkpt lat="43.68620283869643" lon="11.077198646011277"><ele>157.0</ele><time>2026-03-22T10:27:40.001Z</time></trkpt><trkpt lat="43.686129322516855" lon="11.077253416003142"><ele>157.0</ele><time>2026-03-22T10:27:41.001Z</time></trkpt><trkpt lat="43.68604438665739" lon="11.077317890832704"><ele>157.0</ele><time>2026-03-22T10:27:42.001Z</time></trkpt><trkpt lat="43.68595504655975" lon="11.077394007017315"><ele>155.79999999999998</ele><time>2026-03-22T10:27:43Z</time></trkpt><trkpt lat="43.68587138574095" lon="11.077469674256761"><ele>154.6</ele><time>2026-03-22T10:27:44Z</time></trkpt><trkpt lat="43.685766176966645" lon="11.077538274210214"><ele>153.39999999999998</ele><time>2026-03-22T10:27:45Z</time></trkpt><trkpt lat="43.68567894028416" lon="11.077633245959571"><ele>152.2</ele><time>2026-03-22T10:27:46Z</time></trkpt><trkpt lat="43.6855873395485" lon="11.077717879627945"><ele>151.0</ele><time>2026-03-22T10:27:47Z</time></trkpt><trkpt lat="43.68549922977014" lon="11.07779669000754"><ele>151.0</ele><time>2026-03-22T10:27:48Z</time></trkpt><trkpt lat="43.68542086040749" lon="11.077873170638432"><ele>151.0</ele><time>2026-03-22T10:27:49Z</time></trkpt><trkpt lat="43.685342576443844" lon="11.07793635111412"><ele>151.0</ele><time>2026-03-22T10:27:50Z</time></trkpt><trkpt lat="43.685266863277405" lon="11.077992562647387"><ele>151.0</ele><time>2026-03-22T10:27:51Z</time></trkpt><trkpt lat="43.685186550186486" lon="11.078058086093456"><ele>151.0</ele><time>2026-03-22T10:27:52Z</time></trkpt><trkpt lat="43.685097769695076" lon="11.078124482533402"><ele>150.6</ele><time>2026-03-22T10:27:53Z</time></trkpt><trkpt lat="43.68500037269936" lon="11.078182565942488"><ele>150.2</ele><time>2026-03-22T10:27:54Z</time></trkpt><trkpt lat="43.684902334231765" lon="11.078227668052792"><ele>149.8</ele><time>2026-03-22T10:27:55Z</time></trkpt><trkpt lat="43.684796201732205" lon="11.078261363264179"><ele>149.4</ele><time>2026-03-22T10:27:56Z</time></trkpt><trkpt lat="43.68468871451321" lon="11.078286790820735"><ele>149.0</ele><time>2026-03-22T10:27:57Z</time></trkpt><trkpt lat="43.68458526032179" lon="11.078324913650928"><ele>149.0</ele><time>2026-03-22T10:27:58Z</time></trkpt><trkpt lat="43.684479019781115" lon="11.07837201852051"><ele>149.0</ele><time>2026-03-22T10:27:59Z</time></trkpt><trkpt lat="43.68438296324654" lon="11.078418720022041"><ele>149.0</ele><time>2026-03-22T10:28:00Z</time></trkpt><trkpt lat="43.68429551004211" lon="11.078462971004175"><ele>149.0</ele><time>2026-03-22T10:28:01Z</time></trkpt><trkpt lat="43.68421430482028" lon="11.078493803322385"><ele>149.0</ele><time>2026-03-22T10:28:02Z</time></trkpt><trkpt lat="43.68413379587814" lon="11.078537654161794"><ele>149.0</ele><time>2026-03-22T10:28:03Z</time></trkpt><trkpt lat="43.68405899530858" lon="11.07857378981708"><ele>149.0</ele><time>2026-03-22T10:28:04Z</time></trkpt><trkpt lat="43.68398790855857" lon="11.078619955292035"><ele>149.0</ele><time>2026-03-22T10:28:05Z</time></trkpt><trkpt lat="43.6839258153586" lon="11.078667063508417"><ele>149.0</ele><time>2026-03-22T10:28:06Z</time></trkpt><trkpt lat="43.68386098637063" lon="11.078701675895887"><ele>149.0</ele><time>2026-03-22T10:28:07Z</time></trkpt><trkpt lat="43.68382031967895" lon="11.07878693004151"><ele>149.0</ele><time>2026-03-22T10:28:08Z</time></trkpt><trkpt lat="43.683815712527554" lon="11.07889939438185"><ele>149.0</ele><time>2026-03-22T10:28:09Z</time></trkpt><trkpt lat="43.68379766244678" lon="11.079004127561202"><ele>149.0</ele><time>2026-03-22T10:28:10Z</time></trkpt><trkpt lat="43.68376266699529" lon="11.079109877965472"><ele>149.0</ele><time>2026-03-22T10:28:11Z</time></trkpt><trkpt lat="43.6837675247097" lon="11.079223043849462"><ele>149.0</ele><time>2026-03-22T10:28:12Z</time></trkpt><trkpt lat="43.68374531380415" lon="11.079348417427717"><ele>149.0</ele><time>2026-03-22T10:28:13Z</time></trkpt><trkpt lat="43.68372504030931" lon="11.079456715773365"><ele>149.0</ele><time>2026-03-22T10:28:14Z</time></trkpt><trkpt lat="43.68370384172866" lon="11.07957449205232"><ele>148.66666666666666</ele><time>2026-03-22T10:28:15Z</time></trkpt><trkpt lat="43.68368626519932" lon="11.079696809250423"><ele>148.33333333333331</ele><time>2026-03-22T10:28:16Z</time></trkpt><trkpt lat="43.68367151054963" lon="11.079818113504478"><ele>148.0</ele><time>2026-03-22T10:28:17Z</time></trkpt><trkpt lat="43.6836469695821" lon="11.079940853763048"><ele>147.66666666666666</ele><time>2026-03-22T10:28:18Z</time></trkpt><trkpt lat="43.683621009861284" lon="11.080050486385659"><ele>147.33333333333334</ele><time>2026-03-22T10:28:19Z</time></trkpt><trkpt lat="43.683586378612866" lon="11.080172229741919"><ele>147.0</ele><time>2026-03-22T10:28:20Z</time></trkpt><trkpt lat="43.6835488887555" lon="11.080290942873196"><ele>146.2</ele><time>2026-03-22T10:28:21Z</time></trkpt><trkpt lat="43.68350665912544" lon="11.080419948451048"><ele>145.39999999999998</ele><time>2026-03-22T10:28:22Z</time></trkpt><trkpt lat="43.68345279648038" lon="11.080558788108261"><ele>144.60000000000002</ele><time>2026-03-22T10:28:23Z</time></trkpt><trkpt lat="43.68339673742347" lon="11.08068152045955"><ele>143.8</ele><time>2026-03-22T10:28:24Z</time></trkpt><trkpt lat="43.68333657313795" lon="11.0808162040661"><ele>143.0</ele><time>2026-03-22T10:28:25Z</time></trkpt><trkpt lat="43.683283058995" lon="11.080945222843665"><ele>142.0</ele><time>2026-03-22T10:28:26Z</time></trkpt><trkpt lat="43.68319596426201" lon="11.081076734264343"><ele>141.0</ele><time>2026-03-22T10:28:27Z</time></trkpt><trkpt lat="43.68314196017232" lon="11.081198687458677"><ele>140.0</ele><time>2026-03-22T10:28:28Z</time></trkpt><trkpt lat="43.68308054275401" lon="11.081337381666234"><ele>139.0</ele><time>2026-03-22T10:28:29Z</time></trkpt><trkpt lat="43.683015974617184" lon="11.081483189835476"><ele>138.25</ele><time>2026-03-22T10:28:30Z</time></trkpt><trkpt lat="43.6829476591183" lon="11.081639112740776"><ele>137.5</ele><time>2026-03-22T10:28:31Z</time></trkpt><trkpt lat="43.68289670960475" lon="11.081792653574714"><ele>136.75</ele><time>2026-03-22T10:28:32Z</time></trkpt><trkpt lat="43.68281486551287" lon="11.081930194393987"><ele>136.0</ele><time>2026-03-22T10:28:33Z</time></trkpt><trkpt lat="43.68274674097766" lon="11.082069878746085"><ele>136.0</ele><time>2026-03-22T10:28:34Z</time></trkpt><trkpt lat="43.6826793203788" lon="11.082191561044926"><ele>136.0</ele><time>2026-03-22T10:28:35Z</time></trkpt><trkpt lat="43.682614339159734" lon="11.082300161838694"><ele>136.0</ele><time>2026-03-22T10:28:36Z</time></trkpt><trkpt lat="43.68254798367416" lon="11.082405745651199"><ele>136.0</ele><time>2026-03-22T10:28:37Z</time></trkpt><trkpt lat="43.6824735891317" lon="11.082524698132374"><ele>136.0</ele><time>2026-03-22T10:28:38Z</time></trkpt><trkpt lat="43.68240010557611" lon="11.082649691829774"><ele>136.25</ele><time>2026-03-22T10:28:39Z</time></trkpt><trkpt lat="43.68232930941874" lon="11.082788752747373"><ele>136.5</ele><time>2026-03-22T10:28:39.999Z</time></trkpt><trkpt lat="43.682272217842076" lon="11.082956626811784"><ele>136.75</ele><time>2026-03-22T10:28:40.999Z</time></trkpt><trkpt lat="43.682213212609746" lon="11.08311657427724"><ele>137.0</ele><time>2026-03-22T10:28:41.999Z</time></trkpt><trkpt lat="43.682148788244376" lon="11.08328956474364"><ele>137.0</ele><time>2026-03-22T10:28:42.999Z</time></trkpt><trkpt lat="43.682080900236436" lon="11.083455330456033"><ele>137.0</ele><time>2026-03-22T10:28:43.999Z</time></trkpt><trkpt lat="43.68201605706621" lon="11.083591282641894"><ele>137.0</ele><time>2026-03-22T10:28:44.999Z</time></trkpt><trkpt lat="43.68196884406441" lon="11.083714696054932"><ele>137.0</ele><time>2026-03-22T10:28:45.999Z</time></trkpt><trkpt lat="43.68192919291422" lon="11.083822272780731"><ele>137.0</ele><time>2026-03-22T10:28:46.999Z</time></trkpt><trkpt lat="43.68189301268307" lon="11.083921180926044"><ele>138.83333333333331</ele><time>2026-03-22T10:28:47.999Z</time></trkpt><trkpt lat="43.68186003985695" lon="11.084026039008359"><ele>140.66666666666666</ele><time>2026-03-22T10:28:48.999Z</time></trkpt><trkpt lat="43.681822780637084" lon="11.084129627907545"><ele>142.5</ele><time>2026-03-22T10:28:49.999Z</time></trkpt><trkpt lat="43.68178328288932" lon="11.084229511852708"><ele>144.33333333333334</ele><time>2026-03-22T10:28:50.999Z</time></trkpt><trkpt lat="43.68173585120377" lon="11.084337639593281"><ele>146.16666666666669</ele><time>2026-03-22T10:28:51.999Z</time></trkpt><trkpt lat="43.68168807550178" lon="11.084451488830227"><ele>148.0</ele><time>2026-03-22T10:28:52.999Z</time></trkpt><trkpt lat="43.68162698822991" lon="11.084558679433094"><ele>149.4</ele><time>2026-03-22T10:28:53.999Z</time></trkpt><trkpt lat="43.681578358137536" lon="11.084675836615858"><ele>150.8</ele><time>2026-03-22T10:28:54.999Z</time></trkpt><trkpt lat="43.68152460051914" lon="11.084799125254337"><ele>152.2</ele><time>2026-03-22T10:28:55.999Z</time></trkpt><trkpt lat="43.6814636051402" lon="11.084924624059397"><ele>153.6</ele><time>2026-03-22T10:28:56.999Z</time></trkpt><trkpt lat="43.681403970802734" lon="11.085050264144229"><ele>155.0</ele><time>2026-03-22T10:28:57.999Z</time></trkpt><trkpt lat="43.681338424635996" lon="11.085182135903247"><ele>155.8</ele><time>2026-03-22T10:28:58.999Z</time></trkpt><trkpt lat="43.68128247782412" lon="11.08531867850538"><ele>156.6</ele><time>2026-03-22T10:28:59.999Z</time></trkpt><trkpt lat="43.68123488031292" lon="11.08545844404435"><ele>157.4</ele><time>2026-03-22T10:29:00.999Z</time></trkpt><trkpt lat="43.68120331538729" lon="11.085595289438864"><ele>158.2</ele><time>2026-03-22T10:29:01.999Z</time></trkpt><trkpt lat="43.68118072155294" lon="11.085727199380427"><ele>159.0</ele><time>2026-03-22T10:29:02.999Z</time></trkpt><trkpt lat="43.68115875899909" lon="11.085851475124198"><ele>159.66666666666666</ele><time>2026-03-22T10:29:03.999Z</time></trkpt><trkpt lat="43.68114196505599" lon="11.085977362466709"><ele>160.33333333333334</ele><time>2026-03-22T10:29:04.999Z</time></trkpt><trkpt lat="43.68111189872996" lon="11.086085025321806"><ele>161.0</ele><time>2026-03-22T10:29:05.999Z</time></trkpt><trkpt lat="43.681068034364756" lon="11.086187427637835"><ele>161.66666666666669</ele><time>2026-03-22T10:29:06.999Z</time></trkpt><trkpt lat="43.6809951807066" lon="11.086267321620355"><ele>162.33333333333334</ele><time>2026-03-22T10:29:07.999Z</time></trkpt><trkpt lat="43.68092837085663" lon="11.08635335984425"><ele>163.0</ele><time>2026-03-22T10:29:08.999Z</time></trkpt><trkpt lat="43.68087552484063" lon="11.086422977671"><ele>165.16666666666669</ele><time>2026-03-22T10:29:09.999Z</time></trkpt><trkpt lat="43.68082907236306" lon="11.08648417291084"><ele>167.33333333333334</ele><time>2026-03-22T10:29:10.999Z</time></trkpt><trkpt lat="43.68077581942283" lon="11.086582120375299"><ele>169.5</ele><time>2026-03-22T10:29:12.999Z</time></trkpt><trkpt lat="43.68072324275047" lon="11.086669367081964"><ele>171.66666666666666</ele><time>2026-03-22T10:29:15.999Z</time></trkpt><trkpt lat="43.68067717243188" lon="11.086785744700544"><ele>173.83333333333331</ele><time>2026-03-22T10:29:17.999Z</time></trkpt><trkpt lat="43.68063522629772" lon="11.086937107392352"><ele>176.0</ele><time>2026-03-22T10:29:19.999Z</time></trkpt><trkpt lat="43.680588442385826" lon="11.087097040606753"><ele>176.0</ele><time>2026-03-22T10:29:21.999Z</time></trkpt><trkpt lat="43.680563955444946" lon="11.087183707966076"><ele>176.0</ele><time>2026-03-22T10:29:22.999Z</time></trkpt><trkpt lat="43.68054135304032" lon="11.087270044264233"><ele>176.0</ele><time>2026-03-22T10:29:23.999Z</time></trkpt><trkpt lat="43.68052005645395" lon="11.08735810974341"><ele>176.0</ele><time>2026-03-22T10:29:24.999Z</time></trkpt><trkpt lat="43.68049885727224" lon="11.087451172918128"><ele>176.0</ele><time>2026-03-22T10:29:25.999Z</time></trkpt><trkpt lat="43.68046995788786" lon="11.087531069615327"><ele>176.0</ele><time>2026-03-22T10:29:26.999Z</time></trkpt><trkpt lat="43.68043945885727" lon="11.08762073869738"><ele>176.0</ele><time>2026-03-22T10:29:27.999Z</time></trkpt><trkpt lat="43.68041707028871" lon="11.08770429449804"><ele>174.8</ele><time>2026-03-22T10:29:28.999Z</time></trkpt><trkpt lat="43.680391495318055" lon="11.087800565320297"><ele>173.60000000000002</ele><time>2026-03-22T10:29:29.999Z</time></trkpt><trkpt lat="43.68035574635821" lon="11.087897242760118"><ele>172.4</ele><time>2026-03-22T10:29:31.001Z</time></trkpt><trkpt lat="43.680322632932146" lon="11.087988660453707"><ele>171.2</ele><time>2026-03-22T10:29:32.001Z</time></trkpt><trkpt lat="43.680271968056374" lon="11.08812872324029"><ele>170.0</ele><time>2026-03-22T10:29:34Z</time></trkpt><trkpt lat="43.68010280894328" lon="11.088358086049926"><ele>168.5</ele><time>2026-03-22T10:32:23Z</time></trkpt><trkpt lat="43.68003813257644" lon="11.088403331286683"><ele>167.0</ele><time>2026-03-22T10:32:24Z</time></trkpt><trkpt lat="43.679958512765026" lon="11.088422099711574"><ele>165.5</ele><time>2026-03-22T10:32:25Z</time></trkpt><trkpt lat="43.679881836111605" lon="11.08843590749744"><ele>164.0</ele><time>2026-03-22T10:32:26Z</time></trkpt><trkpt lat="43.67979735373273" lon="11.088438326887434"><ele>162.5</ele><time>2026-03-22T10:32:27Z</time></trkpt><trkpt lat="43.67971562491238" lon="11.088445763350592"><ele>161.0</ele><time>2026-03-22T10:32:28Z</time></trkpt><trkpt lat="43.67963654537738" lon="11.088460085687586"><ele>161.0</ele><time>2026-03-22T10:32:29Z</time></trkpt><trkpt lat="43.679542618941696" lon="11.088480586258159"><ele>161.0</ele><time>2026-03-22T10:32:30Z</time></trkpt><trkpt lat="43.67943697599982" lon="11.088507193631793"><ele>161.0</ele><time>2026-03-22T10:32:31Z</time></trkpt><trkpt lat="43.67932085716191" lon="11.088529250501775"><ele>161.0</ele><time>2026-03-22T10:32:32Z</time></trkpt><trkpt lat="43.6792088528578" lon="11.088551930319444"><ele>161.0</ele><time>2026-03-22T10:32:33Z</time></trkpt><trkpt lat="43.67911068455454" lon="11.088572786452069"><ele>160.20000000000002</ele><time>2026-03-22T10:32:34Z</time></trkpt><trkpt lat="43.67901084564754" lon="11.088590905548358"><ele>159.4</ele><time>2026-03-22T10:32:35Z</time></trkpt><trkpt lat="43.67890437908592" lon="11.08862002957677"><ele>158.6</ele><time>2026-03-22T10:32:36Z</time></trkpt><trkpt lat="43.678803758729835" lon="11.088653567707176"><ele>157.8</ele><time>2026-03-22T10:32:37Z</time></trkpt><trkpt lat="43.67869649043723" lon="11.08870573286038"><ele>157.0</ele><time>2026-03-22T10:32:38Z</time></trkpt><trkpt lat="43.678589521591555" lon="11.088774153914109"><ele>156.5</ele><time>2026-03-22T10:32:39Z</time></trkpt><trkpt lat="43.678482636440464" lon="11.088850016079771"><ele>156.0</ele><time>2026-03-22T10:32:40Z</time></trkpt><trkpt lat="43.67837934726379" lon="11.08893006603444"><ele>155.5</ele><time>2026-03-22T10:32:41Z</time></trkpt><trkpt lat="43.67827793797833" lon="11.089008276665723"><ele>155.0</ele><time>2026-03-22T10:32:42Z</time></trkpt><trkpt lat="43.67817808648774" lon="11.089101099722459"><ele>157.75</ele><time>2026-03-22T10:32:43Z</time></trkpt><trkpt lat="43.67806912554864" lon="11.089197734903228"><ele>160.5</ele><time>2026-03-22T10:32:44Z</time></trkpt><trkpt lat="43.67795946503623" lon="11.089288655076091"><ele>163.25</ele><time>2026-03-22T10:32:45Z</time></trkpt><trkpt lat="43.677822010432386" lon="11.08932968466227"><ele>166.0</ele><time>2026-03-22T10:32:46Z</time></trkpt><trkpt lat="43.67769434516449" lon="11.08940823377225"><ele>166.0</ele><time>2026-03-22T10:32:47Z</time></trkpt><trkpt lat="43.67755469008371" lon="11.089459081742419"><ele>166.0</ele><time>2026-03-22T10:32:47.999Z</time></trkpt><trkpt lat="43.677424471345645" lon="11.089513434996908"><ele>166.0</ele><time>2026-03-22T10:32:48.999Z</time></trkpt><trkpt lat="43.677293895026686" lon="11.089568022961151"><ele>166.0</ele><time>2026-03-22T10:32:49.999Z</time></trkpt><trkpt lat="43.6771748601179" lon="11.089621882737385"><ele>166.0</ele><time>2026-03-22T10:32:50.999Z</time></trkpt><trkpt lat="43.67704503005775" lon="11.089676294906617"><ele>166.0</ele><time>2026-03-22T10:32:51.999Z</time></trkpt><trkpt lat="43.676915815367124" lon="11.089733869103403"><ele>166.0</ele><time>2026-03-22T10:32:52.999Z</time></trkpt><trkpt lat="43.676794590194426" lon="11.089786085570772"><ele>166.0</ele><time>2026-03-22T10:32:53.999Z</time></trkpt><trkpt lat="43.676667704676724" lon="11.089839317967204"><ele>167.5</ele><time>2026-03-22T10:32:54.999Z</time></trkpt><trkpt lat="43.676527440118214" lon="11.089907682026245"><ele>169.0</ele><time>2026-03-22T10:32:55.999Z</time></trkpt><trkpt lat="43.67640066110812" lon="11.089960489441639"><ele>170.5</ele><time>2026-03-22T10:32:56.999Z</time></trkpt><trkpt lat="43.67626717708674" lon="11.0900090677602"><ele>172.0</ele><time>2026-03-22T10:32:57.999Z</time></trkpt><trkpt lat="43.67613443883993" lon="11.09002578064227"><ele>174.0</ele><time>2026-03-22T10:32:58.999Z</time></trkpt><trkpt lat="43.67601963899143" lon="11.090058541375113"><ele>176.0</ele><time>2026-03-22T10:32:59.999Z</time></trkpt><trkpt lat="43.67590785186753" lon="11.090084708926145"><ele>178.0</ele><time>2026-03-22T10:33:00.999Z</time></trkpt><trkpt lat="43.67580276254327" lon="11.090117260959715"><ele>180.0</ele><time>2026-03-22T10:33:01.999Z</time></trkpt><trkpt lat="43.675693615294286" lon="11.090138541890095"><ele>182.0</ele><time>2026-03-22T10:33:02.999Z</time></trkpt><trkpt lat="43.675570559254574" lon="11.090175684097854"><ele>182.0</ele><time>2026-03-22T10:33:03.999Z</time></trkpt><trkpt lat="43.675437569842465" lon="11.090211656319472"><ele>182.0</ele><time>2026-03-22T10:33:04.999Z</time></trkpt><trkpt lat="43.67530209726005" lon="11.090250411536497"><ele>182.0</ele><time>2026-03-22T10:33:05.999Z</time></trkpt><trkpt lat="43.67516238449133" lon="11.090310566485993"><ele>182.0</ele><time>2026-03-22T10:33:06.999Z</time></trkpt><trkpt lat="43.67502060597692" lon="11.090377109858764"><ele>182.5</ele><time>2026-03-22T10:33:07.999Z</time></trkpt><trkpt lat="43.674885307530374" lon="11.090449513963387"><ele>183.0</ele><time>2026-03-22T10:33:08.999Z</time></trkpt><trkpt lat="43.674751636319485" lon="11.090517920846368"><ele>183.5</ele><time>2026-03-22T10:33:09.999Z</time></trkpt><trkpt lat="43.674601988201886" lon="11.090588878827448"><ele>184.0</ele><time>2026-03-22T10:33:10.999Z</time></trkpt><trkpt lat="43.67445312030078" lon="11.09065427760599"><ele>186.25</ele><time>2026-03-22T10:33:11.999Z</time></trkpt><trkpt lat="43.67431220255062" lon="11.090715567088901"><ele>188.5</ele><time>2026-03-22T10:33:12.999Z</time></trkpt><trkpt lat="43.67417687335814" lon="11.090775780771974"><ele>190.75</ele><time>2026-03-22T10:33:13.999Z</time></trkpt><trkpt lat="43.67405705204831" lon="11.090829033944942"><ele>193.0</ele><time>2026-03-22T10:33:14.999Z</time></trkpt><trkpt lat="43.67394522456344" lon="11.09088393341952"><ele>193.0</ele><time>2026-03-22T10:33:15.999Z</time></trkpt><trkpt lat="43.67385225512688" lon="11.0909341010129"><ele>193.0</ele><time>2026-03-22T10:33:16.999Z</time></trkpt><trkpt lat="43.67373370410799" lon="11.090985234570262"><ele>193.0</ele><time>2026-03-22T10:33:17.999Z</time></trkpt><trkpt lat="43.67360710087527" lon="11.091041077687082"><ele>193.0</ele><time>2026-03-22T10:33:18.999Z</time></trkpt><trkpt lat="43.67347169780826" lon="11.091096713891256"><ele>193.75</ele><time>2026-03-22T10:33:19.999Z</time></trkpt><trkpt lat="43.673328234130906" lon="11.09114726834832"><ele>194.5</ele><time>2026-03-22T10:33:20.999Z</time></trkpt><trkpt lat="43.67317764339138" lon="11.091200886448824"><ele>195.25</ele><time>2026-03-22T10:33:21.999Z</time></trkpt><trkpt lat="43.673040541077604" lon="11.091270005680974"><ele>196.0</ele><time>2026-03-22T10:33:22.999Z</time></trkpt><trkpt lat="43.672916262404605" lon="11.091333479770466"><ele>196.0</ele><time>2026-03-22T10:33:23.999Z</time></trkpt><trkpt lat="43.67279990532869" lon="11.09138338623051"><ele>196.0</ele><time>2026-03-22T10:33:24.999Z</time></trkpt><trkpt lat="43.67269906238158" lon="11.091428310631558"><ele>196.0</ele><time>2026-03-22T10:33:25.999Z</time></trkpt><trkpt lat="43.672616672859014" lon="11.091489189088495"><ele>196.0</ele><time>2026-03-22T10:33:26.999Z</time></trkpt><trkpt lat="43.67255462096006" lon="11.091530534148852"><ele>196.0</ele><time>2026-03-22T10:33:27.999Z</time></trkpt><trkpt lat="43.672495671108145" lon="11.091589150962998"><ele>195.33333333333331</ele><time>2026-03-22T10:33:29.999Z</time></trkpt><trkpt lat="43.67238390742243" lon="11.091495326924065"><ele>194.66666666666666</ele><time>2026-03-22T10:33:31.999Z</time></trkpt><trkpt lat="43.67232119040327" lon="11.091432820506478"><ele>194.0</ele><time>2026-03-22T10:33:32.999Z</time></trkpt><trkpt lat="43.67226583086092" lon="11.091387882896589"><ele>193.33333333333331</ele><time>2026-03-22T10:33:33.999Z</time></trkpt><trkpt lat="43.672210048478284" lon="11.091341517196913"><ele>192.66666666666666</ele><time>2026-03-22T10:33:34.999Z</time></trkpt><trkpt lat="43.67214749926081" lon="11.09129550766803"><ele>192.0</ele><time>2026-03-22T10:33:35.999Z</time></trkpt><trkpt lat="43.67208513241812" lon="11.091258286057348"><ele>192.0</ele><time>2026-03-22T10:33:36.999Z</time></trkpt><trkpt lat="43.67202043492853" lon="11.091209583617022"><ele>192.0</ele><time>2026-03-22T10:33:37.999Z</time></trkpt><trkpt lat="43.671954109396445" lon="11.09117157174588"><ele>192.0</ele><time>2026-03-22T10:33:38.999Z</time></trkpt><trkpt lat="43.67188651485533" lon="11.091116301661684"><ele>192.0</ele><time>2026-03-22T10:33:39.999Z</time></trkpt><trkpt lat="43.67181868409424" lon="11.091072227183915"><ele>192.0</ele><time>2026-03-22T10:33:40.999Z</time></trkpt><trkpt lat="43.67175623744599" lon="11.091019684008904"><ele>192.0</ele><time>2026-03-22T10:33:42.001Z</time></trkpt><trkpt lat="43.67167850197972" lon="11.090976932734968"><ele>190.5</ele><time>2026-03-22T10:33:43.001Z</time></trkpt><trkpt lat="43.67160631149537" lon="11.090929219628713"><ele>189.0</ele><time>2026-03-22T10:33:44.001Z</time></trkpt><trkpt lat="43.67153155881186" lon="11.090880986888088"><ele>187.5</ele><time>2026-03-22T10:33:45.001Z</time></trkpt><trkpt lat="43.67145992678056" lon="11.090824991838565"><ele>186.0</ele><time>2026-03-22T10:33:46.002Z</time></trkpt><trkpt lat="43.671384757412696" lon="11.090776064551443"><ele>184.5</ele><time>2026-03-22T10:33:47.001Z</time></trkpt><trkpt lat="43.671309528034364" lon="11.09072634234317"><ele>183.0</ele><time>2026-03-22T10:33:48.002Z</time></trkpt><trkpt lat="43.67123428748564" lon="11.09067253723101"><ele>182.16666666666666</ele><time>2026-03-22T10:33:49.001Z</time></trkpt><trkpt lat="43.671167135493924" lon="11.090625379378617"><ele>181.33333333333334</ele><time>2026-03-22T10:33:50.001Z</time></trkpt><trkpt lat="43.67109652568368" lon="11.090577484484811"><ele>180.5</ele><time>2026-03-22T10:33:51.001Z</time></trkpt><trkpt lat="43.67102977128301" lon="11.090524063763082"><ele>179.66666666666669</ele><time>2026-03-22T10:33:52.001Z</time></trkpt><trkpt lat="43.670968247125" lon="11.090482050622649"><ele>178.83333333333334</ele><time>2026-03-22T10:33:53.001Z</time></trkpt><trkpt lat="43.670910695297884" lon="11.090438654950203"><ele>178.0</ele><time>2026-03-22T10:33:54.001Z</time></trkpt><trkpt lat="43.67081975545801" lon="11.090347279661575"><ele>178.0</ele><time>2026-03-22T10:33:56.001Z</time></trkpt><trkpt lat="43.67074741461319" lon="11.090257091624572"><ele>178.0</ele><time>2026-03-22T10:33:58.001Z</time></trkpt><trkpt lat="43.6707096367382" lon="11.090150828754394"><ele>178.0</ele><time>2026-03-22T10:34:00.001Z</time></trkpt><trkpt lat="43.67067879923883" lon="11.090002269273127"><ele>178.0</ele><time>2026-03-22T10:34:02.001Z</time></trkpt><trkpt lat="43.670650957434724" lon="11.089849173580003"><ele>178.0</ele><time>2026-03-22T10:34:04.001Z</time></trkpt><trkpt lat="43.670633705384" lon="11.08974870243762"><ele>176.66666666666669</ele><time>2026-03-22T10:34:05.001Z</time></trkpt><trkpt lat="43.670587263481245" lon="11.089664197595106"><ele>175.33333333333334</ele><time>2026-03-22T10:34:06.001Z</time></trkpt><trkpt lat="43.67053459259163" lon="11.089476716745192"><ele>174.0</ele><time>2026-03-22T10:34:08.001Z</time></trkpt><trkpt lat="43.6705084148593" lon="11.089392906681171"><ele>172.66666666666666</ele><time>2026-03-22T10:34:09.001Z</time></trkpt><trkpt lat="43.67045254361458" lon="11.08931236448337"><ele>171.33333333333331</ele><time>2026-03-22T10:34:10.001Z</time></trkpt><trkpt lat="43.670400310352626" lon="11.089253821531281"><ele>170.0</ele><time>2026-03-22T10:34:11.001Z</time></trkpt><trkpt lat="43.67028797040654" lon="11.089168319451725"><ele>169.5</ele><time>2026-03-22T10:34:13.001Z</time></trkpt><trkpt lat="43.670235539972666" lon="11.089105511915141"><ele>169.0</ele><time>2026-03-22T10:34:14.001Z</time></trkpt><trkpt lat="43.67015180903224" lon="11.08906416610997"><ele>168.5</ele><time>2026-03-22T10:34:15.001Z</time></trkpt><trkpt lat="43.67005904958353" lon="11.089006166766492"><ele>168.0</ele><time>2026-03-22T10:34:16.001Z</time></trkpt><trkpt lat="43.669971007098844" lon="11.088968987130944"><ele>167.5</ele><time>2026-03-22T10:34:17.001Z</time></trkpt><trkpt lat="43.669899295678704" lon="11.08892128156106"><ele>167.0</ele><time>2026-03-22T10:34:18.001Z</time></trkpt><trkpt lat="43.66978458289083" lon="11.088848013606961"><ele>167.0</ele><time>2026-03-22T10:34:20.001Z</time></trkpt><trkpt lat="43.66973003768683" lon="11.088800770151517"><ele>167.0</ele><time>2026-03-22T10:34:21.001Z</time></trkpt><trkpt lat="43.66964346105678" lon="11.08873578955513"><ele>167.0</ele><time>2026-03-22T10:34:23.001Z</time></trkpt><trkpt lat="43.66955775393612" lon="11.088633431219646"><ele>167.0</ele><time>2026-03-22T10:34:25.001Z</time></trkpt><trkpt lat="43.66948299017665" lon="11.088520321849943"><ele>167.0</ele><time>2026-03-22T10:34:27.001Z</time></trkpt><trkpt lat="43.66942986117405" lon="11.088403323558298"><ele>167.16666666666666</ele><time>2026-03-22T10:34:29.001Z</time></trkpt><trkpt lat="43.66939245436376" lon="11.088278731240896"><ele>167.33333333333331</ele><time>2026-03-22T10:34:31.001Z</time></trkpt><trkpt lat="43.66934789374397" lon="11.088139633777354"><ele>167.5</ele><time>2026-03-22T10:34:33.001Z</time></trkpt><trkpt lat="43.669329778884524" lon="11.088043735386183"><ele>167.66666666666666</ele><time>2026-03-22T10:34:34.001Z</time></trkpt><trkpt lat="43.66931580449458" lon="11.087955726483726"><ele>167.83333333333334</ele><time>2026-03-22T10:34:35.001Z</time></trkpt><trkpt lat="43.66930855348715" lon="11.087848972823592"><ele>168.0</ele><time>2026-03-22T10:34:36.001Z</time></trkpt><trkpt lat="43.66929049668552" lon="11.087739170608502"><ele>168.0</ele><time>2026-03-22T10:34:37.001Z</time></trkpt><trkpt lat="43.66926963389002" lon="11.087611985628"><ele>168.0</ele><time>2026-03-22T10:34:38.001Z</time></trkpt><trkpt lat="43.66925570958221" lon="11.087476955093756"><ele>168.0</ele><time>2026-03-22T10:34:39.001Z</time></trkpt><trkpt lat="43.669231310434576" lon="11.087346672268044"><ele>168.0</ele><time>2026-03-22T10:34:40.001Z</time></trkpt><trkpt lat="43.66921195511493" lon="11.087208393706735"><ele>168.0</ele><time>2026-03-22T10:34:41.001Z</time></trkpt><trkpt lat="43.669188152017725" lon="11.087079202775683"><ele>166.25</ele><time>2026-03-22T10:34:42.001Z</time></trkpt><trkpt lat="43.66916968343034" lon="11.0869342905818"><ele>164.5</ele><time>2026-03-22T10:34:43.001Z</time></trkpt><trkpt lat="43.66913616404854" lon="11.086783221488025"><ele>162.75</ele><time>2026-03-22T10:34:44.001Z</time></trkpt><trkpt lat="43.66911008490256" lon="11.08662425715204"><ele>161.0</ele><time>2026-03-22T10:34:45.001Z</time></trkpt><trkpt lat="43.66908229618925" lon="11.086460545359696"><ele>158.75</ele><time>2026-03-22T10:34:46Z</time></trkpt><trkpt lat="43.669051570459686" lon="11.086291901069904"><ele>156.5</ele><time>2026-03-22T10:34:47Z</time></trkpt><trkpt lat="43.669029596989475" lon="11.086115932590982"><ele>154.25</ele><time>2026-03-22T10:34:48Z</time></trkpt><trkpt lat="43.66900261443791" lon="11.085955413464433"><ele>152.0</ele><time>2026-03-22T10:34:49Z</time></trkpt><trkpt lat="43.66897802412833" lon="11.085795794694095"><ele>150.5</ele><time>2026-03-22T10:34:50Z</time></trkpt><trkpt lat="43.66894926164702" lon="11.085632800690975"><ele>149.0</ele><time>2026-03-22T10:34:51Z</time></trkpt><trkpt lat="43.6689243686245" lon="11.08547889673202"><ele>147.5</ele><time>2026-03-22T10:34:52Z</time></trkpt><trkpt lat="43.668901925087354" lon="11.085321873148528"><ele>146.0</ele><time>2026-03-22T10:34:53Z</time></trkpt><trkpt lat="43.66888817594018" lon="11.085186482532826"><ele>146.0</ele><time>2026-03-22T10:34:54Z</time></trkpt><trkpt lat="43.668879705465336" lon="11.08507113363693"><ele>146.0</ele><time>2026-03-22T10:34:55Z</time></trkpt><trkpt lat="43.6688637825685" lon="11.084973372788504"><ele>146.0</ele><time>2026-03-22T10:34:56Z</time></trkpt><trkpt lat="43.668845652900075" lon="11.084870480486318"><ele>146.0</ele><time>2026-03-22T10:34:57Z</time></trkpt><trkpt lat="43.66883223553126" lon="11.084781705652594"><ele>146.0</ele><time>2026-03-22T10:34:58Z</time></trkpt><trkpt lat="43.66882049759111" lon="11.084683033092618"><ele>146.0</ele><time>2026-03-22T10:34:59Z</time></trkpt><trkpt lat="43.668804576095255" lon="11.084586492641673"><ele>146.0</ele><time>2026-03-22T10:35:00Z</time></trkpt><trkpt lat="43.66879262817394" lon="11.084490845999792"><ele>144.66666666666666</ele><time>2026-03-22T10:35:01Z</time></trkpt><trkpt lat="43.66877485572526" lon="11.084402668803031"><ele>143.33333333333331</ele><time>2026-03-22T10:35:02Z</time></trkpt><trkpt lat="43.668759872688305" lon="11.084301120324518"><ele>142.0</ele><time>2026-03-22T10:35:03Z</time></trkpt><trkpt lat="43.66874545985027" lon="11.084208994957283"><ele>140.66666666666666</ele><time>2026-03-22T10:35:04Z</time></trkpt><trkpt lat="43.668726400556004" lon="11.084108299917606"><ele>139.33333333333334</ele><time>2026-03-22T10:35:05Z</time></trkpt><trkpt lat="43.6687066173416" lon="11.084000745432874"><ele>138.0</ele><time>2026-03-22T10:35:06Z</time></trkpt><trkpt lat="43.668688288741706" lon="11.083876825226143"><ele>138.6</ele><time>2026-03-22T10:35:07Z</time></trkpt><trkpt lat="43.66866705499059" lon="11.083748567005106"><ele>139.20000000000002</ele><time>2026-03-22T10:35:08Z</time></trkpt><trkpt lat="43.66864284506874" lon="11.083617147036778"><ele>139.8</ele><time>2026-03-22T10:35:09Z</time></trkpt><trkpt lat="43.6686223436445" lon="11.08349714757017"><ele>140.4</ele><time>2026-03-22T10:35:10Z</time></trkpt><trkpt lat="43.668602730574" lon="11.083379780703355"><ele>141.0</ele><time>2026-03-22T10:35:11Z</time></trkpt><trkpt lat="43.66858419745028" lon="11.08326348104122"><ele>139.0</ele><time>2026-03-22T10:35:12Z</time></trkpt><trkpt lat="43.6685673850916" lon="11.083148222672984"><ele>137.0</ele><time>2026-03-22T10:35:13Z</time></trkpt><trkpt lat="43.66854909280986" lon="11.083045632393823"><ele>135.0</ele><time>2026-03-22T10:35:14Z</time></trkpt><trkpt lat="43.66853321158089" lon="11.082932998830483"><ele>133.0</ele><time>2026-03-22T10:35:15Z</time></trkpt><trkpt lat="43.668523902999446" lon="11.082803696561761"><ele>131.0</ele><time>2026-03-22T10:35:16Z</time></trkpt><trkpt lat="43.6684996850681" lon="11.082696012281003"><ele>129.0</ele><time>2026-03-22T10:35:17Z</time></trkpt><trkpt lat="43.668483173704104" lon="11.08257978785028"><ele>129.0</ele><time>2026-03-22T10:35:18Z</time></trkpt><trkpt lat="43.66845358969752" lon="11.082473514130392"><ele>129.0</ele><time>2026-03-22T10:35:19Z</time></trkpt><trkpt lat="43.66843754223943" lon="11.082361659565963"><ele>129.0</ele><time>2026-03-22T10:35:20Z</time></trkpt><trkpt lat="43.66842605065545" lon="11.082258700495087"><ele>129.0</ele><time>2026-03-22T10:35:21Z</time></trkpt><trkpt lat="43.668402140055655" lon="11.08215452920875"><ele>129.0</ele><time>2026-03-22T10:35:22Z</time></trkpt><trkpt lat="43.66837005951582" lon="11.082073831651732"><ele>129.0</ele><time>2026-03-22T10:35:23Z</time></trkpt><trkpt lat="43.66826242747336" lon="11.08200843442902"><ele>127.83333333333333</ele><time>2026-03-22T10:35:25Z</time></trkpt><trkpt lat="43.66819658811965" lon="11.082019493031895"><ele>126.66666666666666</ele><time>2026-03-22T10:35:26Z</time></trkpt><trkpt lat="43.668132728161595" lon="11.082048080843236"><ele>125.5</ele><time>2026-03-22T10:35:27Z</time></trkpt><trkpt lat="43.6680754439993" lon="11.082089550400061"><ele>124.33333333333333</ele><time>2026-03-22T10:35:28Z</time></trkpt><trkpt lat="43.66801668425381" lon="11.082130459493506"><ele>123.16666666666666</ele><time>2026-03-22T10:35:29Z</time></trkpt><trkpt lat="43.667909781560546" lon="11.082175351313852"><ele>122.0</ele><time>2026-03-22T10:35:31Z</time></trkpt><trkpt lat="43.667803213244994" lon="11.0822182714081"><ele>120.8</ele><time>2026-03-22T10:35:33Z</time></trkpt><trkpt lat="43.667681446331926" lon="11.082238988927713"><ele>119.6</ele><time>2026-03-22T10:35:35Z</time></trkpt><trkpt lat="43.66759609891101" lon="11.082255424711654"><ele>118.39999999999999</ele><time>2026-03-22T10:35:36Z</time></trkpt><trkpt lat="43.66750825535394" lon="11.082274608563475"><ele>117.19999999999999</ele><time>2026-03-22T10:35:37Z</time></trkpt><trkpt lat="43.66741118523352" lon="11.082317302968407"><ele>116.0</ele><time>2026-03-22T10:35:38Z</time></trkpt><trkpt lat="43.66731498533448" lon="11.08236999679939"><ele>116.0</ele><time>2026-03-22T10:35:39Z</time></trkpt><trkpt lat="43.667224106493194" lon="11.082419569091442"><ele>116.0</ele><time>2026-03-22T10:35:40Z</time></trkpt><trkpt lat="43.66712836826223" lon="11.082454707468468"><ele>116.0</ele><time>2026-03-22T10:35:41Z</time></trkpt><trkpt lat="43.6670415590419" lon="11.08250122371857"><ele>116.0</ele><time>2026-03-22T10:35:42Z</time></trkpt><trkpt lat="43.66694535561835" lon="11.082543004179007"><ele>116.0</ele><time>2026-03-22T10:35:43Z</time></trkpt><trkpt lat="43.666844796657706" lon="11.082590397187156"><ele>115.75</ele><time>2026-03-22T10:35:43.999Z</time></trkpt><trkpt lat="43.66674162821259" lon="11.082637758918322"><ele>115.5</ele><time>2026-03-22T10:35:44.999Z</time></trkpt><trkpt lat="43.66663186417751" lon="11.082690416502077"><ele>115.25</ele><time>2026-03-22T10:35:45.999Z</time></trkpt><trkpt lat="43.66652363737753" lon="11.082743746079329"><ele>115.0</ele><time>2026-03-22T10:35:46.999Z</time></trkpt><trkpt lat="43.666405195118415" lon="11.082792698827275"><ele>115.0</ele><time>2026-03-22T10:35:48.001Z</time></trkpt><trkpt lat="43.66628747371508" lon="11.08284377873103"><ele>115.0</ele><time>2026-03-22T10:35:49.001Z</time></trkpt><trkpt lat="43.666168777069956" lon="11.08290530837035"><ele>115.0</ele><time>2026-03-22T10:35:50.001Z</time></trkpt><trkpt lat="43.66604743455166" lon="11.082968969946249"><ele>115.0</ele><time>2026-03-22T10:35:51.001Z</time></trkpt><trkpt lat="43.66593545867077" lon="11.083029715868156"><ele>115.2</ele><time>2026-03-22T10:35:52.002Z</time></trkpt><trkpt lat="43.665840420485566" lon="11.083100297967516"><ele>115.4</ele><time>2026-03-22T10:35:53.002Z</time></trkpt><trkpt lat="43.665758410852675" lon="11.083180565521479"><ele>115.6</ele><time>2026-03-22T10:35:54.001Z</time></trkpt><trkpt lat="43.665678728242" lon="11.08326590436721"><ele>115.8</ele><time>2026-03-22T10:35:55.002Z</time></trkpt><trkpt lat="43.66560357398989" lon="11.083349305517448"><ele>116.0</ele><time>2026-03-22T10:35:56.002Z</time></trkpt><trkpt lat="43.66553000083751" lon="11.083430374526484"><ele>116.0</ele><time>2026-03-22T10:35:57.001Z</time></trkpt><trkpt lat="43.665446297986996" lon="11.083511163058338"><ele>116.0</ele><time>2026-03-22T10:35:58.001Z</time></trkpt><trkpt lat="43.665367644560384" lon="11.08359320946"><ele>116.0</ele><time>2026-03-22T10:35:59.001Z</time></trkpt><trkpt lat="43.66529550914222" lon="11.08368102561048"><ele>116.0</ele><time>2026-03-22T10:36:00.001Z</time></trkpt><trkpt lat="43.6652302387061" lon="11.083763657486369"><ele>116.0</ele><time>2026-03-22T10:36:01.001Z</time></trkpt><trkpt lat="43.66516901584682" lon="11.083848580349269"><ele>114.19999999999999</ele><time>2026-03-22T10:36:02.001Z</time></trkpt><trkpt lat="43.66510113492336" lon="11.083933687159876"><ele>112.39999999999999</ele><time>2026-03-22T10:36:03.001Z</time></trkpt><trkpt lat="43.66501996409344" lon="11.083998850922914"><ele>110.6</ele><time>2026-03-22T10:36:04.001Z</time></trkpt><trkpt lat="43.66495838881317" lon="11.084096284657399"><ele>108.8</ele><time>2026-03-22T10:36:05.001Z</time></trkpt><trkpt lat="43.664885133304935" lon="11.08416704544286"><ele>107.0</ele><time>2026-03-22T10:36:06.001Z</time></trkpt><trkpt lat="43.6648208020591" lon="11.084238306544352"><ele>106.83333333333333</ele><time>2026-03-22T10:36:07.001Z</time></trkpt><trkpt lat="43.664748418550474" lon="11.084313738288433"><ele>106.66666666666666</ele><time>2026-03-22T10:36:08.001Z</time></trkpt><trkpt lat="43.66469009915778" lon="11.084384457268769"><ele>106.5</ele><time>2026-03-22T10:36:09.001Z</time></trkpt><trkpt lat="43.664641162411215" lon="11.084441501483603"><ele>106.33333333333334</ele><time>2026-03-22T10:36:10.001Z</time></trkpt><trkpt lat="43.66456754960382" lon="11.084477144138653"><ele>106.16666666666667</ele><time>2026-03-22T10:36:12.001Z</time></trkpt><trkpt lat="43.66449024699898" lon="11.084534256175226"><ele>106.0</ele><time>2026-03-22T10:36:14.001Z</time></trkpt><trkpt lat="43.664378686071174" lon="11.084611286204767"><ele>105.16666666666667</ele><time>2026-03-22T10:36:16.001Z</time></trkpt><trkpt lat="43.66431049589054" lon="11.084655940454274"><ele>104.33333333333334</ele><time>2026-03-22T10:36:17Z</time></trkpt><trkpt lat="43.66424304129691" lon="11.084693471526863"><ele>103.5</ele><time>2026-03-22T10:36:18Z</time></trkpt><trkpt lat="43.66417096685587" lon="11.084733627330488"><ele>102.66666666666666</ele><time>2026-03-22T10:36:19Z</time></trkpt><trkpt lat="43.664086689181275" lon="11.084773830815234"><ele>101.83333333333333</ele><time>2026-03-22T10:36:20Z</time></trkpt><trkpt lat="43.66400943602025" lon="11.084790368723649"><ele>101.0</ele><time>2026-03-22T10:36:21Z</time></trkpt><trkpt lat="43.663912427019696" lon="11.084815760829342"><ele>101.0</ele><time>2026-03-22T10:36:22Z</time></trkpt><trkpt lat="43.66380856673862" lon="11.084813828824453"><ele>101.0</ele><time>2026-03-22T10:36:23Z</time></trkpt><trkpt lat="43.66370229730351" lon="11.084788037602369"><ele>101.0</ele><time>2026-03-22T10:36:24Z</time></trkpt><trkpt lat="43.663608651319144" lon="11.084758575196586"><ele>101.0</ele><time>2026-03-22T10:36:25Z</time></trkpt><trkpt lat="43.66350657319951" lon="11.084730320074064"><ele>101.0</ele><time>2026-03-22T10:36:26Z</time></trkpt><trkpt lat="43.66339870990929" lon="11.084687578530296"><ele>100.0</ele><time>2026-03-22T10:36:27Z</time></trkpt><trkpt lat="43.66328807290129" lon="11.084645397537422"><ele>99.0</ele><time>2026-03-22T10:36:28Z</time></trkpt><trkpt lat="43.663169976655766" lon="11.084602804572931"><ele>98.0</ele><time>2026-03-22T10:36:29Z</time></trkpt><trkpt lat="43.66304374922982" lon="11.08456639833387"><ele>97.0</ele><time>2026-03-22T10:36:30Z</time></trkpt><trkpt lat="43.66291929524427" lon="11.084530231990072"><ele>97.0</ele><time>2026-03-22T10:36:31Z</time></trkpt><trkpt lat="43.66279056504111" lon="11.084495490739355"><ele>97.0</ele><time>2026-03-22T10:36:32Z</time></trkpt><trkpt lat="43.66265927647576" lon="11.08447681794155"><ele>97.0</ele><time>2026-03-22T10:36:33Z</time></trkpt><trkpt lat="43.66253534272114" lon="11.084475414098907"><ele>97.0</ele><time>2026-03-22T10:36:34Z</time></trkpt><trkpt lat="43.66241912218266" lon="11.084483054707517"><ele>97.6</ele><time>2026-03-22T10:36:35Z</time></trkpt><trkpt lat="43.66230234567438" lon="11.084473719049736"><ele>98.19999999999999</ele><time>2026-03-22T10:36:36Z</time></trkpt><trkpt lat="43.66218970039559" lon="11.084475045329679"><ele>98.8</ele><time>2026-03-22T10:36:37Z</time></trkpt><trkpt lat="43.66207619401599" lon="11.08447432530546"><ele>99.4</ele><time>2026-03-22T10:36:38Z</time></trkpt><trkpt lat="43.66197180138546" lon="11.084474750932388"><ele>100.0</ele><time>2026-03-22T10:36:39Z</time></trkpt><trkpt lat="43.661870520028145" lon="11.084475769560722"><ele>100.16666666666667</ele><time>2026-03-22T10:36:40Z</time></trkpt><trkpt lat="43.66177953441971" lon="11.084479002308756"><ele>100.33333333333334</ele><time>2026-03-22T10:36:41Z</time></trkpt><trkpt lat="43.66169088572858" lon="11.084481491277979"><ele>100.5</ele><time>2026-03-22T10:36:42Z</time></trkpt><trkpt lat="43.66161137225212" lon="11.084490845643652"><ele>100.66666666666666</ele><time>2026-03-22T10:36:43Z</time></trkpt><trkpt lat="43.661536592788856" lon="11.08450647118019"><ele>100.83333333333333</ele><time>2026-03-22T10:36:44Z</time></trkpt><trkpt lat="43.66146024586048" lon="11.084521498251123"><ele>101.0</ele><time>2026-03-22T10:36:45Z</time></trkpt><trkpt lat="43.661384062813454" lon="11.08453275504116"><ele>101.0</ele><time>2026-03-22T10:36:46Z</time></trkpt><trkpt lat="43.66130771249179" lon="11.084529310880356"><ele>101.0</ele><time>2026-03-22T10:36:47Z</time></trkpt><trkpt lat="43.66124161373827" lon="11.084492059374439"><ele>101.0</ele><time>2026-03-22T10:36:48Z</time></trkpt><trkpt lat="43.66117770252096" lon="11.08444762289313"><ele>101.0</ele><time>2026-03-22T10:36:49Z</time></trkpt><trkpt lat="43.66109899863108" lon="11.08441236684808"><ele>101.0</ele><time>2026-03-22T10:36:50Z</time></trkpt><trkpt lat="43.661024050366215" lon="11.084414247954095"><ele>101.0</ele><time>2026-03-22T10:36:51Z</time></trkpt><trkpt lat="43.660961120018186" lon="11.084439528164161"><ele>101.0</ele><time>2026-03-22T10:36:52Z</time></trkpt><trkpt lat="43.66091720474744" lon="11.084506792450284"><ele>101.4</ele><time>2026-03-22T10:36:53Z</time></trkpt><trkpt lat="43.66088452240297" lon="11.08460702105695"><ele>101.8</ele><time>2026-03-22T10:36:54Z</time></trkpt><trkpt lat="43.66086409364736" lon="11.084710244041503"><ele>102.2</ele><time>2026-03-22T10:36:55Z</time></trkpt><trkpt lat="43.660828742620986" lon="11.084825903632238"><ele>102.60000000000001</ele><time>2026-03-22T10:36:56Z</time></trkpt><trkpt lat="43.660775019495645" lon="11.084949576149324"><ele>103.0</ele><time>2026-03-22T10:36:57Z</time></trkpt><trkpt lat="43.66069469733376" lon="11.085076749433181"><ele>103.0</ele><time>2026-03-22T10:36:58Z</time></trkpt><trkpt lat="43.66058218094219" lon="11.085188268702701"><ele>103.0</ele><time>2026-03-22T10:36:59Z</time></trkpt><trkpt lat="43.660465810447" lon="11.085280383364255"><ele>103.0</ele><time>2026-03-22T10:37:00Z</time></trkpt><trkpt lat="43.66035056053187" lon="11.08537396105194"><ele>103.0</ele><time>2026-03-22T10:37:01Z</time></trkpt><trkpt lat="43.66022278860801" lon="11.085482830215744"><ele>103.66666666666667</ele><time>2026-03-22T10:37:02Z</time></trkpt><trkpt lat="43.66008771501034" lon="11.085609170721966"><ele>104.33333333333334</ele><time>2026-03-22T10:37:03Z</time></trkpt><trkpt lat="43.65994508577028" lon="11.085741522201658"><ele>105.0</ele><time>2026-03-22T10:37:04Z</time></trkpt><trkpt lat="43.659807646390554" lon="11.08586591204688"><ele>105.0</ele><time>2026-03-22T10:37:05Z</time></trkpt><trkpt lat="43.65967320154185" lon="11.085992379709287"><ele>105.0</ele><time>2026-03-22T10:37:06Z</time></trkpt><trkpt lat="43.65953414087937" lon="11.086115146986264"><ele>105.0</ele><time>2026-03-22T10:37:07Z</time></trkpt><trkpt lat="43.65939758354205" lon="11.086244272960608"><ele>105.0</ele><time>2026-03-22T10:37:08Z</time></trkpt><trkpt lat="43.659255204671304" lon="11.08637975247045"><ele>105.0</ele><time>2026-03-22T10:37:09Z</time></trkpt><trkpt lat="43.65910509784661" lon="11.086519361637345"><ele>105.0</ele><time>2026-03-22T10:37:10Z</time></trkpt><trkpt lat="43.65895367603244" lon="11.08666619708089"><ele>105.0</ele><time>2026-03-22T10:37:11Z</time></trkpt><trkpt lat="43.658803080291484" lon="11.086815650102984"><ele>105.0</ele><time>2026-03-22T10:37:12Z</time></trkpt><trkpt lat="43.65865912461371" lon="11.086959530342735"><ele>105.0</ele><time>2026-03-22T10:37:13Z</time></trkpt><trkpt lat="43.6585212558216" lon="11.087090516090827"><ele>104.0</ele><time>2026-03-22T10:37:13.999Z</time></trkpt><trkpt lat="43.65838234364787" lon="11.087215255824457"><ele>103.0</ele><time>2026-03-22T10:37:14.999Z</time></trkpt><trkpt lat="43.658242657580104" lon="11.08733982240463"><ele>102.0</ele><time>2026-03-22T10:37:15.999Z</time></trkpt><trkpt lat="43.658097559872644" lon="11.087472170344997"><ele>102.66666666666666</ele><time>2026-03-22T10:37:16.999Z</time></trkpt><trkpt lat="43.65795371728653" lon="11.087611134213228"><ele>103.33333333333333</ele><time>2026-03-22T10:37:17.999Z</time></trkpt><trkpt lat="43.65780157278671" lon="11.087756795224438"><ele>104.0</ele><time>2026-03-22T10:37:18.999Z</time></trkpt><trkpt lat="43.657654682782066" lon="11.087901916058913"><ele>104.0</ele><time>2026-03-22T10:37:19.999Z</time></trkpt><trkpt lat="43.65749800744517" lon="11.088046207432221"><ele>104.0</ele><time>2026-03-22T10:37:20.999Z</time></trkpt><trkpt lat="43.6573425838587" lon="11.088192263045809"><ele>104.0</ele><time>2026-03-22T10:37:21.999Z</time></trkpt><trkpt lat="43.65718914539071" lon="11.088338790468699"><ele>104.33333333333333</ele><time>2026-03-22T10:37:22.999Z</time></trkpt><trkpt lat="43.65704014375787" lon="11.088481241805361"><ele>104.66666666666666</ele><time>2026-03-22T10:37:23.999Z</time></trkpt><trkpt lat="43.656888580999215" lon="11.088623494237584"><ele>105.0</ele><time>2026-03-22T10:37:24.999Z</time></trkpt><trkpt lat="43.65673951524252" lon="11.088765698136777"><ele>105.0</ele><time>2026-03-22T10:37:25.999Z</time></trkpt><trkpt lat="43.65658869461638" lon="11.088908987183997"><ele>105.0</ele><time>2026-03-22T10:37:26.999Z</time></trkpt><trkpt lat="43.65644155879542" lon="11.08904854194355"><ele>105.0</ele><time>2026-03-22T10:37:27.999Z</time></trkpt><trkpt lat="43.656291667222355" lon="11.089186316838116"><ele>105.66666666666666</ele><time>2026-03-22T10:37:28.999Z</time></trkpt><trkpt lat="43.65614333154596" lon="11.08932686515603"><ele>106.33333333333333</ele><time>2026-03-22T10:37:29.999Z</time></trkpt><trkpt lat="43.65599722997705" lon="11.0894642430425"><ele>107.0</ele><time>2026-03-22T10:37:30.999Z</time></trkpt><trkpt lat="43.65585080717976" lon="11.08960267823509"><ele>107.0</ele><time>2026-03-22T10:37:31.999Z</time></trkpt><trkpt lat="43.65570321862858" lon="11.089740944199276"><ele>107.0</ele><time>2026-03-22T10:37:32.999Z</time></trkpt><trkpt lat="43.655566511765336" lon="11.089868361173634"><ele>107.0</ele><time>2026-03-22T10:37:33.999Z</time></trkpt><trkpt lat="43.655414396289395" lon="11.090009057761002"><ele>107.33333333333333</ele><time>2026-03-22T10:37:34.999Z</time></trkpt><trkpt lat="43.65526598245297" lon="11.090142310963362"><ele>107.66666666666666</ele><time>2026-03-22T10:37:35.999Z</time></trkpt><trkpt lat="43.655117465247955" lon="11.090277369750572"><ele>108.0</ele><time>2026-03-22T10:37:36.999Z</time></trkpt><trkpt lat="43.65497313615962" lon="11.090416757602117"><ele>108.0</ele><time>2026-03-22T10:37:37.999Z</time></trkpt><trkpt lat="43.65483363182723" lon="11.09055365887075"><ele>108.0</ele><time>2026-03-22T10:37:38.999Z</time></trkpt><trkpt lat="43.65468051155162" lon="11.090701558218466"><ele>108.0</ele><time>2026-03-22T10:37:39.999Z</time></trkpt><trkpt lat="43.654535182707626" lon="11.090840724899921"><ele>109.33333333333334</ele><time>2026-03-22T10:37:40.999Z</time></trkpt><trkpt lat="43.65438493584759" lon="11.090985214424732"><ele>110.66666666666667</ele><time>2026-03-22T10:37:41.999Z</time></trkpt><trkpt lat="43.65423393603796" lon="11.091130153009276"><ele>112.0</ele><time>2026-03-22T10:37:42.999Z</time></trkpt><trkpt lat="43.654078297334905" lon="11.091275609957767"><ele>112.0</ele><time>2026-03-22T10:37:43.999Z</time></trkpt><trkpt lat="43.653921281853236" lon="11.091420707340722"><ele>112.0</ele><time>2026-03-22T10:37:44.999Z</time></trkpt><trkpt lat="43.653759402145305" lon="11.091567026762192"><ele>112.0</ele><time>2026-03-22T10:37:45.999Z</time></trkpt><trkpt lat="43.65359710216151" lon="11.09170918072384"><ele>112.33333333333334</ele><time>2026-03-22T10:37:46.999Z</time></trkpt><trkpt lat="43.65343584084138" lon="11.091845571708701"><ele>112.66666666666666</ele><time>2026-03-22T10:37:47.999Z</time></trkpt><trkpt lat="43.65326928366044" lon="11.091981798619788"><ele>113.0</ele><time>2026-03-22T10:37:48.999Z</time></trkpt><trkpt lat="43.65309123102361" lon="11.092117174955252"><ele>113.0</ele><time>2026-03-22T10:37:49.999Z</time></trkpt><trkpt lat="43.65292806799856" lon="11.092230633952427"><ele>113.0</ele><time>2026-03-22T10:37:50.999Z</time></trkpt><trkpt lat="43.652751234310266" lon="11.09233461121346"><ele>113.0</ele><time>2026-03-22T10:37:51.999Z</time></trkpt><trkpt lat="43.652569230170705" lon="11.092430565154089"><ele>115.0</ele><time>2026-03-22T10:37:52.999Z</time></trkpt><trkpt lat="43.65239170667679" lon="11.092517779651198"><ele>117.0</ele><time>2026-03-22T10:37:54.001Z</time></trkpt><trkpt lat="43.65219525668925" lon="11.092610689486381"><ele>119.0</ele><time>2026-03-22T10:37:55.001Z</time></trkpt><trkpt lat="43.65200845809095" lon="11.09270594392795"><ele>118.33333333333333</ele><time>2026-03-22T10:37:56.001Z</time></trkpt><trkpt lat="43.651828683922695" lon="11.092797495672379"><ele>117.66666666666666</ele><time>2026-03-22T10:37:57.001Z</time></trkpt><trkpt lat="43.65164883989566" lon="11.092893427066429"><ele>117.0</ele><time>2026-03-22T10:37:58.001Z</time></trkpt><trkpt lat="43.651474197269444" lon="11.092969219535004"><ele>117.0</ele><time>2026-03-22T10:37:59.001Z</time></trkpt><trkpt lat="43.65130906759288" lon="11.09305217251657"><ele>117.0</ele><time>2026-03-22T10:38:00.001Z</time></trkpt><trkpt lat="43.65115097663489" lon="11.09312784061444"><ele>117.0</ele><time>2026-03-22T10:38:01.001Z</time></trkpt><trkpt lat="43.651003030355625" lon="11.093187094846453"><ele>116.75</ele><time>2026-03-22T10:38:02.001Z</time></trkpt><trkpt lat="43.650855531088474" lon="11.093259463485774"><ele>116.5</ele><time>2026-03-22T10:38:03.001Z</time></trkpt><trkpt lat="43.65073608718622" lon="11.093329738929404"><ele>116.25</ele><time>2026-03-22T10:38:04.002Z</time></trkpt><trkpt lat="43.650622536177735" lon="11.093394391485008"><ele>116.0</ele><time>2026-03-22T10:38:05.001Z</time></trkpt><trkpt lat="43.65052053942081" lon="11.09344354455275"><ele>115.99999999999999</ele><time>2026-03-22T10:38:06.001Z</time></trkpt><trkpt lat="43.65042159709663" lon="11.093497026207906"><ele>116.0</ele><time>2026-03-22T10:38:07.002Z</time></trkpt><trkpt lat="43.650332421241835" lon="11.093549277267211"><ele>116.0</ele><time>2026-03-22T10:38:08.002Z</time></trkpt><trkpt lat="43.65026278746087" lon="11.09358802984959"><ele>116.0</ele><time>2026-03-22T10:38:09.002Z</time></trkpt><trkpt lat="43.65019640705275" lon="11.093599654177648"><ele>115.99999999999999</ele><time>2026-03-22T10:38:10.002Z</time></trkpt><trkpt lat="43.65012556016961" lon="11.093624440724714"><ele>116.0</ele><time>2026-03-22T10:38:12.002Z</time></trkpt><trkpt lat="43.65004109437541" lon="11.093436491633707"><ele>116.0</ele><time>2026-03-22T10:38:13.002Z</time></trkpt><trkpt lat="43.64999278907377" lon="11.093320163347446"><ele>116.0</ele><time>2026-03-22T10:38:14.002Z</time></trkpt><trkpt lat="43.64992911638866" lon="11.093209895196082"><ele>116.0</ele><time>2026-03-22T10:38:15.002Z</time></trkpt><trkpt lat="43.64986038248662" lon="11.093080688667301"><ele>116.0</ele><time>2026-03-22T10:38:16.002Z</time></trkpt><trkpt lat="43.6497892009404" lon="11.092949558127978"><ele>116.0</ele><time>2026-03-22T10:38:17.002Z</time></trkpt><trkpt lat="43.64970107960015" lon="11.092803365940702"><ele>116.0</ele><time>2026-03-22T10:38:18.001Z</time></trkpt><trkpt lat="43.64964670881461" lon="11.09268016451397"><ele>116.0</ele><time>2026-03-22T10:38:19.001Z</time></trkpt><trkpt lat="43.64957759777113" lon="11.092568050996196"><ele>116.0</ele><time>2026-03-22T10:38:20.001Z</time></trkpt><trkpt lat="43.64951151744056" lon="11.0924731623589"><ele>116.0</ele><time>2026-03-22T10:38:21.001Z</time></trkpt><trkpt lat="43.64946265309119" lon="11.092385205718617"><ele>116.0</ele><time>2026-03-22T10:38:22.001Z</time></trkpt><trkpt lat="43.64940915905875" lon="11.092282920171192"><ele>116.4</ele><time>2026-03-22T10:38:23.001Z</time></trkpt><trkpt lat="43.64935612300164" lon="11.092195097827217"><ele>116.8</ele><time>2026-03-22T10:38:24.001Z</time></trkpt><trkpt lat="43.64930128840247" lon="11.092100685622649"><ele>117.20000000000002</ele><time>2026-03-22T10:38:25.001Z</time></trkpt><trkpt lat="43.649249055782214" lon="11.092021306422264"><ele>117.60000000000001</ele><time>2026-03-22T10:38:26.001Z</time></trkpt><trkpt lat="43.64920715311538" lon="11.091898161378147"><ele>118.0</ele><time>2026-03-22T10:38:28.001Z</time></trkpt><trkpt lat="43.64906685187483" lon="11.092021913836183"><ele>118.00000000000001</ele><time>2026-03-22T10:38:30.001Z</time></trkpt><trkpt lat="43.64900663475196" lon="11.092069860721198"><ele>118.0</ele><time>2026-03-22T10:38:31.001Z</time></trkpt><trkpt lat="43.648941610532255" lon="11.092093314423726"><ele>118.0</ele><time>2026-03-22T10:38:32.001Z</time></trkpt><trkpt lat="43.648866440298974" lon="11.092143372791636"><ele>118.0</ele><time>2026-03-22T10:38:33.001Z</time></trkpt><trkpt lat="43.64877750517407" lon="11.092203773193463"><ele>118.00000000000001</ele><time>2026-03-22T10:38:34.001Z</time></trkpt><trkpt lat="43.648692575919306" lon="11.092261453006799"><ele>118.0</ele><time>2026-03-22T10:38:35.001Z</time></trkpt><trkpt lat="43.648601051844494" lon="11.092323611699676"><ele>118.2</ele><time>2026-03-22T10:38:36.001Z</time></trkpt><trkpt lat="43.64849969978269" lon="11.09239499457404"><ele>118.4</ele><time>2026-03-22T10:38:37.001Z</time></trkpt><trkpt lat="43.64840117868131" lon="11.092469020817227"><ele>118.60000000000001</ele><time>2026-03-22T10:38:38.001Z</time></trkpt><trkpt lat="43.64829038786591" lon="11.092555237440592"><ele>118.80000000000001</ele><time>2026-03-22T10:38:39.001Z</time></trkpt><trkpt lat="43.64821169596234" lon="11.092596304948781"><ele>119.0</ele><time>2026-03-22T10:38:40.001Z</time></trkpt><trkpt lat="43.648113833607304" lon="11.09261151395591"><ele>118.99999999999999</ele><time>2026-03-22T10:38:42.001Z</time></trkpt><trkpt lat="43.64803555310388" lon="11.09250574006335"><ele>119.0</ele><time>2026-03-22T10:38:44.001Z</time></trkpt><trkpt lat="43.647998366763595" lon="11.092422007793209"><ele>119.0</ele><time>2026-03-22T10:38:45.001Z</time></trkpt><trkpt lat="43.647953073726796" lon="11.092335920531458"><ele>119.0</ele><time>2026-03-22T10:38:46.001Z</time></trkpt><trkpt lat="43.647924389557254" lon="11.09222401318372"><ele>118.99999999999999</ele><time>2026-03-22T10:38:47.001Z</time></trkpt><trkpt lat="43.64788786925268" lon="11.092110395606554"><ele>119.0</ele><time>2026-03-22T10:38:48.001Z</time></trkpt><trkpt lat="43.6478433671433" lon="11.09197385782097"><ele>118.99999999999999</ele><time>2026-03-22T10:38:49.001Z</time></trkpt><trkpt lat="43.647796437858524" lon="11.091898351272544"><ele>119.0</ele><time>2026-03-22T10:38:50.001Z</time></trkpt><trkpt lat="43.647755471005674" lon="11.091824336214211"><ele>119.0</ele><time>2026-03-22T10:38:51.001Z</time></trkpt><trkpt lat="43.64770526038354" lon="11.091766820153873"><ele>119.0</ele><time>2026-03-22T10:38:52.001Z</time></trkpt><trkpt lat="43.647638236142505" lon="11.091690812629253"><ele>118.99999999999999</ele><time>2026-03-22T10:38:53.001Z</time></trkpt><trkpt lat="43.647563167319106" lon="11.091611812305144"><ele>119.0</ele><time>2026-03-22T10:38:54.001Z</time></trkpt><trkpt lat="43.64748203347564" lon="11.09153157155215"><ele>120.6</ele><time>2026-03-22T10:38:55.001Z</time></trkpt><trkpt lat="43.64739126546952" lon="11.091476787378053"><ele>122.2</ele><time>2026-03-22T10:38:56.001Z</time></trkpt><trkpt lat="43.64729552702951" lon="11.09145326224793"><ele>123.79999999999998</ele><time>2026-03-22T10:38:57.001Z</time></trkpt><trkpt lat="43.64719753861027" lon="11.091454131132057"><ele>125.39999999999999</ele><time>2026-03-22T10:38:58.001Z</time></trkpt><trkpt lat="43.64709204309642" lon="11.091480864721753"><ele>127.0</ele><time>2026-03-22T10:38:59.001Z</time></trkpt><trkpt lat="43.64698647026483" lon="11.091522321325233"><ele>126.75</ele><time>2026-03-22T10:39:00.001Z</time></trkpt><trkpt lat="43.646875833223" lon="11.09156704213664"><ele>126.5</ele><time>2026-03-22T10:39:01.001Z</time></trkpt><trkpt lat="43.6467710292579" lon="11.091627310435914"><ele>126.25</ele><time>2026-03-22T10:39:02.001Z</time></trkpt><trkpt lat="43.64666356226857" lon="11.091685518558739"><ele>126.0</ele><time>2026-03-22T10:39:03.001Z</time></trkpt><trkpt lat="43.646551801674306" lon="11.091733240377522"><ele>126.6</ele><time>2026-03-22T10:39:04.001Z</time></trkpt><trkpt lat="43.64643484483217" lon="11.091737389745795"><ele>127.19999999999999</ele><time>2026-03-22T10:39:05.001Z</time></trkpt><trkpt lat="43.64632307691758" lon="11.091738533369355"><ele>127.80000000000001</ele><time>2026-03-22T10:39:06.001Z</time></trkpt><trkpt lat="43.64621117165609" lon="11.091751924913092"><ele>128.4</ele><time>2026-03-22T10:39:07.001Z</time></trkpt><trkpt lat="43.64610738494717" lon="11.091729821921975"><ele>129.0</ele><time>2026-03-22T10:39:08.001Z</time></trkpt><trkpt lat="43.64600518974973" lon="11.091674439563501"><ele>130.5</ele><time>2026-03-22T10:39:09.001Z</time></trkpt><trkpt lat="43.645918026731714" lon="11.09162102056561"><ele>132.0</ele><time>2026-03-22T10:39:10.001Z</time></trkpt><trkpt lat="43.6458433684953" lon="11.091584420998128"><ele>133.5</ele><time>2026-03-22T10:39:11.001Z</time></trkpt><trkpt lat="43.64577763338129" lon="11.09158541829134"><ele>135.0</ele><time>2026-03-22T10:39:12.001Z</time></trkpt><trkpt lat="43.645696193710265" lon="11.091594259360955"><ele>136.5</ele><time>2026-03-22T10:39:13.001Z</time></trkpt><trkpt lat="43.64561059766485" lon="11.091636109632862"><ele>138.0</ele><time>2026-03-22T10:39:14.001Z</time></trkpt><trkpt lat="43.64550360250561" lon="11.091678586091742"><ele>139.25</ele><time>2026-03-22T10:39:15Z</time></trkpt><trkpt lat="43.645399498425576" lon="11.091703982805718"><ele>140.5</ele><time>2026-03-22T10:39:16Z</time></trkpt><trkpt lat="43.64527390347521" lon="11.091737576210534"><ele>141.75</ele><time>2026-03-22T10:39:17Z</time></trkpt><trkpt lat="43.64515576626473" lon="11.091770962332182"><ele>143.0</ele><time>2026-03-22T10:39:18Z</time></trkpt><trkpt lat="43.64505049157898" lon="11.091813642488507"><ele>145.20000000000002</ele><time>2026-03-22T10:39:19Z</time></trkpt><trkpt lat="43.6449627148305" lon="11.091855314945612"><ele>147.4</ele><time>2026-03-22T10:39:20Z</time></trkpt><trkpt lat="43.64488190318969" lon="11.091915474779785"><ele>149.60000000000002</ele><time>2026-03-22T10:39:21Z</time></trkpt><trkpt lat="43.64479679100773" lon="11.091971518620303"><ele>151.8</ele><time>2026-03-22T10:39:22Z</time></trkpt><trkpt lat="43.64470370123584" lon="11.092020927036252"><ele>154.0</ele><time>2026-03-22T10:39:23Z</time></trkpt><trkpt lat="43.64460545227697" lon="11.092044173323613"><ele>154.0</ele><time>2026-03-22T10:39:24Z</time></trkpt><trkpt lat="43.644501670304116" lon="11.092066091970374"><ele>154.0</ele><time>2026-03-22T10:39:25Z</time></trkpt><trkpt lat="43.64439849986624" lon="11.092091994417995"><ele>154.0</ele><time>2026-03-22T10:39:26Z</time></trkpt><trkpt lat="43.644290902537165" lon="11.092111377592717"><ele>154.0</ele><time>2026-03-22T10:39:27Z</time></trkpt><trkpt lat="43.644177151836615" lon="11.092108820593872"><ele>154.0</ele><time>2026-03-22T10:39:28Z</time></trkpt><trkpt lat="43.6440543143467" lon="11.092098459213236"><ele>158.0</ele><time>2026-03-22T10:39:29Z</time></trkpt><trkpt lat="43.64393224199309" lon="11.092073330184556"><ele>162.0</ele><time>2026-03-22T10:39:30Z</time></trkpt><trkpt lat="43.643810191025324" lon="11.09205408591765"><ele>166.0</ele><time>2026-03-22T10:39:31Z</time></trkpt><trkpt lat="43.643687877777104" lon="11.09203212449235"><ele>170.0</ele><time>2026-03-22T10:39:32Z</time></trkpt><trkpt lat="43.643557993505866" lon="11.092005459168925"><ele>173.75</ele><time>2026-03-22T10:39:33Z</time></trkpt><trkpt lat="43.64342926488212" lon="11.091975532560856"><ele>177.5</ele><time>2026-03-22T10:39:34Z</time></trkpt><trkpt lat="43.64331246057915" lon="11.091953008496462"><ele>181.25</ele><time>2026-03-22T10:39:35Z</time></trkpt><trkpt lat="43.64321360717946" lon="11.09194160432155"><ele>185.0</ele><time>2026-03-22T10:39:36Z</time></trkpt><trkpt lat="43.643104284652765" lon="11.091875252358486"><ele>185.0</ele><time>2026-03-22T10:39:38Z</time></trkpt><trkpt lat="43.6430481602022" lon="11.09181817816385"><ele>185.0</ele><time>2026-03-22T10:39:39Z</time></trkpt><trkpt lat="43.642991001492106" lon="11.091728987195957"><ele>185.0</ele><time>2026-03-22T10:39:40Z</time></trkpt><trkpt lat="43.64293790299487" lon="11.091632952234255"><ele>185.0</ele><time>2026-03-22T10:39:41Z</time></trkpt><trkpt lat="43.64288425941413" lon="11.09154817030992"><ele>185.0</ele><time>2026-03-22T10:39:42Z</time></trkpt><trkpt lat="43.64282979419637" lon="11.09147141158899"><ele>185.0</ele><time>2026-03-22T10:39:43Z</time></trkpt><trkpt lat="43.642741619898025" lon="11.091376677365883"><ele>186.4</ele><time>2026-03-22T10:39:45Z</time></trkpt><trkpt lat="43.64261176203327" lon="11.091335395071754"><ele>187.8</ele><time>2026-03-22T10:39:47Z</time></trkpt><trkpt lat="43.64250051121416" lon="11.091354097426816"><ele>189.2</ele><time>2026-03-22T10:39:48Z</time></trkpt><trkpt lat="43.64240891371731" lon="11.091368634698977"><ele>190.6</ele><time>2026-03-22T10:39:49Z</time></trkpt><trkpt lat="43.642316289222805" lon="11.091370846511609"><ele>192.0</ele><time>2026-03-22T10:39:50Z</time></trkpt><trkpt lat="43.642227694560205" lon="11.091374041915914"><ele>192.0</ele><time>2026-03-22T10:39:51Z</time></trkpt><trkpt lat="43.642150846662275" lon="11.091385936584722"><ele>192.0</ele><time>2026-03-22T10:39:52Z</time></trkpt><trkpt lat="43.64208714575006" lon="11.091367185410924"><ele>192.0</ele><time>2026-03-22T10:39:53Z</time></trkpt><trkpt lat="43.64201822354426" lon="11.091352977472102"><ele>192.0</ele><time>2026-03-22T10:39:54Z</time></trkpt><trkpt lat="43.64193831444896" lon="11.091312640038668"><ele>192.0</ele><time>2026-03-22T10:39:55Z</time></trkpt><trkpt lat="43.64184849770782" lon="11.091249039508345"><ele>192.0</ele><time>2026-03-22T10:39:56Z</time></trkpt><trkpt lat="43.641754802286385" lon="11.091166637367863"><ele>195.39999999999998</ele><time>2026-03-22T10:39:57Z</time></trkpt><trkpt lat="43.64165671462153" lon="11.091098676009686"><ele>198.79999999999998</ele><time>2026-03-22T10:39:58Z</time></trkpt><trkpt lat="43.64156126750848" lon="11.091027959363354"><ele>202.2</ele><time>2026-03-22T10:39:59Z</time></trkpt><trkpt lat="43.641457576345005" lon="11.09095514706239"><ele>205.6</ele><time>2026-03-22T10:40:00.001Z</time></trkpt><trkpt lat="43.64136062439676" lon="11.090881494197287"><ele>209.0</ele><time>2026-03-22T10:40:01.001Z</time></trkpt><trkpt lat="43.64126217813839" lon="11.09081146453442"><ele>207.5</ele><time>2026-03-22T10:40:02.001Z</time></trkpt><trkpt lat="43.641151423979935" lon="11.090734173165341"><ele>206.0</ele><time>2026-03-22T10:40:03.002Z</time></trkpt><trkpt lat="43.641044961353735" lon="11.090662212976122"><ele>204.5</ele><time>2026-03-22T10:40:04.001Z</time></trkpt><trkpt lat="43.640931264414974" lon="11.090584275403877"><ele>203.0</ele><time>2026-03-22T10:40:05.001Z</time></trkpt><trkpt lat="43.64081938099875" lon="11.090507582084033"><ele>205.8</ele><time>2026-03-22T10:40:06.001Z</time></trkpt><trkpt lat="43.64071298023456" lon="11.090432812891919"><ele>208.60000000000002</ele><time>2026-03-22T10:40:07.001Z</time></trkpt><trkpt lat="43.64062193615318" lon="11.090351549739172"><ele>211.39999999999998</ele><time>2026-03-22T10:40:08.001Z</time></trkpt><trkpt lat="43.64055458144851" lon="11.090285611468072"><ele>214.2</ele><time>2026-03-22T10:40:09.001Z</time></trkpt><trkpt lat="43.64051680637998" lon="11.090207307167953"><ele>217.0</ele><time>2026-03-22T10:40:10.002Z</time></trkpt><trkpt lat="43.64050804811988" lon="11.090108577372416"><ele>217.0</ele><time>2026-03-22T10:40:11.002Z</time></trkpt><trkpt lat="43.64050432921094" lon="11.090001267388525"><ele>217.0</ele><time>2026-03-22T10:40:12.002Z</time></trkpt><trkpt lat="43.64049462506766" lon="11.08987681712628"><ele>217.0</ele><time>2026-03-22T10:40:13.001Z</time></trkpt><trkpt lat="43.640480596562476" lon="11.089736023158379"><ele>217.0</ele><time>2026-03-22T10:40:14.001Z</time></trkpt><trkpt lat="43.640455422352076" lon="11.089579098071667"><ele>217.0</ele><time>2026-03-22T10:40:15.001Z</time></trkpt><trkpt lat="43.640427323877596" lon="11.08941435451868"><ele>216.5</ele><time>2026-03-22T10:40:16.001Z</time></trkpt><trkpt lat="43.64039261122433" lon="11.0892363684488"><ele>216.0</ele><time>2026-03-22T10:40:17.001Z</time></trkpt><trkpt lat="43.64036616428836" lon="11.089050360014108"><ele>215.5</ele><time>2026-03-22T10:40:18.001Z</time></trkpt><trkpt lat="43.640331846604745" lon="11.088845988687636"><ele>215.0</ele><time>2026-03-22T10:40:19.001Z</time></trkpt><trkpt lat="43.64031195482311" lon="11.088668510645222"><ele>215.6</ele><time>2026-03-22T10:40:20.001Z</time></trkpt><trkpt lat="43.64028532997506" lon="11.088510036653318"><ele>216.2</ele><time>2026-03-22T10:40:21.001Z</time></trkpt><trkpt lat="43.64026273575835" lon="11.088362418004099"><ele>216.8</ele><time>2026-03-22T10:40:22.001Z</time></trkpt><trkpt lat="43.640248627268434" lon="11.088219179812224"><ele>217.4</ele><time>2026-03-22T10:40:23.001Z</time></trkpt><trkpt lat="43.64023413334264" lon="11.08807838749727"><ele>218.0</ele><time>2026-03-22T10:40:24.001Z</time></trkpt><trkpt lat="43.64021346474957" lon="11.08792931509673"><ele>218.0</ele><time>2026-03-22T10:40:25.001Z</time></trkpt><trkpt lat="43.6401884840123" lon="11.087778897280199"><ele>218.0</ele><time>2026-03-22T10:40:26.001Z</time></trkpt><trkpt lat="43.64015507180033" lon="11.087629839164654"><ele>218.0</ele><time>2026-03-22T10:40:27.001Z</time></trkpt><trkpt lat="43.640116014958956" lon="11.087495822673024"><ele>218.0</ele><time>2026-03-22T10:40:28.001Z</time></trkpt><trkpt lat="43.64006883509647" lon="11.087369542964977"><ele>218.0</ele><time>2026-03-22T10:40:29.001Z</time></trkpt><trkpt lat="43.64000703781845" lon="11.08724706858271"><ele>216.8</ele><time>2026-03-22T10:40:30.001Z</time></trkpt><trkpt lat="43.6399352000053" lon="11.087138118754897"><ele>215.60000000000002</ele><time>2026-03-22T10:40:31.001Z</time></trkpt><trkpt lat="43.639863184646536" lon="11.087026481958665"><ele>214.39999999999998</ele><time>2026-03-22T10:40:32.001Z</time></trkpt><trkpt lat="43.63979003342466" lon="11.08690363613527"><ele>213.2</ele><time>2026-03-22T10:40:33.001Z</time></trkpt><trkpt lat="43.639725422161774" lon="11.08676727421062"><ele>212.0</ele><time>2026-03-22T10:40:34.001Z</time></trkpt><trkpt lat="43.63967007815149" lon="11.086606075713066"><ele>212.2</ele><time>2026-03-22T10:40:35.001Z</time></trkpt><trkpt lat="43.63961233094473" lon="11.086477148686713"><ele>212.39999999999998</ele><time>2026-03-22T10:40:36.001Z</time></trkpt><trkpt lat="43.63956651074156" lon="11.086341534280624"><ele>212.60000000000002</ele><time>2026-03-22T10:40:37.001Z</time></trkpt><trkpt lat="43.63952906909455" lon="11.08621730131418"><ele>212.8</ele><time>2026-03-22T10:40:38.001Z</time></trkpt><trkpt lat="43.639494469733776" lon="11.086096115267127"><ele>213.0</ele><time>2026-03-22T10:40:39.001Z</time></trkpt><trkpt lat="43.639465747301394" lon="11.085971175715157"><ele>214.2</ele><time>2026-03-22T10:40:40.001Z</time></trkpt><trkpt lat="43.63945975739595" lon="11.08583031230043"><ele>215.4</ele><time>2026-03-22T10:40:41.001Z</time></trkpt><trkpt lat="43.63947648290135" lon="11.085667178506688"><ele>216.59999999999997</ele><time>2026-03-22T10:40:42.001Z</time></trkpt><trkpt lat="43.639503297252986" lon="11.085524689044215"><ele>217.79999999999998</ele><time>2026-03-22T10:40:43.001Z</time></trkpt><trkpt lat="43.63953517731214" lon="11.085372553229941"><ele>219.0</ele><time>2026-03-22T10:40:44.001Z</time></trkpt><trkpt lat="43.63955472302163" lon="11.085210820163622"><ele>219.0</ele><time>2026-03-22T10:40:45.001Z</time></trkpt><trkpt lat="43.63957496252913" lon="11.085076875481441"><ele>218.99999999999997</ele><time>2026-03-22T10:40:46.001Z</time></trkpt><trkpt lat="43.63959082032212" lon="11.08495701056177"><ele>218.99999999999997</ele><time>2026-03-22T10:40:47Z</time></trkpt><trkpt lat="43.6396146678039" lon="11.084835439715421"><ele>219.0</ele><time>2026-03-22T10:40:48Z</time></trkpt><trkpt lat="43.639640266408236" lon="11.084706239923825"><ele>219.0</ele><time>2026-03-22T10:40:49Z</time></trkpt><trkpt lat="43.63966674454031" lon="11.084553107899799"><ele>219.6</ele><time>2026-03-22T10:40:50Z</time></trkpt><trkpt lat="43.63969492907886" lon="11.084398290521584"><ele>220.2</ele><time>2026-03-22T10:40:51Z</time></trkpt><trkpt lat="43.639719058875386" lon="11.084258816127754"><ele>220.79999999999998</ele><time>2026-03-22T10:40:52Z</time></trkpt><trkpt lat="43.63974235744992" lon="11.084141064844294"><ele>221.39999999999998</ele><time>2026-03-22T10:40:53Z</time></trkpt><trkpt lat="43.63975618826199" lon="11.084043636463038"><ele>222.0</ele><time>2026-03-22T10:40:54Z</time></trkpt><trkpt lat="43.6397523273435" lon="11.083888685251083"><ele>222.33333333333334</ele><time>2026-03-22T10:40:56Z</time></trkpt><trkpt lat="43.63973152692267" lon="11.083775657913941"><ele>222.66666666666669</ele><time>2026-03-22T10:40:57Z</time></trkpt><trkpt lat="43.63969774550852" lon="11.083667535740503"><ele>223.0</ele><time>2026-03-22T10:40:58Z</time></trkpt><trkpt lat="43.639656486875786" lon="11.083568193991868"><ele>223.33333333333334</ele><time>2026-03-22T10:40:59Z</time></trkpt><trkpt lat="43.639636126708375" lon="11.083444052694507"><ele>223.66666666666669</ele><time>2026-03-22T10:41:00Z</time></trkpt><trkpt lat="43.639596879283545" lon="11.083323140276928"><ele>224.0</ele><time>2026-03-22T10:41:01Z</time></trkpt><trkpt lat="43.639547334337706" lon="11.083197666751232"><ele>224.33333333333334</ele><time>2026-03-22T10:41:02Z</time></trkpt><trkpt lat="43.639499876498434" lon="11.083077674120565"><ele>224.66666666666669</ele><time>2026-03-22T10:41:03Z</time></trkpt><trkpt lat="43.63945778961459" lon="11.082976120539941"><ele>225.0</ele><time>2026-03-22T10:41:04Z</time></trkpt><trkpt lat="43.63942551525632" lon="11.082890406915181"><ele>225.33333333333331</ele><time>2026-03-22T10:41:05Z</time></trkpt><trkpt lat="43.63936555426154" lon="11.082758518691154"><ele>225.66666666666666</ele><time>2026-03-22T10:41:07Z</time></trkpt><trkpt lat="43.63934037349566" lon="11.082675167208253"><ele>226.0</ele><time>2026-03-22T10:41:08Z</time></trkpt><trkpt lat="43.63931098859688" lon="11.082581765660171"><ele>228.49999999999997</ele><time>2026-03-22T10:41:09Z</time></trkpt><trkpt lat="43.63928627063673" lon="11.082481330158455"><ele>231.0</ele><time>2026-03-22T10:41:10Z</time></trkpt><trkpt lat="43.639285114598195" lon="11.082381953030787"><ele>233.5</ele><time>2026-03-22T10:41:11Z</time></trkpt><trkpt lat="43.639293502454066" lon="11.082243436790826"><ele>236.0</ele><time>2026-03-22T10:41:13Z</time></trkpt><trkpt lat="43.63931554627503" lon="11.082104955204514"><ele>238.49999999999997</ele><time>2026-03-22T10:41:15Z</time></trkpt><trkpt lat="43.63932147313213" lon="11.082004153334125"><ele>241.0</ele><time>2026-03-22T10:41:16Z</time></trkpt><trkpt lat="43.639325426941554" lon="11.081888085522074"><ele>241.60000000000002</ele><time>2026-03-22T10:41:17Z</time></trkpt><trkpt lat="43.63933516213659" lon="11.081756853491036"><ele>242.20000000000002</ele><time>2026-03-22T10:41:18Z</time></trkpt><trkpt lat="43.63933557615971" lon="11.081626393477887"><ele>242.79999999999998</ele><time>2026-03-22T10:41:19Z</time></trkpt><trkpt lat="43.63935522710071" lon="11.08149827087369"><ele>243.39999999999998</ele><time>2026-03-22T10:41:20Z</time></trkpt><trkpt lat="43.63936698462138" lon="11.08137042093648"><ele>244.0</ele><time>2026-03-22T10:41:21Z</time></trkpt><trkpt lat="43.63937662504556" lon="11.081232945432667"><ele>244.16666666666666</ele><time>2026-03-22T10:41:22Z</time></trkpt><trkpt lat="43.639382608524315" lon="11.081100340085404"><ele>244.33333333333331</ele><time>2026-03-22T10:41:23Z</time></trkpt><trkpt lat="43.6393856620335" lon="11.080998260818088"><ele>244.5</ele><time>2026-03-22T10:41:24Z</time></trkpt><trkpt lat="43.639393906747884" lon="11.080855717983562"><ele>244.66666666666669</ele><time>2026-03-22T10:41:26Z</time></trkpt><trkpt lat="43.63939731232934" lon="11.080746929156534"><ele>244.83333333333334</ele><time>2026-03-22T10:41:28Z</time></trkpt><trkpt lat="43.639362433878624" lon="11.080652255268154"><ele>245.0</ele><time>2026-03-22T10:41:44.999Z</time></trkpt><trkpt lat="43.63924840291072" lon="11.08064054107487"><ele>245.0</ele><time>2026-03-22T10:41:46.999Z</time></trkpt><trkpt lat="43.6391256511893" lon="11.08069928848119"><ele>245.0</ele><time>2026-03-22T10:41:48.999Z</time></trkpt><trkpt lat="43.63904209511187" lon="11.080718871191484"><ele>245.0</ele><time>2026-03-22T10:41:49.999Z</time></trkpt><trkpt lat="43.63896230740573" lon="11.080731654538098"><ele>245.0</ele><time>2026-03-22T10:41:50.999Z</time></trkpt><trkpt lat="43.63887666855984" lon="11.080756905224433"><ele>245.0</ele><time>2026-03-22T10:41:51.999Z</time></trkpt><trkpt lat="43.63879058180418" lon="11.080802536299657"><ele>245.00000000000003</ele><time>2026-03-22T10:41:52.999Z</time></trkpt><trkpt lat="43.638716588500166" lon="11.080858818762982"><ele>245.0</ele><time>2026-03-22T10:41:53.999Z</time></trkpt><trkpt lat="43.63866910386933" lon="11.080944659317653"><ele>245.0</ele><time>2026-03-22T10:41:54.999Z</time></trkpt><trkpt lat="43.638641382577795" lon="11.081055224485517"><ele>245.0</ele><time>2026-03-22T10:41:55.999Z</time></trkpt><trkpt lat="43.638618572790804" lon="11.081163540921073"><ele>245.00000000000003</ele><time>2026-03-22T10:41:56.999Z</time></trkpt><trkpt lat="43.63860541195788" lon="11.081297309004881"><ele>245.0</ele><time>2026-03-22T10:41:57.999Z</time></trkpt><trkpt lat="43.638588788509125" lon="11.081415928521372"><ele>246.5</ele><time>2026-03-22T10:41:58.999Z</time></trkpt><trkpt lat="43.63856178899875" lon="11.081552057267757"><ele>248.0</ele><time>2026-03-22T10:41:59.999Z</time></trkpt><trkpt lat="43.638541795274676" lon="11.081711069501004"><ele>249.5</ele><time>2026-03-22T10:42:00.999Z</time></trkpt><trkpt lat="43.63851167852101" lon="11.081880557156804"><ele>251.0</ele><time>2026-03-22T10:42:01.999Z</time></trkpt><trkpt lat="43.63849507140694" lon="11.08205655733186"><ele>252.75</ele><time>2026-03-22T10:42:02.999Z</time></trkpt><trkpt lat="43.63847365851336" lon="11.082251181454618"><ele>254.5</ele><time>2026-03-22T10:42:03.999Z</time></trkpt><trkpt lat="43.638454406294166" lon="11.082417493674239"><ele>256.25</ele><time>2026-03-22T10:42:04.999Z</time></trkpt><trkpt lat="43.63843652089604" lon="11.082560624559301"><ele>258.0</ele><time>2026-03-22T10:42:06.001Z</time></trkpt><trkpt lat="43.63840651053673" lon="11.082672923778123"><ele>257.8</ele><time>2026-03-22T10:42:07.001Z</time></trkpt><trkpt lat="43.638351636081936" lon="11.082793162447892"><ele>257.6</ele><time>2026-03-22T10:42:08.001Z</time></trkpt><trkpt lat="43.63830458611315" lon="11.082941310810911"><ele>257.4</ele><time>2026-03-22T10:42:09.001Z</time></trkpt><trkpt lat="43.63825331533416" lon="11.083078371915166"><ele>257.2</ele><time>2026-03-22T10:42:10.002Z</time></trkpt><trkpt lat="43.638199797456565" lon="11.083200362663876"><ele>257.0</ele><time>2026-03-22T10:42:11.002Z</time></trkpt><trkpt lat="43.63814632041594" lon="11.083312859306393"><ele>257.0</ele><time>2026-03-22T10:42:12.001Z</time></trkpt><trkpt lat="43.63810088862363" lon="11.083410774869328"><ele>257.0</ele><time>2026-03-22T10:42:13.002Z</time></trkpt><trkpt lat="43.638056572831495" lon="11.083509583144147"><ele>257.0</ele><time>2026-03-22T10:42:14.002Z</time></trkpt><trkpt lat="43.63799618690281" lon="11.083624108009111"><ele>257.0</ele><time>2026-03-22T10:42:16.001Z</time></trkpt><trkpt lat="43.638075307676644" lon="11.083586228827908"><ele>257.0</ele><time>2026-03-22T10:42:23.001Z</time></trkpt><trkpt lat="43.63811383520508" lon="11.08348720010492"><ele>257.0</ele><time>2026-03-22T10:42:24.001Z</time></trkpt><trkpt lat="43.638158642200175" lon="11.083377156972068"><ele>258.0</ele><time>2026-03-22T10:42:25.001Z</time></trkpt><trkpt lat="43.63821523973138" lon="11.08326022144887"><ele>259.0</ele><time>2026-03-22T10:42:26.001Z</time></trkpt><trkpt lat="43.63827020158574" lon="11.083146693740504"><ele>260.0</ele><time>2026-03-22T10:42:27.001Z</time></trkpt><trkpt lat="43.63832835817169" lon="11.083022962026348"><ele>261.0</ele><time>2026-03-22T10:42:28.001Z</time></trkpt><trkpt lat="43.63836721384741" lon="11.082910910251632"><ele>262.0</ele><time>2026-03-22T10:42:29.001Z</time></trkpt><trkpt lat="43.63840608494884" lon="11.082785608300513"><ele>262.0</ele><time>2026-03-22T10:42:30.001Z</time></trkpt><trkpt lat="43.63843974768139" lon="11.082635032986902"><ele>262.0</ele><time>2026-03-22T10:42:31.001Z</time></trkpt><trkpt lat="43.63846282509347" lon="11.082472600605529"><ele>262.0</ele><time>2026-03-22T10:42:32.001Z</time></trkpt><trkpt lat="43.63848231522028" lon="11.082291973066361"><ele>262.0</ele><time>2026-03-22T10:42:33.001Z</time></trkpt><trkpt lat="43.6385044481728" lon="11.082105859357457"><ele>261.0</ele><time>2026-03-22T10:42:34.001Z</time></trkpt><trkpt lat="43.638518638784" lon="11.081905203307722"><ele>260.0</ele><time>2026-03-22T10:42:35.001Z</time></trkpt><trkpt lat="43.638545102570696" lon="11.081709989863302"><ele>259.0</ele><time>2026-03-22T10:42:36.001Z</time></trkpt><trkpt lat="43.63857212103639" lon="11.081514914812391"><ele>258.0</ele><time>2026-03-22T10:42:37.001Z</time></trkpt><trkpt lat="43.63860434432615" lon="11.081342296757512"><ele>255.4</ele><time>2026-03-22T10:42:38.001Z</time></trkpt><trkpt lat="43.63863665702756" lon="11.081174169851996"><ele>252.8</ele><time>2026-03-22T10:42:39.001Z</time></trkpt><trkpt lat="43.638667930862326" lon="11.081040666021467"><ele>250.2</ele><time>2026-03-22T10:42:40.001Z</time></trkpt><trkpt lat="43.63870884627508" lon="11.080921784602634"><ele>247.6</ele><time>2026-03-22T10:42:41.001Z</time></trkpt><trkpt lat="43.638782644165886" lon="11.080837389508858"><ele>245.0</ele><time>2026-03-22T10:42:42.001Z</time></trkpt><trkpt lat="43.63886780939575" lon="11.08078681677323"><ele>245.0</ele><time>2026-03-22T10:42:43.001Z</time></trkpt><trkpt lat="43.63896979015811" lon="11.08077843660119"><ele>245.0</ele><time>2026-03-22T10:42:44.001Z</time></trkpt><trkpt lat="43.63907006135094" lon="11.080762832024558"><ele>245.0</ele><time>2026-03-22T10:42:45.001Z</time></trkpt><trkpt lat="43.63916749985774" lon="11.080748842423823"><ele>245.0</ele><time>2026-03-22T10:42:46.001Z</time></trkpt><trkpt lat="43.639270336435956" lon="11.080726252483469"><ele>245.0</ele><time>2026-03-22T10:42:47Z</time></trkpt><trkpt lat="43.63937120671227" lon="11.08070602545354"><ele>243.6</ele><time>2026-03-22T10:42:48Z</time></trkpt><trkpt lat="43.639462768643114" lon="11.080666281257912"><ele>242.2</ele><time>2026-03-22T10:42:49Z</time></trkpt><trkpt lat="43.63954155823083" lon="11.080614398333346"><ele>240.8</ele><time>2026-03-22T10:42:50Z</time></trkpt><trkpt lat="43.639624046806006" lon="11.080536344785893"><ele>239.4</ele><time>2026-03-22T10:42:51Z</time></trkpt><trkpt lat="43.63969296394642" lon="11.080441049501957"><ele>238.0</ele><time>2026-03-22T10:42:52Z</time></trkpt><trkpt lat="43.63974825037948" lon="11.080374420678764"><ele>238.0</ele><time>2026-03-22T10:42:53Z</time></trkpt><trkpt lat="43.63978958690478" lon="11.080308149758059"><ele>238.0</ele><time>2026-03-22T10:42:55Z</time></trkpt><trkpt lat="43.63969373319573" lon="11.080234042425753"><ele>238.0</ele><time>2026-03-22T10:42:58Z</time></trkpt><trkpt lat="43.63961320263002" lon="11.080244625818946"><ele>238.0</ele><time>2026-03-22T10:43:00Z</time></trkpt><trkpt lat="43.639475359104686" lon="11.080269198911788"><ele>238.0</ele><time>2026-03-22T10:43:02Z</time></trkpt><trkpt lat="43.63938872593441" lon="11.080290308692199"><ele>238.0</ele><time>2026-03-22T10:43:03Z</time></trkpt><trkpt lat="43.63929824001756" lon="11.08030518140291"><ele>238.0</ele><time>2026-03-22T10:43:04Z</time></trkpt><trkpt lat="43.63919670295566" lon="11.08031494381303"><ele>238.0</ele><time>2026-03-22T10:43:05Z</time></trkpt><trkpt lat="43.63909131553805" lon="11.0803420875203"><ele>238.0</ele><time>2026-03-22T10:43:06Z</time></trkpt><trkpt lat="43.63897388878645" lon="11.08035318908069"><ele>238.0</ele><time>2026-03-22T10:43:07Z</time></trkpt><trkpt lat="43.63886796506442" lon="11.080373825255482"><ele>238.0</ele><time>2026-03-22T10:43:08Z</time></trkpt><trkpt lat="43.63876743597669" lon="11.080393105852462"><ele>238.0</ele><time>2026-03-22T10:43:09Z</time></trkpt><trkpt lat="43.63866957089229" lon="11.08039081489904"><ele>238.0</ele><time>2026-03-22T10:43:10Z</time></trkpt><trkpt lat="43.63855042465712" lon="11.080399836003556"><ele>238.0</ele><time>2026-03-22T10:43:11Z</time></trkpt><trkpt lat="43.638431341551126" lon="11.08039779239574"><ele>238.0</ele><time>2026-03-22T10:43:12Z</time></trkpt><trkpt lat="43.638300940908856" lon="11.080396789702698"><ele>238.5</ele><time>2026-03-22T10:43:13Z</time></trkpt><trkpt lat="43.63817475566599" lon="11.08039041363141"><ele>239.0</ele><time>2026-03-22T10:43:14Z</time></trkpt><trkpt lat="43.63802352973362" lon="11.080415529367537"><ele>239.5</ele><time>2026-03-22T10:43:15Z</time></trkpt><trkpt lat="43.637873679677824" lon="11.08039920471245"><ele>240.0</ele><time>2026-03-22T10:43:15.998Z</time></trkpt><trkpt lat="43.637721511785095" lon="11.080365264260335"><ele>240.25</ele><time>2026-03-22T10:43:16.997Z</time></trkpt><trkpt lat="43.637579564049915" lon="11.080353493992844"><ele>240.5</ele><time>2026-03-22T10:43:17.995Z</time></trkpt><trkpt lat="43.63744197904928" lon="11.080344300066944"><ele>240.75</ele><time>2026-03-22T10:43:18.993Z</time></trkpt><trkpt lat="43.637295827917974" lon="11.080353988796366"><ele>241.0</ele><time>2026-03-22T10:43:19.992Z</time></trkpt><trkpt lat="43.637150376353866" lon="11.080346768396444"><ele>241.0</ele><time>2026-03-22T10:43:20.991Z</time></trkpt><trkpt lat="43.637008701823376" lon="11.080329191888403"><ele>241.0</ele><time>2026-03-22T10:43:21.989Z</time></trkpt><trkpt lat="43.63687750142325" lon="11.080277466356499"><ele>241.0</ele><time>2026-03-22T10:43:22.988Z</time></trkpt><trkpt lat="43.636764589824224" lon="11.080237439961333"><ele>241.0</ele><time>2026-03-22T10:43:23.987Z</time></trkpt><trkpt lat="43.636649943357924" lon="11.080180696538447"><ele>242.25</ele><time>2026-03-22T10:43:24.986Z</time></trkpt><trkpt lat="43.63654598245697" lon="11.08010266154727"><ele>243.5</ele><time>2026-03-22T10:43:25.985Z</time></trkpt><trkpt lat="43.6364335882088" lon="11.080025556608591"><ele>244.75</ele><time>2026-03-22T10:43:26.984Z</time></trkpt><trkpt lat="43.636322710697634" lon="11.079908948719236"><ele>246.0</ele><time>2026-03-22T10:43:27.983Z</time></trkpt><trkpt lat="43.63621038470437" lon="11.079812273685821"><ele>246.25</ele><time>2026-03-22T10:43:28.982Z</time></trkpt><trkpt lat="43.636105297501004" lon="11.079719132418418"><ele>246.5</ele><time>2026-03-22T10:43:29.981Z</time></trkpt><trkpt lat="43.636015131733636" lon="11.079633411166688"><ele>246.75</ele><time>2026-03-22T10:43:30.981Z</time></trkpt><trkpt lat="43.63592959702422" lon="11.079522285943089"><ele>247.0</ele><time>2026-03-22T10:43:31.98Z</time></trkpt><trkpt lat="43.63585249581722" lon="11.079407001797076"><ele>247.0</ele><time>2026-03-22T10:43:32.979Z</time></trkpt><trkpt lat="43.635767810900454" lon="11.079286853233125"><ele>247.0</ele><time>2026-03-22T10:43:33.979Z</time></trkpt><trkpt lat="43.63567843397762" lon="11.079171656038337"><ele>247.0</ele><time>2026-03-22T10:43:34.978Z</time></trkpt><trkpt lat="43.63558686417477" lon="11.07905666932454"><ele>247.0</ele><time>2026-03-22T10:43:35.978Z</time></trkpt><trkpt lat="43.63550968722224" lon="11.078941044785683"><ele>246.39999999999998</ele><time>2026-03-22T10:43:36.977Z</time></trkpt><trkpt lat="43.6354499846676" lon="11.078822914725933"><ele>245.79999999999998</ele><time>2026-03-22T10:43:37.977Z</time></trkpt><trkpt lat="43.635398705661245" lon="11.078700716642052"><ele>245.2</ele><time>2026-03-22T10:43:38.976Z</time></trkpt><trkpt lat="43.635359836128224" lon="11.07857704351909"><ele>244.6</ele><time>2026-03-22T10:43:39.976Z</time></trkpt><trkpt lat="43.63533233302645" lon="11.078443688210758"><ele>244.0</ele><time>2026-03-22T10:43:40.975Z</time></trkpt><trkpt lat="43.635293203803265" lon="11.078309339818693"><ele>241.75</ele><time>2026-03-22T10:43:41.975Z</time></trkpt><trkpt lat="43.63524695030236" lon="11.078164589305922"><ele>239.5</ele><time>2026-03-22T10:43:42.975Z</time></trkpt><trkpt lat="43.635190496733394" lon="11.078011572577028"><ele>237.25</ele><time>2026-03-22T10:43:43.974Z</time></trkpt><trkpt lat="43.635126629479" lon="11.07785569691625"><ele>235.0</ele><time>2026-03-22T10:43:44.974Z</time></trkpt><trkpt lat="43.63506055295531" lon="11.077697691877983"><ele>235.0</ele><time>2026-03-22T10:43:45.974Z</time></trkpt><trkpt lat="43.63500544423962" lon="11.077539290746266"><ele>235.0</ele><time>2026-03-22T10:43:46.973Z</time></trkpt><trkpt lat="43.63493562260579" lon="11.0773951058599"><ele>235.0</ele><time>2026-03-22T10:43:47.973Z</time></trkpt><trkpt lat="43.63485668542025" lon="11.077265590798206"><ele>235.0</ele><time>2026-03-22T10:43:48.973Z</time></trkpt><trkpt lat="43.63476699002886" lon="11.07713981935475"><ele>233.5</ele><time>2026-03-22T10:43:49.973Z</time></trkpt><trkpt lat="43.6346751479697" lon="11.077034224754973"><ele>232.0</ele><time>2026-03-22T10:43:50.972Z</time></trkpt><trkpt lat="43.63457679273959" lon="11.076930037952343"><ele>230.5</ele><time>2026-03-22T10:43:51.972Z</time></trkpt><trkpt lat="43.63448731103787" lon="11.076822653140516"><ele>229.0</ele><time>2026-03-22T10:43:52.972Z</time></trkpt><trkpt lat="43.634390042468" lon="11.076703040972284"><ele>228.0</ele><time>2026-03-22T10:43:53.972Z</time></trkpt><trkpt lat="43.63429090533095" lon="11.076600444343425"><ele>227.0</ele><time>2026-03-22T10:43:54.972Z</time></trkpt><trkpt lat="43.63420951466188" lon="11.0764944670036"><ele>226.0</ele><time>2026-03-22T10:43:55.971Z</time></trkpt><trkpt lat="43.63412339939332" lon="11.07640135565127"><ele>225.0</ele><time>2026-03-22T10:43:56.971Z</time></trkpt><trkpt lat="43.634043888301456" lon="11.076306153305389"><ele>225.0</ele><time>2026-03-22T10:43:57.971Z</time></trkpt><trkpt lat="43.63395951014377" lon="11.076222981451185"><ele>225.0</ele><time>2026-03-22T10:43:58.971Z</time></trkpt><trkpt lat="43.63388253026386" lon="11.07613274093147"><ele>225.0</ele><time>2026-03-22T10:43:59.971Z</time></trkpt><trkpt lat="43.633803360755685" lon="11.076045051249759"><ele>225.0</ele><time>2026-03-22T10:44:00.971Z</time></trkpt><trkpt lat="43.63371937423866" lon="11.075951404821394"><ele>225.0</ele><time>2026-03-22T10:44:01.971Z</time></trkpt><trkpt lat="43.6336322444652" lon="11.0758495601998"><ele>226.25</ele><time>2026-03-22T10:44:02.971Z</time></trkpt><trkpt lat="43.63354715900573" lon="11.0757477947275"><ele>227.5</ele><time>2026-03-22T10:44:03.97Z</time></trkpt><trkpt lat="43.63345219985686" lon="11.07563533062196"><ele>228.75</ele><time>2026-03-22T10:44:04.97Z</time></trkpt><trkpt lat="43.63335188822948" lon="11.075529925800552"><ele>230.0</ele><time>2026-03-22T10:44:05.97Z</time></trkpt><trkpt lat="43.633248240762285" lon="11.075421539635942"><ele>230.0</ele><time>2026-03-22T10:44:06.97Z</time></trkpt><trkpt lat="43.633144918962905" lon="11.075313288860906"><ele>230.0</ele><time>2026-03-22T10:44:07.97Z</time></trkpt><trkpt lat="43.633055356083375" lon="11.075207133610053"><ele>230.0</ele><time>2026-03-22T10:44:08.97Z</time></trkpt><trkpt lat="43.6329738097075" lon="11.075107073947983"><ele>230.0</ele><time>2026-03-22T10:44:09.97Z</time></trkpt><trkpt lat="43.632901880640986" lon="11.075015808553896"><ele>230.16666666666669</ele><time>2026-03-22T10:44:10.972Z</time></trkpt><trkpt lat="43.63283363895109" lon="11.074927105263507"><ele>230.33333333333334</ele><time>2026-03-22T10:44:11.972Z</time></trkpt><trkpt lat="43.63277161382605" lon="11.074851134140243"><ele>230.5</ele><time>2026-03-22T10:44:12.972Z</time></trkpt><trkpt lat="43.632713889718296" lon="11.074785256055215"><ele>230.66666666666669</ele><time>2026-03-22T10:44:13.971Z</time></trkpt><trkpt lat="43.63266209184492" lon="11.074721934020848"><ele>230.83333333333334</ele><time>2026-03-22T10:44:14.971Z</time></trkpt><trkpt lat="43.63257946904737" lon="11.074612697456326"><ele>231.0</ele><time>2026-03-22T10:44:16.972Z</time></trkpt><trkpt lat="43.632491879453255" lon="11.07451461990827"><ele>231.0</ele><time>2026-03-22T10:44:18.971Z</time></trkpt><trkpt lat="43.63239361728026" lon="11.074428939813311"><ele>231.00000000000003</ele><time>2026-03-22T10:44:20.971Z</time></trkpt><trkpt lat="43.632336447965" lon="11.074335039929554"><ele>231.00000000000003</ele><time>2026-03-22T10:44:21.971Z</time></trkpt><trkpt lat="43.632246289933136" lon="11.074280981041365"><ele>231.0</ele><time>2026-03-22T10:44:22.971Z</time></trkpt><trkpt lat="43.63216230015097" lon="11.074175315974433"><ele>231.0</ele><time>2026-03-22T10:44:23.971Z</time></trkpt><trkpt lat="43.632066751024055" lon="11.07404898423204"><ele>232.5</ele><time>2026-03-22T10:44:24.971Z</time></trkpt><trkpt lat="43.63197341511711" lon="11.07391873134348"><ele>234.0</ele><time>2026-03-22T10:44:25.971Z</time></trkpt><trkpt lat="43.63186633016178" lon="11.073782139021766"><ele>235.5</ele><time>2026-03-22T10:44:26.971Z</time></trkpt><trkpt lat="43.63176557237731" lon="11.07364647979661"><ele>237.0</ele><time>2026-03-22T10:44:27.971Z</time></trkpt><trkpt lat="43.63164595302676" lon="11.073502233460248"><ele>237.0</ele><time>2026-03-22T10:44:28.971Z</time></trkpt><trkpt lat="43.631539920463695" lon="11.073366948083036"><ele>237.0</ele><time>2026-03-22T10:44:29.971Z</time></trkpt><trkpt lat="43.631444006420764" lon="11.07323177431182"><ele>237.0</ele><time>2026-03-22T10:44:30.971Z</time></trkpt><trkpt lat="43.631356593178126" lon="11.073105228202865"><ele>237.0</ele><time>2026-03-22T10:44:31.971Z</time></trkpt><trkpt lat="43.631273902696314" lon="11.072986769864098"><ele>237.2</ele><time>2026-03-22T10:44:32.971Z</time></trkpt><trkpt lat="43.63122177145054" lon="11.072878608331377"><ele>237.39999999999998</ele><time>2026-03-22T10:44:33.971Z</time></trkpt><trkpt lat="43.63118430325345" lon="11.072786792252161"><ele>237.60000000000002</ele><time>2026-03-22T10:44:34.971Z</time></trkpt><trkpt lat="43.63114170569874" lon="11.072669370810088"><ele>237.8</ele><time>2026-03-22T10:44:36.97Z</time></trkpt><trkpt lat="43.63104186418273" lon="11.072670024289195"><ele>238.0</ele><time>2026-03-22T10:44:37.97Z</time></trkpt><trkpt lat="43.63091215291784" lon="11.072616799121837"><ele>238.0</ele><time>2026-03-22T10:44:39.97Z</time></trkpt><trkpt lat="43.630825118592156" lon="11.07261259596713"><ele>238.0</ele><time>2026-03-22T10:44:40.97Z</time></trkpt><trkpt lat="43.63074433577759" lon="11.072620804645537"><ele>238.0</ele><time>2026-03-22T10:44:41.97Z</time></trkpt><trkpt lat="43.63065022455985" lon="11.07265268925355"><ele>238.0</ele><time>2026-03-22T10:44:42.97Z</time></trkpt><trkpt lat="43.630560802653484" lon="11.072668567775423"><ele>238.0</ele><time>2026-03-22T10:44:43.97Z</time></trkpt><trkpt lat="43.630463110090716" lon="11.072730806618267"><ele>238.0</ele><time>2026-03-22T10:44:44.97Z</time></trkpt><trkpt lat="43.63036049391716" lon="11.072754991478504"><ele>238.0</ele><time>2026-03-22T10:44:45.97Z</time></trkpt><trkpt lat="43.63025096780291" lon="11.072756890567266"><ele>238.0</ele><time>2026-03-22T10:44:46.97Z</time></trkpt><trkpt lat="43.63015131424578" lon="11.072755257732895"><ele>238.0</ele><time>2026-03-22T10:44:47.97Z</time></trkpt><trkpt lat="43.63005751538547" lon="11.072755564969409"><ele>238.0</ele><time>2026-03-22T10:44:48.97Z</time></trkpt><trkpt lat="43.62997909334747" lon="11.072789099860847"><ele>237.8</ele><time>2026-03-22T10:44:49.97Z</time></trkpt><trkpt lat="43.62990759559363" lon="11.07285167581563"><ele>237.60000000000002</ele><time>2026-03-22T10:44:50.97Z</time></trkpt><trkpt lat="43.629844239287735" lon="11.0729487336249"><ele>237.39999999999998</ele><time>2026-03-22T10:44:51.97Z</time></trkpt><trkpt lat="43.6297753410525" lon="11.073088466600993"><ele>237.2</ele><time>2026-03-22T10:44:52.97Z</time></trkpt><trkpt lat="43.629694515208115" lon="11.073223196399425"><ele>237.0</ele><time>2026-03-22T10:44:53.97Z</time></trkpt><trkpt lat="43.629606602429455" lon="11.073348726062726"><ele>237.0</ele><time>2026-03-22T10:44:54.97Z</time></trkpt><trkpt lat="43.62953591058179" lon="11.073476002650882"><ele>237.0</ele><time>2026-03-22T10:44:55.97Z</time></trkpt><trkpt lat="43.62947389414412" lon="11.073613257343679"><ele>237.0</ele><time>2026-03-22T10:44:56.97Z</time></trkpt><trkpt lat="43.62942203078842" lon="11.073734842213385"><ele>237.0</ele><time>2026-03-22T10:44:57.97Z</time></trkpt><trkpt lat="43.6293685618394" lon="11.073851795708935"><ele>237.0</ele><time>2026-03-22T10:44:58.97Z</time></trkpt><trkpt lat="43.62931326007889" lon="11.073938578734648"><ele>234.8</ele><time>2026-03-22T10:44:59.97Z</time></trkpt><trkpt lat="43.62924673355951" lon="11.074022541898133"><ele>232.6</ele><time>2026-03-22T10:45:00.97Z</time></trkpt><trkpt lat="43.62916202780998" lon="11.074115336837588"><ele>230.40000000000003</ele><time>2026-03-22T10:45:01.97Z</time></trkpt><trkpt lat="43.62905224763576" lon="11.07415083986354"><ele>228.20000000000002</ele><time>2026-03-22T10:45:02.97Z</time></trkpt><trkpt lat="43.62895501048445" lon="11.07421634849211"><ele>226.0</ele><time>2026-03-22T10:45:03.97Z</time></trkpt><trkpt lat="43.62887440408097" lon="11.074265241367575"><ele>226.0</ele><time>2026-03-22T10:45:04.97Z</time></trkpt><trkpt lat="43.62880491719705" lon="11.074310503705439"><ele>226.00000000000003</ele><time>2026-03-22T10:45:05.97Z</time></trkpt><trkpt lat="43.62872508379724" lon="11.074381464208807"><ele>226.00000000000003</ele><time>2026-03-22T10:45:06.97Z</time></trkpt><trkpt lat="43.62865492041261" lon="11.07448222841765"><ele>226.0</ele><time>2026-03-22T10:45:07.97Z</time></trkpt><trkpt lat="43.62859747256964" lon="11.07461600357602"><ele>226.0</ele><time>2026-03-22T10:45:08.97Z</time></trkpt><trkpt lat="43.62853289163693" lon="11.074751935918153"><ele>223.75</ele><time>2026-03-22T10:45:09.969Z</time></trkpt><trkpt lat="43.62846659592524" lon="11.074899718153954"><ele>221.5</ele><time>2026-03-22T10:45:10.969Z</time></trkpt><trkpt lat="43.62840390626432" lon="11.075041746576105"><ele>219.25</ele><time>2026-03-22T10:45:11.969Z</time></trkpt><trkpt lat="43.62834211562868" lon="11.075175323769551"><ele>217.0</ele><time>2026-03-22T10:45:12.969Z</time></trkpt><trkpt lat="43.6282755008702" lon="11.075322804080328"><ele>216.0</ele><time>2026-03-22T10:45:13.969Z</time></trkpt><trkpt lat="43.62822581124423" lon="11.075476548922254"><ele>215.0</ele><time>2026-03-22T10:45:14.969Z</time></trkpt><trkpt lat="43.628172443295384" lon="11.075624794635983"><ele>214.0</ele><time>2026-03-22T10:45:15.969Z</time></trkpt><trkpt lat="43.62813033313643" lon="11.07577286548945"><ele>213.0</ele><time>2026-03-22T10:45:16.969Z</time></trkpt><trkpt lat="43.62809861485508" lon="11.07590901072059"><ele>211.60000000000002</ele><time>2026-03-22T10:45:17.969Z</time></trkpt><trkpt lat="43.62808520590259" lon="11.076033107865056"><ele>210.20000000000002</ele><time>2026-03-22T10:45:18.969Z</time></trkpt><trkpt lat="43.62808315968284" lon="11.076150595246345"><ele>208.8</ele><time>2026-03-22T10:45:19.969Z</time></trkpt><trkpt lat="43.628070391512075" lon="11.076275910261183"><ele>207.4</ele><time>2026-03-22T10:45:20.969Z</time></trkpt><trkpt lat="43.628086091728704" lon="11.076395912258244"><ele>206.0</ele><time>2026-03-22T10:45:21.969Z</time></trkpt><trkpt lat="43.62812876631222" lon="11.076524878490307"><ele>204.60000000000002</ele><time>2026-03-22T10:45:22.969Z</time></trkpt><trkpt lat="43.62815259985264" lon="11.076659901858825"><ele>203.2</ele><time>2026-03-22T10:45:23.969Z</time></trkpt><trkpt lat="43.628166893831576" lon="11.076810125684009"><ele>201.8</ele><time>2026-03-22T10:45:24.969Z</time></trkpt><trkpt lat="43.62819533757084" lon="11.076939032616426"><ele>200.39999999999998</ele><time>2026-03-22T10:45:25.969Z</time></trkpt><trkpt lat="43.62822316163029" lon="11.077079048761739"><ele>199.0</ele><time>2026-03-22T10:45:26.969Z</time></trkpt><trkpt lat="43.628251579440736" lon="11.07722788453055"><ele>199.0</ele><time>2026-03-22T10:45:27.969Z</time></trkpt><trkpt lat="43.62828804525863" lon="11.077375548169414"><ele>199.0</ele><time>2026-03-22T10:45:28.969Z</time></trkpt><trkpt lat="43.62832208390977" lon="11.077530141251898"><ele>199.0</ele><time>2026-03-22T10:45:29.969Z</time></trkpt><trkpt lat="43.62835015734411" lon="11.07765822815813"><ele>199.0</ele><time>2026-03-22T10:45:30.969Z</time></trkpt><trkpt lat="43.628351377135346" lon="11.077761916982803"><ele>199.0</ele><time>2026-03-22T10:45:31.969Z</time></trkpt><trkpt lat="43.6283351631853" lon="11.077860524021133"><ele>197.2</ele><time>2026-03-22T10:45:32.969Z</time></trkpt><trkpt lat="43.62830547194522" lon="11.077966069028166"><ele>195.39999999999998</ele><time>2026-03-22T10:45:33.969Z</time></trkpt><trkpt lat="43.62823510803158" lon="11.078057514869878"><ele>193.6</ele><time>2026-03-22T10:45:34.969Z</time></trkpt><trkpt lat="43.62818006286672" lon="11.078203559020638"><ele>191.8</ele><time>2026-03-22T10:45:35.969Z</time></trkpt><trkpt lat="43.62811631351587" lon="11.07830762706278"><ele>190.0</ele><time>2026-03-22T10:45:36.969Z</time></trkpt><trkpt lat="43.62805558390389" lon="11.078413380904216"><ele>187.6</ele><time>2026-03-22T10:45:37.969Z</time></trkpt><trkpt lat="43.62797747616589" lon="11.07849777828949"><ele>185.2</ele><time>2026-03-22T10:45:38.969Z</time></trkpt><trkpt lat="43.627915961613546" lon="11.078583824062303"><ele>182.8</ele><time>2026-03-22T10:45:39.969Z</time></trkpt><trkpt lat="43.62787027215022" lon="11.078666001222302"><ele>180.4</ele><time>2026-03-22T10:45:40.969Z</time></trkpt><trkpt lat="43.627816518016644" lon="11.078723052167298"><ele>178.0</ele><time>2026-03-22T10:45:41.969Z</time></trkpt><trkpt lat="43.627699898750855" lon="11.07877644503536"><ele>177.4</ele><time>2026-03-22T10:45:43.969Z</time></trkpt><trkpt lat="43.62760478921682" lon="11.078728246366989"><ele>176.8</ele><time>2026-03-22T10:45:44.969Z</time></trkpt><trkpt lat="43.62750537037462" lon="11.078639664852693"><ele>176.2</ele><time>2026-03-22T10:45:45.969Z</time></trkpt><trkpt lat="43.62741857670298" lon="11.078544382669413"><ele>175.6</ele><time>2026-03-22T10:45:46.969Z</time></trkpt><trkpt lat="43.62733923023826" lon="11.07844267745306"><ele>175.0</ele><time>2026-03-22T10:45:47.969Z</time></trkpt><trkpt lat="43.6272709275531" lon="11.078347353563604"><ele>175.0</ele><time>2026-03-22T10:45:48.968Z</time></trkpt><trkpt lat="43.627220954636854" lon="11.07827334608397"><ele>175.0</ele><time>2026-03-22T10:45:49.968Z</time></trkpt><trkpt lat="43.627165077732116" lon="11.07822618978339"><ele>175.0</ele><time>2026-03-22T10:45:51.968Z</time></trkpt><trkpt lat="43.62714467035855" lon="11.078325225964331"><ele>175.0</ele><time>2026-03-22T10:45:53.968Z</time></trkpt><trkpt lat="43.627171890050484" lon="11.078445522385582"><ele>175.0</ele><time>2026-03-22T10:45:55.968Z</time></trkpt><trkpt lat="43.62723098377993" lon="11.07856782883847"><ele>175.0</ele><time>2026-03-22T10:45:57.968Z</time></trkpt><trkpt lat="43.62728803678492" lon="11.078700829393629"><ele>175.0</ele><time>2026-03-22T10:45:59.968Z</time></trkpt><trkpt lat="43.62731162839011" lon="11.078799106904864"><ele>175.0</ele><time>2026-03-22T10:46:01.968Z</time></trkpt><trkpt lat="43.62730204712503" lon="11.078894401295152"><ele>175.0</ele><time>2026-03-22T10:46:03.968Z</time></trkpt><trkpt lat="43.627193158586984" lon="11.078974374189562"><ele>175.0</ele><time>2026-03-22T10:46:05.968Z</time></trkpt><trkpt lat="43.627131853622494" lon="11.07895032038864"><ele>175.0</ele><time>2026-03-22T10:46:06.968Z</time></trkpt><trkpt lat="43.62705997061973" lon="11.078910830053495"><ele>175.0</ele><time>2026-03-22T10:46:07.968Z</time></trkpt><trkpt lat="43.6269791257007" lon="11.078874669622433"><ele>171.33333333333334</ele><time>2026-03-22T10:46:08.968Z</time></trkpt><trkpt lat="43.626907014287845" lon="11.07885383335624"><ele>167.66666666666669</ele><time>2026-03-22T10:46:09.968Z</time></trkpt><trkpt lat="43.62682710024589" lon="11.078810587461847"><ele>164.0</ele><time>2026-03-22T10:46:10.968Z</time></trkpt><trkpt lat="43.62674508085898" lon="11.078779202834934"><ele>160.33333333333334</ele><time>2026-03-22T10:46:11.968Z</time></trkpt><trkpt lat="43.62666147750042" lon="11.0787326011497"><ele>156.66666666666666</ele><time>2026-03-22T10:46:12.968Z</time></trkpt><trkpt lat="43.62659294967437" lon="11.078693842725052"><ele>153.0</ele><time>2026-03-22T10:46:13.968Z</time></trkpt><trkpt lat="43.62647647384289" lon="11.07873413913182"><ele>153.0</ele><time>2026-03-22T10:46:15.968Z</time></trkpt><trkpt lat="43.62644332052207" lon="11.078809317713105"><ele>153.0</ele><time>2026-03-22T10:46:16.971Z</time></trkpt><trkpt lat="43.62644111467197" lon="11.078906280160291"><ele>153.0</ele><time>2026-03-22T10:46:17.97Z</time></trkpt><trkpt lat="43.62645595510926" lon="11.079005149437442"><ele>153.0</ele><time>2026-03-22T10:46:18.97Z</time></trkpt><trkpt lat="43.626473203860286" lon="11.07911181381756"><ele>153.0</ele><time>2026-03-22T10:46:19.97Z</time></trkpt><trkpt lat="43.626473504048114" lon="11.079246676603574"><ele>153.0</ele><time>2026-03-22T10:46:20.97Z</time></trkpt><trkpt lat="43.62646042014472" lon="11.079368136755335"><ele>151.0</ele><time>2026-03-22T10:46:21.97Z</time></trkpt><trkpt lat="43.626433959005695" lon="11.079476723548106"><ele>149.0</ele><time>2026-03-22T10:46:22.97Z</time></trkpt><trkpt lat="43.626393475564555" lon="11.079594629766314"><ele>147.0</ele><time>2026-03-22T10:46:23.97Z</time></trkpt><trkpt lat="43.62634567656706" lon="11.079700382346916"><ele>145.0</ele><time>2026-03-22T10:46:24.97Z</time></trkpt><trkpt lat="43.62631554542744" lon="11.079798648362345"><ele>143.0</ele><time>2026-03-22T10:46:25.97Z</time></trkpt><trkpt lat="43.62627622790699" lon="11.079898224164326"><ele>141.0</ele><time>2026-03-22T10:46:26.97Z</time></trkpt><trkpt lat="43.626226163591625" lon="11.07999635927637"><ele>139.0</ele><time>2026-03-22T10:46:27.97Z</time></trkpt><trkpt lat="43.62615447087043" lon="11.080082426315816"><ele>137.0</ele><time>2026-03-22T10:46:28.971Z</time></trkpt><trkpt lat="43.62606099498979" lon="11.080128115058091"><ele>135.0</ele><time>2026-03-22T10:46:29.97Z</time></trkpt><trkpt lat="43.62596425857767" lon="11.080145766230324"><ele>133.0</ele><time>2026-03-22T10:46:30.97Z</time></trkpt><trkpt lat="43.62584737867681" lon="11.080123860983376"><ele>131.0</ele><time>2026-03-22T10:46:31.97Z</time></trkpt><trkpt lat="43.62574627529923" lon="11.080094978308908"><ele>129.66666666666666</ele><time>2026-03-22T10:46:32.97Z</time></trkpt><trkpt lat="43.62565657894169" lon="11.08007737136712"><ele>128.33333333333331</ele><time>2026-03-22T10:46:33.97Z</time></trkpt><trkpt lat="43.625586379011885" lon="11.080057423468626"><ele>127.0</ele><time>2026-03-22T10:46:34.97Z</time></trkpt><trkpt lat="43.625519832951184" lon="11.080028759344366"><ele>125.66666666666666</ele><time>2026-03-22T10:46:35.97Z</time></trkpt><trkpt lat="43.62544901622992" lon="11.080001582491343"><ele>124.33333333333333</ele><time>2026-03-22T10:46:36.97Z</time></trkpt><trkpt lat="43.62536934808024" lon="11.07997171823658"><ele>123.0</ele><time>2026-03-22T10:46:37.97Z</time></trkpt><trkpt lat="43.625300681048536" lon="11.079947352349162"><ele>122.60000000000001</ele><time>2026-03-22T10:46:38.97Z</time></trkpt><trkpt lat="43.62521340456933" lon="11.079975858035098"><ele>122.20000000000002</ele><time>2026-03-22T10:46:39.97Z</time></trkpt><trkpt lat="43.625121198226246" lon="11.080044673156364"><ele>121.8</ele><time>2026-03-22T10:46:40.97Z</time></trkpt><trkpt lat="43.62503581966908" lon="11.080152356845892"><ele>121.4</ele><time>2026-03-22T10:46:41.97Z</time></trkpt><trkpt lat="43.6249432424191" lon="11.080274814409014"><ele>121.0</ele><time>2026-03-22T10:46:42.97Z</time></trkpt><trkpt lat="43.62484802858322" lon="11.080406405181698"><ele>121.0</ele><time>2026-03-22T10:46:43.97Z</time></trkpt><trkpt lat="43.62475599069317" lon="11.080492083600836"><ele>121.0</ele><time>2026-03-22T10:46:44.97Z</time></trkpt><trkpt lat="43.62463773488058" lon="11.080529900340458"><ele>121.0</ele><time>2026-03-22T10:46:45.97Z</time></trkpt><trkpt lat="43.62449700244753" lon="11.08054833937481"><ele>121.0</ele><time>2026-03-22T10:46:46.97Z</time></trkpt><trkpt lat="43.624318561172295" lon="11.080559727790506"><ele>123.25</ele><time>2026-03-22T10:46:47.97Z</time></trkpt><trkpt lat="43.62417543494669" lon="11.080575261619211"><ele>125.5</ele><time>2026-03-22T10:46:48.97Z</time></trkpt><trkpt lat="43.62405135633956" lon="11.080592384111567"><ele>127.75</ele><time>2026-03-22T10:46:49.97Z</time></trkpt><trkpt lat="43.62393416492439" lon="11.080590612013063"><ele>130.0</ele><time>2026-03-22T10:46:50.969Z</time></trkpt><trkpt lat="43.62380236363209" lon="11.080593592531994"><ele>130.0</ele><time>2026-03-22T10:46:51.969Z</time></trkpt><trkpt lat="43.62369074051536" lon="11.08058059583787"><ele>130.0</ele><time>2026-03-22T10:46:52.969Z</time></trkpt><trkpt lat="43.62360578622946" lon="11.08058134446046"><ele>130.0</ele><time>2026-03-22T10:46:53.969Z</time></trkpt><trkpt lat="43.62351876285359" lon="11.080614950522678"><ele>130.0</ele><time>2026-03-22T10:46:54.969Z</time></trkpt><trkpt lat="43.623444523102165" lon="11.080674004077883"><ele>130.0</ele><time>2026-03-22T10:46:55.969Z</time></trkpt><trkpt lat="43.623429370617615" lon="11.080822987279836"><ele>132.8</ele><time>2026-03-22T10:46:56.969Z</time></trkpt><trkpt lat="43.623388188972754" lon="11.080933217894652"><ele>135.6</ele><time>2026-03-22T10:46:57.969Z</time></trkpt><trkpt lat="43.6233417904108" lon="11.081058612225407"><ele>138.4</ele><time>2026-03-22T10:46:58.969Z</time></trkpt><trkpt lat="43.62328933880937" lon="11.081196718903751"><ele>141.2</ele><time>2026-03-22T10:46:59.969Z</time></trkpt><trkpt lat="43.62323303462936" lon="11.081344969903418"><ele>144.0</ele><time>2026-03-22T10:47:00.969Z</time></trkpt><trkpt lat="43.623173669451965" lon="11.08150422183713"><ele>146.0</ele><time>2026-03-22T10:47:01.969Z</time></trkpt><trkpt lat="43.623114953905706" lon="11.08166287360006"><ele>148.0</ele><time>2026-03-22T10:47:02.969Z</time></trkpt><trkpt lat="43.62305254370836" lon="11.081812037981795"><ele>150.0</ele><time>2026-03-22T10:47:03.969Z</time></trkpt><trkpt lat="43.622997627633254" lon="11.081933792721705"><ele>152.0</ele><time>2026-03-22T10:47:04.969Z</time></trkpt><trkpt lat="43.62290777262605" lon="11.082000227209042"><ele>152.0</ele><time>2026-03-22T10:47:05.969Z</time></trkpt><trkpt lat="43.622824547153996" lon="11.08209294280765"><ele>152.0</ele><time>2026-03-22T10:47:06.969Z</time></trkpt><trkpt lat="43.622726126790546" lon="11.08216667144329"><ele>152.0</ele><time>2026-03-22T10:47:07.969Z</time></trkpt><trkpt lat="43.62261224622297" lon="11.08224883062988"><ele>152.0</ele><time>2026-03-22T10:47:08.969Z</time></trkpt><trkpt lat="43.622494083683144" lon="11.08233830374611"><ele>153.66666666666666</ele><time>2026-03-22T10:47:09.969Z</time></trkpt><trkpt lat="43.622366678690376" lon="11.082427402937363"><ele>155.33333333333334</ele><time>2026-03-22T10:47:10.969Z</time></trkpt><trkpt lat="43.62223514485363" lon="11.082522798261913"><ele>157.0</ele><time>2026-03-22T10:47:11.969Z</time></trkpt><trkpt lat="43.62209036568901" lon="11.082636331691052"><ele>160.0</ele><time>2026-03-22T10:47:12.969Z</time></trkpt><trkpt lat="43.62194662175144" lon="11.08276112049767"><ele>163.0</ele><time>2026-03-22T10:47:13.969Z</time></trkpt><trkpt lat="43.62179692534674" lon="11.082889378525616"><ele>166.0</ele><time>2026-03-22T10:47:14.969Z</time></trkpt><trkpt lat="43.62165689222722" lon="11.08300695718092"><ele>166.0</ele><time>2026-03-22T10:47:15.969Z</time></trkpt><trkpt lat="43.62151467207724" lon="11.08311489792385"><ele>166.0</ele><time>2026-03-22T10:47:16.969Z</time></trkpt><trkpt lat="43.621367001613415" lon="11.083236180615382"><ele>166.0</ele><time>2026-03-22T10:47:17.969Z</time></trkpt><trkpt lat="43.62122305553747" lon="11.083343171878763"><ele>171.0</ele><time>2026-03-22T10:47:18.969Z</time></trkpt><trkpt lat="43.62108632355594" lon="11.083461836016593"><ele>176.0</ele><time>2026-03-22T10:47:19.969Z</time></trkpt><trkpt lat="43.62095400725252" lon="11.08356293457518"><ele>181.0</ele><time>2026-03-22T10:47:20.969Z</time></trkpt><trkpt lat="43.620806135458686" lon="11.083680012342791"><ele>181.0</ele><time>2026-03-22T10:47:21.969Z</time></trkpt><trkpt lat="43.620665582506845" lon="11.083796865088111"><ele>181.0</ele><time>2026-03-22T10:47:22.969Z</time></trkpt><trkpt lat="43.6205498861291" lon="11.083894505726233"><ele>181.0</ele><time>2026-03-22T10:47:23.969Z</time></trkpt><trkpt lat="43.620452050434245" lon="11.083956867546547"><ele>181.0</ele><time>2026-03-22T10:47:24.969Z</time></trkpt><trkpt lat="43.62036913665638" lon="11.084019049877265"><ele>185.25</ele><time>2026-03-22T10:47:25.969Z</time></trkpt><trkpt lat="43.62028074241192" lon="11.084098537009853"><ele>189.5</ele><time>2026-03-22T10:47:26.969Z</time></trkpt><trkpt lat="43.620173756323666" lon="11.084183946947908"><ele>193.75</ele><time>2026-03-22T10:47:27.969Z</time></trkpt><trkpt lat="43.62007228443092" lon="11.084269571180158"><ele>198.0</ele><time>2026-03-22T10:47:28.969Z</time></trkpt><trkpt lat="43.61994339175271" lon="11.084367385512143"><ele>198.0</ele><time>2026-03-22T10:47:29.968Z</time></trkpt><trkpt lat="43.619814781990556" lon="11.08447531415522"><ele>198.0</ele><time>2026-03-22T10:47:30.968Z</time></trkpt><trkpt lat="43.61969116274103" lon="11.084567136258746"><ele>198.0</ele><time>2026-03-22T10:47:31.968Z</time></trkpt><trkpt lat="43.61957275880274" lon="11.084660315828646"><ele>198.0</ele><time>2026-03-22T10:47:32.968Z</time></trkpt><trkpt lat="43.6194652585792" lon="11.084726382956946"><ele>199.2</ele><time>2026-03-22T10:47:33.968Z</time></trkpt><trkpt lat="43.619387705041234" lon="11.08478921173934"><ele>200.4</ele><time>2026-03-22T10:47:34.968Z</time></trkpt><trkpt lat="43.61930564034697" lon="11.084820349769773"><ele>201.6</ele><time>2026-03-22T10:47:35.968Z</time></trkpt><trkpt lat="43.61921782061515" lon="11.084844124080346"><ele>202.79999999999998</ele><time>2026-03-22T10:47:36.968Z</time></trkpt><trkpt lat="43.61911996901921" lon="11.084856353052377"><ele>204.0</ele><time>2026-03-22T10:47:37.968Z</time></trkpt><trkpt lat="43.619037189178606" lon="11.084917229726887"><ele>206.0</ele><time>2026-03-22T10:47:38.968Z</time></trkpt><trkpt lat="43.6189615498693" lon="11.085013260129198"><ele>208.0</ele><time>2026-03-22T10:47:39.968Z</time></trkpt><trkpt lat="43.6188928114757" lon="11.085147353887175"><ele>210.0</ele><time>2026-03-22T10:47:40.968Z</time></trkpt><trkpt lat="43.61882813000775" lon="11.085281405057339"><ele>212.0</ele><time>2026-03-22T10:47:41.968Z</time></trkpt><trkpt lat="43.61874130420368" lon="11.085418659832438"><ele>212.0</ele><time>2026-03-22T10:47:42.968Z</time></trkpt><trkpt lat="43.61867280716481" lon="11.085577438826496"><ele>212.0</ele><time>2026-03-22T10:47:43.968Z</time></trkpt><trkpt lat="43.61861194506733" lon="11.085752924241024"><ele>212.0</ele><time>2026-03-22T10:47:44.968Z</time></trkpt><trkpt lat="43.618549338865286" lon="11.08593654565976"><ele>212.0</ele><time>2026-03-22T10:47:45.968Z</time></trkpt><trkpt lat="43.6184964647318" lon="11.086141225138578"><ele>216.39999999999998</ele><time>2026-03-22T10:47:46.968Z</time></trkpt><trkpt lat="43.61843761222028" lon="11.086322781139081"><ele>220.79999999999998</ele><time>2026-03-22T10:47:47.968Z</time></trkpt><trkpt lat="43.61839561810127" lon="11.086485753808999"><ele>225.2</ele><time>2026-03-22T10:47:48.968Z</time></trkpt><trkpt lat="43.61835780386919" lon="11.086612596539572"><ele>229.6</ele><time>2026-03-22T10:47:49.968Z</time></trkpt><trkpt lat="43.618319190703666" lon="11.086699951254557"><ele>234.0</ele><time>2026-03-22T10:47:50.968Z</time></trkpt><trkpt lat="43.618231446522394" lon="11.086731799397866"><ele>234.0</ele><time>2026-03-22T10:47:52.968Z</time></trkpt><trkpt lat="43.61816287984713" lon="11.08659622967158"><ele>234.0</ele><time>2026-03-22T10:47:54.968Z</time></trkpt><trkpt lat="43.61814954220906" lon="11.086509225742828"><ele>234.0</ele><time>2026-03-22T10:47:55.968Z</time></trkpt><trkpt lat="43.618165424254194" lon="11.08640122252031"><ele>234.0</ele><time>2026-03-22T10:47:56.968Z</time></trkpt><trkpt lat="43.618189054258615" lon="11.086292273167228"><ele>234.0</ele><time>2026-03-22T10:47:57.968Z</time></trkpt><trkpt lat="43.618223289457475" lon="11.08617068347485"><ele>234.0</ele><time>2026-03-22T10:47:58.968Z</time></trkpt><trkpt lat="43.61826527063172" lon="11.08600866535905"><ele>234.2</ele><time>2026-03-22T10:47:59.968Z</time></trkpt><trkpt lat="43.618281427163986" lon="11.085885208453332"><ele>234.39999999999998</ele><time>2026-03-22T10:48:00.968Z</time></trkpt><trkpt lat="43.618264139409945" lon="11.085789244269847"><ele>234.6</ele><time>2026-03-22T10:48:01.968Z</time></trkpt><trkpt lat="43.61818083780299" lon="11.08570774997105"><ele>234.8</ele><time>2026-03-22T10:48:03.968Z</time></trkpt><trkpt lat="43.618088987315126" lon="11.085770132340022"><ele>235.0</ele><time>2026-03-22T10:48:05.968Z</time></trkpt><trkpt lat="43.61801601474389" lon="11.08585576786227"><ele>234.99999999999997</ele><time>2026-03-22T10:48:06.968Z</time></trkpt><trkpt lat="43.61797517798756" lon="11.0859663845538"><ele>235.0</ele><time>2026-03-22T10:48:07.968Z</time></trkpt><trkpt lat="43.61794122748418" lon="11.086058020182948"><ele>235.0</ele><time>2026-03-22T10:48:08.967Z</time></trkpt><trkpt lat="43.61791672968557" lon="11.086170133175639"><ele>235.0</ele><time>2026-03-22T10:48:09.967Z</time></trkpt><trkpt lat="43.61789227660084" lon="11.086251548240941"><ele>234.99999999999997</ele><time>2026-03-22T10:48:10.967Z</time></trkpt><trkpt lat="43.61783773842515" lon="11.086344739031034"><ele>235.0</ele><time>2026-03-22T10:48:12.967Z</time></trkpt><trkpt lat="43.61777116218512" lon="11.0863270647279"><ele>235.8</ele><time>2026-03-22T10:48:14.967Z</time></trkpt><trkpt lat="43.61763533412154" lon="11.086338194031843"><ele>236.6</ele><time>2026-03-22T10:48:16.967Z</time></trkpt><trkpt lat="43.61753738031713" lon="11.086348972136076"><ele>237.39999999999998</ele><time>2026-03-22T10:48:17.967Z</time></trkpt><trkpt lat="43.61744429600358" lon="11.08635072160361"><ele>238.2</ele><time>2026-03-22T10:48:18.967Z</time></trkpt><trkpt lat="43.61734667827038" lon="11.08633889558933"><ele>239.0</ele><time>2026-03-22T10:48:19.967Z</time></trkpt><trkpt lat="43.617240360138325" lon="11.086289234459493"><ele>239.0</ele><time>2026-03-22T10:48:20.967Z</time></trkpt><trkpt lat="43.61714395646604" lon="11.086243825438554"><ele>238.99999999999997</ele><time>2026-03-22T10:48:21.967Z</time></trkpt><trkpt lat="43.61704204030591" lon="11.08619643030972"><ele>238.99999999999997</ele><time>2026-03-22T10:48:22.969Z</time></trkpt><trkpt lat="43.61694970805629" lon="11.086152863841352"><ele>239.0</ele><time>2026-03-22T10:48:23.969Z</time></trkpt><trkpt lat="43.61685343780953" lon="11.086117662249437"><ele>239.0</ele><time>2026-03-22T10:48:24.969Z</time></trkpt><trkpt lat="43.61675430828379" lon="11.086079596892256"><ele>239.66666666666669</ele><time>2026-03-22T10:48:25.969Z</time></trkpt><trkpt lat="43.61666420706367" lon="11.0860493662168"><ele>240.33333333333334</ele><time>2026-03-22T10:48:26.97Z</time></trkpt><trkpt lat="43.616562747968764" lon="11.086035407221019"><ele>241.0</ele><time>2026-03-22T10:48:27.97Z</time></trkpt><trkpt lat="43.61647331741871" lon="11.086048199836794"><ele>241.66666666666669</ele><time>2026-03-22T10:48:28.969Z</time></trkpt><trkpt lat="43.61639178873636" lon="11.086055639861565"><ele>242.33333333333334</ele><time>2026-03-22T10:48:29.969Z</time></trkpt><trkpt lat="43.616343675494626" lon="11.085972874620989"><ele>243.0</ele><time>2026-03-22T10:48:30.969Z</time></trkpt><trkpt lat="43.616277612029506" lon="11.085915814681556"><ele>243.0</ele><time>2026-03-22T10:48:31.969Z</time></trkpt><trkpt lat="43.61621245791995" lon="11.085866461579963"><ele>243.0</ele><time>2026-03-22T10:48:32.969Z</time></trkpt><trkpt lat="43.61615720634247" lon="11.08580037284364"><ele>243.0</ele><time>2026-03-22T10:48:33.969Z</time></trkpt><trkpt lat="43.616077942374524" lon="11.085750928421687"><ele>243.0</ele><time>2026-03-22T10:48:34.969Z</time></trkpt><trkpt lat="43.6160018803265" lon="11.085710369572041"><ele>243.0</ele><time>2026-03-22T10:48:35.97Z</time></trkpt><trkpt lat="43.615921587042834" lon="11.085641169723019"><ele>243.0</ele><time>2026-03-22T10:48:36.97Z</time></trkpt><trkpt lat="43.61584739761788" lon="11.08558768135095"><ele>241.8</ele><time>2026-03-22T10:48:37.969Z</time></trkpt><trkpt lat="43.61580695436597" lon="11.085489240847995"><ele>240.60000000000002</ele><time>2026-03-22T10:48:38.969Z</time></trkpt><trkpt lat="43.61575742083271" lon="11.085385127479324"><ele>239.39999999999998</ele><time>2026-03-22T10:48:39.969Z</time></trkpt><trkpt lat="43.6156909196678" lon="11.085271303448048"><ele>238.2</ele><time>2026-03-22T10:48:40.969Z</time></trkpt><trkpt lat="43.61561837524955" lon="11.08517633875245"><ele>237.0</ele><time>2026-03-22T10:48:41.969Z</time></trkpt><trkpt lat="43.61551761430307" lon="11.085080656925914"><ele>237.0</ele><time>2026-03-22T10:48:42.969Z</time></trkpt><trkpt lat="43.615425086529015" lon="11.084988628840966"><ele>237.0</ele><time>2026-03-22T10:48:43.969Z</time></trkpt><trkpt lat="43.61533782882675" lon="11.08487751516285"><ele>237.0</ele><time>2026-03-22T10:48:44.969Z</time></trkpt><trkpt lat="43.61530930815662" lon="11.0847369392666"><ele>237.0</ele><time>2026-03-22T10:48:45.969Z</time></trkpt><trkpt lat="43.61528653803531" lon="11.084596012356489"><ele>237.0</ele><time>2026-03-22T10:48:46.969Z</time></trkpt><trkpt lat="43.61527965585309" lon="11.084451354178933"><ele>236.75</ele><time>2026-03-22T10:48:47.969Z</time></trkpt><trkpt lat="43.6152273670816" lon="11.084289499587614"><ele>236.5</ele><time>2026-03-22T10:48:48.969Z</time></trkpt><trkpt lat="43.615197343925615" lon="11.084106319499787"><ele>236.25</ele><time>2026-03-22T10:48:49.969Z</time></trkpt><trkpt lat="43.6151658645959" lon="11.083940430613627"><ele>236.0</ele><time>2026-03-22T10:48:50.969Z</time></trkpt><trkpt lat="43.61513076702004" lon="11.083769343001688"><ele>235.5</ele><time>2026-03-22T10:48:51.969Z</time></trkpt><trkpt lat="43.61509539941714" lon="11.083579059355488"><ele>235.0</ele><time>2026-03-22T10:48:52.969Z</time></trkpt><trkpt lat="43.61504597848838" lon="11.083377555401384"><ele>234.5</ele><time>2026-03-22T10:48:53.969Z</time></trkpt><trkpt lat="43.61499455281503" lon="11.083197121151311"><ele>234.0</ele><time>2026-03-22T10:48:54.969Z</time></trkpt><trkpt lat="43.61494065157142" lon="11.083026708091712"><ele>234.0</ele><time>2026-03-22T10:48:55.969Z</time></trkpt><trkpt lat="43.6148953705818" lon="11.082854165645534"><ele>234.0</ele><time>2026-03-22T10:48:56.969Z</time></trkpt><trkpt lat="43.61483934394763" lon="11.082665672791366"><ele>234.0</ele><time>2026-03-22T10:48:57.969Z</time></trkpt><trkpt lat="43.61476688153621" lon="11.082494700824839"><ele>234.0</ele><time>2026-03-22T10:48:58.969Z</time></trkpt><trkpt lat="43.61468420743865" lon="11.082329446198043"><ele>233.25</ele><time>2026-03-22T10:48:59.969Z</time></trkpt><trkpt lat="43.61459497425416" lon="11.08218195609822"><ele>232.5</ele><time>2026-03-22T10:49:00.969Z</time></trkpt><trkpt lat="43.61451292790363" lon="11.082008940078957"><ele>231.75</ele><time>2026-03-22T10:49:01.969Z</time></trkpt><trkpt lat="43.614433605893645" lon="11.081868500547555"><ele>231.0</ele><time>2026-03-22T10:49:02.969Z</time></trkpt><trkpt lat="43.614362217437055" lon="11.081740643617014"><ele>231.0</ele><time>2026-03-22T10:49:03.969Z</time></trkpt><trkpt lat="43.61430457504868" lon="11.081635159625433"><ele>231.00000000000003</ele><time>2026-03-22T10:49:04.969Z</time></trkpt><trkpt lat="43.61425359645666" lon="11.081538476531994"><ele>231.00000000000003</ele><time>2026-03-22T10:49:05.969Z</time></trkpt><trkpt lat="43.61420384581804" lon="11.081422408698629"><ele>231.0</ele><time>2026-03-22T10:49:06.969Z</time></trkpt><trkpt lat="43.61416226692602" lon="11.081292573211549"><ele>231.0</ele><time>2026-03-22T10:49:07.969Z</time></trkpt><trkpt lat="43.614134310950114" lon="11.08115372042833"><ele>231.75</ele><time>2026-03-22T10:49:08.969Z</time></trkpt><trkpt lat="43.61412103358435" lon="11.081006265977031"><ele>232.5</ele><time>2026-03-22T10:49:09.969Z</time></trkpt><trkpt lat="43.61410657581104" lon="11.08084238777481"><ele>233.25</ele><time>2026-03-22T10:49:10.969Z</time></trkpt><trkpt lat="43.614076891322355" lon="11.080675814365184"><ele>234.0</ele><time>2026-03-22T10:49:11.969Z</time></trkpt><trkpt lat="43.61406893992836" lon="11.080538977237737"><ele>233.0</ele><time>2026-03-22T10:49:12.969Z</time></trkpt><trkpt lat="43.614050008735695" lon="11.080428577116752"><ele>232.0</ele><time>2026-03-22T10:49:13.969Z</time></trkpt><trkpt lat="43.61402704181699" lon="11.080328166374109"><ele>231.0</ele><time>2026-03-22T10:49:14.969Z</time></trkpt><trkpt lat="43.613991935281526" lon="11.080222273068582"><ele>230.0</ele><time>2026-03-22T10:49:15.969Z</time></trkpt><trkpt lat="43.61394892412075" lon="11.080120539172594"><ele>229.0</ele><time>2026-03-22T10:49:16.968Z</time></trkpt><trkpt lat="43.61389588950968" lon="11.080002090144434"><ele>228.0</ele><time>2026-03-22T10:49:17.968Z</time></trkpt><trkpt lat="43.61383451344589" lon="11.07986955416325"><ele>225.75</ele><time>2026-03-22T10:49:18.968Z</time></trkpt><trkpt lat="43.61377783256412" lon="11.079732163395189"><ele>223.5</ele><time>2026-03-22T10:49:19.968Z</time></trkpt><trkpt lat="43.61371790505633" lon="11.079579756805183"><ele>221.25</ele><time>2026-03-22T10:49:20.968Z</time></trkpt><trkpt lat="43.61365175568942" lon="11.07944419423694"><ele>219.0</ele><time>2026-03-22T10:49:21.968Z</time></trkpt><trkpt lat="43.61359141999174" lon="11.079311649147703"><ele>219.0</ele><time>2026-03-22T10:49:22.968Z</time></trkpt><trkpt lat="43.61353842916132" lon="11.079193283902544"><ele>218.99999999999997</ele><time>2026-03-22T10:49:23.968Z</time></trkpt><trkpt lat="43.61348190173163" lon="11.079072780745667"><ele>218.99999999999997</ele><time>2026-03-22T10:49:24.968Z</time></trkpt><trkpt lat="43.613432532223946" lon="11.078960384649159"><ele>219.0</ele><time>2026-03-22T10:49:25.968Z</time></trkpt><trkpt lat="43.61339351979483" lon="11.078848497862891"><ele>219.0</ele><time>2026-03-22T10:49:26.968Z</time></trkpt><trkpt lat="43.6133469264783" lon="11.078733431024418"><ele>219.0</ele><time>2026-03-22T10:49:27.968Z</time></trkpt><trkpt lat="43.613308252018676" lon="11.078623268073702"><ele>219.0</ele><time>2026-03-22T10:49:28.968Z</time></trkpt><trkpt lat="43.61327003416199" lon="11.078518706583099"><ele>219.0</ele><time>2026-03-22T10:49:29.968Z</time></trkpt><trkpt lat="43.61324309908958" lon="11.078422780627081"><ele>219.0</ele><time>2026-03-22T10:49:30.968Z</time></trkpt><trkpt lat="43.61320885411532" lon="11.078342808160404"><ele>219.0</ele><time>2026-03-22T10:49:31.968Z</time></trkpt><trkpt lat="43.61318415313487" lon="11.078202216807599"><ele>219.0</ele><time>2026-03-22T10:49:33.968Z</time></trkpt><trkpt lat="43.61319170472847" lon="11.078110086297862"><ele>218.33333333333334</ele><time>2026-03-22T10:49:34.968Z</time></trkpt><trkpt lat="43.61320455245896" lon="11.078011754330841"><ele>217.66666666666669</ele><time>2026-03-22T10:49:35.968Z</time></trkpt><trkpt lat="43.61323843676193" lon="11.077911294168578"><ele>217.0</ele><time>2026-03-22T10:49:36.968Z</time></trkpt><trkpt lat="43.61327409463658" lon="11.07778180901714"><ele>216.33333333333334</ele><time>2026-03-22T10:49:37.968Z</time></trkpt><trkpt lat="43.6133164787265" lon="11.077669757897254"><ele>215.66666666666669</ele><time>2026-03-22T10:49:38.968Z</time></trkpt><trkpt lat="43.613354637812975" lon="11.077541966753852"><ele>215.0</ele><time>2026-03-22T10:49:39.968Z</time></trkpt><trkpt lat="43.6133972707447" lon="11.077421568727711"><ele>214.0</ele><time>2026-03-22T10:49:40.968Z</time></trkpt><trkpt lat="43.613425095002775" lon="11.077288573400466"><ele>213.0</ele><time>2026-03-22T10:49:41.968Z</time></trkpt><trkpt lat="43.61346766150057" lon="11.077157190851063"><ele>212.0</ele><time>2026-03-22T10:49:42.968Z</time></trkpt><trkpt lat="43.61349764366726" lon="11.07704554623511"><ele>211.0</ele><time>2026-03-22T10:49:43.968Z</time></trkpt><trkpt lat="43.61354043512284" lon="11.076943322334477"><ele>210.0</ele><time>2026-03-22T10:49:44.968Z</time></trkpt><trkpt lat="43.61356948290121" lon="11.076847613982153"><ele>210.0</ele><time>2026-03-22T10:49:45.968Z</time></trkpt><trkpt lat="43.61359948425278" lon="11.076745999270948"><ele>210.0</ele><time>2026-03-22T10:49:46.968Z</time></trkpt><trkpt lat="43.61362813363942" lon="11.07665595723778"><ele>210.0</ele><time>2026-03-22T10:49:47.968Z</time></trkpt><trkpt lat="43.61365259518647" lon="11.076571266856226"><ele>210.0</ele><time>2026-03-22T10:49:48.968Z</time></trkpt><trkpt lat="43.61367983577742" lon="11.076477912793745"><ele>210.0</ele><time>2026-03-22T10:49:49.968Z</time></trkpt><trkpt lat="43.61370761316048" lon="11.07637310509661"><ele>210.0</ele><time>2026-03-22T10:49:50.968Z</time></trkpt><trkpt lat="43.61374787949867" lon="11.076259776688635"><ele>209.83333333333334</ele><time>2026-03-22T10:49:51.968Z</time></trkpt><trkpt lat="43.61377026468015" lon="11.07615978311205"><ele>209.66666666666669</ele><time>2026-03-22T10:49:52.968Z</time></trkpt><trkpt lat="43.613794947137706" lon="11.076068701414085"><ele>209.5</ele><time>2026-03-22T10:49:53.968Z</time></trkpt><trkpt lat="43.61381376000004" lon="11.075915490151527"><ele>209.33333333333334</ele><time>2026-03-22T10:49:55.967Z</time></trkpt><trkpt lat="43.61380983401343" lon="11.07581626978253"><ele>209.16666666666669</ele><time>2026-03-22T10:49:56.967Z</time></trkpt><trkpt lat="43.613803073245535" lon="11.07571781131412"><ele>209.0</ele><time>2026-03-22T10:49:57.967Z</time></trkpt><trkpt lat="43.61378995637541" lon="11.075606579654693"><ele>209.6</ele><time>2026-03-22T10:49:58.967Z</time></trkpt><trkpt lat="43.61377039697761" lon="11.075468075224844"><ele>210.2</ele><time>2026-03-22T10:49:59.967Z</time></trkpt><trkpt lat="43.61375496159824" lon="11.0753548457988"><ele>210.79999999999998</ele><time>2026-03-22T10:50:00.967Z</time></trkpt><trkpt lat="43.61373051134264" lon="11.075222361848093"><ele>211.39999999999998</ele><time>2026-03-22T10:50:01.967Z</time></trkpt><trkpt lat="43.61370728351235" lon="11.07507266455523"><ele>212.0</ele><time>2026-03-22T10:50:02.967Z</time></trkpt><trkpt lat="43.61368760251519" lon="11.074922163611866"><ele>212.0</ele><time>2026-03-22T10:50:03.967Z</time></trkpt><trkpt lat="43.61366510942397" lon="11.07478410733841"><ele>212.0</ele><time>2026-03-22T10:50:04.967Z</time></trkpt><trkpt lat="43.613647163293976" lon="11.074642269513134"><ele>212.0</ele><time>2026-03-22T10:50:05.967Z</time></trkpt><trkpt lat="43.61361740103408" lon="11.074486404546054"><ele>212.0</ele><time>2026-03-22T10:50:06.967Z</time></trkpt><trkpt lat="43.61359127669752" lon="11.074327426789452"><ele>212.0</ele><time>2026-03-22T10:50:07.967Z</time></trkpt><trkpt lat="43.613569781885815" lon="11.07416284056936"><ele>211.39999999999998</ele><time>2026-03-22T10:50:08.967Z</time></trkpt><trkpt lat="43.61355034640951" lon="11.074018923721567"><ele>210.79999999999998</ele><time>2026-03-22T10:50:09.967Z</time></trkpt><trkpt lat="43.61353022247543" lon="11.073889006444999"><ele>210.2</ele><time>2026-03-22T10:50:10.967Z</time></trkpt><trkpt lat="43.61351694764396" lon="11.073782625213122"><ele>209.6</ele><time>2026-03-22T10:50:11.967Z</time></trkpt><trkpt lat="43.61351071653007" lon="11.07366784915603"><ele>209.0</ele><time>2026-03-22T10:50:12.967Z</time></trkpt><trkpt lat="43.61346981646948" lon="11.073540236898218"><ele>209.0</ele><time>2026-03-22T10:50:13.967Z</time></trkpt><trkpt lat="43.61342363645448" lon="11.073403971672812"><ele>209.0</ele><time>2026-03-22T10:50:14.967Z</time></trkpt><trkpt lat="43.61337486303566" lon="11.073266921387134"><ele>209.0</ele><time>2026-03-22T10:50:15.967Z</time></trkpt><trkpt lat="43.613332223932964" lon="11.073125291217512"><ele>209.0</ele><time>2026-03-22T10:50:16.967Z</time></trkpt><trkpt lat="43.61328405390135" lon="11.07299574878749"><ele>209.0</ele><time>2026-03-22T10:50:17.967Z</time></trkpt><trkpt lat="43.61323578429637" lon="11.0728509345198"><ele>210.0</ele><time>2026-03-22T10:50:18.967Z</time></trkpt><trkpt lat="43.61319580535757" lon="11.07271537072925"><ele>211.0</ele><time>2026-03-22T10:50:19.967Z</time></trkpt><trkpt lat="43.613164823077504" lon="11.072586145180516"><ele>211.99999999999997</ele><time>2026-03-22T10:50:20.967Z</time></trkpt><trkpt lat="43.61315717491967" lon="11.072451132201792"><ele>213.0</ele><time>2026-03-22T10:50:21.967Z</time></trkpt><trkpt lat="43.61313737031769" lon="11.072316757770338"><ele>214.0</ele><time>2026-03-22T10:50:22.967Z</time></trkpt><trkpt lat="43.613117326023186" lon="11.072164860009357"><ele>214.16666666666666</ele><time>2026-03-22T10:50:23.967Z</time></trkpt><trkpt lat="43.61310031586938" lon="11.07202459947041"><ele>214.33333333333331</ele><time>2026-03-22T10:50:24.967Z</time></trkpt><trkpt lat="43.61308822609406" lon="11.07189879232786"><ele>214.5</ele><time>2026-03-22T10:50:25.967Z</time></trkpt><trkpt lat="43.61308284949693" lon="11.071787110773442"><ele>214.66666666666669</ele><time>2026-03-22T10:50:26.967Z</time></trkpt><trkpt lat="43.61309340505923" lon="11.071684022921099"><ele>214.83333333333334</ele><time>2026-03-22T10:50:27.969Z</time></trkpt><trkpt lat="43.61311251448583" lon="11.071555943833667"><ele>215.0</ele><time>2026-03-22T10:50:28.969Z</time></trkpt><trkpt lat="43.613129982415664" lon="11.071421286151198"><ele>214.6</ele><time>2026-03-22T10:50:29.969Z</time></trkpt><trkpt lat="43.6131446354902" lon="11.071270769024059"><ele>214.2</ele><time>2026-03-22T10:50:30.969Z</time></trkpt><trkpt lat="43.613159705299296" lon="11.071126459390532"><ele>213.8</ele><time>2026-03-22T10:50:31.968Z</time></trkpt><trkpt lat="43.61316729639464" lon="11.0709956100569"><ele>213.4</ele><time>2026-03-22T10:50:32.968Z</time></trkpt><trkpt lat="43.61315035783337" lon="11.07089501431899"><ele>213.0</ele><time>2026-03-22T10:50:33.968Z</time></trkpt><trkpt lat="43.61312171538085" lon="11.07081130949849"><ele>212.0</ele><time>2026-03-22T10:50:34.968Z</time></trkpt><trkpt lat="43.613087918390754" lon="11.070731930840841"><ele>211.0</ele><time>2026-03-22T10:50:35.968Z</time></trkpt><trkpt lat="43.6130319111132" lon="11.070605952336114"><ele>210.0</ele><time>2026-03-22T10:50:37.969Z</time></trkpt><trkpt lat="43.61295105993149" lon="11.070484486858431"><ele>209.0</ele><time>2026-03-22T10:50:39.969Z</time></trkpt><trkpt lat="43.612900093111456" lon="11.070419119594892"><ele>208.0</ele><time>2026-03-22T10:50:40.969Z</time></trkpt><trkpt lat="43.612848931176025" lon="11.070351283710359"><ele>207.0</ele><time>2026-03-22T10:50:41.969Z</time></trkpt><trkpt lat="43.61280168683551" lon="11.070290633800512"><ele>207.0</ele><time>2026-03-22T10:50:42.969Z</time></trkpt><trkpt lat="43.61273267483489" lon="11.070167424972599"><ele>207.0</ele><time>2026-03-22T10:50:44.969Z</time></trkpt><trkpt lat="43.61266201808405" lon="11.070053882206427"><ele>207.0</ele><time>2026-03-22T10:50:46.969Z</time></trkpt><trkpt lat="43.61257309704407" lon="11.0699504561324"><ele>207.0</ele><time>2026-03-22T10:50:48.969Z</time></trkpt><trkpt lat="43.61252096560918" lon="11.069897688347398"><ele>207.0</ele><time>2026-03-22T10:50:49.968Z</time></trkpt><trkpt lat="43.61244290663464" lon="11.06982779143507"><ele>205.66666666666666</ele><time>2026-03-22T10:50:50.968Z</time></trkpt><trkpt lat="43.61238596654456" lon="11.069752587266116"><ele>204.33333333333331</ele><time>2026-03-22T10:50:51.968Z</time></trkpt><trkpt lat="43.61231209727636" lon="11.06969137537829"><ele>203.0</ele><time>2026-03-22T10:50:52.968Z</time></trkpt><trkpt lat="43.61224829295812" lon="11.06960452008807"><ele>201.66666666666666</ele><time>2026-03-22T10:50:53.968Z</time></trkpt><trkpt lat="43.61216785748208" lon="11.069529226902462"><ele>200.33333333333331</ele><time>2026-03-22T10:50:54.968Z</time></trkpt><trkpt lat="43.6120991370736" lon="11.069455934212042"><ele>199.0</ele><time>2026-03-22T10:50:55.968Z</time></trkpt><trkpt lat="43.61202930838482" lon="11.069378135158196"><ele>197.99999999999997</ele><time>2026-03-22T10:50:56.968Z</time></trkpt><trkpt lat="43.6119624790437" lon="11.069293581738084"><ele>197.0</ele><time>2026-03-22T10:50:57.968Z</time></trkpt><trkpt lat="43.611912977942545" lon="11.069227361045744"><ele>196.0</ele><time>2026-03-22T10:50:58.968Z</time></trkpt><trkpt lat="43.61185425980014" lon="11.069123043179506"><ele>195.0</ele><time>2026-03-22T10:51:00.968Z</time></trkpt><trkpt lat="43.61184795663054" lon="11.06902433395956"><ele>193.99999999999997</ele><time>2026-03-22T10:51:02.968Z</time></trkpt><trkpt lat="43.61186056686301" lon="11.068894776635398"><ele>193.0</ele><time>2026-03-22T10:51:04.968Z</time></trkpt><trkpt lat="43.611875292958075" lon="11.068767576777239"><ele>192.60000000000002</ele><time>2026-03-22T10:51:06.968Z</time></trkpt><trkpt lat="43.61187103598614" lon="11.068634297055455"><ele>192.20000000000002</ele><time>2026-03-22T10:51:08.968Z</time></trkpt><trkpt lat="43.61182925175383" lon="11.06850405402079"><ele>191.8</ele><time>2026-03-22T10:51:10.968Z</time></trkpt><trkpt lat="43.61177665928393" lon="11.068410372404037"><ele>191.4</ele><time>2026-03-22T10:51:12.968Z</time></trkpt><trkpt lat="43.611706612845545" lon="11.06828203303158"><ele>191.0</ele><time>2026-03-22T10:51:14.968Z</time></trkpt><trkpt lat="43.61164363562155" lon="11.068140827538032"><ele>188.8</ele><time>2026-03-22T10:51:16.968Z</time></trkpt><trkpt lat="43.6115965805814" lon="11.068012919382632"><ele>186.60000000000002</ele><time>2026-03-22T10:51:18.968Z</time></trkpt><trkpt lat="43.611527193850975" lon="11.067896772267774"><ele>184.4</ele><time>2026-03-22T10:51:20.968Z</time></trkpt><trkpt lat="43.6114493182389" lon="11.06778600769093"><ele>182.2</ele><time>2026-03-22T10:51:22.968Z</time></trkpt><trkpt lat="43.61138753090907" lon="11.06769159199169"><ele>180.0</ele><time>2026-03-22T10:51:24.968Z</time></trkpt><trkpt lat="43.611331703122055" lon="11.06758752781386"><ele>180.0</ele><time>2026-03-22T10:51:26.968Z</time></trkpt><trkpt lat="43.61128592221457" lon="11.06743961556025"><ele>180.0</ele><time>2026-03-22T10:51:28.967Z</time></trkpt><trkpt lat="43.61127173284976" lon="11.067349449244608"><ele>180.0</ele><time>2026-03-22T10:51:29.967Z</time></trkpt><trkpt lat="43.61129844791592" lon="11.067187580585143"><ele>180.0</ele><time>2026-03-22T10:51:31.967Z</time></trkpt><trkpt lat="43.61135210969298" lon="11.067004417023306"><ele>180.0</ele><time>2026-03-22T10:51:33.967Z</time></trkpt><trkpt lat="43.611366855240185" lon="11.066840296968529"><ele>180.0</ele><time>2026-03-22T10:51:35.967Z</time></trkpt><trkpt lat="43.61137821335924" lon="11.066720434234258"><ele>180.0</ele><time>2026-03-22T10:51:36.967Z</time></trkpt><trkpt lat="43.61136660582392" lon="11.06658711031802"><ele>180.0</ele><time>2026-03-22T10:51:37.967Z</time></trkpt><trkpt lat="43.61133676697337" lon="11.066459496985136"><ele>180.0</ele><time>2026-03-22T10:51:38.967Z</time></trkpt><trkpt lat="43.61131387895901" lon="11.06634588606252"><ele>180.0</ele><time>2026-03-22T10:51:39.967Z</time></trkpt><trkpt lat="43.61130449592746" lon="11.066221250269022"><ele>180.0</ele><time>2026-03-22T10:51:40.967Z</time></trkpt><trkpt lat="43.61129599979474" lon="11.066104088442412"><ele>180.0</ele><time>2026-03-22T10:51:41.967Z</time></trkpt><trkpt lat="43.61128319740278" lon="11.065991861975176"><ele>180.0</ele><time>2026-03-22T10:51:42.967Z</time></trkpt><trkpt lat="43.61127903173611" lon="11.065881607039254"><ele>180.0</ele><time>2026-03-22T10:51:43.967Z</time></trkpt><trkpt lat="43.61126386972131" lon="11.06574227283439"><ele>180.0</ele><time>2026-03-22T10:51:44.967Z</time></trkpt><trkpt lat="43.61124688545112" lon="11.065601790296324"><ele>179.4</ele><time>2026-03-22T10:51:45.967Z</time></trkpt><trkpt lat="43.61124128571162" lon="11.065473217462245"><ele>178.8</ele><time>2026-03-22T10:51:46.967Z</time></trkpt><trkpt lat="43.611243242682804" lon="11.065352427277203"><ele>178.2</ele><time>2026-03-22T10:51:47.967Z</time></trkpt><trkpt lat="43.61124024977549" lon="11.065225360991157"><ele>177.6</ele><time>2026-03-22T10:51:48.967Z</time></trkpt><trkpt lat="43.611230357885944" lon="11.065097633697283"><ele>177.0</ele><time>2026-03-22T10:51:49.967Z</time></trkpt><trkpt lat="43.61122358648783" lon="11.064970307963874"><ele>177.16666666666666</ele><time>2026-03-22T10:51:50.967Z</time></trkpt><trkpt lat="43.611218854941505" lon="11.064852897199437"><ele>177.33333333333334</ele><time>2026-03-22T10:51:51.967Z</time></trkpt><trkpt lat="43.61121822910399" lon="11.064727856883607"><ele>177.5</ele><time>2026-03-22T10:51:52.967Z</time></trkpt><trkpt lat="43.61120848714315" lon="11.064604863020412"><ele>177.66666666666669</ele><time>2026-03-22T10:51:53.967Z</time></trkpt><trkpt lat="43.61118963812551" lon="11.064502911612035"><ele>177.83333333333334</ele><time>2026-03-22T10:51:54.967Z</time></trkpt><trkpt lat="43.61115967597395" lon="11.064405880063694"><ele>178.0</ele><time>2026-03-22T10:51:55.967Z</time></trkpt><trkpt lat="43.61113351450817" lon="11.064311923016025"><ele>179.99999999999997</ele><time>2026-03-22T10:51:56.967Z</time></trkpt><trkpt lat="43.61110228739746" lon="11.064207008949351"><ele>182.0</ele><time>2026-03-22T10:51:57.967Z</time></trkpt><trkpt lat="43.611084654951036" lon="11.064118066358738"><ele>184.0</ele><time>2026-03-22T10:51:58.967Z</time></trkpt><trkpt lat="43.61104361926801" lon="11.06400615627942"><ele>186.0</ele><time>2026-03-22T10:52:00.967Z</time></trkpt><trkpt lat="43.61100080259258" lon="11.063940161644295"><ele>188.0</ele><time>2026-03-22T10:52:03.967Z</time></trkpt><trkpt lat="43.61094187791744" lon="11.063903375250272"><ele>189.99999999999997</ele><time>2026-03-22T10:52:37.968Z</time></trkpt><trkpt lat="43.61093886902255" lon="11.063992601043362"><ele>192.0</ele><time>2026-03-22T10:52:39.967Z</time></trkpt><trkpt lat="43.6109856111134" lon="11.063929953860285"><ele>192.0</ele><time>2026-03-22T10:52:55.968Z</time></trkpt><trkpt lat="43.61097730809423" lon="11.063813143745785"><ele>192.0</ele><time>2026-03-22T10:52:58.967Z</time></trkpt><trkpt lat="43.61097092345076" lon="11.06371976297147"><ele>192.0</ele><time>2026-03-22T10:53:02.967Z</time></trkpt><trkpt lat="43.61094613342647" lon="11.063821751842625"><ele>192.0</ele><time>2026-03-22T10:53:20.967Z</time></trkpt><trkpt lat="43.61098298522579" lon="11.063917264209122"><ele>192.0</ele><time>2026-03-22T10:53:22.967Z</time></trkpt><trkpt lat="43.61103118371419" lon="11.064022444011192"><ele>192.0</ele><time>2026-03-22T10:53:24.967Z</time></trkpt><trkpt lat="43.61107145617096" lon="11.06414114283004"><ele>193.28571428571428</ele><time>2026-03-22T10:53:26.967Z</time></trkpt><trkpt lat="43.61109529766758" lon="11.06422996200015"><ele>194.57142857142856</ele><time>2026-03-22T10:53:28.967Z</time></trkpt><trkpt lat="43.61115856915579" lon="11.06423617353543"><ele>195.85714285714283</ele><time>2026-03-22T10:53:34.967Z</time></trkpt><trkpt lat="43.61119580793361" lon="11.064152831173274"><ele>197.14285714285714</ele><time>2026-03-22T10:53:37.966Z</time></trkpt><trkpt lat="43.611232392704856" lon="11.064071623464791"><ele>198.42857142857144</ele><time>2026-03-22T10:53:39.966Z</time></trkpt><trkpt lat="43.61129839731696" lon="11.063989538088846"><ele>199.7142857142857</ele><time>2026-03-22T10:53:42.966Z</time></trkpt><trkpt lat="43.61135597640451" lon="11.063916300078377"><ele>201.0</ele><time>2026-03-22T10:53:44.966Z</time></trkpt><trkpt lat="43.61140475313629" lon="11.063849628313788"><ele>196.66666666666666</ele><time>2026-03-22T10:53:46.966Z</time></trkpt><trkpt lat="43.61144666377288" lon="11.063769427612437"><ele>192.33333333333334</ele><time>2026-03-22T10:53:48.966Z</time></trkpt><trkpt lat="43.611464561135506" lon="11.063676654120542"><ele>188.0</ele><time>2026-03-22T10:53:50.966Z</time></trkpt><trkpt lat="43.61146663835033" lon="11.063568124501458"><ele>183.66666666666669</ele><time>2026-03-22T10:53:52.966Z</time></trkpt><trkpt lat="43.6114429681339" lon="11.06341585897612"><ele>179.33333333333334</ele><time>2026-03-22T10:53:54.966Z</time></trkpt><trkpt lat="43.61142162358997" lon="11.063276284619361"><ele>175.0</ele><time>2026-03-22T10:53:56.966Z</time></trkpt><trkpt lat="43.611399198857576" lon="11.063131926913469"><ele>173.66666666666669</ele><time>2026-03-22T10:53:58.966Z</time></trkpt><trkpt lat="43.61137899352687" lon="11.06301539815302"><ele>172.33333333333334</ele><time>2026-03-22T10:54:00.966Z</time></trkpt><trkpt lat="43.61135834134617" lon="11.0629135993201"><ele>171.0</ele><time>2026-03-22T10:54:02.966Z</time></trkpt><trkpt lat="43.611323869644444" lon="11.062796735286618"><ele>169.66666666666666</ele><time>2026-03-22T10:54:04.966Z</time></trkpt><trkpt lat="43.6112637742105" lon="11.062713202161163"><ele>168.33333333333331</ele><time>2026-03-22T10:54:07.966Z</time></trkpt><trkpt lat="43.61122164256928" lon="11.062632568615584"><ele>167.0</ele><time>2026-03-22T10:54:09.966Z</time></trkpt><trkpt lat="43.61120461331048" lon="11.062536038422806"><ele>165.66666666666666</ele><time>2026-03-22T10:54:11.966Z</time></trkpt><trkpt lat="43.61121976520558" lon="11.062431833882204"><ele>164.33333333333331</ele><time>2026-03-22T10:54:13.966Z</time></trkpt><trkpt lat="43.61124035630941" lon="11.062310991600542"><ele>163.0</ele><time>2026-03-22T10:54:15.966Z</time></trkpt><trkpt lat="43.61125497555735" lon="11.062186884818686"><ele>161.66666666666666</ele><time>2026-03-22T10:54:17.965Z</time></trkpt><trkpt lat="43.61124985910443" lon="11.062054134910598"><ele>160.33333333333334</ele><time>2026-03-22T10:54:19.965Z</time></trkpt><trkpt lat="43.61124392668435" lon="11.06194151212942"><ele>159.0</ele><time>2026-03-22T10:54:21.965Z</time></trkpt><trkpt lat="43.61128113508778" lon="11.061800363007743"><ele>159.0</ele><time>2026-03-22T10:54:23.965Z</time></trkpt><trkpt lat="43.61130947060079" lon="11.061643304561867"><ele>159.0</ele><time>2026-03-22T10:54:25.965Z</time></trkpt><trkpt lat="43.61132504827245" lon="11.06147866088363"><ele>159.0</ele><time>2026-03-22T10:54:27.965Z</time></trkpt><trkpt lat="43.61134324668989" lon="11.061316344771242"><ele>159.0</ele><time>2026-03-22T10:54:29.965Z</time></trkpt><trkpt lat="43.61135594764313" lon="11.061151791136073"><ele>157.6</ele><time>2026-03-22T10:54:31.965Z</time></trkpt><trkpt lat="43.6113815680117" lon="11.061001342992943"><ele>156.2</ele><time>2026-03-22T10:54:33.965Z</time></trkpt><trkpt lat="43.611418293764274" lon="11.060885021884847"><ele>154.79999999999998</ele><time>2026-03-22T10:54:35.965Z</time></trkpt><trkpt lat="43.611460528677426" lon="11.060788071732585"><ele>153.4</ele><time>2026-03-22T10:54:37.965Z</time></trkpt><trkpt lat="43.61150852263701" lon="11.06070501577797"><ele>152.0</ele><time>2026-03-22T10:54:39.967Z</time></trkpt><trkpt lat="43.61157571170909" lon="11.06059864156505"><ele>150.33333333333331</ele><time>2026-03-22T10:54:41.967Z</time></trkpt><trkpt lat="43.61162774861337" lon="11.060513895373003"><ele>148.66666666666666</ele><time>2026-03-22T10:54:43.967Z</time></trkpt><trkpt lat="43.611682069786866" lon="11.0604210281616"><ele>147.0</ele><time>2026-03-22T10:54:45.966Z</time></trkpt><trkpt lat="43.6117239992732" lon="11.06031878946032"><ele>145.33333333333334</ele><time>2026-03-22T10:54:47.967Z</time></trkpt><trkpt lat="43.61174596018809" lon="11.060233626515533"><ele>143.66666666666669</ele><time>2026-03-22T10:54:49.967Z</time></trkpt><trkpt lat="43.61175269995956" lon="11.060116091875765"><ele>142.0</ele><time>2026-03-22T10:54:52.967Z</time></trkpt><trkpt lat="43.611723397368905" lon="11.060006310088575"><ele>140.14285714285714</ele><time>2026-03-22T10:54:55.967Z</time></trkpt><trkpt lat="43.61170296843781" lon="11.05991482559226"><ele>138.28571428571428</ele><time>2026-03-22T10:54:57.967Z</time></trkpt><trkpt lat="43.61168246732375" lon="11.059800577818715"><ele>136.42857142857142</ele><time>2026-03-22T10:54:59.967Z</time></trkpt><trkpt lat="43.61166078573267" lon="11.059712877404726"><ele>134.57142857142856</ele><time>2026-03-22T10:55:01.966Z</time></trkpt><trkpt lat="43.611623075178514" lon="11.059631232118933"><ele>132.71428571428572</ele><time>2026-03-22T10:55:03.966Z</time></trkpt><trkpt lat="43.611584925817354" lon="11.059545806607767"><ele>130.85714285714283</ele><time>2026-03-22T10:55:07.966Z</time></trkpt><trkpt lat="43.61155615743941" lon="11.05945669033297"><ele>129.0</ele><time>2026-03-22T10:55:27.966Z</time></trkpt><trkpt lat="43.61157478253378" lon="11.059348595376093"><ele>129.0</ele><time>2026-03-22T10:55:31.966Z</time></trkpt><trkpt lat="43.61160737721183" lon="11.059262600471463"><ele>129.0</ele><time>2026-03-22T10:55:33.966Z</time></trkpt><trkpt lat="43.611638959921855" lon="11.059178672671989"><ele>129.0</ele><time>2026-03-22T10:55:35.966Z</time></trkpt><trkpt lat="43.61168158776486" lon="11.059101117637796"><ele>129.0</ele><time>2026-03-22T10:55:37.966Z</time></trkpt><trkpt lat="43.61175644818053" lon="11.059026436712807"><ele>129.0</ele><time>2026-03-22T10:55:40.965Z</time></trkpt><trkpt lat="43.61181821669091" lon="11.058952361150748"><ele>129.0</ele><time>2026-03-22T10:55:43.965Z</time></trkpt><trkpt lat="43.611862401536754" lon="11.058846202170493"><ele>127.16666666666667</ele><time>2026-03-22T10:55:46.965Z</time></trkpt><trkpt lat="43.611895633418825" lon="11.058744973103906"><ele>125.33333333333334</ele><time>2026-03-22T10:55:48.965Z</time></trkpt><trkpt lat="43.61192600719068" lon="11.058665531610746"><ele>123.5</ele><time>2026-03-22T10:55:50.965Z</time></trkpt><trkpt lat="43.611976161791574" lon="11.058555608440631"><ele>121.66666666666667</ele><time>2026-03-22T10:55:53.965Z</time></trkpt><trkpt lat="43.61201750619979" lon="11.058478974562092"><ele>119.83333333333334</ele><time>2026-03-22T10:55:56.965Z</time></trkpt><trkpt lat="43.61205961377774" lon="11.058366010417407"><ele>118.0</ele><time>2026-03-22T10:55:59.965Z</time></trkpt><trkpt lat="43.6120888049053" lon="11.058223352696318"><ele>116.33333333333334</ele><time>2026-03-22T10:56:01.965Z</time></trkpt><trkpt lat="43.612107452308585" lon="11.058071719313494"><ele>114.66666666666667</ele><time>2026-03-22T10:56:03.965Z</time></trkpt><trkpt lat="43.61210577124713" lon="11.05795364531002"><ele>113.0</ele><time>2026-03-22T10:56:05.965Z</time></trkpt><trkpt lat="43.612096950667684" lon="11.057861671594695"><ele>111.33333333333334</ele><time>2026-03-22T10:56:07.965Z</time></trkpt><trkpt lat="43.61209290792911" lon="11.057761951544258"><ele>109.66666666666667</ele><time>2026-03-22T10:56:09.965Z</time></trkpt><trkpt lat="43.612085140955465" lon="11.057644360785755"><ele>108.0</ele><time>2026-03-22T10:56:11.965Z</time></trkpt><trkpt lat="43.612086825522" lon="11.057458513781668"><ele>106.42857142857143</ele><time>2026-03-22T10:56:13.965Z</time></trkpt><trkpt lat="43.6120793813764" lon="11.0573623580299"><ele>104.85714285714286</ele><time>2026-03-22T10:56:14.965Z</time></trkpt><trkpt lat="43.61208839994622" lon="11.057254244502191"><ele>103.28571428571428</ele><time>2026-03-22T10:56:16.965Z</time></trkpt><trkpt lat="43.612080299463436" lon="11.057160404500943"><ele>101.71428571428572</ele><time>2026-03-22T10:56:19.964Z</time></trkpt><trkpt lat="43.61207733531022" lon="11.057056108328014"><ele>100.14285714285715</ele><time>2026-03-22T10:56:21.964Z</time></trkpt><trkpt lat="43.61207929626307" lon="11.05693765563763"><ele>98.57142857142857</ele><time>2026-03-22T10:56:23.964Z</time></trkpt><trkpt lat="43.612107769586835" lon="11.056853394242642"><ele>97.0</ele><time>2026-03-22T10:56:25.964Z</time></trkpt><trkpt lat="43.612152286222205" lon="11.056770150048399"><ele>97.0</ele><time>2026-03-22T10:56:28.964Z</time></trkpt><trkpt lat="43.61219546727041" lon="11.056680439607415"><ele>97.0</ele><time>2026-03-22T10:56:31.964Z</time></trkpt><trkpt lat="43.61224664200661" lon="11.056551530178151"><ele>97.0</ele><time>2026-03-22T10:56:33.964Z</time></trkpt><trkpt lat="43.61230978075319" lon="11.056415453391155"><ele>97.0</ele><time>2026-03-22T10:56:35.964Z</time></trkpt><trkpt lat="43.61238358709264" lon="11.05630559195552"><ele>97.0</ele><time>2026-03-22T10:56:37.964Z</time></trkpt><trkpt lat="43.612468390583196" lon="11.056208449210782"><ele>95.83333333333334</ele><time>2026-03-22T10:56:39.964Z</time></trkpt><trkpt lat="43.612542525932184" lon="11.05611667580326"><ele>94.66666666666667</ele><time>2026-03-22T10:56:41.964Z</time></trkpt><trkpt lat="43.612631289400035" lon="11.05603153597173"><ele>93.5</ele><time>2026-03-22T10:56:43.964Z</time></trkpt><trkpt lat="43.61269159715529" lon="11.055980707538616"><ele>92.33333333333334</ele><time>2026-03-22T10:56:44.966Z</time></trkpt><trkpt lat="43.612759800257436" lon="11.055925431171485"><ele>91.16666666666667</ele><time>2026-03-22T10:56:45.965Z</time></trkpt><trkpt lat="43.612821166734435" lon="11.055885209069364"><ele>90.0</ele><time>2026-03-22T10:56:46.965Z</time></trkpt><trkpt lat="43.612905495504044" lon="11.055830828391601"><ele>90.83333333333333</ele><time>2026-03-22T10:56:47.965Z</time></trkpt><trkpt lat="43.612982537897174" lon="11.055777949013416"><ele>91.66666666666667</ele><time>2026-03-22T10:56:48.966Z</time></trkpt><trkpt lat="43.61306426492622" lon="11.055731063443357"><ele>92.5</ele><time>2026-03-22T10:56:49.966Z</time></trkpt><trkpt lat="43.613143337032994" lon="11.055685838363605"><ele>93.33333333333334</ele><time>2026-03-22T10:56:50.966Z</time></trkpt><trkpt lat="43.61321925568336" lon="11.055639061668854"><ele>94.16666666666667</ele><time>2026-03-22T10:56:51.965Z</time></trkpt><trkpt lat="43.61329797982669" lon="11.055593719038999"><ele>95.0</ele><time>2026-03-22T10:56:52.965Z</time></trkpt><trkpt lat="43.613370138747634" lon="11.05555134703844"><ele>95.0</ele><time>2026-03-22T10:56:53.965Z</time></trkpt><trkpt lat="43.6134375151943" lon="11.055513938365674"><ele>95.0</ele><time>2026-03-22T10:56:54.965Z</time></trkpt><trkpt lat="43.61350587840442" lon="11.055475012690138"><ele>95.0</ele><time>2026-03-22T10:56:55.965Z</time></trkpt><trkpt lat="43.613565161848044" lon="11.055440783534594"><ele>95.0</ele><time>2026-03-22T10:56:56.966Z</time></trkpt><trkpt lat="43.61362262003332" lon="11.055394931810351"><ele>95.0</ele><time>2026-03-22T10:56:57.966Z</time></trkpt><trkpt lat="43.61367792942657" lon="11.055307015054723"><ele>95.0</ele><time>2026-03-22T10:56:59.966Z</time></trkpt><trkpt lat="43.61367330053053" lon="11.05520870502899"><ele>95.0</ele><time>2026-03-22T10:57:01.966Z</time></trkpt><trkpt lat="43.61363847387256" lon="11.055104854554216"><ele>95.0</ele><time>2026-03-22T10:57:03.966Z</time></trkpt><trkpt lat="43.613564193446514" lon="11.054968107691169"><ele>95.0</ele><time>2026-03-22T10:57:05.965Z</time></trkpt><trkpt lat="43.61352847130265" lon="11.054886976764829"><ele>95.0</ele><time>2026-03-22T10:57:06.965Z</time></trkpt><trkpt lat="43.61347824796853" lon="11.05478861594038"><ele>95.0</ele><time>2026-03-22T10:57:07.965Z</time></trkpt><trkpt lat="43.61343383890151" lon="11.054718400658194"><ele>95.0</ele><time>2026-03-22T10:57:08.965Z</time></trkpt><trkpt lat="43.61339783296366" lon="11.054643657511779"><ele>95.0</ele><time>2026-03-22T10:57:09.965Z</time></trkpt><trkpt lat="43.61336122911948" lon="11.05457048846815"><ele>95.83333333333334</ele><time>2026-03-22T10:57:10.965Z</time></trkpt><trkpt lat="43.61331776333887" lon="11.054479648011107"><ele>96.66666666666667</ele><time>2026-03-22T10:57:11.965Z</time></trkpt><trkpt lat="43.6132596899491" lon="11.054370944899034"><ele>97.5</ele><time>2026-03-22T10:57:12.965Z</time></trkpt><trkpt lat="43.61319773426868" lon="11.05424950996606"><ele>98.33333333333334</ele><time>2026-03-22T10:57:13.965Z</time></trkpt><trkpt lat="43.61314814974965" lon="11.054149115235578"><ele>99.16666666666667</ele><time>2026-03-22T10:57:14.965Z</time></trkpt><trkpt lat="43.61311477239449" lon="11.054064040576836"><ele>100.0</ele><time>2026-03-22T10:57:15.965Z</time></trkpt><trkpt lat="43.61309924287753" lon="11.053942854829321"><ele>100.2</ele><time>2026-03-22T10:57:17.965Z</time></trkpt><trkpt lat="43.61311264098822" lon="11.053847181309802"><ele>100.4</ele><time>2026-03-22T10:57:20.965Z</time></trkpt><trkpt lat="43.613058702239286" lon="11.05376905550718"><ele>100.6</ele><time>2026-03-22T10:57:22.965Z</time></trkpt><trkpt lat="43.61297286760113" lon="11.053670365243223"><ele>100.8</ele><time>2026-03-22T10:57:24.965Z</time></trkpt><trkpt lat="43.612917389493575" lon="11.05352273005325"><ele>101.0</ele><time>2026-03-22T10:57:26.965Z</time></trkpt><trkpt lat="43.61290922151924" lon="11.05341705037317"><ele>100.99999999999999</ele><time>2026-03-22T10:57:27.965Z</time></trkpt><trkpt lat="43.612934624668" lon="11.053312049650664"><ele>101.0</ele><time>2026-03-22T10:57:28.965Z</time></trkpt><trkpt lat="43.61296534514271" lon="11.05319856445521"><ele>101.0</ele><time>2026-03-22T10:57:29.965Z</time></trkpt><trkpt lat="43.61298826647896" lon="11.053104882888809"><ele>101.0</ele><time>2026-03-22T10:57:30.965Z</time></trkpt><trkpt lat="43.612986917100876" lon="11.053009898435112"><ele>100.99999999999999</ele><time>2026-03-22T10:57:31.965Z</time></trkpt><trkpt lat="43.61294349024579" lon="11.052924943193787"><ele>101.0</ele><time>2026-03-22T10:57:32.965Z</time></trkpt><trkpt lat="43.612887233501674" lon="11.052856154509806"><ele>98.99999999999999</ele><time>2026-03-22T10:57:33.965Z</time></trkpt><trkpt lat="43.61281382770735" lon="11.052795878556985"><ele>97.0</ele><time>2026-03-22T10:57:34.965Z</time></trkpt><trkpt lat="43.61273208338955" lon="11.052728690596869"><ele>95.0</ele><time>2026-03-22T10:57:35.965Z</time></trkpt><trkpt lat="43.61265727378931" lon="11.052677185095668"><ele>93.0</ele><time>2026-03-22T10:57:36.965Z</time></trkpt><trkpt lat="43.61258322434247" lon="11.052623966214112"><ele>91.0</ele><time>2026-03-22T10:57:37.965Z</time></trkpt><trkpt lat="43.612507111847805" lon="11.052564601328948"><ele>89.0</ele><time>2026-03-22T10:57:38.965Z</time></trkpt><trkpt lat="43.61242196275614" lon="11.052504186890394"><ele>89.0</ele><time>2026-03-22T10:57:39.965Z</time></trkpt><trkpt lat="43.61234783213591" lon="11.052452369727447"><ele>89.0</ele><time>2026-03-22T10:57:40.965Z</time></trkpt><trkpt lat="43.612288819245144" lon="11.052414335123023"><ele>89.0</ele><time>2026-03-22T10:57:41.965Z</time></trkpt><trkpt lat="43.612231873414665" lon="11.05237277809397"><ele>89.0</ele><time>2026-03-22T10:57:42.965Z</time></trkpt><trkpt lat="43.61213775488839" lon="11.052304349596053"><ele>89.0</ele><time>2026-03-22T10:57:44.964Z</time></trkpt><trkpt lat="43.61218791816938" lon="11.052398802108495"><ele>89.0</ele><time>2026-03-22T10:57:56.964Z</time></trkpt><trkpt lat="43.61226704475732" lon="11.052434083348668"><ele>89.0</ele><time>2026-03-22T10:57:57.964Z</time></trkpt><trkpt lat="43.61238449644363" lon="11.052504466599608"><ele>89.0</ele><time>2026-03-22T10:57:58.964Z</time></trkpt><trkpt lat="43.612487178340984" lon="11.052595068844576"><ele>89.0</ele><time>2026-03-22T10:57:59.964Z</time></trkpt><trkpt lat="43.61256580687634" lon="11.052641577125625"><ele>89.0</ele><time>2026-03-22T10:58:00.964Z</time></trkpt><trkpt lat="43.61260756017625" lon="11.052575704412243"><ele>89.0</ele><time>2026-03-22T10:58:04.964Z</time></trkpt><trkpt lat="43.61252033514996" lon="11.052574207527352"><ele>89.0</ele><time>2026-03-22T10:58:24.963Z</time></trkpt><trkpt lat="43.612389457545795" lon="11.052475122042642"><ele>89.0</ele><time>2026-03-22T10:58:26.963Z</time></trkpt><trkpt lat="43.61231064120583" lon="11.052411008235627"><ele>89.0</ele><time>2026-03-22T10:58:27.963Z</time></trkpt><trkpt lat="43.61223260776977" lon="11.052360855059758"><ele>89.0</ele><time>2026-03-22T10:58:28.963Z</time></trkpt><trkpt lat="43.61216062865491" lon="11.0523162549255"><ele>89.0</ele><time>2026-03-22T10:58:29.963Z</time></trkpt><trkpt lat="43.61209127690586" lon="11.05228533591681"><ele>89.0</ele><time>2026-03-22T10:58:30.963Z</time></trkpt><trkpt lat="43.61201566242473" lon="11.052257986860086"><ele>89.0</ele><time>2026-03-22T10:58:31.963Z</time></trkpt><trkpt lat="43.61194663036182" lon="11.052232802855265"><ele>89.0</ele><time>2026-03-22T10:58:32.963Z</time></trkpt><trkpt lat="43.61187918928942" lon="11.05221271187297"><ele>89.0</ele><time>2026-03-22T10:58:33.963Z</time></trkpt><trkpt lat="43.61176355968775" lon="11.05222215850148"><ele>89.0</ele><time>2026-03-22T10:58:35.963Z</time></trkpt><trkpt lat="43.61170663021303" lon="11.052271704426976"><ele>89.0</ele><time>2026-03-22T10:58:36.963Z</time></trkpt><trkpt lat="43.61164019988843" lon="11.052339830515688"><ele>88.4</ele><time>2026-03-22T10:58:37.963Z</time></trkpt><trkpt lat="43.61156360171658" lon="11.052432855253606"><ele>87.80000000000001</ele><time>2026-03-22T10:58:38.963Z</time></trkpt><trkpt lat="43.61148864719187" lon="11.0525348950508"><ele>87.19999999999999</ele><time>2026-03-22T10:58:39.963Z</time></trkpt><trkpt lat="43.61138620007307" lon="11.05262031392352"><ele>86.6</ele><time>2026-03-22T10:58:40.963Z</time></trkpt><trkpt lat="43.6112780715202" lon="11.052679280056658"><ele>86.0</ele><time>2026-03-22T10:58:41.963Z</time></trkpt><trkpt lat="43.61117434690266" lon="11.052685728905749"><ele>86.25</ele><time>2026-03-22T10:58:42.963Z</time></trkpt><trkpt lat="43.61106244279789" lon="11.052679168340013"><ele>86.5</ele><time>2026-03-22T10:58:43.963Z</time></trkpt><trkpt lat="43.61094439456212" lon="11.052666075128268"><ele>86.75</ele><time>2026-03-22T10:58:44.963Z</time></trkpt><trkpt lat="43.61082317303072" lon="11.052654880127566"><ele>87.0</ele><time>2026-03-22T10:58:45.963Z</time></trkpt><trkpt lat="43.61069520559438" lon="11.052648782496004"><ele>87.0</ele><time>2026-03-22T10:58:46.963Z</time></trkpt><trkpt lat="43.610565032970335" lon="11.052649088320699"><ele>87.0</ele><time>2026-03-22T10:58:47.963Z</time></trkpt><trkpt lat="43.610436525673265" lon="11.052675315782079"><ele>87.0</ele><time>2026-03-22T10:58:48.963Z</time></trkpt><trkpt lat="43.610306926218115" lon="11.052727540396651"><ele>87.0</ele><time>2026-03-22T10:58:49.963Z</time></trkpt><trkpt lat="43.61017077945297" lon="11.052780361293161"><ele>89.0</ele><time>2026-03-22T10:58:50.964Z</time></trkpt><trkpt lat="43.6100414833596" lon="11.052820342987307"><ele>91.0</ele><time>2026-03-22T10:58:51.964Z</time></trkpt><trkpt lat="43.60990418134938" lon="11.052842315547673"><ele>93.0</ele><time>2026-03-22T10:58:52.964Z</time></trkpt><trkpt lat="43.60977288728575" lon="11.052802372302281"><ele>95.0</ele><time>2026-03-22T10:58:53.964Z</time></trkpt><trkpt lat="43.60962986106813" lon="11.052826886972243"><ele>95.0</ele><time>2026-03-22T10:58:54.965Z</time></trkpt><trkpt lat="43.609507368341866" lon="11.052851720630233"><ele>95.0</ele><time>2026-03-22T10:58:55.965Z</time></trkpt><trkpt lat="43.609408292659964" lon="11.052905723660217"><ele>95.0</ele><time>2026-03-22T10:58:56.965Z</time></trkpt><trkpt lat="43.60934738100277" lon="11.052952248583702"><ele>95.0</ele><time>2026-03-22T10:58:57.964Z</time></trkpt><trkpt lat="43.609323313659765" lon="11.053052667609192"><ele>95.0</ele><time>2026-03-22T10:58:58.964Z</time></trkpt><trkpt lat="43.60930471092344" lon="11.053141482952654"><ele>95.0</ele><time>2026-03-22T10:58:59.965Z</time></trkpt><trkpt lat="43.60935190474408" lon="11.053241529791476"><ele>98.33333333333334</ele><time>2026-03-22T10:59:00.965Z</time></trkpt><trkpt lat="43.60935647361548" lon="11.053358515746504"><ele>101.66666666666667</ele><time>2026-03-22T10:59:01.965Z</time></trkpt><trkpt lat="43.60936272298424" lon="11.053468122270571"><ele>105.0</ele><time>2026-03-22T10:59:02.965Z</time></trkpt><trkpt lat="43.60934085431826" lon="11.053578093164203"><ele>108.33333333333334</ele><time>2026-03-22T10:59:03.964Z</time></trkpt><trkpt lat="43.60929056519443" lon="11.053648284794072"><ele>111.66666666666667</ele><time>2026-03-22T10:59:04.964Z</time></trkpt><trkpt lat="43.60921503803886" lon="11.053718651273064"><ele>115.0</ele><time>2026-03-22T10:59:05.964Z</time></trkpt><trkpt lat="43.60912673311876" lon="11.053810794317215"><ele>115.0</ele><time>2026-03-22T10:59:06.964Z</time></trkpt><trkpt lat="43.60901851517732" lon="11.053931562094395"><ele>115.0</ele><time>2026-03-22T10:59:07.964Z</time></trkpt><trkpt lat="43.60888697215365" lon="11.054151290144583"><ele>115.0</ele><time>2026-03-22T10:59:08.964Z</time></trkpt><trkpt lat="43.608756168055685" lon="11.054322167659361"><ele>120.75</ele><time>2026-03-22T10:59:09.964Z</time></trkpt><trkpt lat="43.60864283662715" lon="11.054464854648122"><ele>126.5</ele><time>2026-03-22T10:59:10.964Z</time></trkpt><trkpt lat="43.60854013705422" lon="11.054572805442858"><ele>132.25</ele><time>2026-03-22T10:59:11.964Z</time></trkpt><trkpt lat="43.60845017002954" lon="11.054670182783742"><ele>138.0</ele><time>2026-03-22T10:59:12.964Z</time></trkpt><trkpt lat="43.608349466892236" lon="11.054773066613228"><ele>138.0</ele><time>2026-03-22T10:59:13.964Z</time></trkpt><trkpt lat="43.60823489880977" lon="11.054861551792245"><ele>138.0</ele><time>2026-03-22T10:59:14.964Z</time></trkpt><trkpt lat="43.60812811693809" lon="11.054927957692342"><ele>138.0</ele><time>2026-03-22T10:59:15.964Z</time></trkpt><trkpt lat="43.608021664313775" lon="11.0549760798807"><ele>138.0</ele><time>2026-03-22T10:59:16.964Z</time></trkpt><trkpt lat="43.60791792362583" lon="11.055020357482697"><ele>139.25</ele><time>2026-03-22T10:59:17.964Z</time></trkpt><trkpt lat="43.60781467401164" lon="11.055060209222866"><ele>140.5</ele><time>2026-03-22T10:59:18.964Z</time></trkpt><trkpt lat="43.60769561245034" lon="11.055070439017777"><ele>141.75</ele><time>2026-03-22T10:59:19.964Z</time></trkpt><trkpt lat="43.60758164289488" lon="11.055079281350444"><ele>143.0</ele><time>2026-03-22T10:59:20.964Z</time></trkpt><trkpt lat="43.60745773989471" lon="11.055035286569295"><ele>143.0</ele><time>2026-03-22T10:59:21.964Z</time></trkpt><trkpt lat="43.60732609316363" lon="11.054987170207774"><ele>143.0</ele><time>2026-03-22T10:59:22.964Z</time></trkpt><trkpt lat="43.607191555597744" lon="11.054938841761889"><ele>143.0</ele><time>2026-03-22T10:59:23.964Z</time></trkpt><trkpt lat="43.607056197228" lon="11.05489093612428"><ele>143.0</ele><time>2026-03-22T10:59:24.964Z</time></trkpt><trkpt lat="43.6069215985057" lon="11.05484228589699"><ele>146.5</ele><time>2026-03-22T10:59:25.964Z</time></trkpt><trkpt lat="43.60681864643893" lon="11.054792630673784"><ele>150.0</ele><time>2026-03-22T10:59:26.964Z</time></trkpt><trkpt lat="43.60671650935692" lon="11.054722396627959"><ele>153.5</ele><time>2026-03-22T10:59:27.964Z</time></trkpt><trkpt lat="43.60660500424059" lon="11.054641049788575"><ele>157.0</ele><time>2026-03-22T10:59:28.964Z</time></trkpt><trkpt lat="43.60648573335386" lon="11.05456430538511"><ele>157.0</ele><time>2026-03-22T10:59:29.964Z</time></trkpt><trkpt lat="43.60637375012925" lon="11.054479371009645"><ele>157.0</ele><time>2026-03-22T10:59:30.964Z</time></trkpt><trkpt lat="43.60626085792351" lon="11.054388130615783"><ele>157.0</ele><time>2026-03-22T10:59:31.964Z</time></trkpt><trkpt lat="43.606169574483" lon="11.054296365506048"><ele>157.0</ele><time>2026-03-22T10:59:32.964Z</time></trkpt><trkpt lat="43.60609640093951" lon="11.054200560414591"><ele>159.8</ele><time>2026-03-22T10:59:33.964Z</time></trkpt><trkpt lat="43.606035812371964" lon="11.054105062999295"><ele>162.6</ele><time>2026-03-22T10:59:34.964Z</time></trkpt><trkpt lat="43.60597847852553" lon="11.053980875718338"><ele>165.4</ele><time>2026-03-22T10:59:35.964Z</time></trkpt><trkpt lat="43.60591488063547" lon="11.053878215476287"><ele>168.20000000000002</ele><time>2026-03-22T10:59:36.964Z</time></trkpt><trkpt lat="43.60584182532371" lon="11.053802366878896"><ele>171.0</ele><time>2026-03-22T10:59:37.964Z</time></trkpt><trkpt lat="43.605765176002826" lon="11.053747637876752"><ele>171.0</ele><time>2026-03-22T10:59:38.964Z</time></trkpt><trkpt lat="43.60569476959919" lon="11.053727437554718"><ele>171.0</ele><time>2026-03-22T10:59:39.963Z</time></trkpt><trkpt lat="43.60560167215787" lon="11.053688439109624"><ele>171.0</ele><time>2026-03-22T10:59:41.963Z</time></trkpt><trkpt lat="43.605537600713966" lon="11.053659742305861"><ele>171.0</ele><time>2026-03-22T10:59:42.963Z</time></trkpt><trkpt lat="43.60545721361537" lon="11.053626272261795"><ele>171.0</ele><time>2026-03-22T10:59:43.963Z</time></trkpt><trkpt lat="43.60536373877991" lon="11.053586414545096"><ele>171.0</ele><time>2026-03-22T10:59:44.963Z</time></trkpt><trkpt lat="43.605265762678734" lon="11.05354009726812"><ele>174.0</ele><time>2026-03-22T10:59:45.963Z</time></trkpt><trkpt lat="43.605158215620484" lon="11.053488717537594"><ele>177.0</ele><time>2026-03-22T10:59:46.963Z</time></trkpt><trkpt lat="43.60504438250664" lon="11.053432967248028"><ele>180.0</ele><time>2026-03-22T10:59:47.963Z</time></trkpt><trkpt lat="43.60492277897558" lon="11.053378326273524"><ele>183.0</ele><time>2026-03-22T10:59:48.962Z</time></trkpt><trkpt lat="43.60481753801759" lon="11.053329636071206"><ele>183.0</ele><time>2026-03-22T10:59:49.96Z</time></trkpt><trkpt lat="43.60472518639016" lon="11.053292694920197"><ele>183.0</ele><time>2026-03-22T10:59:50.958Z</time></trkpt><trkpt lat="43.604642601889154" lon="11.053250841156222"><ele>183.0</ele><time>2026-03-22T10:59:51.957Z</time></trkpt><trkpt lat="43.60456699605011" lon="11.053216968479466"><ele>183.0</ele><time>2026-03-22T10:59:52.955Z</time></trkpt><trkpt lat="43.60448171644856" lon="11.053175595098368"><ele>183.0</ele><time>2026-03-22T10:59:53.954Z</time></trkpt><trkpt lat="43.60439453679" lon="11.053124542683149"><ele>183.0</ele><time>2026-03-22T10:59:54.953Z</time></trkpt><trkpt lat="43.60430119364554" lon="11.053069153159973"><ele>182.5</ele><time>2026-03-22T10:59:55.951Z</time></trkpt><trkpt lat="43.60420961553005" lon="11.053018823191302"><ele>182.0</ele><time>2026-03-22T10:59:56.95Z</time></trkpt><trkpt lat="43.60412590225366" lon="11.052973240368829"><ele>181.5</ele><time>2026-03-22T10:59:57.949Z</time></trkpt><trkpt lat="43.604045453901584" lon="11.052945293420615"><ele>181.0</ele><time>2026-03-22T10:59:58.948Z</time></trkpt><trkpt lat="43.603972005429654" lon="11.052926766080335"><ele>180.5</ele><time>2026-03-22T10:59:59.947Z</time></trkpt><trkpt lat="43.60390085732819" lon="11.05293111297167"><ele>180.0</ele><time>2026-03-22T11:00:00.946Z</time></trkpt><trkpt lat="43.60382118974967" lon="11.05293566759842"><ele>180.0</ele><time>2026-03-22T11:00:01.946Z</time></trkpt><trkpt lat="43.60373631478208" lon="11.052963023172616"><ele>180.0</ele><time>2026-03-22T11:00:02.945Z</time></trkpt><trkpt lat="43.603640543211746" lon="11.053013090234813"><ele>180.0</ele><time>2026-03-22T11:00:03.944Z</time></trkpt><trkpt lat="43.603552625865994" lon="11.053072052463781"><ele>180.0</ele><time>2026-03-22T11:00:04.943Z</time></trkpt><trkpt lat="43.60346426983957" lon="11.053118835934303"><ele>180.0</ele><time>2026-03-22T11:00:05.943Z</time></trkpt><trkpt lat="43.603380838637634" lon="11.053170790290826"><ele>180.33333333333334</ele><time>2026-03-22T11:00:06.942Z</time></trkpt><trkpt lat="43.60331306009945" lon="11.053237515076404"><ele>180.66666666666666</ele><time>2026-03-22T11:00:07.942Z</time></trkpt><trkpt lat="43.60324463882743" lon="11.053327382398729"><ele>181.0</ele><time>2026-03-22T11:00:08.941Z</time></trkpt><trkpt lat="43.603186560556594" lon="11.053396096041388"><ele>181.33333333333331</ele><time>2026-03-22T11:00:09.941Z</time></trkpt><trkpt lat="43.60312076640805" lon="11.053473964632179"><ele>181.66666666666666</ele><time>2026-03-22T11:00:10.94Z</time></trkpt><trkpt lat="43.60304656510648" lon="11.053548298374093"><ele>182.0</ele><time>2026-03-22T11:00:11.94Z</time></trkpt><trkpt lat="43.60298063289881" lon="11.05362756190978"><ele>182.0</ele><time>2026-03-22T11:00:12.939Z</time></trkpt><trkpt lat="43.60291032462116" lon="11.053708152235975"><ele>182.0</ele><time>2026-03-22T11:00:13.939Z</time></trkpt><trkpt lat="43.60283779399535" lon="11.05379359851455"><ele>182.0</ele><time>2026-03-22T11:00:14.938Z</time></trkpt><trkpt lat="43.60276302931068" lon="11.053875172460312"><ele>182.0</ele><time>2026-03-22T11:00:15.938Z</time></trkpt><trkpt lat="43.602678179000655" lon="11.05397022048281"><ele>182.0</ele><time>2026-03-22T11:00:16.938Z</time></trkpt><trkpt lat="43.60259923553187" lon="11.054054480205972"><ele>181.6</ele><time>2026-03-22T11:00:17.937Z</time></trkpt><trkpt lat="43.60251411362425" lon="11.054153050359178"><ele>181.2</ele><time>2026-03-22T11:00:18.937Z</time></trkpt><trkpt lat="43.60243069458415" lon="11.05425007791417"><ele>180.8</ele><time>2026-03-22T11:00:19.937Z</time></trkpt><trkpt lat="43.60235388788438" lon="11.054359992519931"><ele>180.4</ele><time>2026-03-22T11:00:20.937Z</time></trkpt><trkpt lat="43.60226092090526" lon="11.054442364731209"><ele>180.0</ele><time>2026-03-22T11:00:21.936Z</time></trkpt><trkpt lat="43.60222907648871" lon="11.05457714447485"><ele>180.0</ele><time>2026-03-22T11:00:22.936Z</time></trkpt><trkpt lat="43.602220933828" lon="11.05472397427547"><ele>180.0</ele><time>2026-03-22T11:00:23.936Z</time></trkpt><trkpt lat="43.602215056137936" lon="11.054862386128535"><ele>180.0</ele><time>2026-03-22T11:00:24.936Z</time></trkpt><trkpt lat="43.60218944435265" lon="11.054979218750063"><ele>180.0</ele><time>2026-03-22T11:00:25.935Z</time></trkpt><trkpt lat="43.60215811904293" lon="11.055073227543225"><ele>180.0</ele><time>2026-03-22T11:00:26.935Z</time></trkpt><trkpt lat="43.602128271736234" lon="11.055151817464147"><ele>180.0</ele><time>2026-03-22T11:00:27.935Z</time></trkpt><trkpt lat="43.602087784691676" lon="11.055238522950395"><ele>180.8</ele><time>2026-03-22T11:00:29.935Z</time></trkpt><trkpt lat="43.60201990021253" lon="11.055403585882265"><ele>181.6</ele><time>2026-03-22T11:00:31.934Z</time></trkpt><trkpt lat="43.6019795550681" lon="11.055496791175225"><ele>182.39999999999998</ele><time>2026-03-22T11:00:32.934Z</time></trkpt><trkpt lat="43.60192056264026" lon="11.055624713986635"><ele>183.2</ele><time>2026-03-22T11:00:33.934Z</time></trkpt><trkpt lat="43.60188286289384" lon="11.055750619267737"><ele>184.0</ele><time>2026-03-22T11:00:34.934Z</time></trkpt><trkpt lat="43.60182395091631" lon="11.055852969095309"><ele>185.0</ele><time>2026-03-22T11:00:35.934Z</time></trkpt><trkpt lat="43.60176116213466" lon="11.055934422325942"><ele>186.0</ele><time>2026-03-22T11:00:36.934Z</time></trkpt><trkpt lat="43.601689830244545" lon="11.056001985089528"><ele>187.0</ele><time>2026-03-22T11:00:37.934Z</time></trkpt><trkpt lat="43.601609611734716" lon="11.056062621001784"><ele>188.0</ele><time>2026-03-22T11:00:38.934Z</time></trkpt><trkpt lat="43.60153873483379" lon="11.056112463842485"><ele>189.0</ele><time>2026-03-22T11:00:39.934Z</time></trkpt><trkpt lat="43.60146374949705" lon="11.056167599125464"><ele>190.0</ele><time>2026-03-22T11:00:40.933Z</time></trkpt><trkpt lat="43.60137332913683" lon="11.056234639388519"><ele>190.0</ele><time>2026-03-22T11:00:41.933Z</time></trkpt><trkpt lat="43.60127238629312" lon="11.05630906444499"><ele>190.0</ele><time>2026-03-22T11:00:42.933Z</time></trkpt><trkpt lat="43.60117407744426" lon="11.056385766777627"><ele>190.0</ele><time>2026-03-22T11:00:43.933Z</time></trkpt><trkpt lat="43.60107758120612" lon="11.05647411987267"><ele>190.0</ele><time>2026-03-22T11:00:44.933Z</time></trkpt><trkpt lat="43.6009851968354" lon="11.056538476065803"><ele>190.0</ele><time>2026-03-22T11:00:45.933Z</time></trkpt><trkpt lat="43.600897104227386" lon="11.056608834644845"><ele>189.16666666666669</ele><time>2026-03-22T11:00:46.933Z</time></trkpt><trkpt lat="43.60081552005015" lon="11.05665885219655"><ele>188.33333333333334</ele><time>2026-03-22T11:00:47.933Z</time></trkpt><trkpt lat="43.60074376805156" lon="11.056694897734365"><ele>187.5</ele><time>2026-03-22T11:00:48.933Z</time></trkpt><trkpt lat="43.600667040125714" lon="11.056686012687793"><ele>186.66666666666666</ele><time>2026-03-22T11:00:49.933Z</time></trkpt><trkpt lat="43.60059144347634" lon="11.056737845681518"><ele>185.83333333333331</ele><time>2026-03-22T11:00:51.933Z</time></trkpt><trkpt lat="43.60053161628445" lon="11.056781132136134"><ele>185.0</ele><time>2026-03-22T11:00:53.932Z</time></trkpt><trkpt lat="43.600473649888976" lon="11.056823071244176"><ele>185.0</ele><time>2026-03-22T11:00:55.932Z</time></trkpt><trkpt lat="43.60037723784576" lon="11.05690803711534"><ele>185.0</ele><time>2026-03-22T11:00:57.935Z</time></trkpt><trkpt lat="43.60031036262339" lon="11.056966751939079"><ele>185.0</ele><time>2026-03-22T11:00:58.935Z</time></trkpt><trkpt lat="43.60024103115804" lon="11.057027482128756"><ele>185.0</ele><time>2026-03-22T11:00:59.934Z</time></trkpt><trkpt lat="43.60019002483499" lon="11.057107595654925"><ele>185.0</ele><time>2026-03-22T11:01:00.934Z</time></trkpt><trkpt lat="43.60012427214949" lon="11.057165257050254"><ele>185.0</ele><time>2026-03-22T11:01:01.934Z</time></trkpt><trkpt lat="43.600014614019905" lon="11.057268297737748"><ele>185.0</ele><time>2026-03-22T11:01:03.934Z</time></trkpt><trkpt lat="43.59993628573846" lon="11.057356626138406"><ele>185.0</ele><time>2026-03-22T11:01:05.934Z</time></trkpt><trkpt lat="43.59985257766372" lon="11.057429621875398"><ele>185.0</ele><time>2026-03-22T11:01:07.934Z</time></trkpt><trkpt lat="43.599779140914535" lon="11.057489976443104"><ele>185.0</ele><time>2026-03-22T11:01:09.934Z</time></trkpt><trkpt lat="43.59972446904197" lon="11.057535751956873"><ele>185.0</ele><time>2026-03-22T11:01:11.934Z</time></trkpt><trkpt lat="43.5996496448083" lon="11.057587463908172"><ele>185.0</ele><time>2026-03-22T11:03:08.933Z</time></trkpt><trkpt lat="43.59956557189955" lon="11.057657002224238"><ele>182.5</ele><time>2026-03-22T11:03:10.932Z</time></trkpt><trkpt lat="43.59947745667035" lon="11.057727389564484"><ele>180.0</ele><time>2026-03-22T11:03:12.932Z</time></trkpt><trkpt lat="43.59940320826535" lon="11.057792842818127"><ele>177.5</ele><time>2026-03-22T11:03:14.933Z</time></trkpt><trkpt lat="43.59932367195143" lon="11.057832877528385"><ele>175.0</ele><time>2026-03-22T11:03:16.933Z</time></trkpt><trkpt lat="43.599259287258675" lon="11.057893584792488"><ele>172.5</ele><time>2026-03-22T11:03:18.933Z</time></trkpt><trkpt lat="43.599184906262394" lon="11.057945959201502"><ele>170.0</ele><time>2026-03-22T11:03:20.933Z</time></trkpt><trkpt lat="43.59910318237014" lon="11.058014162169373"><ele>170.0</ele><time>2026-03-22T11:03:22.933Z</time></trkpt><trkpt lat="43.599018108694615" lon="11.058056385964985"><ele>170.0</ele><time>2026-03-22T11:03:24.933Z</time></trkpt><trkpt lat="43.59892159952573" lon="11.058086055806248"><ele>170.0</ele><time>2026-03-22T11:03:26.932Z</time></trkpt><trkpt lat="43.59885962179014" lon="11.058101948097276"><ele>170.0</ele><time>2026-03-22T11:03:27.932Z</time></trkpt><trkpt lat="43.59875746407927" lon="11.058101991322392"><ele>170.0</ele><time>2026-03-22T11:03:29.932Z</time></trkpt><trkpt lat="43.59868983881887" lon="11.058088034814634"><ele>170.0</ele><time>2026-03-22T11:03:30.932Z</time></trkpt><trkpt lat="43.598625675947126" lon="11.058078108114486"><ele>168.0</ele><time>2026-03-22T11:03:31.932Z</time></trkpt><trkpt lat="43.598561137373075" lon="11.058060445003902"><ele>166.0</ele><time>2026-03-22T11:03:32.932Z</time></trkpt><trkpt lat="43.59849153677033" lon="11.058046536591435"><ele>164.0</ele><time>2026-03-22T11:03:33.932Z</time></trkpt><trkpt lat="43.59842580479196" lon="11.058028649718052"><ele>162.0</ele><time>2026-03-22T11:03:34.932Z</time></trkpt><trkpt lat="43.598361471987" lon="11.05801614281344"><ele>160.0</ele><time>2026-03-22T11:03:35.932Z</time></trkpt><trkpt lat="43.5982641728722" lon="11.05797491908744"><ele>158.0</ele><time>2026-03-22T11:03:37.932Z</time></trkpt><trkpt lat="43.59819676336017" lon="11.057945295145126"><ele>156.0</ele><time>2026-03-22T11:03:38.932Z</time></trkpt><trkpt lat="43.598087380422086" lon="11.057873314544434"><ele>156.0</ele><time>2026-03-22T11:03:40.932Z</time></trkpt><trkpt lat="43.59796846452324" lon="11.057837010449319"><ele>156.0</ele><time>2026-03-22T11:03:42.932Z</time></trkpt><trkpt lat="43.597886865439804" lon="11.057820378273851"><ele>156.0</ele><time>2026-03-22T11:03:43.932Z</time></trkpt><trkpt lat="43.59780241842552" lon="11.057818049202247"><ele>156.0</ele><time>2026-03-22T11:03:44.932Z</time></trkpt><trkpt lat="43.59771851031582" lon="11.057815081324781"><ele>156.0</ele><time>2026-03-22T11:03:45.932Z</time></trkpt><trkpt lat="43.59762276673544" lon="11.057816400738364"><ele>156.16666666666666</ele><time>2026-03-22T11:03:46.932Z</time></trkpt><trkpt lat="43.59754450634049" lon="11.057815053806749"><ele>156.33333333333334</ele><time>2026-03-22T11:03:47.932Z</time></trkpt><trkpt lat="43.597469819100475" lon="11.057811241337395"><ele>156.5</ele><time>2026-03-22T11:03:48.932Z</time></trkpt><trkpt lat="43.59739490451469" lon="11.057806303158012"><ele>156.66666666666669</ele><time>2026-03-22T11:03:49.932Z</time></trkpt><trkpt lat="43.5973144770493" lon="11.05780852195989"><ele>156.83333333333334</ele><time>2026-03-22T11:03:50.932Z</time></trkpt><trkpt lat="43.59723410920589" lon="11.057830935344393"><ele>157.0</ele><time>2026-03-22T11:03:51.932Z</time></trkpt><trkpt lat="43.59715051775415" lon="11.057863699214018"><ele>157.0</ele><time>2026-03-22T11:03:52.932Z</time></trkpt><trkpt lat="43.59708622784366" lon="11.05789990593577"><ele>157.0</ele><time>2026-03-22T11:03:53.932Z</time></trkpt><trkpt lat="43.597015025063826" lon="11.057939234825302"><ele>157.0</ele><time>2026-03-22T11:03:54.932Z</time></trkpt><trkpt lat="43.59694248195369" lon="11.057983924450859"><ele>157.0</ele><time>2026-03-22T11:03:55.932Z</time></trkpt><trkpt lat="43.59683803975073" lon="11.058068219656787"><ele>157.0</ele><time>2026-03-22T11:03:57.931Z</time></trkpt><trkpt lat="43.59676866683149" lon="11.058125752288035"><ele>157.0</ele><time>2026-03-22T11:03:58.931Z</time></trkpt><trkpt lat="43.59670144340588" lon="11.058187501499427"><ele>157.6</ele><time>2026-03-22T11:03:59.931Z</time></trkpt><trkpt lat="43.596634285294456" lon="11.05824797076172"><ele>158.2</ele><time>2026-03-22T11:04:00.931Z</time></trkpt><trkpt lat="43.59655944344547" lon="11.058316315032402"><ele>158.8</ele><time>2026-03-22T11:04:01.931Z</time></trkpt><trkpt lat="43.59648121900594" lon="11.058400814914936"><ele>159.4</ele><time>2026-03-22T11:04:02.931Z</time></trkpt><trkpt lat="43.59640309454672" lon="11.058495405647879"><ele>160.0</ele><time>2026-03-22T11:04:03.931Z</time></trkpt><trkpt lat="43.59632531742172" lon="11.058575467008444"><ele>160.0</ele><time>2026-03-22T11:04:04.931Z</time></trkpt><trkpt lat="43.596246035438924" lon="11.058655811351898"><ele>160.0</ele><time>2026-03-22T11:04:05.931Z</time></trkpt><trkpt lat="43.5961671363991" lon="11.058728796464985"><ele>160.0</ele><time>2026-03-22T11:04:06.931Z</time></trkpt><trkpt lat="43.59609818469136" lon="11.058797654599275"><ele>160.0</ele><time>2026-03-22T11:04:07.931Z</time></trkpt><trkpt lat="43.59602560781506" lon="11.05886934934314"><ele>160.0</ele><time>2026-03-22T11:04:08.931Z</time></trkpt><trkpt lat="43.59596050964155" lon="11.05894419362507"><ele>159.33333333333334</ele><time>2026-03-22T11:04:09.931Z</time></trkpt><trkpt lat="43.59591872623306" lon="11.059027904685665"><ele>158.66666666666669</ele><time>2026-03-22T11:04:10.931Z</time></trkpt><trkpt lat="43.595880378872316" lon="11.059130483822097"><ele>158.0</ele><time>2026-03-22T11:04:11.931Z</time></trkpt><trkpt lat="43.595845077069605" lon="11.059252309520323"><ele>157.33333333333334</ele><time>2026-03-22T11:04:12.931Z</time></trkpt><trkpt lat="43.59581280418194" lon="11.059382576961452"><ele>156.66666666666666</ele><time>2026-03-22T11:04:13.931Z</time></trkpt><trkpt lat="43.59578127984765" lon="11.05950643151979"><ele>156.0</ele><time>2026-03-22T11:04:14.931Z</time></trkpt><trkpt lat="43.59574829449651" lon="11.05962816771049"><ele>157.8</ele><time>2026-03-22T11:04:15.931Z</time></trkpt><trkpt lat="43.59566284263823" lon="11.059729389236326"><ele>159.6</ele><time>2026-03-22T11:04:16.931Z</time></trkpt><trkpt lat="43.5956247129764" lon="11.059852727195183"><ele>161.4</ele><time>2026-03-22T11:04:17.931Z</time></trkpt><trkpt lat="43.59558625987014" lon="11.05997711135867"><ele>163.2</ele><time>2026-03-22T11:04:18.931Z</time></trkpt><trkpt lat="43.59560489922839" lon="11.060120915125013"><ele>165.0</ele><time>2026-03-22T11:04:19.931Z</time></trkpt><trkpt lat="43.59553271802446" lon="11.060227952648832"><ele>167.0</ele><time>2026-03-22T11:04:21.931Z</time></trkpt><trkpt lat="43.59555696751611" lon="11.060406296779131"><ele>169.0</ele><time>2026-03-22T11:04:23.931Z</time></trkpt><trkpt lat="43.595640804942896" lon="11.060466290994379"><ele>171.0</ele><time>2026-03-22T11:04:24.931Z</time></trkpt><trkpt lat="43.59568981413836" lon="11.060539261909671"><ele>173.0</ele><time>2026-03-22T11:04:25.931Z</time></trkpt><trkpt lat="43.59574276573418" lon="11.060622798057274"><ele>175.0</ele><time>2026-03-22T11:04:26.931Z</time></trkpt><trkpt lat="43.59580772391281" lon="11.060701093597425"><ele>176.5</ele><time>2026-03-22T11:04:27.93Z</time></trkpt><trkpt lat="43.595865144199365" lon="11.060790278660457"><ele>178.0</ele><time>2026-03-22T11:04:28.93Z</time></trkpt><trkpt lat="43.59592273732345" lon="11.060878526299282"><ele>179.5</ele><time>2026-03-22T11:04:29.93Z</time></trkpt><trkpt lat="43.595984404291634" lon="11.060955560152479"><ele>181.0</ele><time>2026-03-22T11:04:30.93Z</time></trkpt><trkpt lat="43.59604316471671" lon="11.061035914283343"><ele>182.5</ele><time>2026-03-22T11:04:31.93Z</time></trkpt><trkpt lat="43.59609883836976" lon="11.061108076543995"><ele>184.0</ele><time>2026-03-22T11:04:32.93Z</time></trkpt><trkpt lat="43.596134190540994" lon="11.061188150775928"><ele>184.0</ele><time>2026-03-22T11:04:33.93Z</time></trkpt><trkpt lat="43.59616314204019" lon="11.061268060547746"><ele>184.0</ele><time>2026-03-22T11:04:34.93Z</time></trkpt><trkpt lat="43.59617432934192" lon="11.061378364968014"><ele>184.0</ele><time>2026-03-22T11:04:35.93Z</time></trkpt><trkpt lat="43.596175699873086" lon="11.061466127852661"><ele>184.0</ele><time>2026-03-22T11:04:36.93Z</time></trkpt><trkpt lat="43.59615782300037" lon="11.061557326527145"><ele>184.0</ele><time>2026-03-22T11:04:37.93Z</time></trkpt><trkpt lat="43.59613668076579" lon="11.061643442750364"><ele>184.0</ele><time>2026-03-22T11:04:38.93Z</time></trkpt><trkpt lat="43.596044514092114" lon="11.061754054739165"><ele>184.0</ele><time>2026-03-22T11:04:40.93Z</time></trkpt><trkpt lat="43.59597443718631" lon="11.061757113591538"><ele>184.0</ele><time>2026-03-22T11:04:41.93Z</time></trkpt><trkpt lat="43.595878103524754" lon="11.061707590865002"><ele>184.0</ele><time>2026-03-22T11:04:43.93Z</time></trkpt><trkpt lat="43.59580688282733" lon="11.061685960785688"><ele>184.0</ele><time>2026-03-22T11:04:44.93Z</time></trkpt><trkpt lat="43.59573176708705" lon="11.061664210356401"><ele>184.0</ele><time>2026-03-22T11:04:45.93Z</time></trkpt><trkpt lat="43.59566218417827" lon="11.061645769688171"><ele>184.0</ele><time>2026-03-22T11:04:46.93Z</time></trkpt><trkpt lat="43.595603455711014" lon="11.061611021372332"><ele>184.0</ele><time>2026-03-22T11:04:47.93Z</time></trkpt><trkpt lat="43.59554950559354" lon="11.061559113854633"><ele>184.0</ele><time>2026-03-22T11:04:48.93Z</time></trkpt><trkpt lat="43.59550232366183" lon="11.061501359209256"><ele>184.0</ele><time>2026-03-22T11:04:49.93Z</time></trkpt><trkpt lat="43.59545520552132" lon="11.061422968827564"><ele>184.0</ele><time>2026-03-22T11:04:50.93Z</time></trkpt><trkpt lat="43.595407144993025" lon="11.061344201549172"><ele>184.0</ele><time>2026-03-22T11:04:51.93Z</time></trkpt><trkpt lat="43.59535732748884" lon="11.06126519485593"><ele>184.0</ele><time>2026-03-22T11:04:52.93Z</time></trkpt><trkpt lat="43.595308788550696" lon="11.06119214179378"><ele>184.0</ele><time>2026-03-22T11:04:53.93Z</time></trkpt><trkpt lat="43.59525794139205" lon="11.061139853420322"><ele>186.66666666666669</ele><time>2026-03-22T11:04:54.93Z</time></trkpt><trkpt lat="43.595198960833095" lon="11.061094762749862"><ele>189.33333333333334</ele><time>2026-03-22T11:04:55.93Z</time></trkpt><trkpt lat="43.59512588426453" lon="11.061070866327343"><ele>192.0</ele><time>2026-03-22T11:04:56.93Z</time></trkpt><trkpt lat="43.595053268720726" lon="11.06105780404446"><ele>194.66666666666669</ele><time>2026-03-22T11:04:57.929Z</time></trkpt><trkpt lat="43.594972365081986" lon="11.061054924006035"><ele>197.33333333333334</ele><time>2026-03-22T11:04:58.929Z</time></trkpt><trkpt lat="43.59488271114955" lon="11.06104265597034"><ele>200.0</ele><time>2026-03-22T11:04:59.929Z</time></trkpt><trkpt lat="43.59479879413255" lon="11.061061004286264"><ele>200.0</ele><time>2026-03-22T11:05:00.929Z</time></trkpt><trkpt lat="43.59470644939138" lon="11.06110964349271"><ele>200.0</ele><time>2026-03-22T11:05:02.929Z</time></trkpt><trkpt lat="43.594575533606395" lon="11.061179724311339"><ele>200.0</ele><time>2026-03-22T11:05:04.929Z</time></trkpt><trkpt lat="43.59449377711964" lon="11.061205972955266"><ele>200.0</ele><time>2026-03-22T11:05:05.929Z</time></trkpt><trkpt lat="43.59437291673517" lon="11.06124683933003"><ele>200.0</ele><time>2026-03-22T11:05:06.929Z</time></trkpt><trkpt lat="43.594269262550505" lon="11.061303378840059"><ele>200.83333333333334</ele><time>2026-03-22T11:05:07.931Z</time></trkpt><trkpt lat="43.59417881802763" lon="11.061326024084963"><ele>201.66666666666669</ele><time>2026-03-22T11:05:08.931Z</time></trkpt><trkpt lat="43.59408500583314" lon="11.061359063586842"><ele>202.5</ele><time>2026-03-22T11:05:09.931Z</time></trkpt><trkpt lat="43.59400462708075" lon="11.061379599449943"><ele>203.33333333333331</ele><time>2026-03-22T11:05:10.931Z</time></trkpt><trkpt lat="43.593921786209734" lon="11.061406102191672"><ele>204.16666666666666</ele><time>2026-03-22T11:05:11.93Z</time></trkpt><trkpt lat="43.59384784257572" lon="11.061428434638731"><ele>205.0</ele><time>2026-03-22T11:05:12.93Z</time></trkpt><trkpt lat="43.59377370590268" lon="11.061455697532153"><ele>204.99999999999997</ele><time>2026-03-22T11:05:13.931Z</time></trkpt><trkpt lat="43.59371064019227" lon="11.061474622261882"><ele>205.0</ele><time>2026-03-22T11:05:14.931Z</time></trkpt><trkpt lat="43.593589054248405" lon="11.061506522358444"><ele>205.0</ele><time>2026-03-22T11:05:16.931Z</time></trkpt><trkpt lat="43.593496645614195" lon="11.061510203675908"><ele>205.0</ele><time>2026-03-22T11:05:18.93Z</time></trkpt><trkpt lat="43.59343310208283" lon="11.06150191633599"><ele>204.99999999999997</ele><time>2026-03-22T11:05:24.93Z</time></trkpt><trkpt lat="43.59338680816281" lon="11.06157450896607"><ele>205.0</ele><time>2026-03-22T11:05:39.93Z</time></trkpt><trkpt lat="43.593390333764525" lon="11.061686750157012"><ele>204.6</ele><time>2026-03-22T11:05:41.93Z</time></trkpt><trkpt lat="43.59339320746657" lon="11.061837302986648"><ele>204.2</ele><time>2026-03-22T11:05:43.93Z</time></trkpt><trkpt lat="43.59333614695309" lon="11.061978701608632"><ele>203.8</ele><time>2026-03-22T11:05:45.93Z</time></trkpt><trkpt lat="43.59332617741718" lon="11.062121462279183"><ele>203.4</ele><time>2026-03-22T11:05:47.93Z</time></trkpt><trkpt lat="43.59335120308995" lon="11.062231367696656"><ele>203.0</ele><time>2026-03-22T11:05:48.93Z</time></trkpt><trkpt lat="43.59334126885922" lon="11.06241491618201"><ele>202.50000000000003</ele><time>2026-03-22T11:05:50.93Z</time></trkpt><trkpt lat="43.593330609358944" lon="11.062509203041802"><ele>202.0</ele><time>2026-03-22T11:05:51.93Z</time></trkpt><trkpt lat="43.59332215430169" lon="11.06261449546992"><ele>201.5</ele><time>2026-03-22T11:05:52.929Z</time></trkpt><trkpt lat="43.59331224963163" lon="11.062703519513107"><ele>201.0</ele><time>2026-03-22T11:05:53.929Z</time></trkpt><trkpt lat="43.5933010674945" lon="11.062791454124337"><ele>200.50000000000003</ele><time>2026-03-22T11:05:54.929Z</time></trkpt><trkpt lat="43.5932651533985" lon="11.062965607342607"><ele>200.0</ele><time>2026-03-22T11:05:56.929Z</time></trkpt><trkpt lat="43.59324079787741" lon="11.063071723072976"><ele>200.00000000000003</ele><time>2026-03-22T11:05:57.929Z</time></trkpt><trkpt lat="43.59322300534849" lon="11.063174999248004"><ele>200.0</ele><time>2026-03-22T11:05:58.929Z</time></trkpt><trkpt lat="43.59320544706152" lon="11.063263694187913"><ele>200.0</ele><time>2026-03-22T11:05:59.929Z</time></trkpt><trkpt lat="43.59317800710256" lon="11.063362708325988"><ele>200.0</ele><time>2026-03-22T11:06:00.929Z</time></trkpt><trkpt lat="43.593153192729666" lon="11.063452087156028"><ele>200.0</ele><time>2026-03-22T11:06:01.929Z</time></trkpt><trkpt lat="43.59312082452637" lon="11.063551267902865"><ele>200.00000000000003</ele><time>2026-03-22T11:06:02.929Z</time></trkpt><trkpt lat="43.593080559797485" lon="11.063635425021493"><ele>200.0</ele><time>2026-03-22T11:06:03.929Z</time></trkpt><trkpt lat="43.59303825485138" lon="11.063743484311361"><ele>198.66666666666669</ele><time>2026-03-22T11:06:04.929Z</time></trkpt><trkpt lat="43.59299282508037" lon="11.06383925497192"><ele>197.33333333333334</ele><time>2026-03-22T11:06:05.929Z</time></trkpt><trkpt lat="43.59294377795059" lon="11.063931131748012"><ele>196.0</ele><time>2026-03-22T11:06:06.929Z</time></trkpt><trkpt lat="43.592898305955686" lon="11.064000115923166"><ele>194.66666666666669</ele><time>2026-03-22T11:06:07.929Z</time></trkpt><trkpt lat="43.5928394565598" lon="11.064076912746549"><ele>193.33333333333334</ele><time>2026-03-22T11:06:08.929Z</time></trkpt><trkpt lat="43.59277393959862" lon="11.064139483571806"><ele>192.0</ele><time>2026-03-22T11:06:09.929Z</time></trkpt><trkpt lat="43.59270113477863" lon="11.064198728851775"><ele>190.16666666666666</ele><time>2026-03-22T11:06:10.929Z</time></trkpt><trkpt lat="43.59262879394222" lon="11.064231896505435"><ele>188.33333333333334</ele><time>2026-03-22T11:06:11.929Z</time></trkpt><trkpt lat="43.592556490939856" lon="11.064252789991633"><ele>186.5</ele><time>2026-03-22T11:06:12.929Z</time></trkpt><trkpt lat="43.59247681730403" lon="11.06424404950623"><ele>184.66666666666669</ele><time>2026-03-22T11:06:13.929Z</time></trkpt><trkpt lat="43.5923853979836" lon="11.064234370698015"><ele>182.83333333333334</ele><time>2026-03-22T11:06:14.929Z</time></trkpt><trkpt lat="43.59227596340305" lon="11.06422887853887"><ele>181.0</ele><time>2026-03-22T11:06:15.929Z</time></trkpt><trkpt lat="43.59216209424539" lon="11.064219615794768"><ele>181.0</ele><time>2026-03-22T11:06:16.929Z</time></trkpt><trkpt lat="43.592071085895086" lon="11.0642173058115"><ele>181.0</ele><time>2026-03-22T11:06:17.929Z</time></trkpt><trkpt lat="43.591966019096404" lon="11.064203831927685"><ele>181.0</ele><time>2026-03-22T11:06:18.929Z</time></trkpt><trkpt lat="43.591885109024616" lon="11.064194529467159"><ele>181.0</ele><time>2026-03-22T11:06:19.929Z</time></trkpt><trkpt lat="43.59179534168354" lon="11.064183765650005"><ele>181.0</ele><time>2026-03-22T11:06:20.929Z</time></trkpt><trkpt lat="43.59171784685093" lon="11.064184224899027"><ele>181.0</ele><time>2026-03-22T11:06:21.929Z</time></trkpt><trkpt lat="43.59165147438553" lon="11.064202310193798"><ele>179.16666666666669</ele><time>2026-03-22T11:06:22.928Z</time></trkpt><trkpt lat="43.59159128833334" lon="11.064231446522252"><ele>177.33333333333334</ele><time>2026-03-22T11:06:23.928Z</time></trkpt><trkpt lat="43.59152675355061" lon="11.0642826070599"><ele>175.5</ele><time>2026-03-22T11:06:24.928Z</time></trkpt><trkpt lat="43.59146224721403" lon="11.064344678920692"><ele>173.66666666666666</ele><time>2026-03-22T11:06:25.928Z</time></trkpt><trkpt lat="43.59139999332116" lon="11.064438472094112"><ele>171.83333333333331</ele><time>2026-03-22T11:06:26.928Z</time></trkpt><trkpt lat="43.591349423445806" lon="11.064538947979079"><ele>170.0</ele><time>2026-03-22T11:06:27.928Z</time></trkpt><trkpt lat="43.59130879869705" lon="11.064642976630111"><ele>170.0</ele><time>2026-03-22T11:06:28.928Z</time></trkpt><trkpt lat="43.591266027246235" lon="11.064755212910983"><ele>170.0</ele><time>2026-03-22T11:06:29.928Z</time></trkpt><trkpt lat="43.59122443139207" lon="11.064877217582303"><ele>170.0</ele><time>2026-03-22T11:06:30.928Z</time></trkpt><trkpt lat="43.591187686573214" lon="11.064991091245076"><ele>170.0</ele><time>2026-03-22T11:06:31.928Z</time></trkpt><trkpt lat="43.591164791294425" lon="11.065140226467946"><ele>170.0</ele><time>2026-03-22T11:06:32.928Z</time></trkpt><trkpt lat="43.59115507765252" lon="11.065305216318462"><ele>169.5</ele><time>2026-03-22T11:06:33.928Z</time></trkpt><trkpt lat="43.59116118029553" lon="11.065477598348766"><ele>169.0</ele><time>2026-03-22T11:06:34.928Z</time></trkpt><trkpt lat="43.591179738528055" lon="11.065624251147417"><ele>168.5</ele><time>2026-03-22T11:06:35.928Z</time></trkpt><trkpt lat="43.59120157943756" lon="11.065770679001837"><ele>168.0</ele><time>2026-03-22T11:06:36.928Z</time></trkpt><trkpt lat="43.59122327706397" lon="11.065925961260723"><ele>167.0</ele><time>2026-03-22T11:06:37.928Z</time></trkpt><trkpt lat="43.59124114481389" lon="11.066086461726293"><ele>166.0</ele><time>2026-03-22T11:06:38.928Z</time></trkpt><trkpt lat="43.59125893135734" lon="11.066248863553723"><ele>165.0</ele><time>2026-03-22T11:06:39.928Z</time></trkpt><trkpt lat="43.59125056101765" lon="11.066398780165505"><ele>164.0</ele><time>2026-03-22T11:06:40.928Z</time></trkpt><trkpt lat="43.59126928386086" lon="11.066541439416298"><ele>165.25</ele><time>2026-03-22T11:06:41.928Z</time></trkpt><trkpt lat="43.59128720160608" lon="11.066696660625505"><ele>166.5</ele><time>2026-03-22T11:06:42.928Z</time></trkpt><trkpt lat="43.59133817777634" lon="11.066848273499797"><ele>167.75</ele><time>2026-03-22T11:06:43.928Z</time></trkpt><trkpt lat="43.591358165165445" lon="11.067011939018341"><ele>169.0</ele><time>2026-03-22T11:06:44.928Z</time></trkpt><trkpt lat="43.59138164877541" lon="11.067174140529932"><ele>169.0</ele><time>2026-03-22T11:06:45.928Z</time></trkpt><trkpt lat="43.5914036980863" lon="11.06732435959552"><ele>169.0</ele><time>2026-03-22T11:06:46.928Z</time></trkpt><trkpt lat="43.591428473692446" lon="11.067464622079859"><ele>169.0</ele><time>2026-03-22T11:06:47.928Z</time></trkpt><trkpt lat="43.59140714403218" lon="11.06761946537631"><ele>169.0</ele><time>2026-03-22T11:06:48.928Z</time></trkpt><trkpt lat="43.59141912854889" lon="11.06776048441232"><ele>169.0</ele><time>2026-03-22T11:06:49.928Z</time></trkpt><trkpt lat="43.591427008383675" lon="11.067909733028484"><ele>171.0</ele><time>2026-03-22T11:06:50.928Z</time></trkpt><trkpt lat="43.59143149193475" lon="11.068063410010216"><ele>173.0</ele><time>2026-03-22T11:06:51.928Z</time></trkpt><trkpt lat="43.591432249455885" lon="11.068235434823363"><ele>175.0</ele><time>2026-03-22T11:06:52.928Z</time></trkpt><trkpt lat="43.5914284524173" lon="11.068394876163897"><ele>177.0</ele><time>2026-03-22T11:06:53.927Z</time></trkpt><trkpt lat="43.591420761880535" lon="11.068554817326035"><ele>177.6</ele><time>2026-03-22T11:06:54.927Z</time></trkpt><trkpt lat="43.59141033582815" lon="11.068715705857668"><ele>178.2</ele><time>2026-03-22T11:06:55.927Z</time></trkpt><trkpt lat="43.591396827089305" lon="11.068865165897824"><ele>178.8</ele><time>2026-03-22T11:06:56.927Z</time></trkpt><trkpt lat="43.59138409859549" lon="11.068985742074288"><ele>179.4</ele><time>2026-03-22T11:06:57.927Z</time></trkpt><trkpt lat="43.59138450712198" lon="11.069104057698876"><ele>180.0</ele><time>2026-03-22T11:06:58.927Z</time></trkpt><trkpt lat="43.591367340252724" lon="11.069210760721486"><ele>180.8</ele><time>2026-03-22T11:06:59.927Z</time></trkpt><trkpt lat="43.591332350533946" lon="11.069297806828759"><ele>181.6</ele><time>2026-03-22T11:07:00.927Z</time></trkpt><trkpt lat="43.59129120412433" lon="11.069435446037893"><ele>182.39999999999998</ele><time>2026-03-22T11:07:02.927Z</time></trkpt><trkpt lat="43.59124808712269" lon="11.069596618063672"><ele>183.2</ele><time>2026-03-22T11:07:04.927Z</time></trkpt><trkpt lat="43.59123548095637" lon="11.069713951297341"><ele>184.0</ele><time>2026-03-22T11:07:05.927Z</time></trkpt><trkpt lat="43.59119190961867" lon="11.069833264395951"><ele>184.0</ele><time>2026-03-22T11:07:06.927Z</time></trkpt><trkpt lat="43.5911855939136" lon="11.069921950537978"><ele>184.0</ele><time>2026-03-22T11:07:07.927Z</time></trkpt><trkpt lat="43.59116959027528" lon="11.07003618269782"><ele>184.0</ele><time>2026-03-22T11:07:08.927Z</time></trkpt><trkpt lat="43.59115857033098" lon="11.070132522689702"><ele>184.0</ele><time>2026-03-22T11:07:09.927Z</time></trkpt><trkpt lat="43.59113175227401" lon="11.07023003373539"><ele>184.0</ele><time>2026-03-22T11:07:10.927Z</time></trkpt><trkpt lat="43.59111384747568" lon="11.070327846659028"><ele>184.0</ele><time>2026-03-22T11:07:11.927Z</time></trkpt><trkpt lat="43.59109000181738" lon="11.070428685624549"><ele>184.0</ele><time>2026-03-22T11:07:12.927Z</time></trkpt><trkpt lat="43.59104753071772" lon="11.070527178951808"><ele>182.33333333333334</ele><time>2026-03-22T11:07:13.929Z</time></trkpt><trkpt lat="43.5910052264057" lon="11.070594321344867"><ele>180.66666666666669</ele><time>2026-03-22T11:07:14.929Z</time></trkpt><trkpt lat="43.59095378621904" lon="11.070649147862127"><ele>179.0</ele><time>2026-03-22T11:07:15.929Z</time></trkpt><trkpt lat="43.59084044319" lon="11.070730387772485"><ele>177.33333333333334</ele><time>2026-03-22T11:07:17.928Z</time></trkpt><trkpt lat="43.590751335792405" lon="11.070785446481322"><ele>175.66666666666666</ele><time>2026-03-22T11:07:18.928Z</time></trkpt><trkpt lat="43.59066464591707" lon="11.070837889660774"><ele>174.0</ele><time>2026-03-22T11:07:19.928Z</time></trkpt><trkpt lat="43.59057080959287" lon="11.070900286729906"><ele>173.25</ele><time>2026-03-22T11:07:20.929Z</time></trkpt><trkpt lat="43.59047581569962" lon="11.070965873199011"><ele>172.5</ele><time>2026-03-22T11:07:21.928Z</time></trkpt><trkpt lat="43.59037491161696" lon="11.071035052927186"><ele>171.75</ele><time>2026-03-22T11:07:22.929Z</time></trkpt><trkpt lat="43.59027318838138" lon="11.071104515389953"><ele>171.0</ele><time>2026-03-22T11:07:23.929Z</time></trkpt><trkpt lat="43.590153887660264" lon="11.071169921248286"><ele>171.0</ele><time>2026-03-22T11:07:24.929Z</time></trkpt><trkpt lat="43.59003467935309" lon="11.0712507753504"><ele>171.0</ele><time>2026-03-22T11:07:25.929Z</time></trkpt><trkpt lat="43.589932043325675" lon="11.07129145227681"><ele>171.0</ele><time>2026-03-22T11:07:26.929Z</time></trkpt><trkpt lat="43.58986422367491" lon="11.071318119388831"><ele>171.0</ele><time>2026-03-22T11:07:27.929Z</time></trkpt><trkpt lat="43.5897679664912" lon="11.071304576883941"><ele>171.0</ele><time>2026-03-22T11:07:28.929Z</time></trkpt><trkpt lat="43.589663048062945" lon="11.071314682766658"><ele>171.0</ele><time>2026-03-22T11:07:29.929Z</time></trkpt><trkpt lat="43.58953188787464" lon="11.071313711194227"><ele>171.0</ele><time>2026-03-22T11:07:30.929Z</time></trkpt><trkpt lat="43.589407554564104" lon="11.07131362779568"><ele>171.0</ele><time>2026-03-22T11:07:31.929Z</time></trkpt><trkpt lat="43.58928491085129" lon="11.071317628144643"><ele>171.0</ele><time>2026-03-22T11:07:32.929Z</time></trkpt><trkpt lat="43.58919314461734" lon="11.071318794148306"><ele>172.5</ele><time>2026-03-22T11:07:33.929Z</time></trkpt><trkpt lat="43.589117177431675" lon="11.071331662668232"><ele>174.0</ele><time>2026-03-22T11:07:34.929Z</time></trkpt><trkpt lat="43.589046449882794" lon="11.071355955554573"><ele>175.5</ele><time>2026-03-22T11:07:35.929Z</time></trkpt><trkpt lat="43.58897824508154" lon="11.071395703757682"><ele>177.0</ele><time>2026-03-22T11:07:36.929Z</time></trkpt><trkpt lat="43.5888958171903" lon="11.071430471308254"><ele>178.5</ele><time>2026-03-22T11:07:37.929Z</time></trkpt><trkpt lat="43.58883893155548" lon="11.071502296414742"><ele>180.0</ele><time>2026-03-22T11:07:38.929Z</time></trkpt><trkpt lat="43.58878885987971" lon="11.071590026442124"><ele>181.4</ele><time>2026-03-22T11:07:39.929Z</time></trkpt><trkpt lat="43.58874046629475" lon="11.071693112615394"><ele>182.8</ele><time>2026-03-22T11:07:40.929Z</time></trkpt><trkpt lat="43.58870206265216" lon="11.071796274040624"><ele>184.2</ele><time>2026-03-22T11:07:41.929Z</time></trkpt><trkpt lat="43.58866680157116" lon="11.071915664388781"><ele>185.6</ele><time>2026-03-22T11:07:42.929Z</time></trkpt><trkpt lat="43.58863892196818" lon="11.072030022681679"><ele>187.0</ele><time>2026-03-22T11:07:43.928Z</time></trkpt><trkpt lat="43.58865762594826" lon="11.072163179697236"><ele>187.0</ele><time>2026-03-22T11:07:44.928Z</time></trkpt><trkpt lat="43.58863357274013" lon="11.072253931135462"><ele>187.0</ele><time>2026-03-22T11:07:45.928Z</time></trkpt><trkpt lat="43.588630293771814" lon="11.07244753417694"><ele>187.0</ele><time>2026-03-22T11:07:47.928Z</time></trkpt><trkpt lat="43.58865934173994" lon="11.072555944425158"><ele>187.0</ele><time>2026-03-22T11:07:48.928Z</time></trkpt><trkpt lat="43.58869559175748" lon="11.07267230396017"><ele>187.0</ele><time>2026-03-22T11:07:49.928Z</time></trkpt><trkpt lat="43.58872619883531" lon="11.072795452597108"><ele>186.16666666666669</ele><time>2026-03-22T11:07:50.928Z</time></trkpt><trkpt lat="43.58874467052405" lon="11.072895302790736"><ele>185.33333333333334</ele><time>2026-03-22T11:07:51.928Z</time></trkpt><trkpt lat="43.588748669694866" lon="11.07298282834809"><ele>184.5</ele><time>2026-03-22T11:07:52.928Z</time></trkpt><trkpt lat="43.58873439249263" lon="11.07312408055973"><ele>183.66666666666666</ele><time>2026-03-22T11:07:54.928Z</time></trkpt><trkpt lat="43.58868056414354" lon="11.073283763324746"><ele>182.83333333333331</ele><time>2026-03-22T11:07:56.928Z</time></trkpt><trkpt lat="43.58863890380401" lon="11.073371565568586"><ele>182.0</ele><time>2026-03-22T11:07:57.928Z</time></trkpt><trkpt lat="43.58858055127991" lon="11.07347437822913"><ele>182.0</ele><time>2026-03-22T11:07:58.928Z</time></trkpt><trkpt lat="43.58850660990991" lon="11.073597868043166"><ele>182.0</ele><time>2026-03-22T11:07:59.928Z</time></trkpt><trkpt lat="43.58844373690169" lon="11.073715492093514"><ele>182.0</ele><time>2026-03-22T11:08:00.928Z</time></trkpt><trkpt lat="43.58839244291193" lon="11.073828253856302"><ele>182.0</ele><time>2026-03-22T11:08:01.928Z</time></trkpt><trkpt lat="43.5883462429252" lon="11.073964551347848"><ele>182.0</ele><time>2026-03-22T11:08:02.928Z</time></trkpt><trkpt lat="43.588319695885374" lon="11.074124641859088"><ele>183.39999999999998</ele><time>2026-03-22T11:08:03.928Z</time></trkpt><trkpt lat="43.58828664174673" lon="11.074292298736951"><ele>184.79999999999998</ele><time>2026-03-22T11:08:04.928Z</time></trkpt><trkpt lat="43.588234935197704" lon="11.074458465615137"><ele>186.2</ele><time>2026-03-22T11:08:05.928Z</time></trkpt><trkpt lat="43.58819929577138" lon="11.074598623809841"><ele>187.6</ele><time>2026-03-22T11:08:06.928Z</time></trkpt><trkpt lat="43.58815880625502" lon="11.074696339530464"><ele>189.0</ele><time>2026-03-22T11:08:07.928Z</time></trkpt><trkpt lat="43.58805410111652" lon="11.074792562524856"><ele>189.0</ele><time>2026-03-22T11:08:09.928Z</time></trkpt><trkpt lat="43.58795630979545" lon="11.074852318163389"><ele>189.0</ele><time>2026-03-22T11:08:11.928Z</time></trkpt><trkpt lat="43.58787542190766" lon="11.074888258569093"><ele>189.0</ele><time>2026-03-22T11:08:12.928Z</time></trkpt><trkpt lat="43.587796170090805" lon="11.074910588973658"><ele>189.0</ele><time>2026-03-22T11:08:13.928Z</time></trkpt><trkpt lat="43.58768890133462" lon="11.074944947656435"><ele>189.0</ele><time>2026-03-22T11:08:14.927Z</time></trkpt><trkpt lat="43.58758283095785" lon="11.07497859758515"><ele>193.79999999999998</ele><time>2026-03-22T11:08:15.927Z</time></trkpt><trkpt lat="43.58747094266913" lon="11.075012859074123"><ele>198.6</ele><time>2026-03-22T11:08:16.927Z</time></trkpt><trkpt lat="43.58738565363238" lon="11.075049331975823"><ele>203.4</ele><time>2026-03-22T11:08:17.927Z</time></trkpt><trkpt lat="43.58731597777453" lon="11.07506509973117"><ele>208.2</ele><time>2026-03-22T11:08:18.927Z</time></trkpt><trkpt lat="43.587207643894814" lon="11.075089264468387"><ele>213.0</ele><time>2026-03-22T11:08:20.927Z</time></trkpt><trkpt lat="43.58708607424888" lon="11.075110355340795"><ele>213.0</ele><time>2026-03-22T11:08:22.927Z</time></trkpt><trkpt lat="43.5870293798707" lon="11.075148539258212"><ele>213.0</ele><time>2026-03-22T11:08:23.927Z</time></trkpt><trkpt lat="43.586967107508414" lon="11.075174488516472"><ele>213.0</ele><time>2026-03-22T11:08:24.927Z</time></trkpt><trkpt lat="43.58690447672153" lon="11.075244799022972"><ele>213.0</ele><time>2026-03-22T11:08:25.927Z</time></trkpt><trkpt lat="43.586857456002825" lon="11.075342034514591"><ele>213.0</ele><time>2026-03-22T11:08:26.927Z</time></trkpt><trkpt lat="43.586810420443896" lon="11.075447478370078"><ele>213.0</ele><time>2026-03-22T11:08:27.927Z</time></trkpt><trkpt lat="43.58677443606653" lon="11.075605186497214"><ele>211.2</ele><time>2026-03-22T11:08:28.927Z</time></trkpt><trkpt lat="43.58671636873461" lon="11.075736896782592"><ele>209.4</ele><time>2026-03-22T11:08:29.927Z</time></trkpt><trkpt lat="43.58667028256993" lon="11.075844551849283"><ele>207.6</ele><time>2026-03-22T11:08:30.927Z</time></trkpt><trkpt lat="43.586621261126105" lon="11.075950266804861"><ele>205.79999999999998</ele><time>2026-03-22T11:08:31.927Z</time></trkpt><trkpt lat="43.586572425209354" lon="11.076048003553375"><ele>204.0</ele><time>2026-03-22T11:08:32.927Z</time></trkpt><trkpt lat="43.586519796375796" lon="11.07613173301968"><ele>204.0</ele><time>2026-03-22T11:08:33.927Z</time></trkpt><trkpt lat="43.58646142024759" lon="11.076222411773948"><ele>204.0</ele><time>2026-03-22T11:08:34.927Z</time></trkpt><trkpt lat="43.586396685402576" lon="11.076299784838053"><ele>204.0</ele><time>2026-03-22T11:08:35.927Z</time></trkpt><trkpt lat="43.58629723014627" lon="11.076357293062623"><ele>204.0</ele><time>2026-03-22T11:08:36.927Z</time></trkpt><trkpt lat="43.586197632817125" lon="11.076427336233962"><ele>204.0</ele><time>2026-03-22T11:08:37.927Z</time></trkpt><trkpt lat="43.58610945463905" lon="11.07648869821665"><ele>201.75</ele><time>2026-03-22T11:08:38.927Z</time></trkpt><trkpt lat="43.586022138294446" lon="11.076574602531661"><ele>199.5</ele><time>2026-03-22T11:08:39.927Z</time></trkpt><trkpt lat="43.585928157317746" lon="11.076689753732182"><ele>197.25</ele><time>2026-03-22T11:08:40.927Z</time></trkpt><trkpt lat="43.58583205584062" lon="11.076814479133159"><ele>195.0</ele><time>2026-03-22T11:08:41.927Z</time></trkpt><trkpt lat="43.58575790790324" lon="11.076920577405758"><ele>195.0</ele><time>2026-03-22T11:08:42.927Z</time></trkpt><trkpt lat="43.58569412857623" lon="11.076998184458033"><ele>195.0</ele><time>2026-03-22T11:08:43.927Z</time></trkpt><trkpt lat="43.585622684409415" lon="11.077093402928211"><ele>195.0</ele><time>2026-03-22T11:08:44.927Z</time></trkpt><trkpt lat="43.585532402028925" lon="11.077167836381255"><ele>195.0</ele><time>2026-03-22T11:08:45.926Z</time></trkpt><trkpt lat="43.58547003617951" lon="11.077271654241816"><ele>195.0</ele><time>2026-03-22T11:08:46.926Z</time></trkpt><trkpt lat="43.58541228261022" lon="11.077397483008527"><ele>195.4</ele><time>2026-03-22T11:08:47.926Z</time></trkpt><trkpt lat="43.58536391424526" lon="11.077549881204252"><ele>195.8</ele><time>2026-03-22T11:08:48.926Z</time></trkpt><trkpt lat="43.58533525337145" lon="11.077692783817337"><ele>196.2</ele><time>2026-03-22T11:08:49.926Z</time></trkpt><trkpt lat="43.58532555245521" lon="11.077802046887898"><ele>196.6</ele><time>2026-03-22T11:08:50.926Z</time></trkpt><trkpt lat="43.58531917683426" lon="11.07790029134931"><ele>197.0</ele><time>2026-03-22T11:08:51.926Z</time></trkpt><trkpt lat="43.58532708273371" lon="11.078069787207285"><ele>197.0</ele><time>2026-03-22T11:08:53.926Z</time></trkpt><trkpt lat="43.58530717044105" lon="11.078161382299035"><ele>197.0</ele><time>2026-03-22T11:08:54.926Z</time></trkpt><trkpt lat="43.585303755701226" lon="11.07825731868279"><ele>197.0</ele><time>2026-03-22T11:08:55.926Z</time></trkpt><trkpt lat="43.58530002969823" lon="11.078346803016297"><ele>197.0</ele><time>2026-03-22T11:08:56.926Z</time></trkpt><trkpt lat="43.585293583089985" lon="11.078443254210462"><ele>197.0</ele><time>2026-03-22T11:08:57.926Z</time></trkpt><trkpt lat="43.58531441294119" lon="11.078534274233414"><ele>197.0</ele><time>2026-03-22T11:08:58.926Z</time></trkpt><trkpt lat="43.58530844666788" lon="11.078634778089555"><ele>197.0</ele><time>2026-03-22T11:08:59.926Z</time></trkpt><trkpt lat="43.58527992008573" lon="11.078727770685513"><ele>197.0</ele><time>2026-03-22T11:09:00.926Z</time></trkpt><trkpt lat="43.585251670111234" lon="11.0788080679906"><ele>197.0</ele><time>2026-03-22T11:09:01.926Z</time></trkpt><trkpt lat="43.58520456373875" lon="11.078884777014402"><ele>197.0</ele><time>2026-03-22T11:09:02.926Z</time></trkpt><trkpt lat="43.58514829710946" lon="11.07899199984809"><ele>197.0</ele><time>2026-03-22T11:09:03.926Z</time></trkpt><trkpt lat="43.585069405527484" lon="11.079094531174974"><ele>197.0</ele><time>2026-03-22T11:09:04.926Z</time></trkpt><trkpt lat="43.584982281280986" lon="11.07921825442329"><ele>197.00000000000003</ele><time>2026-03-22T11:09:05.926Z</time></trkpt><trkpt lat="43.58490375256887" lon="11.07931055705607"><ele>197.0</ele><time>2026-03-22T11:09:06.926Z</time></trkpt><trkpt lat="43.584837413019926" lon="11.079402573026753"><ele>197.0</ele><time>2026-03-22T11:09:07.926Z</time></trkpt><trkpt lat="43.5847801927879" lon="11.079484272263588"><ele>197.0</ele><time>2026-03-22T11:09:08.926Z</time></trkpt><trkpt lat="43.58473324397259" lon="11.079561668715206"><ele>197.00000000000003</ele><time>2026-03-22T11:09:09.926Z</time></trkpt><trkpt lat="43.584693490730054" lon="11.079643278929282"><ele>197.0</ele><time>2026-03-22T11:09:10.926Z</time></trkpt><trkpt lat="43.584663147932616" lon="11.07972904338622"><ele>197.00000000000003</ele><time>2026-03-22T11:09:11.926Z</time></trkpt><trkpt lat="43.58465095605811" lon="11.079836873492056"><ele>197.0</ele><time>2026-03-22T11:09:12.926Z</time></trkpt><trkpt lat="43.584655451340794" lon="11.079971048615816"><ele>197.0</ele><time>2026-03-22T11:09:13.926Z</time></trkpt><trkpt lat="43.584653631207594" lon="11.080122541921117"><ele>197.0</ele><time>2026-03-22T11:09:14.926Z</time></trkpt><trkpt lat="43.5846492424338" lon="11.08024688081008"><ele>197.00000000000003</ele><time>2026-03-22T11:09:15.926Z</time></trkpt><trkpt lat="43.58465398338495" lon="11.080345628741062"><ele>197.0</ele><time>2026-03-22T11:09:16.925Z</time></trkpt><trkpt lat="43.58465123252041" lon="11.080485275150021"><ele>196.0</ele><time>2026-03-22T11:09:18.925Z</time></trkpt><trkpt lat="43.58462001506926" lon="11.080612521169835"><ele>195.0</ele><time>2026-03-22T11:09:20.928Z</time></trkpt><trkpt lat="43.5845518989052" lon="11.080769793070493"><ele>194.0</ele><time>2026-03-22T11:09:22.927Z</time></trkpt><trkpt lat="43.58449853813505" lon="11.080866384335687"><ele>193.0</ele><time>2026-03-22T11:09:23.927Z</time></trkpt><trkpt lat="43.584444748914486" lon="11.080971610969396"><ele>192.0</ele><time>2026-03-22T11:09:24.927Z</time></trkpt><trkpt lat="43.584387609254335" lon="11.081087130635327"><ele>192.0</ele><time>2026-03-22T11:09:25.927Z</time></trkpt><trkpt lat="43.58432572407074" lon="11.081222745216358"><ele>192.0</ele><time>2026-03-22T11:09:26.927Z</time></trkpt><trkpt lat="43.58427798786701" lon="11.08135360323959"><ele>192.0</ele><time>2026-03-22T11:09:27.927Z</time></trkpt><trkpt lat="43.584222178935725" lon="11.0814758079092"><ele>192.0</ele><time>2026-03-22T11:09:28.927Z</time></trkpt><trkpt lat="43.58415458964312" lon="11.081575066730183"><ele>192.0</ele><time>2026-03-22T11:09:29.927Z</time></trkpt><trkpt lat="43.5840861810611" lon="11.081672958324072"><ele>193.39999999999998</ele><time>2026-03-22T11:09:30.927Z</time></trkpt><trkpt lat="43.58399642224483" lon="11.081766368561986"><ele>194.79999999999998</ele><time>2026-03-22T11:09:31.927Z</time></trkpt><trkpt lat="43.583912867964465" lon="11.08186313437683"><ele>196.2</ele><time>2026-03-22T11:09:32.927Z</time></trkpt><trkpt lat="43.58384527206363" lon="11.081946041840911"><ele>197.6</ele><time>2026-03-22T11:09:33.927Z</time></trkpt><trkpt lat="43.583777453543284" lon="11.082055831402702"><ele>199.0</ele><time>2026-03-22T11:09:34.927Z</time></trkpt><trkpt lat="43.583680151732295" lon="11.082149018361678"><ele>198.49999999999997</ele><time>2026-03-22T11:09:35.927Z</time></trkpt><trkpt lat="43.58361810028377" lon="11.082266967180109"><ele>198.0</ele><time>2026-03-22T11:09:36.927Z</time></trkpt><trkpt lat="43.58357207774616" lon="11.08235753630789"><ele>197.5</ele><time>2026-03-22T11:09:37.927Z</time></trkpt><trkpt lat="43.58349430760424" lon="11.08246751551073"><ele>197.0</ele><time>2026-03-22T11:09:39.927Z</time></trkpt><trkpt lat="43.58342788128778" lon="11.082528858380995"><ele>196.49999999999997</ele><time>2026-03-22T11:09:41.927Z</time></trkpt><trkpt lat="43.583361390753026" lon="11.082519249108879"><ele>196.0</ele><time>2026-03-22T11:09:42.927Z</time></trkpt><trkpt lat="43.58329640975463" lon="11.082500867054103"><ele>195.99999999999997</ele><time>2026-03-22T11:09:43.927Z</time></trkpt><trkpt lat="43.58320734963567" lon="11.082486012838292"><ele>196.0</ele><time>2026-03-22T11:09:44.927Z</time></trkpt><trkpt lat="43.58312421716812" lon="11.082482729904392"><ele>196.0</ele><time>2026-03-22T11:09:45.927Z</time></trkpt><trkpt lat="43.58304264443754" lon="11.082486078144692"><ele>196.0</ele><time>2026-03-22T11:09:46.927Z</time></trkpt><trkpt lat="43.582941994324116" lon="11.082475353811539"><ele>195.99999999999997</ele><time>2026-03-22T11:09:47.927Z</time></trkpt><trkpt lat="43.5828510983681" lon="11.082467011523244"><ele>196.0</ele><time>2026-03-22T11:09:48.927Z</time></trkpt><trkpt lat="43.582755595867155" lon="11.082455686812986"><ele>194.0</ele><time>2026-03-22T11:09:49.927Z</time></trkpt><trkpt lat="43.58265651838268" lon="11.082434947719468"><ele>192.0</ele><time>2026-03-22T11:09:50.927Z</time></trkpt><trkpt lat="43.58256387562722" lon="11.082429818804147"><ele>190.0</ele><time>2026-03-22T11:09:51.927Z</time></trkpt><trkpt lat="43.58247140710627" lon="11.082420636533032"><ele>188.0</ele><time>2026-03-22T11:09:52.927Z</time></trkpt><trkpt lat="43.58237485373776" lon="11.082393541560908"><ele>186.0</ele><time>2026-03-22T11:09:53.927Z</time></trkpt><trkpt lat="43.582263027908404" lon="11.082341873444953"><ele>183.0</ele><time>2026-03-22T11:09:54.927Z</time></trkpt><trkpt lat="43.582144755961856" lon="11.082267526479097"><ele>180.0</ele><time>2026-03-22T11:09:55.927Z</time></trkpt><trkpt lat="43.58202302474257" lon="11.082174705648384"><ele>177.0</ele><time>2026-03-22T11:09:56.927Z</time></trkpt><trkpt lat="43.581900682507175" lon="11.082102816913054"><ele>174.0</ele><time>2026-03-22T11:09:57.927Z</time></trkpt><trkpt lat="43.5817991173636" lon="11.082048038007335"><ele>174.0</ele><time>2026-03-22T11:09:58.927Z</time></trkpt><trkpt lat="43.581710062418644" lon="11.082001059267094"><ele>174.0</ele><time>2026-03-22T11:09:59.926Z</time></trkpt><trkpt lat="43.58165188496869" lon="11.081947995434078"><ele>174.0</ele><time>2026-03-22T11:10:00.926Z</time></trkpt><trkpt lat="43.581555942142046" lon="11.081854930591167"><ele>174.0</ele><time>2026-03-22T11:10:02.926Z</time></trkpt><trkpt lat="43.581520373322746" lon="11.08177206143262"><ele>174.0</ele><time>2026-03-22T11:10:03.926Z</time></trkpt><trkpt lat="43.58148571055179" lon="11.081672697430534"><ele>174.0</ele><time>2026-03-22T11:10:04.926Z</time></trkpt><trkpt lat="43.58144102641687" lon="11.081568717252058"><ele>171.66666666666666</ele><time>2026-03-22T11:10:05.926Z</time></trkpt><trkpt lat="43.58140109389764" lon="11.08145362782842"><ele>169.33333333333334</ele><time>2026-03-22T11:10:06.926Z</time></trkpt><trkpt lat="43.58137042884438" lon="11.081346551155649"><ele>167.0</ele><time>2026-03-22T11:10:07.926Z</time></trkpt><trkpt lat="43.581355331142255" lon="11.081253593734827"><ele>164.66666666666669</ele><time>2026-03-22T11:10:08.926Z</time></trkpt><trkpt lat="43.58133105557064" lon="11.081141694875328"><ele>162.33333333333334</ele><time>2026-03-22T11:10:09.926Z</time></trkpt><trkpt lat="43.58131655011082" lon="11.08103778579692"><ele>160.0</ele><time>2026-03-22T11:10:10.926Z</time></trkpt><trkpt lat="43.58131200348" lon="11.080901413544412"><ele>160.0</ele><time>2026-03-22T11:10:11.926Z</time></trkpt><trkpt lat="43.58128078463976" lon="11.08078189062669"><ele>160.0</ele><time>2026-03-22T11:10:12.926Z</time></trkpt><trkpt lat="43.581246079476976" lon="11.080685588559318"><ele>160.0</ele><time>2026-03-22T11:10:13.926Z</time></trkpt><trkpt lat="43.581218960246055" lon="11.08060514440262"><ele>160.0</ele><time>2026-03-22T11:10:14.926Z</time></trkpt><trkpt lat="43.58118978406321" lon="11.080526272266923"><ele>160.0</ele><time>2026-03-22T11:10:15.926Z</time></trkpt><trkpt lat="43.581126179362975" lon="11.08039402453529"><ele>160.0</ele><time>2026-03-22T11:10:17.926Z</time></trkpt><trkpt lat="43.58107905602073" lon="11.080329978485407"><ele>158.66666666666669</ele><time>2026-03-22T11:10:18.926Z</time></trkpt><trkpt lat="43.58102731837225" lon="11.080269850983852"><ele>157.33333333333334</ele><time>2026-03-22T11:10:19.926Z</time></trkpt><trkpt lat="43.580967761094115" lon="11.080207236544826"><ele>156.0</ele><time>2026-03-22T11:10:20.926Z</time></trkpt><trkpt lat="43.580891674433474" lon="11.080140598946617"><ele>154.66666666666666</ele><time>2026-03-22T11:10:21.926Z</time></trkpt><trkpt lat="43.580804553082686" lon="11.08006693670241"><ele>153.33333333333331</ele><time>2026-03-22T11:10:22.926Z</time></trkpt><trkpt lat="43.580711224456415" lon="11.079989147703778"><ele>152.0</ele><time>2026-03-22T11:10:23.926Z</time></trkpt><trkpt lat="43.58060811799558" lon="11.079911037373014"><ele>149.0</ele><time>2026-03-22T11:10:24.926Z</time></trkpt><trkpt lat="43.580498026338255" lon="11.079844269894979"><ele>146.0</ele><time>2026-03-22T11:10:25.926Z</time></trkpt><trkpt lat="43.58037249100293" lon="11.079787809029206"><ele>143.0</ele><time>2026-03-22T11:10:26.926Z</time></trkpt><trkpt lat="43.58024236668147" lon="11.079750060654764"><ele>140.0</ele><time>2026-03-22T11:10:27.926Z</time></trkpt><trkpt lat="43.580112397822475" lon="11.07972161450422"><ele>140.0</ele><time>2026-03-22T11:10:28.926Z</time></trkpt><trkpt lat="43.57998111440453" lon="11.07971010428524"><ele>140.0</ele><time>2026-03-22T11:10:29.926Z</time></trkpt><trkpt lat="43.579844218151685" lon="11.079686481377449"><ele>140.0</ele><time>2026-03-22T11:10:30.925Z</time></trkpt><trkpt lat="43.57971059889769" lon="11.079664836386156"><ele>140.0</ele><time>2026-03-22T11:10:31.925Z</time></trkpt><trkpt lat="43.57956681797007" lon="11.079638655022016"><ele>139.5</ele><time>2026-03-22T11:10:32.925Z</time></trkpt><trkpt lat="43.57942443566546" lon="11.079614110631898"><ele>139.0</ele><time>2026-03-22T11:10:33.925Z</time></trkpt><trkpt lat="43.579282014804015" lon="11.079587469775008"><ele>138.5</ele><time>2026-03-22T11:10:34.925Z</time></trkpt><trkpt lat="43.57913669527091" lon="11.079558188310513"><ele>138.0</ele><time>2026-03-22T11:10:35.925Z</time></trkpt><trkpt lat="43.57898377222484" lon="11.079533152136204"><ele>138.0</ele><time>2026-03-22T11:10:36.925Z</time></trkpt><trkpt lat="43.57882866877587" lon="11.07950999891955"><ele>138.0</ele><time>2026-03-22T11:10:37.925Z</time></trkpt><trkpt lat="43.578669035480466" lon="11.079481251100006"><ele>138.0</ele><time>2026-03-22T11:10:38.925Z</time></trkpt><trkpt lat="43.57850815377622" lon="11.079454351291194"><ele>138.33333333333334</ele><time>2026-03-22T11:10:39.925Z</time></trkpt><trkpt lat="43.57834951451912" lon="11.079407561197621"><ele>138.66666666666669</ele><time>2026-03-22T11:10:40.925Z</time></trkpt><trkpt lat="43.5781977376663" lon="11.079380369479596"><ele>139.0</ele><time>2026-03-22T11:10:41.925Z</time></trkpt><trkpt lat="43.57806275055247" lon="11.079356185746025"><ele>139.0</ele><time>2026-03-22T11:10:42.925Z</time></trkpt><trkpt lat="43.57793565898027" lon="11.0793334183324"><ele>139.0</ele><time>2026-03-22T11:10:43.925Z</time></trkpt><trkpt lat="43.57781079745311" lon="11.07931161179684"><ele>139.0</ele><time>2026-03-22T11:10:44.925Z</time></trkpt><trkpt lat="43.577688318134385" lon="11.079290647266733"><ele>139.0</ele><time>2026-03-22T11:10:45.925Z</time></trkpt><trkpt lat="43.57757292667151" lon="11.07927089591898"><ele>139.0</ele><time>2026-03-22T11:10:46.925Z</time></trkpt><trkpt lat="43.5774686537409" lon="11.079252012016353"><ele>139.0</ele><time>2026-03-22T11:10:47.925Z</time></trkpt><trkpt lat="43.57737687744706" lon="11.079241051595263"><ele>139.0</ele><time>2026-03-22T11:10:48.925Z</time></trkpt><trkpt lat="43.577283428229514" lon="11.079228908392917"><ele>139.0</ele><time>2026-03-22T11:10:49.925Z</time></trkpt><trkpt lat="43.57719788634611" lon="11.079221533354739"><ele>139.0</ele><time>2026-03-22T11:10:50.925Z</time></trkpt><trkpt lat="43.577110441787596" lon="11.07920861325214"><ele>139.0</ele><time>2026-03-22T11:10:51.925Z</time></trkpt><trkpt lat="43.57702941949798" lon="11.079182614435357"><ele>139.0</ele><time>2026-03-22T11:10:52.925Z</time></trkpt><trkpt lat="43.57696130073802" lon="11.079188975261836"><ele>139.0</ele><time>2026-03-22T11:10:53.925Z</time></trkpt><trkpt lat="43.576865471828185" lon="11.07912095478234"><ele>139.0</ele><time>2026-03-22T11:10:55.925Z</time></trkpt><trkpt lat="43.57684486335482" lon="11.078958598833042"><ele>139.0</ele><time>2026-03-22T11:10:57.925Z</time></trkpt><trkpt lat="43.576918449063136" lon="11.078813184096436"><ele>138.0</ele><time>2026-03-22T11:10:59.925Z</time></trkpt><trkpt lat="43.5769762433326" lon="11.078749019989175"><ele>137.0</ele><time>2026-03-22T11:11:00.924Z</time></trkpt><trkpt lat="43.57705238862482" lon="11.078673472026642"><ele>136.0</ele><time>2026-03-22T11:11:01.924Z</time></trkpt><trkpt lat="43.577133655410364" lon="11.078594310391594"><ele>135.0</ele><time>2026-03-22T11:11:02.924Z</time></trkpt><trkpt lat="43.5772251480313" lon="11.078506226627164"><ele>134.0</ele><time>2026-03-22T11:11:03.924Z</time></trkpt><trkpt lat="43.577306791504355" lon="11.078426866201136"><ele>134.0</ele><time>2026-03-22T11:11:04.924Z</time></trkpt><trkpt lat="43.57738561945543" lon="11.078342412268418"><ele>134.0</ele><time>2026-03-22T11:11:05.924Z</time></trkpt><trkpt lat="43.57744816189055" lon="11.078252307129073"><ele>134.0</ele><time>2026-03-22T11:11:06.924Z</time></trkpt><trkpt lat="43.57749991728279" lon="11.078156265057093"><ele>134.0</ele><time>2026-03-22T11:11:07.924Z</time></trkpt><trkpt lat="43.577533344919786" lon="11.078053771408937"><ele>134.0</ele><time>2026-03-22T11:11:08.924Z</time></trkpt><trkpt lat="43.57753713702037" lon="11.077956228886563"><ele>134.0</ele><time>2026-03-22T11:11:09.924Z</time></trkpt><trkpt lat="43.577505116541715" lon="11.07787734290108"><ele>131.0</ele><time>2026-03-22T11:11:10.924Z</time></trkpt><trkpt lat="43.577449101625476" lon="11.077827185178675"><ele>128.0</ele><time>2026-03-22T11:11:11.924Z</time></trkpt><trkpt lat="43.57733375332115" lon="11.077827236232016"><ele>125.0</ele><time>2026-03-22T11:11:13.924Z</time></trkpt><trkpt lat="43.577261798731776" lon="11.077885324682384"><ele>122.0</ele><time>2026-03-22T11:11:14.924Z</time></trkpt><trkpt lat="43.577197875122124" lon="11.077958284733787"><ele>119.0</ele><time>2026-03-22T11:11:15.924Z</time></trkpt><trkpt lat="43.577111779438916" lon="11.078035294827544"><ele>117.0</ele><time>2026-03-22T11:11:16.924Z</time></trkpt><trkpt lat="43.57701313369275" lon="11.078086397663483"><ele>115.0</ele><time>2026-03-22T11:11:17.924Z</time></trkpt><trkpt lat="43.57690645088635" lon="11.078127842635618"><ele>113.0</ele><time>2026-03-22T11:11:18.924Z</time></trkpt><trkpt lat="43.57678468887776" lon="11.078148656144629"><ele>111.0</ele><time>2026-03-22T11:11:19.924Z</time></trkpt><trkpt lat="43.576649347349544" lon="11.078173432573633"><ele>111.0</ele><time>2026-03-22T11:11:20.924Z</time></trkpt><trkpt lat="43.57652268423828" lon="11.078200410062705"><ele>111.0</ele><time>2026-03-22T11:11:21.924Z</time></trkpt><trkpt lat="43.57641015676309" lon="11.078232671474465"><ele>111.0</ele><time>2026-03-22T11:11:22.924Z</time></trkpt><trkpt lat="43.57629464335349" lon="11.07826054440258"><ele>111.0</ele><time>2026-03-22T11:11:23.924Z</time></trkpt><trkpt lat="43.576191177634705" lon="11.078280052603064"><ele>111.0</ele><time>2026-03-22T11:11:24.924Z</time></trkpt><trkpt lat="43.57608439012894" lon="11.078276577476702"><ele>111.0</ele><time>2026-03-22T11:11:25.926Z</time></trkpt><trkpt lat="43.57598358101294" lon="11.078302068756356"><ele>111.0</ele><time>2026-03-22T11:11:26.925Z</time></trkpt><trkpt lat="43.57587767013153" lon="11.078351926266482"><ele>111.0</ele><time>2026-03-22T11:11:27.925Z</time></trkpt><trkpt lat="43.575772379948695" lon="11.078380398823128"><ele>111.0</ele><time>2026-03-22T11:11:28.926Z</time></trkpt><trkpt lat="43.57566015597228" lon="11.078389915839088"><ele>111.0</ele><time>2026-03-22T11:11:29.925Z</time></trkpt><trkpt lat="43.575555439338636" lon="11.078451005908509"><ele>111.0</ele><time>2026-03-22T11:11:30.925Z</time></trkpt><trkpt lat="43.57544024228578" lon="11.07848519508752"><ele>111.0</ele><time>2026-03-22T11:11:31.926Z</time></trkpt><trkpt lat="43.57534345874299" lon="11.07853818531969"><ele>111.0</ele><time>2026-03-22T11:11:32.925Z</time></trkpt><trkpt lat="43.57524811978436" lon="11.07861487575943"><ele>111.0</ele><time>2026-03-22T11:11:33.925Z</time></trkpt><trkpt lat="43.57513885018906" lon="11.078649085326761"><ele>109.0</ele><time>2026-03-22T11:11:34.925Z</time></trkpt><trkpt lat="43.57503027678092" lon="11.078664155151694"><ele>107.0</ele><time>2026-03-22T11:11:35.925Z</time></trkpt><trkpt lat="43.57491957476015" lon="11.078646192255254"><ele>105.0</ele><time>2026-03-22T11:11:36.925Z</time></trkpt><trkpt lat="43.57481806892258" lon="11.078603081632956"><ele>103.0</ele><time>2026-03-22T11:11:37.926Z</time></trkpt><trkpt lat="43.574731032761264" lon="11.078534252975976"><ele>101.0</ele><time>2026-03-22T11:11:38.925Z</time></trkpt><trkpt lat="43.574637296343106" lon="11.078469981807745"><ele>101.0</ele><time>2026-03-22T11:11:39.925Z</time></trkpt><trkpt lat="43.574540013677975" lon="11.078408798149907"><ele>101.0</ele><time>2026-03-22T11:11:40.925Z</time></trkpt><trkpt lat="43.57444161237338" lon="11.078348522021587"><ele>101.0</ele><time>2026-03-22T11:11:41.925Z</time></trkpt><trkpt lat="43.57433770601089" lon="11.078300805722543"><ele>101.0</ele><time>2026-03-22T11:11:42.925Z</time></trkpt><trkpt lat="43.57423588427646" lon="11.078237896655997"><ele>101.0</ele><time>2026-03-22T11:11:43.925Z</time></trkpt><trkpt lat="43.5741330932633" lon="11.07816679216831"><ele>101.75</ele><time>2026-03-22T11:11:44.925Z</time></trkpt><trkpt lat="43.57401944033627" lon="11.07808522796428"><ele>102.5</ele><time>2026-03-22T11:11:45.925Z</time></trkpt><trkpt lat="43.57390436621863" lon="11.077990424911711"><ele>103.25</ele><time>2026-03-22T11:11:46.925Z</time></trkpt><trkpt lat="43.57379937977571" lon="11.0778859112834"><ele>104.0</ele><time>2026-03-22T11:11:47.925Z</time></trkpt><trkpt lat="43.57367926275592" lon="11.077776461047828"><ele>104.0</ele><time>2026-03-22T11:11:48.925Z</time></trkpt><trkpt lat="43.57355924428093" lon="11.077679131794486"><ele>104.0</ele><time>2026-03-22T11:11:49.925Z</time></trkpt><trkpt lat="43.57344004953038" lon="11.077635113293052"><ele>104.0</ele><time>2026-03-22T11:11:50.925Z</time></trkpt><trkpt lat="43.57331632426105" lon="11.077613195444478"><ele>104.0</ele><time>2026-03-22T11:11:51.925Z</time></trkpt><trkpt lat="43.57319420005686" lon="11.077603517994218"><ele>104.0</ele><time>2026-03-22T11:11:52.925Z</time></trkpt><trkpt lat="43.573073633267526" lon="11.077567275191806"><ele>104.0</ele><time>2026-03-22T11:11:53.925Z</time></trkpt><trkpt lat="43.57294328383665" lon="11.077552466267822"><ele>104.0</ele><time>2026-03-22T11:11:54.925Z</time></trkpt><trkpt lat="43.5727994088956" lon="11.077541737774487"><ele>104.0</ele><time>2026-03-22T11:11:55.924Z</time></trkpt><trkpt lat="43.572652978450634" lon="11.077528451467506"><ele>102.5</ele><time>2026-03-22T11:11:56.924Z</time></trkpt><trkpt lat="43.572498452950725" lon="11.0775142954505"><ele>101.0</ele><time>2026-03-22T11:11:57.924Z</time></trkpt><trkpt lat="43.572364422592386" lon="11.077480421273021"><ele>99.5</ele><time>2026-03-22T11:11:58.924Z</time></trkpt><trkpt lat="43.572230910260416" lon="11.077466040532506"><ele>98.0</ele><time>2026-03-22T11:11:59.924Z</time></trkpt><trkpt lat="43.57209907405484" lon="11.077449523992438"><ele>99.0</ele><time>2026-03-22T11:12:00.924Z</time></trkpt><trkpt lat="43.57196669629682" lon="11.077433821493477"><ele>100.0</ele><time>2026-03-22T11:12:01.924Z</time></trkpt><trkpt lat="43.57182469645122" lon="11.077417414561161"><ele>101.0</ele><time>2026-03-22T11:12:02.924Z</time></trkpt><trkpt lat="43.57169100689337" lon="11.077397861814307"><ele>102.0</ele><time>2026-03-22T11:12:03.924Z</time></trkpt><trkpt lat="43.57157178077465" lon="11.077365961468006"><ele>102.0</ele><time>2026-03-22T11:12:04.924Z</time></trkpt><trkpt lat="43.57145627762213" lon="11.077318200990637"><ele>102.0</ele><time>2026-03-22T11:12:05.924Z</time></trkpt><trkpt lat="43.571348628442564" lon="11.077265121496541"><ele>102.0</ele><time>2026-03-22T11:12:06.924Z</time></trkpt><trkpt lat="43.571219846244915" lon="11.077178191891953"><ele>102.0</ele><time>2026-03-22T11:12:07.924Z</time></trkpt><trkpt lat="43.57108776845741" lon="11.077101601397427"><ele>102.33333333333334</ele><time>2026-03-22T11:12:08.924Z</time></trkpt><trkpt lat="43.57094605007566" lon="11.07705694078281"><ele>102.66666666666667</ele><time>2026-03-22T11:12:09.924Z</time></trkpt><trkpt lat="43.57078950259758" lon="11.07703944907054"><ele>103.0</ele><time>2026-03-22T11:12:10.924Z</time></trkpt><trkpt lat="43.570634177558" lon="11.077029855142868"><ele>103.0</ele><time>2026-03-22T11:12:11.924Z</time></trkpt><trkpt lat="43.570495297594235" lon="11.077016517816359"><ele>103.0</ele><time>2026-03-22T11:12:12.924Z</time></trkpt><trkpt lat="43.57036162718183" lon="11.07699329980386"><ele>103.0</ele><time>2026-03-22T11:12:13.924Z</time></trkpt><trkpt lat="43.57023956412131" lon="11.076955890888422"><ele>103.0</ele><time>2026-03-22T11:12:14.924Z</time></trkpt><trkpt lat="43.57013613246104" lon="11.07689920122"><ele>101.75</ele><time>2026-03-22T11:12:15.924Z</time></trkpt><trkpt lat="43.57003983910911" lon="11.076812962644807"><ele>100.5</ele><time>2026-03-22T11:12:16.924Z</time></trkpt><trkpt lat="43.56994848570283" lon="11.076708851160253"><ele>99.25</ele><time>2026-03-22T11:12:17.924Z</time></trkpt><trkpt lat="43.56985101734844" lon="11.076589906099596"><ele>98.0</ele><time>2026-03-22T11:12:18.924Z</time></trkpt><trkpt lat="43.56974546720246" lon="11.076454033988886"><ele>98.66666666666666</ele><time>2026-03-22T11:12:19.924Z</time></trkpt><trkpt lat="43.56963251328662" lon="11.07630785715214"><ele>99.33333333333334</ele><time>2026-03-22T11:12:20.924Z</time></trkpt><trkpt lat="43.569516625248816" lon="11.076153149985107"><ele>100.0</ele><time>2026-03-22T11:12:21.924Z</time></trkpt><trkpt lat="43.569392303601695" lon="11.07598810145544"><ele>100.0</ele><time>2026-03-22T11:12:22.924Z</time></trkpt><trkpt lat="43.56927172810122" lon="11.075825520477446"><ele>100.0</ele><time>2026-03-22T11:12:23.924Z</time></trkpt><trkpt lat="43.56917794916538" lon="11.075688955325841"><ele>100.0</ele><time>2026-03-22T11:12:24.924Z</time></trkpt><trkpt lat="43.569109411946165" lon="11.075565157123243"><ele>100.0</ele><time>2026-03-22T11:12:25.924Z</time></trkpt><trkpt lat="43.56905655251219" lon="11.075452997678862"><ele>101.2</ele><time>2026-03-22T11:12:26.923Z</time></trkpt><trkpt lat="43.569014641497226" lon="11.075325951346061"><ele>102.4</ele><time>2026-03-22T11:12:27.923Z</time></trkpt><trkpt lat="43.56896655637015" lon="11.075187347430374"><ele>103.6</ele><time>2026-03-22T11:12:28.923Z</time></trkpt><trkpt lat="43.568917025911" lon="11.075045513264104"><ele>104.8</ele><time>2026-03-22T11:12:29.923Z</time></trkpt><trkpt lat="43.568863532019165" lon="11.07489305995389"><ele>106.0</ele><time>2026-03-22T11:12:30.923Z</time></trkpt><trkpt lat="43.56880997713108" lon="11.074746137267317"><ele>106.6</ele><time>2026-03-22T11:12:31.923Z</time></trkpt><trkpt lat="43.568742016637216" lon="11.074628566377742"><ele>107.19999999999999</ele><time>2026-03-22T11:12:32.923Z</time></trkpt><trkpt lat="43.56866314126452" lon="11.074524200698697"><ele>107.80000000000001</ele><time>2026-03-22T11:12:33.923Z</time></trkpt><trkpt lat="43.5685789768811" lon="11.074429323440173"><ele>108.4</ele><time>2026-03-22T11:12:34.923Z</time></trkpt><trkpt lat="43.56848976667649" lon="11.074332840931577"><ele>109.0</ele><time>2026-03-22T11:12:35.923Z</time></trkpt><trkpt lat="43.568391705326704" lon="11.07422160209578"><ele>106.25</ele><time>2026-03-22T11:12:36.923Z</time></trkpt><trkpt lat="43.56828391797245" lon="11.074112999330573"><ele>103.5</ele><time>2026-03-22T11:12:37.923Z</time></trkpt><trkpt lat="43.568172976706386" lon="11.07400389059678"><ele>100.75</ele><time>2026-03-22T11:12:38.923Z</time></trkpt><trkpt lat="43.56806027122758" lon="11.073905612619651"><ele>98.0</ele><time>2026-03-22T11:12:39.923Z</time></trkpt><trkpt lat="43.56795298717564" lon="11.073834727087533"><ele>100.0</ele><time>2026-03-22T11:12:40.923Z</time></trkpt><trkpt lat="43.56783965593832" lon="11.073797089755681"><ele>102.0</ele><time>2026-03-22T11:12:41.923Z</time></trkpt><trkpt lat="43.56772685939501" lon="11.073789147585352"><ele>104.0</ele><time>2026-03-22T11:12:42.923Z</time></trkpt><trkpt lat="43.567610829473864" lon="11.07377390030308"><ele>106.0</ele><time>2026-03-22T11:12:43.923Z</time></trkpt><trkpt lat="43.56748952822125" lon="11.073779952221571"><ele>106.0</ele><time>2026-03-22T11:12:44.923Z</time></trkpt><trkpt lat="43.56735500609616" lon="11.07378444762255"><ele>106.0</ele><time>2026-03-22T11:12:45.923Z</time></trkpt><trkpt lat="43.56720815004538" lon="11.073805174473966"><ele>106.0</ele><time>2026-03-22T11:12:46.923Z</time></trkpt><trkpt lat="43.56705156470357" lon="11.073765975717327"><ele>106.0</ele><time>2026-03-22T11:12:47.923Z</time></trkpt><trkpt lat="43.56689938905186" lon="11.073762078041849"><ele>105.33333333333334</ele><time>2026-03-22T11:12:48.923Z</time></trkpt><trkpt lat="43.56673378474036" lon="11.073725699079038"><ele>104.66666666666666</ele><time>2026-03-22T11:12:49.923Z</time></trkpt><trkpt lat="43.566572714734534" lon="11.073681962878476"><ele>104.0</ele><time>2026-03-22T11:12:50.923Z</time></trkpt><trkpt lat="43.56640844804406" lon="11.073613663288286"><ele>104.0</ele><time>2026-03-22T11:12:51.923Z</time></trkpt><trkpt lat="43.566254297700034" lon="11.073555238248273"><ele>104.0</ele><time>2026-03-22T11:12:52.923Z</time></trkpt><trkpt lat="43.56612664776004" lon="11.073511654376917"><ele>104.0</ele><time>2026-03-22T11:12:53.923Z</time></trkpt><trkpt lat="43.5660281991464" lon="11.07346561721468"><ele>104.0</ele><time>2026-03-22T11:12:54.923Z</time></trkpt><trkpt lat="43.56594519943774" lon="11.073432068446653"><ele>103.5</ele><time>2026-03-22T11:12:55.923Z</time></trkpt><trkpt lat="43.56585287110874" lon="11.073380498953671"><ele>103.0</ele><time>2026-03-22T11:12:56.923Z</time></trkpt><trkpt lat="43.565752752400954" lon="11.07331451540165"><ele>102.5</ele><time>2026-03-22T11:12:57.922Z</time></trkpt><trkpt lat="43.56563792250728" lon="11.073240259294444"><ele>102.0</ele><time>2026-03-22T11:12:58.922Z</time></trkpt><trkpt lat="43.565520137139664" lon="11.073148181411058"><ele>102.0</ele><time>2026-03-22T11:12:59.922Z</time></trkpt><trkpt lat="43.565385229697256" lon="11.073044644772388"><ele>102.0</ele><time>2026-03-22T11:13:00.922Z</time></trkpt><trkpt lat="43.56523754950934" lon="11.072934261483962"><ele>102.0</ele><time>2026-03-22T11:13:01.922Z</time></trkpt><trkpt lat="43.56508111953315" lon="11.072814212455132"><ele>98.66666666666667</ele><time>2026-03-22T11:13:02.922Z</time></trkpt><trkpt lat="43.564930342666685" lon="11.072687749798966"><ele>95.33333333333334</ele><time>2026-03-22T11:13:03.922Z</time></trkpt><trkpt lat="43.56477697891769" lon="11.07256354201831"><ele>92.0</ele><time>2026-03-22T11:13:04.922Z</time></trkpt><trkpt lat="43.56463785744284" lon="11.072444228140435"><ele>92.75</ele><time>2026-03-22T11:13:05.922Z</time></trkpt><trkpt lat="43.56451648757299" lon="11.072357493596824"><ele>93.5</ele><time>2026-03-22T11:13:06.922Z</time></trkpt><trkpt lat="43.56439223727932" lon="11.072282522634795"><ele>94.25</ele><time>2026-03-22T11:13:07.922Z</time></trkpt><trkpt lat="43.564265534817174" lon="11.072233208716591"><ele>95.0</ele><time>2026-03-22T11:13:08.922Z</time></trkpt><trkpt lat="43.56412721182998" lon="11.07221206234004"><ele>95.0</ele><time>2026-03-22T11:13:09.922Z</time></trkpt><trkpt lat="43.56397552129498" lon="11.072199338396961"><ele>95.0</ele><time>2026-03-22T11:13:10.922Z</time></trkpt><trkpt lat="43.56381589115974" lon="11.072166064724154"><ele>95.0</ele><time>2026-03-22T11:13:11.922Z</time></trkpt><trkpt lat="43.56365080911973" lon="11.07213034977747"><ele>93.66666666666667</ele><time>2026-03-22T11:13:12.922Z</time></trkpt><trkpt lat="43.563468185229496" lon="11.07207662160985"><ele>92.33333333333333</ele><time>2026-03-22T11:13:13.922Z</time></trkpt><trkpt lat="43.56328545873151" lon="11.072034413357276"><ele>91.0</ele><time>2026-03-22T11:13:14.922Z</time></trkpt><trkpt lat="43.56311631837863" lon="11.07199744671016"><ele>91.0</ele><time>2026-03-22T11:13:15.922Z</time></trkpt><trkpt lat="43.562966554991355" lon="11.071967355793571"><ele>91.0</ele><time>2026-03-22T11:13:16.922Z</time></trkpt><trkpt lat="43.56282720102681" lon="11.071925169883249"><ele>91.0</ele><time>2026-03-22T11:13:17.922Z</time></trkpt><trkpt lat="43.562707831510664" lon="11.07185922236852"><ele>91.0</ele><time>2026-03-22T11:13:18.922Z</time></trkpt><trkpt lat="43.56259941120732" lon="11.071755174597946"><ele>90.75</ele><time>2026-03-22T11:13:19.922Z</time></trkpt><trkpt lat="43.562501870278545" lon="11.071652663948733"><ele>90.5</ele><time>2026-03-22T11:13:20.922Z</time></trkpt><trkpt lat="43.56238368766771" lon="11.071555739522466"><ele>90.25</ele><time>2026-03-22T11:13:21.922Z</time></trkpt><trkpt lat="43.56226034017703" lon="11.071441485522756"><ele>90.0</ele><time>2026-03-22T11:13:22.922Z</time></trkpt><trkpt lat="43.56212271780952" lon="11.07134255747137"><ele>93.0</ele><time>2026-03-22T11:13:23.922Z</time></trkpt><trkpt lat="43.56198064463559" lon="11.071273381537953"><ele>96.0</ele><time>2026-03-22T11:13:24.922Z</time></trkpt><trkpt lat="43.56183030255917" lon="11.071244634771313"><ele>99.0</ele><time>2026-03-22T11:13:25.922Z</time></trkpt><trkpt lat="43.56168725377727" lon="11.071253291212345"><ele>102.0</ele><time>2026-03-22T11:13:26.922Z</time></trkpt><trkpt lat="43.56154568383459" lon="11.071254593436569"><ele>102.0</ele><time>2026-03-22T11:13:27.922Z</time></trkpt><trkpt lat="43.56141351988035" lon="11.071269956584636"><ele>102.0</ele><time>2026-03-22T11:13:28.921Z</time></trkpt><trkpt lat="43.561289476811005" lon="11.07128437572412"><ele>102.0</ele><time>2026-03-22T11:13:29.921Z</time></trkpt><trkpt lat="43.5611774584213" lon="11.071292731407512"><ele>102.0</ele><time>2026-03-22T11:13:30.924Z</time></trkpt><trkpt lat="43.561061458882406" lon="11.071285437312305"><ele>101.5</ele><time>2026-03-22T11:13:31.924Z</time></trkpt><trkpt lat="43.56093587840579" lon="11.071246553237899"><ele>101.0</ele><time>2026-03-22T11:13:32.924Z</time></trkpt><trkpt lat="43.560802141521954" lon="11.071172663642628"><ele>100.5</ele><time>2026-03-22T11:13:33.924Z</time></trkpt><trkpt lat="43.56066717955277" lon="11.071086222621167"><ele>100.0</ele><time>2026-03-22T11:13:34.924Z</time></trkpt><trkpt lat="43.56051891929756" lon="11.071012641919227"><ele>100.0</ele><time>2026-03-22T11:13:35.924Z</time></trkpt><trkpt lat="43.56037748384137" lon="11.070916863054766"><ele>100.0</ele><time>2026-03-22T11:13:36.924Z</time></trkpt><trkpt lat="43.56023444467133" lon="11.070800421312622"><ele>100.0</ele><time>2026-03-22T11:13:37.923Z</time></trkpt><trkpt lat="43.56007967200344" lon="11.070701757605859"><ele>100.66666666666667</ele><time>2026-03-22T11:13:38.923Z</time></trkpt><trkpt lat="43.55992235757529" lon="11.070607863679646"><ele>101.33333333333334</ele><time>2026-03-22T11:13:39.924Z</time></trkpt><trkpt lat="43.55976309429093" lon="11.070512215683996"><ele>102.0</ele><time>2026-03-22T11:13:40.924Z</time></trkpt><trkpt lat="43.55960516265314" lon="11.070411991403665"><ele>99.33333333333333</ele><time>2026-03-22T11:13:41.924Z</time></trkpt><trkpt lat="43.559455492515006" lon="11.070317917609135"><ele>96.66666666666666</ele><time>2026-03-22T11:13:42.923Z</time></trkpt><trkpt lat="43.55931656938099" lon="11.07023346680237"><ele>94.0</ele><time>2026-03-22T11:13:43.923Z</time></trkpt><trkpt lat="43.55918611598974" lon="11.070164525558754"><ele>94.0</ele><time>2026-03-22T11:13:44.923Z</time></trkpt><trkpt lat="43.55907260623573" lon="11.070105093790158"><ele>94.0</ele><time>2026-03-22T11:13:45.923Z</time></trkpt><trkpt lat="43.5589683534135" lon="11.070052240415562"><ele>94.0</ele><time>2026-03-22T11:13:46.923Z</time></trkpt><trkpt lat="43.55885922190789" lon="11.069996716598057"><ele>94.0</ele><time>2026-03-22T11:13:47.923Z</time></trkpt><trkpt lat="43.55875305700064" lon="11.069925002683217"><ele>93.0</ele><time>2026-03-22T11:13:48.923Z</time></trkpt><trkpt lat="43.55863387068792" lon="11.06985029135872"><ele>92.0</ele><time>2026-03-22T11:13:49.923Z</time></trkpt><trkpt lat="43.558510131735495" lon="11.069759759333717"><ele>91.0</ele><time>2026-03-22T11:13:50.923Z</time></trkpt><trkpt lat="43.55839483967881" lon="11.069660533477638"><ele>90.0</ele><time>2026-03-22T11:13:51.923Z</time></trkpt><trkpt lat="43.558294103155994" lon="11.069554065152685"><ele>90.0</ele><time>2026-03-22T11:13:52.923Z</time></trkpt><trkpt lat="43.55820663576218" lon="11.069428021365013"><ele>90.0</ele><time>2026-03-22T11:13:53.923Z</time></trkpt><trkpt lat="43.55814302103193" lon="11.0692879978763"><ele>90.0</ele><time>2026-03-22T11:13:54.923Z</time></trkpt><trkpt lat="43.558087321558844" lon="11.069130931452081"><ele>90.0</ele><time>2026-03-22T11:13:55.923Z</time></trkpt><trkpt lat="43.558030416773214" lon="11.068955333745329"><ele>90.33333333333333</ele><time>2026-03-22T11:13:56.923Z</time></trkpt><trkpt lat="43.55798260963273" lon="11.06876478599923"><ele>90.66666666666666</ele><time>2026-03-22T11:13:57.923Z</time></trkpt><trkpt lat="43.557938946920586" lon="11.068571139452068"><ele>91.0</ele><time>2026-03-22T11:13:58.923Z</time></trkpt><trkpt lat="43.55789997526654" lon="11.068361017183719"><ele>91.25</ele><time>2026-03-22T11:13:59.923Z</time></trkpt><trkpt lat="43.55785395971128" lon="11.068161618934816"><ele>91.5</ele><time>2026-03-22T11:14:00.923Z</time></trkpt><trkpt lat="43.557786552567684" lon="11.067998880489352"><ele>91.75</ele><time>2026-03-22T11:14:01.923Z</time></trkpt><trkpt lat="43.55770790089048" lon="11.067875717420373"><ele>92.0</ele><time>2026-03-22T11:14:02.923Z</time></trkpt><trkpt lat="43.55761538249555" lon="11.067764240679653"><ele>92.0</ele><time>2026-03-22T11:14:03.923Z</time></trkpt><trkpt lat="43.55751629446672" lon="11.067682217356534"><ele>92.0</ele><time>2026-03-22T11:14:04.923Z</time></trkpt><trkpt lat="43.55742025371811" lon="11.067622982142703"><ele>92.0</ele><time>2026-03-22T11:14:05.922Z</time></trkpt><trkpt lat="43.55734180800511" lon="11.067583521587633"><ele>92.0</ele><time>2026-03-22T11:14:06.922Z</time></trkpt><trkpt lat="43.55727453462892" lon="11.067602771353375"><ele>92.0</ele><time>2026-03-22T11:14:17.922Z</time></trkpt><trkpt lat="43.55714532864291" lon="11.067642110521204"><ele>92.0</ele><time>2026-03-22T11:14:19.922Z</time></trkpt><trkpt lat="43.55705082348151" lon="11.067670044185594"><ele>92.0</ele><time>2026-03-22T11:14:20.922Z</time></trkpt><trkpt lat="43.5569378716076" lon="11.067644204383464"><ele>92.0</ele><time>2026-03-22T11:14:21.922Z</time></trkpt><trkpt lat="43.556813941792875" lon="11.067655651501825"><ele>92.0</ele><time>2026-03-22T11:14:22.922Z</time></trkpt><trkpt lat="43.556674071593335" lon="11.067667955606908"><ele>90.25</ele><time>2026-03-22T11:14:23.922Z</time></trkpt><trkpt lat="43.556531568578144" lon="11.067678490181757"><ele>88.5</ele><time>2026-03-22T11:14:24.922Z</time></trkpt><trkpt lat="43.556387129400235" lon="11.067722954245323"><ele>86.75</ele><time>2026-03-22T11:14:25.922Z</time></trkpt><trkpt lat="43.55625799214906" lon="11.0677294814792"><ele>85.0</ele><time>2026-03-22T11:14:26.922Z</time></trkpt><trkpt lat="43.5561347257799" lon="11.06774138173902"><ele>85.0</ele><time>2026-03-22T11:14:27.922Z</time></trkpt><trkpt lat="43.55601574066087" lon="11.067743458354384"><ele>85.0</ele><time>2026-03-22T11:14:28.922Z</time></trkpt><trkpt lat="43.55568429864511" lon="11.067728928596164"><ele>85.0</ele><time>2026-03-22T11:14:31.922Z</time></trkpt><trkpt lat="43.55556797729506" lon="11.067666893033287"><ele>85.0</ele><time>2026-03-22T11:14:32.922Z</time></trkpt><trkpt lat="43.55545297878386" lon="11.067584954988572"><ele>85.0</ele><time>2026-03-22T11:14:33.922Z</time></trkpt><trkpt lat="43.55534812944165" lon="11.067479603396992"><ele>85.0</ele><time>2026-03-22T11:14:34.922Z</time></trkpt><trkpt lat="43.55523184665926" lon="11.067376051396048"><ele>84.25</ele><time>2026-03-22T11:14:35.922Z</time></trkpt><trkpt lat="43.55511531204435" lon="11.067285070345859"><ele>83.5</ele><time>2026-03-22T11:14:36.921Z</time></trkpt><trkpt lat="43.55500609233222" lon="11.067187965343694"><ele>82.75</ele><time>2026-03-22T11:14:37.921Z</time></trkpt><trkpt lat="43.55489042562671" lon="11.06715853151525"><ele>82.0</ele><time>2026-03-22T11:14:38.921Z</time></trkpt><trkpt lat="43.554799350857515" lon="11.067146913242883"><ele>82.0</ele><time>2026-03-22T11:14:39.921Z</time></trkpt><trkpt lat="43.55472638608016" lon="11.067161675632567"><ele>82.0</ele><time>2026-03-22T11:14:40.921Z</time></trkpt><trkpt lat="43.554660217558215" lon="11.067167669321696"><ele>82.0</ele><time>2026-03-22T11:14:42.921Z</time></trkpt><trkpt lat="43.554674545316026" lon="11.067291251730559"><ele>82.0</ele><time>2026-03-22T11:14:48.921Z</time></trkpt><trkpt lat="43.55470808072566" lon="11.067451293185652"><ele>82.0</ele><time>2026-03-22T11:14:50.921Z</time></trkpt><trkpt lat="43.55474519087691" lon="11.067540683856965"><ele>82.0</ele><time>2026-03-22T11:14:51.921Z</time></trkpt><trkpt lat="43.55478842767302" lon="11.067644832522879"><ele>82.19999999999999</ele><time>2026-03-22T11:14:52.921Z</time></trkpt><trkpt lat="43.554834183312806" lon="11.067761195892134"><ele>82.4</ele><time>2026-03-22T11:14:53.921Z</time></trkpt><trkpt lat="43.554885175806035" lon="11.067894914338037"><ele>82.6</ele><time>2026-03-22T11:14:54.921Z</time></trkpt><trkpt lat="43.554931964610354" lon="11.068017609103785"><ele>82.80000000000001</ele><time>2026-03-22T11:14:55.921Z</time></trkpt><trkpt lat="43.555012371493206" lon="11.068126618987915"><ele>83.0</ele><time>2026-03-22T11:14:56.921Z</time></trkpt><trkpt lat="43.555061287732165" lon="11.068273118351119"><ele>83.25</ele><time>2026-03-22T11:14:57.921Z</time></trkpt><trkpt lat="43.55512150075512" lon="11.06842589578625"><ele>83.5</ele><time>2026-03-22T11:14:58.921Z</time></trkpt><trkpt lat="43.55518714584956" lon="11.068584692277337"><ele>83.75</ele><time>2026-03-22T11:14:59.921Z</time></trkpt><trkpt lat="43.555242953404885" lon="11.06871966573629"><ele>84.0</ele><time>2026-03-22T11:15:00.921Z</time></trkpt><trkpt lat="43.55529528692838" lon="11.06884547553824"><ele>84.0</ele><time>2026-03-22T11:15:01.921Z</time></trkpt><trkpt lat="43.555358591004016" lon="11.0689784930481"><ele>84.0</ele><time>2026-03-22T11:15:02.921Z</time></trkpt><trkpt lat="43.55541118988021" lon="11.069127358846002"><ele>84.0</ele><time>2026-03-22T11:15:03.921Z</time></trkpt><trkpt lat="43.55548691894614" lon="11.069264383539714"><ele>84.0</ele><time>2026-03-22T11:15:04.921Z</time></trkpt><trkpt lat="43.55557334642813" lon="11.069397694713956"><ele>86.25</ele><time>2026-03-22T11:15:05.921Z</time></trkpt><trkpt lat="43.555665053721924" lon="11.069534798195868"><ele>88.5</ele><time>2026-03-22T11:15:06.921Z</time></trkpt><trkpt lat="43.555752327547644" lon="11.069678673881539"><ele>90.75</ele><time>2026-03-22T11:15:07.921Z</time></trkpt><trkpt lat="43.555837774045386" lon="11.06982338155713"><ele>93.0</ele><time>2026-03-22T11:15:08.921Z</time></trkpt><trkpt lat="43.55591462809" lon="11.069960609645168"><ele>93.0</ele><time>2026-03-22T11:15:09.922Z</time></trkpt><trkpt lat="43.55599750431783" lon="11.070081516984764"><ele>93.0</ele><time>2026-03-22T11:15:10.923Z</time></trkpt><trkpt lat="43.556053654673065" lon="11.070228767263599"><ele>93.0</ele><time>2026-03-22T11:15:11.923Z</time></trkpt><trkpt lat="43.5561188547561" lon="11.070358614584412"><ele>93.0</ele><time>2026-03-22T11:15:12.924Z</time></trkpt><trkpt lat="43.55618463231901" lon="11.070490447750004"><ele>94.5</ele><time>2026-03-22T11:15:13.924Z</time></trkpt><trkpt lat="43.55625404007645" lon="11.070629734334394"><ele>96.0</ele><time>2026-03-22T11:15:14.925Z</time></trkpt><trkpt lat="43.55632991743552" lon="11.070782708885238"><ele>97.5</ele><time>2026-03-22T11:15:15.925Z</time></trkpt><trkpt lat="43.5564082503082" lon="11.070940634019852"><ele>99.0</ele><time>2026-03-22T11:15:16.925Z</time></trkpt><trkpt lat="43.556489234631606" lon="11.071103867160414"><ele>100.66666666666666</ele><time>2026-03-22T11:15:17.926Z</time></trkpt><trkpt lat="43.556577241588975" lon="11.0712755959422"><ele>102.33333333333333</ele><time>2026-03-22T11:15:18.926Z</time></trkpt><trkpt lat="43.55666588332798" lon="11.071449061061058"><ele>104.0</ele><time>2026-03-22T11:15:19.926Z</time></trkpt><trkpt lat="43.55675881169894" lon="11.071628045536535"><ele>105.0</ele><time>2026-03-22T11:15:20.927Z</time></trkpt><trkpt lat="43.55686098610348" lon="11.071824773339369"><ele>106.0</ele><time>2026-03-22T11:15:21.927Z</time></trkpt><trkpt lat="43.55695665165062" lon="11.07201775658778"><ele>107.0</ele><time>2026-03-22T11:15:22.927Z</time></trkpt><trkpt lat="43.557044188070456" lon="11.072194439605855"><ele>108.66666666666666</ele><time>2026-03-22T11:15:23.927Z</time></trkpt><trkpt lat="43.55713057301341" lon="11.072372633904614"><ele>110.33333333333334</ele><time>2026-03-22T11:15:24.927Z</time></trkpt><trkpt lat="43.55721965883785" lon="11.072564039067515"><ele>112.0</ele><time>2026-03-22T11:15:25.928Z</time></trkpt><trkpt lat="43.55730734557677" lon="11.072764154971484"><ele>112.66666666666667</ele><time>2026-03-22T11:15:26.928Z</time></trkpt><trkpt lat="43.557397728601345" lon="11.07297066214838"><ele>113.33333333333334</ele><time>2026-03-22T11:15:27.928Z</time></trkpt><trkpt lat="43.55749342229095" lon="11.073189304920298"><ele>114.0</ele><time>2026-03-22T11:15:28.928Z</time></trkpt><trkpt lat="43.557582990187" lon="11.073409518953381"><ele>114.66666666666666</ele><time>2026-03-22T11:15:29.928Z</time></trkpt><trkpt lat="43.557679664030104" lon="11.07363781168506"><ele>115.33333333333333</ele><time>2026-03-22T11:15:30.928Z</time></trkpt><trkpt lat="43.557804760342535" lon="11.073849515212748"><ele>116.0</ele><time>2026-03-22T11:15:31.929Z</time></trkpt><trkpt lat="43.55791305015949" lon="11.074081223683015"><ele>118.66666666666666</ele><time>2026-03-22T11:15:32.929Z</time></trkpt><trkpt lat="43.558029582203694" lon="11.074291411784227"><ele>121.33333333333334</ele><time>2026-03-22T11:15:33.929Z</time></trkpt><trkpt lat="43.558147525555" lon="11.074489539366207"><ele>124.0</ele><time>2026-03-22T11:15:34.929Z</time></trkpt><trkpt lat="43.55822977003596" lon="11.074669862069106"><ele>124.0</ele><time>2026-03-22T11:15:35.929Z</time></trkpt><trkpt lat="43.55831331479211" lon="11.074802285753446"><ele>124.0</ele><time>2026-03-22T11:15:36.932Z</time></trkpt><trkpt lat="43.558356328361675" lon="11.074972905592245"><ele>124.0</ele><time>2026-03-22T11:15:37.931Z</time></trkpt><trkpt lat="43.558370387536094" lon="11.075169741402627"><ele>124.0</ele><time>2026-03-22T11:15:38.932Z</time></trkpt><trkpt lat="43.55839691674626" lon="11.075365649672142"><ele>124.33333333333334</ele><time>2026-03-22T11:15:39.931Z</time></trkpt><trkpt lat="43.55838793700436" lon="11.075586134917813"><ele>124.66666666666666</ele><time>2026-03-22T11:15:40.931Z</time></trkpt><trkpt lat="43.558434966111484" lon="11.075793942421512"><ele>125.0</ele><time>2026-03-22T11:15:41.931Z</time></trkpt><trkpt lat="43.558484154492206" lon="11.076008449306235"><ele>124.33333333333333</ele><time>2026-03-22T11:15:42.932Z</time></trkpt><trkpt lat="43.558535857409474" lon="11.07623167125783"><ele>123.66666666666666</ele><time>2026-03-22T11:15:43.932Z</time></trkpt><trkpt lat="43.55858899586493" lon="11.076451322830362"><ele>123.0</ele><time>2026-03-22T11:15:44.932Z</time></trkpt><trkpt lat="43.558669153813256" lon="11.076680570135668"><ele>123.33333333333334</ele><time>2026-03-22T11:15:45.932Z</time></trkpt><trkpt lat="43.558753279249835" lon="11.076893476715183"><ele>123.66666666666667</ele><time>2026-03-22T11:15:46.932Z</time></trkpt><trkpt lat="43.55884755930179" lon="11.077125507393635"><ele>124.0</ele><time>2026-03-22T11:15:47.932Z</time></trkpt><trkpt lat="43.55893471593488" lon="11.077340006859732"><ele>127.0</ele><time>2026-03-22T11:15:48.932Z</time></trkpt><trkpt lat="43.55901904143411" lon="11.077551133081593"><ele>130.0</ele><time>2026-03-22T11:15:49.932Z</time></trkpt><trkpt lat="43.559092907293596" lon="11.077739284284885"><ele>133.0</ele><time>2026-03-22T11:15:50.932Z</time></trkpt><trkpt lat="43.55916447456325" lon="11.077921742724078"><ele>133.0</ele><time>2026-03-22T11:15:51.932Z</time></trkpt><trkpt lat="43.55923459490086" lon="11.07810145214794"><ele>133.0</ele><time>2026-03-22T11:15:52.932Z</time></trkpt><trkpt lat="43.559306617044506" lon="11.078286035867166"><ele>133.0</ele><time>2026-03-22T11:15:53.932Z</time></trkpt><trkpt lat="43.55938183520812" lon="11.078476660207006"><ele>133.33333333333334</ele><time>2026-03-22T11:15:54.932Z</time></trkpt><trkpt lat="43.55946276031417" lon="11.078680104296243"><ele>133.66666666666666</ele><time>2026-03-22T11:15:55.932Z</time></trkpt><trkpt lat="43.559549544114475" lon="11.078892808026435"><ele>134.0</ele><time>2026-03-22T11:15:56.932Z</time></trkpt><trkpt lat="43.559644429028715" lon="11.079108420379214"><ele>133.0</ele><time>2026-03-22T11:15:57.932Z</time></trkpt><trkpt lat="43.55974461720935" lon="11.07933109021529"><ele>132.0</ele><time>2026-03-22T11:15:58.932Z</time></trkpt><trkpt lat="43.55985522337701" lon="11.079541231415122"><ele>131.0</ele><time>2026-03-22T11:15:59.932Z</time></trkpt><trkpt lat="43.559966159233014" lon="11.079742027640537"><ele>131.33333333333331</ele><time>2026-03-22T11:16:00.932Z</time></trkpt><trkpt lat="43.56007616731587" lon="11.079952590577268"><ele>131.66666666666666</ele><time>2026-03-22T11:16:01.932Z</time></trkpt><trkpt lat="43.560183063315286" lon="11.080165372092896"><ele>132.0</ele><time>2026-03-22T11:16:02.932Z</time></trkpt><trkpt lat="43.56029091528671" lon="11.080391470571907"><ele>132.33333333333334</ele><time>2026-03-22T11:16:03.932Z</time></trkpt><trkpt lat="43.56040222880674" lon="11.080615883163274"><ele>132.66666666666669</ele><time>2026-03-22T11:16:04.932Z</time></trkpt><trkpt lat="43.56050947983906" lon="11.080829576640838"><ele>133.0</ele><time>2026-03-22T11:16:05.932Z</time></trkpt><trkpt lat="43.56061151684062" lon="11.081032267166444"><ele>133.0</ele><time>2026-03-22T11:16:06.932Z</time></trkpt><trkpt lat="43.56070361233695" lon="11.081196934892372"><ele>133.0</ele><time>2026-03-22T11:16:07.932Z</time></trkpt><trkpt lat="43.56079534631215" lon="11.081346199706282"><ele>133.0</ele><time>2026-03-22T11:16:08.932Z</time></trkpt><trkpt lat="43.56088697709181" lon="11.08148172489428"><ele>133.0</ele><time>2026-03-22T11:16:09.932Z</time></trkpt><trkpt lat="43.560981269111146" lon="11.081560610025221"><ele>134.8</ele><time>2026-03-22T11:16:10.932Z</time></trkpt><trkpt lat="43.56107307862514" lon="11.081649603521521"><ele>136.60000000000002</ele><time>2026-03-22T11:16:11.932Z</time></trkpt><trkpt lat="43.56116803930593" lon="11.081706738910043"><ele>138.39999999999998</ele><time>2026-03-22T11:16:12.932Z</time></trkpt><trkpt lat="43.56126834431939" lon="11.081740091611145"><ele>140.2</ele><time>2026-03-22T11:16:13.932Z</time></trkpt><trkpt lat="43.561387749134184" lon="11.081730831743394"><ele>142.0</ele><time>2026-03-22T11:16:14.932Z</time></trkpt><trkpt lat="43.56149928599953" lon="11.081669735749136"><ele>142.0</ele><time>2026-03-22T11:16:15.932Z</time></trkpt><trkpt lat="43.561620559009135" lon="11.081635322692254"><ele>142.0</ele><time>2026-03-22T11:16:16.932Z</time></trkpt><trkpt lat="43.561746889231124" lon="11.08158562269865"><ele>142.0</ele><time>2026-03-22T11:16:17.932Z</time></trkpt><trkpt lat="43.56188317652253" lon="11.081564428375899"><ele>142.0</ele><time>2026-03-22T11:16:18.932Z</time></trkpt><trkpt lat="43.562011888829645" lon="11.081578522905494"><ele>143.75</ele><time>2026-03-22T11:16:19.932Z</time></trkpt><trkpt lat="43.56212891792675" lon="11.0816379302438"><ele>145.5</ele><time>2026-03-22T11:16:20.932Z</time></trkpt><trkpt lat="43.562266565688965" lon="11.081708313764674"><ele>147.25</ele><time>2026-03-22T11:16:21.932Z</time></trkpt><trkpt lat="43.562401543498524" lon="11.081786833145063"><ele>149.0</ele><time>2026-03-22T11:16:22.932Z</time></trkpt><trkpt lat="43.56253026163997" lon="11.08186885051896"><ele>149.0</ele><time>2026-03-22T11:16:23.932Z</time></trkpt><trkpt lat="43.562654175828534" lon="11.08198350902435"><ele>149.0</ele><time>2026-03-22T11:16:24.932Z</time></trkpt><trkpt lat="43.562784576497656" lon="11.082075029425548"><ele>149.0</ele><time>2026-03-22T11:16:25.932Z</time></trkpt><trkpt lat="43.56292717450578" lon="11.082151620720417"><ele>149.0</ele><time>2026-03-22T11:16:26.932Z</time></trkpt><trkpt lat="43.5630379917211" lon="11.082234495251715"><ele>147.75</ele><time>2026-03-22T11:16:27.932Z</time></trkpt><trkpt lat="43.56314409980879" lon="11.082303078586394"><ele>146.5</ele><time>2026-03-22T11:16:28.932Z</time></trkpt><trkpt lat="43.56324431006029" lon="11.082344964952014"><ele>145.25</ele><time>2026-03-22T11:16:29.932Z</time></trkpt><trkpt lat="43.56335644182079" lon="11.082392047017843"><ele>144.0</ele><time>2026-03-22T11:16:30.932Z</time></trkpt><trkpt lat="43.563480473992776" lon="11.082423232978794"><ele>143.66666666666666</ele><time>2026-03-22T11:16:31.932Z</time></trkpt><trkpt lat="43.56362178077314" lon="11.082448737308168"><ele>143.33333333333331</ele><time>2026-03-22T11:16:32.932Z</time></trkpt><trkpt lat="43.56377657944491" lon="11.082465920402726"><ele>143.0</ele><time>2026-03-22T11:16:33.932Z</time></trkpt><trkpt lat="43.563943976196974" lon="11.082465798518939"><ele>143.0</ele><time>2026-03-22T11:16:34.932Z</time></trkpt><trkpt lat="43.56413033681534" lon="11.082462693894543"><ele>143.0</ele><time>2026-03-22T11:16:35.932Z</time></trkpt><trkpt lat="43.56433459199172" lon="11.082454200645483"><ele>143.0</ele><time>2026-03-22T11:16:36.932Z</time></trkpt><trkpt lat="43.564547172399216" lon="11.082455078924532"><ele>143.33333333333331</ele><time>2026-03-22T11:16:37.932Z</time></trkpt><trkpt lat="43.56475253889109" lon="11.08244580465058"><ele>143.66666666666666</ele><time>2026-03-22T11:16:38.932Z</time></trkpt><trkpt lat="43.56493234056447" lon="11.082442160518184"><ele>144.0</ele><time>2026-03-22T11:16:39.931Z</time></trkpt><trkpt lat="43.56508886289912" lon="11.082430508430631"><ele>143.33333333333334</ele><time>2026-03-22T11:16:40.931Z</time></trkpt><trkpt lat="43.565247700888335" lon="11.082423567271617"><ele>142.66666666666669</ele><time>2026-03-22T11:16:41.931Z</time></trkpt><trkpt lat="43.56540231830012" lon="11.082418492510914"><ele>142.0</ele><time>2026-03-22T11:16:42.931Z</time></trkpt><trkpt lat="43.5655600467408" lon="11.082412127865561"><ele>141.0</ele><time>2026-03-22T11:16:43.931Z</time></trkpt><trkpt lat="43.56571898109591" lon="11.082404590018752"><ele>140.0</ele><time>2026-03-22T11:16:44.931Z</time></trkpt><trkpt lat="43.56588434404039" lon="11.082401019541162"><ele>139.0</ele><time>2026-03-22T11:16:45.931Z</time></trkpt><trkpt lat="43.56605661050075" lon="11.082416886258946"><ele>141.33333333333334</ele><time>2026-03-22T11:16:46.931Z</time></trkpt><trkpt lat="43.56622180934634" lon="11.082448061009334"><ele>143.66666666666666</ele><time>2026-03-22T11:16:47.931Z</time></trkpt><trkpt lat="43.56639066372768" lon="11.082492430257744"><ele>146.0</ele><time>2026-03-22T11:16:48.931Z</time></trkpt><trkpt lat="43.566566460057416" lon="11.082546034086045"><ele>146.0</ele><time>2026-03-22T11:16:49.931Z</time></trkpt><trkpt lat="43.56674489951642" lon="11.082597246961782"><ele>146.0</ele><time>2026-03-22T11:16:50.931Z</time></trkpt><trkpt lat="43.56692765122051" lon="11.082679963774787"><ele>146.0</ele><time>2026-03-22T11:16:51.931Z</time></trkpt><trkpt lat="43.567108785867134" lon="11.08275428851094"><ele>148.66666666666666</ele><time>2026-03-22T11:16:52.931Z</time></trkpt><trkpt lat="43.56728063595125" lon="11.082844967668466"><ele>151.33333333333334</ele><time>2026-03-22T11:16:53.931Z</time></trkpt><trkpt lat="43.567432667695414" lon="11.082958864204103"><ele>154.0</ele><time>2026-03-22T11:16:54.931Z</time></trkpt><trkpt lat="43.56758162891647" lon="11.083025729795667"><ele>154.0</ele><time>2026-03-22T11:16:55.931Z</time></trkpt><trkpt lat="43.56771338695267" lon="11.083108573233577"><ele>154.0</ele><time>2026-03-22T11:16:56.931Z</time></trkpt><trkpt lat="43.567843565822365" lon="11.08315079645563"><ele>154.0</ele><time>2026-03-22T11:16:57.931Z</time></trkpt><trkpt lat="43.56797606797709" lon="11.083214226578232"><ele>154.0</ele><time>2026-03-22T11:16:58.931Z</time></trkpt><trkpt lat="43.56810024016672" lon="11.083273372647854"><ele>153.5</ele><time>2026-03-22T11:16:59.931Z</time></trkpt><trkpt lat="43.56820520961224" lon="11.08334473973626"><ele>153.0</ele><time>2026-03-22T11:17:00.931Z</time></trkpt><trkpt lat="43.56831745987184" lon="11.083400942819246"><ele>152.5</ele><time>2026-03-22T11:17:01.931Z</time></trkpt><trkpt lat="43.56843637098617" lon="11.083462689580871"><ele>152.0</ele><time>2026-03-22T11:17:02.931Z</time></trkpt><trkpt lat="43.56855855771521" lon="11.083521936956945"><ele>152.0</ele><time>2026-03-22T11:17:03.931Z</time></trkpt><trkpt lat="43.5686915148179" lon="11.083580104856651"><ele>152.0</ele><time>2026-03-22T11:17:04.931Z</time></trkpt><trkpt lat="43.56882519394014" lon="11.083630970919533"><ele>152.0</ele><time>2026-03-22T11:17:05.931Z</time></trkpt><trkpt lat="43.56895011229373" lon="11.08368545142773"><ele>152.0</ele><time>2026-03-22T11:17:06.931Z</time></trkpt><trkpt lat="43.569062399583615" lon="11.083745196382814"><ele>152.75</ele><time>2026-03-22T11:17:07.931Z</time></trkpt><trkpt lat="43.56914972343272" lon="11.08386465853274"><ele>153.5</ele><time>2026-03-22T11:17:08.931Z</time></trkpt><trkpt lat="43.56924669292184" lon="11.083993017915938"><ele>154.25</ele><time>2026-03-22T11:17:09.931Z</time></trkpt><trkpt lat="43.5693458424719" lon="11.084133541446857"><ele>155.0</ele><time>2026-03-22T11:17:10.931Z</time></trkpt><trkpt lat="43.5694412835568" lon="11.084289453166859"><ele>154.0</ele><time>2026-03-22T11:17:11.931Z</time></trkpt><trkpt lat="43.5695325549544" lon="11.084468229908074"><ele>153.0</ele><time>2026-03-22T11:17:12.931Z</time></trkpt><trkpt lat="43.569601297625724" lon="11.084657589379516"><ele>152.0</ele><time>2026-03-22T11:17:13.931Z</time></trkpt><trkpt lat="43.569649912217386" lon="11.084847861600458"><ele>153.66666666666666</ele><time>2026-03-22T11:17:14.93Z</time></trkpt><trkpt lat="43.569692935476525" lon="11.085048104913707"><ele>155.33333333333334</ele><time>2026-03-22T11:17:15.93Z</time></trkpt><trkpt lat="43.569728037377416" lon="11.085247474724348"><ele>157.0</ele><time>2026-03-22T11:17:16.93Z</time></trkpt><trkpt lat="43.56975938045118" lon="11.085453840685114"><ele>157.0</ele><time>2026-03-22T11:17:17.93Z</time></trkpt><trkpt lat="43.569784699478134" lon="11.085669951096433"><ele>157.0</ele><time>2026-03-22T11:17:18.93Z</time></trkpt><trkpt lat="43.56981074756696" lon="11.085905455441532"><ele>157.0</ele><time>2026-03-22T11:17:19.93Z</time></trkpt><trkpt lat="43.569834159125044" lon="11.086117122605872"><ele>159.25</ele><time>2026-03-22T11:17:20.93Z</time></trkpt><trkpt lat="43.56985793661258" lon="11.086294134841948"><ele>161.5</ele><time>2026-03-22T11:17:21.93Z</time></trkpt><trkpt lat="43.56990432936634" lon="11.086436430148979"><ele>163.75</ele><time>2026-03-22T11:17:22.93Z</time></trkpt><trkpt lat="43.56995890255157" lon="11.086565344311579"><ele>166.0</ele><time>2026-03-22T11:17:23.93Z</time></trkpt><trkpt lat="43.57004785638269" lon="11.086649821889793"><ele>169.75</ele><time>2026-03-22T11:17:24.93Z</time></trkpt><trkpt lat="43.57016351629064" lon="11.086687076647445"><ele>173.5</ele><time>2026-03-22T11:17:25.93Z</time></trkpt><trkpt lat="43.57029097400555" lon="11.086713925018046"><ele>177.25</ele><time>2026-03-22T11:17:26.93Z</time></trkpt><trkpt lat="43.57041769310237" lon="11.086745093581717"><ele>181.0</ele><time>2026-03-22T11:17:27.93Z</time></trkpt><trkpt lat="43.57055095997364" lon="11.086789355292044"><ele>181.4</ele><time>2026-03-22T11:17:28.93Z</time></trkpt><trkpt lat="43.57068005909156" lon="11.086844742081228"><ele>181.8</ele><time>2026-03-22T11:17:29.93Z</time></trkpt><trkpt lat="43.57079021275995" lon="11.086917479760855"><ele>182.20000000000002</ele><time>2026-03-22T11:17:30.93Z</time></trkpt><trkpt lat="43.57084018232086" lon="11.087030753795018"><ele>182.60000000000002</ele><time>2026-03-22T11:17:31.93Z</time></trkpt><trkpt lat="43.57084867142595" lon="11.087157805217585"><ele>183.0</ele><time>2026-03-22T11:17:32.93Z</time></trkpt><trkpt lat="43.570876013698076" lon="11.087314379805509"><ele>185.2</ele><time>2026-03-22T11:17:33.93Z</time></trkpt><trkpt lat="43.570902382685034" lon="11.087471061743317"><ele>187.4</ele><time>2026-03-22T11:17:34.93Z</time></trkpt><trkpt lat="43.570919400907584" lon="11.087624714054387"><ele>189.6</ele><time>2026-03-22T11:17:35.93Z</time></trkpt><trkpt lat="43.570920803341934" lon="11.087742610780364"><ele>191.79999999999998</ele><time>2026-03-22T11:17:36.93Z</time></trkpt><trkpt lat="43.57091279599718" lon="11.087842788972592"><ele>194.0</ele><time>2026-03-22T11:17:37.93Z</time></trkpt><trkpt lat="43.5708922103269" lon="11.087953712839624"><ele>194.0</ele><time>2026-03-22T11:17:38.93Z</time></trkpt><trkpt lat="43.57086381267095" lon="11.088079772895565"><ele>194.0</ele><time>2026-03-22T11:17:39.93Z</time></trkpt><trkpt lat="43.57080248285108" lon="11.088202122649781"><ele>194.0</ele><time>2026-03-22T11:17:40.93Z</time></trkpt><trkpt lat="43.57073437333275" lon="11.088358786815078"><ele>194.0</ele><time>2026-03-22T11:17:41.93Z</time></trkpt><trkpt lat="43.570675711090026" lon="11.08852162311012"><ele>193.25</ele><time>2026-03-22T11:17:42.932Z</time></trkpt><trkpt lat="43.57064300314992" lon="11.08871020741916"><ele>192.5</ele><time>2026-03-22T11:17:43.932Z</time></trkpt><trkpt lat="43.57064031408616" lon="11.088869240652812"><ele>191.75</ele><time>2026-03-22T11:17:44.932Z</time></trkpt><trkpt lat="43.57070184462627" lon="11.089027564433403"><ele>191.0</ele><time>2026-03-22T11:17:45.932Z</time></trkpt><trkpt lat="43.57073990953585" lon="11.08917346188396"><ele>188.75</ele><time>2026-03-22T11:17:46.932Z</time></trkpt><trkpt lat="43.570758718350625" lon="11.089319667037241"><ele>186.5</ele><time>2026-03-22T11:17:47.932Z</time></trkpt><trkpt lat="43.57077258561818" lon="11.089483447528648"><ele>184.25</ele><time>2026-03-22T11:17:48.932Z</time></trkpt><trkpt lat="43.57077915547137" lon="11.089677868999352"><ele>182.0</ele><time>2026-03-22T11:17:49.932Z</time></trkpt><trkpt lat="43.57080529594944" lon="11.089883683109742"><ele>181.33333333333331</ele><time>2026-03-22T11:17:50.932Z</time></trkpt><trkpt lat="43.57083750808315" lon="11.090101107938438"><ele>180.66666666666666</ele><time>2026-03-22T11:17:51.932Z</time></trkpt><trkpt lat="43.57089050132012" lon="11.09029846406106"><ele>180.0</ele><time>2026-03-22T11:17:52.932Z</time></trkpt><trkpt lat="43.5709727466255" lon="11.090464218597887"><ele>180.0</ele><time>2026-03-22T11:17:53.932Z</time></trkpt><trkpt lat="43.5710505305045" lon="11.090632019094278"><ele>180.0</ele><time>2026-03-22T11:17:54.932Z</time></trkpt><trkpt lat="43.57114494168187" lon="11.09079879404144"><ele>180.0</ele><time>2026-03-22T11:17:55.932Z</time></trkpt><trkpt lat="43.57121811341761" lon="11.090989134178464"><ele>176.66666666666666</ele><time>2026-03-22T11:17:56.932Z</time></trkpt><trkpt lat="43.571300943210666" lon="11.091175928426003"><ele>173.33333333333331</ele><time>2026-03-22T11:17:57.932Z</time></trkpt><trkpt lat="43.57138649287771" lon="11.091360732240494"><ele>170.0</ele><time>2026-03-22T11:17:58.932Z</time></trkpt><trkpt lat="43.57150001899148" lon="11.091524106886402"><ele>174.33333333333331</ele><time>2026-03-22T11:17:59.932Z</time></trkpt><trkpt lat="43.57160902305271" lon="11.091666817568774"><ele>178.66666666666666</ele><time>2026-03-22T11:18:00.932Z</time></trkpt><trkpt lat="43.57173965169154" lon="11.09178387154838"><ele>183.0</ele><time>2026-03-22T11:18:01.932Z</time></trkpt><trkpt lat="43.571870846630446" lon="11.091887820487035"><ele>183.0</ele><time>2026-03-22T11:18:02.932Z</time></trkpt><trkpt lat="43.571981196572686" lon="11.091998056238012"><ele>183.0</ele><time>2026-03-22T11:18:03.932Z</time></trkpt><trkpt lat="43.57203453686092" lon="11.092161093914788"><ele>183.0</ele><time>2026-03-22T11:18:04.932Z</time></trkpt><trkpt lat="43.57211185150712" lon="11.092318367936377"><ele>183.0</ele><time>2026-03-22T11:18:05.932Z</time></trkpt><trkpt lat="43.572220972129834" lon="11.092444233542896"><ele>184.75</ele><time>2026-03-22T11:18:06.932Z</time></trkpt><trkpt lat="43.572321379873344" lon="11.092584495733806"><ele>186.5</ele><time>2026-03-22T11:18:07.931Z</time></trkpt><trkpt lat="43.572451776820536" lon="11.092718547605452"><ele>188.25</ele><time>2026-03-22T11:18:08.931Z</time></trkpt><trkpt lat="43.572568174594664" lon="11.092819458662287"><ele>190.0</ele><time>2026-03-22T11:18:09.931Z</time></trkpt><trkpt lat="43.57264541878446" lon="11.092965257748917"><ele>190.0</ele><time>2026-03-22T11:18:10.931Z</time></trkpt><trkpt lat="43.57271162728415" lon="11.093115700180558"><ele>190.0</ele><time>2026-03-22T11:18:11.931Z</time></trkpt><trkpt lat="43.57276783392255" lon="11.093270404905565"><ele>190.0</ele><time>2026-03-22T11:18:12.931Z</time></trkpt><trkpt lat="43.57282838508359" lon="11.093446696591151"><ele>190.0</ele><time>2026-03-22T11:18:13.931Z</time></trkpt><trkpt lat="43.57286889457322" lon="11.093638072315084"><ele>192.0</ele><time>2026-03-22T11:18:14.931Z</time></trkpt><trkpt lat="43.572922487240234" lon="11.093840550466462"><ele>194.0</ele><time>2026-03-22T11:18:15.931Z</time></trkpt><trkpt lat="43.57298029018562" lon="11.09405893541814"><ele>196.0</ele><time>2026-03-22T11:18:16.931Z</time></trkpt><trkpt lat="43.573046368873506" lon="11.094298905818814"><ele>196.0</ele><time>2026-03-22T11:18:17.931Z</time></trkpt><trkpt lat="43.57312152806983" lon="11.094536578662723"><ele>196.0</ele><time>2026-03-22T11:18:18.931Z</time></trkpt><trkpt lat="43.57320982425717" lon="11.094762791064666"><ele>196.0</ele><time>2026-03-22T11:18:19.931Z</time></trkpt><trkpt lat="43.573302138495" lon="11.094956839316456"><ele>192.33333333333331</ele><time>2026-03-22T11:18:20.931Z</time></trkpt><trkpt lat="43.57339720320111" lon="11.095146969758593"><ele>188.66666666666666</ele><time>2026-03-22T11:18:21.931Z</time></trkpt><trkpt lat="43.573480465313956" lon="11.095323859121295"><ele>185.0</ele><time>2026-03-22T11:18:22.931Z</time></trkpt><trkpt lat="43.57354960186448" lon="11.095486385433363"><ele>185.0</ele><time>2026-03-22T11:18:23.931Z</time></trkpt><trkpt lat="43.57359282841781" lon="11.095652361339043"><ele>185.0</ele><time>2026-03-22T11:18:24.931Z</time></trkpt><trkpt lat="43.573600712061264" lon="11.095832455506702"><ele>185.0</ele><time>2026-03-22T11:18:25.931Z</time></trkpt><trkpt lat="43.57359952760751" lon="11.09602581331258"><ele>185.0</ele><time>2026-03-22T11:18:26.931Z</time></trkpt><trkpt lat="43.57359218953111" lon="11.096249833388894"><ele>184.66666666666666</ele><time>2026-03-22T11:18:27.931Z</time></trkpt><trkpt lat="43.57358066676092" lon="11.096471473646913"><ele>184.33333333333334</ele><time>2026-03-22T11:18:28.931Z</time></trkpt><trkpt lat="43.573562285894695" lon="11.096711687155306"><ele>184.0</ele><time>2026-03-22T11:18:29.931Z</time></trkpt><trkpt lat="43.57357102365757" lon="11.096958801756822"><ele>184.0</ele><time>2026-03-22T11:18:30.931Z</time></trkpt><trkpt lat="43.573594456426704" lon="11.097201848848538"><ele>184.0</ele><time>2026-03-22T11:18:31.931Z</time></trkpt><trkpt lat="43.57363770297442" lon="11.09744552342973"><ele>184.0</ele><time>2026-03-22T11:18:32.931Z</time></trkpt><trkpt lat="43.573678781687704" lon="11.097664743345327"><ele>188.0</ele><time>2026-03-22T11:18:33.931Z</time></trkpt><trkpt lat="43.57371704938819" lon="11.097842012530531"><ele>192.0</ele><time>2026-03-22T11:18:34.931Z</time></trkpt><trkpt lat="43.573784139256276" lon="11.097977133039194"><ele>196.0</ele><time>2026-03-22T11:18:35.931Z</time></trkpt><trkpt lat="43.5738721751813" lon="11.09806680570562"><ele>200.0</ele><time>2026-03-22T11:18:36.931Z</time></trkpt><trkpt lat="43.57396633140364" lon="11.098117226857104"><ele>200.0</ele><time>2026-03-22T11:18:37.931Z</time></trkpt><trkpt lat="43.57407343704027" lon="11.098159633025352"><ele>200.0</ele><time>2026-03-22T11:18:38.931Z</time></trkpt><trkpt lat="43.57417644746429" lon="11.098206694870584"><ele>200.0</ele><time>2026-03-22T11:18:39.931Z</time></trkpt><trkpt lat="43.57427527349516" lon="11.098245193834185"><ele>200.0</ele><time>2026-03-22T11:18:40.931Z</time></trkpt><trkpt lat="43.57437917511257" lon="11.098296834065811"><ele>200.0</ele><time>2026-03-22T11:18:41.93Z</time></trkpt><trkpt lat="43.574479675861134" lon="11.098359975018134"><ele>199.5</ele><time>2026-03-22T11:18:42.93Z</time></trkpt><trkpt lat="43.57457706824286" lon="11.098416780454125"><ele>199.0</ele><time>2026-03-22T11:18:43.93Z</time></trkpt><trkpt lat="43.57467618685403" lon="11.098469884628365"><ele>198.5</ele><time>2026-03-22T11:18:44.93Z</time></trkpt><trkpt lat="43.57476656874141" lon="11.098567792102445"><ele>198.0</ele><time>2026-03-22T11:18:45.93Z</time></trkpt><trkpt lat="43.57479735492412" lon="11.098737250189204"><ele>198.0</ele><time>2026-03-22T11:18:46.93Z</time></trkpt><trkpt lat="43.57484613381504" lon="11.098908201946584"><ele>198.0</ele><time>2026-03-22T11:18:47.93Z</time></trkpt><trkpt lat="43.57490824062606" lon="11.099090214374321"><ele>198.0</ele><time>2026-03-22T11:18:48.93Z</time></trkpt><trkpt lat="43.57498720361044" lon="11.09926721733195"><ele>198.0</ele><time>2026-03-22T11:18:49.93Z</time></trkpt><trkpt lat="43.57506777631074" lon="11.099448940780992"><ele>198.5</ele><time>2026-03-22T11:18:50.93Z</time></trkpt><trkpt lat="43.57517140904593" lon="11.09958490242563"><ele>199.0</ele><time>2026-03-22T11:18:51.93Z</time></trkpt><trkpt lat="43.57528585401571" lon="11.099676907393764"><ele>199.5</ele><time>2026-03-22T11:18:52.93Z</time></trkpt><trkpt lat="43.5754367745737" lon="11.099735374150402"><ele>200.0</ele><time>2026-03-22T11:18:53.93Z</time></trkpt><trkpt lat="43.57559324363007" lon="11.099782229212002"><ele>200.0</ele><time>2026-03-22T11:18:54.93Z</time></trkpt><trkpt lat="43.57572713281111" lon="11.0998362241579"><ele>200.0</ele><time>2026-03-22T11:18:55.93Z</time></trkpt><trkpt lat="43.575814155383235" lon="11.099938678904437"><ele>200.0</ele><time>2026-03-22T11:18:56.93Z</time></trkpt><trkpt lat="43.575883518492944" lon="11.100039882404886"><ele>200.0</ele><time>2026-03-22T11:18:57.93Z</time></trkpt><trkpt lat="43.57586620899969" lon="11.100178323018708"><ele>203.5</ele><time>2026-03-22T11:18:58.93Z</time></trkpt><trkpt lat="43.57586940298569" lon="11.100332242001878"><ele>207.0</ele><time>2026-03-22T11:18:59.93Z</time></trkpt><trkpt lat="43.57588215766805" lon="11.100512456423298"><ele>210.5</ele><time>2026-03-22T11:19:00.93Z</time></trkpt><trkpt lat="43.575908170803075" lon="11.10070380235529"><ele>214.0</ele><time>2026-03-22T11:19:01.93Z</time></trkpt><trkpt lat="43.57592762497362" lon="11.100909188904204"><ele>214.66666666666666</ele><time>2026-03-22T11:19:02.93Z</time></trkpt><trkpt lat="43.57594392347904" lon="11.101123368177177"><ele>215.33333333333331</ele><time>2026-03-22T11:19:03.93Z</time></trkpt><trkpt lat="43.57598851877073" lon="11.101333215612852"><ele>216.0</ele><time>2026-03-22T11:19:04.93Z</time></trkpt><trkpt lat="43.576038363053364" lon="11.10152059088548"><ele>217.0</ele><time>2026-03-22T11:19:05.93Z</time></trkpt><trkpt lat="43.576095558211414" lon="11.101709518305203"><ele>218.0</ele><time>2026-03-22T11:19:06.93Z</time></trkpt><trkpt lat="43.57615665648693" lon="11.101899277209853"><ele>219.0</ele><time>2026-03-22T11:19:07.93Z</time></trkpt><trkpt lat="43.576227113246674" lon="11.102097743651543"><ele>224.33333333333331</ele><time>2026-03-22T11:19:08.93Z</time></trkpt><trkpt lat="43.57632181341325" lon="11.102285210134028"><ele>229.66666666666666</ele><time>2026-03-22T11:19:09.93Z</time></trkpt><trkpt lat="43.57639046570446" lon="11.102480652584447"><ele>235.0</ele><time>2026-03-22T11:19:10.93Z</time></trkpt><trkpt lat="43.57646618723249" lon="11.102672238709552"><ele>235.66666666666666</ele><time>2026-03-22T11:19:11.93Z</time></trkpt><trkpt lat="43.57655345762038" lon="11.102881222134421"><ele>236.33333333333331</ele><time>2026-03-22T11:19:12.93Z</time></trkpt><trkpt lat="43.576641160351905" lon="11.103073847831986"><ele>237.0</ele><time>2026-03-22T11:19:13.93Z</time></trkpt><trkpt lat="43.576761637404076" lon="11.103240150444703"><ele>233.66666666666669</ele><time>2026-03-22T11:19:14.929Z</time></trkpt><trkpt lat="43.576872090551255" lon="11.103394779821146"><ele>230.33333333333334</ele><time>2026-03-22T11:19:15.929Z</time></trkpt><trkpt lat="43.57699946454503" lon="11.103524379302995"><ele>227.0</ele><time>2026-03-22T11:19:16.929Z</time></trkpt><trkpt lat="43.57712554319016" lon="11.103611813209978"><ele>234.0</ele><time>2026-03-22T11:19:17.929Z</time></trkpt><trkpt lat="43.57726495656482" lon="11.103685645848586"><ele>241.0</ele><time>2026-03-22T11:19:18.929Z</time></trkpt><trkpt lat="43.57741914317005" lon="11.103752809347602"><ele>248.0</ele><time>2026-03-22T11:19:19.929Z</time></trkpt><trkpt lat="43.57757728367406" lon="11.103834599117054"><ele>248.0</ele><time>2026-03-22T11:19:20.929Z</time></trkpt><trkpt lat="43.57773799560851" lon="11.103953807100394"><ele>248.0</ele><time>2026-03-22T11:19:21.929Z</time></trkpt><trkpt lat="43.577917451886414" lon="11.104056084050448"><ele>248.0</ele><time>2026-03-22T11:19:22.929Z</time></trkpt><trkpt lat="43.57810284256975" lon="11.104162991223102"><ele>244.0</ele><time>2026-03-22T11:19:23.929Z</time></trkpt><trkpt lat="43.578284824996295" lon="11.10427613058744"><ele>240.0</ele><time>2026-03-22T11:19:24.929Z</time></trkpt><trkpt lat="43.578450259502816" lon="11.104406155183975"><ele>236.0</ele><time>2026-03-22T11:19:25.929Z</time></trkpt><trkpt lat="43.578626069109795" lon="11.10450636212231"><ele>240.66666666666669</ele><time>2026-03-22T11:19:26.929Z</time></trkpt><trkpt lat="43.578796736436296" lon="11.104652169238776"><ele>245.33333333333331</ele><time>2026-03-22T11:19:27.929Z</time></trkpt><trkpt lat="43.578976799481936" lon="11.10475708296102"><ele>250.0</ele><time>2026-03-22T11:19:28.929Z</time></trkpt><trkpt lat="43.57912918945057" lon="11.104899714626605"><ele>243.66666666666666</ele><time>2026-03-22T11:19:29.929Z</time></trkpt><trkpt lat="43.5792612732962" lon="11.105029151960098"><ele>237.33333333333331</ele><time>2026-03-22T11:19:30.929Z</time></trkpt><trkpt lat="43.57938112762013" lon="11.105163883730397"><ele>231.0</ele><time>2026-03-22T11:19:31.929Z</time></trkpt><trkpt lat="43.57950150534603" lon="11.105323935347657"><ele>233.25</ele><time>2026-03-22T11:19:32.929Z</time></trkpt><trkpt lat="43.57961568751709" lon="11.105490303179607"><ele>235.5</ele><time>2026-03-22T11:19:33.929Z</time></trkpt><trkpt lat="43.57971494916593" lon="11.105631810637918"><ele>237.75</ele><time>2026-03-22T11:19:34.929Z</time></trkpt><trkpt lat="43.57981901501253" lon="11.105746158755455"><ele>240.0</ele><time>2026-03-22T11:19:35.929Z</time></trkpt><trkpt lat="43.57991486901571" lon="11.105840778182843"><ele>240.0</ele><time>2026-03-22T11:19:36.929Z</time></trkpt><trkpt lat="43.580001467285555" lon="11.105931931114682"><ele>240.0</ele><time>2026-03-22T11:19:37.929Z</time></trkpt><trkpt lat="43.58007272577307" lon="11.106035215231865"><ele>240.0</ele><time>2026-03-22T11:19:38.929Z</time></trkpt><trkpt lat="43.58013816309394" lon="11.10616068313095"><ele>240.0</ele><time>2026-03-22T11:19:39.929Z</time></trkpt><trkpt lat="43.5802041457338" lon="11.106296917699984"><ele>240.0</ele><time>2026-03-22T11:19:40.929Z</time></trkpt><trkpt lat="43.580270431193775" lon="11.106439681382033"><ele>237.66666666666669</ele><time>2026-03-22T11:19:41.929Z</time></trkpt><trkpt lat="43.58034750906496" lon="11.10659039275983"><ele>235.33333333333334</ele><time>2026-03-22T11:19:42.929Z</time></trkpt><trkpt lat="43.58043863014281" lon="11.106764807452198"><ele>233.0</ele><time>2026-03-22T11:19:43.929Z</time></trkpt><trkpt lat="43.58052701457575" lon="11.106949505236157"><ele>233.0</ele><time>2026-03-22T11:19:44.929Z</time></trkpt><trkpt lat="43.580596350829566" lon="11.107146179033283"><ele>233.0</ele><time>2026-03-22T11:19:45.929Z</time></trkpt><trkpt lat="43.58066038099675" lon="11.107364479779855"><ele>233.0</ele><time>2026-03-22T11:19:46.929Z</time></trkpt><trkpt lat="43.58072255437421" lon="11.107598294945396"><ele>236.0</ele><time>2026-03-22T11:19:47.928Z</time></trkpt><trkpt lat="43.58078630065841" lon="11.107833193325895"><ele>239.0</ele><time>2026-03-22T11:19:48.931Z</time></trkpt><trkpt lat="43.58084831194358" lon="11.108067007542127"><ele>242.0</ele><time>2026-03-22T11:19:49.93Z</time></trkpt><trkpt lat="43.58090727098746" lon="11.108300935143442"><ele>243.0</ele><time>2026-03-22T11:19:50.93Z</time></trkpt><trkpt lat="43.58096689423314" lon="11.108539572488894"><ele>244.0</ele><time>2026-03-22T11:19:51.93Z</time></trkpt><trkpt lat="43.58104440226111" lon="11.108779733189811"><ele>245.0</ele><time>2026-03-22T11:19:52.931Z</time></trkpt><trkpt lat="43.58110031153614" lon="11.109042181567046"><ele>246.33333333333334</ele><time>2026-03-22T11:19:53.931Z</time></trkpt><trkpt lat="43.58119188073414" lon="11.109301075392741"><ele>247.66666666666669</ele><time>2026-03-22T11:19:54.931Z</time></trkpt><trkpt lat="43.58125601215383" lon="11.109550336040655"><ele>249.0</ele><time>2026-03-22T11:19:55.93Z</time></trkpt><trkpt lat="43.58132871796613" lon="11.109748406350585"><ele>249.0</ele><time>2026-03-22T11:19:56.93Z</time></trkpt><trkpt lat="43.58140568743362" lon="11.109900175473229"><ele>249.0</ele><time>2026-03-22T11:19:57.93Z</time></trkpt><trkpt lat="43.581494119022956" lon="11.11001927474024"><ele>249.0</ele><time>2026-03-22T11:19:58.93Z</time></trkpt><trkpt lat="43.58158894118407" lon="11.110123595391624"><ele>249.0</ele><time>2026-03-22T11:19:59.93Z</time></trkpt><trkpt lat="43.581703534561086" lon="11.11022295528338"><ele>251.33333333333331</ele><time>2026-03-22T11:20:00.93Z</time></trkpt><trkpt lat="43.58183711025776" lon="11.110323408570688"><ele>253.66666666666666</ele><time>2026-03-22T11:20:01.93Z</time></trkpt><trkpt lat="43.58197043597248" lon="11.110447080708271"><ele>256.0</ele><time>2026-03-22T11:20:02.93Z</time></trkpt><trkpt lat="43.58208312239967" lon="11.110601210301041"><ele>260.5</ele><time>2026-03-22T11:20:03.93Z</time></trkpt><trkpt lat="43.582203631763726" lon="11.110754434776553"><ele>265.0</ele><time>2026-03-22T11:20:04.93Z</time></trkpt><trkpt lat="43.58230763286374" lon="11.110900079003576"><ele>269.5</ele><time>2026-03-22T11:20:05.93Z</time></trkpt><trkpt lat="43.58239766279282" lon="11.1110174292991"><ele>274.0</ele><time>2026-03-22T11:20:06.93Z</time></trkpt><trkpt lat="43.5824769693433" lon="11.111129176343388"><ele>274.0</ele><time>2026-03-22T11:20:07.93Z</time></trkpt><trkpt lat="43.58257642650914" lon="11.111231043579096"><ele>274.0</ele><time>2026-03-22T11:20:08.93Z</time></trkpt><trkpt lat="43.58269239370615" lon="11.111305599382096"><ele>274.0</ele><time>2026-03-22T11:20:09.93Z</time></trkpt><trkpt lat="43.58283152089422" lon="11.111359134094451"><ele>274.0</ele><time>2026-03-22T11:20:10.93Z</time></trkpt><trkpt lat="43.58296008284736" lon="11.111419378384545"><ele>271.59999999999997</ele><time>2026-03-22T11:20:11.93Z</time></trkpt><trkpt lat="43.58307099622061" lon="11.111471474883423"><ele>269.2</ele><time>2026-03-22T11:20:12.93Z</time></trkpt><trkpt lat="43.583151106998066" lon="11.111519639301395"><ele>266.79999999999995</ele><time>2026-03-22T11:20:13.93Z</time></trkpt><trkpt lat="43.58317225253762" lon="11.11162719239405"><ele>264.4</ele><time>2026-03-22T11:20:15.93Z</time></trkpt><trkpt lat="43.58310767068153" lon="11.111625491863327"><ele>262.0</ele><time>2026-03-22T11:20:18.93Z</time></trkpt><trkpt lat="43.58300383477976" lon="11.11160253784292"><ele>265.0</ele><time>2026-03-22T11:20:19.93Z</time></trkpt><trkpt lat="43.58288988930089" lon="11.11158012644078"><ele>268.0</ele><time>2026-03-22T11:20:20.93Z</time></trkpt><trkpt lat="43.5827378993505" lon="11.111583085946748"><ele>271.0</ele><time>2026-03-22T11:20:21.93Z</time></trkpt><trkpt lat="43.582573310625435" lon="11.111567850439945"><ele>274.0</ele><time>2026-03-22T11:20:22.93Z</time></trkpt><trkpt lat="43.582396603623145" lon="11.111521951662896"><ele>274.0</ele><time>2026-03-22T11:20:23.93Z</time></trkpt><trkpt lat="43.5822588937" lon="11.11144986946882"><ele>274.0</ele><time>2026-03-22T11:20:24.93Z</time></trkpt><trkpt lat="43.5821713566445" lon="11.11139699809684"><ele>274.0</ele><time>2026-03-22T11:20:25.93Z</time></trkpt><trkpt lat="43.582076216387364" lon="11.111457111789903"><ele>274.0</ele><time>2026-03-22T11:20:27.93Z</time></trkpt><trkpt lat="43.582080987401724" lon="11.11155922235894"><ele>274.0</ele><time>2026-03-22T11:20:28.93Z</time></trkpt><trkpt lat="43.58214918140662" lon="11.111685917563742"><ele>278.59999999999997</ele><time>2026-03-22T11:20:30.93Z</time></trkpt><trkpt lat="43.5822161238704" lon="11.11174248936571"><ele>283.2</ele><time>2026-03-22T11:20:31.929Z</time></trkpt><trkpt lat="43.582299379583546" lon="11.111811289468292"><ele>287.79999999999995</ele><time>2026-03-22T11:20:32.929Z</time></trkpt><trkpt lat="43.58242155495669" lon="11.111877079010563"><ele>292.4</ele><time>2026-03-22T11:20:33.929Z</time></trkpt><trkpt lat="43.58254664320328" lon="11.111934506114581"><ele>297.0</ele><time>2026-03-22T11:20:34.929Z</time></trkpt><trkpt lat="43.58269305521169" lon="11.111974180412552"><ele>297.0</ele><time>2026-03-22T11:20:35.929Z</time></trkpt><trkpt lat="43.58284714806551" lon="11.111999848852825"><ele>297.0</ele><time>2026-03-22T11:20:36.929Z</time></trkpt><trkpt lat="43.58299317797384" lon="11.112022072276005"><ele>297.0</ele><time>2026-03-22T11:20:37.929Z</time></trkpt><trkpt lat="43.583099792341024" lon="11.11210616281559"><ele>297.0</ele><time>2026-03-22T11:20:38.929Z</time></trkpt><trkpt lat="43.58319054100122" lon="11.112175550346699"><ele>295.75</ele><time>2026-03-22T11:20:39.929Z</time></trkpt><trkpt lat="43.58328646474416" lon="11.11226001275442"><ele>294.5</ele><time>2026-03-22T11:20:40.929Z</time></trkpt><trkpt lat="43.58339065799136" lon="11.112402648589411"><ele>293.25</ele><time>2026-03-22T11:20:41.929Z</time></trkpt><trkpt lat="43.583503039362704" lon="11.11254228131695"><ele>292.0</ele><time>2026-03-22T11:20:42.929Z</time></trkpt><trkpt lat="43.58361059319994" lon="11.112685982697368"><ele>295.3333333333333</ele><time>2026-03-22T11:20:43.929Z</time></trkpt><trkpt lat="43.58372012216639" lon="11.112837915877929"><ele>298.6666666666667</ele><time>2026-03-22T11:20:44.929Z</time></trkpt><trkpt lat="43.583827408441564" lon="11.113021607906076"><ele>302.0</ele><time>2026-03-22T11:20:45.929Z</time></trkpt><trkpt lat="43.583944559988886" lon="11.11322761903524"><ele>308.5</ele><time>2026-03-22T11:20:46.929Z</time></trkpt><trkpt lat="43.58407679310792" lon="11.113458958354498"><ele>315.0</ele><time>2026-03-22T11:20:47.929Z</time></trkpt><trkpt lat="43.58422855473654" lon="11.11372379645033"><ele>315.0</ele><time>2026-03-22T11:20:48.929Z</time></trkpt><trkpt lat="43.58438763033753" lon="11.114002034041333"><ele>315.0</ele><time>2026-03-22T11:20:49.929Z</time></trkpt><trkpt lat="43.584552364791975" lon="11.114291610129019"><ele>316.0</ele><time>2026-03-22T11:20:50.929Z</time></trkpt><trkpt lat="43.58470172929493" lon="11.11455499484543"><ele>317.0</ele><time>2026-03-22T11:20:51.929Z</time></trkpt><trkpt lat="43.58483080393793" lon="11.11477716164259"><ele>318.0</ele><time>2026-03-22T11:20:52.929Z</time></trkpt><trkpt lat="43.58494405072206" lon="11.114955281978968"><ele>320.0</ele><time>2026-03-22T11:20:53.929Z</time></trkpt><trkpt lat="43.58504464497878" lon="11.115078911303804"><ele>322.0</ele><time>2026-03-22T11:20:54.929Z</time></trkpt><trkpt lat="43.58511387911472" lon="11.115204594407071"><ele>324.0</ele><time>2026-03-22T11:20:55.929Z</time></trkpt><trkpt lat="43.58520623462779" lon="11.115285878586326"><ele>326.0</ele><time>2026-03-22T11:20:56.929Z</time></trkpt><trkpt lat="43.58529547776723" lon="11.115375164217717"><ele>325.5</ele><time>2026-03-22T11:20:57.929Z</time></trkpt><trkpt lat="43.58539669423119" lon="11.11547716322063"><ele>325.0</ele><time>2026-03-22T11:20:58.929Z</time></trkpt><trkpt lat="43.58549349510115" lon="11.11559020316714"><ele>324.5</ele><time>2026-03-22T11:20:59.929Z</time></trkpt><trkpt lat="43.58560021312642" lon="11.115710549919907"><ele>324.0</ele><time>2026-03-22T11:21:00.929Z</time></trkpt><trkpt lat="43.585707368277774" lon="11.115831878742924"><ele>325.75</ele><time>2026-03-22T11:21:01.929Z</time></trkpt><trkpt lat="43.585817181412885" lon="11.115958411991974"><ele>327.5</ele><time>2026-03-22T11:21:02.929Z</time></trkpt><trkpt lat="43.5859208866231" lon="11.116093906996996"><ele>329.25</ele><time>2026-03-22T11:21:03.929Z</time></trkpt><trkpt lat="43.58602711798571" lon="11.11623957325147"><ele>331.0</ele><time>2026-03-22T11:21:04.929Z</time></trkpt><trkpt lat="43.58613252620601" lon="11.11640309172172"><ele>331.5</ele><time>2026-03-22T11:21:05.928Z</time></trkpt><trkpt lat="43.58624387984195" lon="11.116558101090845"><ele>332.0</ele><time>2026-03-22T11:21:06.928Z</time></trkpt><trkpt lat="43.58633867159282" lon="11.116683247819036"><ele>332.5</ele><time>2026-03-22T11:21:07.928Z</time></trkpt><trkpt lat="43.58642336659524" lon="11.116787248207359"><ele>333.0</ele><time>2026-03-22T11:21:08.928Z</time></trkpt><trkpt lat="43.58649324491238" lon="11.116870803984458"><ele>334.0</ele><time>2026-03-22T11:21:09.928Z</time></trkpt><trkpt lat="43.5865524002774" lon="11.116906032353834"><ele>335.0</ele><time>2026-03-22T11:21:10.928Z</time></trkpt><trkpt lat="43.58661395577738" lon="11.116979052139312"><ele>336.0</ele><time>2026-03-22T11:21:12.928Z</time></trkpt><trkpt lat="43.586704727181264" lon="11.117068951780757"><ele>337.0</ele><time>2026-03-22T11:21:14.928Z</time></trkpt><trkpt lat="43.5867590250211" lon="11.117145202434276"><ele>338.0</ele><time>2026-03-22T11:21:15.928Z</time></trkpt><trkpt lat="43.586832409406476" lon="11.117213028833683"><ele>339.0</ele><time>2026-03-22T11:21:16.928Z</time></trkpt><trkpt lat="43.5868980115393" lon="11.117316753014444"><ele>338.25</ele><time>2026-03-22T11:21:17.928Z</time></trkpt><trkpt lat="43.58700701537114" lon="11.117407279276403"><ele>337.5</ele><time>2026-03-22T11:21:18.928Z</time></trkpt><trkpt lat="43.58710562195226" lon="11.117483654095622"><ele>336.75</ele><time>2026-03-22T11:21:19.928Z</time></trkpt><trkpt lat="43.58722606638603" lon="11.117529589307944"><ele>336.0</ele><time>2026-03-22T11:21:20.928Z</time></trkpt><trkpt lat="43.587349646046825" lon="11.117552933932195"><ele>337.6</ele><time>2026-03-22T11:21:21.928Z</time></trkpt><trkpt lat="43.58746524280952" lon="11.117575028660204"><ele>339.20000000000005</ele><time>2026-03-22T11:21:22.928Z</time></trkpt><trkpt lat="43.587565334166435" lon="11.117604616214374"><ele>340.79999999999995</ele><time>2026-03-22T11:21:23.928Z</time></trkpt><trkpt lat="43.58764328272833" lon="11.117629699641945"><ele>342.4</ele><time>2026-03-22T11:21:24.928Z</time></trkpt><trkpt lat="43.58772146298351" lon="11.117658309848606"><ele>344.0</ele><time>2026-03-22T11:21:25.928Z</time></trkpt><trkpt lat="43.58785321034402" lon="11.117679487796545"><ele>344.4</ele><time>2026-03-22T11:21:27.928Z</time></trkpt><trkpt lat="43.58793275014479" lon="11.117710363303654"><ele>344.79999999999995</ele><time>2026-03-22T11:21:28.928Z</time></trkpt><trkpt lat="43.58803695958291" lon="11.117751755238189"><ele>345.20000000000005</ele><time>2026-03-22T11:21:29.928Z</time></trkpt><trkpt lat="43.588148503258424" lon="11.117803355779849"><ele>345.6</ele><time>2026-03-22T11:21:30.928Z</time></trkpt><trkpt lat="43.58826567192341" lon="11.117844968682238"><ele>346.0</ele><time>2026-03-22T11:21:31.928Z</time></trkpt><trkpt lat="43.58838966580472" lon="11.11787004524778"><ele>346.0</ele><time>2026-03-22T11:21:32.928Z</time></trkpt><trkpt lat="43.58853207052905" lon="11.117878473050194"><ele>346.0</ele><time>2026-03-22T11:21:33.928Z</time></trkpt><trkpt lat="43.5886632998267" lon="11.117879460816763"><ele>346.0</ele><time>2026-03-22T11:21:34.928Z</time></trkpt><trkpt lat="43.58881178568601" lon="11.11786192297469"><ele>346.0</ele><time>2026-03-22T11:21:35.928Z</time></trkpt><trkpt lat="43.58896421902845" lon="11.11784947951233"><ele>347.25</ele><time>2026-03-22T11:21:36.928Z</time></trkpt><trkpt lat="43.589109493550524" lon="11.117835132977516"><ele>348.5</ele><time>2026-03-22T11:21:37.928Z</time></trkpt><trkpt lat="43.589237103446465" lon="11.117825843159604"><ele>349.75</ele><time>2026-03-22T11:21:38.927Z</time></trkpt><trkpt lat="43.589349846260575" lon="11.117815935121854"><ele>351.0</ele><time>2026-03-22T11:21:39.927Z</time></trkpt><trkpt lat="43.58945621442114" lon="11.117801829851516"><ele>352.20000000000005</ele><time>2026-03-22T11:21:40.927Z</time></trkpt><trkpt lat="43.589555724573515" lon="11.117784073521552"><ele>353.40000000000003</ele><time>2026-03-22T11:21:41.927Z</time></trkpt><trkpt lat="43.589662159118966" lon="11.117763740845609"><ele>354.6</ele><time>2026-03-22T11:21:42.927Z</time></trkpt><trkpt lat="43.58976825522631" lon="11.117715385647514"><ele>355.8</ele><time>2026-03-22T11:21:43.927Z</time></trkpt><trkpt lat="43.58988118911362" lon="11.11764416413277"><ele>357.0</ele><time>2026-03-22T11:21:44.927Z</time></trkpt><trkpt lat="43.58999345128243" lon="11.117589601413286"><ele>357.0</ele><time>2026-03-22T11:21:45.927Z</time></trkpt><trkpt lat="43.59008507990856" lon="11.117539522736175"><ele>357.0</ele><time>2026-03-22T11:21:46.927Z</time></trkpt><trkpt lat="43.59015380677595" lon="11.117510107564186"><ele>357.0</ele><time>2026-03-22T11:21:47.927Z</time></trkpt><trkpt lat="43.59025070957382" lon="11.117482351513614"><ele>357.0</ele><time>2026-03-22T11:21:54.93Z</time></trkpt><trkpt lat="43.59032091797122" lon="11.117437559749737"><ele>357.0</ele><time>2026-03-22T11:21:55.93Z</time></trkpt><trkpt lat="43.590398398777296" lon="11.117374273565275"><ele>357.0</ele><time>2026-03-22T11:21:56.93Z</time></trkpt><trkpt lat="43.59048353657512" lon="11.11731594046764"><ele>356.25</ele><time>2026-03-22T11:21:57.929Z</time></trkpt><trkpt lat="43.59056322309056" lon="11.11726404476774"><ele>355.5</ele><time>2026-03-22T11:21:58.929Z</time></trkpt><trkpt lat="43.59066902941989" lon="11.11720805413972"><ele>354.75</ele><time>2026-03-22T11:21:59.929Z</time></trkpt><trkpt lat="43.59078645975872" lon="11.117147812506461"><ele>354.0</ele><time>2026-03-22T11:22:00.929Z</time></trkpt><trkpt lat="43.59092645836495" lon="11.117087884496215"><ele>354.0</ele><time>2026-03-22T11:22:01.929Z</time></trkpt><trkpt lat="43.59104466500836" lon="11.117048238105783"><ele>354.0</ele><time>2026-03-22T11:22:02.929Z</time></trkpt><trkpt lat="43.59117988647517" lon="11.11703127711163"><ele>354.0</ele><time>2026-03-22T11:22:03.929Z</time></trkpt><trkpt lat="43.59132594249562" lon="11.116996785082883"><ele>354.0</ele><time>2026-03-22T11:22:04.929Z</time></trkpt><trkpt lat="43.591479574833" lon="11.116957853946673"><ele>357.0</ele><time>2026-03-22T11:22:05.929Z</time></trkpt><trkpt lat="43.59162912253982" lon="11.11688518667471"><ele>360.0</ele><time>2026-03-22T11:22:06.929Z</time></trkpt><trkpt lat="43.5917672560392" lon="11.116812124900258"><ele>363.0</ele><time>2026-03-22T11:22:07.929Z</time></trkpt><trkpt lat="43.591877388070216" lon="11.11667619418332"><ele>362.0</ele><time>2026-03-22T11:22:08.929Z</time></trkpt><trkpt lat="43.59199592843331" lon="11.116549538381282"><ele>361.0</ele><time>2026-03-22T11:22:09.929Z</time></trkpt><trkpt lat="43.592096644890965" lon="11.116389202846015"><ele>360.0</ele><time>2026-03-22T11:22:10.929Z</time></trkpt><trkpt lat="43.592192356173236" lon="11.116241859123573"><ele>359.0</ele><time>2026-03-22T11:22:11.928Z</time></trkpt><trkpt lat="43.592287745804136" lon="11.116086452212855"><ele>359.0</ele><time>2026-03-22T11:22:12.928Z</time></trkpt><trkpt lat="43.59237701768922" lon="11.115947770829589"><ele>359.0</ele><time>2026-03-22T11:22:13.928Z</time></trkpt><trkpt lat="43.59245876711409" lon="11.115827511132009"><ele>359.0</ele><time>2026-03-22T11:22:14.928Z</time></trkpt><trkpt lat="43.59253699959753" lon="11.11569966709609"><ele>359.0</ele><time>2026-03-22T11:22:15.928Z</time></trkpt><trkpt lat="43.59263140983856" lon="11.11556705853737"><ele>359.25</ele><time>2026-03-22T11:22:16.928Z</time></trkpt><trkpt lat="43.59272267946387" lon="11.11543154849611"><ele>359.5</ele><time>2026-03-22T11:22:17.928Z</time></trkpt><trkpt lat="43.59282030057125" lon="11.115289972691924"><ele>359.75</ele><time>2026-03-22T11:22:18.928Z</time></trkpt><trkpt lat="43.59292392763532" lon="11.115159858247075"><ele>360.0</ele><time>2026-03-22T11:22:19.928Z</time></trkpt><trkpt lat="43.5930207175894" lon="11.115054307309075"><ele>361.25</ele><time>2026-03-22T11:22:20.928Z</time></trkpt><trkpt lat="43.593111372707334" lon="11.114959384113803"><ele>362.5</ele><time>2026-03-22T11:22:21.928Z</time></trkpt><trkpt lat="43.59321146699893" lon="11.11488016081927"><ele>363.75</ele><time>2026-03-22T11:22:22.928Z</time></trkpt><trkpt lat="43.59331735974056" lon="11.114814994683732"><ele>365.0</ele><time>2026-03-22T11:22:23.928Z</time></trkpt><trkpt lat="43.59343170760808" lon="11.114757840637875"><ele>365.0</ele><time>2026-03-22T11:22:24.928Z</time></trkpt><trkpt lat="43.5935526806384" lon="11.114690974944974"><ele>365.0</ele><time>2026-03-22T11:22:25.928Z</time></trkpt><trkpt lat="43.59369185817807" lon="11.114620635500815"><ele>365.0</ele><time>2026-03-22T11:22:26.928Z</time></trkpt><trkpt lat="43.59384392979111" lon="11.11452777780555"><ele>365.0</ele><time>2026-03-22T11:22:27.928Z</time></trkpt><trkpt lat="43.594001305453034" lon="11.114451409490716"><ele>362.6666666666667</ele><time>2026-03-22T11:22:28.928Z</time></trkpt><trkpt lat="43.59415474489214" lon="11.114371118293786"><ele>360.3333333333333</ele><time>2026-03-22T11:22:29.928Z</time></trkpt><trkpt lat="43.59431065648056" lon="11.114298298432725"><ele>358.0</ele><time>2026-03-22T11:22:30.928Z</time></trkpt><trkpt lat="43.59446987074907" lon="11.11424621870477"><ele>359.0</ele><time>2026-03-22T11:22:31.928Z</time></trkpt><trkpt lat="43.59462678430457" lon="11.114217370631707"><ele>360.0</ele><time>2026-03-22T11:22:32.928Z</time></trkpt><trkpt lat="43.59477441342371" lon="11.114218194652015"><ele>361.0</ele><time>2026-03-22T11:22:33.928Z</time></trkpt><trkpt lat="43.59492503905574" lon="11.114237159937746"><ele>361.0</ele><time>2026-03-22T11:22:34.928Z</time></trkpt><trkpt lat="43.595078919534636" lon="11.11430417641057"><ele>361.0</ele><time>2026-03-22T11:22:35.928Z</time></trkpt><trkpt lat="43.595230606598875" lon="11.114383641142123"><ele>361.0</ele><time>2026-03-22T11:22:36.928Z</time></trkpt><trkpt lat="43.59537780417378" lon="11.114468346507719"><ele>360.0</ele><time>2026-03-22T11:22:37.928Z</time></trkpt><trkpt lat="43.59554014170506" lon="11.114564807596588"><ele>359.0</ele><time>2026-03-22T11:22:38.928Z</time></trkpt><trkpt lat="43.595688078070644" lon="11.114656876368347"><ele>358.0</ele><time>2026-03-22T11:22:39.928Z</time></trkpt><trkpt lat="43.59580759770332" lon="11.114737316554862"><ele>358.0</ele><time>2026-03-22T11:22:40.928Z</time></trkpt><trkpt lat="43.59591141450273" lon="11.114816873798834"><ele>358.0</ele><time>2026-03-22T11:22:41.928Z</time></trkpt><trkpt lat="43.59600169763252" lon="11.114934505532498"><ele>358.0</ele><time>2026-03-22T11:22:42.928Z</time></trkpt><trkpt lat="43.59610830396203" lon="11.1150402595607"><ele>358.0</ele><time>2026-03-22T11:22:43.928Z</time></trkpt><trkpt lat="43.59622440837501" lon="11.115154651796047"><ele>356.75</ele><time>2026-03-22T11:22:44.927Z</time></trkpt><trkpt lat="43.59634318920507" lon="11.115273216774376"><ele>355.5</ele><time>2026-03-22T11:22:45.927Z</time></trkpt><trkpt lat="43.59646763683094" lon="11.115376176967406"><ele>354.25</ele><time>2026-03-22T11:22:46.927Z</time></trkpt><trkpt lat="43.59659386321995" lon="11.115470163859039"><ele>353.0</ele><time>2026-03-22T11:22:47.927Z</time></trkpt><trkpt lat="43.596712742784824" lon="11.115538666263939"><ele>353.0</ele><time>2026-03-22T11:22:48.927Z</time></trkpt><trkpt lat="43.596835707971714" lon="11.115588126874245"><ele>353.0</ele><time>2026-03-22T11:22:49.927Z</time></trkpt><trkpt lat="43.596962664238056" lon="11.11563111900959"><ele>353.0</ele><time>2026-03-22T11:22:50.927Z</time></trkpt><trkpt lat="43.597092685120735" lon="11.11567839670264"><ele>353.0</ele><time>2026-03-22T11:22:51.927Z</time></trkpt><trkpt lat="43.59722525623661" lon="11.115725640170785"><ele>355.25</ele><time>2026-03-22T11:22:52.927Z</time></trkpt><trkpt lat="43.59736767293484" lon="11.115783693083555"><ele>357.5</ele><time>2026-03-22T11:22:53.927Z</time></trkpt><trkpt lat="43.59750469909539" lon="11.115826132956695"><ele>359.75</ele><time>2026-03-22T11:22:54.927Z</time></trkpt><trkpt lat="43.59764768841399" lon="11.115888497910447"><ele>362.0</ele><time>2026-03-22T11:22:55.927Z</time></trkpt><trkpt lat="43.597768798933004" lon="11.115986796577685"><ele>363.6</ele><time>2026-03-22T11:22:56.927Z</time></trkpt><trkpt lat="43.59788136821447" lon="11.116062109997696"><ele>365.20000000000005</ele><time>2026-03-22T11:22:57.927Z</time></trkpt><trkpt lat="43.597985746867835" lon="11.116129091378149"><ele>366.8</ele><time>2026-03-22T11:22:58.927Z</time></trkpt><trkpt lat="43.598058418731526" lon="11.116167929310706"><ele>368.4</ele><time>2026-03-22T11:22:59.927Z</time></trkpt><trkpt lat="43.598148411917435" lon="11.116123276171828"><ele>370.0</ele><time>2026-03-22T11:23:03.927Z</time></trkpt><trkpt lat="43.59825758523033" lon="11.11597538447374"><ele>370.0</ele><time>2026-03-22T11:23:05.927Z</time></trkpt><trkpt lat="43.59832999812973" lon="11.115884677647601"><ele>370.0</ele><time>2026-03-22T11:23:06.927Z</time></trkpt><trkpt lat="43.59842351781044" lon="11.115800772947605"><ele>370.0</ele><time>2026-03-22T11:23:07.927Z</time></trkpt><trkpt lat="43.598524696530426" lon="11.115727097526854"><ele>370.0</ele><time>2026-03-22T11:23:08.927Z</time></trkpt><trkpt lat="43.59863359352175" lon="11.1156531563577"><ele>370.0</ele><time>2026-03-22T11:23:09.927Z</time></trkpt><trkpt lat="43.59873354783468" lon="11.115597721488067"><ele>362.66666666666663</ele><time>2026-03-22T11:23:10.927Z</time></trkpt><trkpt lat="43.59886022522178" lon="11.115553412454002"><ele>355.3333333333333</ele><time>2026-03-22T11:23:11.927Z</time></trkpt><trkpt lat="43.599012359849844" lon="11.115521936750865"><ele>348.0</ele><time>2026-03-22T11:23:12.927Z</time></trkpt><trkpt lat="43.59917923725101" lon="11.115510130635897"><ele>348.0</ele><time>2026-03-22T11:23:13.927Z</time></trkpt><trkpt lat="43.59935360559152" lon="11.115495323957973"><ele>348.0</ele><time>2026-03-22T11:23:14.927Z</time></trkpt><trkpt lat="43.599502743531446" lon="11.11546902829931"><ele>348.0</ele><time>2026-03-22T11:23:15.927Z</time></trkpt><trkpt lat="43.599649955911644" lon="11.115397665448109"><ele>351.6666666666667</ele><time>2026-03-22T11:23:16.927Z</time></trkpt><trkpt lat="43.59980201510672" lon="11.115279146562273"><ele>355.33333333333337</ele><time>2026-03-22T11:23:17.927Z</time></trkpt><trkpt lat="43.59994448266585" lon="11.115146434852734"><ele>359.0</ele><time>2026-03-22T11:23:18.926Z</time></trkpt><trkpt lat="43.60007704187788" lon="11.114995092044936"><ele>355.75</ele><time>2026-03-22T11:23:19.926Z</time></trkpt><trkpt lat="43.600200196945856" lon="11.114876758590173"><ele>352.5</ele><time>2026-03-22T11:23:20.926Z</time></trkpt><trkpt lat="43.60032018315005" lon="11.11479210757103"><ele>349.25</ele><time>2026-03-22T11:23:21.926Z</time></trkpt><trkpt lat="43.60044331643453" lon="11.114749139646895"><ele>346.0</ele><time>2026-03-22T11:23:22.926Z</time></trkpt><trkpt lat="43.60056135147754" lon="11.114726235828424"><ele>346.0</ele><time>2026-03-22T11:23:23.926Z</time></trkpt><trkpt lat="43.600682772592634" lon="11.114735162684067"><ele>346.0</ele><time>2026-03-22T11:23:24.926Z</time></trkpt><trkpt lat="43.60078957241115" lon="11.114725838185576"><ele>346.0</ele><time>2026-03-22T11:23:25.926Z</time></trkpt><trkpt lat="43.60089355469725" lon="11.114763291835734"><ele>346.0</ele><time>2026-03-22T11:23:26.926Z</time></trkpt><trkpt lat="43.60099870647922" lon="11.114792114027221"><ele>346.0</ele><time>2026-03-22T11:23:27.926Z</time></trkpt><trkpt lat="43.6010992045196" lon="11.114809044306506"><ele>346.0</ele><time>2026-03-22T11:23:28.926Z</time></trkpt><trkpt lat="43.60119531038869" lon="11.114825998934915"><ele>346.0</ele><time>2026-03-22T11:23:29.926Z</time></trkpt><trkpt lat="43.60129987051728" lon="11.114852122770666"><ele>346.0</ele><time>2026-03-22T11:23:30.926Z</time></trkpt><trkpt lat="43.601419944513175" lon="11.114905801819088"><ele>346.0</ele><time>2026-03-22T11:23:31.926Z</time></trkpt><trkpt lat="43.60155090509356" lon="11.114980941869266"><ele>346.0</ele><time>2026-03-22T11:23:32.926Z</time></trkpt><trkpt lat="43.60167846150424" lon="11.115072255299793"><ele>346.0</ele><time>2026-03-22T11:23:33.926Z</time></trkpt><trkpt lat="43.60181288570923" lon="11.115168746888866"><ele>346.0</ele><time>2026-03-22T11:23:34.926Z</time></trkpt><trkpt lat="43.601929411047514" lon="11.11527287749023"><ele>346.0</ele><time>2026-03-22T11:23:35.926Z</time></trkpt><trkpt lat="43.60200546371478" lon="11.115413033567838"><ele>343.5</ele><time>2026-03-22T11:23:36.926Z</time></trkpt><trkpt lat="43.60208881471298" lon="11.115549829002022"><ele>341.0</ele><time>2026-03-22T11:23:37.926Z</time></trkpt><trkpt lat="43.60217321030577" lon="11.115705271860136"><ele>338.5</ele><time>2026-03-22T11:23:38.926Z</time></trkpt><trkpt lat="43.60225948390729" lon="11.115874557186249"><ele>336.0</ele><time>2026-03-22T11:23:39.926Z</time></trkpt><trkpt lat="43.60233432309025" lon="11.116059035240152"><ele>336.0</ele><time>2026-03-22T11:23:40.926Z</time></trkpt><trkpt lat="43.60238989363471" lon="11.116259967163789"><ele>336.0</ele><time>2026-03-22T11:23:41.926Z</time></trkpt><trkpt lat="43.60245293901019" lon="11.116493918103538"><ele>336.0</ele><time>2026-03-22T11:23:42.926Z</time></trkpt><trkpt lat="43.60252202043349" lon="11.116711461065188"><ele>337.6666666666667</ele><time>2026-03-22T11:23:43.926Z</time></trkpt><trkpt lat="43.60259416632521" lon="11.116899646700823"><ele>339.33333333333337</ele><time>2026-03-22T11:23:44.926Z</time></trkpt><trkpt lat="43.60268437859822" lon="11.11706897814766"><ele>341.0</ele><time>2026-03-22T11:23:45.926Z</time></trkpt><trkpt lat="43.60280627985911" lon="11.117198908402212"><ele>338.33333333333337</ele><time>2026-03-22T11:23:46.926Z</time></trkpt><trkpt lat="43.60292428038822" lon="11.117318218112558"><ele>335.6666666666667</ele><time>2026-03-22T11:23:47.926Z</time></trkpt><trkpt lat="43.603067336532995" lon="11.11741575198567"><ele>333.0</ele><time>2026-03-22T11:23:48.926Z</time></trkpt><trkpt lat="43.603223390436526" lon="11.11750698704625"><ele>333.0</ele><time>2026-03-22T11:23:49.926Z</time></trkpt><trkpt lat="43.603372995144376" lon="11.117606351812443"><ele>333.0</ele><time>2026-03-22T11:23:50.926Z</time></trkpt><trkpt lat="43.60353222866142" lon="11.117723925788336"><ele>333.0</ele><time>2026-03-22T11:23:51.925Z</time></trkpt><trkpt lat="43.60369864533203" lon="11.11784938042809"><ele>328.3333333333333</ele><time>2026-03-22T11:23:52.925Z</time></trkpt><trkpt lat="43.60385512898533" lon="11.117952599216743"><ele>323.66666666666663</ele><time>2026-03-22T11:23:53.925Z</time></trkpt><trkpt lat="43.60400462879517" lon="11.118038445494264"><ele>319.0</ele><time>2026-03-22T11:23:54.925Z</time></trkpt><trkpt lat="43.60415680849164" lon="11.11809591342778"><ele>319.0</ele><time>2026-03-22T11:23:55.925Z</time></trkpt><trkpt lat="43.60431415047332" lon="11.118107622313692"><ele>319.0</ele><time>2026-03-22T11:23:56.925Z</time></trkpt><trkpt lat="43.604476733227884" lon="11.118088740609725"><ele>319.0</ele><time>2026-03-22T11:23:57.925Z</time></trkpt><trkpt lat="43.6046421972304" lon="11.118052828514424"><ele>316.3333333333333</ele><time>2026-03-22T11:23:58.925Z</time></trkpt><trkpt lat="43.60481157115138" lon="11.11802380272319"><ele>313.6666666666667</ele><time>2026-03-22T11:23:59.927Z</time></trkpt><trkpt lat="43.60497775233853" lon="11.117996507208309"><ele>311.0</ele><time>2026-03-22T11:24:00.928Z</time></trkpt><trkpt lat="43.6051315826868" lon="11.11800666261187"><ele>311.0</ele><time>2026-03-22T11:24:01.928Z</time></trkpt><trkpt lat="43.605288626005844" lon="11.118053113822848"><ele>311.0</ele><time>2026-03-22T11:24:02.928Z</time></trkpt><trkpt lat="43.605441047518596" lon="11.118126686082096"><ele>311.0</ele><time>2026-03-22T11:24:03.928Z</time></trkpt><trkpt lat="43.6055919947153" lon="11.118229262154559"><ele>314.0</ele><time>2026-03-22T11:24:04.928Z</time></trkpt><trkpt lat="43.60574373153797" lon="11.118333875700797"><ele>317.0</ele><time>2026-03-22T11:24:05.928Z</time></trkpt><trkpt lat="43.605908039307096" lon="11.1184546075112"><ele>320.0</ele><time>2026-03-22T11:24:06.928Z</time></trkpt><trkpt lat="43.60607031181402" lon="11.118600132149895"><ele>318.33333333333337</ele><time>2026-03-22T11:24:07.928Z</time></trkpt><trkpt lat="43.60624935608371" lon="11.11873881098408"><ele>316.6666666666667</ele><time>2026-03-22T11:24:08.927Z</time></trkpt><trkpt lat="43.60643368550615" lon="11.11887782102627"><ele>315.0</ele><time>2026-03-22T11:24:09.928Z</time></trkpt><trkpt lat="43.60663251002237" lon="11.11899488188747"><ele>320.0</ele><time>2026-03-22T11:24:10.928Z</time></trkpt><trkpt lat="43.6068239138831" lon="11.119110988336462"><ele>325.0</ele><time>2026-03-22T11:24:11.928Z</time></trkpt><trkpt lat="43.60702853083583" lon="11.119214380491455"><ele>330.0</ele><time>2026-03-22T11:24:12.928Z</time></trkpt><trkpt lat="43.607216690326005" lon="11.119311403507506"><ele>330.0</ele><time>2026-03-22T11:24:13.928Z</time></trkpt><trkpt lat="43.607378840828694" lon="11.119375982252878"><ele>330.0</ele><time>2026-03-22T11:24:14.928Z</time></trkpt><trkpt lat="43.6075207904639" lon="11.119453889436958"><ele>330.0</ele><time>2026-03-22T11:24:15.928Z</time></trkpt><trkpt lat="43.60765561148199" lon="11.119522821528852"><ele>330.0</ele><time>2026-03-22T11:24:16.928Z</time></trkpt><trkpt lat="43.607781049371795" lon="11.119574778428266"><ele>330.0</ele><time>2026-03-22T11:24:17.928Z</time></trkpt><trkpt lat="43.60789202389357" lon="11.119589854013002"><ele>330.0</ele><time>2026-03-22T11:24:18.928Z</time></trkpt><trkpt lat="43.608007543929546" lon="11.11959159926259"><ele>330.0</ele><time>2026-03-22T11:24:19.928Z</time></trkpt><trkpt lat="43.60811865536494" lon="11.119547733223902"><ele>329.25</ele><time>2026-03-22T11:24:20.928Z</time></trkpt><trkpt lat="43.60823213885117" lon="11.119495358337362"><ele>328.5</ele><time>2026-03-22T11:24:21.928Z</time></trkpt><trkpt lat="43.60835473436141" lon="11.119431179481355"><ele>327.75</ele><time>2026-03-22T11:24:22.928Z</time></trkpt><trkpt lat="43.6084786267833" lon="11.119319441657998"><ele>327.0</ele><time>2026-03-22T11:24:23.928Z</time></trkpt><trkpt lat="43.6086157795725" lon="11.119231844364677"><ele>326.3333333333333</ele><time>2026-03-22T11:24:24.928Z</time></trkpt><trkpt lat="43.60876929487743" lon="11.119130025505358"><ele>325.66666666666663</ele><time>2026-03-22T11:24:25.928Z</time></trkpt><trkpt lat="43.6089234073125" lon="11.119027108698422"><ele>325.0</ele><time>2026-03-22T11:24:26.928Z</time></trkpt><trkpt lat="43.60910039779693" lon="11.118942390548616"><ele>325.0</ele><time>2026-03-22T11:24:27.928Z</time></trkpt><trkpt lat="43.60927270549945" lon="11.118845085469983"><ele>325.0</ele><time>2026-03-22T11:24:28.928Z</time></trkpt><trkpt lat="43.60943821642339" lon="11.118771683873963"><ele>325.0</ele><time>2026-03-22T11:24:29.928Z</time></trkpt><trkpt lat="43.609596333118304" lon="11.118730622157877"><ele>325.0</ele><time>2026-03-22T11:24:30.928Z</time></trkpt><trkpt lat="43.60973417658615" lon="11.118705829696362"><ele>325.0</ele><time>2026-03-22T11:24:31.927Z</time></trkpt><trkpt lat="43.609869790690375" lon="11.118697736087622"><ele>325.0</ele><time>2026-03-22T11:24:32.927Z</time></trkpt><trkpt lat="43.610002549999045" lon="11.118681136060571"><ele>325.0</ele><time>2026-03-22T11:24:33.927Z</time></trkpt><trkpt lat="43.61011996997256" lon="11.118658126725704"><ele>325.0</ele><time>2026-03-22T11:24:34.927Z</time></trkpt><trkpt lat="43.610230665829064" lon="11.118578418680698"><ele>325.0</ele><time>2026-03-22T11:24:35.927Z</time></trkpt><trkpt lat="43.61033240010361" lon="11.118507390935543"><ele>325.0</ele><time>2026-03-22T11:24:36.927Z</time></trkpt><trkpt lat="43.61045755964355" lon="11.118408529167928"><ele>325.0</ele><time>2026-03-22T11:24:37.927Z</time></trkpt><trkpt lat="43.61058883717103" lon="11.1183055056816"><ele>321.3333333333333</ele><time>2026-03-22T11:24:38.927Z</time></trkpt><trkpt lat="43.61073233846145" lon="11.118193969529687"><ele>317.6666666666667</ele><time>2026-03-22T11:24:39.927Z</time></trkpt><trkpt lat="43.61089146714925" lon="11.118097074649784"><ele>314.0</ele><time>2026-03-22T11:24:40.927Z</time></trkpt><trkpt lat="43.611058859709495" lon="11.117971963953035"><ele>313.0</ele><time>2026-03-22T11:24:41.927Z</time></trkpt><trkpt lat="43.611225873286436" lon="11.117839835084375"><ele>312.0</ele><time>2026-03-22T11:24:42.927Z</time></trkpt><trkpt lat="43.611398785415275" lon="11.117704425490105"><ele>311.0</ele><time>2026-03-22T11:24:43.927Z</time></trkpt><trkpt lat="43.611578844789165" lon="11.117569568535286"><ele>311.0</ele><time>2026-03-22T11:24:44.927Z</time></trkpt><trkpt lat="43.611767122665874" lon="11.117417104881534"><ele>311.0</ele><time>2026-03-22T11:24:45.927Z</time></trkpt><trkpt lat="43.61196329198597" lon="11.1172599977005"><ele>311.0</ele><time>2026-03-22T11:24:46.927Z</time></trkpt><trkpt lat="43.61218618655049" lon="11.117084935073533"><ele>310.0</ele><time>2026-03-22T11:24:47.927Z</time></trkpt><trkpt lat="43.6124051420858" lon="11.116923426925332"><ele>309.0</ele><time>2026-03-22T11:24:48.927Z</time></trkpt><trkpt lat="43.61259576859958" lon="11.116782583262708"><ele>309.0</ele><time>2026-03-22T11:24:49.927Z</time></trkpt><trkpt lat="43.61277310105049" lon="11.116640744517088"><ele>309.0</ele><time>2026-03-22T11:24:50.927Z</time></trkpt><trkpt lat="43.612905948407274" lon="11.116459345867748"><ele>309.0</ele><time>2026-03-22T11:24:51.927Z</time></trkpt><trkpt lat="43.613031865771106" lon="11.116292509701555"><ele>308.0</ele><time>2026-03-22T11:24:52.927Z</time></trkpt><trkpt lat="43.613155936611115" lon="11.11611755795707"><ele>307.0</ele><time>2026-03-22T11:24:53.927Z</time></trkpt><trkpt lat="43.61327974474776" lon="11.115932853969397"><ele>306.0</ele><time>2026-03-22T11:24:54.927Z</time></trkpt><trkpt lat="43.61339370688928" lon="11.115721262030535"><ele>306.0</ele><time>2026-03-22T11:24:55.927Z</time></trkpt><trkpt lat="43.61349554443137" lon="11.115479429423301"><ele>306.0</ele><time>2026-03-22T11:24:56.927Z</time></trkpt><trkpt lat="43.61359497990449" lon="11.115227833676352"><ele>306.0</ele><time>2026-03-22T11:24:57.927Z</time></trkpt><trkpt lat="43.613693841216076" lon="11.114980920353734"><ele>305.0</ele><time>2026-03-22T11:24:58.927Z</time></trkpt><trkpt lat="43.61378045227263" lon="11.114759701057585"><ele>304.0</ele><time>2026-03-22T11:24:59.927Z</time></trkpt><trkpt lat="43.61384864667101" lon="11.114551509959146"><ele>303.0</ele><time>2026-03-22T11:25:00.927Z</time></trkpt><trkpt lat="43.613906715803274" lon="11.114357158465"><ele>303.0</ele><time>2026-03-22T11:25:01.927Z</time></trkpt><trkpt lat="43.613968541864466" lon="11.114169077973605"><ele>303.0</ele><time>2026-03-22T11:25:02.927Z</time></trkpt><trkpt lat="43.614059256134986" lon="11.11400722090874"><ele>303.0</ele><time>2026-03-22T11:25:03.927Z</time></trkpt><trkpt lat="43.61415185371944" lon="11.113842783306078"><ele>303.0</ele><time>2026-03-22T11:25:04.926Z</time></trkpt><trkpt lat="43.61426230219758" lon="11.113681956769385"><ele>301.0</ele><time>2026-03-22T11:25:05.926Z</time></trkpt><trkpt lat="43.61440382848162" lon="11.11349868706101"><ele>299.0</ele><time>2026-03-22T11:25:06.926Z</time></trkpt><trkpt lat="43.614535551277825" lon="11.113285862558762"><ele>297.0</ele><time>2026-03-22T11:25:07.926Z</time></trkpt><trkpt lat="43.61465414972909" lon="11.113035346639428"><ele>295.6666666666667</ele><time>2026-03-22T11:25:08.926Z</time></trkpt><trkpt lat="43.61473621532646" lon="11.112771211530456"><ele>294.33333333333337</ele><time>2026-03-22T11:25:09.926Z</time></trkpt><trkpt lat="43.614863627475295" lon="11.112572519700697"><ele>293.0</ele><time>2026-03-22T11:25:10.926Z</time></trkpt><trkpt lat="43.61499703941948" lon="11.112379006483255"><ele>292.6666666666667</ele><time>2026-03-22T11:25:11.926Z</time></trkpt><trkpt lat="43.615121124725285" lon="11.11219051039687"><ele>292.3333333333333</ele><time>2026-03-22T11:25:12.926Z</time></trkpt><trkpt lat="43.61523526958669" lon="11.111965827904578"><ele>292.0</ele><time>2026-03-22T11:25:13.926Z</time></trkpt><trkpt lat="43.6153033100898" lon="11.111696313577866"><ele>296.0</ele><time>2026-03-22T11:25:14.926Z</time></trkpt><trkpt lat="43.61540116245268" lon="11.111452353208007"><ele>300.0</ele><time>2026-03-22T11:25:15.926Z</time></trkpt><trkpt lat="43.615502791545225" lon="11.111199165268372"><ele>304.0</ele><time>2026-03-22T11:25:16.926Z</time></trkpt><trkpt lat="43.61561171780727" lon="11.110987650362418"><ele>304.0</ele><time>2026-03-22T11:25:17.926Z</time></trkpt><trkpt lat="43.615716792477606" lon="11.110809717358217"><ele>304.0</ele><time>2026-03-22T11:25:18.926Z</time></trkpt><trkpt lat="43.61582363471221" lon="11.110663452487659"><ele>304.0</ele><time>2026-03-22T11:25:19.926Z</time></trkpt><trkpt lat="43.615947159130805" lon="11.110554660681792"><ele>304.3333333333333</ele><time>2026-03-22T11:25:20.926Z</time></trkpt><trkpt lat="43.616083142330986" lon="11.110458537550477"><ele>304.6666666666667</ele><time>2026-03-22T11:25:21.926Z</time></trkpt><trkpt lat="43.616219622829" lon="11.110349362368101"><ele>305.0</ele><time>2026-03-22T11:25:22.926Z</time></trkpt><trkpt lat="43.61635902148003" lon="11.110262465424121"><ele>305.0</ele><time>2026-03-22T11:25:23.926Z</time></trkpt><trkpt lat="43.616478470465864" lon="11.11018612595652"><ele>305.0</ele><time>2026-03-22T11:25:24.926Z</time></trkpt><trkpt lat="43.616593815869294" lon="11.110122698210052"><ele>305.0</ele><time>2026-03-22T11:25:25.926Z</time></trkpt><trkpt lat="43.6167010846881" lon="11.11005347349076"><ele>305.0</ele><time>2026-03-22T11:25:26.926Z</time></trkpt><trkpt lat="43.616801124344526" lon="11.109948115035717"><ele>303.75</ele><time>2026-03-22T11:25:27.926Z</time></trkpt><trkpt lat="43.61685834848624" lon="11.10978616077982"><ele>302.5</ele><time>2026-03-22T11:25:28.926Z</time></trkpt><trkpt lat="43.61691061773779" lon="11.109606779289445"><ele>301.25</ele><time>2026-03-22T11:25:29.926Z</time></trkpt><trkpt lat="43.616971474709956" lon="11.109395358369445"><ele>300.0</ele><time>2026-03-22T11:25:30.926Z</time></trkpt><trkpt lat="43.61706080436977" lon="11.109197923600703"><ele>299.6666666666667</ele><time>2026-03-22T11:25:31.926Z</time></trkpt><trkpt lat="43.61715438494564" lon="11.108980586663725"><ele>299.33333333333337</ele><time>2026-03-22T11:25:32.926Z</time></trkpt><trkpt lat="43.61728227268749" lon="11.108774384301514"><ele>299.0</ele><time>2026-03-22T11:25:33.926Z</time></trkpt><trkpt lat="43.617435165980645" lon="11.10857747524817"><ele>299.0</ele><time>2026-03-22T11:25:34.926Z</time></trkpt><trkpt lat="43.61758554946452" lon="11.108396207294271"><ele>299.0</ele><time>2026-03-22T11:25:35.926Z</time></trkpt><trkpt lat="43.61775783215092" lon="11.108239017979184"><ele>299.0</ele><time>2026-03-22T11:25:36.926Z</time></trkpt><trkpt lat="43.61794004327119" lon="11.108123905354155"><ele>299.0</ele><time>2026-03-22T11:25:37.925Z</time></trkpt><trkpt lat="43.61814261699297" lon="11.108025263263492"><ele>299.0</ele><time>2026-03-22T11:25:38.925Z</time></trkpt><trkpt lat="43.61835568839641" lon="11.107934033332967"><ele>299.0</ele><time>2026-03-22T11:25:39.925Z</time></trkpt><trkpt lat="43.61857750291225" lon="11.107843761897941"><ele>300.0</ele><time>2026-03-22T11:25:40.925Z</time></trkpt><trkpt lat="43.61880483064517" lon="11.107761552435564"><ele>301.0</ele><time>2026-03-22T11:25:41.925Z</time></trkpt><trkpt lat="43.61902329360515" lon="11.107679144876121"><ele>301.0</ele><time>2026-03-22T11:25:42.925Z</time></trkpt><trkpt lat="43.619224870190806" lon="11.10761154856853"><ele>301.0</ele><time>2026-03-22T11:25:43.925Z</time></trkpt><trkpt lat="43.61939212194267" lon="11.107537045674452"><ele>301.0</ele><time>2026-03-22T11:25:44.925Z</time></trkpt><trkpt lat="43.61954386043192" lon="11.10742217930206"><ele>303.0</ele><time>2026-03-22T11:25:45.925Z</time></trkpt><trkpt lat="43.61968023590295" lon="11.10726160078796"><ele>305.0</ele><time>2026-03-22T11:25:46.925Z</time></trkpt><trkpt lat="43.61980550518474" lon="11.10705807746504"><ele>307.0</ele><time>2026-03-22T11:25:47.925Z</time></trkpt><trkpt lat="43.61993753820404" lon="11.106824886600464"><ele>307.0</ele><time>2026-03-22T11:25:48.925Z</time></trkpt><trkpt lat="43.62007090129623" lon="11.106594108774264"><ele>307.0</ele><time>2026-03-22T11:25:49.925Z</time></trkpt><trkpt lat="43.62023423170319" lon="11.106391685693644"><ele>307.0</ele><time>2026-03-22T11:25:50.925Z</time></trkpt><trkpt lat="43.620414426574484" lon="11.106204279963235"><ele>310.5</ele><time>2026-03-22T11:25:51.925Z</time></trkpt><trkpt lat="43.620597173661835" lon="11.106006227935163"><ele>314.0</ele><time>2026-03-22T11:25:52.925Z</time></trkpt><trkpt lat="43.62079483486758" lon="11.105830521209347"><ele>315.0</ele><time>2026-03-22T11:25:53.925Z</time></trkpt><trkpt lat="43.62100365522977" lon="11.105661268376869"><ele>316.0</ele><time>2026-03-22T11:25:54.925Z</time></trkpt><trkpt lat="43.621215716402" lon="11.105495208843188"><ele>316.0</ele><time>2026-03-22T11:25:55.925Z</time></trkpt><trkpt lat="43.62141417867042" lon="11.105366297013974"><ele>316.0</ele><time>2026-03-22T11:25:56.925Z</time></trkpt><trkpt lat="43.62157945808956" lon="11.105275493321123"><ele>316.0</ele><time>2026-03-22T11:25:57.925Z</time></trkpt><trkpt lat="43.621710664150456" lon="11.105232440290457"><ele>316.0</ele><time>2026-03-22T11:25:58.925Z</time></trkpt><trkpt lat="43.621806391696154" lon="11.10520262101301"><ele>316.0</ele><time>2026-03-22T11:25:59.925Z</time></trkpt><trkpt lat="43.621895702255145" lon="11.10517074485094"><ele>316.0</ele><time>2026-03-22T11:26:00.925Z</time></trkpt><trkpt lat="43.62200390702121" lon="11.105134328271992"><ele>316.0</ele><time>2026-03-22T11:26:01.925Z</time></trkpt><trkpt lat="43.62211411879129" lon="11.10510133295482"><ele>316.0</ele><time>2026-03-22T11:26:02.925Z</time></trkpt><trkpt lat="43.622230933175516" lon="11.105055857222679"><ele>316.0</ele><time>2026-03-22T11:26:03.925Z</time></trkpt><trkpt lat="43.62235113844204" lon="11.104998694302285"><ele>316.0</ele><time>2026-03-22T11:26:04.925Z</time></trkpt><trkpt lat="43.622478404613254" lon="11.104915345166782"><ele>316.0</ele><time>2026-03-22T11:26:05.926Z</time></trkpt><trkpt lat="43.62261360130117" lon="11.104794965299359"><ele>316.0</ele><time>2026-03-22T11:26:06.926Z</time></trkpt><trkpt lat="43.62274658801672" lon="11.104645987108444"><ele>310.0</ele><time>2026-03-22T11:26:07.926Z</time></trkpt><trkpt lat="43.622884218849286" lon="11.10446879962294"><ele>304.0</ele><time>2026-03-22T11:26:08.927Z</time></trkpt><trkpt lat="43.62300759317645" lon="11.10428274662668"><ele>298.0</ele><time>2026-03-22T11:26:09.927Z</time></trkpt><trkpt lat="43.623115960923855" lon="11.104099065982238"><ele>299.0</ele><time>2026-03-22T11:26:10.926Z</time></trkpt><trkpt lat="43.623193913013395" lon="11.103903626726737"><ele>300.0</ele><time>2026-03-22T11:26:11.926Z</time></trkpt><trkpt lat="43.62324184483468" lon="11.103698735733685"><ele>301.0</ele><time>2026-03-22T11:26:12.926Z</time></trkpt><trkpt lat="43.62327668164483" lon="11.103490645881928"><ele>301.0</ele><time>2026-03-22T11:26:13.926Z</time></trkpt><trkpt lat="43.623326670527106" lon="11.103291573537563"><ele>301.0</ele><time>2026-03-22T11:26:14.926Z</time></trkpt><trkpt lat="43.623411387031695" lon="11.103086780971944"><ele>301.0</ele><time>2026-03-22T11:26:15.926Z</time></trkpt><trkpt lat="43.62352589960033" lon="11.102898117579189"><ele>300.3333333333333</ele><time>2026-03-22T11:26:16.926Z</time></trkpt><trkpt lat="43.62362453244131" lon="11.102699054377252"><ele>299.6666666666667</ele><time>2026-03-22T11:26:17.927Z</time></trkpt><trkpt lat="43.62371185774494" lon="11.102519410338115"><ele>299.0</ele><time>2026-03-22T11:26:18.926Z</time></trkpt><trkpt lat="43.6238027741708" lon="11.102326474093308"><ele>294.0</ele><time>2026-03-22T11:26:19.926Z</time></trkpt><trkpt lat="43.62389365678645" lon="11.10215251943681"><ele>289.0</ele><time>2026-03-22T11:26:20.926Z</time></trkpt><trkpt lat="43.62398264818123" lon="11.10196175153332"><ele>284.0</ele><time>2026-03-22T11:26:21.926Z</time></trkpt><trkpt lat="43.624075070308315" lon="11.101777685475719"><ele>284.0</ele><time>2026-03-22T11:26:22.926Z</time></trkpt><trkpt lat="43.62416474437509" lon="11.101590766806618"><ele>284.0</ele><time>2026-03-22T11:26:23.926Z</time></trkpt><trkpt lat="43.624253910838306" lon="11.10138961354149"><ele>284.0</ele><time>2026-03-22T11:26:24.926Z</time></trkpt><trkpt lat="43.62434750104715" lon="11.101195323351838"><ele>283.5</ele><time>2026-03-22T11:26:25.926Z</time></trkpt><trkpt lat="43.62443430487393" lon="11.101014313482313"><ele>283.0</ele><time>2026-03-22T11:26:26.926Z</time></trkpt><trkpt lat="43.62451371330604" lon="11.100844123709965"><ele>282.5</ele><time>2026-03-22T11:26:27.926Z</time></trkpt><trkpt lat="43.62458923047718" lon="11.100690211265457"><ele>282.0</ele><time>2026-03-22T11:26:28.926Z</time></trkpt><trkpt lat="43.62465913771316" lon="11.100542623029021"><ele>283.25</ele><time>2026-03-22T11:26:29.926Z</time></trkpt><trkpt lat="43.624728741339744" lon="11.10039520255294"><ele>284.5</ele><time>2026-03-22T11:26:30.926Z</time></trkpt><trkpt lat="43.62480346385393" lon="11.100247918525517"><ele>285.75</ele><time>2026-03-22T11:26:31.926Z</time></trkpt><trkpt lat="43.62487678849558" lon="11.100096469727156"><ele>287.0</ele><time>2026-03-22T11:26:32.926Z</time></trkpt><trkpt lat="43.62495442686082" lon="11.099945330626609"><ele>285.5</ele><time>2026-03-22T11:26:33.926Z</time></trkpt><trkpt lat="43.625022784579386" lon="11.09978721910485"><ele>284.0</ele><time>2026-03-22T11:26:34.926Z</time></trkpt><trkpt lat="43.625106228831164" lon="11.09962190677391"><ele>282.5</ele><time>2026-03-22T11:26:35.926Z</time></trkpt><trkpt lat="43.625176489566236" lon="11.09948555787018"><ele>281.0</ele><time>2026-03-22T11:26:36.926Z</time></trkpt><trkpt lat="43.62524954385656" lon="11.09938141242238"><ele>279.75</ele><time>2026-03-22T11:26:37.926Z</time></trkpt><trkpt lat="43.625339699381115" lon="11.099306750396114"><ele>278.5</ele><time>2026-03-22T11:26:38.926Z</time></trkpt><trkpt lat="43.62544576982712" lon="11.099215566982448"><ele>277.25</ele><time>2026-03-22T11:26:39.926Z</time></trkpt><trkpt lat="43.62557843796669" lon="11.099172643129675"><ele>276.0</ele><time>2026-03-22T11:26:40.926Z</time></trkpt><trkpt lat="43.625724650236016" lon="11.099079653855943"><ele>273.3333333333333</ele><time>2026-03-22T11:26:41.926Z</time></trkpt><trkpt lat="43.625874020447014" lon="11.09898380061292"><ele>270.66666666666663</ele><time>2026-03-22T11:26:42.926Z</time></trkpt><trkpt lat="43.626039837606406" lon="11.098870805949877"><ele>268.0</ele><time>2026-03-22T11:26:43.926Z</time></trkpt><trkpt lat="43.62621819040441" lon="11.098758446262654"><ele>268.0</ele><time>2026-03-22T11:26:44.926Z</time></trkpt><trkpt lat="43.62640769159133" lon="11.098637150084347"><ele>268.0</ele><time>2026-03-22T11:26:45.925Z</time></trkpt><trkpt lat="43.62658890352797" lon="11.098525040435145"><ele>268.0</ele><time>2026-03-22T11:26:46.925Z</time></trkpt><trkpt lat="43.62676999201783" lon="11.098422600325895"><ele>268.0</ele><time>2026-03-22T11:26:47.925Z</time></trkpt><trkpt lat="43.626951491434234" lon="11.09833845761623"><ele>268.0</ele><time>2026-03-22T11:26:48.925Z</time></trkpt><trkpt lat="43.62716352288714" lon="11.098286556205688"><ele>268.0</ele><time>2026-03-22T11:26:49.925Z</time></trkpt><trkpt lat="43.62737678699152" lon="11.098205245844673"><ele>270.0</ele><time>2026-03-22T11:26:50.925Z</time></trkpt><trkpt lat="43.627620973933496" lon="11.0981363151276"><ele>272.0</ele><time>2026-03-22T11:26:51.925Z</time></trkpt><trkpt lat="43.62786059657355" lon="11.09806202155318"><ele>272.6666666666667</ele><time>2026-03-22T11:26:52.925Z</time></trkpt><trkpt lat="43.628078066745125" lon="11.097972485683181"><ele>273.3333333333333</ele><time>2026-03-22T11:26:53.925Z</time></trkpt><trkpt lat="43.628282387590474" lon="11.097869925425355"><ele>274.0</ele><time>2026-03-22T11:26:54.925Z</time></trkpt><trkpt lat="43.62849159053952" lon="11.097772937505578"><ele>272.66666666666663</ele><time>2026-03-22T11:26:55.925Z</time></trkpt><trkpt lat="43.62869685641615" lon="11.097677751676828"><ele>271.3333333333333</ele><time>2026-03-22T11:26:56.925Z</time></trkpt><trkpt lat="43.62889972814388" lon="11.097566713652235"><ele>270.0</ele><time>2026-03-22T11:26:57.925Z</time></trkpt><trkpt lat="43.6290940508841" lon="11.09745878775518"><ele>272.6666666666667</ele><time>2026-03-22T11:26:58.925Z</time></trkpt><trkpt lat="43.62927693959563" lon="11.097370266627264"><ele>275.33333333333337</ele><time>2026-03-22T11:26:59.925Z</time></trkpt><trkpt lat="43.62944453151071" lon="11.097284082429828"><ele>278.0</ele><time>2026-03-22T11:27:00.925Z</time></trkpt><trkpt lat="43.62960214035051" lon="11.0972181769832"><ele>278.0</ele><time>2026-03-22T11:27:01.925Z</time></trkpt><trkpt lat="43.62975993645971" lon="11.097176396030573"><ele>278.0</ele><time>2026-03-22T11:27:02.925Z</time></trkpt><trkpt lat="43.62992820230938" lon="11.097169724598398"><ele>278.0</ele><time>2026-03-22T11:27:03.925Z</time></trkpt><trkpt lat="43.63010114374806" lon="11.097187517720153"><ele>278.0</ele><time>2026-03-22T11:27:04.925Z</time></trkpt><trkpt lat="43.63028086651116" lon="11.097223851778105"><ele>278.0</ele><time>2026-03-22T11:27:05.925Z</time></trkpt><trkpt lat="43.630445569774324" lon="11.097260835213428"><ele>278.0</ele><time>2026-03-22T11:27:06.925Z</time></trkpt><trkpt lat="43.63059290525152" lon="11.097276561158152"><ele>277.6666666666667</ele><time>2026-03-22T11:27:07.925Z</time></trkpt><trkpt lat="43.63074498087886" lon="11.097254323514367"><ele>277.3333333333333</ele><time>2026-03-22T11:27:08.925Z</time></trkpt><trkpt lat="43.630899839872754" lon="11.097197544249195"><ele>277.0</ele><time>2026-03-22T11:27:09.925Z</time></trkpt><trkpt lat="43.631061849260064" lon="11.097123739075121"><ele>275.0</ele><time>2026-03-22T11:27:10.925Z</time></trkpt><trkpt lat="43.63122552179422" lon="11.09703965270014"><ele>273.0</ele><time>2026-03-22T11:27:11.925Z</time></trkpt><trkpt lat="43.63139584929289" lon="11.096950024895419"><ele>271.0</ele><time>2026-03-22T11:27:12.925Z</time></trkpt><trkpt lat="43.63157516435892" lon="11.096851667396987"><ele>271.0</ele><time>2026-03-22T11:27:13.925Z</time></trkpt><trkpt lat="43.631760222063804" lon="11.096745886413443"><ele>271.0</ele><time>2026-03-22T11:27:14.925Z</time></trkpt><trkpt lat="43.631948071943654" lon="11.096633173475725"><ele>271.0</ele><time>2026-03-22T11:27:15.925Z</time></trkpt><trkpt lat="43.63213641426468" lon="11.096520091777926"><ele>269.66666666666663</ele><time>2026-03-22T11:27:16.925Z</time></trkpt><trkpt lat="43.63231374559926" lon="11.096418930903804"><ele>268.3333333333333</ele><time>2026-03-22T11:27:17.925Z</time></trkpt><trkpt lat="43.632479136383566" lon="11.09632232384802"><ele>267.0</ele><time>2026-03-22T11:27:18.924Z</time></trkpt><trkpt lat="43.63263682421871" lon="11.09621914466725"><ele>267.0</ele><time>2026-03-22T11:27:19.924Z</time></trkpt><trkpt lat="43.63277081051356" lon="11.096114465773898"><ele>267.0</ele><time>2026-03-22T11:27:20.924Z</time></trkpt><trkpt lat="43.63287954429064" lon="11.095993246586797"><ele>267.0</ele><time>2026-03-22T11:27:21.924Z</time></trkpt><trkpt lat="43.63294226872744" lon="11.09583175871853"><ele>267.0</ele><time>2026-03-22T11:27:22.924Z</time></trkpt><trkpt lat="43.63300779866461" lon="11.09565335738866"><ele>263.0</ele><time>2026-03-22T11:27:23.924Z</time></trkpt><trkpt lat="43.63308702208429" lon="11.09543988680893"><ele>259.0</ele><time>2026-03-22T11:27:24.924Z</time></trkpt><trkpt lat="43.63318360813819" lon="11.095215685018244"><ele>255.0</ele><time>2026-03-22T11:27:25.924Z</time></trkpt><trkpt lat="43.633275905456145" lon="11.09496701949181"><ele>254.0</ele><time>2026-03-22T11:27:26.924Z</time></trkpt><trkpt lat="43.633378284949615" lon="11.094736617278329"><ele>253.0</ele><time>2026-03-22T11:27:27.924Z</time></trkpt><trkpt lat="43.63349184757695" lon="11.094525390457262"><ele>252.0</ele><time>2026-03-22T11:27:28.924Z</time></trkpt><trkpt lat="43.63362179279706" lon="11.094361651190203"><ele>252.0</ele><time>2026-03-22T11:27:29.924Z</time></trkpt><trkpt lat="43.633753681960556" lon="11.094202060969835"><ele>252.0</ele><time>2026-03-22T11:27:30.924Z</time></trkpt><trkpt lat="43.63387906956147" lon="11.09403152156435"><ele>252.0</ele><time>2026-03-22T11:27:31.924Z</time></trkpt><trkpt lat="43.63400350639506" lon="11.093861991642065"><ele>252.0</ele><time>2026-03-22T11:27:32.924Z</time></trkpt><trkpt lat="43.63413149873322" lon="11.093692883475546"><ele>252.0</ele><time>2026-03-22T11:27:33.924Z</time></trkpt><trkpt lat="43.63427365651794" lon="11.093521190661244"><ele>252.0</ele><time>2026-03-22T11:27:34.924Z</time></trkpt><trkpt lat="43.6344195405938" lon="11.093345673388963"><ele>253.0</ele><time>2026-03-22T11:27:35.924Z</time></trkpt><trkpt lat="43.63456896106139" lon="11.09318214313467"><ele>254.0</ele><time>2026-03-22T11:27:36.924Z</time></trkpt><trkpt lat="43.63472640237315" lon="11.09300733469293"><ele>255.0</ele><time>2026-03-22T11:27:37.924Z</time></trkpt><trkpt lat="43.63488632670922" lon="11.09283463956872"><ele>255.0</ele><time>2026-03-22T11:27:38.924Z</time></trkpt><trkpt lat="43.63504988183893" lon="11.09266492573539"><ele>255.0</ele><time>2026-03-22T11:27:39.924Z</time></trkpt><trkpt lat="43.635210348267954" lon="11.092486792279207"><ele>255.0</ele><time>2026-03-22T11:27:40.924Z</time></trkpt><trkpt lat="43.63537029747704" lon="11.092297658874276"><ele>254.66666666666669</ele><time>2026-03-22T11:27:41.924Z</time></trkpt><trkpt lat="43.63553500744667" lon="11.092111304364764"><ele>254.33333333333334</ele><time>2026-03-22T11:27:42.924Z</time></trkpt><trkpt lat="43.63569926905731" lon="11.09192012672875"><ele>254.0</ele><time>2026-03-22T11:27:43.924Z</time></trkpt><trkpt lat="43.63586795555493" lon="11.091728035427257"><ele>254.33333333333334</ele><time>2026-03-22T11:27:44.924Z</time></trkpt><trkpt lat="43.63602856840252" lon="11.091532589100042"><ele>254.66666666666669</ele><time>2026-03-22T11:27:45.924Z</time></trkpt><trkpt lat="43.63618717694258" lon="11.091348894716585"><ele>255.0</ele><time>2026-03-22T11:27:46.924Z</time></trkpt><trkpt lat="43.63633276716293" lon="11.091185499163746"><ele>255.0</ele><time>2026-03-22T11:27:47.924Z</time></trkpt><trkpt lat="43.63646654576698" lon="11.091043804117042"><ele>255.0</ele><time>2026-03-22T11:27:48.924Z</time></trkpt><trkpt lat="43.636590438829984" lon="11.090908232379343"><ele>255.0</ele><time>2026-03-22T11:27:49.924Z</time></trkpt><trkpt lat="43.63670517438569" lon="11.090776194140853"><ele>256.0</ele><time>2026-03-22T11:27:50.924Z</time></trkpt><trkpt lat="43.63682228170256" lon="11.090647928658795"><ele>257.0</ele><time>2026-03-22T11:27:51.923Z</time></trkpt><trkpt lat="43.63694720211759" lon="11.090505949990467"><ele>258.0</ele><time>2026-03-22T11:27:52.923Z</time></trkpt><trkpt lat="43.63706148129453" lon="11.090345065742728"><ele>256.3333333333333</ele><time>2026-03-22T11:27:53.923Z</time></trkpt><trkpt lat="43.63716924156839" lon="11.090145133742077"><ele>254.66666666666666</ele><time>2026-03-22T11:27:54.923Z</time></trkpt><trkpt lat="43.637250899076285" lon="11.089908368535456"><ele>253.0</ele><time>2026-03-22T11:27:55.923Z</time></trkpt><trkpt lat="43.63731691287326" lon="11.089644510777145"><ele>253.0</ele><time>2026-03-22T11:27:56.923Z</time></trkpt><trkpt lat="43.63737405083318" lon="11.08935258159652"><ele>253.0</ele><time>2026-03-22T11:27:57.923Z</time></trkpt><trkpt lat="43.63743943295853" lon="11.089084971516327"><ele>253.0</ele><time>2026-03-22T11:27:58.923Z</time></trkpt><trkpt lat="43.637536739167786" lon="11.08884161418394"><ele>252.0</ele><time>2026-03-22T11:27:59.923Z</time></trkpt><trkpt lat="43.63764748755536" lon="11.08861991953086"><ele>251.0</ele><time>2026-03-22T11:28:00.923Z</time></trkpt><trkpt lat="43.63775376722629" lon="11.088428950901472"><ele>250.0</ele><time>2026-03-22T11:28:01.923Z</time></trkpt><trkpt lat="43.6378293144449" lon="11.08823872973455"><ele>250.0</ele><time>2026-03-22T11:28:02.923Z</time></trkpt><trkpt lat="43.637855621291365" lon="11.088049153874529"><ele>250.0</ele><time>2026-03-22T11:28:03.923Z</time></trkpt><trkpt lat="43.63783770123454" lon="11.08786820893389"><ele>250.0</ele><time>2026-03-22T11:28:04.923Z</time></trkpt><trkpt lat="43.637827683408425" lon="11.087673065168115"><ele>250.0</ele><time>2026-03-22T11:28:05.923Z</time></trkpt><trkpt lat="43.63777065970655" lon="11.0874420039379"><ele>249.66666666666666</ele><time>2026-03-22T11:28:06.923Z</time></trkpt><trkpt lat="43.637727465406336" lon="11.08721888418441"><ele>249.33333333333331</ele><time>2026-03-22T11:28:07.923Z</time></trkpt><trkpt lat="43.63769856559017" lon="11.08697508345819"><ele>249.0</ele><time>2026-03-22T11:28:08.923Z</time></trkpt><trkpt lat="43.6376810329047" lon="11.086720688865352"><ele>248.33333333333331</ele><time>2026-03-22T11:28:09.923Z</time></trkpt><trkpt lat="43.637669612837755" lon="11.08644470835359"><ele>247.66666666666666</ele><time>2026-03-22T11:28:10.923Z</time></trkpt><trkpt lat="43.63765894926862" lon="11.086170806145699"><ele>247.0</ele><time>2026-03-22T11:28:11.925Z</time></trkpt><trkpt lat="43.6376468993729" lon="11.085909723397405"><ele>248.66666666666666</ele><time>2026-03-22T11:28:12.926Z</time></trkpt><trkpt lat="43.63763064624947" lon="11.08564999173281"><ele>250.33333333333331</ele><time>2026-03-22T11:28:13.926Z</time></trkpt><trkpt lat="43.63761305635068" lon="11.085398754992006"><ele>252.0</ele><time>2026-03-22T11:28:14.926Z</time></trkpt><trkpt lat="43.6376083416314" lon="11.085130309940883"><ele>253.66666666666669</ele><time>2026-03-22T11:28:15.925Z</time></trkpt><trkpt lat="43.63760495848807" lon="11.084872268089626"><ele>255.33333333333334</ele><time>2026-03-22T11:28:16.925Z</time></trkpt><trkpt lat="43.63763394919898" lon="11.084617400294379"><ele>257.0</ele><time>2026-03-22T11:28:17.926Z</time></trkpt><trkpt lat="43.63769994266525" lon="11.08436418815476"><ele>257.0</ele><time>2026-03-22T11:28:18.925Z</time></trkpt><trkpt lat="43.63778847797959" lon="11.084125767791011"><ele>257.0</ele><time>2026-03-22T11:28:19.925Z</time></trkpt><trkpt lat="43.63789154981948" lon="11.08390816280341"><ele>257.0</ele><time>2026-03-22T11:28:20.925Z</time></trkpt><trkpt lat="43.6379788157143" lon="11.083691622685636"><ele>257.0</ele><time>2026-03-22T11:28:21.925Z</time></trkpt><trkpt lat="43.63807686510093" lon="11.083519876084306"><ele>257.0</ele><time>2026-03-22T11:28:22.925Z</time></trkpt><trkpt lat="43.63816225261648" lon="11.083348335810744"><ele>257.0</ele><time>2026-03-22T11:28:23.925Z</time></trkpt><trkpt lat="43.638244425990216" lon="11.083168998255294"><ele>257.25</ele><time>2026-03-22T11:28:24.925Z</time></trkpt><trkpt lat="43.638321448351" lon="11.0829984822792"><ele>257.5</ele><time>2026-03-22T11:28:25.925Z</time></trkpt><trkpt lat="43.638388909444" lon="11.08281743050901"><ele>257.75</ele><time>2026-03-22T11:28:26.925Z</time></trkpt><trkpt lat="43.6384438297445" lon="11.082624295185697"><ele>258.0</ele><time>2026-03-22T11:28:27.925Z</time></trkpt><trkpt lat="43.63847240370419" lon="11.08241762679793"><ele>258.0</ele><time>2026-03-22T11:28:28.925Z</time></trkpt><trkpt lat="43.638487938926744" lon="11.082207284922367"><ele>258.0</ele><time>2026-03-22T11:28:29.925Z</time></trkpt><trkpt lat="43.6384961434292" lon="11.08200664572645"><ele>258.0</ele><time>2026-03-22T11:28:30.925Z</time></trkpt><trkpt lat="43.63851848907081" lon="11.081801885545977"><ele>258.0</ele><time>2026-03-22T11:28:31.925Z</time></trkpt><trkpt lat="43.63854827043122" lon="11.081606682884972"><ele>256.25</ele><time>2026-03-22T11:28:32.925Z</time></trkpt><trkpt lat="43.638579710754414" lon="11.081423694435733"><ele>254.5</ele><time>2026-03-22T11:28:33.925Z</time></trkpt><trkpt lat="43.638610312920065" lon="11.081252972602433"><ele>252.75</ele><time>2026-03-22T11:28:34.925Z</time></trkpt><trkpt lat="43.638641829313805" lon="11.081101393695844"><ele>251.0</ele><time>2026-03-22T11:28:35.925Z</time></trkpt><trkpt lat="43.63867404927103" lon="11.080969363851768"><ele>249.8</ele><time>2026-03-22T11:28:36.925Z</time></trkpt><trkpt lat="43.6387304234285" lon="11.0808720827498"><ele>248.60000000000002</ele><time>2026-03-22T11:28:37.925Z</time></trkpt><trkpt lat="43.63882005104892" lon="11.080821592667368"><ele>247.4</ele><time>2026-03-22T11:28:38.925Z</time></trkpt><trkpt lat="43.638920475636446" lon="11.080787478724776"><ele>246.2</ele><time>2026-03-22T11:28:39.925Z</time></trkpt><trkpt lat="43.63903234654402" lon="11.080770724332263"><ele>245.0</ele><time>2026-03-22T11:28:40.925Z</time></trkpt><trkpt lat="43.639167076090075" lon="11.080744378704534"><ele>243.25</ele><time>2026-03-22T11:28:41.925Z</time></trkpt><trkpt lat="43.63930109289566" lon="11.080695363665447"><ele>241.5</ele><time>2026-03-22T11:28:42.925Z</time></trkpt><trkpt lat="43.63941888437894" lon="11.080663529557716"><ele>239.75</ele><time>2026-03-22T11:28:43.925Z</time></trkpt><trkpt lat="43.639520362299585" lon="11.080608100222221"><ele>238.0</ele><time>2026-03-22T11:28:44.925Z</time></trkpt><trkpt lat="43.63961410005292" lon="11.080512657232504"><ele>237.8</ele><time>2026-03-22T11:28:45.925Z</time></trkpt><trkpt lat="43.63970991830656" lon="11.080408117246634"><ele>237.60000000000002</ele><time>2026-03-22T11:28:46.925Z</time></trkpt><trkpt lat="43.639792583000165" lon="11.08031961820185"><ele>237.39999999999998</ele><time>2026-03-22T11:28:47.925Z</time></trkpt><trkpt lat="43.63985328657722" lon="11.080243277488064"><ele>237.2</ele><time>2026-03-22T11:28:48.925Z</time></trkpt><trkpt lat="43.639900455540804" lon="11.080167639646527"><ele>237.0</ele><time>2026-03-22T11:28:49.925Z</time></trkpt><trkpt lat="43.64003755925934" lon="11.080233196565429"><ele>237.0</ele><time>2026-03-22T11:28:50.924Z</time></trkpt><trkpt lat="43.64014869514278" lon="11.080205640401777"><ele>237.0</ele><time>2026-03-22T11:28:51.924Z</time></trkpt><trkpt lat="43.64027034195507" lon="11.080178147721517"><ele>237.0</ele><time>2026-03-22T11:28:52.924Z</time></trkpt><trkpt lat="43.64037767620664" lon="11.080142123239034"><ele>237.0</ele><time>2026-03-22T11:28:53.924Z</time></trkpt><trkpt lat="43.640489669916654" lon="11.080069174255412"><ele>238.0</ele><time>2026-03-22T11:28:54.924Z</time></trkpt><trkpt lat="43.64060691683811" lon="11.079964999232539"><ele>239.0</ele><time>2026-03-22T11:28:55.924Z</time></trkpt><trkpt lat="43.64074187190128" lon="11.079860896902835"><ele>240.0</ele><time>2026-03-22T11:28:56.924Z</time></trkpt><trkpt lat="43.64088656171882" lon="11.07974491093631"><ele>240.0</ele><time>2026-03-22T11:28:57.924Z</time></trkpt><trkpt lat="43.64103487997576" lon="11.07962645638485"><ele>240.0</ele><time>2026-03-22T11:28:58.924Z</time></trkpt><trkpt lat="43.641164506656274" lon="11.079513529270544"><ele>240.0</ele><time>2026-03-22T11:28:59.924Z</time></trkpt><trkpt lat="43.641296120476696" lon="11.079399086380942"><ele>239.0</ele><time>2026-03-22T11:29:00.924Z</time></trkpt><trkpt lat="43.64142410509261" lon="11.079288211853424"><ele>238.0</ele><time>2026-03-22T11:29:01.924Z</time></trkpt><trkpt lat="43.64155661217239" lon="11.079166511639107"><ele>237.0</ele><time>2026-03-22T11:29:02.924Z</time></trkpt><trkpt lat="43.64167838101615" lon="11.079066028472043"><ele>239.0</ele><time>2026-03-22T11:29:03.924Z</time></trkpt><trkpt lat="43.641801814252204" lon="11.078966322026453"><ele>241.0</ele><time>2026-03-22T11:29:04.924Z</time></trkpt><trkpt lat="43.641921638271285" lon="11.078864914957403"><ele>243.0</ele><time>2026-03-22T11:29:05.924Z</time></trkpt><trkpt lat="43.642048575076295" lon="11.078762909785622"><ele>245.0</ele><time>2026-03-22T11:29:06.924Z</time></trkpt><trkpt lat="43.64217692006483" lon="11.078656999688421"><ele>245.0</ele><time>2026-03-22T11:29:07.924Z</time></trkpt><trkpt lat="43.64230737080257" lon="11.078564105330269"><ele>245.0</ele><time>2026-03-22T11:29:08.924Z</time></trkpt><trkpt lat="43.64243704476811" lon="11.078507493279634"><ele>245.0</ele><time>2026-03-22T11:29:09.924Z</time></trkpt><trkpt lat="43.642574024933616" lon="11.07847992000865"><ele>245.0</ele><time>2026-03-22T11:29:10.924Z</time></trkpt><trkpt lat="43.64272267910602" lon="11.078505523998746"><ele>245.75</ele><time>2026-03-22T11:29:11.924Z</time></trkpt><trkpt lat="43.642847559264155" lon="11.078590298886075"><ele>246.5</ele><time>2026-03-22T11:29:12.924Z</time></trkpt><trkpt lat="43.6429947800352" lon="11.078642545833626"><ele>247.25</ele><time>2026-03-22T11:29:13.924Z</time></trkpt><trkpt lat="43.64313549212049" lon="11.07871573180552"><ele>248.0</ele><time>2026-03-22T11:29:14.924Z</time></trkpt><trkpt lat="43.64327477594817" lon="11.078788048024114"><ele>248.0</ele><time>2026-03-22T11:29:15.924Z</time></trkpt><trkpt lat="43.64342394565734" lon="11.078860290221044"><ele>248.0</ele><time>2026-03-22T11:29:16.924Z</time></trkpt><trkpt lat="43.643575901374966" lon="11.078941877506379"><ele>248.0</ele><time>2026-03-22T11:29:17.924Z</time></trkpt><trkpt lat="43.64373858579398" lon="11.079027387831147"><ele>244.66666666666669</ele><time>2026-03-22T11:29:18.924Z</time></trkpt><trkpt lat="43.64390668009582" lon="11.079104665182214"><ele>241.33333333333331</ele><time>2026-03-22T11:29:19.924Z</time></trkpt><trkpt lat="43.6440774040396" lon="11.079185494563681"><ele>238.0</ele><time>2026-03-22T11:29:20.924Z</time></trkpt><trkpt lat="43.64425218791056" lon="11.079262441836324"><ele>238.0</ele><time>2026-03-22T11:29:21.924Z</time></trkpt><trkpt lat="43.64442938245505" lon="11.079346174590059"><ele>238.0</ele><time>2026-03-22T11:29:22.924Z</time></trkpt><trkpt lat="43.64457068616646" lon="11.079437707797053"><ele>238.0</ele><time>2026-03-22T11:29:23.923Z</time></trkpt><trkpt lat="43.644689505978015" lon="11.079484662267182"><ele>238.33333333333331</ele><time>2026-03-22T11:29:24.923Z</time></trkpt><trkpt lat="43.64476337066056" lon="11.079535818549962"><ele>238.66666666666666</ele><time>2026-03-22T11:29:25.923Z</time></trkpt><trkpt lat="43.64482793025564" lon="11.07956770725737"><ele>239.0</ele><time>2026-03-22T11:29:26.923Z</time></trkpt><trkpt lat="43.64489923840187" lon="11.079605544509267"><ele>239.33333333333331</ele><time>2026-03-22T11:29:28.923Z</time></trkpt><trkpt lat="43.64496011933251" lon="11.079637809084872"><ele>239.66666666666666</ele><time>2026-03-22T11:29:31.923Z</time></trkpt><trkpt lat="43.64504503840933" lon="11.07963059278946"><ele>240.0</ele><time>2026-03-22T11:29:33.923Z</time></trkpt><trkpt lat="43.64509052150526" lon="11.079770502242315"><ele>240.0</ele><time>2026-03-22T11:29:34.923Z</time></trkpt><trkpt lat="43.64513586950372" lon="11.079840953390418"><ele>240.0</ele><time>2026-03-22T11:29:35.923Z</time></trkpt><trkpt lat="43.64520161516411" lon="11.079900365897668"><ele>240.0</ele><time>2026-03-22T11:29:36.923Z</time></trkpt><trkpt lat="43.645256543438364" lon="11.079980508019576"><ele>240.0</ele><time>2026-03-22T11:29:37.923Z</time></trkpt><trkpt lat="43.6453191862259" lon="11.080071998838436"><ele>240.0</ele><time>2026-03-22T11:29:38.923Z</time></trkpt><trkpt lat="43.64538552531915" lon="11.080176466710588"><ele>240.0</ele><time>2026-03-22T11:29:39.923Z</time></trkpt><trkpt lat="43.64544464170751" lon="11.080278886794844"><ele>237.5</ele><time>2026-03-22T11:29:40.923Z</time></trkpt><trkpt lat="43.64552046622638" lon="11.08039091199605"><ele>235.0</ele><time>2026-03-22T11:29:41.923Z</time></trkpt><trkpt lat="43.64560298701978" lon="11.080505536976109"><ele>232.5</ele><time>2026-03-22T11:29:42.923Z</time></trkpt><trkpt lat="43.64568857069852" lon="11.080625662718523"><ele>230.0</ele><time>2026-03-22T11:29:43.923Z</time></trkpt><trkpt lat="43.64578975558447" lon="11.080724715657029"><ele>231.8</ele><time>2026-03-22T11:29:44.923Z</time></trkpt><trkpt lat="43.64588770292099" lon="11.08080397305793"><ele>233.6</ele><time>2026-03-22T11:29:45.923Z</time></trkpt><trkpt lat="43.645962304613306" lon="11.080901231479682"><ele>235.39999999999998</ele><time>2026-03-22T11:29:46.923Z</time></trkpt><trkpt lat="43.646033096850104" lon="11.080978714649122"><ele>237.2</ele><time>2026-03-22T11:29:47.923Z</time></trkpt><trkpt lat="43.646097482977694" lon="11.081033604655515"><ele>239.0</ele><time>2026-03-22T11:29:48.923Z</time></trkpt><trkpt lat="43.64614591603583" lon="11.081106568215851"><ele>235.66666666666669</ele><time>2026-03-22T11:29:49.923Z</time></trkpt><trkpt lat="43.646201861325665" lon="11.081152869248752"><ele>232.33333333333334</ele><time>2026-03-22T11:29:50.923Z</time></trkpt><trkpt lat="43.64626438790997" lon="11.081204617074047"><ele>229.0</ele><time>2026-03-22T11:29:51.923Z</time></trkpt><trkpt lat="43.64633607922585" lon="11.081265678648544"><ele>225.66666666666669</ele><time>2026-03-22T11:29:52.923Z</time></trkpt><trkpt lat="43.64642050281621" lon="11.081339960140093"><ele>222.33333333333334</ele><time>2026-03-22T11:29:53.923Z</time></trkpt><trkpt lat="43.646501098687445" lon="11.081413031418759"><ele>219.0</ele><time>2026-03-22T11:29:54.923Z</time></trkpt><trkpt lat="43.6465610070271" lon="11.081474646811465"><ele>219.0</ele><time>2026-03-22T11:29:55.923Z</time></trkpt><trkpt lat="43.646619214628004" lon="11.081549669399903"><ele>219.0</ele><time>2026-03-22T11:29:56.922Z</time></trkpt><trkpt lat="43.646662060640885" lon="11.081632595417942"><ele>219.0</ele><time>2026-03-22T11:29:57.922Z</time></trkpt><trkpt lat="43.64670705701207" lon="11.081740454615536"><ele>219.0</ele><time>2026-03-22T11:29:58.922Z</time></trkpt><trkpt lat="43.646756844158965" lon="11.081838628661849"><ele>219.0</ele><time>2026-03-22T11:29:59.922Z</time></trkpt><trkpt lat="43.646746899529354" lon="11.081978041543676"><ele>219.0</ele><time>2026-03-22T11:30:00.922Z</time></trkpt><trkpt lat="43.6467377896985" lon="11.082102623630226"><ele>219.5</ele><time>2026-03-22T11:30:01.922Z</time></trkpt><trkpt lat="43.64671591469918" lon="11.082222775008795"><ele>220.0</ele><time>2026-03-22T11:30:02.922Z</time></trkpt><trkpt lat="43.646690407358726" lon="11.082324075079022"><ele>220.5</ele><time>2026-03-22T11:30:03.922Z</time></trkpt><trkpt lat="43.646656879852024" lon="11.082413770615819"><ele>221.0</ele><time>2026-03-22T11:30:04.922Z</time></trkpt><trkpt lat="43.64662349996813" lon="11.082521051707731"><ele>221.5</ele><time>2026-03-22T11:30:05.922Z</time></trkpt><trkpt lat="43.64660523587622" lon="11.0826376402356"><ele>222.0</ele><time>2026-03-22T11:30:06.922Z</time></trkpt><trkpt lat="43.6466108012595" lon="11.0827532924689"><ele>222.0</ele><time>2026-03-22T11:30:07.922Z</time></trkpt><trkpt lat="43.646641667868685" lon="11.082861481805743"><ele>222.0</ele><time>2026-03-22T11:30:08.922Z</time></trkpt><trkpt lat="43.64669842355222" lon="11.082933710587602"><ele>222.0</ele><time>2026-03-22T11:30:09.922Z</time></trkpt><trkpt lat="43.64677569671319" lon="11.082994803958574"><ele>222.0</ele><time>2026-03-22T11:30:10.922Z</time></trkpt><trkpt lat="43.646846341364686" lon="11.08304072273951"><ele>222.0</ele><time>2026-03-22T11:30:11.922Z</time></trkpt><trkpt lat="43.64692050903127" lon="11.08305546043617"><ele>222.0</ele><time>2026-03-22T11:30:12.922Z</time></trkpt><trkpt lat="43.64700546181173" lon="11.083049439617525"><ele>220.16666666666666</ele><time>2026-03-22T11:30:13.922Z</time></trkpt><trkpt lat="43.64708854106544" lon="11.083031523830906"><ele>218.33333333333331</ele><time>2026-03-22T11:30:14.922Z</time></trkpt><trkpt lat="43.647168866277184" lon="11.083006091466912"><ele>216.5</ele><time>2026-03-22T11:30:15.922Z</time></trkpt><trkpt lat="43.64725223778653" lon="11.083008430632486"><ele>214.66666666666666</ele><time>2026-03-22T11:30:16.922Z</time></trkpt><trkpt lat="43.6473178338419" lon="11.083008064787771"><ele>212.83333333333331</ele><time>2026-03-22T11:30:17.924Z</time></trkpt><trkpt lat="43.6473848438863" lon="11.083035096271383"><ele>211.0</ele><time>2026-03-22T11:30:18.924Z</time></trkpt><trkpt lat="43.647447805203235" lon="11.083083221342644"><ele>211.0</ele><time>2026-03-22T11:30:19.924Z</time></trkpt><trkpt lat="43.64751788443406" lon="11.083137403951401"><ele>211.0</ele><time>2026-03-22T11:30:20.924Z</time></trkpt><trkpt lat="43.647589148472335" lon="11.08320615897822"><ele>211.0</ele><time>2026-03-22T11:30:21.924Z</time></trkpt><trkpt lat="43.64766763008277" lon="11.083304950644342"><ele>211.0</ele><time>2026-03-22T11:30:22.924Z</time></trkpt><trkpt lat="43.647747944945905" lon="11.083431992375322"><ele>211.0</ele><time>2026-03-22T11:30:23.924Z</time></trkpt><trkpt lat="43.64783291563107" lon="11.083602332158556"><ele>208.33333333333331</ele><time>2026-03-22T11:30:24.924Z</time></trkpt><trkpt lat="43.6479216503468" lon="11.083812977243175"><ele>205.66666666666669</ele><time>2026-03-22T11:30:25.924Z</time></trkpt><trkpt lat="43.64800308387178" lon="11.084069809089987"><ele>203.0</ele><time>2026-03-22T11:30:26.925Z</time></trkpt><trkpt lat="43.6480783480047" lon="11.084326755605229"><ele>203.0</ele><time>2026-03-22T11:30:27.927Z</time></trkpt><trkpt lat="43.64815832218528" lon="11.08458625805959"><ele>203.0</ele><time>2026-03-22T11:30:28.928Z</time></trkpt><trkpt lat="43.64823637631235" lon="11.084851026758322"><ele>203.0</ele><time>2026-03-22T11:30:29.93Z</time></trkpt><trkpt lat="43.648315461461706" lon="11.085093896713678"><ele>203.0</ele><time>2026-03-22T11:30:30.931Z</time></trkpt><trkpt lat="43.648391066318396" lon="11.085318718606365"><ele>203.0</ele><time>2026-03-22T11:30:31.932Z</time></trkpt><trkpt lat="43.648471151015166" lon="11.085517384781298"><ele>203.0</ele><time>2026-03-22T11:30:32.933Z</time></trkpt><trkpt lat="43.64856586614582" lon="11.085669211665355"><ele>200.75</ele><time>2026-03-22T11:30:33.934Z</time></trkpt><trkpt lat="43.64867384035892" lon="11.085796108613522"><ele>198.5</ele><time>2026-03-22T11:30:34.935Z</time></trkpt><trkpt lat="43.648802759509266" lon="11.085855848991855"><ele>196.25</ele><time>2026-03-22T11:30:35.936Z</time></trkpt><trkpt lat="43.64894111616808" lon="11.085875342219003"><ele>194.0</ele><time>2026-03-22T11:30:36.937Z</time></trkpt><trkpt lat="43.649062593003016" lon="11.085856835692455"><ele>194.0</ele><time>2026-03-22T11:30:37.938Z</time></trkpt><trkpt lat="43.64916632800631" lon="11.085797357706719"><ele>194.0</ele><time>2026-03-22T11:30:38.938Z</time></trkpt><trkpt lat="43.649242385003426" lon="11.085704419794688"><ele>194.0</ele><time>2026-03-22T11:30:39.939Z</time></trkpt><trkpt lat="43.64930374497422" lon="11.08558313500565"><ele>194.0</ele><time>2026-03-22T11:30:40.939Z</time></trkpt><trkpt lat="43.6493412936727" lon="11.085447270624055"><ele>194.0</ele><time>2026-03-22T11:30:41.94Z</time></trkpt><trkpt lat="43.649375615334954" lon="11.085289655440233"><ele>193.0</ele><time>2026-03-22T11:30:42.941Z</time></trkpt><trkpt lat="43.64943136085391" lon="11.085118214384098"><ele>192.0</ele><time>2026-03-22T11:30:43.941Z</time></trkpt><trkpt lat="43.64950300138911" lon="11.084982027814958"><ele>191.0</ele><time>2026-03-22T11:30:44.942Z</time></trkpt><trkpt lat="43.64961705062751" lon="11.084885091047793"><ele>190.0</ele><time>2026-03-22T11:30:45.942Z</time></trkpt><trkpt lat="43.649776527991804" lon="11.084821165893397"><ele>189.66666666666669</ele><time>2026-03-22T11:30:46.942Z</time></trkpt><trkpt lat="43.64994092499758" lon="11.084772630565636"><ele>189.33333333333334</ele><time>2026-03-22T11:30:47.943Z</time></trkpt><trkpt lat="43.65012717142891" lon="11.084738560221652"><ele>189.0</ele><time>2026-03-22T11:30:48.943Z</time></trkpt><trkpt lat="43.650324098295236" lon="11.084736107126163"><ele>186.33333333333334</ele><time>2026-03-22T11:30:49.943Z</time></trkpt><trkpt lat="43.65051905989763" lon="11.084744589692903"><ele>183.66666666666669</ele><time>2026-03-22T11:30:50.944Z</time></trkpt><trkpt lat="43.65070181260389" lon="11.084758615932936"><ele>181.0</ele><time>2026-03-22T11:30:51.944Z</time></trkpt><trkpt lat="43.65087639037207" lon="11.084755698135826"><ele>181.0</ele><time>2026-03-22T11:30:52.944Z</time></trkpt><trkpt lat="43.65103497798345" lon="11.084774178413767"><ele>181.0</ele><time>2026-03-22T11:30:53.945Z</time></trkpt><trkpt lat="43.65116894704458" lon="11.08481577568914"><ele>181.0</ele><time>2026-03-22T11:30:54.945Z</time></trkpt><trkpt lat="43.65127261446965" lon="11.084889613603945"><ele>181.0</ele><time>2026-03-22T11:30:55.945Z</time></trkpt><trkpt lat="43.65134060317913" lon="11.084979193926928"><ele>179.0</ele><time>2026-03-22T11:30:56.945Z</time></trkpt><trkpt lat="43.65136260523379" lon="11.085104007548354"><ele>177.0</ele><time>2026-03-22T11:30:57.945Z</time></trkpt><trkpt lat="43.65132144087173" lon="11.085239884815012"><ele>175.0</ele><time>2026-03-22T11:30:58.946Z</time></trkpt><trkpt lat="43.651294761570924" lon="11.085386380571503"><ele>173.0</ele><time>2026-03-22T11:30:59.946Z</time></trkpt><trkpt lat="43.65129149181533" lon="11.08552427804826"><ele>171.0</ele><time>2026-03-22T11:31:00.946Z</time></trkpt><trkpt lat="43.65130530678457" lon="11.085657172560488"><ele>171.0</ele><time>2026-03-22T11:31:01.946Z</time></trkpt><trkpt lat="43.65136709412442" lon="11.085755062660942"><ele>171.0</ele><time>2026-03-22T11:31:02.946Z</time></trkpt><trkpt lat="43.65145947666612" lon="11.08578452089178"><ele>171.0</ele><time>2026-03-22T11:31:03.946Z</time></trkpt><trkpt lat="43.65155382202445" lon="11.085734988140784"><ele>171.0</ele><time>2026-03-22T11:31:04.946Z</time></trkpt><trkpt lat="43.651622612077595" lon="11.085639982027287"><ele>171.0</ele><time>2026-03-22T11:31:05.946Z</time></trkpt><trkpt lat="43.65168699889598" lon="11.085535673850558"><ele>171.0</ele><time>2026-03-22T11:31:06.947Z</time></trkpt><trkpt lat="43.651762411832294" lon="11.085419297901142"><ele>171.0</ele><time>2026-03-22T11:31:07.947Z</time></trkpt><trkpt lat="43.651857653550515" lon="11.085287203153259"><ele>171.0</ele><time>2026-03-22T11:31:08.947Z</time></trkpt><trkpt lat="43.65196518719664" lon="11.085148712346522"><ele>171.0</ele><time>2026-03-22T11:31:09.947Z</time></trkpt><trkpt lat="43.652094215763974" lon="11.085027446336571"><ele>167.66666666666666</ele><time>2026-03-22T11:31:10.947Z</time></trkpt><trkpt lat="43.65224056367456" lon="11.084933659647886"><ele>164.33333333333331</ele><time>2026-03-22T11:31:11.947Z</time></trkpt><trkpt lat="43.652386760633505" lon="11.084863365816753"><ele>161.0</ele><time>2026-03-22T11:31:12.947Z</time></trkpt><trkpt lat="43.65252823158987" lon="11.084808653685494"><ele>160.25</ele><time>2026-03-22T11:31:13.947Z</time></trkpt><trkpt lat="43.65266181605646" lon="11.084752105206414"><ele>159.5</ele><time>2026-03-22T11:31:14.947Z</time></trkpt><trkpt lat="43.652791597042786" lon="11.084681777048127"><ele>158.75</ele><time>2026-03-22T11:31:15.947Z</time></trkpt><trkpt lat="43.65291999638132" lon="11.084624344823732"><ele>158.0</ele><time>2026-03-22T11:31:16.947Z</time></trkpt><trkpt lat="43.65304363205699" lon="11.08459782018456"><ele>157.20000000000002</ele><time>2026-03-22T11:31:17.947Z</time></trkpt><trkpt lat="43.653161972403396" lon="11.084610010723207"><ele>156.4</ele><time>2026-03-22T11:31:18.947Z</time></trkpt><trkpt lat="43.653259110970346" lon="11.084684857673237"><ele>155.60000000000002</ele><time>2026-03-22T11:31:19.947Z</time></trkpt><trkpt lat="43.6533392210282" lon="11.08478724637667"><ele>154.8</ele><time>2026-03-22T11:31:20.947Z</time></trkpt><trkpt lat="43.65337550817518" lon="11.084928828691814"><ele>154.0</ele><time>2026-03-22T11:31:21.947Z</time></trkpt><trkpt lat="43.65339784663998" lon="11.085074232506352"><ele>154.0</ele><time>2026-03-22T11:31:22.947Z</time></trkpt><trkpt lat="43.65339531038389" lon="11.085239700516302"><ele>154.0</ele><time>2026-03-22T11:31:23.947Z</time></trkpt><trkpt lat="43.653348013687385" lon="11.085399725338636"><ele>154.0</ele><time>2026-03-22T11:31:24.947Z</time></trkpt><trkpt lat="43.653263240867936" lon="11.085485616151425"><ele>154.0</ele><time>2026-03-22T11:31:25.947Z</time></trkpt><trkpt lat="43.65316058818699" lon="11.085541908130809"><ele>154.0</ele><time>2026-03-22T11:31:26.947Z</time></trkpt><trkpt lat="43.65304826878483" lon="11.085640489199534"><ele>154.0</ele><time>2026-03-22T11:31:27.947Z</time></trkpt><trkpt lat="43.6529046804495" lon="11.08572053015334"><ele>154.0</ele><time>2026-03-22T11:31:28.947Z</time></trkpt><trkpt lat="43.65277381743188" lon="11.085811905549091"><ele>154.0</ele><time>2026-03-22T11:31:29.947Z</time></trkpt><trkpt lat="43.65265594229022" lon="11.085904654354076"><ele>154.75</ele><time>2026-03-22T11:31:30.947Z</time></trkpt><trkpt lat="43.6525718461064" lon="11.086017007657263"><ele>155.5</ele><time>2026-03-22T11:31:31.947Z</time></trkpt><trkpt lat="43.65251415057024" lon="11.086167941091803"><ele>156.25</ele><time>2026-03-22T11:31:32.947Z</time></trkpt><trkpt lat="43.65248916837341" lon="11.08635491689076"><ele>157.0</ele><time>2026-03-22T11:31:33.947Z</time></trkpt><trkpt lat="43.652477551200626" lon="11.08653422144557"><ele>154.75</ele><time>2026-03-22T11:31:34.947Z</time></trkpt><trkpt lat="43.65245582214789" lon="11.086746036985307"><ele>152.5</ele><time>2026-03-22T11:31:35.947Z</time></trkpt><trkpt lat="43.65242862841567" lon="11.086931169069464"><ele>150.25</ele><time>2026-03-22T11:31:36.947Z</time></trkpt><trkpt lat="43.65236840609217" lon="11.087064096230215"><ele>148.0</ele><time>2026-03-22T11:31:37.947Z</time></trkpt><trkpt lat="43.65229124174564" lon="11.087196271132434"><ele>148.0</ele><time>2026-03-22T11:31:38.947Z</time></trkpt><trkpt lat="43.6521584101726" lon="11.087238667597227"><ele>148.0</ele><time>2026-03-22T11:31:39.947Z</time></trkpt><trkpt lat="43.652031942179796" lon="11.087308673540283"><ele>148.0</ele><time>2026-03-22T11:31:40.947Z</time></trkpt><trkpt lat="43.65192972448715" lon="11.087399399097198"><ele>148.0</ele><time>2026-03-22T11:31:41.947Z</time></trkpt><trkpt lat="43.651847754840766" lon="11.087507442433642"><ele>148.0</ele><time>2026-03-22T11:31:42.947Z</time></trkpt><trkpt lat="43.65177774243018" lon="11.08763457890578"><ele>148.0</ele><time>2026-03-22T11:31:43.947Z</time></trkpt><trkpt lat="43.651717218935254" lon="11.087753404887293"><ele>148.0</ele><time>2026-03-22T11:31:44.947Z</time></trkpt><trkpt lat="43.65163612876113" lon="11.087869793720687"><ele>148.0</ele><time>2026-03-22T11:31:45.947Z</time></trkpt><trkpt lat="43.651524722688805" lon="11.087950882421477"><ele>148.0</ele><time>2026-03-22T11:31:46.947Z</time></trkpt><trkpt lat="43.65144863751916" lon="11.088095540573315"><ele>148.0</ele><time>2026-03-22T11:31:47.947Z</time></trkpt><trkpt lat="43.65137753773048" lon="11.088250264641665"><ele>148.0</ele><time>2026-03-22T11:31:48.947Z</time></trkpt><trkpt lat="43.65132124784544" lon="11.088428198682093"><ele>148.0</ele><time>2026-03-22T11:31:49.947Z</time></trkpt><trkpt lat="43.651240404166586" lon="11.088563778850538"><ele>147.25</ele><time>2026-03-22T11:31:50.947Z</time></trkpt><trkpt lat="43.65117055604166" lon="11.088692312680726"><ele>146.5</ele><time>2026-03-22T11:31:51.947Z</time></trkpt><trkpt lat="43.65108556732496" lon="11.088821319409126"><ele>145.75</ele><time>2026-03-22T11:31:52.947Z</time></trkpt><trkpt lat="43.65096342715308" lon="11.088905615973394"><ele>145.0</ele><time>2026-03-22T11:31:53.947Z</time></trkpt><trkpt lat="43.650829058711174" lon="11.08899120713606"><ele>145.0</ele><time>2026-03-22T11:31:54.947Z</time></trkpt><trkpt lat="43.65072505189657" lon="11.089088867727696"><ele>145.0</ele><time>2026-03-22T11:31:55.947Z</time></trkpt><trkpt lat="43.650632385268295" lon="11.089209143938566"><ele>145.0</ele><time>2026-03-22T11:31:56.947Z</time></trkpt><trkpt lat="43.650563324760654" lon="11.089381480316433"><ele>145.0</ele><time>2026-03-22T11:31:57.947Z</time></trkpt><trkpt lat="43.650495338337464" lon="11.089571487540644"><ele>140.0</ele><time>2026-03-22T11:31:58.947Z</time></trkpt><trkpt lat="43.65039382179604" lon="11.089753964527002"><ele>135.0</ele><time>2026-03-22T11:31:59.947Z</time></trkpt><trkpt lat="43.65028629071744" lon="11.089927403078148"><ele>130.0</ele><time>2026-03-22T11:32:00.947Z</time></trkpt><trkpt lat="43.65017231240842" lon="11.090065220229013"><ele>130.0</ele><time>2026-03-22T11:32:01.947Z</time></trkpt><trkpt lat="43.650049160623695" lon="11.09019433298136"><ele>130.0</ele><time>2026-03-22T11:32:02.947Z</time></trkpt><trkpt lat="43.64992046891222" lon="11.090328248291762"><ele>130.0</ele><time>2026-03-22T11:32:03.947Z</time></trkpt><trkpt lat="43.649792189454146" lon="11.090449092521602"><ele>130.0</ele><time>2026-03-22T11:32:04.947Z</time></trkpt><trkpt lat="43.64966423512103" lon="11.090558295097601"><ele>130.0</ele><time>2026-03-22T11:32:05.947Z</time></trkpt><trkpt lat="43.649567119251174" lon="11.090695190700018"><ele>130.0</ele><time>2026-03-22T11:32:06.947Z</time></trkpt><trkpt lat="43.64948483003716" lon="11.090826160521758"><ele>130.0</ele><time>2026-03-22T11:32:07.947Z</time></trkpt><trkpt lat="43.64940591348519" lon="11.090958563020825"><ele>129.25</ele><time>2026-03-22T11:32:08.947Z</time></trkpt><trkpt lat="43.649350796100144" lon="11.0911055596875"><ele>128.5</ele><time>2026-03-22T11:32:09.947Z</time></trkpt><trkpt lat="43.649289982636354" lon="11.091239659387632"><ele>127.75</ele><time>2026-03-22T11:32:10.947Z</time></trkpt><trkpt lat="43.64923613212238" lon="11.09137477017487"><ele>127.0</ele><time>2026-03-22T11:32:11.947Z</time></trkpt><trkpt lat="43.649184973935036" lon="11.091512816356039"><ele>125.50000000000001</ele><time>2026-03-22T11:32:12.947Z</time></trkpt><trkpt lat="43.64914711995926" lon="11.091649919951802"><ele>124.0</ele><time>2026-03-22T11:32:13.947Z</time></trkpt><trkpt lat="43.64912896923231" lon="11.091775927037498"><ele>122.5</ele><time>2026-03-22T11:32:14.947Z</time></trkpt><trkpt lat="43.6491348375777" lon="11.091888753489652"><ele>121.0</ele><time>2026-03-22T11:32:15.947Z</time></trkpt><trkpt lat="43.649170708445546" lon="11.09197999909072"><ele>119.50000000000001</ele><time>2026-03-22T11:32:16.947Z</time></trkpt><trkpt lat="43.64922080477114" lon="11.092068746325518"><ele>118.0</ele><time>2026-03-22T11:32:17.947Z</time></trkpt><trkpt lat="43.64928262200426" lon="11.092137607667018"><ele>118.0</ele><time>2026-03-22T11:32:18.946Z</time></trkpt><trkpt lat="43.64933696755442" lon="11.092223923443747"><ele>118.00000000000001</ele><time>2026-03-22T11:32:19.946Z</time></trkpt><trkpt lat="43.649386784832686" lon="11.092315742723294"><ele>118.00000000000001</ele><time>2026-03-22T11:32:20.946Z</time></trkpt><trkpt lat="43.649437342001825" lon="11.092410510763782"><ele>118.0</ele><time>2026-03-22T11:32:21.946Z</time></trkpt><trkpt lat="43.64949280838232" lon="11.092520250017726"><ele>118.0</ele><time>2026-03-22T11:32:22.946Z</time></trkpt><trkpt lat="43.64955751736365" lon="11.092635234685048"><ele>117.5</ele><time>2026-03-22T11:32:23.948Z</time></trkpt><trkpt lat="43.64962655624534" lon="11.092763837278229"><ele>117.0</ele><time>2026-03-22T11:32:24.948Z</time></trkpt><trkpt lat="43.64971131393864" lon="11.092909840112682"><ele>116.5</ele><time>2026-03-22T11:32:25.948Z</time></trkpt><trkpt lat="43.64980298411311" lon="11.09304619592639"><ele>116.0</ele><time>2026-03-22T11:32:26.948Z</time></trkpt><trkpt lat="43.649890520455195" lon="11.093192834440583"><ele>116.0</ele><time>2026-03-22T11:32:27.948Z</time></trkpt><trkpt lat="43.649964389545865" lon="11.093323476186145"><ele>116.0</ele><time>2026-03-22T11:32:28.948Z</time></trkpt><trkpt lat="43.65002354310934" lon="11.09343278430188"><ele>116.0</ele><time>2026-03-22T11:32:29.948Z</time></trkpt><trkpt lat="43.65006667862602" lon="11.093527640677305"><ele>116.0</ele><time>2026-03-22T11:32:30.949Z</time></trkpt><trkpt lat="43.65010268834337" lon="11.093642735488578"><ele>116.0</ele><time>2026-03-22T11:32:32.949Z</time></trkpt><trkpt lat="43.65013792296784" lon="11.0937226484736"><ele>116.0</ele><time>2026-03-22T11:32:43.947Z</time></trkpt><trkpt lat="43.65020899067964" lon="11.093824926319881"><ele>116.0</ele><time>2026-03-22T11:32:45.947Z</time></trkpt><trkpt lat="43.65026074291335" lon="11.093917677822622"><ele>116.0</ele><time>2026-03-22T11:32:46.947Z</time></trkpt><trkpt lat="43.65033149501883" lon="11.094031532686854"><ele>116.0</ele><time>2026-03-22T11:32:47.947Z</time></trkpt><trkpt lat="43.650416848522816" lon="11.094168345359593"><ele>116.0</ele><time>2026-03-22T11:32:48.947Z</time></trkpt><trkpt lat="43.650509927548725" lon="11.09433219360455"><ele>117.0</ele><time>2026-03-22T11:32:49.947Z</time></trkpt><trkpt lat="43.65058419376316" lon="11.094517293447188"><ele>118.0</ele><time>2026-03-22T11:32:50.947Z</time></trkpt><trkpt lat="43.65061928860303" lon="11.094661808985746"><ele>119.0</ele><time>2026-03-22T11:32:51.947Z</time></trkpt><trkpt lat="43.650629601003516" lon="11.09479999241193"><ele>120.0</ele><time>2026-03-22T11:32:52.947Z</time></trkpt><trkpt lat="43.65060272001246" lon="11.094948591675074"><ele>121.75</ele><time>2026-03-22T11:32:53.947Z</time></trkpt><trkpt lat="43.65058226302182" lon="11.095144611847019"><ele>123.5</ele><time>2026-03-22T11:32:54.947Z</time></trkpt><trkpt lat="43.65059275976454" lon="11.095300297092393"><ele>125.25</ele><time>2026-03-22T11:32:55.947Z</time></trkpt><trkpt lat="43.650646954165936" lon="11.095424529551478"><ele>127.0</ele><time>2026-03-22T11:32:56.947Z</time></trkpt><trkpt lat="43.65071183572333" lon="11.095538104924511"><ele>127.0</ele><time>2026-03-22T11:32:57.947Z</time></trkpt><trkpt lat="43.650778187932865" lon="11.095647169050167"><ele>126.99999999999999</ele><time>2026-03-22T11:32:58.947Z</time></trkpt><trkpt lat="43.65081482341225" lon="11.095781278168094"><ele>126.99999999999999</ele><time>2026-03-22T11:32:59.947Z</time></trkpt><trkpt lat="43.65079355399828" lon="11.095916297941836"><ele>127.0</ele><time>2026-03-22T11:33:00.947Z</time></trkpt><trkpt lat="43.650751040349476" lon="11.095999237861202"><ele>127.0</ele><time>2026-03-22T11:33:01.947Z</time></trkpt><trkpt lat="43.65069237503127" lon="11.096065514607847"><ele>128.6</ele><time>2026-03-22T11:33:02.947Z</time></trkpt><trkpt lat="43.65062041098098" lon="11.0961101185701"><ele>130.2</ele><time>2026-03-22T11:33:03.947Z</time></trkpt><trkpt lat="43.65051785856296" lon="11.096150971982452"><ele>131.8</ele><time>2026-03-22T11:33:04.947Z</time></trkpt><trkpt lat="43.650389911652276" lon="11.096194336122773"><ele>133.4</ele><time>2026-03-22T11:33:05.947Z</time></trkpt><trkpt lat="43.65029768978464" lon="11.096268641604707"><ele>135.0</ele><time>2026-03-22T11:33:06.947Z</time></trkpt><trkpt lat="43.65023203929278" lon="11.096360484868331"><ele>136.2</ele><time>2026-03-22T11:33:07.947Z</time></trkpt><trkpt lat="43.650204534310525" lon="11.096483106857768"><ele>137.4</ele><time>2026-03-22T11:33:08.947Z</time></trkpt><trkpt lat="43.65018804251131" lon="11.09663067177612"><ele>138.6</ele><time>2026-03-22T11:33:09.947Z</time></trkpt><trkpt lat="43.650190056197246" lon="11.096783592689931"><ele>139.8</ele><time>2026-03-22T11:33:10.947Z</time></trkpt><trkpt lat="43.650218314598334" lon="11.096952515727578"><ele>141.0</ele><time>2026-03-22T11:33:11.947Z</time></trkpt><trkpt lat="43.65028794035677" lon="11.097111381634237"><ele>139.75</ele><time>2026-03-22T11:33:12.947Z</time></trkpt><trkpt lat="43.6503695799336" lon="11.097255126717053"><ele>138.5</ele><time>2026-03-22T11:33:13.947Z</time></trkpt><trkpt lat="43.65040124965097" lon="11.097394194397143"><ele>137.25</ele><time>2026-03-22T11:33:14.947Z</time></trkpt><trkpt lat="43.65039792190979" lon="11.097529863508033"><ele>136.0</ele><time>2026-03-22T11:33:15.947Z</time></trkpt><trkpt lat="43.65040193802663" lon="11.097694946023832"><ele>138.0</ele><time>2026-03-22T11:33:16.947Z</time></trkpt><trkpt lat="43.65038114144459" lon="11.09783432618241"><ele>140.0</ele><time>2026-03-22T11:33:17.947Z</time></trkpt><trkpt lat="43.65034030165438" lon="11.097934390970108"><ele>142.0</ele><time>2026-03-22T11:33:18.947Z</time></trkpt><trkpt lat="43.650256148481944" lon="11.097993664069154"><ele>144.0</ele><time>2026-03-22T11:33:19.947Z</time></trkpt><trkpt lat="43.650175823738024" lon="11.098081209908319"><ele>146.0</ele><time>2026-03-22T11:33:20.947Z</time></trkpt><trkpt lat="43.65013631294289" lon="11.098194396472797"><ele>150.6</ele><time>2026-03-22T11:33:21.946Z</time></trkpt><trkpt lat="43.65010159552008" lon="11.098303984007519"><ele>155.2</ele><time>2026-03-22T11:33:22.946Z</time></trkpt><trkpt lat="43.65005242199843" lon="11.09845746480828"><ele>159.79999999999998</ele><time>2026-03-22T11:33:23.946Z</time></trkpt><trkpt lat="43.64998537443458" lon="11.098575166866345"><ele>164.39999999999998</ele><time>2026-03-22T11:33:24.946Z</time></trkpt><trkpt lat="43.64993517354471" lon="11.098645657782475"><ele>169.0</ele><time>2026-03-22T11:33:25.946Z</time></trkpt><trkpt lat="43.649864972195495" lon="11.098668931606328"><ele>169.0</ele><time>2026-03-22T11:33:26.946Z</time></trkpt><trkpt lat="43.64978963881148" lon="11.098661768554543"><ele>169.0</ele><time>2026-03-22T11:33:27.946Z</time></trkpt><trkpt lat="43.64969189464663" lon="11.098711801571563"><ele>169.0</ele><time>2026-03-22T11:33:28.946Z</time></trkpt><trkpt lat="43.649607645173916" lon="11.09874015391329"><ele>169.0</ele><time>2026-03-22T11:33:29.946Z</time></trkpt><trkpt lat="43.64953882191439" lon="11.098776338108365"><ele>169.0</ele><time>2026-03-22T11:33:31.946Z</time></trkpt><trkpt lat="43.64950620767832" lon="11.098673892938605"><ele>169.0</ele><time>2026-03-22T11:34:47.948Z</time></trkpt><trkpt lat="43.64951860369204" lon="11.098557857672075"><ele>169.0</ele><time>2026-03-22T11:34:50.947Z</time></trkpt><trkpt lat="43.64951174901018" lon="11.098456176840612"><ele>169.0</ele><time>2026-03-22T11:34:53.947Z</time></trkpt><trkpt lat="43.64947554170412" lon="11.09837557452822"><ele>169.0</ele><time>2026-03-22T11:34:57.947Z</time></trkpt><trkpt lat="43.64952216060769" lon="11.098306596168536"><ele>169.0</ele><time>2026-03-22T11:35:25.947Z</time></trkpt><trkpt lat="43.649607871405834" lon="11.098328744388208"><ele>169.0</ele><time>2026-03-22T11:39:35.945Z</time></trkpt></trkseg><trkseg><trkpt lat="43.64966492640482" lon="11.098215885588772"><ele>161.0</ele><time>2026-03-22T12:08:44.934Z</time></trkpt><trkpt lat="43.64971409132626" lon="11.098279429672443"><ele>161.0</ele><time>2026-03-22T13:59:11.842Z</time></trkpt><trkpt lat="43.64967942752958" lon="11.098203571514555"><ele>161.0</ele><time>2026-03-22T14:37:17.82Z</time></trkpt><trkpt lat="43.64973825261593" lon="11.09815749687073"><ele>161.0</ele><time>2026-03-22T14:37:46.819Z</time></trkpt><trkpt lat="43.649796141505284" lon="11.098214900282892"><ele>161.0</ele><time>2026-03-22T14:37:53.819Z</time></trkpt><trkpt lat="43.649835938606856" lon="11.098290062042594"><ele>161.0</ele><time>2026-03-22T14:38:06.818Z</time></trkpt><trkpt lat="43.64989093898815" lon="11.098236866931446"><ele>161.0</ele><time>2026-03-22T14:38:15.818Z</time></trkpt><trkpt lat="43.64991019864335" lon="11.098148764178294"><ele>161.0</ele><time>2026-03-22T14:38:34.817Z</time></trkpt><trkpt lat="43.64984870681674" lon="11.098193481748147"><ele>161.0</ele><time>2026-03-22T14:42:09.815Z</time></trkpt><trkpt lat="43.649786571549484" lon="11.098219246630013"><ele>161.0</ele><time>2026-03-22T14:42:22.814Z</time></trkpt><trkpt lat="43.64977038161286" lon="11.098129437153961"><ele>161.0</ele><time>2026-03-22T14:42:34.814Z</time></trkpt><trkpt lat="43.649820864722535" lon="11.098067335232338"><ele>161.0</ele><time>2026-03-22T14:42:41.814Z</time></trkpt><trkpt lat="43.64987015173901" lon="11.098011945487967"><ele>161.0</ele><time>2026-03-22T14:42:51.813Z</time></trkpt><trkpt lat="43.65005878430435" lon="11.09804870717899"><ele>161.0</ele><time>2026-03-22T14:47:07.811Z</time></trkpt><trkpt lat="43.64998255155312" lon="11.098059862625643"><ele>161.0</ele><time>2026-03-22T14:50:16.861Z</time></trkpt><trkpt lat="43.64995441657263" lon="11.097967921582198"><ele>161.0</ele><time>2026-03-22T14:50:55.86Z</time></trkpt><trkpt lat="43.64987287335076" lon="11.098013142399855"><ele>161.0</ele><time>2026-03-22T14:54:54.003Z</time></trkpt><trkpt lat="43.64993458992223" lon="11.098032665721869"><ele>161.0</ele><time>2026-03-22T14:55:07.857Z</time></trkpt><trkpt lat="43.649955026141036" lon="11.098121614059444"><ele>161.0</ele><time>2026-03-22T14:55:12.861Z</time></trkpt><trkpt lat="43.6499250779432" lon="11.098037355474112"><ele>161.0</ele><time>2026-03-22T14:55:54.86Z</time></trkpt><trkpt lat="43.64985807079873" lon="11.098061395644432"><ele>161.0</ele><time>2026-03-22T14:56:25.86Z</time></trkpt><trkpt lat="43.64980354221584" lon="11.09811133858849"><ele>161.0</ele><time>2026-03-22T14:56:55.859Z</time></trkpt><trkpt lat="43.6497888532324" lon="11.098196231850386"><ele>161.0</ele><time>2026-03-22T14:57:26.861Z</time></trkpt><trkpt lat="43.6498250694696" lon="11.098270074415357"><ele>161.0</ele><time>2026-03-22T14:57:36.86Z</time></trkpt><trkpt lat="43.64989974932214" lon="11.098280451197397"><ele>161.0</ele><time>2026-03-22T14:57:47.86Z</time></trkpt><trkpt lat="43.64991538854055" lon="11.098375924097372"><ele>161.0</ele><time>2026-03-22T14:58:01.86Z</time></trkpt><trkpt lat="43.649905660671784" lon="11.098466000724525"><ele>161.0</ele><time>2026-03-22T14:58:12.859Z</time></trkpt><trkpt lat="43.6498352303607" lon="11.09847347942953"><ele>162.14285714285714</ele><time>2026-03-22T14:58:23.859Z</time></trkpt><trkpt lat="43.64980109069582" lon="11.098548343696114"><ele>163.28571428571428</ele><time>2026-03-22T15:05:41.882Z</time></trkpt><trkpt lat="43.649767222641415" lon="11.098453813984172"><ele>164.42857142857144</ele><time>2026-03-22T15:11:54.882Z</time></trkpt><trkpt lat="43.64972446851367" lon="11.09834909599394"><ele>165.57142857142856</ele><time>2026-03-22T15:12:25.883Z</time></trkpt><trkpt lat="43.64971689953285" lon="11.0982617533158"><ele>166.71428571428572</ele><time>2026-03-22T15:12:46.883Z</time></trkpt><trkpt lat="43.64977249509983" lon="11.098358494745238"><ele>167.85714285714286</ele><time>2026-03-22T15:13:10.883Z</time></trkpt><trkpt lat="43.64971138142921" lon="11.09832589005207"><ele>169.0</ele><time>2026-03-22T15:13:21.882Z</time></trkpt><trkpt lat="43.64963978126586" lon="11.098364891869881"><ele>169.0</ele><time>2026-03-22T15:13:25.882Z</time></trkpt><trkpt lat="43.64958405602573" lon="11.098323948145007"><ele>169.0</ele><time>2026-03-22T15:13:31.882Z</time></trkpt><trkpt lat="43.64955194188772" lon="11.09842349286415"><ele>169.0</ele><time>2026-03-22T15:17:38.883Z</time></trkpt><trkpt lat="43.64959156923486" lon="11.09853082525235"><ele>169.0</ele><time>2026-03-22T15:17:40.883Z</time></trkpt><trkpt lat="43.64959049686903" lon="11.098648176246982"><ele>169.0</ele><time>2026-03-22T15:17:42.883Z</time></trkpt><trkpt lat="43.64956468791811" lon="11.098731446491183"><ele>169.0</ele><time>2026-03-22T15:17:44.883Z</time></trkpt><trkpt lat="43.64962793919942" lon="11.09880022017158"><ele>169.0</ele><time>2026-03-22T15:17:49.883Z</time></trkpt><trkpt lat="43.64968431650243" lon="11.098755155658145"><ele>169.0</ele><time>2026-03-22T15:17:50.883Z</time></trkpt><trkpt lat="43.649795781261076" lon="11.09871324602504"><ele>169.0</ele><time>2026-03-22T15:17:52.883Z</time></trkpt><trkpt lat="43.649861759707164" lon="11.098705763698858"><ele>169.0</ele><time>2026-03-22T15:17:53.883Z</time></trkpt><trkpt lat="43.649988639030525" lon="11.098633381943317"><ele>169.0</ele><time>2026-03-22T15:17:55.883Z</time></trkpt><trkpt lat="43.65005732410609" lon="11.098557475127166"><ele>169.0</ele><time>2026-03-22T15:17:56.883Z</time></trkpt><trkpt lat="43.65010368721573" lon="11.098462658711478"><ele>169.0</ele><time>2026-03-22T15:17:57.883Z</time></trkpt><trkpt lat="43.650133302723" lon="11.098348523181519"><ele>169.0</ele><time>2026-03-22T15:17:58.883Z</time></trkpt><trkpt lat="43.65017019822992" lon="11.098240479668831"><ele>169.0</ele><time>2026-03-22T15:17:59.883Z</time></trkpt><trkpt lat="43.65020772143228" lon="11.098139182814169"><ele>169.0</ele><time>2026-03-22T15:18:00.883Z</time></trkpt><trkpt lat="43.650262867262946" lon="11.098054798842348"><ele>169.0</ele><time>2026-03-22T15:18:01.883Z</time></trkpt><trkpt lat="43.65032652036909" lon="11.097983979394273"><ele>165.16666666666669</ele><time>2026-03-22T15:18:02.883Z</time></trkpt><trkpt lat="43.65039121688549" lon="11.097894926831545"><ele>161.33333333333334</ele><time>2026-03-22T15:18:03.883Z</time></trkpt><trkpt lat="43.650433232662174" lon="11.097802029969504"><ele>157.5</ele><time>2026-03-22T15:18:04.883Z</time></trkpt><trkpt lat="43.65046240537313" lon="11.097678981352434"><ele>153.66666666666666</ele><time>2026-03-22T15:18:05.883Z</time></trkpt><trkpt lat="43.650450395960966" lon="11.097559454697473"><ele>149.83333333333331</ele><time>2026-03-22T15:18:06.883Z</time></trkpt><trkpt lat="43.650426953126505" lon="11.09743630245214"><ele>146.0</ele><time>2026-03-22T15:18:07.883Z</time></trkpt><trkpt lat="43.65040587977191" lon="11.097330615789781"><ele>146.66666666666666</ele><time>2026-03-22T15:18:08.883Z</time></trkpt><trkpt lat="43.65037330050319" lon="11.097208653649815"><ele>147.33333333333331</ele><time>2026-03-22T15:18:09.883Z</time></trkpt><trkpt lat="43.65033278203098" lon="11.097102905440904"><ele>148.0</ele><time>2026-03-22T15:18:10.883Z</time></trkpt><trkpt lat="43.6502830419231" lon="11.096993720154671"><ele>148.66666666666666</ele><time>2026-03-22T15:18:11.883Z</time></trkpt><trkpt lat="43.65023345146828" lon="11.0969086789362"><ele>149.33333333333334</ele><time>2026-03-22T15:18:12.883Z</time></trkpt><trkpt lat="43.650225134426876" lon="11.096777350678526"><ele>150.0</ele><time>2026-03-22T15:18:13.883Z</time></trkpt><trkpt lat="43.650235173469156" lon="11.096637975970005"><ele>148.2</ele><time>2026-03-22T15:18:14.883Z</time></trkpt><trkpt lat="43.650269380594345" lon="11.096504602254148"><ele>146.4</ele><time>2026-03-22T15:18:15.884Z</time></trkpt><trkpt lat="43.650322371910036" lon="11.096391876872335"><ele>144.6</ele><time>2026-03-22T15:18:16.885Z</time></trkpt><trkpt lat="43.65038491020059" lon="11.096296255044372"><ele>142.8</ele><time>2026-03-22T15:18:17.885Z</time></trkpt><trkpt lat="43.650469145802155" lon="11.096260353285535"><ele>141.0</ele><time>2026-03-22T15:18:18.885Z</time></trkpt><trkpt lat="43.65055728372961" lon="11.096232360383926"><ele>139.8</ele><time>2026-03-22T15:18:19.884Z</time></trkpt><trkpt lat="43.650647270371635" lon="11.096206460416923"><ele>138.6</ele><time>2026-03-22T15:18:20.884Z</time></trkpt><trkpt lat="43.65073507844632" lon="11.096164762337088"><ele>137.4</ele><time>2026-03-22T15:18:21.885Z</time></trkpt><trkpt lat="43.65082388474765" lon="11.096081642348972"><ele>136.2</ele><time>2026-03-22T15:18:22.885Z</time></trkpt><trkpt lat="43.65087633536985" lon="11.095978874401245"><ele>135.0</ele><time>2026-03-22T15:18:23.885Z</time></trkpt><trkpt lat="43.65090806328679" lon="11.095875803238307"><ele>135.0</ele><time>2026-03-22T15:18:24.884Z</time></trkpt><trkpt lat="43.65089350718806" lon="11.095771096341547"><ele>135.0</ele><time>2026-03-22T15:18:25.885Z</time></trkpt><trkpt lat="43.65085215218294" lon="11.095666922082733"><ele>135.0</ele><time>2026-03-22T15:18:26.885Z</time></trkpt><trkpt lat="43.65079561372278" lon="11.095586331775042"><ele>135.0</ele><time>2026-03-22T15:18:27.885Z</time></trkpt><trkpt lat="43.6507260354829" lon="11.095469769860793"><ele>135.0</ele><time>2026-03-22T15:18:28.884Z</time></trkpt><trkpt lat="43.650668697511" lon="11.095366696047154"><ele>135.0</ele><time>2026-03-22T15:18:29.884Z</time></trkpt><trkpt lat="43.65062617248713" lon="11.095246994516682"><ele>133.4</ele><time>2026-03-22T15:18:30.884Z</time></trkpt><trkpt lat="43.65066107241262" lon="11.095099932240922"><ele>131.8</ele><time>2026-03-22T15:18:31.884Z</time></trkpt><trkpt lat="43.65068964610702" lon="11.094954710660469"><ele>130.2</ele><time>2026-03-22T15:18:32.884Z</time></trkpt><trkpt lat="43.650702777258424" lon="11.094831087733061"><ele>128.6</ele><time>2026-03-22T15:18:33.884Z</time></trkpt><trkpt lat="43.65069610427256" lon="11.094691266708987"><ele>127.0</ele><time>2026-03-22T15:18:34.884Z</time></trkpt><trkpt lat="43.650669511109434" lon="11.094568254137288"><ele>125.25</ele><time>2026-03-22T15:18:35.884Z</time></trkpt><trkpt lat="43.6506116050591" lon="11.09443745211396"><ele>123.5</ele><time>2026-03-22T15:18:36.884Z</time></trkpt><trkpt lat="43.6505441187684" lon="11.094305256352305"><ele>121.75</ele><time>2026-03-22T15:18:37.884Z</time></trkpt><trkpt lat="43.65046387153345" lon="11.094169726071334"><ele>120.0</ele><time>2026-03-22T15:18:38.884Z</time></trkpt><trkpt lat="43.65039059443627" lon="11.094050148890188"><ele>119.33333333333333</ele><time>2026-03-22T15:18:39.884Z</time></trkpt><trkpt lat="43.65033582645442" lon="11.093955181404002"><ele>118.66666666666666</ele><time>2026-03-22T15:18:40.884Z</time></trkpt><trkpt lat="43.65029962949041" lon="11.093876104589706"><ele>118.0</ele><time>2026-03-22T15:18:41.884Z</time></trkpt><trkpt lat="43.65028485876089" lon="11.093763750229575"><ele>117.33333333333333</ele><time>2026-03-22T15:18:43.884Z</time></trkpt><trkpt lat="43.65037058622134" lon="11.093672391263551"><ele>116.66666666666666</ele><time>2026-03-22T15:18:45.884Z</time></trkpt><trkpt lat="43.650434319709156" lon="11.093630856882204"><ele>116.0</ele><time>2026-03-22T15:18:46.884Z</time></trkpt><trkpt lat="43.65052131865954" lon="11.093573917754156"><ele>116.0</ele><time>2026-03-22T15:18:47.884Z</time></trkpt><trkpt lat="43.65062332693074" lon="11.093512862843909"><ele>116.0</ele><time>2026-03-22T15:18:48.884Z</time></trkpt><trkpt lat="43.650742065525066" lon="11.09344038771212"><ele>116.0</ele><time>2026-03-22T15:18:49.884Z</time></trkpt><trkpt lat="43.65088208884233" lon="11.093371966095447"><ele>116.0</ele><time>2026-03-22T15:18:50.884Z</time></trkpt><trkpt lat="43.65101996019604" lon="11.093306870638886"><ele>116.33333333333333</ele><time>2026-03-22T15:18:51.884Z</time></trkpt><trkpt lat="43.651161336421076" lon="11.093235956766394"><ele>116.66666666666666</ele><time>2026-03-22T15:18:52.884Z</time></trkpt><trkpt lat="43.65131624424031" lon="11.09315432803111"><ele>117.0</ele><time>2026-03-22T15:18:53.884Z</time></trkpt><trkpt lat="43.651474260093906" lon="11.093070369218777"><ele>117.0</ele><time>2026-03-22T15:18:54.884Z</time></trkpt><trkpt lat="43.65162586964183" lon="11.092986898926663"><ele>117.0</ele><time>2026-03-22T15:18:55.884Z</time></trkpt><trkpt lat="43.65177173624411" lon="11.092918906875571"><ele>117.0</ele><time>2026-03-22T15:18:56.884Z</time></trkpt><trkpt lat="43.65191913400236" lon="11.092846567000052"><ele>117.66666666666666</ele><time>2026-03-22T15:18:57.884Z</time></trkpt><trkpt lat="43.65207994105559" lon="11.092769221986444"><ele>118.33333333333333</ele><time>2026-03-22T15:18:58.884Z</time></trkpt><trkpt lat="43.65224609314083" lon="11.092682808703456"><ele>119.0</ele><time>2026-03-22T15:18:59.884Z</time></trkpt><trkpt lat="43.65242830346915" lon="11.092596961833529"><ele>119.0</ele><time>2026-03-22T15:19:00.884Z</time></trkpt><trkpt lat="43.65260172838089" lon="11.092504985775795"><ele>119.0</ele><time>2026-03-22T15:19:01.884Z</time></trkpt><trkpt lat="43.65279082881992" lon="11.092395880912981"><ele>119.0</ele><time>2026-03-22T15:19:02.884Z</time></trkpt><trkpt lat="43.65296205277404" lon="11.092301024655871"><ele>117.0</ele><time>2026-03-22T15:19:03.884Z</time></trkpt><trkpt lat="43.653141183465785" lon="11.092198766223255"><ele>115.0</ele><time>2026-03-22T15:19:04.884Z</time></trkpt><trkpt lat="43.65330239358576" lon="11.092078376132394"><ele>113.0</ele><time>2026-03-22T15:19:05.884Z</time></trkpt><trkpt lat="43.65346380380233" lon="11.091943778232231"><ele>112.66666666666666</ele><time>2026-03-22T15:19:06.884Z</time></trkpt><trkpt lat="43.65362608124731" lon="11.091807075345047"><ele>112.33333333333334</ele><time>2026-03-22T15:19:07.884Z</time></trkpt><trkpt lat="43.65377764652668" lon="11.091665244230683"><ele>112.0</ele><time>2026-03-22T15:19:08.884Z</time></trkpt><trkpt lat="43.65393030398135" lon="11.091511189567338"><ele>112.0</ele><time>2026-03-22T15:19:09.884Z</time></trkpt><trkpt lat="43.654085653042564" lon="11.091356495707547"><ele>112.0</ele><time>2026-03-22T15:19:10.884Z</time></trkpt><trkpt lat="43.65424642293816" lon="11.091206106747714"><ele>112.0</ele><time>2026-03-22T15:19:11.884Z</time></trkpt><trkpt lat="43.65440932997139" lon="11.091056621622254"><ele>111.66666666666667</ele><time>2026-03-22T15:19:12.884Z</time></trkpt><trkpt lat="43.65457692934481" lon="11.090910192358509"><ele>111.33333333333334</ele><time>2026-03-22T15:19:13.884Z</time></trkpt><trkpt lat="43.65475293442651" lon="11.090751691179182"><ele>111.0</ele><time>2026-03-22T15:19:14.884Z</time></trkpt><trkpt lat="43.654921493242085" lon="11.090594801459781"><ele>110.66666666666666</ele><time>2026-03-22T15:19:15.884Z</time></trkpt><trkpt lat="43.65509035916974" lon="11.090424919149843"><ele>110.33333333333333</ele><time>2026-03-22T15:19:16.884Z</time></trkpt><trkpt lat="43.65526345024211" lon="11.09026289366027"><ele>110.0</ele><time>2026-03-22T15:19:17.884Z</time></trkpt><trkpt lat="43.65544422450016" lon="11.090100561650756"><ele>110.0</ele><time>2026-03-22T15:19:18.884Z</time></trkpt><trkpt lat="43.65562450188355" lon="11.08992921956546"><ele>110.0</ele><time>2026-03-22T15:19:19.882Z</time></trkpt><trkpt lat="43.655799282919325" lon="11.08976916289468"><ele>110.0</ele><time>2026-03-22T15:19:20.88Z</time></trkpt><trkpt lat="43.655979724830665" lon="11.089603921291523"><ele>109.0</ele><time>2026-03-22T15:19:21.878Z</time></trkpt><trkpt lat="43.65616298083693" lon="11.08942266631869"><ele>108.0</ele><time>2026-03-22T15:19:22.877Z</time></trkpt><trkpt lat="43.65634562713916" lon="11.089262940007945"><ele>107.0</ele><time>2026-03-22T15:19:23.875Z</time></trkpt><trkpt lat="43.65651416030822" lon="11.089101680108405"><ele>107.33333333333333</ele><time>2026-03-22T15:19:24.874Z</time></trkpt><trkpt lat="43.656700015951266" lon="11.088932262085434"><ele>107.66666666666666</ele><time>2026-03-22T15:19:25.872Z</time></trkpt><trkpt lat="43.65688203038127" lon="11.088754032811087"><ele>108.0</ele><time>2026-03-22T15:19:26.871Z</time></trkpt><trkpt lat="43.65706705110284" lon="11.088583738242242"><ele>108.0</ele><time>2026-03-22T15:19:27.869Z</time></trkpt><trkpt lat="43.657244064325745" lon="11.088412722013288"><ele>108.0</ele><time>2026-03-22T15:19:28.868Z</time></trkpt><trkpt lat="43.6574221290082" lon="11.08824452913494"><ele>108.0</ele><time>2026-03-22T15:19:29.867Z</time></trkpt><trkpt lat="43.657603729051324" lon="11.088068343029505"><ele>108.0</ele><time>2026-03-22T15:19:30.866Z</time></trkpt><trkpt lat="43.65777838794117" lon="11.087899100412198"><ele>108.0</ele><time>2026-03-22T15:19:31.865Z</time></trkpt><trkpt lat="43.65796169386476" lon="11.087727363342262"><ele>108.0</ele><time>2026-03-22T15:19:32.864Z</time></trkpt><trkpt lat="43.65814965135002" lon="11.087558324904716"><ele>107.0</ele><time>2026-03-22T15:19:33.863Z</time></trkpt><trkpt lat="43.65833310510167" lon="11.087386345424582"><ele>106.0</ele><time>2026-03-22T15:19:34.862Z</time></trkpt><trkpt lat="43.65851616189475" lon="11.087213164041703"><ele>105.0</ele><time>2026-03-22T15:19:35.862Z</time></trkpt><trkpt lat="43.658702193741604" lon="11.087039279031254"><ele>105.0</ele><time>2026-03-22T15:19:36.861Z</time></trkpt><trkpt lat="43.65888539623544" lon="11.08685994821487"><ele>105.0</ele><time>2026-03-22T15:19:37.86Z</time></trkpt><trkpt lat="43.65906855698889" lon="11.086685297813862"><ele>105.0</ele><time>2026-03-22T15:19:38.86Z</time></trkpt><trkpt lat="43.659251767627886" lon="11.086508021342826"><ele>105.0</ele><time>2026-03-22T15:19:39.859Z</time></trkpt><trkpt lat="43.65943409565216" lon="11.086331671940098"><ele>105.0</ele><time>2026-03-22T15:19:40.859Z</time></trkpt><trkpt lat="43.659614573005776" lon="11.086164724489622"><ele>105.0</ele><time>2026-03-22T15:19:41.858Z</time></trkpt><trkpt lat="43.65978019751489" lon="11.086008559718968"><ele>105.0</ele><time>2026-03-22T15:19:42.857Z</time></trkpt><trkpt lat="43.659942016973694" lon="11.085857419890978"><ele>105.0</ele><time>2026-03-22T15:19:43.857Z</time></trkpt><trkpt lat="43.66009394476291" lon="11.085721089863819"><ele>105.0</ele><time>2026-03-22T15:19:44.857Z</time></trkpt><trkpt lat="43.66023762389208" lon="11.085594706417766"><ele>104.5</ele><time>2026-03-22T15:19:45.856Z</time></trkpt><trkpt lat="43.66036836521116" lon="11.08546919054847"><ele>104.0</ele><time>2026-03-22T15:19:46.856Z</time></trkpt><trkpt lat="43.660492843401876" lon="11.085351966160887"><ele>103.5</ele><time>2026-03-22T15:19:47.855Z</time></trkpt><trkpt lat="43.66060498214704" lon="11.085238492343661"><ele>103.0</ele><time>2026-03-22T15:19:48.855Z</time></trkpt><trkpt lat="43.66071169203797" lon="11.08514278740864"><ele>103.0</ele><time>2026-03-22T15:19:49.855Z</time></trkpt><trkpt lat="43.66080044745194" lon="11.085044713753511"><ele>103.0</ele><time>2026-03-22T15:19:50.854Z</time></trkpt><trkpt lat="43.66088567080988" lon="11.084987978632606"><ele>103.0</ele><time>2026-03-22T15:19:51.854Z</time></trkpt><trkpt lat="43.660943357665424" lon="11.084944629771956"><ele>103.0</ele><time>2026-03-22T15:19:52.854Z</time></trkpt><trkpt lat="43.66106340708394" lon="11.084922942601397"><ele>103.0</ele><time>2026-03-22T15:19:54.853Z</time></trkpt><trkpt lat="43.6611716737494" lon="11.084893305769903"><ele>102.66666666666667</ele><time>2026-03-22T15:19:56.853Z</time></trkpt><trkpt lat="43.66124182904764" lon="11.084793156325572"><ele>102.33333333333334</ele><time>2026-03-22T15:19:58.853Z</time></trkpt><trkpt lat="43.66125713376571" lon="11.084675479175262"><ele>102.0</ele><time>2026-03-22T15:19:59.852Z</time></trkpt><trkpt lat="43.6612508379527" lon="11.084575050099296"><ele>101.66666666666666</ele><time>2026-03-22T15:20:00.852Z</time></trkpt><trkpt lat="43.66123282333439" lon="11.084466080716426"><ele>101.33333333333333</ele><time>2026-03-22T15:20:01.852Z</time></trkpt><trkpt lat="43.661225683750125" lon="11.084353491595657"><ele>101.0</ele><time>2026-03-22T15:20:02.852Z</time></trkpt><trkpt lat="43.66124863557721" lon="11.084231424442253"><ele>100.99999999999999</ele><time>2026-03-22T15:20:03.852Z</time></trkpt><trkpt lat="43.661280678935555" lon="11.084125293741865"><ele>101.0</ele><time>2026-03-22T15:20:04.852Z</time></trkpt><trkpt lat="43.661357294464395" lon="11.084067545513758"><ele>101.0</ele><time>2026-03-22T15:20:05.851Z</time></trkpt><trkpt lat="43.66143826789557" lon="11.084045892664127"><ele>101.0</ele><time>2026-03-22T15:20:06.851Z</time></trkpt><trkpt lat="43.6615231797029" lon="11.08403898538818"><ele>100.99999999999999</ele><time>2026-03-22T15:20:07.851Z</time></trkpt><trkpt lat="43.661623188218535" lon="11.08403084193423"><ele>101.0</ele><time>2026-03-22T15:20:08.851Z</time></trkpt><trkpt lat="43.66172931951886" lon="11.084041610665002"><ele>100.75</ele><time>2026-03-22T15:20:09.851Z</time></trkpt><trkpt lat="43.66184866607807" lon="11.084077740785883"><ele>100.5</ele><time>2026-03-22T15:20:10.851Z</time></trkpt><trkpt lat="43.661979285024906" lon="11.08409722634465"><ele>100.25</ele><time>2026-03-22T15:20:11.851Z</time></trkpt><trkpt lat="43.662120246202626" lon="11.084105532143283"><ele>100.0</ele><time>2026-03-22T15:20:12.851Z</time></trkpt><trkpt lat="43.66227322854284" lon="11.08409247004718"><ele>99.25</ele><time>2026-03-22T15:20:13.851Z</time></trkpt><trkpt lat="43.66240165973918" lon="11.084062987996612"><ele>98.5</ele><time>2026-03-22T15:20:14.851Z</time></trkpt><trkpt lat="43.6625393481785" lon="11.084015913433559"><ele>97.75</ele><time>2026-03-22T15:20:15.85Z</time></trkpt><trkpt lat="43.66266756254395" lon="11.083958791466866"><ele>97.0</ele><time>2026-03-22T15:20:16.85Z</time></trkpt><trkpt lat="43.66281057392738" lon="11.083869862910232"><ele>96.33333333333334</ele><time>2026-03-22T15:20:17.85Z</time></trkpt><trkpt lat="43.662963088644176" lon="11.083772050833208"><ele>95.66666666666667</ele><time>2026-03-22T15:20:18.85Z</time></trkpt><trkpt lat="43.66311618885562" lon="11.083675363874004"><ele>95.0</ele><time>2026-03-22T15:20:19.85Z</time></trkpt><trkpt lat="43.66325676991702" lon="11.083580581171205"><ele>95.0</ele><time>2026-03-22T15:20:20.85Z</time></trkpt><trkpt lat="43.66339958536117" lon="11.083492206839272"><ele>95.0</ele><time>2026-03-22T15:20:21.852Z</time></trkpt><trkpt lat="43.663538105256855" lon="11.083415457620228"><ele>95.0</ele><time>2026-03-22T15:20:22.852Z</time></trkpt><trkpt lat="43.663687050491355" lon="11.083317765891278"><ele>95.33333333333334</ele><time>2026-03-22T15:20:23.852Z</time></trkpt><trkpt lat="43.66383625380718" lon="11.083223929967039"><ele>95.66666666666667</ele><time>2026-03-22T15:20:24.853Z</time></trkpt><trkpt lat="43.66398510283233" lon="11.083124506743777"><ele>96.0</ele><time>2026-03-22T15:20:25.852Z</time></trkpt><trkpt lat="43.66413432162367" lon="11.083018638987985"><ele>96.0</ele><time>2026-03-22T15:20:26.852Z</time></trkpt><trkpt lat="43.66428199972263" lon="11.082882552217773"><ele>96.0</ele><time>2026-03-22T15:20:27.852Z</time></trkpt><trkpt lat="43.66442688480726" lon="11.08273081404386"><ele>96.0</ele><time>2026-03-22T15:20:28.852Z</time></trkpt><trkpt lat="43.664550519518215" lon="11.082569792414779"><ele>96.66666666666666</ele><time>2026-03-22T15:20:29.852Z</time></trkpt><trkpt lat="43.66465348419906" lon="11.082406731367715"><ele>97.33333333333333</ele><time>2026-03-22T15:20:30.852Z</time></trkpt><trkpt lat="43.6647456819453" lon="11.082241920324549"><ele>98.0</ele><time>2026-03-22T15:20:31.852Z</time></trkpt><trkpt lat="43.66483758683476" lon="11.082065146659563"><ele>98.0</ele><time>2026-03-22T15:20:32.852Z</time></trkpt><trkpt lat="43.664926983413146" lon="11.081893871376531"><ele>98.0</ele><time>2026-03-22T15:20:33.853Z</time></trkpt><trkpt lat="43.6650201348333" lon="11.081717463584049"><ele>98.0</ele><time>2026-03-22T15:20:34.852Z</time></trkpt><trkpt lat="43.66511899795276" lon="11.08153848674844"><ele>98.0</ele><time>2026-03-22T15:20:35.852Z</time></trkpt><trkpt lat="43.665224635966844" lon="11.081346725865894"><ele>98.0</ele><time>2026-03-22T15:20:36.852Z</time></trkpt><trkpt lat="43.66533227635618" lon="11.081145207597196"><ele>98.0</ele><time>2026-03-22T15:20:37.852Z</time></trkpt><trkpt lat="43.66544146827322" lon="11.080936766697597"><ele>96.0</ele><time>2026-03-22T15:20:38.852Z</time></trkpt><trkpt lat="43.665552919875836" lon="11.080718828366"><ele>94.0</ele><time>2026-03-22T15:20:39.852Z</time></trkpt><trkpt lat="43.6656675510683" lon="11.080498148492692"><ele>92.0</ele><time>2026-03-22T15:20:40.852Z</time></trkpt><trkpt lat="43.66578358567584" lon="11.080273722843913"><ele>92.0</ele><time>2026-03-22T15:20:41.852Z</time></trkpt><trkpt lat="43.66589953485727" lon="11.080043443299559"><ele>92.0</ele><time>2026-03-22T15:20:42.852Z</time></trkpt><trkpt lat="43.666011469496915" lon="11.079819263805682"><ele>92.0</ele><time>2026-03-22T15:20:43.852Z</time></trkpt><trkpt lat="43.666119124916115" lon="11.079617031717591"><ele>91.33333333333334</ele><time>2026-03-22T15:20:44.852Z</time></trkpt><trkpt lat="43.66621931417392" lon="11.079414419730503"><ele>90.66666666666667</ele><time>2026-03-22T15:20:45.852Z</time></trkpt><trkpt lat="43.666329411985686" lon="11.079206573950769"><ele>90.0</ele><time>2026-03-22T15:20:46.852Z</time></trkpt><trkpt lat="43.66643954309068" lon="11.079002196810725"><ele>89.66666666666667</ele><time>2026-03-22T15:20:47.852Z</time></trkpt><trkpt lat="43.66655727041927" lon="11.0787910171986"><ele>89.33333333333334</ele><time>2026-03-22T15:20:48.852Z</time></trkpt><trkpt lat="43.66668626871313" lon="11.078584195001758"><ele>89.0</ele><time>2026-03-22T15:20:49.852Z</time></trkpt><trkpt lat="43.66682015703232" lon="11.078382892889646"><ele>88.66666666666667</ele><time>2026-03-22T15:20:50.851Z</time></trkpt><trkpt lat="43.66697267508188" lon="11.078189300000503"><ele>88.33333333333333</ele><time>2026-03-22T15:20:51.851Z</time></trkpt><trkpt lat="43.66713697525586" lon="11.07800519407831"><ele>88.0</ele><time>2026-03-22T15:20:52.851Z</time></trkpt><trkpt lat="43.66730176869566" lon="11.077831543671902"><ele>88.0</ele><time>2026-03-22T15:20:53.851Z</time></trkpt><trkpt lat="43.6674750425502" lon="11.077662758672501"><ele>88.0</ele><time>2026-03-22T15:20:54.851Z</time></trkpt><trkpt lat="43.667656394403636" lon="11.077500056842641"><ele>88.0</ele><time>2026-03-22T15:20:55.851Z</time></trkpt><trkpt lat="43.66783820652578" lon="11.077340131105663"><ele>87.0</ele><time>2026-03-22T15:20:56.851Z</time></trkpt><trkpt lat="43.6680238608155" lon="11.077182953609396"><ele>86.0</ele><time>2026-03-22T15:20:57.851Z</time></trkpt><trkpt lat="43.66821668982644" lon="11.077030767114689"><ele>85.0</ele><time>2026-03-22T15:20:58.851Z</time></trkpt><trkpt lat="43.668409820388675" lon="11.076875570412714"><ele>85.0</ele><time>2026-03-22T15:20:59.851Z</time></trkpt><trkpt lat="43.66860274076708" lon="11.07671868319174"><ele>85.0</ele><time>2026-03-22T15:21:00.851Z</time></trkpt><trkpt lat="43.668799052556885" lon="11.07655743181467"><ele>85.5</ele><time>2026-03-22T15:21:01.851Z</time></trkpt><trkpt lat="43.66899255817366" lon="11.076399998988471"><ele>86.0</ele><time>2026-03-22T15:21:02.851Z</time></trkpt><trkpt lat="43.6691943504122" lon="11.076245375634343"><ele>86.0</ele><time>2026-03-22T15:21:03.851Z</time></trkpt><trkpt lat="43.669392683343006" lon="11.076089474142274"><ele>86.0</ele><time>2026-03-22T15:21:04.851Z</time></trkpt><trkpt lat="43.66959141464492" lon="11.075936347978846"><ele>85.0</ele><time>2026-03-22T15:21:05.851Z</time></trkpt><trkpt lat="43.66979070837401" lon="11.075802363425046"><ele>84.0</ele><time>2026-03-22T15:21:06.851Z</time></trkpt><trkpt lat="43.6699972441058" lon="11.075697732928345"><ele>83.0</ele><time>2026-03-22T15:21:07.851Z</time></trkpt><trkpt lat="43.67020930338011" lon="11.075615845509795"><ele>82.66666666666667</ele><time>2026-03-22T15:21:08.851Z</time></trkpt><trkpt lat="43.67042752182267" lon="11.075554693207808"><ele>82.33333333333333</ele><time>2026-03-22T15:21:09.851Z</time></trkpt><trkpt lat="43.6706385261223" lon="11.075505499647527"><ele>82.0</ele><time>2026-03-22T15:21:10.851Z</time></trkpt><trkpt lat="43.6708462626138" lon="11.075456357477478"><ele>82.0</ele><time>2026-03-22T15:21:11.851Z</time></trkpt><trkpt lat="43.67105197623786" lon="11.075402970544213"><ele>82.0</ele><time>2026-03-22T15:21:12.851Z</time></trkpt><trkpt lat="43.67126080799713" lon="11.07535215622463"><ele>82.0</ele><time>2026-03-22T15:21:13.851Z</time></trkpt><trkpt lat="43.671465277615376" lon="11.075299383426714"><ele>82.0</ele><time>2026-03-22T15:21:14.851Z</time></trkpt><trkpt lat="43.67167383101965" lon="11.075246386479494"><ele>82.0</ele><time>2026-03-22T15:21:15.851Z</time></trkpt><trkpt lat="43.67187932783656" lon="11.075195671734862"><ele>82.0</ele><time>2026-03-22T15:21:16.851Z</time></trkpt><trkpt lat="43.672095897250856" lon="11.07514114442204"><ele>82.0</ele><time>2026-03-22T15:21:17.851Z</time></trkpt><trkpt lat="43.672308329512326" lon="11.07508194600021"><ele>82.0</ele><time>2026-03-22T15:21:18.851Z</time></trkpt><trkpt lat="43.672530031113936" lon="11.075025982751932"><ele>82.0</ele><time>2026-03-22T15:21:19.851Z</time></trkpt><trkpt lat="43.67274508315367" lon="11.074972108889156"><ele>82.0</ele><time>2026-03-22T15:21:20.851Z</time></trkpt><trkpt lat="43.67297738919583" lon="11.074905257099424"><ele>82.0</ele><time>2026-03-22T15:21:21.851Z</time></trkpt><trkpt lat="43.67319278278079" lon="11.074845788365026"><ele>82.0</ele><time>2026-03-22T15:21:22.851Z</time></trkpt><trkpt lat="43.67341957062715" lon="11.074784275920544"><ele>82.0</ele><time>2026-03-22T15:21:23.851Z</time></trkpt><trkpt lat="43.67365496485523" lon="11.074724872367671"><ele>81.5</ele><time>2026-03-22T15:21:24.851Z</time></trkpt><trkpt lat="43.67388206626997" lon="11.07467110410756"><ele>81.0</ele><time>2026-03-22T15:21:25.851Z</time></trkpt><trkpt lat="43.67410797903201" lon="11.074611919007282"><ele>81.0</ele><time>2026-03-22T15:21:26.851Z</time></trkpt><trkpt lat="43.674323479608546" lon="11.074558363675079"><ele>81.0</ele><time>2026-03-22T15:21:27.851Z</time></trkpt><trkpt lat="43.67452404229322" lon="11.07450202782019"><ele>81.0</ele><time>2026-03-22T15:21:28.85Z</time></trkpt><trkpt lat="43.67472498319392" lon="11.074454955173113"><ele>80.33333333333333</ele><time>2026-03-22T15:21:29.85Z</time></trkpt><trkpt lat="43.67490507573643" lon="11.07440698358169"><ele>79.66666666666666</ele><time>2026-03-22T15:21:30.85Z</time></trkpt><trkpt lat="43.67507721351379" lon="11.074360921112127"><ele>79.0</ele><time>2026-03-22T15:21:31.85Z</time></trkpt><trkpt lat="43.67525602903077" lon="11.074313313022364"><ele>79.0</ele><time>2026-03-22T15:21:32.85Z</time></trkpt><trkpt lat="43.67542662247672" lon="11.074267591430646"><ele>79.0</ele><time>2026-03-22T15:21:33.85Z</time></trkpt><trkpt lat="43.67560274927322" lon="11.07421626242877"><ele>79.0</ele><time>2026-03-22T15:21:34.85Z</time></trkpt><trkpt lat="43.675780330154026" lon="11.074158564540264"><ele>79.0</ele><time>2026-03-22T15:21:35.85Z</time></trkpt><trkpt lat="43.67595817336723" lon="11.074096783756403"><ele>79.0</ele><time>2026-03-22T15:21:36.85Z</time></trkpt><trkpt lat="43.67612727458217" lon="11.074026476195495"><ele>79.0</ele><time>2026-03-22T15:21:37.85Z</time></trkpt><trkpt lat="43.67628065088084" lon="11.073959454123363"><ele>79.0</ele><time>2026-03-22T15:21:38.85Z</time></trkpt><trkpt lat="43.67642445427377" lon="11.073899421880464"><ele>79.0</ele><time>2026-03-22T15:21:39.85Z</time></trkpt><trkpt lat="43.6765701733428" lon="11.073834250545517"><ele>79.0</ele><time>2026-03-22T15:21:40.85Z</time></trkpt><trkpt lat="43.6767141550306" lon="11.073767577969814"><ele>79.0</ele><time>2026-03-22T15:21:41.85Z</time></trkpt><trkpt lat="43.67686040230333" lon="11.07370265759202"><ele>79.0</ele><time>2026-03-22T15:21:42.85Z</time></trkpt><trkpt lat="43.6770034214835" lon="11.073639150590791"><ele>79.0</ele><time>2026-03-22T15:21:43.85Z</time></trkpt><trkpt lat="43.677164796477136" lon="11.073573478314023"><ele>78.66666666666666</ele><time>2026-03-22T15:21:44.85Z</time></trkpt><trkpt lat="43.67733002318131" lon="11.073503955047029"><ele>78.33333333333333</ele><time>2026-03-22T15:21:45.85Z</time></trkpt><trkpt lat="43.67750043819243" lon="11.0734353653518"><ele>78.0</ele><time>2026-03-22T15:21:46.85Z</time></trkpt><trkpt lat="43.67767475410732" lon="11.073359066930621"><ele>77.66666666666667</ele><time>2026-03-22T15:21:47.85Z</time></trkpt><trkpt lat="43.67784957129499" lon="11.073283929545598"><ele>77.33333333333334</ele><time>2026-03-22T15:21:48.85Z</time></trkpt><trkpt lat="43.6780225173777" lon="11.073208977440851"><ele>77.0</ele><time>2026-03-22T15:21:49.85Z</time></trkpt><trkpt lat="43.67818641385753" lon="11.073136413375744"><ele>77.0</ele><time>2026-03-22T15:21:50.85Z</time></trkpt><trkpt lat="43.67835420157297" lon="11.073067438791139"><ele>77.0</ele><time>2026-03-22T15:21:51.85Z</time></trkpt><trkpt lat="43.67852141789084" lon="11.07299901938174"><ele>77.0</ele><time>2026-03-22T15:21:52.85Z</time></trkpt><trkpt lat="43.678691489132966" lon="11.072937462409499"><ele>76.0</ele><time>2026-03-22T15:21:53.85Z</time></trkpt><trkpt lat="43.67886509186887" lon="11.072876861787085"><ele>75.0</ele><time>2026-03-22T15:21:54.85Z</time></trkpt><trkpt lat="43.67903932649558" lon="11.072820506787211"><ele>74.0</ele><time>2026-03-22T15:21:55.85Z</time></trkpt><trkpt lat="43.67922036793246" lon="11.072771659463845"><ele>74.0</ele><time>2026-03-22T15:21:56.85Z</time></trkpt><trkpt lat="43.679406223857114" lon="11.072715349060129"><ele>74.0</ele><time>2026-03-22T15:21:57.85Z</time></trkpt><trkpt lat="43.6795929330835" lon="11.072657029479245"><ele>74.0</ele><time>2026-03-22T15:21:58.85Z</time></trkpt><trkpt lat="43.67978464752961" lon="11.072601912637335"><ele>73.66666666666667</ele><time>2026-03-22T15:21:59.85Z</time></trkpt><trkpt lat="43.67997649031494" lon="11.07254658266221"><ele>73.33333333333333</ele><time>2026-03-22T15:22:00.85Z</time></trkpt><trkpt lat="43.68017256300727" lon="11.072491156522538"><ele>73.0</ele><time>2026-03-22T15:22:01.85Z</time></trkpt><trkpt lat="43.68036911378475" lon="11.072432942555126"><ele>72.66666666666666</ele><time>2026-03-22T15:22:02.85Z</time></trkpt><trkpt lat="43.680570024406855" lon="11.07237105582359"><ele>72.33333333333333</ele><time>2026-03-22T15:22:03.85Z</time></trkpt><trkpt lat="43.68076391680603" lon="11.072305158296489"><ele>72.0</ele><time>2026-03-22T15:22:04.85Z</time></trkpt><trkpt lat="43.6809551961911" lon="11.072257698247816"><ele>72.0</ele><time>2026-03-22T15:22:05.85Z</time></trkpt><trkpt lat="43.68115157650927" lon="11.072202092768288"><ele>72.0</ele><time>2026-03-22T15:22:06.85Z</time></trkpt><trkpt lat="43.681348082169606" lon="11.072142712234983"><ele>72.0</ele><time>2026-03-22T15:22:07.85Z</time></trkpt><trkpt lat="43.68152618382345" lon="11.072094315919669"><ele>72.0</ele><time>2026-03-22T15:22:08.85Z</time></trkpt><trkpt lat="43.68170699508166" lon="11.072039444381058"><ele>72.0</ele><time>2026-03-22T15:22:09.85Z</time></trkpt><trkpt lat="43.68186673129949" lon="11.071989973442415"><ele>72.0</ele><time>2026-03-22T15:22:10.849Z</time></trkpt><trkpt lat="43.682029315462174" lon="11.071940288487188"><ele>72.0</ele><time>2026-03-22T15:22:11.849Z</time></trkpt><trkpt lat="43.68218973073383" lon="11.071893274543418"><ele>72.0</ele><time>2026-03-22T15:22:12.849Z</time></trkpt><trkpt lat="43.682352394101635" lon="11.071837805137545"><ele>72.0</ele><time>2026-03-22T15:22:13.849Z</time></trkpt><trkpt lat="43.68250947748756" lon="11.07179327251436"><ele>72.0</ele><time>2026-03-22T15:22:14.849Z</time></trkpt><trkpt lat="43.68265437613389" lon="11.071746650606713"><ele>72.0</ele><time>2026-03-22T15:22:15.849Z</time></trkpt><trkpt lat="43.68280023259441" lon="11.071705752181105"><ele>72.0</ele><time>2026-03-22T15:22:16.849Z</time></trkpt><trkpt lat="43.68294048431034" lon="11.071665186810762"><ele>72.0</ele><time>2026-03-22T15:22:17.849Z</time></trkpt><trkpt lat="43.68308618193736" lon="11.071625824017064"><ele>71.75</ele><time>2026-03-22T15:22:18.849Z</time></trkpt><trkpt lat="43.68324294612592" lon="11.071576443865071"><ele>71.5</ele><time>2026-03-22T15:22:19.849Z</time></trkpt><trkpt lat="43.683389016452665" lon="11.071533956213653"><ele>71.25</ele><time>2026-03-22T15:22:20.849Z</time></trkpt><trkpt lat="43.68351690777468" lon="11.071496346631857"><ele>71.0</ele><time>2026-03-22T15:22:21.849Z</time></trkpt><trkpt lat="43.68363828178195" lon="11.071457372450205"><ele>71.0</ele><time>2026-03-22T15:22:22.849Z</time></trkpt><trkpt lat="43.68376268431472" lon="11.071419711308515"><ele>71.0</ele><time>2026-03-22T15:22:23.849Z</time></trkpt><trkpt lat="43.68388926735958" lon="11.071385783713458"><ele>71.0</ele><time>2026-03-22T15:22:24.849Z</time></trkpt><trkpt lat="43.68402117646908" lon="11.07135066835762"><ele>71.0</ele><time>2026-03-22T15:22:25.849Z</time></trkpt><trkpt lat="43.684142594965806" lon="11.071310421177536"><ele>71.0</ele><time>2026-03-22T15:22:26.851Z</time></trkpt><trkpt lat="43.68425544434179" lon="11.07127729182482"><ele>71.0</ele><time>2026-03-22T15:22:27.852Z</time></trkpt><trkpt lat="43.684372088949424" lon="11.071239003622477"><ele>71.0</ele><time>2026-03-22T15:22:28.852Z</time></trkpt><trkpt lat="43.68449551457218" lon="11.071202025214477"><ele>71.0</ele><time>2026-03-22T15:22:29.852Z</time></trkpt><trkpt lat="43.68461493522743" lon="11.071172262210418"><ele>71.25</ele><time>2026-03-22T15:22:30.852Z</time></trkpt><trkpt lat="43.68474706641997" lon="11.071129608745473"><ele>71.5</ele><time>2026-03-22T15:22:31.852Z</time></trkpt><trkpt lat="43.684884816135835" lon="11.07109480196813"><ele>71.75</ele><time>2026-03-22T15:22:32.852Z</time></trkpt><trkpt lat="43.68501682522883" lon="11.071048706976164"><ele>72.0</ele><time>2026-03-22T15:22:33.852Z</time></trkpt><trkpt lat="43.685153996906166" lon="11.071007856324455"><ele>71.5</ele><time>2026-03-22T15:22:34.852Z</time></trkpt><trkpt lat="43.6853009763496" lon="11.070967346481007"><ele>71.0</ele><time>2026-03-22T15:22:35.852Z</time></trkpt><trkpt lat="43.68544734643465" lon="11.070914383747505"><ele>70.5</ele><time>2026-03-22T15:22:36.851Z</time></trkpt><trkpt lat="43.68558424028799" lon="11.070871304532512"><ele>70.0</ele><time>2026-03-22T15:22:37.851Z</time></trkpt><trkpt lat="43.68571267591934" lon="11.070835752452297"><ele>70.0</ele><time>2026-03-22T15:22:38.852Z</time></trkpt><trkpt lat="43.68582973474431" lon="11.070803395544438"><ele>70.0</ele><time>2026-03-22T15:22:39.851Z</time></trkpt><trkpt lat="43.685936915145916" lon="11.07077393247253"><ele>70.0</ele><time>2026-03-22T15:22:40.851Z</time></trkpt><trkpt lat="43.686050754035705" lon="11.070743854203476"><ele>70.0</ele><time>2026-03-22T15:22:41.851Z</time></trkpt><trkpt lat="43.68615311815354" lon="11.070718404885453"><ele>70.0</ele><time>2026-03-22T15:22:42.851Z</time></trkpt><trkpt lat="43.686268358228965" lon="11.070683994709274"><ele>69.0</ele><time>2026-03-22T15:22:43.851Z</time></trkpt><trkpt lat="43.6863855244241" lon="11.070649919921474"><ele>68.0</ele><time>2026-03-22T15:22:44.851Z</time></trkpt><trkpt lat="43.686507867884835" lon="11.070614816263257"><ele>67.0</ele><time>2026-03-22T15:22:45.851Z</time></trkpt><trkpt lat="43.6866393101813" lon="11.070575762059832"><ele>66.0</ele><time>2026-03-22T15:22:46.851Z</time></trkpt><trkpt lat="43.68677382757077" lon="11.070535396247402"><ele>66.0</ele><time>2026-03-22T15:22:47.851Z</time></trkpt><trkpt lat="43.6869096137457" lon="11.070493621462123"><ele>66.0</ele><time>2026-03-22T15:22:48.851Z</time></trkpt><trkpt lat="43.687050050938204" lon="11.070442033977134"><ele>66.0</ele><time>2026-03-22T15:22:49.851Z</time></trkpt><trkpt lat="43.687189104724844" lon="11.070395790469048"><ele>66.0</ele><time>2026-03-22T15:22:50.851Z</time></trkpt><trkpt lat="43.687325880686686" lon="11.07034804129811"><ele>66.25</ele><time>2026-03-22T15:22:51.851Z</time></trkpt><trkpt lat="43.68745904224752" lon="11.070313193080349"><ele>66.5</ele><time>2026-03-22T15:22:52.851Z</time></trkpt><trkpt lat="43.68759074362339" lon="11.070288090290834"><ele>66.75</ele><time>2026-03-22T15:22:53.851Z</time></trkpt><trkpt lat="43.68772208878182" lon="11.07027844884233"><ele>67.0</ele><time>2026-03-22T15:22:54.851Z</time></trkpt><trkpt lat="43.68786186377004" lon="11.070283297588892"><ele>67.0</ele><time>2026-03-22T15:22:55.851Z</time></trkpt><trkpt lat="43.68799622037491" lon="11.070303774927384"><ele>67.0</ele><time>2026-03-22T15:22:56.851Z</time></trkpt><trkpt lat="43.688141187215614" lon="11.070322258082637"><ele>67.0</ele><time>2026-03-22T15:22:57.851Z</time></trkpt><trkpt lat="43.68828308077678" lon="11.070339324199333"><ele>67.0</ele><time>2026-03-22T15:22:58.851Z</time></trkpt><trkpt lat="43.688415568950006" lon="11.070354349371287"><ele>67.0</ele><time>2026-03-22T15:22:59.851Z</time></trkpt><trkpt lat="43.68854126003622" lon="11.070370625287483"><ele>67.0</ele><time>2026-03-22T15:23:00.851Z</time></trkpt><trkpt lat="43.68866354346093" lon="11.07038360685034"><ele>67.0</ele><time>2026-03-22T15:23:01.851Z</time></trkpt><trkpt lat="43.688785867821935" lon="11.070399077758433"><ele>67.0</ele><time>2026-03-22T15:23:02.851Z</time></trkpt><trkpt lat="43.68890684671252" lon="11.070409867931565"><ele>66.75</ele><time>2026-03-22T15:23:03.851Z</time></trkpt><trkpt lat="43.68903350831504" lon="11.070421649383182"><ele>66.5</ele><time>2026-03-22T15:23:04.851Z</time></trkpt><trkpt lat="43.68915132834808" lon="11.070435195523594"><ele>66.25</ele><time>2026-03-22T15:23:05.851Z</time></trkpt><trkpt lat="43.68926435255895" lon="11.070440671873964"><ele>66.0</ele><time>2026-03-22T15:23:06.851Z</time></trkpt><trkpt lat="43.689369304170846" lon="11.070436522514763"><ele>66.0</ele><time>2026-03-22T15:23:07.851Z</time></trkpt><trkpt lat="43.68946189387817" lon="11.070425844798232"><ele>66.0</ele><time>2026-03-22T15:23:08.851Z</time></trkpt><trkpt lat="43.68953703903771" lon="11.070414760400649"><ele>66.0</ele><time>2026-03-22T15:23:09.85Z</time></trkpt><trkpt lat="43.68962525409613" lon="11.070427596182945"><ele>66.0</ele><time>2026-03-22T15:23:11.85Z</time></trkpt><trkpt lat="43.68968683770869" lon="11.070513670144756"><ele>66.0</ele><time>2026-03-22T15:23:16.85Z</time></trkpt><trkpt lat="43.68969939171151" lon="11.070397982429165"><ele>66.0</ele><time>2026-03-22T15:24:29.849Z</time></trkpt><trkpt lat="43.68975448869581" lon="11.070345696150873"><ele>66.0</ele><time>2026-03-22T15:24:31.849Z</time></trkpt><trkpt lat="43.689885204263454" lon="11.070270111818173"><ele>66.0</ele><time>2026-03-22T15:24:33.85Z</time></trkpt><trkpt lat="43.68998135157458" lon="11.070206872799398"><ele>66.0</ele><time>2026-03-22T15:24:34.85Z</time></trkpt><trkpt lat="43.690066566510446" lon="11.070150675310195"><ele>66.0</ele><time>2026-03-22T15:24:35.851Z</time></trkpt><trkpt lat="43.690124210009124" lon="11.070090328240434"><ele>66.0</ele><time>2026-03-22T15:24:36.851Z</time></trkpt><trkpt lat="43.690219925903996" lon="11.069946105039485"><ele>65.75</ele><time>2026-03-22T15:24:38.851Z</time></trkpt><trkpt lat="43.690294032225346" lon="11.069845238365374"><ele>65.5</ele><time>2026-03-22T15:24:39.852Z</time></trkpt><trkpt lat="43.6903846548228" lon="11.069720682874827"><ele>65.25</ele><time>2026-03-22T15:24:40.852Z</time></trkpt><trkpt lat="43.69049601561254" lon="11.069567710766364"><ele>65.0</ele><time>2026-03-22T15:24:41.851Z</time></trkpt><trkpt lat="43.6906145818368" lon="11.069416498327882"><ele>65.0</ele><time>2026-03-22T15:24:42.851Z</time></trkpt><trkpt lat="43.690755118247154" lon="11.069300687372262"><ele>65.0</ele><time>2026-03-22T15:24:43.851Z</time></trkpt><trkpt lat="43.69090400272012" lon="11.069214941047004"><ele>65.0</ele><time>2026-03-22T15:24:44.851Z</time></trkpt><trkpt lat="43.69106438422811" lon="11.069140286022265"><ele>65.0</ele><time>2026-03-22T15:24:45.85Z</time></trkpt><trkpt lat="43.691214274683155" lon="11.069108207188227"><ele>65.0</ele><time>2026-03-22T15:24:46.85Z</time></trkpt><trkpt lat="43.69135392180169" lon="11.069092236977813"><ele>65.0</ele><time>2026-03-22T15:24:47.85Z</time></trkpt><trkpt lat="43.691475664909156" lon="11.06911041767916"><ele>65.0</ele><time>2026-03-22T15:24:48.85Z</time></trkpt><trkpt lat="43.69160470975334" lon="11.069149194635008"><ele>64.75</ele><time>2026-03-22T15:24:49.85Z</time></trkpt><trkpt lat="43.69171725096109" lon="11.069184706855593"><ele>64.5</ele><time>2026-03-22T15:24:50.85Z</time></trkpt><trkpt lat="43.69185322594469" lon="11.069244518551796"><ele>64.25</ele><time>2026-03-22T15:24:51.85Z</time></trkpt><trkpt lat="43.69199275042692" lon="11.069301300501916"><ele>64.0</ele><time>2026-03-22T15:24:52.85Z</time></trkpt><trkpt lat="43.69212180072752" lon="11.069351327301645"><ele>63.5</ele><time>2026-03-22T15:24:53.85Z</time></trkpt><trkpt lat="43.69225767448374" lon="11.06939694149914"><ele>63.0</ele><time>2026-03-22T15:24:54.85Z</time></trkpt><trkpt lat="43.69240210887875" lon="11.069439286045172"><ele>62.5</ele><time>2026-03-22T15:24:55.85Z</time></trkpt><trkpt lat="43.69255690114874" lon="11.069486747885499"><ele>62.0</ele><time>2026-03-22T15:24:56.85Z</time></trkpt><trkpt lat="43.692711609801684" lon="11.069531209136818"><ele>61.75</ele><time>2026-03-22T15:24:57.85Z</time></trkpt><trkpt lat="43.692866791064844" lon="11.069560022719982"><ele>61.5</ele><time>2026-03-22T15:24:58.85Z</time></trkpt><trkpt lat="43.69300714258969" lon="11.06957465919542"><ele>61.25</ele><time>2026-03-22T15:24:59.85Z</time></trkpt><trkpt lat="43.693138581017436" lon="11.069569346542968"><ele>61.0</ele><time>2026-03-22T15:25:00.85Z</time></trkpt><trkpt lat="43.69325654015304" lon="11.069556891528675"><ele>61.0</ele><time>2026-03-22T15:25:01.85Z</time></trkpt><trkpt lat="43.693364718934156" lon="11.069544876550829"><ele>60.99999999999999</ele><time>2026-03-22T15:25:02.85Z</time></trkpt><trkpt lat="43.69346033900876" lon="11.069537952006316"><ele>60.99999999999999</ele><time>2026-03-22T15:25:03.85Z</time></trkpt><trkpt lat="43.69354182555083" lon="11.069525972206069"><ele>61.0</ele><time>2026-03-22T15:25:04.85Z</time></trkpt><trkpt lat="43.69361109145015" lon="11.069511368421674"><ele>61.0</ele><time>2026-03-22T15:25:05.85Z</time></trkpt><trkpt lat="43.693708641423115" lon="11.069500176164091"><ele>60.666666666666664</ele><time>2026-03-22T15:25:07.85Z</time></trkpt><trkpt lat="43.6937845379129" lon="11.069471330771366"><ele>60.33333333333333</ele><time>2026-03-22T15:25:49.849Z</time></trkpt><trkpt lat="43.69387460066871" lon="11.069422629969216"><ele>60.0</ele><time>2026-03-22T15:25:51.849Z</time></trkpt><trkpt lat="43.69393698965665" lon="11.069391551360546"><ele>59.66666666666667</ele><time>2026-03-22T15:25:52.849Z</time></trkpt><trkpt lat="43.69400771615052" lon="11.069360075318048"><ele>59.333333333333336</ele><time>2026-03-22T15:25:53.849Z</time></trkpt><trkpt lat="43.69409601721773" lon="11.069323414867364"><ele>59.0</ele><time>2026-03-22T15:25:54.849Z</time></trkpt><trkpt lat="43.694204216856555" lon="11.069287242972276"><ele>59.0</ele><time>2026-03-22T15:25:55.849Z</time></trkpt><trkpt lat="43.694325637968376" lon="11.069260182955682"><ele>59.0</ele><time>2026-03-22T15:25:56.849Z</time></trkpt><trkpt lat="43.6944541332909" lon="11.0692264174879"><ele>59.0</ele><time>2026-03-22T15:25:57.849Z</time></trkpt><trkpt lat="43.694576732584174" lon="11.069192643983358"><ele>59.0</ele><time>2026-03-22T15:25:58.849Z</time></trkpt><trkpt lat="43.69469398162301" lon="11.06916332167489"><ele>58.75</ele><time>2026-03-22T15:25:59.849Z</time></trkpt><trkpt lat="43.69482499850474" lon="11.069123646282979"><ele>58.5</ele><time>2026-03-22T15:26:00.849Z</time></trkpt><trkpt lat="43.694972872664565" lon="11.069083140627841"><ele>58.25</ele><time>2026-03-22T15:26:01.849Z</time></trkpt><trkpt lat="43.695125817138226" lon="11.069046209382307"><ele>58.0</ele><time>2026-03-22T15:26:02.849Z</time></trkpt><trkpt lat="43.69526827373484" lon="11.069016057826724"><ele>58.0</ele><time>2026-03-22T15:26:03.849Z</time></trkpt><trkpt lat="43.69540375247426" lon="11.068985574955478"><ele>58.0</ele><time>2026-03-22T15:26:04.849Z</time></trkpt><trkpt lat="43.69554290927288" lon="11.068955625388682"><ele>58.0</ele><time>2026-03-22T15:26:05.849Z</time></trkpt><trkpt lat="43.69568379168109" lon="11.068920957701883"><ele>58.0</ele><time>2026-03-22T15:26:06.849Z</time></trkpt><trkpt lat="43.69583064934733" lon="11.06889002398023"><ele>58.0</ele><time>2026-03-22T15:26:07.849Z</time></trkpt><trkpt lat="43.695985327994364" lon="11.068859161898454"><ele>58.0</ele><time>2026-03-22T15:26:08.848Z</time></trkpt><trkpt lat="43.696148272310424" lon="11.068821359074867"><ele>58.0</ele><time>2026-03-22T15:26:09.848Z</time></trkpt><trkpt lat="43.69628841446795" lon="11.068784666331288"><ele>58.25</ele><time>2026-03-22T15:26:10.848Z</time></trkpt><trkpt lat="43.696428993833" lon="11.06875290307282"><ele>58.5</ele><time>2026-03-22T15:26:11.848Z</time></trkpt><trkpt lat="43.69656169568519" lon="11.068728276367787"><ele>58.75</ele><time>2026-03-22T15:26:12.848Z</time></trkpt><trkpt lat="43.696700552811045" lon="11.068701538460143"><ele>59.0</ele><time>2026-03-22T15:26:13.848Z</time></trkpt><trkpt lat="43.69682838772736" lon="11.068684049053472"><ele>59.25</ele><time>2026-03-22T15:26:14.848Z</time></trkpt><trkpt lat="43.696956830963515" lon="11.068679150222417"><ele>59.5</ele><time>2026-03-22T15:26:15.848Z</time></trkpt><trkpt lat="43.69708097540705" lon="11.068687265194013"><ele>59.75</ele><time>2026-03-22T15:26:16.848Z</time></trkpt><trkpt lat="43.69722435441107" lon="11.068687838463925"><ele>60.0</ele><time>2026-03-22T15:26:17.848Z</time></trkpt><trkpt lat="43.697362380086766" lon="11.068695575384922"><ele>60.0</ele><time>2026-03-22T15:26:18.848Z</time></trkpt><trkpt lat="43.697505838104696" lon="11.068703711582737"><ele>60.0</ele><time>2026-03-22T15:26:19.848Z</time></trkpt><trkpt lat="43.69766504705511" lon="11.068711259683138"><ele>60.0</ele><time>2026-03-22T15:26:20.848Z</time></trkpt><trkpt lat="43.6978260748238" lon="11.068724811749332"><ele>60.33333333333333</ele><time>2026-03-22T15:26:21.848Z</time></trkpt><trkpt lat="43.697990537634055" lon="11.068733370479398"><ele>60.666666666666664</ele><time>2026-03-22T15:26:22.848Z</time></trkpt><trkpt lat="43.69815807954906" lon="11.068739344114185"><ele>61.0</ele><time>2026-03-22T15:26:23.848Z</time></trkpt><trkpt lat="43.698311511563446" lon="11.068740654311682"><ele>61.0</ele><time>2026-03-22T15:26:24.848Z</time></trkpt><trkpt lat="43.698459060824156" lon="11.068739743744453"><ele>61.0</ele><time>2026-03-22T15:26:25.848Z</time></trkpt><trkpt lat="43.698605606584316" lon="11.06874051905617"><ele>61.0</ele><time>2026-03-22T15:26:26.848Z</time></trkpt><trkpt lat="43.69875322548683" lon="11.068747002210408"><ele>61.0</ele><time>2026-03-22T15:26:27.848Z</time></trkpt><trkpt lat="43.69890519610368" lon="11.068752037007714"><ele>60.33333333333333</ele><time>2026-03-22T15:26:28.848Z</time></trkpt><trkpt lat="43.69906915168936" lon="11.068754435084072"><ele>59.66666666666667</ele><time>2026-03-22T15:26:29.848Z</time></trkpt><trkpt lat="43.69924186838138" lon="11.06874627328616"><ele>59.0</ele><time>2026-03-22T15:26:30.848Z</time></trkpt><trkpt lat="43.69940120067292" lon="11.068719760260738"><ele>58.5</ele><time>2026-03-22T15:26:31.848Z</time></trkpt><trkpt lat="43.69953848494787" lon="11.068690627882816"><ele>58.0</ele><time>2026-03-22T15:26:32.848Z</time></trkpt><trkpt lat="43.69966202121113" lon="11.068668121839739"><ele>57.5</ele><time>2026-03-22T15:26:33.848Z</time></trkpt><trkpt lat="43.69978321656221" lon="11.068643643675292"><ele>57.0</ele><time>2026-03-22T15:26:34.848Z</time></trkpt><trkpt lat="43.69989676718145" lon="11.068627194759452"><ele>57.0</ele><time>2026-03-22T15:26:35.848Z</time></trkpt><trkpt lat="43.70000736108663" lon="11.068607996961815"><ele>57.0</ele><time>2026-03-22T15:26:36.848Z</time></trkpt><trkpt lat="43.700128624234154" lon="11.068580923165099"><ele>57.0</ele><time>2026-03-22T15:26:37.851Z</time></trkpt><trkpt lat="43.70023362985508" lon="11.0685642837133"><ele>57.0</ele><time>2026-03-22T15:26:38.851Z</time></trkpt><trkpt lat="43.70035208121218" lon="11.068529834067009"><ele>57.75</ele><time>2026-03-22T15:26:39.851Z</time></trkpt><trkpt lat="43.70047691123421" lon="11.068509740035026"><ele>58.5</ele><time>2026-03-22T15:26:40.851Z</time></trkpt><trkpt lat="43.70059819703862" lon="11.068489013887746"><ele>59.25</ele><time>2026-03-22T15:26:41.851Z</time></trkpt><trkpt lat="43.700730906021754" lon="11.068447367530956"><ele>60.0</ele><time>2026-03-22T15:26:42.851Z</time></trkpt><trkpt lat="43.700853493005226" lon="11.068410288481989"><ele>60.0</ele><time>2026-03-22T15:26:43.851Z</time></trkpt><trkpt lat="43.70099149926257" lon="11.068396926310175"><ele>60.0</ele><time>2026-03-22T15:26:44.851Z</time></trkpt><trkpt lat="43.70111226641903" lon="11.068373958178219"><ele>60.0</ele><time>2026-03-22T15:26:45.851Z</time></trkpt><trkpt lat="43.701264001168674" lon="11.068352086055812"><ele>60.0</ele><time>2026-03-22T15:26:46.851Z</time></trkpt><trkpt lat="43.701409126713784" lon="11.068338638733604"><ele>60.0</ele><time>2026-03-22T15:26:47.85Z</time></trkpt><trkpt lat="43.701568470625034" lon="11.068326527152502"><ele>60.0</ele><time>2026-03-22T15:26:48.85Z</time></trkpt><trkpt lat="43.70171789910201" lon="11.06830316868598"><ele>60.0</ele><time>2026-03-22T15:26:49.851Z</time></trkpt><trkpt lat="43.7018758608998" lon="11.068283854592783"><ele>58.0</ele><time>2026-03-22T15:26:50.851Z</time></trkpt><trkpt lat="43.702045479413584" lon="11.068271679429248"><ele>56.0</ele><time>2026-03-22T15:26:51.851Z</time></trkpt><trkpt lat="43.70221129693541" lon="11.068264456746785"><ele>54.0</ele><time>2026-03-22T15:26:52.851Z</time></trkpt><trkpt lat="43.702386256047426" lon="11.068244818955641"><ele>54.0</ele><time>2026-03-22T15:26:53.851Z</time></trkpt><trkpt lat="43.70256347961816" lon="11.068225696306445"><ele>54.0</ele><time>2026-03-22T15:26:54.851Z</time></trkpt><trkpt lat="43.702732269565765" lon="11.068212103556979"><ele>54.0</ele><time>2026-03-22T15:26:55.851Z</time></trkpt><trkpt lat="43.70291055282822" lon="11.068198478179315"><ele>53.0</ele><time>2026-03-22T15:26:56.851Z</time></trkpt><trkpt lat="43.703085590380454" lon="11.068191288200696"><ele>52.0</ele><time>2026-03-22T15:26:57.851Z</time></trkpt><trkpt lat="43.70326085465738" lon="11.068185419877572"><ele>51.0</ele><time>2026-03-22T15:26:58.851Z</time></trkpt><trkpt lat="43.70344225294784" lon="11.068200080934426"><ele>51.33333333333333</ele><time>2026-03-22T15:26:59.851Z</time></trkpt><trkpt lat="43.70362798287629" lon="11.068224090486872"><ele>51.666666666666664</ele><time>2026-03-22T15:27:00.851Z</time></trkpt><trkpt lat="43.70380684189034" lon="11.068252850184207"><ele>52.0</ele><time>2026-03-22T15:27:01.851Z</time></trkpt><trkpt lat="43.703991173263994" lon="11.068298188541783"><ele>52.33333333333333</ele><time>2026-03-22T15:27:02.85Z</time></trkpt><trkpt lat="43.70417899570658" lon="11.068350491528149"><ele>52.66666666666667</ele><time>2026-03-22T15:27:03.85Z</time></trkpt><trkpt lat="43.704360374508624" lon="11.068417830626863"><ele>53.0</ele><time>2026-03-22T15:27:04.85Z</time></trkpt><trkpt lat="43.704530738292064" lon="11.068505144645503"><ele>53.0</ele><time>2026-03-22T15:27:05.85Z</time></trkpt><trkpt lat="43.7046979462623" lon="11.068617927023677"><ele>53.0</ele><time>2026-03-22T15:27:06.85Z</time></trkpt><trkpt lat="43.70485590577164" lon="11.068739015629976"><ele>53.0</ele><time>2026-03-22T15:27:07.85Z</time></trkpt><trkpt lat="43.705020454148226" lon="11.068860799121078"><ele>53.0</ele><time>2026-03-22T15:27:08.85Z</time></trkpt><trkpt lat="43.70518580932065" lon="11.068987310149792"><ele>53.0</ele><time>2026-03-22T15:27:09.85Z</time></trkpt><trkpt lat="43.70535790728965" lon="11.069118002013113"><ele>53.0</ele><time>2026-03-22T15:27:10.85Z</time></trkpt><trkpt lat="43.70552754249522" lon="11.069248280837389"><ele>51.66666666666667</ele><time>2026-03-22T15:27:11.85Z</time></trkpt><trkpt lat="43.70569613138794" lon="11.069376605035707"><ele>50.33333333333333</ele><time>2026-03-22T15:27:12.85Z</time></trkpt><trkpt lat="43.705867410685805" lon="11.069514099299402"><ele>49.0</ele><time>2026-03-22T15:27:13.85Z</time></trkpt><trkpt lat="43.706027394626176" lon="11.069643256859042"><ele>49.33333333333333</ele><time>2026-03-22T15:27:14.85Z</time></trkpt><trkpt lat="43.706176697120966" lon="11.069756122747512"><ele>49.66666666666667</ele><time>2026-03-22T15:27:15.85Z</time></trkpt><trkpt lat="43.70632158371347" lon="11.069861176121764"><ele>50.0</ele><time>2026-03-22T15:27:16.85Z</time></trkpt><trkpt lat="43.706447723098506" lon="11.069964714803458"><ele>50.25</ele><time>2026-03-22T15:27:17.85Z</time></trkpt><trkpt lat="43.70656380727911" lon="11.070074412518068"><ele>50.5</ele><time>2026-03-22T15:27:18.85Z</time></trkpt><trkpt lat="43.70668015932058" lon="11.070191881903218"><ele>50.75</ele><time>2026-03-22T15:27:19.85Z</time></trkpt><trkpt lat="43.70679034566225" lon="11.070326001864473"><ele>51.0</ele><time>2026-03-22T15:27:20.85Z</time></trkpt><trkpt lat="43.70687558211577" lon="11.070492268828621"><ele>50.75</ele><time>2026-03-22T15:27:21.85Z</time></trkpt><trkpt lat="43.70696721898101" lon="11.070641605100434"><ele>50.5</ele><time>2026-03-22T15:27:22.85Z</time></trkpt><trkpt lat="43.707055361875774" lon="11.070781053318582"><ele>50.25</ele><time>2026-03-22T15:27:23.85Z</time></trkpt><trkpt lat="43.70714169418387" lon="11.07089144563955"><ele>50.0</ele><time>2026-03-22T15:27:24.85Z</time></trkpt><trkpt lat="43.70720838411146" lon="11.07100294920425"><ele>50.00000000000001</ele><time>2026-03-22T15:27:25.85Z</time></trkpt><trkpt lat="43.70726103446787" lon="11.07110160313182"><ele>50.0</ele><time>2026-03-22T15:27:26.85Z</time></trkpt><trkpt lat="43.707289956211476" lon="11.071187829297962"><ele>50.0</ele><time>2026-03-22T15:27:27.85Z</time></trkpt><trkpt lat="43.70730678750717" lon="11.07130086519928"><ele>50.0</ele><time>2026-03-22T15:27:29.85Z</time></trkpt><trkpt lat="43.7073062604102" lon="11.071446529411604"><ele>50.00000000000001</ele><time>2026-03-22T15:27:31.85Z</time></trkpt><trkpt lat="43.707321217060795" lon="11.071536372592567"><ele>50.0</ele><time>2026-03-22T15:27:32.85Z</time></trkpt><trkpt lat="43.70738038455014" lon="11.071682311611646"><ele>50.2</ele><time>2026-03-22T15:27:34.85Z</time></trkpt><trkpt lat="43.70747733839796" lon="11.071744780554349"><ele>50.4</ele><time>2026-03-22T15:27:36.85Z</time></trkpt><trkpt lat="43.707608922817194" lon="11.071741909440151"><ele>50.599999999999994</ele><time>2026-03-22T15:27:38.85Z</time></trkpt><trkpt lat="43.70767339554924" lon="11.071710556954647"><ele>50.8</ele><time>2026-03-22T15:27:39.85Z</time></trkpt><trkpt lat="43.707752703639585" lon="11.071595086000949"><ele>51.0</ele><time>2026-03-22T15:27:41.85Z</time></trkpt><trkpt lat="43.70779105895532" lon="11.071432983833189"><ele>51.0</ele><time>2026-03-22T15:27:43.85Z</time></trkpt><trkpt lat="43.707797425404216" lon="11.071303203427119"><ele>51.0</ele><time>2026-03-22T15:27:44.849Z</time></trkpt><trkpt lat="43.70781414034113" lon="11.071168683738517"><ele>51.0</ele><time>2026-03-22T15:27:45.849Z</time></trkpt><trkpt lat="43.70784963813545" lon="11.071031630886226"><ele>51.0</ele><time>2026-03-22T15:27:46.849Z</time></trkpt><trkpt lat="43.707917280437606" lon="11.070896824694728"><ele>51.0</ele><time>2026-03-22T15:27:47.849Z</time></trkpt><trkpt lat="43.7080049663983" lon="11.070752196901974"><ele>50.33333333333333</ele><time>2026-03-22T15:27:48.849Z</time></trkpt><trkpt lat="43.70810632168946" lon="11.070603092769451"><ele>49.666666666666664</ele><time>2026-03-22T15:27:49.849Z</time></trkpt><trkpt lat="43.70822601262444" lon="11.070430968494117"><ele>49.0</ele><time>2026-03-22T15:27:50.849Z</time></trkpt><trkpt lat="43.708329730854246" lon="11.07024737576636"><ele>49.0</ele><time>2026-03-22T15:27:51.849Z</time></trkpt><trkpt lat="43.70844309249392" lon="11.070053346979785"><ele>49.0</ele><time>2026-03-22T15:27:52.849Z</time></trkpt><trkpt lat="43.70854994100785" lon="11.06986147346858"><ele>49.0</ele><time>2026-03-22T15:27:53.849Z</time></trkpt><trkpt lat="43.70866487921689" lon="11.069639552026628"><ele>49.33333333333333</ele><time>2026-03-22T15:27:54.849Z</time></trkpt><trkpt lat="43.7087657383086" lon="11.06939377184528"><ele>49.66666666666667</ele><time>2026-03-22T15:27:55.849Z</time></trkpt><trkpt lat="43.70885085937312" lon="11.069157788334596"><ele>50.0</ele><time>2026-03-22T15:27:56.849Z</time></trkpt><trkpt lat="43.70892119798451" lon="11.068899518866141"><ele>49.333333333333336</ele><time>2026-03-22T15:27:57.849Z</time></trkpt><trkpt lat="43.708973261827204" lon="11.06865042040483"><ele>48.66666666666667</ele><time>2026-03-22T15:27:58.849Z</time></trkpt><trkpt lat="43.709021553998426" lon="11.068390752976113"><ele>48.0</ele><time>2026-03-22T15:27:59.849Z</time></trkpt><trkpt lat="43.70906236167527" lon="11.068118110379167"><ele>48.0</ele><time>2026-03-22T15:28:00.849Z</time></trkpt><trkpt lat="43.70908638725871" lon="11.067818370112501"><ele>48.0</ele><time>2026-03-22T15:28:01.849Z</time></trkpt><trkpt lat="43.709112419158835" lon="11.067516522957833"><ele>48.0</ele><time>2026-03-22T15:28:02.849Z</time></trkpt><trkpt lat="43.709147913969566" lon="11.067218752670861"><ele>47.666666666666664</ele><time>2026-03-22T15:28:03.849Z</time></trkpt><trkpt lat="43.709181118874284" lon="11.066920786728181"><ele>47.33333333333333</ele><time>2026-03-22T15:28:04.849Z</time></trkpt><trkpt lat="43.70921909759219" lon="11.06660597367481"><ele>47.0</ele><time>2026-03-22T15:28:05.849Z</time></trkpt><trkpt lat="43.7092505312961" lon="11.066286137806998"><ele>47.0</ele><time>2026-03-22T15:28:06.849Z</time></trkpt><trkpt lat="43.70928316103402" lon="11.065962906315919"><ele>47.0</ele><time>2026-03-22T15:28:07.849Z</time></trkpt><trkpt lat="43.70931827484405" lon="11.065671171717737"><ele>47.33333333333333</ele><time>2026-03-22T15:28:08.849Z</time></trkpt><trkpt lat="43.7093530548969" lon="11.06539714086816"><ele>47.666666666666664</ele><time>2026-03-22T15:28:09.849Z</time></trkpt><trkpt lat="43.70938370084055" lon="11.065140198673635"><ele>48.0</ele><time>2026-03-22T15:28:10.849Z</time></trkpt><trkpt lat="43.709427574439495" lon="11.064882529623553"><ele>48.0</ele><time>2026-03-22T15:28:11.849Z</time></trkpt><trkpt lat="43.70948525756002" lon="11.064648838538314"><ele>48.0</ele><time>2026-03-22T15:28:12.849Z</time></trkpt><trkpt lat="43.70955577607895" lon="11.064401171952513"><ele>48.0</ele><time>2026-03-22T15:28:13.849Z</time></trkpt><trkpt lat="43.70964989302374" lon="11.064164261981889"><ele>48.0</ele><time>2026-03-22T15:28:14.849Z</time></trkpt><trkpt lat="43.70975178796206" lon="11.063939676973341"><ele>48.0</ele><time>2026-03-22T15:28:15.849Z</time></trkpt><trkpt lat="43.70985460292152" lon="11.063736277657748"><ele>48.0</ele><time>2026-03-22T15:28:16.849Z</time></trkpt><trkpt lat="43.70996049599431" lon="11.063571258958662"><ele>48.0</ele><time>2026-03-22T15:28:17.849Z</time></trkpt><trkpt lat="43.710057040275494" lon="11.063421355350599"><ele>48.0</ele><time>2026-03-22T15:28:18.849Z</time></trkpt><trkpt lat="43.71014448799912" lon="11.063300990783448"><ele>48.0</ele><time>2026-03-22T15:28:19.849Z</time></trkpt><trkpt lat="43.71022703058303" lon="11.06319983225855"><ele>48.0</ele><time>2026-03-22T15:28:20.849Z</time></trkpt><trkpt lat="43.71030238600984" lon="11.063116986582946"><ele>47.833333333333336</ele><time>2026-03-22T15:28:21.849Z</time></trkpt><trkpt lat="43.71038638475886" lon="11.063020370075543"><ele>47.666666666666664</ele><time>2026-03-22T15:28:22.849Z</time></trkpt><trkpt lat="43.71046594198304" lon="11.062947628989745"><ele>47.5</ele><time>2026-03-22T15:28:23.849Z</time></trkpt><trkpt lat="43.71053745741848" lon="11.062872417175585"><ele>47.33333333333333</ele><time>2026-03-22T15:28:24.849Z</time></trkpt><trkpt lat="43.71060219486871" lon="11.062822791191635"><ele>47.166666666666664</ele><time>2026-03-22T15:28:25.849Z</time></trkpt><trkpt lat="43.71065901905559" lon="11.062762125134585"><ele>47.0</ele><time>2026-03-22T15:28:26.849Z</time></trkpt><trkpt lat="43.7107155132346" lon="11.062716845564653"><ele>47.0</ele><time>2026-03-22T15:28:27.848Z</time></trkpt><trkpt lat="43.71083877094809" lon="11.062664155509978"><ele>47.0</ele><time>2026-03-22T15:28:29.848Z</time></trkpt><trkpt lat="43.71092123411424" lon="11.062656267388894"><ele>47.0</ele><time>2026-03-22T15:28:30.848Z</time></trkpt><trkpt lat="43.71101894859275" lon="11.062676850055679"><ele>47.0</ele><time>2026-03-22T15:28:31.848Z</time></trkpt><trkpt lat="43.711120722886506" lon="11.062699778062338"><ele>47.0</ele><time>2026-03-22T15:28:32.848Z</time></trkpt><trkpt lat="43.7112125357395" lon="11.062702314023532"><ele>47.2</ele><time>2026-03-22T15:28:33.848Z</time></trkpt><trkpt lat="43.71129967946969" lon="11.062642412787179"><ele>47.400000000000006</ele><time>2026-03-22T15:28:34.848Z</time></trkpt><trkpt lat="43.71136914972846" lon="11.062550613052725"><ele>47.599999999999994</ele><time>2026-03-22T15:28:35.848Z</time></trkpt><trkpt lat="43.711414198507654" lon="11.062424142732134"><ele>47.8</ele><time>2026-03-22T15:28:36.848Z</time></trkpt><trkpt lat="43.71142019563318" lon="11.062306148613"><ele>48.0</ele><time>2026-03-22T15:28:37.848Z</time></trkpt><trkpt lat="43.71139799822264" lon="11.062193752446515"><ele>48.0</ele><time>2026-03-22T15:28:38.848Z</time></trkpt><trkpt lat="43.711363554448496" lon="11.062107327715774"><ele>48.0</ele><time>2026-03-22T15:28:39.848Z</time></trkpt><trkpt lat="43.711305103432096" lon="11.062005772207664"><ele>48.0</ele><time>2026-03-22T15:28:40.848Z</time></trkpt><trkpt lat="43.711234886257074" lon="11.061915774162742"><ele>48.0</ele><time>2026-03-22T15:28:41.848Z</time></trkpt><trkpt lat="43.711164986476945" lon="11.06182818027707"><ele>48.0</ele><time>2026-03-22T15:28:42.851Z</time></trkpt><trkpt lat="43.71111380842885" lon="11.061750850435207"><ele>48.0</ele><time>2026-03-22T15:28:43.85Z</time></trkpt><trkpt lat="43.71109071677319" lon="11.061648774666667"><ele>48.0</ele><time>2026-03-22T15:28:44.85Z</time></trkpt><trkpt lat="43.71110386668382" lon="11.06153320849597"><ele>48.0</ele><time>2026-03-22T15:28:45.851Z</time></trkpt><trkpt lat="43.71113996117667" lon="11.061397504741993"><ele>48.0</ele><time>2026-03-22T15:28:46.85Z</time></trkpt><trkpt lat="43.711191714133406" lon="11.06124539473607"><ele>48.0</ele><time>2026-03-22T15:28:47.85Z</time></trkpt><trkpt lat="43.71124857244186" lon="11.061072947750644"><ele>48.0</ele><time>2026-03-22T15:28:48.85Z</time></trkpt><trkpt lat="43.71130324187328" lon="11.06090884917337"><ele>48.0</ele><time>2026-03-22T15:28:49.85Z</time></trkpt><trkpt lat="43.71136035235007" lon="11.060708521088625"><ele>48.0</ele><time>2026-03-22T15:28:50.85Z</time></trkpt><trkpt lat="43.71142456561843" lon="11.06049270814229"><ele>48.0</ele><time>2026-03-22T15:28:51.851Z</time></trkpt><trkpt lat="43.71149789183816" lon="11.060267519541664"><ele>48.0</ele><time>2026-03-22T15:28:52.85Z</time></trkpt><trkpt lat="43.711571271439816" lon="11.060053895613938"><ele>48.0</ele><time>2026-03-22T15:28:53.85Z</time></trkpt><trkpt lat="43.71162581874422" lon="11.059865932128206"><ele>48.0</ele><time>2026-03-22T15:28:54.851Z</time></trkpt><trkpt lat="43.71166228513083" lon="11.059678866607134"><ele>48.0</ele><time>2026-03-22T15:28:55.849Z</time></trkpt><trkpt lat="43.71167265278345" lon="11.05950532726997"><ele>48.0</ele><time>2026-03-22T15:28:56.849Z</time></trkpt><trkpt lat="43.71165977108635" lon="11.059328404622256"><ele>48.0</ele><time>2026-03-22T15:28:57.849Z</time></trkpt><trkpt lat="43.71163342015375" lon="11.059140404441003"><ele>48.0</ele><time>2026-03-22T15:28:58.849Z</time></trkpt><trkpt lat="43.711591381414465" lon="11.058956011168386"><ele>48.0</ele><time>2026-03-22T15:28:59.849Z</time></trkpt><trkpt lat="43.71153846946636" lon="11.058777427526932"><ele>48.0</ele><time>2026-03-22T15:29:00.849Z</time></trkpt><trkpt lat="43.71148501317019" lon="11.05861657814207"><ele>48.0</ele><time>2026-03-22T15:29:01.849Z</time></trkpt><trkpt lat="43.711446628264554" lon="11.058462592554834"><ele>48.0</ele><time>2026-03-22T15:29:02.849Z</time></trkpt><trkpt lat="43.71142003661807" lon="11.058304840137662"><ele>48.0</ele><time>2026-03-22T15:29:03.849Z</time></trkpt><trkpt lat="43.71142259408813" lon="11.058164563935899"><ele>48.0</ele><time>2026-03-22T15:29:04.849Z</time></trkpt><trkpt lat="43.711455192975784" lon="11.05801593299586"><ele>48.0</ele><time>2026-03-22T15:29:05.849Z</time></trkpt><trkpt lat="43.71152035113661" lon="11.05789040771857"><ele>48.0</ele><time>2026-03-22T15:29:06.849Z</time></trkpt><trkpt lat="43.71159875031406" lon="11.057797621659597"><ele>48.0</ele><time>2026-03-22T15:29:07.849Z</time></trkpt><trkpt lat="43.71170075495586" lon="11.057740342983996"><ele>48.0</ele><time>2026-03-22T15:29:08.849Z</time></trkpt><trkpt lat="43.71181408789805" lon="11.057732249304335"><ele>48.0</ele><time>2026-03-22T15:29:09.849Z</time></trkpt><trkpt lat="43.71193253137976" lon="11.05775097101977"><ele>48.0</ele><time>2026-03-22T15:29:10.849Z</time></trkpt><trkpt lat="43.71203136801788" lon="11.057809759881241"><ele>48.0</ele><time>2026-03-22T15:29:11.849Z</time></trkpt><trkpt lat="43.71210570870115" lon="11.057906843276928"><ele>48.0</ele><time>2026-03-22T15:29:12.849Z</time></trkpt><trkpt lat="43.712177983987125" lon="11.05804242458528"><ele>48.75</ele><time>2026-03-22T15:29:13.849Z</time></trkpt><trkpt lat="43.71221442459229" lon="11.05819761142696"><ele>49.5</ele><time>2026-03-22T15:29:14.849Z</time></trkpt><trkpt lat="43.71223658608899" lon="11.058383054130847"><ele>50.25</ele><time>2026-03-22T15:29:15.849Z</time></trkpt><trkpt lat="43.71224609753039" lon="11.058586945423752"><ele>51.0</ele><time>2026-03-22T15:29:16.849Z</time></trkpt><trkpt lat="43.71226438066599" lon="11.05880840387592"><ele>51.0</ele><time>2026-03-22T15:29:17.849Z</time></trkpt><trkpt lat="43.71229367126079" lon="11.05905651558416"><ele>51.0</ele><time>2026-03-22T15:29:18.849Z</time></trkpt><trkpt lat="43.712328254438724" lon="11.059316470352352"><ele>51.0</ele><time>2026-03-22T15:29:19.849Z</time></trkpt><trkpt lat="43.71235365069649" lon="11.0596134688631"><ele>50.66666666666667</ele><time>2026-03-22T15:29:20.849Z</time></trkpt><trkpt lat="43.71237372927261" lon="11.059898305398985"><ele>50.333333333333336</ele><time>2026-03-22T15:29:21.849Z</time></trkpt><trkpt lat="43.71239219116224" lon="11.06018329908487"><ele>50.0</ele><time>2026-03-22T15:29:22.849Z</time></trkpt><trkpt lat="43.71238684277516" lon="11.060481767449792"><ele>50.5</ele><time>2026-03-22T15:29:23.849Z</time></trkpt><trkpt lat="43.712386988044344" lon="11.060791780964708"><ele>51.0</ele><time>2026-03-22T15:29:24.849Z</time></trkpt><trkpt lat="43.712378204199766" lon="11.0611154164874"><ele>51.0</ele><time>2026-03-22T15:29:25.849Z</time></trkpt><trkpt lat="43.71237057471121" lon="11.061437456954462"><ele>51.0</ele><time>2026-03-22T15:29:26.849Z</time></trkpt><trkpt lat="43.71235218113352" lon="11.06177006276124"><ele>53.0</ele><time>2026-03-22T15:29:27.849Z</time></trkpt><trkpt lat="43.71232703932576" lon="11.062116203189506"><ele>55.0</ele><time>2026-03-22T15:29:28.849Z</time></trkpt><trkpt lat="43.71229403911927" lon="11.062459292953617"><ele>60.5</ele><time>2026-03-22T15:29:29.849Z</time></trkpt><trkpt lat="43.71224684309003" lon="11.062805990244147"><ele>66.0</ele><time>2026-03-22T15:29:30.849Z</time></trkpt><trkpt lat="43.712195229188815" lon="11.06315147291744"><ele>71.0</ele><time>2026-03-22T15:29:31.849Z</time></trkpt><trkpt lat="43.71214021156884" lon="11.063493050442219"><ele>76.0</ele><time>2026-03-22T15:29:32.849Z</time></trkpt><trkpt lat="43.712083386390475" lon="11.063829682533493"><ele>79.0</ele><time>2026-03-22T15:29:33.849Z</time></trkpt><trkpt lat="43.712027930288535" lon="11.064170230680205"><ele>82.0</ele><time>2026-03-22T15:29:34.849Z</time></trkpt><trkpt lat="43.711974142796805" lon="11.06450949317066"><ele>82.0</ele><time>2026-03-22T15:29:35.849Z</time></trkpt><trkpt lat="43.71192579182321" lon="11.064843510837173"><ele>82.0</ele><time>2026-03-22T15:29:36.848Z</time></trkpt><trkpt lat="43.711878726781286" lon="11.065181034114545"><ele>73.5</ele><time>2026-03-22T15:29:37.848Z</time></trkpt><trkpt lat="43.711844327074765" lon="11.065515387753296"><ele>65.0</ele><time>2026-03-22T15:29:38.848Z</time></trkpt><trkpt lat="43.71181703568292" lon="11.06585252247258"><ele>65.0</ele><time>2026-03-22T15:29:39.848Z</time></trkpt><trkpt lat="43.71180139236572" lon="11.066192993245078"><ele>65.0</ele><time>2026-03-22T15:29:40.848Z</time></trkpt><trkpt lat="43.711799691547036" lon="11.06654572888259"><ele>66.5</ele><time>2026-03-22T15:29:41.848Z</time></trkpt><trkpt lat="43.71182153128952" lon="11.066894540757914"><ele>68.0</ele><time>2026-03-22T15:29:42.848Z</time></trkpt><trkpt lat="43.711846388406165" lon="11.067259352915505"><ele>69.0</ele><time>2026-03-22T15:29:43.848Z</time></trkpt><trkpt lat="43.71189049016677" lon="11.067626933415859"><ele>70.0</ele><time>2026-03-22T15:29:44.848Z</time></trkpt><trkpt lat="43.71196019419715" lon="11.067994254312504"><ele>72.0</ele><time>2026-03-22T15:29:45.848Z</time></trkpt><trkpt lat="43.71204491436917" lon="11.068352685662106"><ele>74.0</ele><time>2026-03-22T15:29:46.848Z</time></trkpt><trkpt lat="43.712149992497324" lon="11.068704097628613"><ele>74.0</ele><time>2026-03-22T15:29:47.848Z</time></trkpt><trkpt lat="43.71228157942198" lon="11.069052625171647"><ele>74.0</ele><time>2026-03-22T15:29:48.848Z</time></trkpt><trkpt lat="43.71242613915969" lon="11.06938936919946"><ele>69.0</ele><time>2026-03-22T15:29:49.848Z</time></trkpt><trkpt lat="43.71258200495214" lon="11.06971200845621"><ele>64.0</ele><time>2026-03-22T15:29:50.848Z</time></trkpt><trkpt lat="43.71275796233244" lon="11.070017842369925"><ele>64.0</ele><time>2026-03-22T15:29:51.848Z</time></trkpt><trkpt lat="43.712951738017495" lon="11.070303397973596"><ele>64.0</ele><time>2026-03-22T15:29:52.848Z</time></trkpt><trkpt lat="43.713156158805546" lon="11.070565192842277"><ele>66.5</ele><time>2026-03-22T15:29:53.848Z</time></trkpt><trkpt lat="43.713368700015465" lon="11.070814270897182"><ele>69.0</ele><time>2026-03-22T15:29:54.848Z</time></trkpt><trkpt lat="43.7135943237526" lon="11.071043000449855"><ele>69.0</ele><time>2026-03-22T15:29:55.848Z</time></trkpt><trkpt lat="43.71382302196315" lon="11.071262437246531"><ele>69.0</ele><time>2026-03-22T15:29:56.848Z</time></trkpt><trkpt lat="43.71405375629154" lon="11.071469646809966"><ele>70.5</ele><time>2026-03-22T15:29:57.848Z</time></trkpt><trkpt lat="43.71428538466167" lon="11.071682226676462"><ele>72.0</ele><time>2026-03-22T15:29:58.848Z</time></trkpt><trkpt lat="43.71451090535477" lon="11.071904675717082"><ele>72.0</ele><time>2026-03-22T15:29:59.848Z</time></trkpt><trkpt lat="43.714737276096336" lon="11.07212810605922"><ele>72.0</ele><time>2026-03-22T15:30:00.848Z</time></trkpt><trkpt lat="43.7149614659316" lon="11.072346432353044"><ele>73.0</ele><time>2026-03-22T15:30:01.848Z</time></trkpt><trkpt lat="43.71518966785829" lon="11.07256687385175"><ele>74.0</ele><time>2026-03-22T15:30:02.848Z</time></trkpt><trkpt lat="43.71541758839029" lon="11.072790975136755"><ele>74.0</ele><time>2026-03-22T15:30:03.848Z</time></trkpt><trkpt lat="43.71565157908931" lon="11.073020961888012"><ele>74.0</ele><time>2026-03-22T15:30:04.848Z</time></trkpt><trkpt lat="43.71589349128591" lon="11.073250554042314"><ele>72.5</ele><time>2026-03-22T15:30:05.848Z</time></trkpt><trkpt lat="43.71613109665597" lon="11.073483484953064"><ele>71.0</ele><time>2026-03-22T15:30:06.848Z</time></trkpt><trkpt lat="43.716382126730856" lon="11.073717808089572"><ele>71.0</ele><time>2026-03-22T15:30:07.848Z</time></trkpt><trkpt lat="43.716634476256296" lon="11.073974759113677"><ele>71.0</ele><time>2026-03-22T15:30:08.848Z</time></trkpt><trkpt lat="43.716895289749594" lon="11.074227188627308"><ele>73.0</ele><time>2026-03-22T15:30:09.848Z</time></trkpt><trkpt lat="43.717152526311" lon="11.074471614379906"><ele>75.0</ele><time>2026-03-22T15:30:10.848Z</time></trkpt><trkpt lat="43.71739892791172" lon="11.074718461100879"><ele>76.5</ele><time>2026-03-22T15:30:11.848Z</time></trkpt><trkpt lat="43.71765667959309" lon="11.074962213110519"><ele>78.0</ele><time>2026-03-22T15:30:12.848Z</time></trkpt><trkpt lat="43.71791428450481" lon="11.075211912538654"><ele>78.5</ele><time>2026-03-22T15:30:13.848Z</time></trkpt><trkpt lat="43.71816392277885" lon="11.075447225084819"><ele>79.0</ele><time>2026-03-22T15:30:14.848Z</time></trkpt><trkpt lat="43.718411011003525" lon="11.07569313315291"><ele>79.5</ele><time>2026-03-22T15:30:15.848Z</time></trkpt><trkpt lat="43.71865968630135" lon="11.075931852623953"><ele>80.0</ele><time>2026-03-22T15:30:16.848Z</time></trkpt><trkpt lat="43.71890100788998" lon="11.07616991712075"><ele>80.0</ele><time>2026-03-22T15:30:17.848Z</time></trkpt><trkpt lat="43.719140472959054" lon="11.076405808775348"><ele>80.0</ele><time>2026-03-22T15:30:18.848Z</time></trkpt><trkpt lat="43.719381254371285" lon="11.076639087435225"><ele>81.5</ele><time>2026-03-22T15:30:19.847Z</time></trkpt><trkpt lat="43.71961438744166" lon="11.07688152500558"><ele>83.0</ele><time>2026-03-22T15:30:20.847Z</time></trkpt><trkpt lat="43.71983361691538" lon="11.077135027353705"><ele>83.0</ele><time>2026-03-22T15:30:21.847Z</time></trkpt><trkpt lat="43.72003426299495" lon="11.077400654843272"><ele>83.0</ele><time>2026-03-22T15:30:22.847Z</time></trkpt><trkpt lat="43.720224158263775" lon="11.077673697110736"><ele>84.5</ele><time>2026-03-22T15:30:23.847Z</time></trkpt><trkpt lat="43.720393874646824" lon="11.077956333686855"><ele>86.0</ele><time>2026-03-22T15:30:24.847Z</time></trkpt><trkpt lat="43.720553222642316" lon="11.07824232464391"><ele>87.5</ele><time>2026-03-22T15:30:25.847Z</time></trkpt><trkpt lat="43.72068656555539" lon="11.078513972463833"><ele>89.0</ele><time>2026-03-22T15:30:26.847Z</time></trkpt><trkpt lat="43.720802546119245" lon="11.078767886507846"><ele>89.0</ele><time>2026-03-22T15:30:27.847Z</time></trkpt><trkpt lat="43.720909355844014" lon="11.0790132446574"><ele>89.0</ele><time>2026-03-22T15:30:28.847Z</time></trkpt><trkpt lat="43.72102205675682" lon="11.079249854882397"><ele>89.0</ele><time>2026-03-22T15:30:29.847Z</time></trkpt><trkpt lat="43.721129150730874" lon="11.079497823220112"><ele>89.0</ele><time>2026-03-22T15:30:30.847Z</time></trkpt><trkpt lat="43.72123919588253" lon="11.079748344867198"><ele>89.0</ele><time>2026-03-22T15:30:31.847Z</time></trkpt><trkpt lat="43.721354038909716" lon="11.079999894756236"><ele>89.0</ele><time>2026-03-22T15:30:32.847Z</time></trkpt><trkpt lat="43.72146775842136" lon="11.080252340368018"><ele>90.33333333333334</ele><time>2026-03-22T15:30:33.847Z</time></trkpt><trkpt lat="43.72157866148819" lon="11.080510265093825"><ele>91.66666666666667</ele><time>2026-03-22T15:30:34.847Z</time></trkpt><trkpt lat="43.72169180792851" lon="11.080768386562346"><ele>93.0</ele><time>2026-03-22T15:30:35.847Z</time></trkpt><trkpt lat="43.72180481116721" lon="11.081027906480774"><ele>93.66666666666667</ele><time>2026-03-22T15:30:36.847Z</time></trkpt><trkpt lat="43.72192623740723" lon="11.081287241205478"><ele>94.33333333333334</ele><time>2026-03-22T15:30:37.847Z</time></trkpt><trkpt lat="43.72204211007364" lon="11.081552489001696"><ele>95.0</ele><time>2026-03-22T15:30:38.847Z</time></trkpt><trkpt lat="43.7221578883478" lon="11.081818665432882"><ele>95.0</ele><time>2026-03-22T15:30:39.847Z</time></trkpt><trkpt lat="43.72227960522928" lon="11.082092824485638"><ele>95.0</ele><time>2026-03-22T15:30:40.847Z</time></trkpt><trkpt lat="43.72239619125686" lon="11.082363073192433"><ele>99.0</ele><time>2026-03-22T15:30:41.847Z</time></trkpt><trkpt lat="43.722520503935" lon="11.082633486689886"><ele>103.0</ele><time>2026-03-22T15:30:42.847Z</time></trkpt><trkpt lat="43.722641482384674" lon="11.082905960969224"><ele>100.5</ele><time>2026-03-22T15:30:43.847Z</time></trkpt><trkpt lat="43.7227651762728" lon="11.083190769299952"><ele>98.0</ele><time>2026-03-22T15:30:44.847Z</time></trkpt><trkpt lat="43.72288842790749" lon="11.08347166825728"><ele>98.0</ele><time>2026-03-22T15:30:45.847Z</time></trkpt><trkpt lat="43.72301442130599" lon="11.083754257830012"><ele>98.0</ele><time>2026-03-22T15:30:46.847Z</time></trkpt><trkpt lat="43.72314530062961" lon="11.08404451014584"><ele>100.0</ele><time>2026-03-22T15:30:47.85Z</time></trkpt><trkpt lat="43.72327122195446" lon="11.08433343309185"><ele>102.0</ele><time>2026-03-22T15:30:48.849Z</time></trkpt><trkpt lat="43.72339898174897" lon="11.084624156261475"><ele>102.0</ele><time>2026-03-22T15:30:49.849Z</time></trkpt><trkpt lat="43.72352659958566" lon="11.08491652468234"><ele>102.0</ele><time>2026-03-22T15:30:50.849Z</time></trkpt><trkpt lat="43.72365498238457" lon="11.08520806467456"><ele>99.0</ele><time>2026-03-22T15:30:51.849Z</time></trkpt><trkpt lat="43.7237841525428" lon="11.08550012903698"><ele>96.0</ele><time>2026-03-22T15:30:52.849Z</time></trkpt><trkpt lat="43.723911521957376" lon="11.08578584157473"><ele>102.5</ele><time>2026-03-22T15:30:53.85Z</time></trkpt><trkpt lat="43.72404014310877" lon="11.086076213139254"><ele>109.0</ele><time>2026-03-22T15:30:54.849Z</time></trkpt><trkpt lat="43.72416725715131" lon="11.086365776689803"><ele>108.0</ele><time>2026-03-22T15:30:55.849Z</time></trkpt><trkpt lat="43.7242921613705" lon="11.08665059911484"><ele>107.0</ele><time>2026-03-22T15:30:56.85Z</time></trkpt><trkpt lat="43.7244135228992" lon="11.086924503518244"><ele>107.0</ele><time>2026-03-22T15:30:57.849Z</time></trkpt><trkpt lat="43.724534900108736" lon="11.087190849844292"><ele>107.0</ele><time>2026-03-22T15:30:58.849Z</time></trkpt><trkpt lat="43.72465166244517" lon="11.08745387631779"><ele>106.66666666666666</ele><time>2026-03-22T15:30:59.85Z</time></trkpt><trkpt lat="43.72476667785026" lon="11.087715932461887"><ele>106.33333333333334</ele><time>2026-03-22T15:31:00.85Z</time></trkpt><trkpt lat="43.724884983362095" lon="11.087975900755845"><ele>106.0</ele><time>2026-03-22T15:31:01.85Z</time></trkpt><trkpt lat="43.725002325865276" lon="11.088237926651095"><ele>105.5</ele><time>2026-03-22T15:31:02.85Z</time></trkpt><trkpt lat="43.725124565869194" lon="11.088508606788151"><ele>105.0</ele><time>2026-03-22T15:31:03.85Z</time></trkpt><trkpt lat="43.725243134519964" lon="11.088784382269392"><ele>105.0</ele><time>2026-03-22T15:31:04.85Z</time></trkpt><trkpt lat="43.72536726907184" lon="11.089060778200627"><ele>105.0</ele><time>2026-03-22T15:31:05.85Z</time></trkpt><trkpt lat="43.725490997992694" lon="11.089340759363331"><ele>108.0</ele><time>2026-03-22T15:31:06.85Z</time></trkpt><trkpt lat="43.72561743585493" lon="11.089614908720938"><ele>111.0</ele><time>2026-03-22T15:31:07.85Z</time></trkpt><trkpt lat="43.72574244152776" lon="11.089898098050377"><ele>116.5</ele><time>2026-03-22T15:31:08.85Z</time></trkpt><trkpt lat="43.725871248210645" lon="11.090185204982289"><ele>122.0</ele><time>2026-03-22T15:31:09.85Z</time></trkpt><trkpt lat="43.725998205635754" lon="11.090467723836412"><ele>117.5</ele><time>2026-03-22T15:31:10.85Z</time></trkpt><trkpt lat="43.72612295065027" lon="11.090760358048593"><ele>113.0</ele><time>2026-03-22T15:31:11.85Z</time></trkpt><trkpt lat="43.72626308581791" lon="11.091043112789638"><ele>113.0</ele><time>2026-03-22T15:31:12.85Z</time></trkpt><trkpt lat="43.72639064093658" lon="11.091347063967685"><ele>113.0</ele><time>2026-03-22T15:31:13.85Z</time></trkpt><trkpt lat="43.72652019788885" lon="11.0916466132648"><ele>114.5</ele><time>2026-03-22T15:31:14.849Z</time></trkpt><trkpt lat="43.72665346989312" lon="11.091944906579604"><ele>116.0</ele><time>2026-03-22T15:31:15.849Z</time></trkpt><trkpt lat="43.72678685462675" lon="11.092246549004102"><ele>119.0</ele><time>2026-03-22T15:31:16.849Z</time></trkpt><trkpt lat="43.7269227623668" lon="11.09255325622628"><ele>122.0</ele><time>2026-03-22T15:31:17.849Z</time></trkpt><trkpt lat="43.72705983222441" lon="11.092861349498621"><ele>122.0</ele><time>2026-03-22T15:31:18.849Z</time></trkpt><trkpt lat="43.727201921229586" lon="11.093172672349345"><ele>122.0</ele><time>2026-03-22T15:31:19.849Z</time></trkpt><trkpt lat="43.72734060528061" lon="11.093481697450342"><ele>125.5</ele><time>2026-03-22T15:31:20.849Z</time></trkpt><trkpt lat="43.72748362183367" lon="11.093795107211358"><ele>129.0</ele><time>2026-03-22T15:31:21.849Z</time></trkpt><trkpt lat="43.72763003912824" lon="11.094113355298898"><ele>127.0</ele><time>2026-03-22T15:31:22.849Z</time></trkpt><trkpt lat="43.72777064605979" lon="11.094429191065391"><ele>125.0</ele><time>2026-03-22T15:31:23.849Z</time></trkpt><trkpt lat="43.727909049118885" lon="11.094743106511938"><ele>129.0</ele><time>2026-03-22T15:31:24.849Z</time></trkpt><trkpt lat="43.72804615557364" lon="11.095055538812757"><ele>133.0</ele><time>2026-03-22T15:31:25.849Z</time></trkpt><trkpt lat="43.728183952209825" lon="11.095364225060612"><ele>133.0</ele><time>2026-03-22T15:31:26.849Z</time></trkpt><trkpt lat="43.72831981091521" lon="11.095672431329211"><ele>133.0</ele><time>2026-03-22T15:31:27.849Z</time></trkpt><trkpt lat="43.72846021280677" lon="11.095985190329198"><ele>132.5</ele><time>2026-03-22T15:31:28.849Z</time></trkpt><trkpt lat="43.72860618811448" lon="11.096298191797251"><ele>132.0</ele><time>2026-03-22T15:31:29.849Z</time></trkpt><trkpt lat="43.72874321399527" lon="11.096606124174993"><ele>136.0</ele><time>2026-03-22T15:31:30.849Z</time></trkpt><trkpt lat="43.72888155810934" lon="11.096912965068723"><ele>140.0</ele><time>2026-03-22T15:31:31.849Z</time></trkpt><trkpt lat="43.729023523213755" lon="11.097214754253931"><ele>143.5</ele><time>2026-03-22T15:31:32.849Z</time></trkpt><trkpt lat="43.72917359670445" lon="11.097508876883147"><ele>147.0</ele><time>2026-03-22T15:31:33.849Z</time></trkpt><trkpt lat="43.729332925106185" lon="11.097793871071099"><ele>145.5</ele><time>2026-03-22T15:31:34.849Z</time></trkpt><trkpt lat="43.72949886585338" lon="11.098069449799594"><ele>144.0</ele><time>2026-03-22T15:31:35.849Z</time></trkpt><trkpt lat="43.72966635294585" lon="11.09834255450172"><ele>144.0</ele><time>2026-03-22T15:31:36.849Z</time></trkpt><trkpt lat="43.7298429855318" lon="11.098614234201687"><ele>144.0</ele><time>2026-03-22T15:31:37.849Z</time></trkpt><trkpt lat="43.73001455746923" lon="11.098882360402248"><ele>144.0</ele><time>2026-03-22T15:31:38.849Z</time></trkpt><trkpt lat="43.73019271262247" lon="11.099157751696527"><ele>144.0</ele><time>2026-03-22T15:31:39.849Z</time></trkpt><trkpt lat="43.73036647104329" lon="11.09943012260094"><ele>145.5</ele><time>2026-03-22T15:31:40.849Z</time></trkpt><trkpt lat="43.73054990042832" lon="11.099708712037806"><ele>147.0</ele><time>2026-03-22T15:31:41.849Z</time></trkpt><trkpt lat="43.730725370283125" lon="11.09998424125465"><ele>147.0</ele><time>2026-03-22T15:31:42.849Z</time></trkpt><trkpt lat="43.730905003696414" lon="11.100268251970737"><ele>147.0</ele><time>2026-03-22T15:31:43.849Z</time></trkpt><trkpt lat="43.731082707845815" lon="11.100549976472525"><ele>150.0</ele><time>2026-03-22T15:31:44.849Z</time></trkpt><trkpt lat="43.731260641905806" lon="11.10083441249056"><ele>153.0</ele><time>2026-03-22T15:31:45.849Z</time></trkpt><trkpt lat="43.731438356236424" lon="11.101118476209995"><ele>153.0</ele><time>2026-03-22T15:31:46.849Z</time></trkpt><trkpt lat="43.731610615751265" lon="11.101412576543009"><ele>153.0</ele><time>2026-03-22T15:31:47.849Z</time></trkpt><trkpt lat="43.73177692954432" lon="11.101705928461582"><ele>157.0</ele><time>2026-03-22T15:31:48.849Z</time></trkpt><trkpt lat="43.73193334547996" lon="11.102008617154484"><ele>161.0</ele><time>2026-03-22T15:31:49.849Z</time></trkpt><trkpt lat="43.73209666724977" lon="11.10230802088326"><ele>161.5</ele><time>2026-03-22T15:31:50.849Z</time></trkpt><trkpt lat="43.73225558917819" lon="11.102614157915886"><ele>162.0</ele><time>2026-03-22T15:31:51.849Z</time></trkpt><trkpt lat="43.732409158237104" lon="11.102922460284942"><ele>162.0</ele><time>2026-03-22T15:31:52.849Z</time></trkpt><trkpt lat="43.73256508314648" lon="11.103231699757043"><ele>162.0</ele><time>2026-03-22T15:31:53.849Z</time></trkpt><trkpt lat="43.732720595903295" lon="11.10353506657016"><ele>163.5</ele><time>2026-03-22T15:31:54.849Z</time></trkpt><trkpt lat="43.732878207497265" lon="11.103831541390525"><ele>165.0</ele><time>2026-03-22T15:31:55.849Z</time></trkpt><trkpt lat="43.733032382043774" lon="11.104122198106515"><ele>165.0</ele><time>2026-03-22T15:31:56.848Z</time></trkpt><trkpt lat="43.73319142246141" lon="11.10439738945509"><ele>165.0</ele><time>2026-03-22T15:31:57.848Z</time></trkpt><trkpt lat="43.73335842788894" lon="11.10466278396493"><ele>166.0</ele><time>2026-03-22T15:31:58.848Z</time></trkpt><trkpt lat="43.73353227308059" lon="11.10491371932182"><ele>167.0</ele><time>2026-03-22T15:31:59.848Z</time></trkpt><trkpt lat="43.73371498489353" lon="11.105149892683205"><ele>167.0</ele><time>2026-03-22T15:32:00.848Z</time></trkpt><trkpt lat="43.733910281737934" lon="11.105366457232238"><ele>167.0</ele><time>2026-03-22T15:32:01.848Z</time></trkpt><trkpt lat="43.734114474413424" lon="11.105576883507824"><ele>162.0</ele><time>2026-03-22T15:32:02.848Z</time></trkpt><trkpt lat="43.73433290441719" lon="11.105773337643235"><ele>157.0</ele><time>2026-03-22T15:32:03.848Z</time></trkpt><trkpt lat="43.734557933110004" lon="11.105951994259584"><ele>157.0</ele><time>2026-03-22T15:32:04.848Z</time></trkpt><trkpt lat="43.73478764878545" lon="11.10613006187505"><ele>157.0</ele><time>2026-03-22T15:32:05.848Z</time></trkpt><trkpt lat="43.73501983955471" lon="11.106305369985023"><ele>157.0</ele><time>2026-03-22T15:32:06.848Z</time></trkpt><trkpt lat="43.73525173590732" lon="11.106482804729442"><ele>157.0</ele><time>2026-03-22T15:32:07.848Z</time></trkpt><trkpt lat="43.73548129149166" lon="11.106670899846144"><ele>155.0</ele><time>2026-03-22T15:32:08.848Z</time></trkpt><trkpt lat="43.73571282453686" lon="11.106862098749861"><ele>153.0</ele><time>2026-03-22T15:32:09.848Z</time></trkpt><trkpt lat="43.735939399849414" lon="11.10705361550961"><ele>153.0</ele><time>2026-03-22T15:32:10.848Z</time></trkpt><trkpt lat="43.736161277247476" lon="11.107256577206323"><ele>153.0</ele><time>2026-03-22T15:32:11.848Z</time></trkpt><trkpt lat="43.73637040187623" lon="11.10747328089328"><ele>153.0</ele><time>2026-03-22T15:32:12.848Z</time></trkpt><trkpt lat="43.73656500087641" lon="11.107717416916527"><ele>153.0</ele><time>2026-03-22T15:32:13.848Z</time></trkpt><trkpt lat="43.73675097459492" lon="11.107986429694577"><ele>151.0</ele><time>2026-03-22T15:32:14.848Z</time></trkpt><trkpt lat="43.73692247422256" lon="11.108259636845066"><ele>149.0</ele><time>2026-03-22T15:32:15.848Z</time></trkpt><trkpt lat="43.73709124265804" lon="11.108547439318317"><ele>149.0</ele><time>2026-03-22T15:32:16.848Z</time></trkpt><trkpt lat="43.73725232938245" lon="11.108833393419806"><ele>149.0</ele><time>2026-03-22T15:32:17.848Z</time></trkpt><trkpt lat="43.73741636279162" lon="11.109126984011764"><ele>149.0</ele><time>2026-03-22T15:32:18.848Z</time></trkpt><trkpt lat="43.7375855607617" lon="11.109419078356632"><ele>149.0</ele><time>2026-03-22T15:32:19.848Z</time></trkpt><trkpt lat="43.73775107851375" lon="11.109715198240584"><ele>147.0</ele><time>2026-03-22T15:32:20.848Z</time></trkpt><trkpt lat="43.73791799376127" lon="11.110016504719022"><ele>145.0</ele><time>2026-03-22T15:32:21.848Z</time></trkpt><trkpt lat="43.738086239033926" lon="11.1103197137301"><ele>145.0</ele><time>2026-03-22T15:32:22.848Z</time></trkpt><trkpt lat="43.738260918677284" lon="11.110621905567927"><ele>145.0</ele><time>2026-03-22T15:32:23.848Z</time></trkpt><trkpt lat="43.738433668130774" lon="11.110926240203156"><ele>151.5</ele><time>2026-03-22T15:32:24.848Z</time></trkpt><trkpt lat="43.738609480547716" lon="11.111236902982217"><ele>158.0</ele><time>2026-03-22T15:32:25.848Z</time></trkpt><trkpt lat="43.73878442866385" lon="11.111552124904852"><ele>156.0</ele><time>2026-03-22T15:32:26.848Z</time></trkpt><trkpt lat="43.73896615778952" lon="11.111876028032475"><ele>154.0</ele><time>2026-03-22T15:32:27.848Z</time></trkpt><trkpt lat="43.73915595282055" lon="11.112201847520497"><ele>156.5</ele><time>2026-03-22T15:32:28.848Z</time></trkpt><trkpt lat="43.73935109622886" lon="11.112543435314343"><ele>159.0</ele><time>2026-03-22T15:32:29.848Z</time></trkpt><trkpt lat="43.739558718707016" lon="11.112890186216315"><ele>157.5</ele><time>2026-03-22T15:32:30.848Z</time></trkpt><trkpt lat="43.739753309661396" lon="11.113239253390773"><ele>156.0</ele><time>2026-03-22T15:32:31.848Z</time></trkpt><trkpt lat="43.73993921122912" lon="11.11357864558522"><ele>156.0</ele><time>2026-03-22T15:32:32.848Z</time></trkpt><trkpt lat="43.74012897832477" lon="11.113913000883482"><ele>156.0</ele><time>2026-03-22T15:32:33.848Z</time></trkpt><trkpt lat="43.74031632161108" lon="11.114243227950412"><ele>158.5</ele><time>2026-03-22T15:32:34.848Z</time></trkpt><trkpt lat="43.74049728660267" lon="11.114565824967901"><ele>161.0</ele><time>2026-03-22T15:32:35.848Z</time></trkpt><trkpt lat="43.7406856605542" lon="11.114888135573345"><ele>158.0</ele><time>2026-03-22T15:32:36.848Z</time></trkpt><trkpt lat="43.74086053862732" lon="11.115184330577197"><ele>155.0</ele><time>2026-03-22T15:32:37.848Z</time></trkpt><trkpt lat="43.741039115998184" lon="11.115484368791586"><ele>155.0</ele><time>2026-03-22T15:32:38.847Z</time></trkpt><trkpt lat="43.74123185234743" lon="11.115771409714574"><ele>155.0</ele><time>2026-03-22T15:32:39.847Z</time></trkpt><trkpt lat="43.74143021401956" lon="11.11606087347241"><ele>155.0</ele><time>2026-03-22T15:32:40.847Z</time></trkpt><trkpt lat="43.7416310954897" lon="11.116333551353506"><ele>155.0</ele><time>2026-03-22T15:32:41.847Z</time></trkpt><trkpt lat="43.741828550529135" lon="11.116610784879338"><ele>155.0</ele><time>2026-03-22T15:32:42.847Z</time></trkpt><trkpt lat="43.74203968725154" lon="11.116876294079248"><ele>155.0</ele><time>2026-03-22T15:32:43.847Z</time></trkpt><trkpt lat="43.7422529842135" lon="11.117134025194305"><ele>153.5</ele><time>2026-03-22T15:32:44.847Z</time></trkpt><trkpt lat="43.74246633222241" lon="11.11741312623388"><ele>152.0</ele><time>2026-03-22T15:32:45.847Z</time></trkpt><trkpt lat="43.742676641901575" lon="11.11769101791272"><ele>152.5</ele><time>2026-03-22T15:32:46.847Z</time></trkpt><trkpt lat="43.7428859495461" lon="11.117966852108577"><ele>153.0</ele><time>2026-03-22T15:32:47.847Z</time></trkpt><trkpt lat="43.74309841098071" lon="11.118240305958095"><ele>150.0</ele><time>2026-03-22T15:32:48.847Z</time></trkpt><trkpt lat="43.74331529295725" lon="11.118511424361605"><ele>147.0</ele><time>2026-03-22T15:32:49.847Z</time></trkpt><trkpt lat="43.743536212277455" lon="11.11877624654528"><ele>149.0</ele><time>2026-03-22T15:32:50.847Z</time></trkpt><trkpt lat="43.74376392145478" lon="11.119030002099318"><ele>151.0</ele><time>2026-03-22T15:32:51.847Z</time></trkpt><trkpt lat="43.74399555928336" lon="11.119268205266131"><ele>147.5</ele><time>2026-03-22T15:32:52.847Z</time></trkpt><trkpt lat="43.744235977812075" lon="11.119483010181968"><ele>144.0</ele><time>2026-03-22T15:32:53.85Z</time></trkpt><trkpt lat="43.74448196556545" lon="11.119682538513512"><ele>144.0</ele><time>2026-03-22T15:32:54.85Z</time></trkpt><trkpt lat="43.74472859084533" lon="11.119857675903532"><ele>144.0</ele><time>2026-03-22T15:32:55.849Z</time></trkpt><trkpt lat="43.7449702880946" lon="11.120015744746762"><ele>133.0</ele><time>2026-03-22T15:32:56.849Z</time></trkpt><trkpt lat="43.74521357875522" lon="11.120152835300118"><ele>122.0</ele><time>2026-03-22T15:32:57.849Z</time></trkpt><trkpt lat="43.74545661153418" lon="11.120282088170896"><ele>122.0</ele><time>2026-03-22T15:32:58.849Z</time></trkpt><trkpt lat="43.74570448724083" lon="11.120391801735515"><ele>122.0</ele><time>2026-03-22T15:32:59.85Z</time></trkpt><trkpt lat="43.745945093990365" lon="11.120490957759179"><ele>122.5</ele><time>2026-03-22T15:33:00.849Z</time></trkpt><trkpt lat="43.74618527446333" lon="11.120580613022844"><ele>123.0</ele><time>2026-03-22T15:33:01.849Z</time></trkpt><trkpt lat="43.74642633524519" lon="11.120669094695659"><ele>126.0</ele><time>2026-03-22T15:33:02.849Z</time></trkpt><trkpt lat="43.7466683467627" lon="11.12075827936544"><ele>129.0</ele><time>2026-03-22T15:33:03.849Z</time></trkpt><trkpt lat="43.746896209037324" lon="11.12085030531669"><ele>129.0</ele><time>2026-03-22T15:33:04.849Z</time></trkpt><trkpt lat="43.747116601835195" lon="11.12093601507269"><ele>129.0</ele><time>2026-03-22T15:33:05.849Z</time></trkpt><trkpt lat="43.74733493731175" lon="11.121044337932071"><ele>129.0</ele><time>2026-03-22T15:33:06.849Z</time></trkpt><trkpt lat="43.74755557917938" lon="11.121161676975486"><ele>129.0</ele><time>2026-03-22T15:33:07.849Z</time></trkpt><trkpt lat="43.74777052819374" lon="11.121302584836736"><ele>126.66666666666666</ele><time>2026-03-22T15:33:08.849Z</time></trkpt><trkpt lat="43.747958800198255" lon="11.121436874056716"><ele>124.33333333333333</ele><time>2026-03-22T15:33:09.849Z</time></trkpt><trkpt lat="43.74811889984122" lon="11.121572045345859"><ele>122.0</ele><time>2026-03-22T15:33:10.849Z</time></trkpt><trkpt lat="43.748280865233475" lon="11.121709232488104"><ele>122.0</ele><time>2026-03-22T15:33:11.849Z</time></trkpt><trkpt lat="43.7484350315171" lon="11.121841939287922"><ele>122.0</ele><time>2026-03-22T15:33:12.849Z</time></trkpt><trkpt lat="43.74859737650642" lon="11.121982665506462"><ele>122.0</ele><time>2026-03-22T15:33:13.849Z</time></trkpt><trkpt lat="43.74876147249139" lon="11.12212980278321"><ele>122.33333333333333</ele><time>2026-03-22T15:33:14.849Z</time></trkpt><trkpt lat="43.748937393241434" lon="11.122284876495266"><ele>122.66666666666666</ele><time>2026-03-22T15:33:15.849Z</time></trkpt><trkpt lat="43.74911900251456" lon="11.122443691641317"><ele>123.0</ele><time>2026-03-22T15:33:16.849Z</time></trkpt><trkpt lat="43.74930668203787" lon="11.12260731576462"><ele>118.0</ele><time>2026-03-22T15:33:17.849Z</time></trkpt><trkpt lat="43.74949931688719" lon="11.12277719562893"><ele>113.0</ele><time>2026-03-22T15:33:18.849Z</time></trkpt><trkpt lat="43.749694083504544" lon="11.12295082845345"><ele>113.0</ele><time>2026-03-22T15:33:19.849Z</time></trkpt><trkpt lat="43.74988313609651" lon="11.123121921663694"><ele>113.0</ele><time>2026-03-22T15:33:20.849Z</time></trkpt><trkpt lat="43.75006748266429" lon="11.123289409778117"><ele>113.0</ele><time>2026-03-22T15:33:21.849Z</time></trkpt><trkpt lat="43.750251617304684" lon="11.123456223287908"><ele>111.5</ele><time>2026-03-22T15:33:22.849Z</time></trkpt><trkpt lat="43.75044065431107" lon="11.123627641587978"><ele>110.0</ele><time>2026-03-22T15:33:23.849Z</time></trkpt><trkpt lat="43.75063748804396" lon="11.1238006527549"><ele>110.0</ele><time>2026-03-22T15:33:24.848Z</time></trkpt><trkpt lat="43.75083566538677" lon="11.123977953748286"><ele>110.0</ele><time>2026-03-22T15:33:25.848Z</time></trkpt><trkpt lat="43.751035611903106" lon="11.124156315542992"><ele>110.0</ele><time>2026-03-22T15:33:26.848Z</time></trkpt><trkpt lat="43.75124229276376" lon="11.12433908791551"><ele>110.0</ele><time>2026-03-22T15:33:27.848Z</time></trkpt><trkpt lat="43.751452465423554" lon="11.12452372452117"><ele>110.0</ele><time>2026-03-22T15:33:28.848Z</time></trkpt><trkpt lat="43.751665082266264" lon="11.124712791593868"><ele>110.0</ele><time>2026-03-22T15:33:29.848Z</time></trkpt><trkpt lat="43.75187377200825" lon="11.1248943999947"><ele>105.0</ele><time>2026-03-22T15:33:30.848Z</time></trkpt><trkpt lat="43.75208413806378" lon="11.125080083610259"><ele>100.0</ele><time>2026-03-22T15:33:31.848Z</time></trkpt><trkpt lat="43.75229446367342" lon="11.125268781633844"><ele>100.0</ele><time>2026-03-22T15:33:32.848Z</time></trkpt><trkpt lat="43.75251000656461" lon="11.125454106881453"><ele>100.0</ele><time>2026-03-22T15:33:33.848Z</time></trkpt><trkpt lat="43.75273274799303" lon="11.125643240746104"><ele>96.0</ele><time>2026-03-22T15:33:34.848Z</time></trkpt><trkpt lat="43.75296749178831" lon="11.125824313828359"><ele>92.0</ele><time>2026-03-22T15:33:35.848Z</time></trkpt><trkpt lat="43.75321473999301" lon="11.125991505674238"><ele>92.0</ele><time>2026-03-22T15:33:36.848Z</time></trkpt><trkpt lat="43.75346954523179" lon="11.126138572004939"><ele>92.0</ele><time>2026-03-22T15:33:37.848Z</time></trkpt><trkpt lat="43.75373931291884" lon="11.126249612705621"><ele>93.0</ele><time>2026-03-22T15:33:38.848Z</time></trkpt><trkpt lat="43.75400714398036" lon="11.126336311302792"><ele>94.0</ele><time>2026-03-22T15:33:39.848Z</time></trkpt><trkpt lat="43.75428237958817" lon="11.126403935024118"><ele>92.5</ele><time>2026-03-22T15:33:40.848Z</time></trkpt><trkpt lat="43.75456765179611" lon="11.126450579812452"><ele>91.0</ele><time>2026-03-22T15:33:41.848Z</time></trkpt><trkpt lat="43.7548537305193" lon="11.126484353933686"><ele>91.0</ele><time>2026-03-22T15:33:42.848Z</time></trkpt><trkpt lat="43.755149706038345" lon="11.126507124756824"><ele>91.0</ele><time>2026-03-22T15:33:43.848Z</time></trkpt><trkpt lat="43.75544136067585" lon="11.126541392537899"><ele>82.0</ele><time>2026-03-22T15:33:44.848Z</time></trkpt><trkpt lat="43.755736519726604" lon="11.12657636760888"><ele>73.0</ele><time>2026-03-22T15:33:45.848Z</time></trkpt><trkpt lat="43.756030029779886" lon="11.126615652403677"><ele>72.5</ele><time>2026-03-22T15:33:46.848Z</time></trkpt><trkpt lat="43.75632605695584" lon="11.126653175904321"><ele>72.0</ele><time>2026-03-22T15:33:47.848Z</time></trkpt><trkpt lat="43.75662699826236" lon="11.126688209535725"><ele>74.0</ele><time>2026-03-22T15:33:48.848Z</time></trkpt><trkpt lat="43.756931772365256" lon="11.12671762681954"><ele>76.0</ele><time>2026-03-22T15:33:49.848Z</time></trkpt><trkpt lat="43.757235956198244" lon="11.126767994711765"><ele>76.0</ele><time>2026-03-22T15:33:50.848Z</time></trkpt><trkpt lat="43.75752453715115" lon="11.126823622162076"><ele>76.0</ele><time>2026-03-22T15:33:51.848Z</time></trkpt><trkpt lat="43.75781090852651" lon="11.126901712069401"><ele>77.0</ele><time>2026-03-22T15:33:52.848Z</time></trkpt><trkpt lat="43.75808031029734" lon="11.127006796883554"><ele>78.0</ele><time>2026-03-22T15:33:53.848Z</time></trkpt><trkpt lat="43.758343794296486" lon="11.127133351469022"><ele>77.5</ele><time>2026-03-22T15:33:54.848Z</time></trkpt><trkpt lat="43.75860855686337" lon="11.127271192019366"><ele>77.0</ele><time>2026-03-22T15:33:55.848Z</time></trkpt><trkpt lat="43.75886593053125" lon="11.12740603612325"><ele>71.5</ele><time>2026-03-22T15:33:56.848Z</time></trkpt><trkpt lat="43.75912511862205" lon="11.127528519185898"><ele>66.0</ele><time>2026-03-22T15:33:57.848Z</time></trkpt><trkpt lat="43.75938104871659" lon="11.12764152403273"><ele>65.0</ele><time>2026-03-22T15:33:58.848Z</time></trkpt><trkpt lat="43.759645810317906" lon="11.127731188130488"><ele>64.0</ele><time>2026-03-22T15:33:59.848Z</time></trkpt><trkpt lat="43.75991461354557" lon="11.127801068303546"><ele>64.0</ele><time>2026-03-22T15:34:00.848Z</time></trkpt><trkpt lat="43.76018884963194" lon="11.127840378141679"><ele>64.0</ele><time>2026-03-22T15:34:01.848Z</time></trkpt><trkpt lat="43.76045726939384" lon="11.127866077812726"><ele>61.0</ele><time>2026-03-22T15:34:02.848Z</time></trkpt><trkpt lat="43.76073194892374" lon="11.127858120902836"><ele>58.0</ele><time>2026-03-22T15:34:03.848Z</time></trkpt><trkpt lat="43.76100751580461" lon="11.127829390683177"><ele>55.5</ele><time>2026-03-22T15:34:04.848Z</time></trkpt><trkpt lat="43.761280450968876" lon="11.127780895048923"><ele>53.0</ele><time>2026-03-22T15:34:05.848Z</time></trkpt><trkpt lat="43.76155478531151" lon="11.127701040645888"><ele>53.0</ele><time>2026-03-22T15:34:06.848Z</time></trkpt><trkpt lat="43.76182868685529" lon="11.127597592330053"><ele>53.0</ele><time>2026-03-22T15:34:07.847Z</time></trkpt><trkpt lat="43.76210238223818" lon="11.127468914435495"><ele>54.0</ele><time>2026-03-22T15:34:08.847Z</time></trkpt><trkpt lat="43.762364740299525" lon="11.127336702860031"><ele>55.0</ele><time>2026-03-22T15:34:09.847Z</time></trkpt><trkpt lat="43.76262679239537" lon="11.127163908552708"><ele>52.0</ele><time>2026-03-22T15:34:10.847Z</time></trkpt><trkpt lat="43.762891302662936" lon="11.127009029338184"><ele>49.0</ele><time>2026-03-22T15:34:11.847Z</time></trkpt><trkpt lat="43.76314868087181" lon="11.126858009657457"><ele>49.0</ele><time>2026-03-22T15:34:12.847Z</time></trkpt><trkpt lat="43.763405295605885" lon="11.126698095695273"><ele>49.0</ele><time>2026-03-22T15:34:13.847Z</time></trkpt><trkpt lat="43.763667401398486" lon="11.126550124184632"><ele>47.0</ele><time>2026-03-22T15:34:14.847Z</time></trkpt><trkpt lat="43.76392540762308" lon="11.126397246591377"><ele>45.0</ele><time>2026-03-22T15:34:15.847Z</time></trkpt><trkpt lat="43.76417791367613" lon="11.126250968563548"><ele>43.0</ele><time>2026-03-22T15:34:16.847Z</time></trkpt><trkpt lat="43.764436618355774" lon="11.126098660000125"><ele>41.0</ele><time>2026-03-22T15:34:17.847Z</time></trkpt><trkpt lat="43.76469619812704" lon="11.125971390066828"><ele>41.0</ele><time>2026-03-22T15:34:18.847Z</time></trkpt><trkpt lat="43.76495991383792" lon="11.12586799572279"><ele>41.0</ele><time>2026-03-22T15:34:19.848Z</time></trkpt><trkpt lat="43.76523268850876" lon="11.125795124601103"><ele>40.5</ele><time>2026-03-22T15:34:20.848Z</time></trkpt><trkpt lat="43.76550613094544" lon="11.125735157012766"><ele>40.0</ele><time>2026-03-22T15:34:21.849Z</time></trkpt><trkpt lat="43.765777746683455" lon="11.125704214273311"><ele>40.0</ele><time>2026-03-22T15:34:22.849Z</time></trkpt><trkpt lat="43.766049853356954" lon="11.125689962631613"><ele>40.0</ele><time>2026-03-22T15:34:23.849Z</time></trkpt><trkpt lat="43.766320139156754" lon="11.125704150647511"><ele>40.0</ele><time>2026-03-22T15:34:24.85Z</time></trkpt><trkpt lat="43.766587051963356" lon="11.125743650252664"><ele>40.0</ele><time>2026-03-22T15:34:25.85Z</time></trkpt><trkpt lat="43.766853448813585" lon="11.125800233594635"><ele>38.5</ele><time>2026-03-22T15:34:26.85Z</time></trkpt><trkpt lat="43.767118226752224" lon="11.125870737963908"><ele>37.0</ele><time>2026-03-22T15:34:27.851Z</time></trkpt><trkpt lat="43.76738368548092" lon="11.125957387740936"><ele>37.0</ele><time>2026-03-22T15:34:28.851Z</time></trkpt><trkpt lat="43.767643004666496" lon="11.12604526136941"><ele>37.0</ele><time>2026-03-22T15:34:29.851Z</time></trkpt><trkpt lat="43.76790451920567" lon="11.126121979890558"><ele>36.5</ele><time>2026-03-22T15:34:30.852Z</time></trkpt><trkpt lat="43.76816357381753" lon="11.126197501398034"><ele>36.0</ele><time>2026-03-22T15:34:31.852Z</time></trkpt><trkpt lat="43.76842193780224" lon="11.126272835056305"><ele>35.5</ele><time>2026-03-22T15:34:32.852Z</time></trkpt><trkpt lat="43.7686741883043" lon="11.126349756306876"><ele>35.0</ele><time>2026-03-22T15:34:33.852Z</time></trkpt><trkpt lat="43.76892299248721" lon="11.126426940410276"><ele>35.0</ele><time>2026-03-22T15:34:34.852Z</time></trkpt><trkpt lat="43.76917383541424" lon="11.12650371914325"><ele>35.0</ele><time>2026-03-22T15:34:35.853Z</time></trkpt><trkpt lat="43.7694175680261" lon="11.126576954340239"><ele>36.5</ele><time>2026-03-22T15:34:36.853Z</time></trkpt><trkpt lat="43.76964321438376" lon="11.126655977948042"><ele>38.0</ele><time>2026-03-22T15:34:37.853Z</time></trkpt><trkpt lat="43.76987822137691" lon="11.126734120583318"><ele>38.0</ele><time>2026-03-22T15:34:38.853Z</time></trkpt><trkpt lat="43.77011490435731" lon="11.126830115232288"><ele>38.0</ele><time>2026-03-22T15:34:39.853Z</time></trkpt><trkpt lat="43.770357012545155" lon="11.12693835503112"><ele>38.5</ele><time>2026-03-22T15:34:40.853Z</time></trkpt><trkpt lat="43.770595243888536" lon="11.127060473753698"><ele>39.0</ele><time>2026-03-22T15:34:41.853Z</time></trkpt><trkpt lat="43.77082643757736" lon="11.12720680296427"><ele>38.5</ele><time>2026-03-22T15:34:42.853Z</time></trkpt><trkpt lat="43.7710515707824" lon="11.127385232677929"><ele>38.0</ele><time>2026-03-22T15:34:43.854Z</time></trkpt><trkpt lat="43.77127583676679" lon="11.12758575547747"><ele>37.0</ele><time>2026-03-22T15:34:44.854Z</time></trkpt><trkpt lat="43.77149585238829" lon="11.127798192013342"><ele>36.0</ele><time>2026-03-22T15:34:45.854Z</time></trkpt><trkpt lat="43.771703267288444" lon="11.12802516940564"><ele>36.0</ele><time>2026-03-22T15:34:46.854Z</time></trkpt><trkpt lat="43.77190020438618" lon="11.128276943304137"><ele>36.0</ele><time>2026-03-22T15:34:47.854Z</time></trkpt><trkpt lat="43.77208891407721" lon="11.128534670160702"><ele>36.0</ele><time>2026-03-22T15:34:48.854Z</time></trkpt><trkpt lat="43.77226644228403" lon="11.128825517823412"><ele>36.0</ele><time>2026-03-22T15:34:49.854Z</time></trkpt><trkpt lat="43.77243044197083" lon="11.12913460385677"><ele>36.0</ele><time>2026-03-22T15:34:50.854Z</time></trkpt><trkpt lat="43.77258706364873" lon="11.12945221935349"><ele>36.0</ele><time>2026-03-22T15:34:51.854Z</time></trkpt><trkpt lat="43.772723470536896" lon="11.129789722922151"><ele>35.0</ele><time>2026-03-22T15:34:52.854Z</time></trkpt><trkpt lat="43.7728470579898" lon="11.13013695477567"><ele>34.0</ele><time>2026-03-22T15:34:53.854Z</time></trkpt><trkpt lat="43.7729590589387" lon="11.130497330878297"><ele>34.0</ele><time>2026-03-22T15:34:54.854Z</time></trkpt><trkpt lat="43.7730561975521" lon="11.13085845936061"><ele>34.0</ele><time>2026-03-22T15:34:55.854Z</time></trkpt><trkpt lat="43.7731312251071" lon="11.131240187666288"><ele>34.5</ele><time>2026-03-22T15:34:56.854Z</time></trkpt><trkpt lat="43.77319171280139" lon="11.13162656884467"><ele>35.0</ele><time>2026-03-22T15:34:57.854Z</time></trkpt><trkpt lat="43.77323195171053" lon="11.132013136808608"><ele>35.5</ele><time>2026-03-22T15:34:58.854Z</time></trkpt><trkpt lat="43.77325705806469" lon="11.132393508968402"><ele>36.0</ele><time>2026-03-22T15:34:59.857Z</time></trkpt><trkpt lat="43.77328023426663" lon="11.132766913858177"><ele>36.0</ele><time>2026-03-22T15:35:00.857Z</time></trkpt><trkpt lat="43.773308084638224" lon="11.13311680853529"><ele>36.0</ele><time>2026-03-22T15:35:01.857Z</time></trkpt><trkpt lat="43.77333390438582" lon="11.133463198375887"><ele>36.5</ele><time>2026-03-22T15:35:02.857Z</time></trkpt><trkpt lat="43.77336102110277" lon="11.13381231504353"><ele>37.0</ele><time>2026-03-22T15:35:03.857Z</time></trkpt><trkpt lat="43.773387548549074" lon="11.13417529761633"><ele>37.0</ele><time>2026-03-22T15:35:04.857Z</time></trkpt><trkpt lat="43.77341217488645" lon="11.134527946002722"><ele>37.0</ele><time>2026-03-22T15:35:05.857Z</time></trkpt><trkpt lat="43.77343763103959" lon="11.134897279704886"><ele>35.5</ele><time>2026-03-22T15:35:06.858Z</time></trkpt><trkpt lat="43.77346244809569" lon="11.135254224664942"><ele>34.0</ele><time>2026-03-22T15:35:07.858Z</time></trkpt><trkpt lat="43.773486042216355" lon="11.135621291278454"><ele>34.5</ele><time>2026-03-22T15:35:08.857Z</time></trkpt><trkpt lat="43.77350964882374" lon="11.135987458483887"><ele>35.0</ele><time>2026-03-22T15:35:09.857Z</time></trkpt><trkpt lat="43.773539118547426" lon="11.136338465832594"><ele>36.0</ele><time>2026-03-22T15:35:10.857Z</time></trkpt><trkpt lat="43.77356279894277" lon="11.13669059230754"><ele>37.0</ele><time>2026-03-22T15:35:11.858Z</time></trkpt><trkpt lat="43.77358619661757" lon="11.137033634077412"><ele>37.0</ele><time>2026-03-22T15:35:12.858Z</time></trkpt><trkpt lat="43.77361498463854" lon="11.137380374852608"><ele>37.0</ele><time>2026-03-22T15:35:13.858Z</time></trkpt><trkpt lat="43.77363762276677" lon="11.137712875044521"><ele>36.0</ele><time>2026-03-22T15:35:14.858Z</time></trkpt><trkpt lat="43.77366175819685" lon="11.138038635743547"><ele>35.0</ele><time>2026-03-22T15:35:15.858Z</time></trkpt><trkpt lat="43.77368509423298" lon="11.138367125425852"><ele>34.5</ele><time>2026-03-22T15:35:16.858Z</time></trkpt><trkpt lat="43.773711304048234" lon="11.138697556973579"><ele>34.0</ele><time>2026-03-22T15:35:17.858Z</time></trkpt><trkpt lat="43.77373722186524" lon="11.13902611212593"><ele>35.0</ele><time>2026-03-22T15:35:18.858Z</time></trkpt><trkpt lat="43.773761810892914" lon="11.13935785806113"><ele>36.0</ele><time>2026-03-22T15:35:19.858Z</time></trkpt><trkpt lat="43.77378521766918" lon="11.139691612179346"><ele>36.5</ele><time>2026-03-22T15:35:20.858Z</time></trkpt><trkpt lat="43.77380723729068" lon="11.140021949804744"><ele>37.0</ele><time>2026-03-22T15:35:21.858Z</time></trkpt><trkpt lat="43.77382986689234" lon="11.140372897466298"><ele>37.0</ele><time>2026-03-22T15:35:22.858Z</time></trkpt><trkpt lat="43.77385513820847" lon="11.140705280367328"><ele>37.0</ele><time>2026-03-22T15:35:23.858Z</time></trkpt><trkpt lat="43.7738811935161" lon="11.141054133063959"><ele>37.0</ele><time>2026-03-22T15:35:24.858Z</time></trkpt><trkpt lat="43.773910144805825" lon="11.14139473367442"><ele>37.0</ele><time>2026-03-22T15:35:25.858Z</time></trkpt><trkpt lat="43.773932958116774" lon="11.14174978968233"><ele>36.5</ele><time>2026-03-22T15:35:26.858Z</time></trkpt><trkpt lat="43.773954601372225" lon="11.142112857126117"><ele>36.0</ele><time>2026-03-22T15:35:27.858Z</time></trkpt><trkpt lat="43.77397389553745" lon="11.142467694354428"><ele>37.0</ele><time>2026-03-22T15:35:28.858Z</time></trkpt><trkpt lat="43.773984340174984" lon="11.142824376752355"><ele>38.0</ele><time>2026-03-22T15:35:29.858Z</time></trkpt><trkpt lat="43.7739920364897" lon="11.143192127504733"><ele>37.0</ele><time>2026-03-22T15:35:30.858Z</time></trkpt><trkpt lat="43.77399534112131" lon="11.143549046008943"><ele>36.0</ele><time>2026-03-22T15:35:31.858Z</time></trkpt><trkpt lat="43.774004039151706" lon="11.143913659362969"><ele>35.5</ele><time>2026-03-22T15:35:32.858Z</time></trkpt><trkpt lat="43.77401293794803" lon="11.144291418733195"><ele>35.0</ele><time>2026-03-22T15:35:33.858Z</time></trkpt><trkpt lat="43.7740144045602" lon="11.144649867030893"><ele>35.5</ele><time>2026-03-22T15:35:34.858Z</time></trkpt><trkpt lat="43.77402309316294" lon="11.145017825129832"><ele>36.0</ele><time>2026-03-22T15:35:35.858Z</time></trkpt><trkpt lat="43.77403252503985" lon="11.145357969862763"><ele>36.0</ele><time>2026-03-22T15:35:36.858Z</time></trkpt><trkpt lat="43.77403388531455" lon="11.145694444372594"><ele>36.0</ele><time>2026-03-22T15:35:37.858Z</time></trkpt><trkpt lat="43.7740381215347" lon="11.146028065289608"><ele>35.0</ele><time>2026-03-22T15:35:38.858Z</time></trkpt><trkpt lat="43.77404327397391" lon="11.146360620514725"><ele>34.0</ele><time>2026-03-22T15:35:39.857Z</time></trkpt><trkpt lat="43.77405014434302" lon="11.146703244461705"><ele>34.0</ele><time>2026-03-22T15:35:40.857Z</time></trkpt><trkpt lat="43.774054536828785" lon="11.147053487756455"><ele>34.0</ele><time>2026-03-22T15:35:41.857Z</time></trkpt><trkpt lat="43.774063644965004" lon="11.147394226735635"><ele>33.5</ele><time>2026-03-22T15:35:42.857Z</time></trkpt><trkpt lat="43.774063481073476" lon="11.147746338882577"><ele>33.0</ele><time>2026-03-22T15:35:43.857Z</time></trkpt><trkpt lat="43.77407128858549" lon="11.148092232262885"><ele>34.0</ele><time>2026-03-22T15:35:44.857Z</time></trkpt><trkpt lat="43.77407599796353" lon="11.148441285966461"><ele>35.0</ele><time>2026-03-22T15:35:45.857Z</time></trkpt><trkpt lat="43.774079711250664" lon="11.14878739458397"><ele>35.0</ele><time>2026-03-22T15:35:46.857Z</time></trkpt><trkpt lat="43.77408697214806" lon="11.149128478623657"><ele>35.0</ele><time>2026-03-22T15:35:47.857Z</time></trkpt><trkpt lat="43.77409071735794" lon="11.149457277845647"><ele>35.0</ele><time>2026-03-22T15:35:48.857Z</time></trkpt><trkpt lat="43.77409369871645" lon="11.149765708826559"><ele>35.0</ele><time>2026-03-22T15:35:49.857Z</time></trkpt><trkpt lat="43.77409824784533" lon="11.150072098269272"><ele>35.0</ele><time>2026-03-22T15:35:50.857Z</time></trkpt><trkpt lat="43.77410208667301" lon="11.150387883694219"><ele>34.5</ele><time>2026-03-22T15:35:51.857Z</time></trkpt><trkpt lat="43.7741087037944" lon="11.15069736617179"><ele>34.0</ele><time>2026-03-22T15:35:52.857Z</time></trkpt><trkpt lat="43.77411503544968" lon="11.151028606232071"><ele>35.0</ele><time>2026-03-22T15:35:53.857Z</time></trkpt><trkpt lat="43.774125594089206" lon="11.151353209562869"><ele>36.0</ele><time>2026-03-22T15:35:54.857Z</time></trkpt><trkpt lat="43.77413051996906" lon="11.151690226443888"><ele>36.0</ele><time>2026-03-22T15:35:55.857Z</time></trkpt><trkpt lat="43.774134401491494" lon="11.152023526118889"><ele>36.0</ele><time>2026-03-22T15:35:56.857Z</time></trkpt><trkpt lat="43.774143251244986" lon="11.152361668913462"><ele>35.5</ele><time>2026-03-22T15:35:57.857Z</time></trkpt><trkpt lat="43.77414772302442" lon="11.152685809726382"><ele>35.0</ele><time>2026-03-22T15:35:58.857Z</time></trkpt><trkpt lat="43.774157017428" lon="11.153002424504455"><ele>36.0</ele><time>2026-03-22T15:35:59.857Z</time></trkpt><trkpt lat="43.77416553562249" lon="11.153322061870727"><ele>37.0</ele><time>2026-03-22T15:36:00.857Z</time></trkpt><trkpt lat="43.77417431942436" lon="11.153641519114599"><ele>37.0</ele><time>2026-03-22T15:36:01.857Z</time></trkpt><trkpt lat="43.77418013192114" lon="11.153973457145206"><ele>37.0</ele><time>2026-03-22T15:36:02.857Z</time></trkpt><trkpt lat="43.77418025940416" lon="11.154315723256676"><ele>36.5</ele><time>2026-03-22T15:36:03.857Z</time></trkpt><trkpt lat="43.774184582578876" lon="11.154657666364539"><ele>36.0</ele><time>2026-03-22T15:36:04.857Z</time></trkpt><trkpt lat="43.774160914245826" lon="11.155010036654746"><ele>36.0</ele><time>2026-03-22T15:36:05.857Z</time></trkpt><trkpt lat="43.774137585700366" lon="11.155377523093968"><ele>36.0</ele><time>2026-03-22T15:36:06.857Z</time></trkpt><trkpt lat="43.774105067752046" lon="11.155724827481276"><ele>36.0</ele><time>2026-03-22T15:36:07.857Z</time></trkpt><trkpt lat="43.77406716363741" lon="11.156074342359133"><ele>36.0</ele><time>2026-03-22T15:36:08.857Z</time></trkpt><trkpt lat="43.774024865254454" lon="11.156422193221365"><ele>36.5</ele><time>2026-03-22T15:36:09.857Z</time></trkpt><trkpt lat="43.7739813788504" lon="11.15676079264885"><ele>37.0</ele><time>2026-03-22T15:36:10.857Z</time></trkpt><trkpt lat="43.77392947627852" lon="11.157075074773685"><ele>36.0</ele><time>2026-03-22T15:36:11.857Z</time></trkpt><trkpt lat="43.773879467825466" lon="11.157378675530117"><ele>35.0</ele><time>2026-03-22T15:36:12.857Z</time></trkpt><trkpt lat="43.773823329266484" lon="11.157695857676634"><ele>35.0</ele><time>2026-03-22T15:36:13.857Z</time></trkpt><trkpt lat="43.77377138470135" lon="11.15800133573119"><ele>35.0</ele><time>2026-03-22T15:36:14.857Z</time></trkpt><trkpt lat="43.7737160771586" lon="11.158310882610595"><ele>35.0</ele><time>2026-03-22T15:36:15.857Z</time></trkpt><trkpt lat="43.77365680693199" lon="11.158619545513172"><ele>35.0</ele><time>2026-03-22T15:36:16.857Z</time></trkpt><trkpt lat="43.7735964957361" lon="11.158917865362975"><ele>35.0</ele><time>2026-03-22T15:36:17.857Z</time></trkpt><trkpt lat="43.7735370673632" lon="11.159194207729621"><ele>35.0</ele><time>2026-03-22T15:36:18.857Z</time></trkpt><trkpt lat="43.77348810460381" lon="11.159464146917156"><ele>35.0</ele><time>2026-03-22T15:36:19.857Z</time></trkpt><trkpt lat="43.77343800871548" lon="11.159737555628853"><ele>35.666666666666664</ele><time>2026-03-22T15:36:20.857Z</time></trkpt><trkpt lat="43.773382257568784" lon="11.160020832823198"><ele>36.333333333333336</ele><time>2026-03-22T15:36:21.857Z</time></trkpt><trkpt lat="43.77332818967166" lon="11.16032636252148"><ele>37.0</ele><time>2026-03-22T15:36:22.857Z</time></trkpt><trkpt lat="43.77327569073012" lon="11.160631312943286"><ele>36.5</ele><time>2026-03-22T15:36:23.857Z</time></trkpt><trkpt lat="43.77321966483486" lon="11.160948687600046"><ele>36.0</ele><time>2026-03-22T15:36:24.857Z</time></trkpt><trkpt lat="43.77316276999617" lon="11.161263317528338"><ele>35.5</ele><time>2026-03-22T15:36:25.857Z</time></trkpt><trkpt lat="43.77309951340784" lon="11.161602395628572"><ele>35.0</ele><time>2026-03-22T15:36:26.856Z</time></trkpt><trkpt lat="43.77303262805366" lon="11.16194664009095"><ele>35.0</ele><time>2026-03-22T15:36:27.856Z</time></trkpt><trkpt lat="43.77296575344588" lon="11.162299545757547"><ele>35.0</ele><time>2026-03-22T15:36:28.856Z</time></trkpt><trkpt lat="43.77290264934538" lon="11.162652448868261"><ele>35.0</ele><time>2026-03-22T15:36:29.856Z</time></trkpt><trkpt lat="43.772835783324815" lon="11.163008468328806"><ele>35.0</ele><time>2026-03-22T15:36:30.856Z</time></trkpt><trkpt lat="43.772769030135976" lon="11.16336941534347"><ele>35.0</ele><time>2026-03-22T15:36:31.856Z</time></trkpt><trkpt lat="43.77270146426919" lon="11.16372938465861"><ele>35.0</ele><time>2026-03-22T15:36:32.856Z</time></trkpt><trkpt lat="43.772634672570746" lon="11.164095773859145"><ele>34.5</ele><time>2026-03-22T15:36:33.856Z</time></trkpt><trkpt lat="43.77256467952644" lon="11.164462505227862"><ele>34.0</ele><time>2026-03-22T15:36:34.856Z</time></trkpt><trkpt lat="43.77249511235651" lon="11.16483598115157"><ele>34.0</ele><time>2026-03-22T15:36:35.856Z</time></trkpt><trkpt lat="43.77242304097297" lon="11.16521442857604"><ele>34.0</ele><time>2026-03-22T15:36:36.856Z</time></trkpt><trkpt lat="43.7723558848646" lon="11.16559153151493"><ele>36.0</ele><time>2026-03-22T15:36:37.856Z</time></trkpt><trkpt lat="43.77228430027041" lon="11.165971271114255"><ele>38.0</ele><time>2026-03-22T15:36:38.856Z</time></trkpt><trkpt lat="43.772215375265645" lon="11.166352831808176"><ele>38.0</ele><time>2026-03-22T15:36:39.856Z</time></trkpt><trkpt lat="43.77214661606052" lon="11.166737777982222"><ele>38.0</ele><time>2026-03-22T15:36:40.856Z</time></trkpt><trkpt lat="43.77207489420332" lon="11.16712718571847"><ele>36.0</ele><time>2026-03-22T15:36:41.856Z</time></trkpt><trkpt lat="43.77200140662883" lon="11.167515972464782"><ele>34.0</ele><time>2026-03-22T15:36:42.856Z</time></trkpt><trkpt lat="43.771928182403705" lon="11.167914994449005"><ele>35.0</ele><time>2026-03-22T15:36:43.856Z</time></trkpt><trkpt lat="43.77185645355822" lon="11.168301912379818"><ele>36.0</ele><time>2026-03-22T15:36:44.856Z</time></trkpt><trkpt lat="43.77178095882845" lon="11.168682885211899"><ele>36.0</ele><time>2026-03-22T15:36:45.856Z</time></trkpt><trkpt lat="43.77170832844023" lon="11.169069712402434"><ele>36.0</ele><time>2026-03-22T15:36:46.856Z</time></trkpt><trkpt lat="43.77163626925608" lon="11.169456374275278"><ele>36.0</ele><time>2026-03-22T15:36:47.856Z</time></trkpt><trkpt lat="43.77156910949376" lon="11.169847806994953"><ele>36.0</ele><time>2026-03-22T15:36:48.856Z</time></trkpt><trkpt lat="43.77149668770874" lon="11.170239327040685"><ele>36.0</ele><time>2026-03-22T15:36:49.856Z</time></trkpt><trkpt lat="43.771426654480045" lon="11.170623958161215"><ele>36.0</ele><time>2026-03-22T15:36:50.856Z</time></trkpt><trkpt lat="43.77135489228659" lon="11.171004454264162"><ele>36.0</ele><time>2026-03-22T15:36:51.856Z</time></trkpt><trkpt lat="43.77128241258994" lon="11.171392360074742"><ele>36.0</ele><time>2026-03-22T15:36:52.856Z</time></trkpt><trkpt lat="43.77121105435909" lon="11.171778306102535"><ele>36.0</ele><time>2026-03-22T15:36:53.856Z</time></trkpt><trkpt lat="43.77113736279168" lon="11.1721556884697"><ele>36.0</ele><time>2026-03-22T15:36:54.856Z</time></trkpt><trkpt lat="43.771068790462806" lon="11.17254348111256"><ele>36.5</ele><time>2026-03-22T15:36:55.856Z</time></trkpt><trkpt lat="43.77099542012972" lon="11.172922537536376"><ele>37.0</ele><time>2026-03-22T15:36:56.856Z</time></trkpt><trkpt lat="43.77092433724771" lon="11.173299128231292"><ele>37.0</ele><time>2026-03-22T15:36:57.856Z</time></trkpt><trkpt lat="43.770855520833955" lon="11.173676196469291"><ele>37.0</ele><time>2026-03-22T15:36:58.856Z</time></trkpt><trkpt lat="43.77079118969674" lon="11.174062812040834"><ele>37.0</ele><time>2026-03-22T15:36:59.856Z</time></trkpt><trkpt lat="43.770728173919174" lon="11.174450617400879"><ele>37.0</ele><time>2026-03-22T15:37:00.856Z</time></trkpt><trkpt lat="43.77066604743719" lon="11.174830628527578"><ele>37.5</ele><time>2026-03-22T15:37:01.856Z</time></trkpt><trkpt lat="43.77060611306905" lon="11.17521444643371"><ele>38.0</ele><time>2026-03-22T15:37:02.856Z</time></trkpt><trkpt lat="43.77055179818249" lon="11.175597734961569"><ele>37.5</ele><time>2026-03-22T15:37:03.856Z</time></trkpt><trkpt lat="43.77050055651406" lon="11.175982197899884"><ele>37.0</ele><time>2026-03-22T15:37:04.856Z</time></trkpt><trkpt lat="43.770445735988666" lon="11.176374173932498"><ele>36.0</ele><time>2026-03-22T15:37:05.857Z</time></trkpt><trkpt lat="43.770402127432206" lon="11.176759682697796"><ele>35.0</ele><time>2026-03-22T15:37:06.857Z</time></trkpt><trkpt lat="43.770360254522956" lon="11.177151428011005"><ele>37.0</ele><time>2026-03-22T15:37:07.857Z</time></trkpt><trkpt lat="43.77032523048223" lon="11.177541521047786"><ele>39.0</ele><time>2026-03-22T15:37:08.858Z</time></trkpt><trkpt lat="43.77029590249406" lon="11.177930816712413"><ele>39.0</ele><time>2026-03-22T15:37:09.858Z</time></trkpt><trkpt lat="43.770274167770864" lon="11.178311570147283"><ele>39.0</ele><time>2026-03-22T15:37:10.858Z</time></trkpt><trkpt lat="43.770254532452896" lon="11.1787051763759"><ele>37.0</ele><time>2026-03-22T15:37:11.857Z</time></trkpt><trkpt lat="43.77023795332656" lon="11.179094359242836"><ele>35.0</ele><time>2026-03-22T15:37:12.857Z</time></trkpt><trkpt lat="43.77022672282639" lon="11.179499205308653"><ele>35.0</ele><time>2026-03-22T15:37:13.857Z</time></trkpt><trkpt lat="43.77022141799827" lon="11.179892744211799"><ele>35.0</ele><time>2026-03-22T15:37:14.857Z</time></trkpt><trkpt lat="43.77022121854284" lon="11.18028162998373"><ele>35.0</ele><time>2026-03-22T15:37:15.858Z</time></trkpt><trkpt lat="43.770222347621186" lon="11.180666021081997"><ele>35.0</ele><time>2026-03-22T15:37:16.858Z</time></trkpt><trkpt lat="43.77022794436575" lon="11.181051074759186"><ele>36.0</ele><time>2026-03-22T15:37:17.858Z</time></trkpt><trkpt lat="43.77023924984602" lon="11.181430682401036"><ele>37.0</ele><time>2026-03-22T15:37:18.857Z</time></trkpt><trkpt lat="43.77024933327327" lon="11.181811677506701"><ele>37.5</ele><time>2026-03-22T15:37:19.857Z</time></trkpt><trkpt lat="43.770269259018455" lon="11.18219839249901"><ele>38.0</ele><time>2026-03-22T15:37:20.857Z</time></trkpt><trkpt lat="43.77028928137357" lon="11.182578872072522"><ele>38.5</ele><time>2026-03-22T15:37:21.857Z</time></trkpt><trkpt lat="43.77031027572534" lon="11.182959001395727"><ele>39.0</ele><time>2026-03-22T15:37:22.857Z</time></trkpt><trkpt lat="43.77033986653477" lon="11.183340415395369"><ele>39.0</ele><time>2026-03-22T15:37:23.857Z</time></trkpt><trkpt lat="43.77037566591613" lon="11.18372084540884"><ele>39.0</ele><time>2026-03-22T15:37:24.857Z</time></trkpt><trkpt lat="43.770412386863114" lon="11.184098359741245"><ele>39.0</ele><time>2026-03-22T15:37:25.857Z</time></trkpt><trkpt lat="43.770454407948414" lon="11.184479281874639"><ele>39.0</ele><time>2026-03-22T15:37:26.857Z</time></trkpt><trkpt lat="43.77049824377353" lon="11.184861811675066"><ele>38.5</ele><time>2026-03-22T15:37:27.857Z</time></trkpt><trkpt lat="43.77054315268072" lon="11.185239607774324"><ele>38.0</ele><time>2026-03-22T15:37:28.857Z</time></trkpt><trkpt lat="43.770597030244886" lon="11.185615792303416"><ele>38.5</ele><time>2026-03-22T15:37:29.857Z</time></trkpt><trkpt lat="43.77064905613643" lon="11.185985379581192"><ele>39.0</ele><time>2026-03-22T15:37:30.857Z</time></trkpt><trkpt lat="43.77070432886168" lon="11.186366893240685"><ele>39.5</ele><time>2026-03-22T15:37:31.857Z</time></trkpt><trkpt lat="43.77076610569468" lon="11.186743977509044"><ele>40.0</ele><time>2026-03-22T15:37:32.857Z</time></trkpt><trkpt lat="43.77082595604832" lon="11.187110090965358"><ele>39.0</ele><time>2026-03-22T15:37:33.857Z</time></trkpt><trkpt lat="43.77088194849219" lon="11.187469308510126"><ele>38.0</ele><time>2026-03-22T15:37:34.857Z</time></trkpt><trkpt lat="43.770947076387316" lon="11.187818518218824"><ele>38.0</ele><time>2026-03-22T15:37:35.857Z</time></trkpt><trkpt lat="43.770999296236155" lon="11.18817644299737"><ele>38.0</ele><time>2026-03-22T15:37:36.857Z</time></trkpt><trkpt lat="43.771056174683444" lon="11.188528544477139"><ele>38.0</ele><time>2026-03-22T15:37:37.857Z</time></trkpt><trkpt lat="43.77111083685423" lon="11.188878483539249"><ele>38.0</ele><time>2026-03-22T15:37:38.857Z</time></trkpt><trkpt lat="43.77116718589534" lon="11.189221032035812"><ele>38.5</ele><time>2026-03-22T15:37:39.857Z</time></trkpt><trkpt lat="43.77121841755929" lon="11.189549885654245"><ele>39.0</ele><time>2026-03-22T15:37:40.857Z</time></trkpt><trkpt lat="43.77126856525071" lon="11.189876856779582"><ele>39.0</ele><time>2026-03-22T15:37:41.857Z</time></trkpt><trkpt lat="43.771321537413876" lon="11.190195892152389"><ele>39.0</ele><time>2026-03-22T15:37:42.857Z</time></trkpt><trkpt lat="43.77137561506823" lon="11.190511219975411"><ele>39.5</ele><time>2026-03-22T15:37:43.857Z</time></trkpt><trkpt lat="43.77142634726056" lon="11.190817842771551"><ele>40.0</ele><time>2026-03-22T15:37:44.857Z</time></trkpt><trkpt lat="43.77148124251748" lon="11.191135968506215"><ele>40.0</ele><time>2026-03-22T15:37:45.857Z</time></trkpt><trkpt lat="43.77153553148137" lon="11.191454084336195"><ele>40.0</ele><time>2026-03-22T15:37:46.857Z</time></trkpt><trkpt lat="43.77159196863364" lon="11.191784229704554"><ele>40.5</ele><time>2026-03-22T15:37:47.857Z</time></trkpt><trkpt lat="43.77164638751509" lon="11.192123022339832"><ele>41.0</ele><time>2026-03-22T15:37:48.857Z</time></trkpt><trkpt lat="43.77170016807098" lon="11.192474608121488"><ele>41.0</ele><time>2026-03-22T15:37:49.857Z</time></trkpt><trkpt lat="43.771765473468626" lon="11.192829394936103"><ele>41.0</ele><time>2026-03-22T15:37:50.857Z</time></trkpt><trkpt lat="43.771826428655025" lon="11.193197848120732"><ele>42.0</ele><time>2026-03-22T15:37:51.857Z</time></trkpt><trkpt lat="43.77188496170258" lon="11.193577895084783"><ele>43.0</ele><time>2026-03-22T15:37:52.857Z</time></trkpt><trkpt lat="43.771933575036925" lon="11.193957305154802"><ele>41.5</ele><time>2026-03-22T15:37:53.857Z</time></trkpt><trkpt lat="43.7719909441555" lon="11.19433528761727"><ele>40.0</ele><time>2026-03-22T15:37:54.857Z</time></trkpt><trkpt lat="43.77204271901374" lon="11.194706985640071"><ele>39.5</ele><time>2026-03-22T15:37:55.857Z</time></trkpt><trkpt lat="43.77209622461972" lon="11.195081985972507"><ele>39.0</ele><time>2026-03-22T15:37:56.857Z</time></trkpt><trkpt lat="43.772144150579294" lon="11.195440761361267"><ele>39.0</ele><time>2026-03-22T15:37:57.857Z</time></trkpt><trkpt lat="43.77219244563657" lon="11.195771463475527"><ele>39.0</ele><time>2026-03-22T15:37:58.857Z</time></trkpt><trkpt lat="43.77225868666162" lon="11.196080653048945"><ele>39.0</ele><time>2026-03-22T15:37:59.857Z</time></trkpt><trkpt lat="43.772301303276244" lon="11.196366245225049"><ele>39.0</ele><time>2026-03-22T15:38:00.857Z</time></trkpt><trkpt lat="43.772347769726956" lon="11.196637115641504"><ele>39.0</ele><time>2026-03-22T15:38:01.857Z</time></trkpt><trkpt lat="43.77239366683639" lon="11.19688196180538"><ele>39.0</ele><time>2026-03-22T15:38:02.856Z</time></trkpt><trkpt lat="43.772423624219904" lon="11.197127890970384"><ele>39.0</ele><time>2026-03-22T15:38:03.856Z</time></trkpt><trkpt lat="43.77246120525941" lon="11.197353134577307"><ele>39.0</ele><time>2026-03-22T15:38:04.856Z</time></trkpt><trkpt lat="43.77249933230765" lon="11.197577468451433"><ele>39.0</ele><time>2026-03-22T15:38:05.856Z</time></trkpt><trkpt lat="43.772531288160536" lon="11.197801197138084"><ele>39.0</ele><time>2026-03-22T15:38:06.856Z</time></trkpt><trkpt lat="43.772567359866315" lon="11.198035234898056"><ele>39.0</ele><time>2026-03-22T15:38:07.856Z</time></trkpt><trkpt lat="43.77260354938362" lon="11.198272489318986"><ele>39.0</ele><time>2026-03-22T15:38:08.856Z</time></trkpt><trkpt lat="43.7726395331836" lon="11.198511945059986"><ele>39.0</ele><time>2026-03-22T15:38:09.856Z</time></trkpt><trkpt lat="43.772667090076624" lon="11.19874335823239"><ele>39.0</ele><time>2026-03-22T15:38:10.856Z</time></trkpt><trkpt lat="43.772688356663195" lon="11.19898516166652"><ele>39.0</ele><time>2026-03-22T15:38:11.856Z</time></trkpt><trkpt lat="43.77268934885002" lon="11.199216122606897"><ele>39.0</ele><time>2026-03-22T15:38:12.856Z</time></trkpt><trkpt lat="43.77270478412475" lon="11.19947664522599"><ele>39.0</ele><time>2026-03-22T15:38:13.856Z</time></trkpt><trkpt lat="43.77270218081717" lon="11.19970334093431"><ele>39.25</ele><time>2026-03-22T15:38:14.856Z</time></trkpt><trkpt lat="43.772696066245054" lon="11.199879393903817"><ele>39.5</ele><time>2026-03-22T15:38:15.856Z</time></trkpt><trkpt lat="43.772694796758636" lon="11.200036062187154"><ele>39.75</ele><time>2026-03-22T15:38:16.856Z</time></trkpt><trkpt lat="43.7726918270892" lon="11.200187324176422"><ele>40.0</ele><time>2026-03-22T15:38:17.856Z</time></trkpt><trkpt lat="43.77269763901683" lon="11.2003574059532"><ele>40.0</ele><time>2026-03-22T15:38:18.856Z</time></trkpt><trkpt lat="43.77269831665389" lon="11.200523832029686"><ele>40.0</ele><time>2026-03-22T15:38:19.856Z</time></trkpt><trkpt lat="43.77269863404006" lon="11.200683553697077"><ele>40.0</ele><time>2026-03-22T15:38:20.856Z</time></trkpt><trkpt lat="43.7726910360636" lon="11.20080756113386"><ele>40.0</ele><time>2026-03-22T15:38:21.856Z</time></trkpt><trkpt lat="43.772686593010256" lon="11.200940109012594"><ele>40.0</ele><time>2026-03-22T15:38:22.856Z</time></trkpt><trkpt lat="43.77268943402936" lon="11.201074008436391"><ele>40.0</ele><time>2026-03-22T15:38:23.856Z</time></trkpt><trkpt lat="43.77268413189418" lon="11.201199493851467"><ele>40.0</ele><time>2026-03-22T15:38:24.856Z</time></trkpt><trkpt lat="43.77268648585005" lon="11.201327527047317"><ele>40.0</ele><time>2026-03-22T15:38:25.856Z</time></trkpt><trkpt lat="43.77268708379023" lon="11.201423895347956"><ele>40.0</ele><time>2026-03-22T15:38:26.856Z</time></trkpt><trkpt lat="43.77268540101069" lon="11.201531998672388"><ele>40.0</ele><time>2026-03-22T15:38:27.856Z</time></trkpt><trkpt lat="43.7726931720698" lon="11.201625348455009"><ele>40.0</ele><time>2026-03-22T15:38:28.856Z</time></trkpt><trkpt lat="43.77269507375504" lon="11.201726529714191"><ele>40.42857142857143</ele><time>2026-03-22T15:38:29.856Z</time></trkpt><trkpt lat="43.772698485154315" lon="11.201819089438338"><ele>40.85714285714286</ele><time>2026-03-22T15:38:30.856Z</time></trkpt><trkpt lat="43.77269510394632" lon="11.201913430938522"><ele>41.28571428571429</ele><time>2026-03-22T15:38:31.856Z</time></trkpt><trkpt lat="43.77269440014273" lon="11.20200768562835"><ele>41.714285714285715</ele><time>2026-03-22T15:38:32.856Z</time></trkpt><trkpt lat="43.772695988312186" lon="11.20210345560277"><ele>42.142857142857146</ele><time>2026-03-22T15:38:33.856Z</time></trkpt><trkpt lat="43.77269966482855" lon="11.202205210753123"><ele>42.57142857142858</ele><time>2026-03-22T15:38:34.856Z</time></trkpt><trkpt lat="43.772701752672624" lon="11.20232188621535"><ele>43.0</ele><time>2026-03-22T15:38:35.856Z</time></trkpt><trkpt lat="43.77270121742976" lon="11.202445367390682"><ele>43.0</ele><time>2026-03-22T15:38:36.856Z</time></trkpt><trkpt lat="43.77270067571938" lon="11.202582741931835"><ele>43.0</ele><time>2026-03-22T15:38:37.856Z</time></trkpt><trkpt lat="43.772699204917124" lon="11.202745574389136"><ele>43.0</ele><time>2026-03-22T15:38:38.856Z</time></trkpt><trkpt lat="43.772694919949416" lon="11.202908421570793"><ele>43.0</ele><time>2026-03-22T15:38:39.856Z</time></trkpt><trkpt lat="43.77269436748562" lon="11.203089082234829"><ele>43.0</ele><time>2026-03-22T15:38:40.856Z</time></trkpt><trkpt lat="43.77269877122411" lon="11.203289133774897"><ele>43.0</ele><time>2026-03-22T15:38:41.856Z</time></trkpt><trkpt lat="43.77269580159688" lon="11.20347566446222"><ele>43.0</ele><time>2026-03-22T15:38:42.856Z</time></trkpt><trkpt lat="43.77269234987879" lon="11.203666689878878"><ele>43.0</ele><time>2026-03-22T15:38:43.856Z</time></trkpt><trkpt lat="43.772682245168326" lon="11.203804723565653"><ele>42.833333333333336</ele><time>2026-03-22T15:38:44.856Z</time></trkpt><trkpt lat="43.77267025223016" lon="11.203918525883328"><ele>42.66666666666667</ele><time>2026-03-22T15:38:45.856Z</time></trkpt><trkpt lat="43.77268093054785" lon="11.204036248949905"><ele>42.5</ele><time>2026-03-22T15:38:46.856Z</time></trkpt><trkpt lat="43.77267717973386" lon="11.204129492169466"><ele>42.333333333333336</ele><time>2026-03-22T15:38:47.856Z</time></trkpt><trkpt lat="43.772688289997035" lon="11.204268403585179"><ele>42.166666666666664</ele><time>2026-03-22T15:38:49.855Z</time></trkpt><trkpt lat="43.77269132816394" lon="11.204361189240304"><ele>42.0</ele><time>2026-03-22T15:38:53.855Z</time></trkpt><trkpt lat="43.77268380125496" lon="11.20451433679697"><ele>41.75</ele><time>2026-03-22T15:39:01.855Z</time></trkpt><trkpt lat="43.772681222184474" lon="11.204631869821682"><ele>41.5</ele><time>2026-03-22T15:39:02.855Z</time></trkpt><trkpt lat="43.772678490159194" lon="11.204782642068396"><ele>41.25</ele><time>2026-03-22T15:39:03.855Z</time></trkpt><trkpt lat="43.77267863557129" lon="11.204974422180783"><ele>41.0</ele><time>2026-03-22T15:39:04.855Z</time></trkpt><trkpt lat="43.77267076493893" lon="11.20519698253903"><ele>41.0</ele><time>2026-03-22T15:39:05.855Z</time></trkpt><trkpt lat="43.772674496492314" lon="11.205431142319243"><ele>41.0</ele><time>2026-03-22T15:39:06.855Z</time></trkpt><trkpt lat="43.77268076767429" lon="11.205703872896752"><ele>41.0</ele><time>2026-03-22T15:39:07.855Z</time></trkpt><trkpt lat="43.772691118283106" lon="11.205989864547073"><ele>42.0</ele><time>2026-03-22T15:39:08.855Z</time></trkpt><trkpt lat="43.772695372324236" lon="11.206297847072383"><ele>43.0</ele><time>2026-03-22T15:39:09.855Z</time></trkpt><trkpt lat="43.772693690402" lon="11.20659601273571"><ele>44.0</ele><time>2026-03-22T15:39:10.855Z</time></trkpt><trkpt lat="43.77269771556306" lon="11.206888837706693"><ele>45.0</ele><time>2026-03-22T15:39:11.858Z</time></trkpt><trkpt lat="43.77269411903669" lon="11.207160011305422"><ele>46.0</ele><time>2026-03-22T15:39:12.857Z</time></trkpt><trkpt lat="43.77270140198369" lon="11.207442440747876"><ele>47.0</ele><time>2026-03-22T15:39:13.857Z</time></trkpt><trkpt lat="43.77270403488582" lon="11.207721457115627"><ele>47.0</ele><time>2026-03-22T15:39:14.858Z</time></trkpt><trkpt lat="43.77271055761524" lon="11.207998290806046"><ele>47.0</ele><time>2026-03-22T15:39:15.857Z</time></trkpt><trkpt lat="43.77271670088662" lon="11.208279520623405"><ele>47.0</ele><time>2026-03-22T15:39:16.857Z</time></trkpt><trkpt lat="43.77272068977907" lon="11.208545579626099"><ele>45.33333333333333</ele><time>2026-03-22T15:39:17.857Z</time></trkpt><trkpt lat="43.77272431349869" lon="11.208810399530767"><ele>43.666666666666664</ele><time>2026-03-22T15:39:18.857Z</time></trkpt><trkpt lat="43.77273298081216" lon="11.209078832674953"><ele>42.0</ele><time>2026-03-22T15:39:19.857Z</time></trkpt><trkpt lat="43.772749065241854" lon="11.209356188392174"><ele>41.333333333333336</ele><time>2026-03-22T15:39:20.857Z</time></trkpt><trkpt lat="43.77276397854999" lon="11.209631736692879"><ele>40.66666666666667</ele><time>2026-03-22T15:39:21.857Z</time></trkpt><trkpt lat="43.772794786252696" lon="11.209911264107172"><ele>40.0</ele><time>2026-03-22T15:39:22.857Z</time></trkpt><trkpt lat="43.77282582128331" lon="11.210202838801298"><ele>40.0</ele><time>2026-03-22T15:39:23.858Z</time></trkpt><trkpt lat="43.77285626879118" lon="11.210489758886064"><ele>40.0</ele><time>2026-03-22T15:39:24.857Z</time></trkpt><trkpt lat="43.7728868347519" lon="11.210755989158619"><ele>40.0</ele><time>2026-03-22T15:39:25.857Z</time></trkpt><trkpt lat="43.77290981599914" lon="11.211000157766247"><ele>40.0</ele><time>2026-03-22T15:39:26.857Z</time></trkpt><trkpt lat="43.77293271009642" lon="11.2112261523557"><ele>40.0</ele><time>2026-03-22T15:39:27.857Z</time></trkpt><trkpt lat="43.772955736647184" lon="11.211432682303382"><ele>40.0</ele><time>2026-03-22T15:39:28.857Z</time></trkpt><trkpt lat="43.772983002123084" lon="11.211628846826523"><ele>40.5</ele><time>2026-03-22T15:39:29.857Z</time></trkpt><trkpt lat="43.773005677519954" lon="11.211805218176663"><ele>41.0</ele><time>2026-03-22T15:39:30.857Z</time></trkpt><trkpt lat="43.77302540690202" lon="11.211974994906962"><ele>41.5</ele><time>2026-03-22T15:39:31.857Z</time></trkpt><trkpt lat="43.773050634579" lon="11.212127887219827"><ele>42.0</ele><time>2026-03-22T15:39:32.857Z</time></trkpt><trkpt lat="43.77306764545793" lon="11.212259613798572"><ele>41.833333333333336</ele><time>2026-03-22T15:39:33.857Z</time></trkpt><trkpt lat="43.77308637545172" lon="11.212382801024988"><ele>41.666666666666664</ele><time>2026-03-22T15:39:34.857Z</time></trkpt><trkpt lat="43.77308534663938" lon="11.212490440587942"><ele>41.5</ele><time>2026-03-22T15:39:35.857Z</time></trkpt><trkpt lat="43.77308919160406" lon="11.21258046279171"><ele>41.33333333333333</ele><time>2026-03-22T15:39:36.857Z</time></trkpt><trkpt lat="43.77306667973562" lon="11.212687940523436"><ele>41.166666666666664</ele><time>2026-03-22T15:39:38.857Z</time></trkpt><trkpt lat="43.77304014104568" lon="11.21277233693308"><ele>41.0</ele><time>2026-03-22T15:39:40.857Z</time></trkpt><trkpt lat="43.773011333943835" lon="11.212868673106627"><ele>41.0</ele><time>2026-03-22T15:39:41.857Z</time></trkpt><trkpt lat="43.77300067954986" lon="11.21298041135238"><ele>41.0</ele><time>2026-03-22T15:39:42.857Z</time></trkpt><trkpt lat="43.773015981936425" lon="11.21311216441679"><ele>41.0</ele><time>2026-03-22T15:39:43.857Z</time></trkpt><trkpt lat="43.7730462174526" lon="11.213239378723106"><ele>41.0</ele><time>2026-03-22T15:39:44.857Z</time></trkpt><trkpt lat="43.77307986525339" lon="11.213365592241596"><ele>41.0</ele><time>2026-03-22T15:39:45.857Z</time></trkpt><trkpt lat="43.7731260979696" lon="11.213524311119144"><ele>41.25</ele><time>2026-03-22T15:39:46.857Z</time></trkpt><trkpt lat="43.77315605530276" lon="11.213705502387326"><ele>41.5</ele><time>2026-03-22T15:39:47.857Z</time></trkpt><trkpt lat="43.773188402915686" lon="11.213896984156335"><ele>41.75</ele><time>2026-03-22T15:39:48.857Z</time></trkpt><trkpt lat="43.773206242620596" lon="11.214095090355345"><ele>42.0</ele><time>2026-03-22T15:39:49.857Z</time></trkpt><trkpt lat="43.77323188737192" lon="11.214313399838629"><ele>42.333333333333336</ele><time>2026-03-22T15:39:50.857Z</time></trkpt><trkpt lat="43.773257867984576" lon="11.214513063292321"><ele>42.66666666666667</ele><time>2026-03-22T15:39:51.857Z</time></trkpt><trkpt lat="43.77329117515039" lon="11.214747689688183"><ele>43.0</ele><time>2026-03-22T15:39:52.856Z</time></trkpt><trkpt lat="43.77332435568583" lon="11.21498193763585"><ele>43.0</ele><time>2026-03-22T15:39:53.856Z</time></trkpt><trkpt lat="43.77334318450922" lon="11.215228408402565"><ele>43.0</ele><time>2026-03-22T15:39:54.856Z</time></trkpt><trkpt lat="43.77337071886174" lon="11.215471705538857"><ele>43.0</ele><time>2026-03-22T15:39:55.856Z</time></trkpt><trkpt lat="43.773397988541014" lon="11.21571435605875"><ele>42.0</ele><time>2026-03-22T15:39:56.856Z</time></trkpt><trkpt lat="43.7734203091262" lon="11.21594048617532"><ele>41.0</ele><time>2026-03-22T15:39:57.856Z</time></trkpt><trkpt lat="43.773445518258725" lon="11.216159696342059"><ele>40.0</ele><time>2026-03-22T15:39:58.856Z</time></trkpt><trkpt lat="43.773465641026625" lon="11.216371312762657"><ele>40.333333333333336</ele><time>2026-03-22T15:39:59.856Z</time></trkpt><trkpt lat="43.773493513983176" lon="11.216583162760628"><ele>40.666666666666664</ele><time>2026-03-22T15:40:00.856Z</time></trkpt><trkpt lat="43.773516419887414" lon="11.216794075752565"><ele>41.0</ele><time>2026-03-22T15:40:01.856Z</time></trkpt><trkpt lat="43.773529457930756" lon="11.2170026838464"><ele>41.0</ele><time>2026-03-22T15:40:02.856Z</time></trkpt><trkpt lat="43.77355128644529" lon="11.217212235343133"><ele>41.0</ele><time>2026-03-22T15:40:03.856Z</time></trkpt><trkpt lat="43.77357991706086" lon="11.217405187746264"><ele>41.0</ele><time>2026-03-22T15:40:04.856Z</time></trkpt><trkpt lat="43.77360161812886" lon="11.21758604267502"><ele>41.0</ele><time>2026-03-22T15:40:05.856Z</time></trkpt><trkpt lat="43.773630599938144" lon="11.217757175797697"><ele>41.199999999999996</ele><time>2026-03-22T15:40:06.856Z</time></trkpt><trkpt lat="43.773651084455985" lon="11.21791524047212"><ele>41.4</ele><time>2026-03-22T15:40:07.856Z</time></trkpt><trkpt lat="43.77366770399965" lon="11.218078358158072"><ele>41.6</ele><time>2026-03-22T15:40:08.856Z</time></trkpt><trkpt lat="43.77368532893657" lon="11.218231612506768"><ele>41.8</ele><time>2026-03-22T15:40:09.856Z</time></trkpt><trkpt lat="43.77369847543313" lon="11.218370897326976"><ele>42.0</ele><time>2026-03-22T15:40:10.856Z</time></trkpt><trkpt lat="43.7737084915535" lon="11.21850481347601"><ele>42.0</ele><time>2026-03-22T15:40:11.856Z</time></trkpt><trkpt lat="43.77371973351509" lon="11.218622486985415"><ele>42.0</ele><time>2026-03-22T15:40:12.856Z</time></trkpt><trkpt lat="43.77372995777154" lon="11.218758754505089"><ele>42.0</ele><time>2026-03-22T15:40:13.856Z</time></trkpt><trkpt lat="43.7737440486015" lon="11.218852895480504"><ele>42.0</ele><time>2026-03-22T15:40:14.856Z</time></trkpt><trkpt lat="43.77376072409037" lon="11.21896876686081"><ele>42.0</ele><time>2026-03-22T15:40:15.856Z</time></trkpt><trkpt lat="43.77375750096027" lon="11.219066784338498"><ele>42.0</ele><time>2026-03-22T15:40:16.856Z</time></trkpt><trkpt lat="43.77377595855766" lon="11.219249595207817"><ele>42.0</ele><time>2026-03-22T15:40:18.856Z</time></trkpt><trkpt lat="43.77379620724283" lon="11.21933776287571"><ele>42.0</ele><time>2026-03-22T15:40:19.856Z</time></trkpt><trkpt lat="43.773809904561" lon="11.219485525133628"><ele>42.0</ele><time>2026-03-22T15:40:21.856Z</time></trkpt><trkpt lat="43.7738284149731" lon="11.219612222911481"><ele>42.0</ele><time>2026-03-22T15:40:23.856Z</time></trkpt><trkpt lat="43.77383652076666" lon="11.219719461870813"><ele>42.0</ele><time>2026-03-22T15:40:26.856Z</time></trkpt><trkpt lat="43.77382290739951" lon="11.21980464043126"><ele>42.0</ele><time>2026-03-22T15:40:32.856Z</time></trkpt><trkpt lat="43.77383322236407" lon="11.219909137907791"><ele>41.833333333333336</ele><time>2026-03-22T15:40:35.856Z</time></trkpt><trkpt lat="43.77384837317673" lon="11.220026780347355"><ele>41.666666666666664</ele><time>2026-03-22T15:40:38.855Z</time></trkpt><trkpt lat="43.773853057518835" lon="11.220130048158591"><ele>41.5</ele><time>2026-03-22T15:40:40.855Z</time></trkpt><trkpt lat="43.77388846152907" lon="11.220272662013368"><ele>41.33333333333333</ele><time>2026-03-22T15:40:43.855Z</time></trkpt><trkpt lat="43.77390039425433" lon="11.220384627865501"><ele>41.166666666666664</ele><time>2026-03-22T15:40:45.855Z</time></trkpt><trkpt lat="43.773913891591285" lon="11.220492271741668"><ele>41.0</ele><time>2026-03-22T15:40:47.855Z</time></trkpt><trkpt lat="43.77392943435231" lon="11.220630419418352"><ele>41.199999999999996</ele><time>2026-03-22T15:40:49.855Z</time></trkpt><trkpt lat="43.77392946989836" lon="11.220765997730346"><ele>41.4</ele><time>2026-03-22T15:40:51.855Z</time></trkpt><trkpt lat="43.77391475132537" lon="11.22092065694641"><ele>41.6</ele><time>2026-03-22T15:40:53.855Z</time></trkpt><trkpt lat="43.77389013084528" lon="11.221004103428013"><ele>41.8</ele><time>2026-03-22T15:40:54.855Z</time></trkpt><trkpt lat="43.77387229659095" lon="11.221107927626901"><ele>42.0</ele><time>2026-03-22T15:40:55.855Z</time></trkpt><trkpt lat="43.773850726382285" lon="11.221274461394563"><ele>42.0</ele><time>2026-03-22T15:40:57.855Z</time></trkpt><trkpt lat="43.773850420499556" lon="11.221363438257967"><ele>42.0</ele><time>2026-03-22T15:40:58.855Z</time></trkpt><trkpt lat="43.77385306387315" lon="11.22146167692217"><ele>42.0</ele><time>2026-03-22T15:40:59.855Z</time></trkpt><trkpt lat="43.77387636947524" lon="11.221626766960965"><ele>42.0</ele><time>2026-03-22T15:41:01.855Z</time></trkpt><trkpt lat="43.77389062413474" lon="11.22173966328869"><ele>42.0</ele><time>2026-03-22T15:41:03.855Z</time></trkpt><trkpt lat="43.773857573586874" lon="11.22193463860426"><ele>42.25</ele><time>2026-03-22T15:41:05.855Z</time></trkpt><trkpt lat="43.77382966238167" lon="11.222031610524022"><ele>42.5</ele><time>2026-03-22T15:41:06.855Z</time></trkpt><trkpt lat="43.77373791068162" lon="11.2221477025036"><ele>42.75</ele><time>2026-03-22T15:41:07.855Z</time></trkpt><trkpt lat="43.77364173895804" lon="11.222302587610859"><ele>43.0</ele><time>2026-03-22T15:41:08.855Z</time></trkpt><trkpt lat="43.77355897515621" lon="11.22243627162034"><ele>43.2</ele><time>2026-03-22T15:41:09.855Z</time></trkpt><trkpt lat="43.77349415936897" lon="11.222545748775913"><ele>43.4</ele><time>2026-03-22T15:41:10.855Z</time></trkpt><trkpt lat="43.773427625275865" lon="11.222649912369587"><ele>43.6</ele><time>2026-03-22T15:41:11.855Z</time></trkpt><trkpt lat="43.77335709192178" lon="11.222791941738517"><ele>43.800000000000004</ele><time>2026-03-22T15:41:12.855Z</time></trkpt><trkpt lat="43.7732810594588" lon="11.222909462750579"><ele>44.0</ele><time>2026-03-22T15:41:13.855Z</time></trkpt><trkpt lat="43.77321328430995" lon="11.223002659237768"><ele>44.0</ele><time>2026-03-22T15:41:14.855Z</time></trkpt><trkpt lat="43.773161907401665" lon="11.22307478888378"><ele>44.0</ele><time>2026-03-22T15:41:15.855Z</time></trkpt><trkpt lat="43.77311344000392" lon="11.223164438280639"><ele>44.0</ele><time>2026-03-22T15:41:16.855Z</time></trkpt><trkpt lat="43.77304904090963" lon="11.223280631096296"><ele>44.0</ele><time>2026-03-22T15:41:17.857Z</time></trkpt><trkpt lat="43.7729763013878" lon="11.223376845239663"><ele>44.0</ele><time>2026-03-22T15:41:18.857Z</time></trkpt><trkpt lat="43.772927403618574" lon="11.22349908183988"><ele>44.6</ele><time>2026-03-22T15:41:19.857Z</time></trkpt><trkpt lat="43.7728755571396" lon="11.223610878619343"><ele>45.2</ele><time>2026-03-22T15:41:20.857Z</time></trkpt><trkpt lat="43.77282853583485" lon="11.223714056448962"><ele>45.800000000000004</ele><time>2026-03-22T15:41:21.857Z</time></trkpt><trkpt lat="43.772793228835226" lon="11.223818040594756"><ele>46.400000000000006</ele><time>2026-03-22T15:41:22.857Z</time></trkpt><trkpt lat="43.77274921680881" lon="11.22394983103529"><ele>47.0</ele><time>2026-03-22T15:41:24.857Z</time></trkpt><trkpt lat="43.772719924870145" lon="11.22410387224884"><ele>47.0</ele><time>2026-03-22T15:41:26.858Z</time></trkpt><trkpt lat="43.772719312937255" lon="11.224207085556538"><ele>47.0</ele><time>2026-03-22T15:41:27.857Z</time></trkpt><trkpt lat="43.772728909901936" lon="11.224318308020267"><ele>47.0</ele><time>2026-03-22T15:41:28.857Z</time></trkpt><trkpt lat="43.772748494288436" lon="11.224414740296758"><ele>47.0</ele><time>2026-03-22T15:41:29.857Z</time></trkpt><trkpt lat="43.77276767216847" lon="11.224514971311894"><ele>47.0</ele><time>2026-03-22T15:41:30.857Z</time></trkpt><trkpt lat="43.77278423945989" lon="11.22466387015542"><ele>47.0</ele><time>2026-03-22T15:41:32.857Z</time></trkpt><trkpt lat="43.77281809152193" lon="11.224788153600294"><ele>46.25</ele><time>2026-03-22T15:41:34.857Z</time></trkpt><trkpt lat="43.772814487758" lon="11.224890799755828"><ele>45.5</ele><time>2026-03-22T15:41:36.857Z</time></trkpt><trkpt lat="43.77285454669075" lon="11.224997247332944"><ele>44.75</ele><time>2026-03-22T15:42:04.856Z</time></trkpt><trkpt lat="43.772897796817574" lon="11.225316262538344"><ele>44.0</ele><time>2026-03-22T15:42:07.856Z</time></trkpt><trkpt lat="43.77290894241154" lon="11.225449288273333"><ele>44.0</ele><time>2026-03-22T15:42:08.856Z</time></trkpt><trkpt lat="43.77292593784993" lon="11.225594694036946"><ele>44.0</ele><time>2026-03-22T15:42:09.856Z</time></trkpt><trkpt lat="43.77294186089465" lon="11.225759913693748"><ele>44.0</ele><time>2026-03-22T15:42:10.856Z</time></trkpt><trkpt lat="43.77296071784271" lon="11.225987864957379"><ele>44.0</ele><time>2026-03-22T15:42:11.856Z</time></trkpt><trkpt lat="43.772992258465486" lon="11.226153004128"><ele>43.75</ele><time>2026-03-22T15:42:12.856Z</time></trkpt><trkpt lat="43.77300399979487" lon="11.226321197643307"><ele>43.5</ele><time>2026-03-22T15:42:13.856Z</time></trkpt><trkpt lat="43.773030082095644" lon="11.226477588858545"><ele>43.25</ele><time>2026-03-22T15:42:14.856Z</time></trkpt><trkpt lat="43.77303926304354" lon="11.226656096137656"><ele>43.0</ele><time>2026-03-22T15:42:15.856Z</time></trkpt><trkpt lat="43.7730629027119" lon="11.226817560339079"><ele>43.0</ele><time>2026-03-22T15:42:16.856Z</time></trkpt><trkpt lat="43.77307956997995" lon="11.226971265831331"><ele>43.0</ele><time>2026-03-22T15:42:17.856Z</time></trkpt><trkpt lat="43.77310186476346" lon="11.227136553159738"><ele>43.0</ele><time>2026-03-22T15:42:18.856Z</time></trkpt><trkpt lat="43.773120145928864" lon="11.227269871158551"><ele>43.0</ele><time>2026-03-22T15:42:19.856Z</time></trkpt><trkpt lat="43.773135470142606" lon="11.227405072185189"><ele>43.0</ele><time>2026-03-22T15:42:20.856Z</time></trkpt><trkpt lat="43.773147575952244" lon="11.227541742530743"><ele>43.2</ele><time>2026-03-22T15:42:21.856Z</time></trkpt><trkpt lat="43.773158468881554" lon="11.227677828172498"><ele>43.4</ele><time>2026-03-22T15:42:22.856Z</time></trkpt><trkpt lat="43.77317058590734" lon="11.227795277330042"><ele>43.6</ele><time>2026-03-22T15:42:23.856Z</time></trkpt><trkpt lat="43.77317890496841" lon="11.227918826846377"><ele>43.800000000000004</ele><time>2026-03-22T15:42:24.856Z</time></trkpt><trkpt lat="43.77319034803104" lon="11.22805179385808"><ele>44.0</ele><time>2026-03-22T15:42:25.856Z</time></trkpt><trkpt lat="43.773203637005025" lon="11.228190243348026"><ele>44.400000000000006</ele><time>2026-03-22T15:42:26.856Z</time></trkpt><trkpt lat="43.77321455198152" lon="11.228330821998869"><ele>44.8</ele><time>2026-03-22T15:42:27.856Z</time></trkpt><trkpt lat="43.77322546383181" lon="11.228469952021234"><ele>45.2</ele><time>2026-03-22T15:42:28.856Z</time></trkpt><trkpt lat="43.77322771103387" lon="11.228606244881858"><ele>45.599999999999994</ele><time>2026-03-22T15:42:29.856Z</time></trkpt><trkpt lat="43.77323648667463" lon="11.228709393777269"><ele>46.0</ele><time>2026-03-22T15:42:30.856Z</time></trkpt><trkpt lat="43.77324339608832" lon="11.228815825614522"><ele>46.0</ele><time>2026-03-22T15:42:31.856Z</time></trkpt><trkpt lat="43.77326087415446" lon="11.228906031893002"><ele>46.0</ele><time>2026-03-22T15:42:32.856Z</time></trkpt><trkpt lat="43.77326391624274" lon="11.229067078164611"><ele>46.0</ele><time>2026-03-22T15:42:34.856Z</time></trkpt><trkpt lat="43.77322563590657" lon="11.22914215876086"><ele>46.0</ele><time>2026-03-22T15:42:35.856Z</time></trkpt><trkpt lat="43.77318047675195" lon="11.229222026419414"><ele>46.0</ele><time>2026-03-22T15:42:36.856Z</time></trkpt><trkpt lat="43.77311310833026" lon="11.229317793606402"><ele>46.0</ele><time>2026-03-22T15:42:37.856Z</time></trkpt><trkpt lat="43.77303868888842" lon="11.229421239776554"><ele>45.8</ele><time>2026-03-22T15:42:38.856Z</time></trkpt><trkpt lat="43.77296891938912" lon="11.22953646926349"><ele>45.599999999999994</ele><time>2026-03-22T15:42:39.856Z</time></trkpt><trkpt lat="43.77290296833887" lon="11.229666723334855"><ele>45.4</ele><time>2026-03-22T15:42:40.856Z</time></trkpt><trkpt lat="43.77282216340049" lon="11.22979070889861"><ele>45.2</ele><time>2026-03-22T15:42:41.856Z</time></trkpt><trkpt lat="43.77276133721705" lon="11.22989346317191"><ele>45.0</ele><time>2026-03-22T15:42:42.856Z</time></trkpt><trkpt lat="43.77267940993854" lon="11.230019961481176"><ele>46.4</ele><time>2026-03-22T15:42:43.856Z</time></trkpt><trkpt lat="43.77259548911863" lon="11.23012973812509"><ele>47.8</ele><time>2026-03-22T15:42:44.856Z</time></trkpt><trkpt lat="43.77250861229761" lon="11.230242399906782"><ele>49.2</ele><time>2026-03-22T15:42:45.856Z</time></trkpt><trkpt lat="43.772447119684564" lon="11.2303395097308"><ele>50.6</ele><time>2026-03-22T15:42:46.856Z</time></trkpt><trkpt lat="43.77241811997715" lon="11.230448286749297"><ele>52.0</ele><time>2026-03-22T15:42:47.856Z</time></trkpt><trkpt lat="43.77239190382601" lon="11.23056605621676"><ele>51.0</ele><time>2026-03-22T15:42:48.855Z</time></trkpt><trkpt lat="43.77236632560207" lon="11.2307117735386"><ele>50.0</ele><time>2026-03-22T15:42:49.855Z</time></trkpt><trkpt lat="43.772334218831176" lon="11.230863403073286"><ele>49.0</ele><time>2026-03-22T15:42:50.855Z</time></trkpt><trkpt lat="43.77229934377443" lon="11.231058650466338"><ele>48.0</ele><time>2026-03-22T15:42:51.855Z</time></trkpt><trkpt lat="43.77225526342727" lon="11.231246739996593"><ele>48.0</ele><time>2026-03-22T15:42:52.855Z</time></trkpt><trkpt lat="43.7722197420841" lon="11.231450082139697"><ele>48.0</ele><time>2026-03-22T15:42:53.855Z</time></trkpt><trkpt lat="43.77217322090994" lon="11.231658146080319"><ele>48.0</ele><time>2026-03-22T15:42:54.855Z</time></trkpt><trkpt lat="43.77212187852121" lon="11.231842473848097"><ele>47.25</ele><time>2026-03-22T15:42:55.855Z</time></trkpt><trkpt lat="43.772064001535426" lon="11.232030589963383"><ele>46.5</ele><time>2026-03-22T15:42:56.855Z</time></trkpt><trkpt lat="43.77201662806699" lon="11.232183838542982"><ele>45.75</ele><time>2026-03-22T15:42:57.855Z</time></trkpt><trkpt lat="43.7719731293275" lon="11.23234204970114"><ele>45.0</ele><time>2026-03-22T15:42:58.855Z</time></trkpt><trkpt lat="43.771924610925225" lon="11.232430955058096"><ele>45.0</ele><time>2026-03-22T15:42:59.855Z</time></trkpt><trkpt lat="43.77186755853152" lon="11.232523801461728"><ele>45.0</ele><time>2026-03-22T15:43:00.855Z</time></trkpt><trkpt lat="43.77179458899972" lon="11.232559981084991"><ele>45.0</ele><time>2026-03-22T15:43:01.855Z</time></trkpt><trkpt lat="43.7717149985876" lon="11.232596609712264"><ele>45.0</ele><time>2026-03-22T15:43:02.855Z</time></trkpt><trkpt lat="43.77162152215901" lon="11.2326451313562"><ele>45.0</ele><time>2026-03-22T15:43:03.855Z</time></trkpt><trkpt lat="43.77153699892939" lon="11.232727733463733"><ele>45.0</ele><time>2026-03-22T15:43:04.855Z</time></trkpt><trkpt lat="43.77147831657663" lon="11.232795273588952"><ele>45.0</ele><time>2026-03-22T15:43:05.855Z</time></trkpt><trkpt lat="43.77143100443534" lon="11.232894237382126"><ele>45.0</ele><time>2026-03-22T15:43:06.855Z</time></trkpt><trkpt lat="43.77139189696048" lon="11.233012141438762"><ele>45.0</ele><time>2026-03-22T15:43:07.855Z</time></trkpt><trkpt lat="43.77134416217765" lon="11.233119871434685"><ele>45.0</ele><time>2026-03-22T15:43:08.855Z</time></trkpt><trkpt lat="43.771303396040935" lon="11.233192500643185"><ele>45.0</ele><time>2026-03-22T15:43:09.855Z</time></trkpt><trkpt lat="43.771176206627224" lon="11.23324751817622"><ele>45.0</ele><time>2026-03-22T15:43:11.855Z</time></trkpt><trkpt lat="43.77107202716503" lon="11.233278869478548"><ele>45.0</ele><time>2026-03-22T15:43:12.855Z</time></trkpt><trkpt lat="43.77098350327376" lon="11.233316804182307"><ele>45.0</ele><time>2026-03-22T15:43:13.855Z</time></trkpt><trkpt lat="43.77088344309624" lon="11.233351617361274"><ele>45.0</ele><time>2026-03-22T15:43:14.855Z</time></trkpt><trkpt lat="43.77077109158744" lon="11.233396468458839"><ele>45.0</ele><time>2026-03-22T15:43:15.855Z</time></trkpt><trkpt lat="43.77065798407783" lon="11.2334418262002"><ele>45.4</ele><time>2026-03-22T15:43:16.855Z</time></trkpt><trkpt lat="43.77055569166367" lon="11.23350017071584"><ele>45.8</ele><time>2026-03-22T15:43:17.855Z</time></trkpt><trkpt lat="43.77047021689839" lon="11.233568357639898"><ele>46.2</ele><time>2026-03-22T15:43:18.855Z</time></trkpt><trkpt lat="43.77038316366768" lon="11.233630725777902"><ele>46.6</ele><time>2026-03-22T15:43:19.855Z</time></trkpt><trkpt lat="43.77029108100868" lon="11.23372860815353"><ele>47.0</ele><time>2026-03-22T15:43:20.855Z</time></trkpt><trkpt lat="43.7702014155114" lon="11.23380757165484"><ele>47.75</ele><time>2026-03-22T15:43:21.855Z</time></trkpt><trkpt lat="43.7701126905888" lon="11.233920260751411"><ele>48.5</ele><time>2026-03-22T15:43:22.857Z</time></trkpt><trkpt lat="43.77002609518597" lon="11.234054316529436"><ele>49.25</ele><time>2026-03-22T15:43:23.856Z</time></trkpt><trkpt lat="43.769935568655825" lon="11.234191289604865"><ele>50.0</ele><time>2026-03-22T15:43:24.856Z</time></trkpt><trkpt lat="43.7698507599062" lon="11.234330399960022"><ele>50.0</ele><time>2026-03-22T15:43:25.857Z</time></trkpt><trkpt lat="43.76978862036975" lon="11.23448133305326"><ele>50.0</ele><time>2026-03-22T15:43:26.857Z</time></trkpt><trkpt lat="43.76971234683356" lon="11.23466360733408"><ele>50.0</ele><time>2026-03-22T15:43:27.857Z</time></trkpt><trkpt lat="43.769642613458785" lon="11.234853950651305"><ele>50.0</ele><time>2026-03-22T15:43:28.857Z</time></trkpt><trkpt lat="43.769551992916945" lon="11.235071304875378"><ele>50.0</ele><time>2026-03-22T15:43:29.856Z</time></trkpt><trkpt lat="43.769468727834195" lon="11.23530746783058"><ele>50.0</ele><time>2026-03-22T15:43:30.856Z</time></trkpt><trkpt lat="43.76938440584616" lon="11.235499706391437"><ele>50.0</ele><time>2026-03-22T15:43:31.857Z</time></trkpt><trkpt lat="43.7693086717181" lon="11.235695271631892"><ele>49.4</ele><time>2026-03-22T15:43:32.857Z</time></trkpt><trkpt lat="43.76925263917181" lon="11.235869214176486"><ele>48.8</ele><time>2026-03-22T15:43:33.857Z</time></trkpt><trkpt lat="43.76918432858194" lon="11.236005593888764"><ele>48.2</ele><time>2026-03-22T15:43:34.857Z</time></trkpt><trkpt lat="43.76913216085219" lon="11.236119259093432"><ele>47.6</ele><time>2026-03-22T15:43:35.856Z</time></trkpt><trkpt lat="43.76908328203628" lon="11.236230513899187"><ele>47.0</ele><time>2026-03-22T15:43:36.856Z</time></trkpt><trkpt lat="43.76904712003897" lon="11.236329703225577"><ele>47.0</ele><time>2026-03-22T15:43:37.856Z</time></trkpt><trkpt lat="43.769004535770264" lon="11.23640360978097"><ele>47.0</ele><time>2026-03-22T15:43:38.856Z</time></trkpt><trkpt lat="43.76896076592195" lon="11.236476565331438"><ele>47.0</ele><time>2026-03-22T15:43:39.856Z</time></trkpt><trkpt lat="43.76889535776343" lon="11.236602786169378"><ele>47.0</ele><time>2026-03-22T15:43:41.856Z</time></trkpt><trkpt lat="43.768854217684854" lon="11.236681204954921"><ele>47.0</ele><time>2026-03-22T15:43:44.856Z</time></trkpt><trkpt lat="43.768795704784296" lon="11.23689175941536"><ele>47.25</ele><time>2026-03-22T15:44:05.856Z</time></trkpt><trkpt lat="43.768753785043856" lon="11.237019497326036"><ele>47.5</ele><time>2026-03-22T15:44:06.856Z</time></trkpt><trkpt lat="43.76869841131391" lon="11.237154946904191"><ele>47.75</ele><time>2026-03-22T15:44:07.856Z</time></trkpt><trkpt lat="43.76863972767007" lon="11.237330636854216"><ele>48.0</ele><time>2026-03-22T15:44:08.856Z</time></trkpt><trkpt lat="43.768557483664175" lon="11.237527395525422"><ele>48.33333333333333</ele><time>2026-03-22T15:44:09.855Z</time></trkpt><trkpt lat="43.76846175279349" lon="11.237769996865435"><ele>48.666666666666664</ele><time>2026-03-22T15:44:10.855Z</time></trkpt><trkpt lat="43.76835154072452" lon="11.238037114430297"><ele>49.0</ele><time>2026-03-22T15:44:11.855Z</time></trkpt><trkpt lat="43.76825302825611" lon="11.238289735105356"><ele>49.33333333333333</ele><time>2026-03-22T15:44:12.855Z</time></trkpt><trkpt lat="43.7681684363753" lon="11.238517199462665"><ele>49.66666666666667</ele><time>2026-03-22T15:44:13.855Z</time></trkpt><trkpt lat="43.76808759511329" lon="11.238711315484826"><ele>50.0</ele><time>2026-03-22T15:44:14.855Z</time></trkpt><trkpt lat="43.76800908438499" lon="11.238895575249204"><ele>49.5</ele><time>2026-03-22T15:44:15.855Z</time></trkpt><trkpt lat="43.76794400882315" lon="11.239018017491116"><ele>49.0</ele><time>2026-03-22T15:44:16.855Z</time></trkpt><trkpt lat="43.76785215831348" lon="11.239130469204946"><ele>48.5</ele><time>2026-03-22T15:44:17.855Z</time></trkpt><trkpt lat="43.767756897421464" lon="11.239246841671067"><ele>48.0</ele><time>2026-03-22T15:44:18.855Z</time></trkpt><trkpt lat="43.76766583068533" lon="11.239354468423194"><ele>48.0</ele><time>2026-03-22T15:44:19.855Z</time></trkpt><trkpt lat="43.76756504163463" lon="11.239485904190364"><ele>48.0</ele><time>2026-03-22T15:44:20.855Z</time></trkpt><trkpt lat="43.76746844727242" lon="11.239639179559335"><ele>48.0</ele><time>2026-03-22T15:44:21.855Z</time></trkpt><trkpt lat="43.76737079228032" lon="11.239757776366586"><ele>48.0</ele><time>2026-03-22T15:44:22.855Z</time></trkpt><trkpt lat="43.76728693578044" lon="11.239877187777392"><ele>48.0</ele><time>2026-03-22T15:44:23.855Z</time></trkpt><trkpt lat="43.76718773226387" lon="11.240014536846104"><ele>48.0</ele><time>2026-03-22T15:44:24.855Z</time></trkpt><trkpt lat="43.76709527123135" lon="11.240147152096032"><ele>48.0</ele><time>2026-03-22T15:44:25.855Z</time></trkpt><trkpt lat="43.76697941693435" lon="11.240295990153799"><ele>48.0</ele><time>2026-03-22T15:44:26.855Z</time></trkpt><trkpt lat="43.7668628000977" lon="11.240430145780255"><ele>48.66666666666667</ele><time>2026-03-22T15:44:27.855Z</time></trkpt><trkpt lat="43.76673175427988" lon="11.240534361043755"><ele>49.333333333333336</ele><time>2026-03-22T15:44:28.855Z</time></trkpt><trkpt lat="43.76658347706757" lon="11.240620500783514"><ele>50.0</ele><time>2026-03-22T15:44:29.855Z</time></trkpt><trkpt lat="43.766419535020496" lon="11.240687993765661"><ele>50.0</ele><time>2026-03-22T15:44:30.855Z</time></trkpt><trkpt lat="43.766276373859355" lon="11.240753005018831"><ele>50.0</ele><time>2026-03-22T15:44:31.855Z</time></trkpt><trkpt lat="43.766139743479435" lon="11.240817181812687"><ele>50.0</ele><time>2026-03-22T15:44:32.855Z</time></trkpt><trkpt lat="43.765987663892936" lon="11.240803211138022"><ele>50.0</ele><time>2026-03-22T15:44:33.855Z</time></trkpt><trkpt lat="43.76586395499713" lon="11.240821538046363"><ele>50.75</ele><time>2026-03-22T15:44:34.855Z</time></trkpt><trkpt lat="43.765745607571404" lon="11.240825673065785"><ele>51.5</ele><time>2026-03-22T15:44:35.855Z</time></trkpt><trkpt lat="43.76562661972414" lon="11.240849695761412"><ele>52.25</ele><time>2026-03-22T15:44:36.855Z</time></trkpt><trkpt lat="43.765502641505435" lon="11.240853718195757"><ele>53.0</ele><time>2026-03-22T15:44:37.855Z</time></trkpt><trkpt lat="43.765385162022895" lon="11.24086917852165"><ele>53.0</ele><time>2026-03-22T15:44:38.855Z</time></trkpt><trkpt lat="43.76526765716254" lon="11.240887471010673"><ele>53.0</ele><time>2026-03-22T15:44:39.855Z</time></trkpt><trkpt lat="43.76515408164195" lon="11.240902259922562"><ele>53.0</ele><time>2026-03-22T15:44:40.855Z</time></trkpt><trkpt lat="43.7650312878012" lon="11.240900729782016"><ele>53.0</ele><time>2026-03-22T15:44:41.855Z</time></trkpt><trkpt lat="43.76491790281626" lon="11.24092662023359"><ele>53.25</ele><time>2026-03-22T15:44:42.855Z</time></trkpt><trkpt lat="43.76479626631002" lon="11.240943290640294"><ele>53.5</ele><time>2026-03-22T15:44:43.855Z</time></trkpt><trkpt lat="43.764673388739816" lon="11.240947124741913"><ele>53.75</ele><time>2026-03-22T15:44:44.855Z</time></trkpt><trkpt lat="43.764542705387655" lon="11.240950427875944"><ele>54.0</ele><time>2026-03-22T15:44:45.855Z</time></trkpt><trkpt lat="43.76441970933402" lon="11.24096350224736"><ele>53.400000000000006</ele><time>2026-03-22T15:44:46.855Z</time></trkpt><trkpt lat="43.76432742683551" lon="11.240979141116869"><ele>52.800000000000004</ele><time>2026-03-22T15:44:47.855Z</time></trkpt><trkpt lat="43.76420459818301" lon="11.240979644913496"><ele>52.2</ele><time>2026-03-22T15:44:48.855Z</time></trkpt><trkpt lat="43.764102506598746" lon="11.240996449629773"><ele>51.599999999999994</ele><time>2026-03-22T15:44:49.855Z</time></trkpt><trkpt lat="43.764007132651926" lon="11.240983819094955"><ele>51.0</ele><time>2026-03-22T15:44:50.855Z</time></trkpt><trkpt lat="43.76390681025279" lon="11.241003225943997"><ele>51.0</ele><time>2026-03-22T15:44:51.855Z</time></trkpt><trkpt lat="43.763798528930685" lon="11.241002686392786"><ele>51.0</ele><time>2026-03-22T15:44:52.855Z</time></trkpt><trkpt lat="43.7636773939931" lon="11.240999354856543"><ele>51.0</ele><time>2026-03-22T15:44:53.855Z</time></trkpt><trkpt lat="43.76356553756064" lon="11.241018069820951"><ele>51.0</ele><time>2026-03-22T15:44:54.854Z</time></trkpt><trkpt lat="43.76344965220947" lon="11.241032272498558"><ele>51.5</ele><time>2026-03-22T15:44:55.854Z</time></trkpt><trkpt lat="43.76332156835802" lon="11.24105496527912"><ele>52.0</ele><time>2026-03-22T15:44:56.854Z</time></trkpt><trkpt lat="43.76317965379533" lon="11.241069839384522"><ele>52.5</ele><time>2026-03-22T15:44:57.854Z</time></trkpt><trkpt lat="43.76304852504921" lon="11.241077349548577"><ele>53.0</ele><time>2026-03-22T15:44:58.854Z</time></trkpt><trkpt lat="43.762918300688014" lon="11.24109437794191"><ele>53.0</ele><time>2026-03-22T15:44:59.854Z</time></trkpt><trkpt lat="43.7628059113893" lon="11.241094377912932"><ele>53.0</ele><time>2026-03-22T15:45:00.854Z</time></trkpt><trkpt lat="43.76269363379222" lon="11.241111423209414"><ele>53.0</ele><time>2026-03-22T15:45:01.854Z</time></trkpt><trkpt lat="43.762584335803865" lon="11.241127191637021"><ele>53.0</ele><time>2026-03-22T15:45:02.854Z</time></trkpt><trkpt lat="43.76248156167594" lon="11.241143650100607"><ele>53.0</ele><time>2026-03-22T15:45:03.854Z</time></trkpt><trkpt lat="43.76237166682245" lon="11.241163629065463"><ele>53.25</ele><time>2026-03-22T15:45:04.854Z</time></trkpt><trkpt lat="43.762258760877266" lon="11.24117905111776"><ele>53.5</ele><time>2026-03-22T15:45:05.854Z</time></trkpt><trkpt lat="43.762138976610785" lon="11.241182602160091"><ele>53.75</ele><time>2026-03-22T15:45:06.854Z</time></trkpt><trkpt lat="43.76202060282523" lon="11.241193599966364"><ele>54.0</ele><time>2026-03-22T15:45:07.854Z</time></trkpt><trkpt lat="43.761910483293164" lon="11.241206796539997"><ele>54.5</ele><time>2026-03-22T15:45:08.854Z</time></trkpt><trkpt lat="43.76180925263091" lon="11.24121619641831"><ele>55.0</ele><time>2026-03-22T15:45:09.854Z</time></trkpt><trkpt lat="43.761715775397114" lon="11.24122356972664"><ele>55.5</ele><time>2026-03-22T15:45:10.854Z</time></trkpt><trkpt lat="43.76162648849778" lon="11.241232733512721"><ele>56.0</ele><time>2026-03-22T15:45:11.854Z</time></trkpt><trkpt lat="43.76155290930111" lon="11.241239781890254"><ele>56.5</ele><time>2026-03-22T15:45:12.854Z</time></trkpt><trkpt lat="43.761481520654264" lon="11.241237884244144"><ele>57.0</ele><time>2026-03-22T15:45:13.854Z</time></trkpt><trkpt lat="43.7614170348781" lon="11.241235907270356"><ele>57.0</ele><time>2026-03-22T15:45:14.854Z</time></trkpt><trkpt lat="43.76130161488271" lon="11.24124819398506"><ele>57.0</ele><time>2026-03-22T15:45:16.854Z</time></trkpt><trkpt lat="43.76118108815324" lon="11.241265502620653"><ele>57.0</ele><time>2026-03-22T15:45:18.854Z</time></trkpt><trkpt lat="43.761076976657655" lon="11.241256588507754"><ele>57.0</ele><time>2026-03-22T15:45:20.854Z</time></trkpt><trkpt lat="43.761005226669496" lon="11.241290654134378"><ele>57.0</ele><time>2026-03-22T15:45:22.854Z</time></trkpt><trkpt lat="43.76090666993838" lon="11.241318036710373"><ele>57.0</ele><time>2026-03-22T15:45:24.854Z</time></trkpt><trkpt lat="43.760782946439654" lon="11.24136120144118"><ele>57.0</ele><time>2026-03-22T15:45:26.854Z</time></trkpt><trkpt lat="43.760704835592634" lon="11.24139084374388"><ele>57.0</ele><time>2026-03-22T15:45:27.857Z</time></trkpt><trkpt lat="43.76059691822169" lon="11.241454959077249"><ele>57.0</ele><time>2026-03-22T15:45:28.856Z</time></trkpt><trkpt lat="43.76048263781288" lon="11.24151627143473"><ele>57.0</ele><time>2026-03-22T15:45:29.856Z</time></trkpt><trkpt lat="43.76039294312893" lon="11.241560208833118"><ele>57.0</ele><time>2026-03-22T15:45:30.857Z</time></trkpt><trkpt lat="43.76031753951108" lon="11.241620617968403"><ele>57.0</ele><time>2026-03-22T15:45:31.856Z</time></trkpt><trkpt lat="43.76025364425638" lon="11.241725705328168"><ele>57.0</ele><time>2026-03-22T15:45:32.856Z</time></trkpt><trkpt lat="43.76018181499354" lon="11.241806693847916"><ele>57.0</ele><time>2026-03-22T15:45:33.857Z</time></trkpt><trkpt lat="43.76009068492298" lon="11.24188488683608"><ele>57.0</ele><time>2026-03-22T15:45:34.856Z</time></trkpt><trkpt lat="43.75997825143787" lon="11.241952844482398"><ele>57.0</ele><time>2026-03-22T15:45:35.856Z</time></trkpt><trkpt lat="43.75984948164623" lon="11.2420408467865"><ele>57.0</ele><time>2026-03-22T15:45:36.856Z</time></trkpt><trkpt lat="43.75969524968447" lon="11.2421182304215"><ele>57.0</ele><time>2026-03-22T15:45:37.856Z</time></trkpt><trkpt lat="43.75950606215391" lon="11.242238682187553"><ele>60.5</ele><time>2026-03-22T15:45:38.856Z</time></trkpt><trkpt lat="43.75925540758312" lon="11.242372109477099"><ele>64.0</ele><time>2026-03-22T15:45:39.857Z</time></trkpt><trkpt lat="43.758993680628905" lon="11.24250439933419"><ele>64.0</ele><time>2026-03-22T15:45:40.857Z</time></trkpt><trkpt lat="43.758712083134014" lon="11.2426581459125"><ele>64.0</ele><time>2026-03-22T15:45:41.857Z</time></trkpt><trkpt lat="43.758418412030835" lon="11.242811686497557"><ele>66.5</ele><time>2026-03-22T15:45:42.857Z</time></trkpt><trkpt lat="43.75815299196596" lon="11.242955050431961"><ele>69.0</ele><time>2026-03-22T15:45:43.857Z</time></trkpt><trkpt lat="43.75791319887351" lon="11.243067025782652"><ele>70.66666666666667</ele><time>2026-03-22T15:45:44.857Z</time></trkpt><trkpt lat="43.75770093912805" lon="11.24319179219721"><ele>72.33333333333334</ele><time>2026-03-22T15:45:45.857Z</time></trkpt><trkpt lat="43.757509486205834" lon="11.243302323534225"><ele>74.0</ele><time>2026-03-22T15:45:46.857Z</time></trkpt><trkpt lat="43.757342964516575" lon="11.243385627487138"><ele>74.0</ele><time>2026-03-22T15:45:47.857Z</time></trkpt><trkpt lat="43.75716900202337" lon="11.243473144840534"><ele>74.0</ele><time>2026-03-22T15:45:48.857Z</time></trkpt><trkpt lat="43.756994116890255" lon="11.243560236619066"><ele>74.0</ele><time>2026-03-22T15:45:49.857Z</time></trkpt><trkpt lat="43.756811153173686" lon="11.24365560988585"><ele>76.0</ele><time>2026-03-22T15:45:50.857Z</time></trkpt><trkpt lat="43.756617022535266" lon="11.243764406036451"><ele>78.0</ele><time>2026-03-22T15:45:51.857Z</time></trkpt><trkpt lat="43.75642321546089" lon="11.243886374809483"><ele>80.0</ele><time>2026-03-22T15:45:52.857Z</time></trkpt><trkpt lat="43.756219254707275" lon="11.243994155804565"><ele>84.33333333333334</ele><time>2026-03-22T15:45:53.857Z</time></trkpt><trkpt lat="43.75600863763084" lon="11.244106121404032"><ele>88.66666666666667</ele><time>2026-03-22T15:45:54.857Z</time></trkpt><trkpt lat="43.755799526587666" lon="11.244216949068717"><ele>93.0</ele><time>2026-03-22T15:45:55.857Z</time></trkpt><trkpt lat="43.75558524311462" lon="11.244331735619001"><ele>93.0</ele><time>2026-03-22T15:45:56.857Z</time></trkpt><trkpt lat="43.75537295034111" lon="11.244436151221894"><ele>93.0</ele><time>2026-03-22T15:45:57.857Z</time></trkpt><trkpt lat="43.75515655957795" lon="11.24455738511749"><ele>97.5</ele><time>2026-03-22T15:45:58.857Z</time></trkpt><trkpt lat="43.75492960335269" lon="11.244678687847513"><ele>102.0</ele><time>2026-03-22T15:45:59.857Z</time></trkpt><trkpt lat="43.75468930851481" lon="11.244794277965921"><ele>103.0</ele><time>2026-03-22T15:46:00.857Z</time></trkpt><trkpt lat="43.75446071809286" lon="11.244923501628312"><ele>104.0</ele><time>2026-03-22T15:46:01.857Z</time></trkpt><trkpt lat="43.75424232590335" lon="11.245046628354842"><ele>105.33333333333333</ele><time>2026-03-22T15:46:02.857Z</time></trkpt><trkpt lat="43.75405006142698" lon="11.245154327901002"><ele>106.66666666666666</ele><time>2026-03-22T15:46:03.857Z</time></trkpt><trkpt lat="43.75387835497718" lon="11.245259958799956"><ele>108.0</ele><time>2026-03-22T15:46:04.857Z</time></trkpt><trkpt lat="43.75367560706214" lon="11.245371737514548"><ele>107.33333333333334</ele><time>2026-03-22T15:46:05.857Z</time></trkpt><trkpt lat="43.753486703569536" lon="11.245466865908602"><ele>106.66666666666667</ele><time>2026-03-22T15:46:06.857Z</time></trkpt><trkpt lat="43.7533376634827" lon="11.245533145504531"><ele>106.0</ele><time>2026-03-22T15:46:07.857Z</time></trkpt><trkpt lat="43.75322372281527" lon="11.245586247748802"><ele>106.00000000000001</ele><time>2026-03-22T15:46:08.857Z</time></trkpt><trkpt lat="43.753151709248925" lon="11.245627778292807"><ele>106.0</ele><time>2026-03-22T15:46:09.857Z</time></trkpt><trkpt lat="43.75309758714064" lon="11.245694501448254"><ele>106.0</ele><time>2026-03-22T15:46:10.857Z</time></trkpt><trkpt lat="43.753077394113106" lon="11.245801512947619"><ele>106.0</ele><time>2026-03-22T15:46:12.856Z</time></trkpt><trkpt lat="43.75312191978269" lon="11.245950905629527"><ele>106.00000000000001</ele><time>2026-03-22T15:46:13.856Z</time></trkpt><trkpt lat="43.75317563170436" lon="11.246069441313631"><ele>106.0</ele><time>2026-03-22T15:46:14.856Z</time></trkpt><trkpt lat="43.75324187033311" lon="11.246187239035443"><ele>105.75</ele><time>2026-03-22T15:46:15.856Z</time></trkpt><trkpt lat="43.75332218248274" lon="11.246325788703736"><ele>105.5</ele><time>2026-03-22T15:46:16.856Z</time></trkpt><trkpt lat="43.753400380655044" lon="11.246505644457258"><ele>105.25</ele><time>2026-03-22T15:46:17.856Z</time></trkpt><trkpt lat="43.75348834868908" lon="11.246705006433693"><ele>105.0</ele><time>2026-03-22T15:46:18.856Z</time></trkpt><trkpt lat="43.75357409768007" lon="11.246905923232616"><ele>105.0</ele><time>2026-03-22T15:46:19.856Z</time></trkpt><trkpt lat="43.75366886580155" lon="11.247112777193367"><ele>105.0</ele><time>2026-03-22T15:46:20.856Z</time></trkpt><trkpt lat="43.753753117308456" lon="11.247321630568718"><ele>105.0</ele><time>2026-03-22T15:46:21.856Z</time></trkpt><trkpt lat="43.753837587594326" lon="11.247534816615314"><ele>106.33333333333334</ele><time>2026-03-22T15:46:22.856Z</time></trkpt><trkpt lat="43.75393355364101" lon="11.24774605792127"><ele>107.66666666666667</ele><time>2026-03-22T15:46:23.856Z</time></trkpt><trkpt lat="43.754033496511354" lon="11.247973054052306"><ele>109.0</ele><time>2026-03-22T15:46:24.856Z</time></trkpt><trkpt lat="43.75412424480458" lon="11.248221354920755"><ele>110.33333333333334</ele><time>2026-03-22T15:46:25.856Z</time></trkpt><trkpt lat="43.75423540026976" lon="11.24846910452841"><ele>111.66666666666666</ele><time>2026-03-22T15:46:26.856Z</time></trkpt><trkpt lat="43.75434591094185" lon="11.248713629896159"><ele>113.0</ele><time>2026-03-22T15:46:27.856Z</time></trkpt><trkpt lat="43.75445692381667" lon="11.248963766713517"><ele>113.66666666666666</ele><time>2026-03-22T15:46:28.856Z</time></trkpt><trkpt lat="43.754583114414245" lon="11.249200172038465"><ele>114.33333333333334</ele><time>2026-03-22T15:46:29.856Z</time></trkpt><trkpt lat="43.75470804910809" lon="11.249415537275597"><ele>115.0</ele><time>2026-03-22T15:46:30.856Z</time></trkpt><trkpt lat="43.754834343779386" lon="11.24958777537618"><ele>115.0</ele><time>2026-03-22T15:46:31.856Z</time></trkpt><trkpt lat="43.75494913420817" lon="11.249729823904762"><ele>115.0</ele><time>2026-03-22T15:46:32.856Z</time></trkpt><trkpt lat="43.755068930023036" lon="11.249850436530641"><ele>115.0</ele><time>2026-03-22T15:46:33.856Z</time></trkpt><trkpt lat="43.75516409684386" lon="11.249967924392479"><ele>115.0</ele><time>2026-03-22T15:46:34.856Z</time></trkpt><trkpt lat="43.75522982940297" lon="11.25007764361825"><ele>116.75</ele><time>2026-03-22T15:46:35.856Z</time></trkpt><trkpt lat="43.75528350889084" lon="11.250207928174746"><ele>118.5</ele><time>2026-03-22T15:46:36.856Z</time></trkpt><trkpt lat="43.75529893693083" lon="11.250318612427868"><ele>120.25</ele><time>2026-03-22T15:46:37.856Z</time></trkpt><trkpt lat="43.75534112554698" lon="11.250476417695754"><ele>122.0</ele><time>2026-03-22T15:46:39.856Z</time></trkpt><trkpt lat="43.755237160452815" lon="11.250635283039983"><ele>121.5</ele><time>2026-03-22T15:46:40.856Z</time></trkpt><trkpt lat="43.755176231415334" lon="11.250756776483845"><ele>121.0</ele><time>2026-03-22T15:46:41.856Z</time></trkpt><trkpt lat="43.755097029756854" lon="11.250883841682068"><ele>120.5</ele><time>2026-03-22T15:46:42.856Z</time></trkpt><trkpt lat="43.75501978171291" lon="11.250993643414157"><ele>120.0</ele><time>2026-03-22T15:46:43.856Z</time></trkpt><trkpt lat="43.75495502010094" lon="11.251122674762813"><ele>120.0</ele><time>2026-03-22T15:46:44.856Z</time></trkpt><trkpt lat="43.75491999797313" lon="11.251228360253233"><ele>120.0</ele><time>2026-03-22T15:46:45.856Z</time></trkpt><trkpt lat="43.75489603721523" lon="11.251324910073393"><ele>120.0</ele><time>2026-03-22T15:46:46.856Z</time></trkpt><trkpt lat="43.75487993438417" lon="11.251477358468788"><ele>120.0</ele><time>2026-03-22T15:46:48.856Z</time></trkpt><trkpt lat="43.75488456195595" lon="11.251591239014466"><ele>120.0</ele><time>2026-03-22T15:46:51.856Z</time></trkpt><trkpt lat="43.7549230261094" lon="11.251758516672167"><ele>120.5</ele><time>2026-03-22T15:47:12.855Z</time></trkpt><trkpt lat="43.75484352485918" lon="11.251848566492683"><ele>121.0</ele><time>2026-03-22T15:47:18.855Z</time></trkpt><trkpt lat="43.754838565674255" lon="11.251998353921048"><ele>121.5</ele><time>2026-03-22T15:47:19.855Z</time></trkpt><trkpt lat="43.754838916170996" lon="11.252184033739413"><ele>122.0</ele><time>2026-03-22T15:47:20.855Z</time></trkpt><trkpt lat="43.75482953020096" lon="11.252419701127007"><ele>122.0</ele><time>2026-03-22T15:47:21.855Z</time></trkpt><trkpt lat="43.7548081310866" lon="11.252677714982026"><ele>122.0</ele><time>2026-03-22T15:47:22.855Z</time></trkpt><trkpt lat="43.75475095017645" lon="11.252941820190879"><ele>122.0</ele><time>2026-03-22T15:47:23.855Z</time></trkpt><trkpt lat="43.75468093795103" lon="11.253199369090995"><ele>120.66666666666666</ele><time>2026-03-22T15:47:24.855Z</time></trkpt><trkpt lat="43.754603177382776" lon="11.253459330719744"><ele>119.33333333333334</ele><time>2026-03-22T15:47:25.855Z</time></trkpt><trkpt lat="43.7545338806722" lon="11.253720424629579"><ele>118.0</ele><time>2026-03-22T15:47:26.855Z</time></trkpt><trkpt lat="43.75446065413208" lon="11.253968185061222"><ele>118.0</ele><time>2026-03-22T15:47:27.855Z</time></trkpt><trkpt lat="43.754393459288295" lon="11.254200182215753"><ele>118.0</ele><time>2026-03-22T15:47:28.855Z</time></trkpt><trkpt lat="43.75433875833409" lon="11.25441239574647"><ele>118.0</ele><time>2026-03-22T15:47:29.855Z</time></trkpt><trkpt lat="43.75426522094389" lon="11.254615114827397"><ele>120.0</ele><time>2026-03-22T15:47:30.855Z</time></trkpt><trkpt lat="43.75421041130229" lon="11.254811192785342"><ele>122.0</ele><time>2026-03-22T15:47:31.855Z</time></trkpt><trkpt lat="43.75416530341101" lon="11.254999569981102"><ele>124.0</ele><time>2026-03-22T15:47:32.856Z</time></trkpt><trkpt lat="43.75414879293911" lon="11.255180294731401"><ele>126.0</ele><time>2026-03-22T15:47:33.856Z</time></trkpt><trkpt lat="43.75412259370899" lon="11.255337949819017"><ele>126.0</ele><time>2026-03-22T15:47:34.856Z</time></trkpt><trkpt lat="43.754162380130985" lon="11.255504413289124"><ele>126.0</ele><time>2026-03-22T15:47:35.857Z</time></trkpt><trkpt lat="43.754215327645646" lon="11.255646682744967"><ele>126.0</ele><time>2026-03-22T15:47:36.856Z</time></trkpt><trkpt lat="43.75428222519441" lon="11.255756948307228"><ele>126.0</ele><time>2026-03-22T15:47:37.856Z</time></trkpt><trkpt lat="43.754366675220474" lon="11.255865914392704"><ele>124.25</ele><time>2026-03-22T15:47:38.856Z</time></trkpt><trkpt lat="43.754449375760565" lon="11.255942248650282"><ele>122.5</ele><time>2026-03-22T15:47:39.857Z</time></trkpt><trkpt lat="43.754553484243026" lon="11.256005783634214"><ele>120.75</ele><time>2026-03-22T15:47:40.857Z</time></trkpt><trkpt lat="43.75466949420501" lon="11.256047379322775"><ele>119.0</ele><time>2026-03-22T15:47:41.857Z</time></trkpt><trkpt lat="43.75478584253394" lon="11.256037688662067"><ele>119.0</ele><time>2026-03-22T15:47:42.856Z</time></trkpt><trkpt lat="43.75490675454695" lon="11.256003239664894"><ele>119.0</ele><time>2026-03-22T15:47:43.856Z</time></trkpt><trkpt lat="43.755031441691564" lon="11.2559452708189"><ele>119.0</ele><time>2026-03-22T15:47:44.857Z</time></trkpt><trkpt lat="43.75516279511142" lon="11.255895312752104"><ele>119.0</ele><time>2026-03-22T15:47:45.857Z</time></trkpt><trkpt lat="43.75529688529384" lon="11.255866199143457"><ele>118.5</ele><time>2026-03-22T15:47:46.857Z</time></trkpt><trkpt lat="43.755437793245655" lon="11.25585879172248"><ele>118.0</ele><time>2026-03-22T15:47:47.857Z</time></trkpt><trkpt lat="43.75557840748513" lon="11.255880686096576"><ele>117.5</ele><time>2026-03-22T15:47:48.857Z</time></trkpt><trkpt lat="43.755729245482925" lon="11.255928147654153"><ele>117.0</ele><time>2026-03-22T15:47:49.857Z</time></trkpt><trkpt lat="43.75588392926404" lon="11.255999019422902"><ele>113.33333333333334</ele><time>2026-03-22T15:47:50.857Z</time></trkpt><trkpt lat="43.75604188311011" lon="11.256104229947265"><ele>109.66666666666667</ele><time>2026-03-22T15:47:51.857Z</time></trkpt><trkpt lat="43.75619956918853" lon="11.25624771838101"><ele>106.0</ele><time>2026-03-22T15:47:52.857Z</time></trkpt><trkpt lat="43.75636825444731" lon="11.256405530805942"><ele>111.0</ele><time>2026-03-22T15:47:53.857Z</time></trkpt><trkpt lat="43.75651834576518" lon="11.2565606131603"><ele>116.0</ele><time>2026-03-22T15:47:54.857Z</time></trkpt><trkpt lat="43.75665194898445" lon="11.256713876204627"><ele>121.0</ele><time>2026-03-22T15:47:55.857Z</time></trkpt><trkpt lat="43.75676599645267" lon="11.256839992955005"><ele>121.0</ele><time>2026-03-22T15:47:56.857Z</time></trkpt><trkpt lat="43.75686856471959" lon="11.256948546956"><ele>121.0</ele><time>2026-03-22T15:47:57.857Z</time></trkpt><trkpt lat="43.7569576263859" lon="11.257052363675626"><ele>121.0</ele><time>2026-03-22T15:47:58.857Z</time></trkpt><trkpt lat="43.75704511789171" lon="11.257152759313671"><ele>121.0</ele><time>2026-03-22T15:47:59.857Z</time></trkpt><trkpt lat="43.75712858376754" lon="11.257271375656805"><ele>119.5</ele><time>2026-03-22T15:48:00.857Z</time></trkpt><trkpt lat="43.75722185114087" lon="11.257376254031223"><ele>118.0</ele><time>2026-03-22T15:48:01.857Z</time></trkpt><trkpt lat="43.75733959286314" lon="11.257479882372106"><ele>116.5</ele><time>2026-03-22T15:48:02.857Z</time></trkpt><trkpt lat="43.75744771418484" lon="11.257630234550922"><ele>115.0</ele><time>2026-03-22T15:48:03.857Z</time></trkpt><trkpt lat="43.7575753185708" lon="11.257772132903423"><ele>112.0</ele><time>2026-03-22T15:48:04.857Z</time></trkpt><trkpt lat="43.75771125844914" lon="11.25790714408018"><ele>109.0</ele><time>2026-03-22T15:48:05.857Z</time></trkpt><trkpt lat="43.75783116869336" lon="11.258058242711902"><ele>106.0</ele><time>2026-03-22T15:48:06.857Z</time></trkpt><trkpt lat="43.75792823912927" lon="11.258203750983892"><ele>106.0</ele><time>2026-03-22T15:48:07.857Z</time></trkpt><trkpt lat="43.758012454457344" lon="11.258338578994767"><ele>106.0</ele><time>2026-03-22T15:48:08.857Z</time></trkpt><trkpt lat="43.75806323161681" lon="11.258491864354442"><ele>106.0</ele><time>2026-03-22T15:48:09.856Z</time></trkpt><trkpt lat="43.75808634087367" lon="11.258659852809501"><ele>106.0</ele><time>2026-03-22T15:48:10.856Z</time></trkpt><trkpt lat="43.75806278921002" lon="11.25883278467914"><ele>106.75</ele><time>2026-03-22T15:48:11.856Z</time></trkpt><trkpt lat="43.75801269650264" lon="11.258994775592672"><ele>107.5</ele><time>2026-03-22T15:48:12.856Z</time></trkpt><trkpt lat="43.75791405740259" lon="11.259133006135485"><ele>108.25</ele><time>2026-03-22T15:48:13.856Z</time></trkpt><trkpt lat="43.757815348112246" lon="11.259276015279546"><ele>109.0</ele><time>2026-03-22T15:48:14.856Z</time></trkpt><trkpt lat="43.75772326298375" lon="11.25944148706836"><ele>113.25</ele><time>2026-03-22T15:48:15.856Z</time></trkpt><trkpt lat="43.7576509872233" lon="11.25961758098662"><ele>117.5</ele><time>2026-03-22T15:48:16.856Z</time></trkpt><trkpt lat="43.757614976443655" lon="11.259811063937267"><ele>121.75</ele><time>2026-03-22T15:48:17.856Z</time></trkpt><trkpt lat="43.75761155056561" lon="11.259989201975285"><ele>126.0</ele><time>2026-03-22T15:48:18.856Z</time></trkpt><trkpt lat="43.75764703842032" lon="11.26014772275085"><ele>126.0</ele><time>2026-03-22T15:48:19.856Z</time></trkpt><trkpt lat="43.75768987082846" lon="11.260291036632568"><ele>126.0</ele><time>2026-03-22T15:48:20.856Z</time></trkpt><trkpt lat="43.75774788951326" lon="11.260435896353176"><ele>126.0</ele><time>2026-03-22T15:48:21.856Z</time></trkpt><trkpt lat="43.757814369034065" lon="11.260579267765673"><ele>126.0</ele><time>2026-03-22T15:48:22.856Z</time></trkpt><trkpt lat="43.75787131151938" lon="11.260742295777542"><ele>124.0</ele><time>2026-03-22T15:48:23.856Z</time></trkpt><trkpt lat="43.757931176600316" lon="11.260923088606082"><ele>122.0</ele><time>2026-03-22T15:48:24.856Z</time></trkpt><trkpt lat="43.75799547553217" lon="11.261117625238867"><ele>120.0</ele><time>2026-03-22T15:48:25.856Z</time></trkpt><trkpt lat="43.75805519067682" lon="11.26131871673098"><ele>120.0</ele><time>2026-03-22T15:48:26.856Z</time></trkpt><trkpt lat="43.75810377240795" lon="11.261534982544141"><ele>120.0</ele><time>2026-03-22T15:48:27.856Z</time></trkpt><trkpt lat="43.758145773641466" lon="11.261741673286918"><ele>120.0</ele><time>2026-03-22T15:48:28.856Z</time></trkpt><trkpt lat="43.75817921812734" lon="11.261944880156932"><ele>120.0</ele><time>2026-03-22T15:48:29.856Z</time></trkpt><trkpt lat="43.75821261818871" lon="11.26213065233747"><ele>120.0</ele><time>2026-03-22T15:48:30.856Z</time></trkpt><trkpt lat="43.75826385185879" lon="11.262292912483028"><ele>120.0</ele><time>2026-03-22T15:48:31.856Z</time></trkpt><trkpt lat="43.75834206682228" lon="11.262439276017762"><ele>120.0</ele><time>2026-03-22T15:48:32.856Z</time></trkpt><trkpt lat="43.75843742955206" lon="11.26256238904463"><ele>118.0</ele><time>2026-03-22T15:48:33.856Z</time></trkpt><trkpt lat="43.75855533892941" lon="11.26264735665367"><ele>116.0</ele><time>2026-03-22T15:48:34.856Z</time></trkpt><trkpt lat="43.75868799037138" lon="11.262710168709532"><ele>114.0</ele><time>2026-03-22T15:48:35.856Z</time></trkpt><trkpt lat="43.7588261641344" lon="11.26275908294906"><ele>112.0</ele><time>2026-03-22T15:48:36.856Z</time></trkpt><trkpt lat="43.758967971545935" lon="11.262799017924355"><ele>112.0</ele><time>2026-03-22T15:48:37.856Z</time></trkpt><trkpt lat="43.75911027239756" lon="11.26284782921314"><ele>112.0</ele><time>2026-03-22T15:48:38.856Z</time></trkpt><trkpt lat="43.759237785050274" lon="11.262904971732844"><ele>112.0</ele><time>2026-03-22T15:48:39.856Z</time></trkpt><trkpt lat="43.75934753935503" lon="11.26296857405362"><ele>112.0</ele><time>2026-03-22T15:48:40.856Z</time></trkpt><trkpt lat="43.75945302549695" lon="11.263037750184953"><ele>111.5</ele><time>2026-03-22T15:48:41.856Z</time></trkpt><trkpt lat="43.759547917112045" lon="11.263111051745074"><ele>111.0</ele><time>2026-03-22T15:48:42.856Z</time></trkpt><trkpt lat="43.75964083591634" lon="11.263195445645373"><ele>110.5</ele><time>2026-03-22T15:48:43.856Z</time></trkpt><trkpt lat="43.75972462651333" lon="11.263289334043025"><ele>110.0</ele><time>2026-03-22T15:48:44.856Z</time></trkpt><trkpt lat="43.75981653786788" lon="11.263405601470339"><ele>110.0</ele><time>2026-03-22T15:48:45.856Z</time></trkpt><trkpt lat="43.75990075466242" lon="11.263538653571155"><ele>110.0</ele><time>2026-03-22T15:48:46.856Z</time></trkpt><trkpt lat="43.75999068339088" lon="11.263689096061556"><ele>110.0</ele><time>2026-03-22T15:48:47.856Z</time></trkpt><trkpt lat="43.76008454285245" lon="11.263854205482344"><ele>110.0</ele><time>2026-03-22T15:48:48.856Z</time></trkpt><trkpt lat="43.76017513595262" lon="11.264012350967691"><ele>108.75</ele><time>2026-03-22T15:48:49.856Z</time></trkpt><trkpt lat="43.760272554470156" lon="11.264169745983228"><ele>107.5</ele><time>2026-03-22T15:48:50.856Z</time></trkpt><trkpt lat="43.76036439323039" lon="11.264296536019799"><ele>106.25</ele><time>2026-03-22T15:48:51.856Z</time></trkpt><trkpt lat="43.760468414859325" lon="11.264391849211101"><ele>105.0</ele><time>2026-03-22T15:48:52.856Z</time></trkpt><trkpt lat="43.76058166457839" lon="11.26446825555917"><ele>105.0</ele><time>2026-03-22T15:48:53.856Z</time></trkpt><trkpt lat="43.760690722816015" lon="11.264525589440435"><ele>105.0</ele><time>2026-03-22T15:48:54.856Z</time></trkpt><trkpt lat="43.760802051670765" lon="11.26456119525563"><ele>105.0</ele><time>2026-03-22T15:48:55.855Z</time></trkpt><trkpt lat="43.7609152495595" lon="11.264585345726298"><ele>105.0</ele><time>2026-03-22T15:48:56.855Z</time></trkpt><trkpt lat="43.76103666498128" lon="11.26458875519316"><ele>104.0</ele><time>2026-03-22T15:48:57.855Z</time></trkpt><trkpt lat="43.76115374223997" lon="11.264573843698965"><ele>103.0</ele><time>2026-03-22T15:48:58.855Z</time></trkpt><trkpt lat="43.761295776989385" lon="11.264526962184103"><ele>102.0</ele><time>2026-03-22T15:48:59.855Z</time></trkpt><trkpt lat="43.7614133161956" lon="11.264491468115441"><ele>101.0</ele><time>2026-03-22T15:49:00.855Z</time></trkpt><trkpt lat="43.76153457945965" lon="11.264459017869726"><ele>101.0</ele><time>2026-03-22T15:49:01.855Z</time></trkpt><trkpt lat="43.76166171813486" lon="11.264401146140514"><ele>101.0</ele><time>2026-03-22T15:49:02.855Z</time></trkpt><trkpt lat="43.761752313688135" lon="11.264372235408842"><ele>101.0</ele><time>2026-03-22T15:49:03.855Z</time></trkpt><trkpt lat="43.7618414681284" lon="11.2643572097"><ele>101.0</ele><time>2026-03-22T15:49:04.855Z</time></trkpt><trkpt lat="43.76191340639451" lon="11.264330498401144"><ele>101.0</ele><time>2026-03-22T15:49:05.855Z</time></trkpt><trkpt lat="43.76198642225916" lon="11.264320098947485"><ele>100.66666666666666</ele><time>2026-03-22T15:49:06.855Z</time></trkpt><trkpt lat="43.76210547457258" lon="11.26429438510467"><ele>100.33333333333333</ele><time>2026-03-22T15:49:08.855Z</time></trkpt><trkpt lat="43.762177992121295" lon="11.26430604261747"><ele>100.0</ele><time>2026-03-22T15:49:09.855Z</time></trkpt><trkpt lat="43.76225030706956" lon="11.26434104988429"><ele>99.66666666666666</ele><time>2026-03-22T15:49:10.855Z</time></trkpt><trkpt lat="43.7623100121594" lon="11.264397943215656"><ele>99.33333333333333</ele><time>2026-03-22T15:49:11.855Z</time></trkpt><trkpt lat="43.7623621083637" lon="11.264470140592245"><ele>99.0</ele><time>2026-03-22T15:49:12.855Z</time></trkpt><trkpt lat="43.76239677887876" lon="11.26455519270808"><ele>99.0</ele><time>2026-03-22T15:49:13.855Z</time></trkpt><trkpt lat="43.76242716145896" lon="11.264638061695482"><ele>99.0</ele><time>2026-03-22T15:49:14.855Z</time></trkpt><trkpt lat="43.76244197096781" lon="11.264792553253724"><ele>99.0</ele><time>2026-03-22T15:49:16.855Z</time></trkpt><trkpt lat="43.76242011832784" lon="11.264955950689965"><ele>99.0</ele><time>2026-03-22T15:49:18.855Z</time></trkpt><trkpt lat="43.76239528712655" lon="11.265092733984302"><ele>99.0</ele><time>2026-03-22T15:49:20.855Z</time></trkpt><trkpt lat="43.76236280983369" lon="11.265183622991739"><ele>99.4</ele><time>2026-03-22T15:49:21.855Z</time></trkpt><trkpt lat="43.762324215871296" lon="11.265277864854866"><ele>99.80000000000001</ele><time>2026-03-22T15:49:22.855Z</time></trkpt><trkpt lat="43.762278438786815" lon="11.265397978137166"><ele>100.19999999999999</ele><time>2026-03-22T15:49:23.855Z</time></trkpt><trkpt lat="43.76222968215505" lon="11.265521008934094"><ele>100.6</ele><time>2026-03-22T15:49:24.856Z</time></trkpt><trkpt lat="43.76216676216902" lon="11.265656839105192"><ele>101.0</ele><time>2026-03-22T15:49:25.856Z</time></trkpt><trkpt lat="43.76210716310109" lon="11.265798532588164"><ele>101.0</ele><time>2026-03-22T15:49:26.857Z</time></trkpt><trkpt lat="43.76204974988525" lon="11.265922967755932"><ele>101.0</ele><time>2026-03-22T15:49:27.857Z</time></trkpt><trkpt lat="43.76198065061131" lon="11.26605349883314"><ele>101.0</ele><time>2026-03-22T15:49:28.858Z</time></trkpt><trkpt lat="43.7619093963502" lon="11.266208578532924"><ele>101.0</ele><time>2026-03-22T15:49:29.858Z</time></trkpt><trkpt lat="43.761835150576324" lon="11.266349677631563"><ele>102.5</ele><time>2026-03-22T15:49:30.858Z</time></trkpt><trkpt lat="43.7617628061351" lon="11.266492394354154"><ele>104.0</ele><time>2026-03-22T15:49:31.859Z</time></trkpt><trkpt lat="43.76168567207195" lon="11.266649943921067"><ele>105.5</ele><time>2026-03-22T15:49:32.859Z</time></trkpt><trkpt lat="43.76161298695421" lon="11.266810167499903"><ele>107.0</ele><time>2026-03-22T15:49:33.859Z</time></trkpt><trkpt lat="43.76153901351224" lon="11.266979427040864"><ele>107.0</ele><time>2026-03-22T15:49:34.86Z</time></trkpt><trkpt lat="43.761463080792" lon="11.267141556995275"><ele>107.0</ele><time>2026-03-22T15:49:35.86Z</time></trkpt><trkpt lat="43.76140544619587" lon="11.267321447603154"><ele>107.0</ele><time>2026-03-22T15:49:36.86Z</time></trkpt><trkpt lat="43.76136712076977" lon="11.267490796558723"><ele>107.0</ele><time>2026-03-22T15:49:37.862Z</time></trkpt><trkpt lat="43.76133269980062" lon="11.267674588150943"><ele>104.5</ele><time>2026-03-22T15:49:38.862Z</time></trkpt><trkpt lat="43.76131210478355" lon="11.26784168552327"><ele>102.0</ele><time>2026-03-22T15:49:39.862Z</time></trkpt><trkpt lat="43.76129233803582" lon="11.268013056387101"><ele>99.5</ele><time>2026-03-22T15:49:40.863Z</time></trkpt><trkpt lat="43.761277770007936" lon="11.268177572607161"><ele>97.0</ele><time>2026-03-22T15:49:41.863Z</time></trkpt><trkpt lat="43.761280074403366" lon="11.268345336332015"><ele>96.75</ele><time>2026-03-22T15:49:42.863Z</time></trkpt><trkpt lat="43.7612940906469" lon="11.268532598855959"><ele>96.5</ele><time>2026-03-22T15:49:43.863Z</time></trkpt><trkpt lat="43.761302427575146" lon="11.268694090805285"><ele>96.25</ele><time>2026-03-22T15:49:44.864Z</time></trkpt><trkpt lat="43.761312175478075" lon="11.268869791469506"><ele>96.0</ele><time>2026-03-22T15:49:45.864Z</time></trkpt><trkpt lat="43.76133623361651" lon="11.269056380980208"><ele>96.0</ele><time>2026-03-22T15:49:46.864Z</time></trkpt><trkpt lat="43.76140416728889" lon="11.269223485850492"><ele>96.0</ele><time>2026-03-22T15:49:47.864Z</time></trkpt><trkpt lat="43.76138265041921" lon="11.269415406572344"><ele>96.0</ele><time>2026-03-22T15:49:48.864Z</time></trkpt><trkpt lat="43.7613499350473" lon="11.26956581390798"><ele>96.0</ele><time>2026-03-22T15:49:49.865Z</time></trkpt><trkpt lat="43.761300128674314" lon="11.269718756238928"><ele>95.25</ele><time>2026-03-22T15:49:50.864Z</time></trkpt><trkpt lat="43.76124305489365" lon="11.269837556094728"><ele>94.5</ele><time>2026-03-22T15:49:51.864Z</time></trkpt><trkpt lat="43.7611649816287" lon="11.269978765127926"><ele>93.75</ele><time>2026-03-22T15:49:52.864Z</time></trkpt><trkpt lat="43.761073065843874" lon="11.270097656153352"><ele>93.0</ele><time>2026-03-22T15:49:53.865Z</time></trkpt><trkpt lat="43.760973244076744" lon="11.270196609232915"><ele>94.60000000000001</ele><time>2026-03-22T15:49:54.865Z</time></trkpt><trkpt lat="43.760880191804546" lon="11.27026756358689"><ele>96.2</ele><time>2026-03-22T15:49:55.865Z</time></trkpt><trkpt lat="43.76078398233878" lon="11.270327698941692"><ele>97.8</ele><time>2026-03-22T15:49:56.865Z</time></trkpt><trkpt lat="43.76064463400347" lon="11.27037061366949"><ele>99.4</ele><time>2026-03-22T15:49:57.865Z</time></trkpt><trkpt lat="43.76055306710287" lon="11.27037686896938"><ele>101.0</ele><time>2026-03-22T15:49:58.865Z</time></trkpt><trkpt lat="43.76042028297753" lon="11.270376406637935"><ele>101.0</ele><time>2026-03-22T15:49:59.865Z</time></trkpt><trkpt lat="43.76028027030128" lon="11.270342996515108"><ele>101.0</ele><time>2026-03-22T15:50:00.865Z</time></trkpt><trkpt lat="43.76015055350031" lon="11.270291160679037"><ele>101.0</ele><time>2026-03-22T15:50:01.865Z</time></trkpt><trkpt lat="43.760033378406135" lon="11.270239504648607"><ele>101.0</ele><time>2026-03-22T15:50:02.865Z</time></trkpt><trkpt lat="43.759931533331105" lon="11.270184037094035"><ele>99.75</ele><time>2026-03-22T15:50:03.865Z</time></trkpt><trkpt lat="43.75981503401764" lon="11.270108532428255"><ele>98.5</ele><time>2026-03-22T15:50:04.865Z</time></trkpt><trkpt lat="43.75968309751848" lon="11.270005668105755"><ele>97.25</ele><time>2026-03-22T15:50:05.865Z</time></trkpt><trkpt lat="43.75957219242868" lon="11.269916078245195"><ele>96.0</ele><time>2026-03-22T15:50:06.865Z</time></trkpt><trkpt lat="43.7594640559075" lon="11.269830735369585"><ele>95.25</ele><time>2026-03-22T15:50:07.865Z</time></trkpt><trkpt lat="43.75934812852637" lon="11.26973924384263"><ele>94.5</ele><time>2026-03-22T15:50:08.865Z</time></trkpt><trkpt lat="43.75924831610599" lon="11.269660554589109"><ele>93.75</ele><time>2026-03-22T15:50:09.865Z</time></trkpt><trkpt lat="43.759145407333875" lon="11.269579704142368"><ele>93.0</ele><time>2026-03-22T15:50:10.865Z</time></trkpt><trkpt lat="43.75903194906119" lon="11.269490565478527"><ele>93.0</ele><time>2026-03-22T15:50:11.865Z</time></trkpt><trkpt lat="43.75890446089589" lon="11.269390404201932"><ele>93.0</ele><time>2026-03-22T15:50:12.865Z</time></trkpt><trkpt lat="43.75875579055842" lon="11.269273601129596"><ele>93.0</ele><time>2026-03-22T15:50:13.865Z</time></trkpt><trkpt lat="43.75859280516277" lon="11.26914555140202"><ele>92.33333333333333</ele><time>2026-03-22T15:50:14.865Z</time></trkpt><trkpt lat="43.75844635174281" lon="11.269033393702665"><ele>91.66666666666666</ele><time>2026-03-22T15:50:15.865Z</time></trkpt><trkpt lat="43.75830842859858" lon="11.26892754844921"><ele>91.0</ele><time>2026-03-22T15:50:16.865Z</time></trkpt><trkpt lat="43.758198874848794" lon="11.268840858789522"><ele>91.0</ele><time>2026-03-22T15:50:17.865Z</time></trkpt><trkpt lat="43.758099480316595" lon="11.268760129857249"><ele>91.0</ele><time>2026-03-22T15:50:18.865Z</time></trkpt><trkpt lat="43.758006533699984" lon="11.268684373369497"><ele>91.0</ele><time>2026-03-22T15:50:19.865Z</time></trkpt><trkpt lat="43.75791766348066" lon="11.268611939555939"><ele>91.0</ele><time>2026-03-22T15:50:20.865Z</time></trkpt><trkpt lat="43.75782344343291" lon="11.268535144918257"><ele>91.0</ele><time>2026-03-22T15:50:21.865Z</time></trkpt><trkpt lat="43.75773059646971" lon="11.268465014616284"><ele>89.4</ele><time>2026-03-22T15:50:22.865Z</time></trkpt><trkpt lat="43.75764418793022" lon="11.268407578314754"><ele>87.8</ele><time>2026-03-22T15:50:23.865Z</time></trkpt><trkpt lat="43.757539768738454" lon="11.268346075403118"><ele>86.2</ele><time>2026-03-22T15:50:24.865Z</time></trkpt><trkpt lat="43.75744000343933" lon="11.268311439512408"><ele>84.60000000000001</ele><time>2026-03-22T15:50:25.865Z</time></trkpt><trkpt lat="43.75733061440952" lon="11.268283342793659"><ele>83.0</ele><time>2026-03-22T15:50:26.865Z</time></trkpt><trkpt lat="43.75723074368679" lon="11.268261502770308"><ele>83.0</ele><time>2026-03-22T15:50:27.865Z</time></trkpt><trkpt lat="43.75712930675956" lon="11.268258862219774"><ele>83.0</ele><time>2026-03-22T15:50:28.865Z</time></trkpt><trkpt lat="43.7570349274397" lon="11.268281718266456"><ele>83.0</ele><time>2026-03-22T15:50:29.865Z</time></trkpt><trkpt lat="43.75694855788317" lon="11.268323136985149"><ele>83.0</ele><time>2026-03-22T15:50:30.865Z</time></trkpt><trkpt lat="43.756852679071194" lon="11.268388507640566"><ele>83.0</ele><time>2026-03-22T15:50:31.865Z</time></trkpt><trkpt lat="43.75677124726441" lon="11.268458455695631"><ele>82.2</ele><time>2026-03-22T15:50:32.865Z</time></trkpt><trkpt lat="43.75669061305662" lon="11.268555029127702"><ele>81.4</ele><time>2026-03-22T15:50:33.865Z</time></trkpt><trkpt lat="43.756621360991225" lon="11.268661727688666"><ele>80.60000000000001</ele><time>2026-03-22T15:50:34.865Z</time></trkpt><trkpt lat="43.756565082655136" lon="11.268777113081395"><ele>79.80000000000001</ele><time>2026-03-22T15:50:35.865Z</time></trkpt><trkpt lat="43.75652364185629" lon="11.268892465772472"><ele>79.0</ele><time>2026-03-22T15:50:36.865Z</time></trkpt><trkpt lat="43.75649431215173" lon="11.269033101291502"><ele>78.2</ele><time>2026-03-22T15:50:37.865Z</time></trkpt><trkpt lat="43.75648757348434" lon="11.269152821765923"><ele>77.4</ele><time>2026-03-22T15:50:38.865Z</time></trkpt><trkpt lat="43.75648852727579" lon="11.269289645231703"><ele>76.6</ele><time>2026-03-22T15:50:39.865Z</time></trkpt><trkpt lat="43.756500520978314" lon="11.269421024440783"><ele>75.8</ele><time>2026-03-22T15:50:40.865Z</time></trkpt><trkpt lat="43.756518987355165" lon="11.269527915913596"><ele>75.0</ele><time>2026-03-22T15:50:41.865Z</time></trkpt><trkpt lat="43.75656496458403" lon="11.269657602783228"><ele>75.25</ele><time>2026-03-22T15:50:42.865Z</time></trkpt><trkpt lat="43.756623699662335" lon="11.269812952057016"><ele>75.5</ele><time>2026-03-22T15:50:43.865Z</time></trkpt><trkpt lat="43.75668502397124" lon="11.269894460986919"><ele>75.75</ele><time>2026-03-22T15:50:44.865Z</time></trkpt><trkpt lat="43.756776374214205" lon="11.270011038376751"><ele>76.0</ele><time>2026-03-22T15:50:45.865Z</time></trkpt><trkpt lat="43.75687308922987" lon="11.270127363190706"><ele>74.5</ele><time>2026-03-22T15:50:46.865Z</time></trkpt><trkpt lat="43.75698938154049" lon="11.270257304732887"><ele>73.0</ele><time>2026-03-22T15:50:47.865Z</time></trkpt><trkpt lat="43.757111288614006" lon="11.270388244289016"><ele>71.5</ele><time>2026-03-22T15:50:48.865Z</time></trkpt><trkpt lat="43.757208082262686" lon="11.270487810074163"><ele>70.0</ele><time>2026-03-22T15:50:49.865Z</time></trkpt><trkpt lat="43.75730268966776" lon="11.270585127002262"><ele>70.25</ele><time>2026-03-22T15:50:50.865Z</time></trkpt><trkpt lat="43.75738348484924" lon="11.2706682361279"><ele>70.5</ele><time>2026-03-22T15:50:51.865Z</time></trkpt><trkpt lat="43.757490101914165" lon="11.270780112607996"><ele>70.75</ele><time>2026-03-22T15:50:52.865Z</time></trkpt><trkpt lat="43.757601995018284" lon="11.27090056061228"><ele>71.0</ele><time>2026-03-22T15:50:53.865Z</time></trkpt><trkpt lat="43.757716849592065" lon="11.27102195984526"><ele>70.2</ele><time>2026-03-22T15:50:54.865Z</time></trkpt><trkpt lat="43.75780794760422" lon="11.271114083167015"><ele>69.39999999999999</ele><time>2026-03-22T15:50:55.865Z</time></trkpt><trkpt lat="43.75789327222159" lon="11.271196589851282"><ele>68.6</ele><time>2026-03-22T15:50:56.865Z</time></trkpt><trkpt lat="43.757969531031044" lon="11.271264811247033"><ele>67.8</ele><time>2026-03-22T15:50:57.865Z</time></trkpt><trkpt lat="43.75805297386118" lon="11.271324542471229"><ele>67.0</ele><time>2026-03-22T15:50:58.864Z</time></trkpt><trkpt lat="43.758165799806065" lon="11.271389528023525"><ele>67.25</ele><time>2026-03-22T15:50:59.864Z</time></trkpt><trkpt lat="43.758262848957564" lon="11.271447464117111"><ele>67.5</ele><time>2026-03-22T15:51:00.864Z</time></trkpt><trkpt lat="43.758401619894755" lon="11.271495715676526"><ele>67.75</ele><time>2026-03-22T15:51:01.864Z</time></trkpt><trkpt lat="43.75855862972737" lon="11.271545377268"><ele>68.0</ele><time>2026-03-22T15:51:02.864Z</time></trkpt><trkpt lat="43.758748224226004" lon="11.271604195413746"><ele>66.66666666666667</ele><time>2026-03-22T15:51:03.864Z</time></trkpt><trkpt lat="43.75891741973806" lon="11.271655370407608"><ele>65.33333333333333</ele><time>2026-03-22T15:51:04.864Z</time></trkpt><trkpt lat="43.75906983901915" lon="11.271700468370273"><ele>64.0</ele><time>2026-03-22T15:51:05.864Z</time></trkpt><trkpt lat="43.75921970334777" lon="11.271744455577236"><ele>64.0</ele><time>2026-03-22T15:51:06.864Z</time></trkpt><trkpt lat="43.759342912316995" lon="11.271780619062662"><ele>64.0</ele><time>2026-03-22T15:51:07.864Z</time></trkpt><trkpt lat="43.759472180246235" lon="11.271819658180679"><ele>64.0</ele><time>2026-03-22T15:51:08.864Z</time></trkpt><trkpt lat="43.75959084943789" lon="11.271860339622847"><ele>64.0</ele><time>2026-03-22T15:51:09.864Z</time></trkpt><trkpt lat="43.759744645936294" lon="11.271918721875897"><ele>63.666666666666664</ele><time>2026-03-22T15:51:10.864Z</time></trkpt><trkpt lat="43.759894560234024" lon="11.271974572726654"><ele>63.33333333333333</ele><time>2026-03-22T15:51:11.864Z</time></trkpt><trkpt lat="43.76007013574604" lon="11.27203419161096"><ele>63.0</ele><time>2026-03-22T15:51:12.864Z</time></trkpt><trkpt lat="43.760266744066165" lon="11.272093371787033"><ele>64.0</ele><time>2026-03-22T15:51:13.864Z</time></trkpt><trkpt lat="43.76044058124387" lon="11.27215286182397"><ele>65.0</ele><time>2026-03-22T15:51:14.864Z</time></trkpt><trkpt lat="43.76058980084504" lon="11.272204338584158"><ele>66.0</ele><time>2026-03-22T15:51:15.864Z</time></trkpt><trkpt lat="43.76071993215876" lon="11.272247268394285"><ele>64.75</ele><time>2026-03-22T15:51:16.864Z</time></trkpt><trkpt lat="43.76084163810227" lon="11.27228394721767"><ele>63.5</ele><time>2026-03-22T15:51:17.864Z</time></trkpt><trkpt lat="43.76095125507674" lon="11.272317093863789"><ele>62.25</ele><time>2026-03-22T15:51:18.864Z</time></trkpt><trkpt lat="43.76105395726212" lon="11.272349089286896"><ele>61.0</ele><time>2026-03-22T15:51:19.864Z</time></trkpt><trkpt lat="43.76116165037542" lon="11.272383913581898"><ele>59.83333333333333</ele><time>2026-03-22T15:51:20.864Z</time></trkpt><trkpt lat="43.761244210804435" lon="11.272411276725506"><ele>58.666666666666664</ele><time>2026-03-22T15:51:21.864Z</time></trkpt><trkpt lat="43.761329128170146" lon="11.272439421031304"><ele>57.5</ele><time>2026-03-22T15:51:22.864Z</time></trkpt><trkpt lat="43.76140521715863" lon="11.272464639330062"><ele>56.33333333333333</ele><time>2026-03-22T15:51:23.864Z</time></trkpt><trkpt lat="43.761473491642825" lon="11.2724867583425"><ele>55.166666666666664</ele><time>2026-03-22T15:51:24.864Z</time></trkpt><trkpt lat="43.76153746039371" lon="11.272504238175"><ele>54.0</ele><time>2026-03-22T15:51:25.864Z</time></trkpt><trkpt lat="43.761614680290435" lon="11.272520180697205"><ele>54.0</ele><time>2026-03-22T15:51:26.864Z</time></trkpt><trkpt lat="43.76168912872477" lon="11.272534254415174"><ele>54.00000000000001</ele><time>2026-03-22T15:51:27.864Z</time></trkpt><trkpt lat="43.76176295629129" lon="11.272544473537407"><ele>54.00000000000001</ele><time>2026-03-22T15:51:28.864Z</time></trkpt><trkpt lat="43.76186589362257" lon="11.272543709649483"><ele>54.0</ele><time>2026-03-22T15:51:30.864Z</time></trkpt><trkpt lat="43.76194370104727" lon="11.272539046389312"><ele>54.0</ele><time>2026-03-22T15:51:33.864Z</time></trkpt><trkpt lat="43.762094052820984" lon="11.272517430283829"><ele>54.2</ele><time>2026-03-22T15:51:46.866Z</time></trkpt><trkpt lat="43.76216858653298" lon="11.272504294035597"><ele>54.400000000000006</ele><time>2026-03-22T15:51:47.866Z</time></trkpt><trkpt lat="43.76225922718341" lon="11.272621292475721"><ele>54.6</ele><time>2026-03-22T15:51:48.866Z</time></trkpt><trkpt lat="43.76234907484127" lon="11.27258815275815"><ele>54.8</ele><time>2026-03-22T15:51:49.866Z</time></trkpt><trkpt lat="43.7624308105289" lon="11.272548456834768"><ele>55.0</ele><time>2026-03-22T15:51:50.866Z</time></trkpt><trkpt lat="43.762517598146374" lon="11.272499571819065"><ele>55.0</ele><time>2026-03-22T15:51:51.866Z</time></trkpt><trkpt lat="43.762615571080836" lon="11.272439459541044"><ele>55.0</ele><time>2026-03-22T15:51:52.866Z</time></trkpt><trkpt lat="43.76272152845386" lon="11.272365732579265"><ele>55.0</ele><time>2026-03-22T15:51:53.866Z</time></trkpt><trkpt lat="43.76283242404456" lon="11.272271808327348"><ele>55.0</ele><time>2026-03-22T15:51:54.866Z</time></trkpt><trkpt lat="43.76292582523989" lon="11.272183446683773"><ele>54.49999999999999</ele><time>2026-03-22T15:51:55.866Z</time></trkpt><trkpt lat="43.76300269501726" lon="11.272106291783446"><ele>54.0</ele><time>2026-03-22T15:51:56.866Z</time></trkpt><trkpt lat="43.76305487400669" lon="11.27201581387344"><ele>53.5</ele><time>2026-03-22T15:51:57.866Z</time></trkpt><trkpt lat="43.7631348809143" lon="11.272016010685439"><ele>53.0</ele><time>2026-03-22T15:51:58.866Z</time></trkpt><trkpt lat="43.76321481794843" lon="11.271924066289792"><ele>52.49999999999999</ele><time>2026-03-22T15:52:00.866Z</time></trkpt><trkpt lat="43.76328093762796" lon="11.27185197645618"><ele>52.0</ele><time>2026-03-22T15:52:01.866Z</time></trkpt><trkpt lat="43.763315779371915" lon="11.271776775612922"><ele>51.99999999999999</ele><time>2026-03-22T15:52:02.866Z</time></trkpt><trkpt lat="43.7633693333013" lon="11.271708245690126"><ele>52.0</ele><time>2026-03-22T15:52:04.866Z</time></trkpt><trkpt lat="43.76345790822142" lon="11.271715623885967"><ele>52.0</ele><time>2026-03-22T15:52:06.866Z</time></trkpt><trkpt lat="43.76356189768021" lon="11.27171096101947"><ele>52.0</ele><time>2026-03-22T15:52:08.866Z</time></trkpt><trkpt lat="43.76365999783318" lon="11.27164021963554"><ele>51.99999999999999</ele><time>2026-03-22T15:52:10.865Z</time></trkpt><trkpt lat="43.76371914418931" lon="11.271582301397254"><ele>52.0</ele><time>2026-03-22T15:52:11.865Z</time></trkpt><trkpt lat="43.76376028165263" lon="11.271496378171706"><ele>51.49999999999999</ele><time>2026-03-22T15:52:12.865Z</time></trkpt><trkpt lat="43.7638227576674" lon="11.271398918967975"><ele>51.0</ele><time>2026-03-22T15:52:13.865Z</time></trkpt><trkpt lat="43.76387646315181" lon="11.271299371202003"><ele>50.5</ele><time>2026-03-22T15:52:14.865Z</time></trkpt><trkpt lat="43.76392824264751" lon="11.271212086981256"><ele>50.0</ele><time>2026-03-22T15:52:15.865Z</time></trkpt><trkpt lat="43.76397771731589" lon="11.271139983224632"><ele>49.49999999999999</ele><time>2026-03-22T15:52:16.865Z</time></trkpt><trkpt lat="43.76402540153006" lon="11.271075834818348"><ele>49.0</ele><time>2026-03-22T15:52:17.865Z</time></trkpt><trkpt lat="43.764057804854076" lon="11.270993339139867"><ele>49.0</ele><time>2026-03-22T15:52:18.865Z</time></trkpt><trkpt lat="43.764134762014784" lon="11.270955393077148"><ele>49.0</ele><time>2026-03-22T15:52:19.865Z</time></trkpt><trkpt lat="43.764258260204244" lon="11.270969915393536"><ele>49.0</ele><time>2026-03-22T15:52:21.865Z</time></trkpt><trkpt lat="43.76434518927705" lon="11.271000039964193"><ele>49.0</ele><time>2026-03-22T15:52:22.865Z</time></trkpt><trkpt lat="43.764430904648854" lon="11.271033324866355"><ele>49.0</ele><time>2026-03-22T15:52:23.865Z</time></trkpt><trkpt lat="43.76452089366345" lon="11.271070840227479"><ele>49.166666666666664</ele><time>2026-03-22T15:52:24.865Z</time></trkpt><trkpt lat="43.76462501800546" lon="11.27109506440534"><ele>49.33333333333333</ele><time>2026-03-22T15:52:25.865Z</time></trkpt><trkpt lat="43.7647136974428" lon="11.271117183875079"><ele>49.5</ele><time>2026-03-22T15:52:26.865Z</time></trkpt><trkpt lat="43.76479423274048" lon="11.271132405094901"><ele>49.66666666666667</ele><time>2026-03-22T15:52:27.865Z</time></trkpt><trkpt lat="43.76485953268713" lon="11.2711525223575"><ele>49.833333333333336</ele><time>2026-03-22T15:52:28.865Z</time></trkpt><trkpt lat="43.76492764207485" lon="11.271158646555518"><ele>50.0</ele><time>2026-03-22T15:52:29.865Z</time></trkpt><trkpt lat="43.765055926429895" lon="11.271163977014181"><ele>50.00000000000001</ele><time>2026-03-22T15:52:31.865Z</time></trkpt><trkpt lat="43.76516599603897" lon="11.271179534481355"><ele>50.0</ele><time>2026-03-22T15:52:33.865Z</time></trkpt><trkpt lat="43.76523522649905" lon="11.271197923380303"><ele>50.0</ele><time>2026-03-22T15:52:35.865Z</time></trkpt><trkpt lat="43.76530571396709" lon="11.271222927794913"><ele>50.0</ele><time>2026-03-22T15:52:40.865Z</time></trkpt><trkpt lat="43.765374449479204" lon="11.271235090518747"><ele>50.00000000000001</ele><time>2026-03-22T15:52:42.865Z</time></trkpt><trkpt lat="43.765467772076306" lon="11.271268569874414"><ele>50.0</ele><time>2026-03-22T15:52:44.865Z</time></trkpt><trkpt lat="43.765582789870884" lon="11.271310690934934"><ele>50.6</ele><time>2026-03-22T15:52:46.865Z</time></trkpt><trkpt lat="43.765641932988615" lon="11.271342727147982"><ele>51.2</ele><time>2026-03-22T15:52:47.865Z</time></trkpt><trkpt lat="43.765776883297285" lon="11.271409181525087"><ele>51.8</ele><time>2026-03-22T15:52:49.865Z</time></trkpt><trkpt lat="43.7658444752631" lon="11.271427072440344"><ele>52.4</ele><time>2026-03-22T15:52:50.865Z</time></trkpt><trkpt lat="43.76586224459115" lon="11.271586934773524"><ele>53.0</ele><time>2026-03-22T15:52:51.865Z</time></trkpt><trkpt lat="43.765893131120585" lon="11.271696881723715"><ele>53.75</ele><time>2026-03-22T15:52:52.865Z</time></trkpt><trkpt lat="43.76580257698357" lon="11.27184348693987"><ele>54.5</ele><time>2026-03-22T15:52:53.865Z</time></trkpt><trkpt lat="43.76579358637125" lon="11.27200344877631"><ele>55.25</ele><time>2026-03-22T15:52:54.865Z</time></trkpt><trkpt lat="43.76578429259977" lon="11.272168899784624"><ele>56.0</ele><time>2026-03-22T15:52:55.865Z</time></trkpt><trkpt lat="43.76577424804786" lon="11.272347716505612"><ele>56.5</ele><time>2026-03-22T15:52:56.865Z</time></trkpt><trkpt lat="43.765763936608444" lon="11.27253128449634"><ele>57.0</ele><time>2026-03-22T15:52:57.865Z</time></trkpt><trkpt lat="43.765752678900014" lon="11.2727316977157"><ele>57.5</ele><time>2026-03-22T15:52:58.865Z</time></trkpt><trkpt lat="43.7658015625513" lon="11.272947710839691"><ele>58.0</ele><time>2026-03-22T15:52:59.865Z</time></trkpt><trkpt lat="43.76579294942511" lon="11.273159804618626"><ele>58.33333333333333</ele><time>2026-03-22T15:53:00.864Z</time></trkpt><trkpt lat="43.76578200563944" lon="11.27339537219174"><ele>58.66666666666667</ele><time>2026-03-22T15:53:01.864Z</time></trkpt><trkpt lat="43.76576982091529" lon="11.27362698425182"><ele>59.0</ele><time>2026-03-22T15:53:02.864Z</time></trkpt><trkpt lat="43.76576123252598" lon="11.273845224525568"><ele>58.66666666666667</ele><time>2026-03-22T15:53:03.864Z</time></trkpt><trkpt lat="43.76574173354035" lon="11.274053924929962"><ele>58.33333333333333</ele><time>2026-03-22T15:53:04.864Z</time></trkpt><trkpt lat="43.76574356375249" lon="11.274277186656311"><ele>58.0</ele><time>2026-03-22T15:53:05.864Z</time></trkpt><trkpt lat="43.76571791992713" lon="11.274475058707006"><ele>58.0</ele><time>2026-03-22T15:53:06.864Z</time></trkpt><trkpt lat="43.76570186383413" lon="11.274700260661664"><ele>58.0</ele><time>2026-03-22T15:53:07.864Z</time></trkpt><trkpt lat="43.76569124694967" lon="11.2749227605139"><ele>58.0</ele><time>2026-03-22T15:53:08.864Z</time></trkpt><trkpt lat="43.76566674740387" lon="11.275137406210458"><ele>57.0</ele><time>2026-03-22T15:53:09.864Z</time></trkpt><trkpt lat="43.76564709381267" lon="11.275334225826386"><ele>56.0</ele><time>2026-03-22T15:53:10.864Z</time></trkpt><trkpt lat="43.76563182043402" lon="11.275523213908912"><ele>55.0</ele><time>2026-03-22T15:53:11.864Z</time></trkpt><trkpt lat="43.765622493593035" lon="11.275692229184298"><ele>54.0</ele><time>2026-03-22T15:53:12.864Z</time></trkpt><trkpt lat="43.76560131327264" lon="11.275851828347859"><ele>53.5</ele><time>2026-03-22T15:53:13.864Z</time></trkpt><trkpt lat="43.7655929666138" lon="11.27603477988182"><ele>53.0</ele><time>2026-03-22T15:53:14.864Z</time></trkpt><trkpt lat="43.765555648327044" lon="11.276232341025104"><ele>52.5</ele><time>2026-03-22T15:53:15.864Z</time></trkpt><trkpt lat="43.76553109151115" lon="11.276440197891551"><ele>52.0</ele><time>2026-03-22T15:53:16.864Z</time></trkpt><trkpt lat="43.76550316806683" lon="11.276678197733766"><ele>53.33333333333333</ele><time>2026-03-22T15:53:17.864Z</time></trkpt><trkpt lat="43.76552055537042" lon="11.276918012953637"><ele>54.66666666666667</ele><time>2026-03-22T15:53:18.864Z</time></trkpt><trkpt lat="43.7655029517528" lon="11.277162107748804"><ele>56.0</ele><time>2026-03-22T15:53:19.864Z</time></trkpt><trkpt lat="43.765484521161326" lon="11.277416092046348"><ele>56.0</ele><time>2026-03-22T15:53:20.864Z</time></trkpt><trkpt lat="43.765464070072454" lon="11.277680375053547"><ele>56.0</ele><time>2026-03-22T15:53:21.864Z</time></trkpt><trkpt lat="43.76544241630241" lon="11.27795523799663"><ele>56.0</ele><time>2026-03-22T15:53:22.864Z</time></trkpt><trkpt lat="43.76542483989731" lon="11.278239318142791"><ele>55.66666666666667</ele><time>2026-03-22T15:53:23.864Z</time></trkpt><trkpt lat="43.76541116154317" lon="11.278495087686998"><ele>55.33333333333333</ele><time>2026-03-22T15:53:24.864Z</time></trkpt><trkpt lat="43.765402202505996" lon="11.278744525467923"><ele>55.0</ele><time>2026-03-22T15:53:25.864Z</time></trkpt><trkpt lat="43.76540929475801" lon="11.278970240591873"><ele>55.0</ele><time>2026-03-22T15:53:26.864Z</time></trkpt><trkpt lat="43.76543611004686" lon="11.279212519411118"><ele>55.0</ele><time>2026-03-22T15:53:27.864Z</time></trkpt><trkpt lat="43.76546809335329" lon="11.279451205224396"><ele>55.0</ele><time>2026-03-22T15:53:28.864Z</time></trkpt><trkpt lat="43.76549862268557" lon="11.279702709635993"><ele>55.0</ele><time>2026-03-22T15:53:29.864Z</time></trkpt><trkpt lat="43.765525732815746" lon="11.279924644663653"><ele>55.0</ele><time>2026-03-22T15:53:30.864Z</time></trkpt><trkpt lat="43.76554387016382" lon="11.280128402390467"><ele>55.0</ele><time>2026-03-22T15:53:31.864Z</time></trkpt><trkpt lat="43.765557109618825" lon="11.280284393926829"><ele>55.0</ele><time>2026-03-22T15:53:32.864Z</time></trkpt><trkpt lat="43.76557364867798" lon="11.280414700859557"><ele>55.0</ele><time>2026-03-22T15:53:33.864Z</time></trkpt><trkpt lat="43.765568956254405" lon="11.280549274845537"><ele>55.0</ele><time>2026-03-22T15:53:34.864Z</time></trkpt><trkpt lat="43.76558044294667" lon="11.280680248320099"><ele>55.0</ele><time>2026-03-22T15:53:35.864Z</time></trkpt><trkpt lat="43.76558587204828" lon="11.280781986006485"><ele>55.0</ele><time>2026-03-22T15:53:36.864Z</time></trkpt><trkpt lat="43.76559541601276" lon="11.280876117911074"><ele>55.0</ele><time>2026-03-22T15:53:37.864Z</time></trkpt><trkpt lat="43.76563889643407" lon="11.281025483113904"><ele>54.99999999999999</ele><time>2026-03-22T15:53:39.864Z</time></trkpt><trkpt lat="43.76565375044954" lon="11.281145127560986"><ele>55.0</ele><time>2026-03-22T15:53:41.864Z</time></trkpt><trkpt lat="43.765661864725175" lon="11.281239993266876"><ele>55.0</ele><time>2026-03-22T15:53:43.864Z</time></trkpt><trkpt lat="43.765684831709066" lon="11.281338367042538"><ele>55.0</ele><time>2026-03-22T15:53:45.864Z</time></trkpt><trkpt lat="43.7656924043846" lon="11.281425863864472"><ele>54.99999999999999</ele><time>2026-03-22T15:53:47.864Z</time></trkpt><trkpt lat="43.76570706749488" lon="11.281549920554076"><ele>55.0</ele><time>2026-03-22T15:53:49.866Z</time></trkpt><trkpt lat="43.765717699578055" lon="11.28164178256937"><ele>54.8</ele><time>2026-03-22T15:53:50.866Z</time></trkpt><trkpt lat="43.76573494448434" lon="11.281746992524415"><ele>54.6</ele><time>2026-03-22T15:53:51.866Z</time></trkpt><trkpt lat="43.76576040568004" lon="11.281860102727862"><ele>54.400000000000006</ele><time>2026-03-22T15:53:52.866Z</time></trkpt><trkpt lat="43.765795080790035" lon="11.281959408854963"><ele>54.2</ele><time>2026-03-22T15:53:53.866Z</time></trkpt><trkpt lat="43.76583087912775" lon="11.282077487264713"><ele>54.0</ele><time>2026-03-22T15:53:54.866Z</time></trkpt><trkpt lat="43.76586195561803" lon="11.282240502606355"><ele>54.0</ele><time>2026-03-22T15:53:55.865Z</time></trkpt><trkpt lat="43.76588720123357" lon="11.282414167852528"><ele>54.0</ele><time>2026-03-22T15:53:56.865Z</time></trkpt><trkpt lat="43.765906958801" lon="11.282576282733517"><ele>54.0</ele><time>2026-03-22T15:53:57.866Z</time></trkpt><trkpt lat="43.765926507492566" lon="11.282752603536526"><ele>54.0</ele><time>2026-03-22T15:53:58.866Z</time></trkpt><trkpt lat="43.76594299734731" lon="11.282938464578553"><ele>53.25</ele><time>2026-03-22T15:53:59.866Z</time></trkpt><trkpt lat="43.76596554956246" lon="11.283135032830023"><ele>52.5</ele><time>2026-03-22T15:54:00.866Z</time></trkpt><trkpt lat="43.76599064638264" lon="11.28333399823765"><ele>51.75</ele><time>2026-03-22T15:54:01.866Z</time></trkpt><trkpt lat="43.76600989397067" lon="11.283549137718209"><ele>51.0</ele><time>2026-03-22T15:54:02.866Z</time></trkpt><trkpt lat="43.766022981585884" lon="11.28375643005572"><ele>53.66666666666667</ele><time>2026-03-22T15:54:03.866Z</time></trkpt><trkpt lat="43.766052576219714" lon="11.283971763246948"><ele>56.333333333333336</ele><time>2026-03-22T15:54:04.866Z</time></trkpt><trkpt lat="43.766080261874826" lon="11.284179663363048"><ele>59.0</ele><time>2026-03-22T15:54:05.866Z</time></trkpt><trkpt lat="43.766099273685775" lon="11.284412255776612"><ele>59.0</ele><time>2026-03-22T15:54:06.866Z</time></trkpt><trkpt lat="43.76612369083341" lon="11.284600205228312"><ele>59.0</ele><time>2026-03-22T15:54:07.866Z</time></trkpt><trkpt lat="43.76614443858345" lon="11.284786175829316"><ele>59.0</ele><time>2026-03-22T15:54:08.866Z</time></trkpt><trkpt lat="43.76616410488741" lon="11.284957836240162"><ele>59.0</ele><time>2026-03-22T15:54:09.866Z</time></trkpt><trkpt lat="43.76617865631462" lon="11.285119387899032"><ele>58.400000000000006</ele><time>2026-03-22T15:54:10.866Z</time></trkpt><trkpt lat="43.76618355958355" lon="11.285276240719192"><ele>57.800000000000004</ele><time>2026-03-22T15:54:11.866Z</time></trkpt><trkpt lat="43.76619803143626" lon="11.285415049768545"><ele>57.199999999999996</ele><time>2026-03-22T15:54:12.866Z</time></trkpt><trkpt lat="43.76620943427677" lon="11.285565758777693"><ele>56.599999999999994</ele><time>2026-03-22T15:54:13.866Z</time></trkpt><trkpt lat="43.7662131619504" lon="11.285680323815578"><ele>56.0</ele><time>2026-03-22T15:54:14.866Z</time></trkpt><trkpt lat="43.76621862927413" lon="11.285774224045229"><ele>56.0</ele><time>2026-03-22T15:54:15.866Z</time></trkpt><trkpt lat="43.766223868744724" lon="11.285862182885696"><ele>55.99999999999999</ele><time>2026-03-22T15:54:16.865Z</time></trkpt><trkpt lat="43.76624863890204" lon="11.28602246350179"><ele>55.99999999999999</ele><time>2026-03-22T15:54:18.865Z</time></trkpt><trkpt lat="43.766270557341144" lon="11.286195220268361"><ele>56.0</ele><time>2026-03-22T15:54:20.865Z</time></trkpt><trkpt lat="43.76628296517931" lon="11.28629565213235"><ele>56.0</ele><time>2026-03-22T15:54:21.865Z</time></trkpt><trkpt lat="43.7662948462076" lon="11.286409614382192"><ele>55.833333333333336</ele><time>2026-03-22T15:54:22.865Z</time></trkpt><trkpt lat="43.76630739938519" lon="11.286536328088031"><ele>55.66666666666667</ele><time>2026-03-22T15:54:23.865Z</time></trkpt><trkpt lat="43.76631042815801" lon="11.286637002843506"><ele>55.5</ele><time>2026-03-22T15:54:24.865Z</time></trkpt><trkpt lat="43.766322445390244" lon="11.286749513425642"><ele>55.33333333333333</ele><time>2026-03-22T15:54:25.865Z</time></trkpt><trkpt lat="43.76633632094385" lon="11.28683846531802"><ele>55.166666666666664</ele><time>2026-03-22T15:54:26.865Z</time></trkpt><trkpt lat="43.76634185671308" lon="11.286926131187196"><ele>55.0</ele><time>2026-03-22T15:54:27.865Z</time></trkpt><trkpt lat="43.76635648825472" lon="11.287101597037061"><ele>54.99999999999999</ele><time>2026-03-22T15:54:29.865Z</time></trkpt><trkpt lat="43.76636439799086" lon="11.28721391891595"><ele>55.0</ele><time>2026-03-22T15:54:31.865Z</time></trkpt><trkpt lat="43.76637093833258" lon="11.28730368163184"><ele>55.0</ele><time>2026-03-22T15:54:34.865Z</time></trkpt><trkpt lat="43.766371431595466" lon="11.28739637161801"><ele>55.0</ele><time>2026-03-22T15:54:38.865Z</time></trkpt><trkpt lat="43.766375104078676" lon="11.287521103698"><ele>54.99999999999999</ele><time>2026-03-22T15:54:43.865Z</time></trkpt><trkpt lat="43.766402233421076" lon="11.287633227894965"><ele>55.0</ele><time>2026-03-22T15:54:46.865Z</time></trkpt><trkpt lat="43.76643267013534" lon="11.287788709611476"><ele>55.0</ele><time>2026-03-22T15:54:48.865Z</time></trkpt><trkpt lat="43.766467702511314" lon="11.287926139318607"><ele>55.0</ele><time>2026-03-22T15:54:49.865Z</time></trkpt><trkpt lat="43.76650394529502" lon="11.288091760593048"><ele>55.0</ele><time>2026-03-22T15:54:50.865Z</time></trkpt><trkpt lat="43.76653603062984" lon="11.288308579973652"><ele>55.0</ele><time>2026-03-22T15:54:51.865Z</time></trkpt><trkpt lat="43.76655077205648" lon="11.288555996587046"><ele>55.0</ele><time>2026-03-22T15:54:52.865Z</time></trkpt><trkpt lat="43.76658152188754" lon="11.288874760335222"><ele>55.0</ele><time>2026-03-22T15:54:53.865Z</time></trkpt><trkpt lat="43.76663961681823" lon="11.289241249713353"><ele>55.5</ele><time>2026-03-22T15:54:54.865Z</time></trkpt><trkpt lat="43.766674025424955" lon="11.289631461489751"><ele>56.0</ele><time>2026-03-22T15:54:55.865Z</time></trkpt><trkpt lat="43.76672991372497" lon="11.290003420346926"><ele>56.0</ele><time>2026-03-22T15:54:56.865Z</time></trkpt><trkpt lat="43.76675089386543" lon="11.290346016463657"><ele>56.0</ele><time>2026-03-22T15:54:57.865Z</time></trkpt><trkpt lat="43.766778741852754" lon="11.290633754155621"><ele>56.0</ele><time>2026-03-22T15:54:58.865Z</time></trkpt><trkpt lat="43.76681351058304" lon="11.290922015609105"><ele>56.0</ele><time>2026-03-22T15:54:59.865Z</time></trkpt><trkpt lat="43.76684424580721" lon="11.291185241695546"><ele>56.0</ele><time>2026-03-22T15:55:00.865Z</time></trkpt><trkpt lat="43.76687262760999" lon="11.29144667524406"><ele>56.0</ele><time>2026-03-22T15:55:01.865Z</time></trkpt><trkpt lat="43.766904761408604" lon="11.291673198097643"><ele>56.0</ele><time>2026-03-22T15:55:02.865Z</time></trkpt><trkpt lat="43.76692439544518" lon="11.291909302456018"><ele>56.0</ele><time>2026-03-22T15:55:03.865Z</time></trkpt><trkpt lat="43.76694362177915" lon="11.292117046490361"><ele>55.75</ele><time>2026-03-22T15:55:04.865Z</time></trkpt><trkpt lat="43.76695630758651" lon="11.29230541078682"><ele>55.5</ele><time>2026-03-22T15:55:05.865Z</time></trkpt><trkpt lat="43.76696716553488" lon="11.292495149940235"><ele>55.25</ele><time>2026-03-22T15:55:06.865Z</time></trkpt><trkpt lat="43.766978493922494" lon="11.29267030859446"><ele>55.0</ele><time>2026-03-22T15:55:07.864Z</time></trkpt><trkpt lat="43.76699038026176" lon="11.2928430714348"><ele>55.0</ele><time>2026-03-22T15:55:08.864Z</time></trkpt><trkpt lat="43.76700196633942" lon="11.293003501839843"><ele>55.0</ele><time>2026-03-22T15:55:09.864Z</time></trkpt><trkpt lat="43.76701241365983" lon="11.293157050410038"><ele>55.0</ele><time>2026-03-22T15:55:10.864Z</time></trkpt><trkpt lat="43.76702157454799" lon="11.293303657514274"><ele>55.0</ele><time>2026-03-22T15:55:11.864Z</time></trkpt><trkpt lat="43.767030175063766" lon="11.293449939548479"><ele>55.0</ele><time>2026-03-22T15:55:12.864Z</time></trkpt><trkpt lat="43.767046515231" lon="11.293599704939519"><ele>55.0</ele><time>2026-03-22T15:55:13.864Z</time></trkpt><trkpt lat="43.767062377516794" lon="11.293771649475419"><ele>55.0</ele><time>2026-03-22T15:55:14.864Z</time></trkpt><trkpt lat="43.767073231943606" lon="11.293957021389561"><ele>55.0</ele><time>2026-03-22T15:55:15.864Z</time></trkpt><trkpt lat="43.76707477951905" lon="11.294148048890545"><ele>55.0</ele><time>2026-03-22T15:55:16.864Z</time></trkpt><trkpt lat="43.76715559479123" lon="11.294371298857683"><ele>55.0</ele><time>2026-03-22T15:55:17.864Z</time></trkpt><trkpt lat="43.767134721172376" lon="11.294593632405103"><ele>55.0</ele><time>2026-03-22T15:55:18.864Z</time></trkpt><trkpt lat="43.7671070231137" lon="11.294836491238083"><ele>55.0</ele><time>2026-03-22T15:55:19.864Z</time></trkpt><trkpt lat="43.76698695921825" lon="11.295089372612287"><ele>54.33333333333333</ele><time>2026-03-22T15:55:20.864Z</time></trkpt><trkpt lat="43.76694209357052" lon="11.295351546119598"><ele>53.66666666666667</ele><time>2026-03-22T15:55:21.864Z</time></trkpt><trkpt lat="43.76688983846128" lon="11.295645474196675"><ele>53.0</ele><time>2026-03-22T15:55:22.864Z</time></trkpt><trkpt lat="43.766847492857565" lon="11.295877284064385"><ele>53.0</ele><time>2026-03-22T15:55:23.864Z</time></trkpt><trkpt lat="43.766807016543325" lon="11.296095628543135"><ele>53.0</ele><time>2026-03-22T15:55:24.864Z</time></trkpt><trkpt lat="43.76677904943557" lon="11.296252836651107"><ele>53.0</ele><time>2026-03-22T15:55:25.864Z</time></trkpt><trkpt lat="43.76684089650223" lon="11.296406350917918"><ele>53.0</ele><time>2026-03-22T15:55:26.864Z</time></trkpt><trkpt lat="43.76681495724823" lon="11.296513108245803"><ele>53.00000000000001</ele><time>2026-03-22T15:55:27.864Z</time></trkpt><trkpt lat="43.76677915300697" lon="11.296602269824039"><ele>53.0</ele><time>2026-03-22T15:55:28.864Z</time></trkpt><trkpt lat="43.76675077431363" lon="11.296680692972974"><ele>53.0</ele><time>2026-03-22T15:55:29.864Z</time></trkpt><trkpt lat="43.76672829838835" lon="11.296774756789064"><ele>53.0</ele><time>2026-03-22T15:55:30.864Z</time></trkpt><trkpt lat="43.76670863549298" lon="11.296880533916573"><ele>53.00000000000001</ele><time>2026-03-22T15:55:31.864Z</time></trkpt><trkpt lat="43.76669485852406" lon="11.297011153002757"><ele>53.0</ele><time>2026-03-22T15:55:32.864Z</time></trkpt><trkpt lat="43.76666793878097" lon="11.297131715869435"><ele>52.8</ele><time>2026-03-22T15:55:33.864Z</time></trkpt><trkpt lat="43.76664228284935" lon="11.297264606803589"><ele>52.599999999999994</ele><time>2026-03-22T15:55:34.864Z</time></trkpt><trkpt lat="43.76661910002733" lon="11.297401056330683"><ele>52.400000000000006</ele><time>2026-03-22T15:55:35.864Z</time></trkpt><trkpt lat="43.766594891560565" lon="11.297550776856475"><ele>52.2</ele><time>2026-03-22T15:55:36.864Z</time></trkpt><trkpt lat="43.76656654714878" lon="11.297710061499009"><ele>52.0</ele><time>2026-03-22T15:55:37.864Z</time></trkpt><trkpt lat="43.766537625259716" lon="11.297882065696976"><ele>52.0</ele><time>2026-03-22T15:55:38.864Z</time></trkpt><trkpt lat="43.766502146002054" lon="11.298062159078276"><ele>52.0</ele><time>2026-03-22T15:55:39.864Z</time></trkpt><trkpt lat="43.766463611228914" lon="11.298250394402764"><ele>52.0</ele><time>2026-03-22T15:55:40.864Z</time></trkpt><trkpt lat="43.76642997728425" lon="11.298449639099857"><ele>52.0</ele><time>2026-03-22T15:55:41.864Z</time></trkpt><trkpt lat="43.76640000017952" lon="11.298641284436357"><ele>52.33333333333333</ele><time>2026-03-22T15:55:42.864Z</time></trkpt><trkpt lat="43.7663593793797" lon="11.29885782458283"><ele>52.66666666666667</ele><time>2026-03-22T15:55:43.864Z</time></trkpt><trkpt lat="43.766321832392684" lon="11.299062650449509"><ele>53.0</ele><time>2026-03-22T15:55:44.864Z</time></trkpt><trkpt lat="43.766290250423395" lon="11.299251928213529"><ele>53.0</ele><time>2026-03-22T15:55:45.864Z</time></trkpt><trkpt lat="43.76626061660011" lon="11.29942872750542"><ele>53.0</ele><time>2026-03-22T15:55:46.864Z</time></trkpt><trkpt lat="43.76623158909501" lon="11.299602367186056"><ele>53.0</ele><time>2026-03-22T15:55:47.864Z</time></trkpt><trkpt lat="43.76620347375071" lon="11.29977699703403"><ele>53.0</ele><time>2026-03-22T15:55:48.864Z</time></trkpt><trkpt lat="43.7661770487122" lon="11.299947117657902"><ele>53.0</ele><time>2026-03-22T15:55:49.864Z</time></trkpt><trkpt lat="43.76615319490349" lon="11.300107489008"><ele>53.0</ele><time>2026-03-22T15:55:50.864Z</time></trkpt><trkpt lat="43.766130253607436" lon="11.300250981377411"><ele>53.0</ele><time>2026-03-22T15:55:51.864Z</time></trkpt><trkpt lat="43.76610941857317" lon="11.300369983875273"><ele>53.0</ele><time>2026-03-22T15:55:52.864Z</time></trkpt><trkpt lat="43.76609255373693" lon="11.30047239788334"><ele>53.0</ele><time>2026-03-22T15:55:53.864Z</time></trkpt><trkpt lat="43.766076658521854" lon="11.30055701818849"><ele>53.0</ele><time>2026-03-22T15:55:54.866Z</time></trkpt><trkpt lat="43.76605867174459" lon="11.300656037358156"><ele>53.0</ele><time>2026-03-22T15:55:56.865Z</time></trkpt><trkpt lat="43.7660200072827" lon="11.30083465379471"><ele>53.0</ele><time>2026-03-22T15:56:05.866Z</time></trkpt><trkpt lat="43.765996608053726" lon="11.30095650495822"><ele>53.0</ele><time>2026-03-22T15:56:06.866Z</time></trkpt><trkpt lat="43.765974112544235" lon="11.30110857564336"><ele>53.0</ele><time>2026-03-22T15:56:07.866Z</time></trkpt><trkpt lat="43.765952277980574" lon="11.30130531998744"><ele>53.25</ele><time>2026-03-22T15:56:08.866Z</time></trkpt><trkpt lat="43.7659364766429" lon="11.301474686165259"><ele>53.5</ele><time>2026-03-22T15:56:09.866Z</time></trkpt><trkpt lat="43.76590548873405" lon="11.301689338098218"><ele>53.75</ele><time>2026-03-22T15:56:10.866Z</time></trkpt><trkpt lat="43.76587606433" lon="11.301904984058162"><ele>54.0</ele><time>2026-03-22T15:56:11.866Z</time></trkpt><trkpt lat="43.765846644230564" lon="11.30212880302886"><ele>54.66666666666667</ele><time>2026-03-22T15:56:12.866Z</time></trkpt><trkpt lat="43.7658125794684" lon="11.302390033162984"><ele>55.333333333333336</ele><time>2026-03-22T15:56:13.866Z</time></trkpt><trkpt lat="43.76577989111496" lon="11.3026654033513"><ele>56.0</ele><time>2026-03-22T15:56:14.866Z</time></trkpt><trkpt lat="43.765733385327664" lon="11.302918488909166"><ele>56.333333333333336</ele><time>2026-03-22T15:56:15.866Z</time></trkpt><trkpt lat="43.76569299824168" lon="11.303205740327776"><ele>56.66666666666667</ele><time>2026-03-22T15:56:16.866Z</time></trkpt><trkpt lat="43.76566814071649" lon="11.303533656374743"><ele>57.0</ele><time>2026-03-22T15:56:17.866Z</time></trkpt><trkpt lat="43.76562302017972" lon="11.303900447374229"><ele>57.5</ele><time>2026-03-22T15:56:18.866Z</time></trkpt><trkpt lat="43.76556852265474" lon="11.304258521430034"><ele>58.0</ele><time>2026-03-22T15:56:19.866Z</time></trkpt><trkpt lat="43.7655311310863" lon="11.304574744180323"><ele>58.33333333333333</ele><time>2026-03-22T15:56:20.866Z</time></trkpt><trkpt lat="43.76552337658178" lon="11.304828011689562"><ele>58.66666666666667</ele><time>2026-03-22T15:56:21.866Z</time></trkpt><trkpt lat="43.76550013355133" lon="11.305037232682702"><ele>59.0</ele><time>2026-03-22T15:56:22.866Z</time></trkpt><trkpt lat="43.76547792862856" lon="11.30522581906333"><ele>59.0</ele><time>2026-03-22T15:56:23.866Z</time></trkpt><trkpt lat="43.765457213305524" lon="11.305415703098532"><ele>59.0</ele><time>2026-03-22T15:56:24.866Z</time></trkpt><trkpt lat="43.76543999057244" lon="11.305630562834413"><ele>59.0</ele><time>2026-03-22T15:56:25.866Z</time></trkpt><trkpt lat="43.7654220318708" lon="11.305880371020695"><ele>58.66666666666667</ele><time>2026-03-22T15:56:26.866Z</time></trkpt><trkpt lat="43.76538977283449" lon="11.306153016722623"><ele>58.33333333333333</ele><time>2026-03-22T15:56:27.866Z</time></trkpt><trkpt lat="43.765345219467534" lon="11.306446103094382"><ele>58.0</ele><time>2026-03-22T15:56:28.866Z</time></trkpt><trkpt lat="43.76530136187101" lon="11.306758817203294"><ele>57.0</ele><time>2026-03-22T15:56:29.866Z</time></trkpt><trkpt lat="43.7652595995735" lon="11.307080801985032"><ele>56.0</ele><time>2026-03-22T15:56:30.866Z</time></trkpt><trkpt lat="43.76522216652465" lon="11.307423321508255"><ele>55.66666666666667</ele><time>2026-03-22T15:56:31.866Z</time></trkpt><trkpt lat="43.765184699221564" lon="11.307737329452035"><ele>55.33333333333333</ele><time>2026-03-22T15:56:32.865Z</time></trkpt><trkpt lat="43.765148068510904" lon="11.308013229477291"><ele>55.0</ele><time>2026-03-22T15:56:33.865Z</time></trkpt><trkpt lat="43.76511811014008" lon="11.308265696743309"><ele>55.0</ele><time>2026-03-22T15:56:34.865Z</time></trkpt><trkpt lat="43.76509565006223" lon="11.308475539475518"><ele>55.0</ele><time>2026-03-22T15:56:35.865Z</time></trkpt><trkpt lat="43.76507386155426" lon="11.30866706709337"><ele>55.0</ele><time>2026-03-22T15:56:36.865Z</time></trkpt><trkpt lat="43.76505484217839" lon="11.308865296596515"><ele>55.0</ele><time>2026-03-22T15:56:37.865Z</time></trkpt><trkpt lat="43.76503564040327" lon="11.30908410374148"><ele>55.0</ele><time>2026-03-22T15:56:38.865Z</time></trkpt><trkpt lat="43.76501321321564" lon="11.309315945453243"><ele>55.0</ele><time>2026-03-22T15:56:39.865Z</time></trkpt><trkpt lat="43.76498034907637" lon="11.30956291178383"><ele>55.0</ele><time>2026-03-22T15:56:40.865Z</time></trkpt><trkpt lat="43.76495285244308" lon="11.309821871137048"><ele>55.0</ele><time>2026-03-22T15:56:41.865Z</time></trkpt><trkpt lat="43.76492419237864" lon="11.310091394849602"><ele>55.0</ele><time>2026-03-22T15:56:42.865Z</time></trkpt><trkpt lat="43.764890486955814" lon="11.310378043034579"><ele>55.0</ele><time>2026-03-22T15:56:43.865Z</time></trkpt><trkpt lat="43.764863041417776" lon="11.310672123398193"><ele>55.0</ele><time>2026-03-22T15:56:44.865Z</time></trkpt><trkpt lat="43.76484146355031" lon="11.3109679702609"><ele>55.0</ele><time>2026-03-22T15:56:45.865Z</time></trkpt><trkpt lat="43.76482687369991" lon="11.311257656961175"><ele>55.0</ele><time>2026-03-22T15:56:46.865Z</time></trkpt><trkpt lat="43.76483813854943" lon="11.311516619736413"><ele>55.0</ele><time>2026-03-22T15:56:47.865Z</time></trkpt><trkpt lat="43.76486642441267" lon="11.311774593963534"><ele>55.0</ele><time>2026-03-22T15:56:48.865Z</time></trkpt><trkpt lat="43.76490598253589" lon="11.312038552604673"><ele>55.0</ele><time>2026-03-22T15:56:49.865Z</time></trkpt><trkpt lat="43.764945215257036" lon="11.312318905737394"><ele>55.0</ele><time>2026-03-22T15:56:50.865Z</time></trkpt><trkpt lat="43.76498235685925" lon="11.312603483178354"><ele>55.0</ele><time>2026-03-22T15:56:51.865Z</time></trkpt><trkpt lat="43.76502319946342" lon="11.312906522650032"><ele>55.0</ele><time>2026-03-22T15:56:52.865Z</time></trkpt><trkpt lat="43.76506673758565" lon="11.313224156208985"><ele>54.5</ele><time>2026-03-22T15:56:53.865Z</time></trkpt><trkpt lat="43.76510368646022" lon="11.313537700271768"><ele>54.0</ele><time>2026-03-22T15:56:54.865Z</time></trkpt><trkpt lat="43.765152552295675" lon="11.313869528342872"><ele>54.0</ele><time>2026-03-22T15:56:55.865Z</time></trkpt><trkpt lat="43.76519788590191" lon="11.314174972475854"><ele>54.0</ele><time>2026-03-22T15:56:56.865Z</time></trkpt><trkpt lat="43.76524640157791" lon="11.314442237515324"><ele>54.0</ele><time>2026-03-22T15:56:57.865Z</time></trkpt><trkpt lat="43.765307828514025" lon="11.314666772566536"><ele>54.0</ele><time>2026-03-22T15:56:58.865Z</time></trkpt><trkpt lat="43.76539141308521" lon="11.314879674979336"><ele>54.0</ele><time>2026-03-22T15:56:59.865Z</time></trkpt><trkpt lat="43.765496920776734" lon="11.315071679598734"><ele>54.0</ele><time>2026-03-22T15:57:00.865Z</time></trkpt><trkpt lat="43.765621911078505" lon="11.315264312864167"><ele>54.0</ele><time>2026-03-22T15:57:01.865Z</time></trkpt><trkpt lat="43.76575694756262" lon="11.31544931291936"><ele>54.0</ele><time>2026-03-22T15:57:02.865Z</time></trkpt><trkpt lat="43.765894530754764" lon="11.315638119528256"><ele>54.0</ele><time>2026-03-22T15:57:03.865Z</time></trkpt><trkpt lat="43.76602234439475" lon="11.315826371620497"><ele>56.0</ele><time>2026-03-22T15:57:04.865Z</time></trkpt><trkpt lat="43.76613330895377" lon="11.316000966986172"><ele>58.0</ele><time>2026-03-22T15:57:05.865Z</time></trkpt><trkpt lat="43.7662341115961" lon="11.31615441054013"><ele>60.0</ele><time>2026-03-22T15:57:06.865Z</time></trkpt><trkpt lat="43.766333510474226" lon="11.31630129170951"><ele>59.0</ele><time>2026-03-22T15:57:07.865Z</time></trkpt><trkpt lat="43.76643985459827" lon="11.31644577613452"><ele>58.0</ele><time>2026-03-22T15:57:08.865Z</time></trkpt><trkpt lat="43.76653866621666" lon="11.316589065809517"><ele>57.0</ele><time>2026-03-22T15:57:09.865Z</time></trkpt><trkpt lat="43.766633959388166" lon="11.31673860380371"><ele>56.0</ele><time>2026-03-22T15:57:10.865Z</time></trkpt><trkpt lat="43.76672021964359" lon="11.316883840972736"><ele>56.0</ele><time>2026-03-22T15:57:11.865Z</time></trkpt><trkpt lat="43.766792875970516" lon="11.317012286464145"><ele>56.0</ele><time>2026-03-22T15:57:12.865Z</time></trkpt><trkpt lat="43.76684882549038" lon="11.317165731831395"><ele>56.0</ele><time>2026-03-22T15:57:13.865Z</time></trkpt><trkpt lat="43.76688619312077" lon="11.317324678901022"><ele>56.0</ele><time>2026-03-22T15:57:14.865Z</time></trkpt><trkpt lat="43.766917283253406" lon="11.31749071579376"><ele>56.5</ele><time>2026-03-22T15:57:15.865Z</time></trkpt><trkpt lat="43.76695596087485" lon="11.317674949918393"><ele>57.0</ele><time>2026-03-22T15:57:16.865Z</time></trkpt><trkpt lat="43.76700126099791" lon="11.31785072402766"><ele>57.5</ele><time>2026-03-22T15:57:17.865Z</time></trkpt><trkpt lat="43.76705633225878" lon="11.318031791394079"><ele>58.0</ele><time>2026-03-22T15:57:18.865Z</time></trkpt><trkpt lat="43.76712839865837" lon="11.318233172026478"><ele>58.0</ele><time>2026-03-22T15:57:19.865Z</time></trkpt><trkpt lat="43.767207992930516" lon="11.318393743538113"><ele>58.0</ele><time>2026-03-22T15:57:20.865Z</time></trkpt><trkpt lat="43.76729033157529" lon="11.31855736462078"><ele>58.0</ele><time>2026-03-22T15:57:21.865Z</time></trkpt><trkpt lat="43.76736604673176" lon="11.318697553541144"><ele>58.0</ele><time>2026-03-22T15:57:22.864Z</time></trkpt><trkpt lat="43.76743871296977" lon="11.318829747439066"><ele>58.0</ele><time>2026-03-22T15:57:23.864Z</time></trkpt><trkpt lat="43.767513744524095" lon="11.318964351491992"><ele>58.0</ele><time>2026-03-22T15:57:24.864Z</time></trkpt><trkpt lat="43.76759328778782" lon="11.319107467865113"><ele>58.0</ele><time>2026-03-22T15:57:25.864Z</time></trkpt><trkpt lat="43.76767048168155" lon="11.319262918866466"><ele>58.0</ele><time>2026-03-22T15:57:26.864Z</time></trkpt><trkpt lat="43.767735345941894" lon="11.31940268506232"><ele>58.0</ele><time>2026-03-22T15:57:27.864Z</time></trkpt><trkpt lat="43.76780931761127" lon="11.319533011088838"><ele>58.0</ele><time>2026-03-22T15:57:28.864Z</time></trkpt><trkpt lat="43.767868762140026" lon="11.319681297007524"><ele>58.0</ele><time>2026-03-22T15:57:29.864Z</time></trkpt><trkpt lat="43.76793609864674" lon="11.319819747872005"><ele>58.0</ele><time>2026-03-22T15:57:30.864Z</time></trkpt><trkpt lat="43.76800329235263" lon="11.31996180808768"><ele>58.25</ele><time>2026-03-22T15:57:31.864Z</time></trkpt><trkpt lat="43.76807634135896" lon="11.320110401579669"><ele>58.5</ele><time>2026-03-22T15:57:32.864Z</time></trkpt><trkpt lat="43.76814455733996" lon="11.320258494762832"><ele>58.75</ele><time>2026-03-22T15:57:33.864Z</time></trkpt><trkpt lat="43.768206378777755" lon="11.320385313132322"><ele>59.0</ele><time>2026-03-22T15:57:34.864Z</time></trkpt><trkpt lat="43.768259412365666" lon="11.32049154279991"><ele>59.0</ele><time>2026-03-22T15:57:35.864Z</time></trkpt><trkpt lat="43.76829992487439" lon="11.320578582651411"><ele>59.00000000000001</ele><time>2026-03-22T15:57:36.864Z</time></trkpt><trkpt lat="43.76835600627531" lon="11.320719232752452"><ele>59.00000000000001</ele><time>2026-03-22T15:57:38.864Z</time></trkpt><trkpt lat="43.76841228993606" lon="11.32086804278894"><ele>59.0</ele><time>2026-03-22T15:57:40.864Z</time></trkpt><trkpt lat="43.768438688872735" lon="11.320967847973483"><ele>59.0</ele><time>2026-03-22T15:57:41.864Z</time></trkpt><trkpt lat="43.768504398409306" lon="11.321146789136808"><ele>59.400000000000006</ele><time>2026-03-22T15:57:43.864Z</time></trkpt><trkpt lat="43.76853701938808" lon="11.321252460668346"><ele>59.800000000000004</ele><time>2026-03-22T15:57:44.864Z</time></trkpt><trkpt lat="43.76858125200942" lon="11.321352572385747"><ele>60.199999999999996</ele><time>2026-03-22T15:57:45.864Z</time></trkpt><trkpt lat="43.768654337186994" lon="11.321452440938122"><ele>60.599999999999994</ele><time>2026-03-22T15:57:46.864Z</time></trkpt><trkpt lat="43.76874141352332" lon="11.321576006959758"><ele>61.0</ele><time>2026-03-22T15:57:47.864Z</time></trkpt><trkpt lat="43.76884008349045" lon="11.32170824751911"><ele>61.0</ele><time>2026-03-22T15:57:48.864Z</time></trkpt><trkpt lat="43.76892393967675" lon="11.321887188870813"><ele>61.0</ele><time>2026-03-22T15:57:49.864Z</time></trkpt><trkpt lat="43.76900184684827" lon="11.322069329641378"><ele>61.0</ele><time>2026-03-22T15:57:50.864Z</time></trkpt><trkpt lat="43.7690653495015" lon="11.322273436654319"><ele>61.33333333333333</ele><time>2026-03-22T15:57:51.864Z</time></trkpt><trkpt lat="43.769119438153304" lon="11.322496872618506"><ele>61.66666666666667</ele><time>2026-03-22T15:57:52.864Z</time></trkpt><trkpt lat="43.76916300738604" lon="11.322716173430166"><ele>62.0</ele><time>2026-03-22T15:57:53.864Z</time></trkpt><trkpt lat="43.769195856234475" lon="11.322948639009295"><ele>62.66666666666667</ele><time>2026-03-22T15:57:54.864Z</time></trkpt><trkpt lat="43.769214540745516" lon="11.323195960464941"><ele>63.33333333333333</ele><time>2026-03-22T15:57:55.864Z</time></trkpt><trkpt lat="43.76923208715036" lon="11.323464921068874"><ele>64.0</ele><time>2026-03-22T15:57:56.864Z</time></trkpt><trkpt lat="43.76923759178069" lon="11.323769043142512"><ele>63.33333333333333</ele><time>2026-03-22T15:57:57.864Z</time></trkpt><trkpt lat="43.769245324822066" lon="11.324054605110828"><ele>62.66666666666667</ele><time>2026-03-22T15:57:58.864Z</time></trkpt><trkpt lat="43.76925222696129" lon="11.324340535325629"><ele>62.0</ele><time>2026-03-22T15:57:59.864Z</time></trkpt><trkpt lat="43.76926166114489" lon="11.324623673346617"><ele>61.333333333333336</ele><time>2026-03-22T15:58:00.867Z</time></trkpt><trkpt lat="43.76926283798531" lon="11.32492857428845"><ele>60.66666666666667</ele><time>2026-03-22T15:58:01.866Z</time></trkpt><trkpt lat="43.76926944994022" lon="11.325218367010928"><ele>60.0</ele><time>2026-03-22T15:58:02.866Z</time></trkpt><trkpt lat="43.76927296084589" lon="11.325519416049891"><ele>61.0</ele><time>2026-03-22T15:58:03.866Z</time></trkpt><trkpt lat="43.76928605878573" lon="11.325832715881987"><ele>62.0</ele><time>2026-03-22T15:58:04.866Z</time></trkpt><trkpt lat="43.769309347999105" lon="11.32614971353685"><ele>63.5</ele><time>2026-03-22T15:58:05.866Z</time></trkpt><trkpt lat="43.7693458716244" lon="11.326468193215748"><ele>65.0</ele><time>2026-03-22T15:58:06.866Z</time></trkpt><trkpt lat="43.769381081178835" lon="11.326771390394637"><ele>67.33333333333334</ele><time>2026-03-22T15:58:07.866Z</time></trkpt><trkpt lat="43.76942490085373" lon="11.32702323236893"><ele>69.66666666666667</ele><time>2026-03-22T15:58:08.866Z</time></trkpt><trkpt lat="43.76944121048179" lon="11.327241500987322"><ele>72.0</ele><time>2026-03-22T15:58:09.867Z</time></trkpt><trkpt lat="43.76944606558934" lon="11.327434239874771"><ele>72.33333333333333</ele><time>2026-03-22T15:58:10.866Z</time></trkpt><trkpt lat="43.76943761377858" lon="11.327654105981791"><ele>72.66666666666666</ele><time>2026-03-22T15:58:11.866Z</time></trkpt><trkpt lat="43.76942451433791" lon="11.327840883297384"><ele>73.0</ele><time>2026-03-22T15:58:12.866Z</time></trkpt><trkpt lat="43.769402821415056" lon="11.328058937541012"><ele>74.0</ele><time>2026-03-22T15:58:13.866Z</time></trkpt><trkpt lat="43.7693776527716" lon="11.328267363948193"><ele>75.0</ele><time>2026-03-22T15:58:14.866Z</time></trkpt><trkpt lat="43.769366268804596" lon="11.328457800290346"><ele>76.0</ele><time>2026-03-22T15:58:15.866Z</time></trkpt><trkpt lat="43.76936774682295" lon="11.32865847086386"><ele>77.0</ele><time>2026-03-22T15:58:16.866Z</time></trkpt><trkpt lat="43.76938839254218" lon="11.328850465806886"><ele>77.0</ele><time>2026-03-22T15:58:17.866Z</time></trkpt><trkpt lat="43.76942204669567" lon="11.329026476696036"><ele>77.0</ele><time>2026-03-22T15:58:18.866Z</time></trkpt><trkpt lat="43.769457231764136" lon="11.329183286472581"><ele>77.0</ele><time>2026-03-22T15:58:19.866Z</time></trkpt><trkpt lat="43.76948547189222" lon="11.329347597534529"><ele>77.0</ele><time>2026-03-22T15:58:20.866Z</time></trkpt><trkpt lat="43.76950822021807" lon="11.329507672049731"><ele>77.0</ele><time>2026-03-22T15:58:21.866Z</time></trkpt><trkpt lat="43.76953105715226" lon="11.329681268421627"><ele>77.0</ele><time>2026-03-22T15:58:22.866Z</time></trkpt><trkpt lat="43.76956233199129" lon="11.329836310343424"><ele>77.0</ele><time>2026-03-22T15:58:23.866Z</time></trkpt><trkpt lat="43.769599844107205" lon="11.329989621622381"><ele>77.0</ele><time>2026-03-22T15:58:24.866Z</time></trkpt><trkpt lat="43.76963700079002" lon="11.330130942112621"><ele>76.5</ele><time>2026-03-22T15:58:25.866Z</time></trkpt><trkpt lat="43.769687947533924" lon="11.330268577102638"><ele>76.0</ele><time>2026-03-22T15:58:26.866Z</time></trkpt><trkpt lat="43.76974595727944" lon="11.330403817173977"><ele>75.5</ele><time>2026-03-22T15:58:27.866Z</time></trkpt><trkpt lat="43.76980692775511" lon="11.330551493581558"><ele>75.0</ele><time>2026-03-22T15:58:28.866Z</time></trkpt><trkpt lat="43.769876569443674" lon="11.330704127269467"><ele>74.0</ele><time>2026-03-22T15:58:29.866Z</time></trkpt><trkpt lat="43.76992617048515" lon="11.330846552706195"><ele>73.0</ele><time>2026-03-22T15:58:30.866Z</time></trkpt><trkpt lat="43.76997897556429" lon="11.330979682859553"><ele>72.0</ele><time>2026-03-22T15:58:31.866Z</time></trkpt><trkpt lat="43.770029389063424" lon="11.331120046248152"><ele>71.0</ele><time>2026-03-22T15:58:32.866Z</time></trkpt><trkpt lat="43.77008249538614" lon="11.331252597701896"><ele>70.0</ele><time>2026-03-22T15:58:33.866Z</time></trkpt><trkpt lat="43.7701381055494" lon="11.331395038771014"><ele>73.25</ele><time>2026-03-22T15:58:34.866Z</time></trkpt><trkpt lat="43.770192450267174" lon="11.331530165551"><ele>76.5</ele><time>2026-03-22T15:58:35.866Z</time></trkpt><trkpt lat="43.770244315025025" lon="11.331682368940635"><ele>79.75</ele><time>2026-03-22T15:58:36.866Z</time></trkpt><trkpt lat="43.7702904605506" lon="11.331830314574722"><ele>83.0</ele><time>2026-03-22T15:58:37.866Z</time></trkpt><trkpt lat="43.770325198676026" lon="11.331971462229014"><ele>83.0</ele><time>2026-03-22T15:58:38.866Z</time></trkpt><trkpt lat="43.77036208051703" lon="11.332103957268734"><ele>83.0</ele><time>2026-03-22T15:58:39.866Z</time></trkpt><trkpt lat="43.770403776943766" lon="11.332225422538016"><ele>83.0</ele><time>2026-03-22T15:58:40.866Z</time></trkpt><trkpt lat="43.770444047682005" lon="11.332353803727022"><ele>83.0</ele><time>2026-03-22T15:58:41.866Z</time></trkpt><trkpt lat="43.7704925095938" lon="11.332474786425275"><ele>83.0</ele><time>2026-03-22T15:58:42.866Z</time></trkpt><trkpt lat="43.77052241368686" lon="11.332629520752356"><ele>81.0</ele><time>2026-03-22T15:58:43.866Z</time></trkpt><trkpt lat="43.770564303105196" lon="11.332790515549178"><ele>79.0</ele><time>2026-03-22T15:58:44.866Z</time></trkpt><trkpt lat="43.770593472111436" lon="11.33296032718749"><ele>77.0</ele><time>2026-03-22T15:58:45.866Z</time></trkpt><trkpt lat="43.77060685811562" lon="11.333136065682929"><ele>75.0</ele><time>2026-03-22T15:58:46.866Z</time></trkpt><trkpt lat="43.77061808813965" lon="11.333305147258947"><ele>74.6</ele><time>2026-03-22T15:58:47.866Z</time></trkpt><trkpt lat="43.7706207101406" lon="11.333445883565684"><ele>74.2</ele><time>2026-03-22T15:58:48.866Z</time></trkpt><trkpt lat="43.770635568356646" lon="11.333580823055483"><ele>73.8</ele><time>2026-03-22T15:58:49.866Z</time></trkpt><trkpt lat="43.77064232615393" lon="11.333707911292922"><ele>73.4</ele><time>2026-03-22T15:58:50.866Z</time></trkpt><trkpt lat="43.77064623823796" lon="11.333838541111666"><ele>73.0</ele><time>2026-03-22T15:58:51.866Z</time></trkpt><trkpt lat="43.77064308253519" lon="11.333979469374206"><ele>73.0</ele><time>2026-03-22T15:58:52.865Z</time></trkpt><trkpt lat="43.770636962319436" lon="11.334121634459374"><ele>73.0</ele><time>2026-03-22T15:58:53.865Z</time></trkpt><trkpt lat="43.77062520634503" lon="11.334260617335607"><ele>73.0</ele><time>2026-03-22T15:58:54.865Z</time></trkpt><trkpt lat="43.77061748583523" lon="11.334419997612875"><ele>73.0</ele><time>2026-03-22T15:58:55.865Z</time></trkpt><trkpt lat="43.770589616645054" lon="11.3346268276583"><ele>74.4</ele><time>2026-03-22T15:58:56.865Z</time></trkpt><trkpt lat="43.77057485256208" lon="11.334788531005"><ele>75.8</ele><time>2026-03-22T15:58:57.865Z</time></trkpt><trkpt lat="43.770552141914656" lon="11.334929867758268"><ele>77.2</ele><time>2026-03-22T15:58:58.865Z</time></trkpt><trkpt lat="43.77053670755396" lon="11.335082456302818"><ele>78.6</ele><time>2026-03-22T15:58:59.865Z</time></trkpt><trkpt lat="43.77051547810124" lon="11.335236466272184"><ele>80.0</ele><time>2026-03-22T15:59:00.865Z</time></trkpt><trkpt lat="43.770494511056874" lon="11.335388703915669"><ele>80.0</ele><time>2026-03-22T15:59:01.865Z</time></trkpt><trkpt lat="43.77047555932652" lon="11.335541008770402"><ele>80.0</ele><time>2026-03-22T15:59:02.865Z</time></trkpt><trkpt lat="43.77045744612954" lon="11.335687659869414"><ele>80.0</ele><time>2026-03-22T15:59:03.865Z</time></trkpt><trkpt lat="43.77043737626211" lon="11.3358403709617"><ele>80.0</ele><time>2026-03-22T15:59:04.865Z</time></trkpt><trkpt lat="43.770421672150434" lon="11.335990415482685"><ele>80.0</ele><time>2026-03-22T15:59:05.865Z</time></trkpt><trkpt lat="43.77040161702127" lon="11.336137387344552"><ele>80.8</ele><time>2026-03-22T15:59:06.865Z</time></trkpt><trkpt lat="43.77038644923985" lon="11.336287277112955"><ele>81.6</ele><time>2026-03-22T15:59:07.865Z</time></trkpt><trkpt lat="43.77036758131879" lon="11.33643592896906"><ele>82.4</ele><time>2026-03-22T15:59:08.865Z</time></trkpt><trkpt lat="43.770347015300956" lon="11.336566949920758"><ele>83.2</ele><time>2026-03-22T15:59:09.865Z</time></trkpt><trkpt lat="43.77032806133368" lon="11.33669386417335"><ele>84.0</ele><time>2026-03-22T15:59:10.865Z</time></trkpt><trkpt lat="43.77031212915377" lon="11.336822368484114"><ele>84.80000000000001</ele><time>2026-03-22T15:59:11.865Z</time></trkpt><trkpt lat="43.77030116415853" lon="11.336943197498561"><ele>85.60000000000001</ele><time>2026-03-22T15:59:12.865Z</time></trkpt><trkpt lat="43.77027909874906" lon="11.337063007803287"><ele>86.4</ele><time>2026-03-22T15:59:13.865Z</time></trkpt><trkpt lat="43.77026302754188" lon="11.337195138262302"><ele>87.2</ele><time>2026-03-22T15:59:14.865Z</time></trkpt><trkpt lat="43.77024211892799" lon="11.337322184063511"><ele>88.0</ele><time>2026-03-22T15:59:15.865Z</time></trkpt><trkpt lat="43.77022848361653" lon="11.337467909328675"><ele>88.60000000000001</ele><time>2026-03-22T15:59:16.865Z</time></trkpt><trkpt lat="43.77021007526609" lon="11.337603646990955"><ele>89.2</ele><time>2026-03-22T15:59:17.865Z</time></trkpt><trkpt lat="43.770195701035746" lon="11.337769799623668"><ele>89.8</ele><time>2026-03-22T15:59:18.865Z</time></trkpt><trkpt lat="43.77017856034928" lon="11.337911178299278"><ele>90.4</ele><time>2026-03-22T15:59:19.865Z</time></trkpt><trkpt lat="43.7701667741949" lon="11.338035210127146"><ele>91.0</ele><time>2026-03-22T15:59:20.865Z</time></trkpt><trkpt lat="43.770155122879316" lon="11.338140051555401"><ele>87.83333333333333</ele><time>2026-03-22T15:59:21.865Z</time></trkpt><trkpt lat="43.77014765532457" lon="11.33822710473741"><ele>84.66666666666666</ele><time>2026-03-22T15:59:22.865Z</time></trkpt><trkpt lat="43.770138268335664" lon="11.338328745916991"><ele>81.5</ele><time>2026-03-22T15:59:23.865Z</time></trkpt><trkpt lat="43.770119210258606" lon="11.338507907573666"><ele>78.33333333333333</ele><time>2026-03-22T15:59:25.865Z</time></trkpt><trkpt lat="43.77010514417678" lon="11.338606997953603"><ele>75.16666666666667</ele><time>2026-03-22T15:59:26.865Z</time></trkpt><trkpt lat="43.77007959233426" lon="11.338719397694902"><ele>72.0</ele><time>2026-03-22T15:59:27.865Z</time></trkpt><trkpt lat="43.770050672640345" lon="11.338852508359471"><ele>71.75</ele><time>2026-03-22T15:59:28.865Z</time></trkpt><trkpt lat="43.77002313927963" lon="11.339008921481305"><ele>71.5</ele><time>2026-03-22T15:59:29.865Z</time></trkpt><trkpt lat="43.769994063216494" lon="11.339172005155163"><ele>71.25</ele><time>2026-03-22T15:59:30.865Z</time></trkpt><trkpt lat="43.76996534132865" lon="11.339358675934"><ele>71.0</ele><time>2026-03-22T15:59:31.865Z</time></trkpt><trkpt lat="43.76990814185198" lon="11.339496035844048"><ele>71.0</ele><time>2026-03-22T15:59:32.865Z</time></trkpt><trkpt lat="43.76988992492396" lon="11.339628090979486"><ele>71.0</ele><time>2026-03-22T15:59:33.865Z</time></trkpt><trkpt lat="43.769873440194225" lon="11.339762836644788"><ele>71.0</ele><time>2026-03-22T15:59:34.865Z</time></trkpt><trkpt lat="43.76986544695923" lon="11.33993520378111"><ele>71.0</ele><time>2026-03-22T15:59:35.865Z</time></trkpt><trkpt lat="43.76984229604285" lon="11.34010427943841"><ele>71.0</ele><time>2026-03-22T15:59:36.865Z</time></trkpt><trkpt lat="43.76982076778058" lon="11.340288086285065"><ele>70.33333333333334</ele><time>2026-03-22T15:59:37.865Z</time></trkpt><trkpt lat="43.769812060310194" lon="11.340501613285435"><ele>69.66666666666667</ele><time>2026-03-22T15:59:38.865Z</time></trkpt><trkpt lat="43.76980729228308" lon="11.340737948276187"><ele>69.0</ele><time>2026-03-22T15:59:39.865Z</time></trkpt><trkpt lat="43.769810206262406" lon="11.341021887408425"><ele>69.0</ele><time>2026-03-22T15:59:40.865Z</time></trkpt><trkpt lat="43.769833564452476" lon="11.341307126132685"><ele>69.0</ele><time>2026-03-22T15:59:41.865Z</time></trkpt><trkpt lat="43.76984286299268" lon="11.341556962571255"><ele>69.0</ele><time>2026-03-22T15:59:42.864Z</time></trkpt><trkpt lat="43.76986870688856" lon="11.341797426453132"><ele>69.0</ele><time>2026-03-22T15:59:43.864Z</time></trkpt><trkpt lat="43.76991191367653" lon="11.342005294337508"><ele>69.0</ele><time>2026-03-22T15:59:44.864Z</time></trkpt><trkpt lat="43.76994640035397" lon="11.342250500256753"><ele>69.0</ele><time>2026-03-22T15:59:45.864Z</time></trkpt><trkpt lat="43.77000726821134" lon="11.342466030129707"><ele>69.25</ele><time>2026-03-22T15:59:46.864Z</time></trkpt><trkpt lat="43.770052012538464" lon="11.342656861469798"><ele>69.5</ele><time>2026-03-22T15:59:47.864Z</time></trkpt><trkpt lat="43.77008186308777" lon="11.342800676413791"><ele>69.75</ele><time>2026-03-22T15:59:48.864Z</time></trkpt><trkpt lat="43.77010037789869" lon="11.342956125714577"><ele>70.0</ele><time>2026-03-22T15:59:49.864Z</time></trkpt><trkpt lat="43.770139064838276" lon="11.343078663571347"><ele>69.4</ele><time>2026-03-22T15:59:50.864Z</time></trkpt><trkpt lat="43.77017248418098" lon="11.343196646882461"><ele>68.8</ele><time>2026-03-22T15:59:51.864Z</time></trkpt><trkpt lat="43.77021342175059" lon="11.343321763682058"><ele>68.2</ele><time>2026-03-22T15:59:52.864Z</time></trkpt><trkpt lat="43.770265890251885" lon="11.343456268440901"><ele>67.6</ele><time>2026-03-22T15:59:53.864Z</time></trkpt><trkpt lat="43.77032490559258" lon="11.3436216678803"><ele>67.0</ele><time>2026-03-22T15:59:54.864Z</time></trkpt><trkpt lat="43.77039420523012" lon="11.34380536983799"><ele>68.33333333333333</ele><time>2026-03-22T15:59:55.864Z</time></trkpt><trkpt lat="43.77046701068041" lon="11.344006372608112"><ele>69.66666666666667</ele><time>2026-03-22T15:59:56.864Z</time></trkpt><trkpt lat="43.77054255709727" lon="11.344196933089732"><ele>71.0</ele><time>2026-03-22T15:59:57.864Z</time></trkpt><trkpt lat="43.770600553157735" lon="11.34439975068371"><ele>71.0</ele><time>2026-03-22T15:59:58.864Z</time></trkpt><trkpt lat="43.77067792482865" lon="11.344582694018689"><ele>71.0</ele><time>2026-03-22T15:59:59.864Z</time></trkpt><trkpt lat="43.77073777283263" lon="11.34478021321152"><ele>71.0</ele><time>2026-03-22T16:00:00.864Z</time></trkpt><trkpt lat="43.770815858303926" lon="11.344977765270638"><ele>70.0</ele><time>2026-03-22T16:00:01.864Z</time></trkpt><trkpt lat="43.77088736153026" lon="11.345181532669898"><ele>69.0</ele><time>2026-03-22T16:00:02.864Z</time></trkpt><trkpt lat="43.77095236928175" lon="11.345361387525838"><ele>68.0</ele><time>2026-03-22T16:00:03.864Z</time></trkpt><trkpt lat="43.77101083113506" lon="11.345530405808123"><ele>67.0</ele><time>2026-03-22T16:00:04.864Z</time></trkpt><trkpt lat="43.771059328713314" lon="11.345688063387978"><ele>69.75</ele><time>2026-03-22T16:00:05.864Z</time></trkpt><trkpt lat="43.771101605968255" lon="11.34585649210132"><ele>72.5</ele><time>2026-03-22T16:00:06.866Z</time></trkpt><trkpt lat="43.77114589586229" lon="11.346042799461067"><ele>75.25</ele><time>2026-03-22T16:00:07.866Z</time></trkpt><trkpt lat="43.77116004872256" lon="11.346262382011014"><ele>78.0</ele><time>2026-03-22T16:00:08.866Z</time></trkpt><trkpt lat="43.77119420252651" lon="11.346477146965599"><ele>78.0</ele><time>2026-03-22T16:00:09.866Z</time></trkpt><trkpt lat="43.77122638818747" lon="11.346724186339115"><ele>78.0</ele><time>2026-03-22T16:00:10.866Z</time></trkpt><trkpt lat="43.771241455891285" lon="11.346977427579969"><ele>78.0</ele><time>2026-03-22T16:00:11.866Z</time></trkpt><trkpt lat="43.77125660848693" lon="11.347246264569701"><ele>76.66666666666667</ele><time>2026-03-22T16:00:12.866Z</time></trkpt><trkpt lat="43.77128214298426" lon="11.34754269327699"><ele>75.33333333333334</ele><time>2026-03-22T16:00:13.866Z</time></trkpt><trkpt lat="43.77130725074724" lon="11.347820843300559"><ele>74.0</ele><time>2026-03-22T16:00:14.866Z</time></trkpt><trkpt lat="43.771339043765444" lon="11.348095909520934"><ele>72.0</ele><time>2026-03-22T16:00:15.867Z</time></trkpt><trkpt lat="43.77137761017806" lon="11.34836847808436"><ele>70.0</ele><time>2026-03-22T16:00:16.866Z</time></trkpt><trkpt lat="43.77142694226066" lon="11.34861484098355"><ele>68.0</ele><time>2026-03-22T16:00:17.866Z</time></trkpt><trkpt lat="43.771485086062704" lon="11.348842467590526"><ele>67.0</ele><time>2026-03-22T16:00:18.867Z</time></trkpt><trkpt lat="43.771558658192205" lon="11.349063097496488"><ele>66.0</ele><time>2026-03-22T16:00:19.866Z</time></trkpt><trkpt lat="43.77165347603537" lon="11.349251029676639"><ele>65.0</ele><time>2026-03-22T16:00:20.866Z</time></trkpt><trkpt lat="43.77176392269912" lon="11.349464065505465"><ele>67.66666666666667</ele><time>2026-03-22T16:00:21.866Z</time></trkpt><trkpt lat="43.771882989883466" lon="11.34968728108241"><ele>70.33333333333333</ele><time>2026-03-22T16:00:22.866Z</time></trkpt><trkpt lat="43.77199391880462" lon="11.349934579781596"><ele>73.0</ele><time>2026-03-22T16:00:23.866Z</time></trkpt><trkpt lat="43.77211673163259" lon="11.350185233762279"><ele>73.0</ele><time>2026-03-22T16:00:24.866Z</time></trkpt><trkpt lat="43.772241854400136" lon="11.35044060231198"><ele>73.0</ele><time>2026-03-22T16:00:25.866Z</time></trkpt><trkpt lat="43.772371845462935" lon="11.350705907340062"><ele>69.0</ele><time>2026-03-22T16:00:26.866Z</time></trkpt><trkpt lat="43.77250446702588" lon="11.3509765807514"><ele>65.0</ele><time>2026-03-22T16:00:27.866Z</time></trkpt><trkpt lat="43.77262767496532" lon="11.351228115824068"><ele>68.0</ele><time>2026-03-22T16:00:28.866Z</time></trkpt><trkpt lat="43.77274396463924" lon="11.351458605488673"><ele>71.0</ele><time>2026-03-22T16:00:29.866Z</time></trkpt><trkpt lat="43.772832400654735" lon="11.351699839639032"><ele>74.0</ele><time>2026-03-22T16:00:30.866Z</time></trkpt><trkpt lat="43.77288971096382" lon="11.351928699227892"><ele>74.0</ele><time>2026-03-22T16:00:31.866Z</time></trkpt><trkpt lat="43.7729312699393" lon="11.352146010026626"><ele>74.0</ele><time>2026-03-22T16:00:32.866Z</time></trkpt><trkpt lat="43.7729397094987" lon="11.352357265639656"><ele>74.0</ele><time>2026-03-22T16:00:33.866Z</time></trkpt><trkpt lat="43.77293492263242" lon="11.352581160089771"><ele>72.0</ele><time>2026-03-22T16:00:34.866Z</time></trkpt><trkpt lat="43.77294932863337" lon="11.3528243890985"><ele>70.0</ele><time>2026-03-22T16:00:35.866Z</time></trkpt><trkpt lat="43.77302026857793" lon="11.353055969256284"><ele>68.0</ele><time>2026-03-22T16:00:36.866Z</time></trkpt><trkpt lat="43.77308675094754" lon="11.35330614797202"><ele>67.33333333333334</ele><time>2026-03-22T16:00:37.866Z</time></trkpt><trkpt lat="43.77316357021857" lon="11.353561122527845"><ele>66.66666666666667</ele><time>2026-03-22T16:00:38.866Z</time></trkpt><trkpt lat="43.77323676611363" lon="11.353832781986577"><ele>66.0</ele><time>2026-03-22T16:00:39.866Z</time></trkpt><trkpt lat="43.773306873409354" lon="11.354112630210711"><ele>65.66666666666667</ele><time>2026-03-22T16:00:40.866Z</time></trkpt><trkpt lat="43.77337392780228" lon="11.354403161686088"><ele>65.33333333333334</ele><time>2026-03-22T16:00:41.866Z</time></trkpt><trkpt lat="43.77344077077465" lon="11.354703241385774"><ele>65.0</ele><time>2026-03-22T16:00:42.866Z</time></trkpt><trkpt lat="43.7735131511124" lon="11.355000595215936"><ele>68.0</ele><time>2026-03-22T16:00:43.866Z</time></trkpt><trkpt lat="43.77358867323119" lon="11.355316351388751"><ele>71.0</ele><time>2026-03-22T16:00:44.866Z</time></trkpt><trkpt lat="43.77367626743126" lon="11.355624503841016"><ele>71.0</ele><time>2026-03-22T16:00:45.866Z</time></trkpt><trkpt lat="43.77378692995085" lon="11.355911754562337"><ele>71.0</ele><time>2026-03-22T16:00:46.866Z</time></trkpt><trkpt lat="43.77388907707321" lon="11.356196759445847"><ele>71.0</ele><time>2026-03-22T16:00:47.866Z</time></trkpt><trkpt lat="43.77399890941849" lon="11.356478472177955"><ele>71.0</ele><time>2026-03-22T16:00:48.866Z</time></trkpt><trkpt lat="43.774109592102384" lon="11.356771616506308"><ele>71.0</ele><time>2026-03-22T16:00:49.866Z</time></trkpt><trkpt lat="43.77425849971616" lon="11.357032355426478"><ele>71.0</ele><time>2026-03-22T16:00:50.866Z</time></trkpt><trkpt lat="43.77437905737784" lon="11.357279305037103"><ele>72.5</ele><time>2026-03-22T16:00:51.866Z</time></trkpt><trkpt lat="43.77454336499828" lon="11.357522194491976"><ele>74.0</ele><time>2026-03-22T16:00:52.866Z</time></trkpt><trkpt lat="43.774708376434354" lon="11.357745783968156"><ele>74.0</ele><time>2026-03-22T16:00:53.866Z</time></trkpt><trkpt lat="43.774888820448176" lon="11.357963138928918"><ele>74.0</ele><time>2026-03-22T16:00:54.866Z</time></trkpt><trkpt lat="43.77507406786401" lon="11.35816174796975"><ele>76.0</ele><time>2026-03-22T16:00:55.866Z</time></trkpt><trkpt lat="43.77526816476243" lon="11.358351319507372"><ele>78.0</ele><time>2026-03-22T16:00:56.866Z</time></trkpt><trkpt lat="43.7754365709065" lon="11.35852750706797"><ele>80.0</ele><time>2026-03-22T16:00:57.866Z</time></trkpt><trkpt lat="43.775581093831256" lon="11.358704964784193"><ele>77.66666666666667</ele><time>2026-03-22T16:00:58.866Z</time></trkpt><trkpt lat="43.77570243893469" lon="11.35888155675426"><ele>75.33333333333333</ele><time>2026-03-22T16:00:59.866Z</time></trkpt><trkpt lat="43.7758050018633" lon="11.359049429392458"><ele>73.0</ele><time>2026-03-22T16:01:00.866Z</time></trkpt><trkpt lat="43.77590809224633" lon="11.359205476330752"><ele>73.0</ele><time>2026-03-22T16:01:01.866Z</time></trkpt><trkpt lat="43.77601851469887" lon="11.359357894809257"><ele>73.0</ele><time>2026-03-22T16:01:02.866Z</time></trkpt><trkpt lat="43.77611923859441" lon="11.359475302148992"><ele>73.0</ele><time>2026-03-22T16:01:03.866Z</time></trkpt><trkpt lat="43.77623627972656" lon="11.359552280239907"><ele>73.0</ele><time>2026-03-22T16:01:04.866Z</time></trkpt><trkpt lat="43.77635201743445" lon="11.359570471635916"><ele>72.66666666666666</ele><time>2026-03-22T16:01:05.866Z</time></trkpt><trkpt lat="43.77649368672403" lon="11.359514222067476"><ele>72.33333333333333</ele><time>2026-03-22T16:01:06.865Z</time></trkpt><trkpt lat="43.77664239100251" lon="11.359430676180603"><ele>72.0</ele><time>2026-03-22T16:01:07.865Z</time></trkpt><trkpt lat="43.77678982491042" lon="11.359345412662734"><ele>70.66666666666667</ele><time>2026-03-22T16:01:08.865Z</time></trkpt><trkpt lat="43.77696080510479" lon="11.35926284326432"><ele>69.33333333333334</ele><time>2026-03-22T16:01:09.865Z</time></trkpt><trkpt lat="43.77712528034679" lon="11.359214937990028"><ele>68.0</ele><time>2026-03-22T16:01:10.865Z</time></trkpt><trkpt lat="43.7773242580643" lon="11.359180083769317"><ele>68.0</ele><time>2026-03-22T16:01:11.865Z</time></trkpt><trkpt lat="43.777530978162574" lon="11.35917220854604"><ele>68.0</ele><time>2026-03-22T16:01:12.865Z</time></trkpt><trkpt lat="43.77774472043284" lon="11.35918272788044"><ele>68.0</ele><time>2026-03-22T16:01:13.865Z</time></trkpt><trkpt lat="43.77795846788289" lon="11.35921125510222"><ele>68.0</ele><time>2026-03-22T16:01:14.865Z</time></trkpt><trkpt lat="43.7781818216435" lon="11.35923058121699"><ele>68.0</ele><time>2026-03-22T16:01:15.865Z</time></trkpt><trkpt lat="43.77840648456941" lon="11.359257592553393"><ele>68.0</ele><time>2026-03-22T16:01:16.865Z</time></trkpt><trkpt lat="43.77863777838298" lon="11.359272624765097"><ele>67.5</ele><time>2026-03-22T16:01:17.865Z</time></trkpt><trkpt lat="43.77888071017511" lon="11.35929029938575"><ele>67.0</ele><time>2026-03-22T16:01:18.865Z</time></trkpt><trkpt lat="43.779120023073055" lon="11.359310227139193"><ele>67.0</ele><time>2026-03-22T16:01:19.865Z</time></trkpt><trkpt lat="43.77935009356462" lon="11.359329974850194"><ele>67.0</ele><time>2026-03-22T16:01:20.865Z</time></trkpt><trkpt lat="43.77956678522554" lon="11.359351821980118"><ele>67.0</ele><time>2026-03-22T16:01:21.865Z</time></trkpt><trkpt lat="43.77976021561666" lon="11.359365903377626"><ele>67.0</ele><time>2026-03-22T16:01:22.865Z</time></trkpt><trkpt lat="43.77994534675431" lon="11.359353841886609"><ele>67.0</ele><time>2026-03-22T16:01:23.865Z</time></trkpt><trkpt lat="43.78011217621854" lon="11.359341625592812"><ele>67.0</ele><time>2026-03-22T16:01:24.865Z</time></trkpt><trkpt lat="43.78027816322983" lon="11.359305056137007"><ele>66.33333333333333</ele><time>2026-03-22T16:01:25.865Z</time></trkpt><trkpt lat="43.78043622202717" lon="11.359197632801264"><ele>65.66666666666667</ele><time>2026-03-22T16:01:26.865Z</time></trkpt><trkpt lat="43.78060113694634" lon="11.359134695758783"><ele>65.0</ele><time>2026-03-22T16:01:27.865Z</time></trkpt><trkpt lat="43.780768023602874" lon="11.359083932706916"><ele>65.0</ele><time>2026-03-22T16:01:28.865Z</time></trkpt><trkpt lat="43.78091533844409" lon="11.359043378856066"><ele>65.0</ele><time>2026-03-22T16:01:29.865Z</time></trkpt><trkpt lat="43.78107018367164" lon="11.359055737512788"><ele>65.0</ele><time>2026-03-22T16:01:30.865Z</time></trkpt><trkpt lat="43.781227155034316" lon="11.359069282613731"><ele>65.66666666666667</ele><time>2026-03-22T16:01:31.865Z</time></trkpt><trkpt lat="43.78138788741883" lon="11.35908646806434"><ele>66.33333333333333</ele><time>2026-03-22T16:01:32.865Z</time></trkpt><trkpt lat="43.78156154000122" lon="11.359105045681709"><ele>67.0</ele><time>2026-03-22T16:01:33.865Z</time></trkpt><trkpt lat="43.781731711550904" lon="11.359122374657298"><ele>67.33333333333333</ele><time>2026-03-22T16:01:34.865Z</time></trkpt><trkpt lat="43.781930040811254" lon="11.359142058862721"><ele>67.66666666666667</ele><time>2026-03-22T16:01:35.865Z</time></trkpt><trkpt lat="43.78212727564824" lon="11.359159988036483"><ele>68.0</ele><time>2026-03-22T16:01:36.865Z</time></trkpt><trkpt lat="43.782299321740524" lon="11.359178667154938"><ele>68.0</ele><time>2026-03-22T16:01:37.865Z</time></trkpt><trkpt lat="43.78246217301002" lon="11.359194930104433"><ele>68.0</ele><time>2026-03-22T16:01:38.865Z</time></trkpt><trkpt lat="43.78261436582568" lon="11.359210595451165"><ele>68.0</ele><time>2026-03-22T16:01:39.865Z</time></trkpt><trkpt lat="43.78274209633823" lon="11.35923628483605"><ele>68.0</ele><time>2026-03-22T16:01:40.865Z</time></trkpt><trkpt lat="43.782861653452535" lon="11.359289527565341"><ele>69.0</ele><time>2026-03-22T16:01:41.865Z</time></trkpt><trkpt lat="43.78295316806052" lon="11.35938251565809"><ele>70.0</ele><time>2026-03-22T16:01:42.865Z</time></trkpt><trkpt lat="43.783080447440625" lon="11.359423913968802"><ele>71.0</ele><time>2026-03-22T16:01:43.865Z</time></trkpt><trkpt lat="43.783154805303916" lon="11.359540385606271"><ele>72.0</ele><time>2026-03-22T16:01:44.865Z</time></trkpt><trkpt lat="43.783243094878614" lon="11.359630741033698"><ele>71.6</ele><time>2026-03-22T16:01:45.865Z</time></trkpt><trkpt lat="43.78331980897943" lon="11.359725347377202"><ele>71.2</ele><time>2026-03-22T16:01:46.865Z</time></trkpt><trkpt lat="43.78339672501117" lon="11.359815752607487"><ele>70.8</ele><time>2026-03-22T16:01:47.865Z</time></trkpt><trkpt lat="43.78347068860475" lon="11.359923993473739"><ele>70.4</ele><time>2026-03-22T16:01:48.865Z</time></trkpt><trkpt lat="43.7835473578506" lon="11.360024946887537"><ele>70.0</ele><time>2026-03-22T16:01:49.865Z</time></trkpt><trkpt lat="43.7835789478633" lon="11.360156047060107"><ele>70.0</ele><time>2026-03-22T16:01:50.865Z</time></trkpt><trkpt lat="43.783637482259934" lon="11.36022771336228"><ele>70.0</ele><time>2026-03-22T16:01:51.865Z</time></trkpt><trkpt lat="43.78369171026524" lon="11.360294107183908"><ele>70.0</ele><time>2026-03-22T16:01:52.865Z</time></trkpt><trkpt lat="43.78376264772356" lon="11.360351351975249"><ele>70.0</ele><time>2026-03-22T16:01:53.865Z</time></trkpt><trkpt lat="43.78378265392051" lon="11.360439823589909"><ele>70.0</ele><time>2026-03-22T16:01:54.865Z</time></trkpt><trkpt lat="43.783846385116675" lon="11.360522334385902"><ele>70.0</ele><time>2026-03-22T16:01:55.865Z</time></trkpt><trkpt lat="43.78392903455573" lon="11.360609794665274"><ele>69.8</ele><time>2026-03-22T16:01:56.864Z</time></trkpt><trkpt lat="43.78400131401042" lon="11.360686517433468"><ele>69.6</ele><time>2026-03-22T16:01:57.864Z</time></trkpt><trkpt lat="43.7840660134932" lon="11.36075187448512"><ele>69.4</ele><time>2026-03-22T16:01:58.864Z</time></trkpt><trkpt lat="43.78414146382719" lon="11.36084561009635"><ele>69.2</ele><time>2026-03-22T16:02:00.864Z</time></trkpt><trkpt lat="43.784204899385315" lon="11.360896910937889"><ele>69.0</ele><time>2026-03-22T16:02:48.866Z</time></trkpt><trkpt lat="43.784305690874405" lon="11.361041747287802"><ele>70.0</ele><time>2026-03-22T16:02:50.866Z</time></trkpt><trkpt lat="43.78440523490323" lon="11.361177390601387"><ele>71.0</ele><time>2026-03-22T16:02:52.866Z</time></trkpt><trkpt lat="43.78445122687334" lon="11.361248661980042"><ele>72.0</ele><time>2026-03-22T16:02:53.866Z</time></trkpt><trkpt lat="43.78448499352426" lon="11.361333217427703"><ele>73.0</ele><time>2026-03-22T16:02:54.866Z</time></trkpt><trkpt lat="43.78452351202186" lon="11.361437641958696"><ele>74.0</ele><time>2026-03-22T16:02:55.866Z</time></trkpt><trkpt lat="43.78456546696537" lon="11.36156974777042"><ele>74.2</ele><time>2026-03-22T16:02:56.866Z</time></trkpt><trkpt lat="43.7846006201891" lon="11.361691505797525"><ele>74.4</ele><time>2026-03-22T16:02:57.866Z</time></trkpt><trkpt lat="43.784635993568436" lon="11.361826326026204"><ele>74.6</ele><time>2026-03-22T16:02:58.866Z</time></trkpt><trkpt lat="43.78465717607876" lon="11.361976763692086"><ele>74.8</ele><time>2026-03-22T16:02:59.866Z</time></trkpt><trkpt lat="43.78466295450357" lon="11.362110482078265"><ele>75.0</ele><time>2026-03-22T16:03:00.866Z</time></trkpt><trkpt lat="43.7846615745812" lon="11.362257525392533"><ele>74.66666666666667</ele><time>2026-03-22T16:03:01.866Z</time></trkpt><trkpt lat="43.78465566987084" lon="11.362393943042356"><ele>74.33333333333333</ele><time>2026-03-22T16:03:02.866Z</time></trkpt><trkpt lat="43.78465078792531" lon="11.362506731322762"><ele>74.0</ele><time>2026-03-22T16:03:03.866Z</time></trkpt><trkpt lat="43.78464643113764" lon="11.362619544965519"><ele>73.66666666666666</ele><time>2026-03-22T16:03:04.866Z</time></trkpt><trkpt lat="43.78464288965277" lon="11.362711273872675"><ele>73.33333333333333</ele><time>2026-03-22T16:03:05.866Z</time></trkpt><trkpt lat="43.784639302439366" lon="11.362804187348027"><ele>73.0</ele><time>2026-03-22T16:03:06.866Z</time></trkpt><trkpt lat="43.784634173978255" lon="11.362937020925397"><ele>72.8</ele><time>2026-03-22T16:03:08.866Z</time></trkpt><trkpt lat="43.784629836410865" lon="11.363049369792536"><ele>72.6</ele><time>2026-03-22T16:03:10.866Z</time></trkpt><trkpt lat="43.7846234025222" lon="11.363206253255873"><ele>72.4</ele><time>2026-03-22T16:03:12.866Z</time></trkpt><trkpt lat="43.784619045835335" lon="11.363308654954423"><ele>72.2</ele><time>2026-03-22T16:03:13.866Z</time></trkpt><trkpt lat="43.78461424793076" lon="11.363421427257327"><ele>72.0</ele><time>2026-03-22T16:03:14.865Z</time></trkpt><trkpt lat="43.784607219318275" lon="11.363586631451344"><ele>72.0</ele><time>2026-03-22T16:03:16.865Z</time></trkpt><trkpt lat="43.78459855324226" lon="11.363790316073331"><ele>72.0</ele><time>2026-03-22T16:03:18.865Z</time></trkpt><trkpt lat="43.78459011529679" lon="11.363907164978961"><ele>72.0</ele><time>2026-03-22T16:03:19.865Z</time></trkpt><trkpt lat="43.78457708160652" lon="11.364034437832636"><ele>72.0</ele><time>2026-03-22T16:03:20.865Z</time></trkpt><trkpt lat="43.78455795119446" lon="11.364145672554697"><ele>72.0</ele><time>2026-03-22T16:03:21.865Z</time></trkpt><trkpt lat="43.78453339208154" lon="11.364254689447986"><ele>71.8</ele><time>2026-03-22T16:03:22.865Z</time></trkpt><trkpt lat="43.78450676781511" lon="11.364381942735614"><ele>71.6</ele><time>2026-03-22T16:03:23.865Z</time></trkpt><trkpt lat="43.784480486378364" lon="11.364506439882131"><ele>71.39999999999999</ele><time>2026-03-22T16:03:24.865Z</time></trkpt><trkpt lat="43.78448433239435" lon="11.36465162563712"><ele>71.2</ele><time>2026-03-22T16:03:25.865Z</time></trkpt><trkpt lat="43.78445999824594" lon="11.364789914011721"><ele>71.0</ele><time>2026-03-22T16:03:26.865Z</time></trkpt><trkpt lat="43.784430962867795" lon="11.364919371806703"><ele>71.39999999999999</ele><time>2026-03-22T16:03:27.865Z</time></trkpt><trkpt lat="43.78439914571237" lon="11.365056951096616"><ele>71.8</ele><time>2026-03-22T16:03:28.865Z</time></trkpt><trkpt lat="43.78437091099015" lon="11.365198181522935"><ele>72.19999999999999</ele><time>2026-03-22T16:03:29.865Z</time></trkpt><trkpt lat="43.78430412276378" lon="11.36530409922363"><ele>72.6</ele><time>2026-03-22T16:03:30.865Z</time></trkpt><trkpt lat="43.78428203093915" lon="11.365404860520846"><ele>73.0</ele><time>2026-03-22T16:03:31.865Z</time></trkpt><trkpt lat="43.78425923303596" lon="11.36550955741454"><ele>73.0</ele><time>2026-03-22T16:03:32.865Z</time></trkpt><trkpt lat="43.784240331699" lon="11.365596359753063"><ele>73.0</ele><time>2026-03-22T16:03:33.865Z</time></trkpt><trkpt lat="43.78421378540817" lon="11.365718269411357"><ele>73.0</ele><time>2026-03-22T16:03:35.865Z</time></trkpt><trkpt lat="43.78440759971158" lon="11.365798325085462"><ele>73.0</ele><time>2026-03-22T16:03:38.865Z</time></trkpt><trkpt lat="43.784347021959306" lon="11.366032997613887"><ele>73.4</ele><time>2026-03-22T16:03:40.865Z</time></trkpt><trkpt lat="43.784335084064175" lon="11.366159995570749"><ele>73.8</ele><time>2026-03-22T16:03:41.865Z</time></trkpt><trkpt lat="43.78432231407979" lon="11.36629584467999"><ele>74.2</ele><time>2026-03-22T16:03:43.865Z</time></trkpt><trkpt lat="43.784312323564116" lon="11.366402124116219"><ele>74.6</ele><time>2026-03-22T16:03:45.865Z</time></trkpt><trkpt lat="43.78445693399837" lon="11.366448220726896"><ele>75.0</ele><time>2026-03-22T16:03:46.865Z</time></trkpt><trkpt lat="43.784519933618604" lon="11.36645034232703"><ele>75.0</ele><time>2026-03-22T16:03:47.865Z</time></trkpt><trkpt lat="43.784587041640265" lon="11.366434207013565"><ele>75.0</ele><time>2026-03-22T16:03:48.865Z</time></trkpt><trkpt lat="43.784672166588365" lon="11.36646720725877"><ele>75.0</ele><time>2026-03-22T16:03:50.865Z</time></trkpt><trkpt lat="43.784640016378184" lon="11.366648098278423"><ele>75.0</ele><time>2026-03-22T16:03:54.865Z</time></trkpt><trkpt lat="43.78457558353113" lon="11.366686694180217"><ele>75.0</ele><time>2026-03-22T16:06:01.908Z</time></trkpt><trkpt lat="43.784635608265006" lon="11.366658995591932"><ele>75.0</ele><time>2026-03-22T16:07:22.911Z</time></trkpt><trkpt lat="43.784781618475094" lon="11.366604859564436"><ele>75.0</ele><time>2026-03-22T16:11:40.45Z</time></trkpt><trkpt lat="43.78464749013616" lon="11.366519041957668"><ele>75.0</ele><time>2026-03-22T16:11:50.058Z</time></trkpt><trkpt lat="43.78470986721784" lon="11.366565530466787"><ele>75.0</ele><time>2026-03-22T16:12:03.056Z</time></trkpt><trkpt lat="43.78471906199704" lon="11.366692806020408"><ele>75.0</ele><time>2026-03-22T16:12:14.912Z</time></trkpt><trkpt lat="43.78478372080995" lon="11.366715105154965"><ele>75.0</ele><time>2026-03-22T16:12:23.912Z</time></trkpt><trkpt lat="43.7847085061556" lon="11.366706661894876"><ele>75.0</ele><time>2026-03-22T16:12:32.911Z</time></trkpt><trkpt lat="43.7846474228883" lon="11.36667744331023"><ele>75.0</ele><time>2026-03-22T16:14:12.913Z</time></trkpt><trkpt lat="43.78464423165428" lon="11.366766381515365"><ele>75.0</ele><time>2026-03-22T16:22:29.07Z</time></trkpt><trkpt lat="43.784740692514376" lon="11.366609015417543"><ele>75.0</ele><time>2026-03-22T16:27:23.073Z</time></trkpt></trkseg></trk></gpx>